<?xml version='1.0' encoding='UTF-8'?><gpx version="1.1" creator="JPX - https://github.com/jenetics/jpx" xmlns="http://www.topografix.com/GPX/1/1"><trk><trkseg><trkpt lat="45.58415952670599" lon="9.33603630022819"><ele>170.0</ele><time>2026-04-09T07:36:46Z</time></trkpt><trkpt lat="45.58423840641098" lon="9.336105629089872"><ele>170.0</ele><time>2026-04-09T07:37:31Z</time></trkpt><trkpt lat="45.584191371603694" lon="9.336005066934348"><ele>170.0</ele><time>2026-04-09T07:39:16.999Z</time></trkpt><trkpt lat="45.58411246935738" lon="9.336013451662435"><ele>170.0</ele><time>2026-04-09T07:39:18.999Z</time></trkpt><trkpt lat="45.584254432495335" lon="9.336037198550667"><ele>170.0</ele><time>2026-04-09T07:39:47.999Z</time></trkpt><trkpt lat="45.58429161152197" lon="9.335891911414539"><ele>170.0</ele><time>2026-04-09T07:40:19.999Z</time></trkpt><trkpt lat="45.58430458962644" lon="9.33575072315448"><ele>170.0</ele><time>2026-04-09T07:40:21.999Z</time></trkpt><trkpt lat="45.58430572359667" lon="9.335652263304294"><ele>170.0</ele><time>2026-04-09T07:40:23.999Z</time></trkpt><trkpt lat="45.58437674528727" lon="9.335619197255754"><ele>170.0</ele><time>2026-04-09T07:40:26.999Z</time></trkpt><trkpt lat="45.58445564559253" lon="9.33561446161221"><ele>170.0</ele><time>2026-04-09T07:40:28.999Z</time></trkpt><trkpt lat="45.584539817085165" lon="9.33565369904878"><ele>170.0</ele><time>2026-04-09T07:40:29.999Z</time></trkpt><trkpt lat="45.58464805768519" lon="9.335684034066896"><ele>170.0</ele><time>2026-04-09T07:40:31.999Z</time></trkpt><trkpt lat="45.584670513691975" lon="9.335509012992844"><ele>170.0</ele><time>2026-04-09T07:40:33.999Z</time></trkpt><trkpt lat="45.58467810637828" lon="9.335381446310363"><ele>170.0</ele><time>2026-04-09T07:40:34.999Z</time></trkpt><trkpt lat="45.58467480855162" lon="9.335281426958739"><ele>170.0</ele><time>2026-04-09T07:40:35.999Z</time></trkpt><trkpt lat="45.58469467372909" lon="9.335164847739886"><ele>170.0</ele><time>2026-04-09T07:40:36.999Z</time></trkpt><trkpt lat="45.58471518809771" lon="9.335055766548448"><ele>170.0</ele><time>2026-04-09T07:40:37.999Z</time></trkpt><trkpt lat="45.58473066851611" lon="9.334933171601014"><ele>170.0</ele><time>2026-04-09T07:40:38.999Z</time></trkpt><trkpt lat="45.58473478903038" lon="9.334806948850419"><ele>170.0</ele><time>2026-04-09T07:40:39.999Z</time></trkpt><trkpt lat="45.58475618923537" lon="9.33468998813378"><ele>170.0</ele><time>2026-04-09T07:40:40.999Z</time></trkpt><trkpt lat="45.58477113557758" lon="9.334564890224907"><ele>170.0</ele><time>2026-04-09T07:40:41.999Z</time></trkpt><trkpt lat="45.58478898525246" lon="9.33443898744795"><ele>170.0</ele><time>2026-04-09T07:40:42.999Z</time></trkpt><trkpt lat="45.58480714173496" lon="9.334315061550901"><ele>170.0</ele><time>2026-04-09T07:40:43.999Z</time></trkpt><trkpt lat="45.58482035372325" lon="9.334189794722665"><ele>170.0</ele><time>2026-04-09T07:40:44.999Z</time></trkpt><trkpt lat="45.58483395240499" lon="9.33406647393706"><ele>170.0</ele><time>2026-04-09T07:40:45.999Z</time></trkpt><trkpt lat="45.58484647057708" lon="9.333949075419463"><ele>170.0</ele><time>2026-04-09T07:40:46.999Z</time></trkpt><trkpt lat="45.58486893898943" lon="9.333842602101264"><ele>170.0</ele><time>2026-04-09T07:40:47.999Z</time></trkpt><trkpt lat="45.58487630982404" lon="9.333742467906097"><ele>170.0</ele><time>2026-04-09T07:40:48.999Z</time></trkpt><trkpt lat="45.584897966289894" lon="9.333601612587143"><ele>170.0</ele><time>2026-04-09T07:40:50.999Z</time></trkpt><trkpt lat="45.58490655643971" lon="9.333505510546917"><ele>170.0</ele><time>2026-04-09T07:40:53.999Z</time></trkpt><trkpt lat="45.585082552533116" lon="9.33353183010713"><ele>170.0</ele><time>2026-04-09T07:40:57Z</time></trkpt><trkpt lat="45.58517137351878" lon="9.333569492839187"><ele>170.0</ele><time>2026-04-09T07:40:58Z</time></trkpt><trkpt lat="45.58528535607222" lon="9.33360899701668"><ele>170.0</ele><time>2026-04-09T07:41:00Z</time></trkpt><trkpt lat="45.58540190393852" lon="9.333639605973454"><ele>170.6</ele><time>2026-04-09T07:41:02Z</time></trkpt><trkpt lat="45.585498504332634" lon="9.333673225125057"><ele>171.2</ele><time>2026-04-09T07:41:04Z</time></trkpt><trkpt lat="45.585625355632956" lon="9.333699753088148"><ele>171.8</ele><time>2026-04-09T07:41:06Z</time></trkpt><trkpt lat="45.58571031843612" lon="9.333694231551402"><ele>172.4</ele><time>2026-04-09T07:41:07Z</time></trkpt><trkpt lat="45.58579419544454" lon="9.333693802481942"><ele>173.0</ele><time>2026-04-09T07:41:08Z</time></trkpt><trkpt lat="45.58587172980145" lon="9.333731414187262"><ele>173.0</ele><time>2026-04-09T07:41:10Z</time></trkpt><trkpt lat="45.585943372974576" lon="9.33374543945195"><ele>173.0</ele><time>2026-04-09T07:41:11Z</time></trkpt><trkpt lat="45.586053429756475" lon="9.333778876781308"><ele>173.0</ele><time>2026-04-09T07:41:13Z</time></trkpt><trkpt lat="45.586155554261175" lon="9.333813963217"><ele>173.0</ele><time>2026-04-09T07:41:15Z</time></trkpt><trkpt lat="45.58626300026065" lon="9.333836827187586"><ele>173.0</ele><time>2026-04-09T07:41:17Z</time></trkpt><trkpt lat="45.58636535884102" lon="9.333854416177061"><ele>173.2</ele><time>2026-04-09T07:41:19Z</time></trkpt><trkpt lat="45.58644913041844" lon="9.333898109390711"><ele>173.4</ele><time>2026-04-09T07:41:21Z</time></trkpt><trkpt lat="45.586557584597585" lon="9.333915205651218"><ele>173.6</ele><time>2026-04-09T07:41:23Z</time></trkpt><trkpt lat="45.58663223778004" lon="9.333930856964527"><ele>173.79999999999998</ele><time>2026-04-09T07:41:25Z</time></trkpt><trkpt lat="45.58671830986313" lon="9.333977434157426"><ele>174.0</ele><time>2026-04-09T07:41:28Z</time></trkpt><trkpt lat="45.586801293961244" lon="9.333943176876174"><ele>174.0</ele><time>2026-04-09T07:41:30Z</time></trkpt><trkpt lat="45.58679199535301" lon="9.333840823740381"><ele>174.0</ele><time>2026-04-09T07:41:32Z</time></trkpt><trkpt lat="45.58678649268182" lon="9.33367404961017"><ele>174.0</ele><time>2026-04-09T07:41:34Z</time></trkpt><trkpt lat="45.586783744768226" lon="9.333553654424746"><ele>174.0</ele><time>2026-04-09T07:41:36Z</time></trkpt><trkpt lat="45.586789679075366" lon="9.333413466241606"><ele>174.0</ele><time>2026-04-09T07:41:38Z</time></trkpt><trkpt lat="45.58678963075217" lon="9.333273503760854"><ele>174.0</ele><time>2026-04-09T07:41:40Z</time></trkpt><trkpt lat="45.586784746001285" lon="9.333128508809397"><ele>174.0</ele><time>2026-04-09T07:41:43Z</time></trkpt><trkpt lat="45.58677850651572" lon="9.332955464354589"><ele>174.0</ele><time>2026-04-09T07:41:45Z</time></trkpt><trkpt lat="45.586781568881214" lon="9.332848615254221"><ele>174.0</ele><time>2026-04-09T07:41:46Z</time></trkpt><trkpt lat="45.586774065852566" lon="9.332742007153966"><ele>174.0</ele><time>2026-04-09T07:41:47Z</time></trkpt><trkpt lat="45.58676818936259" lon="9.332629661170708"><ele>174.0</ele><time>2026-04-09T07:41:48Z</time></trkpt><trkpt lat="45.586770149076735" lon="9.332512739304255"><ele>174.0</ele><time>2026-04-09T07:41:49Z</time></trkpt><trkpt lat="45.58676165646301" lon="9.33238972622725"><ele>174.0</ele><time>2026-04-09T07:41:50Z</time></trkpt><trkpt lat="45.58675228446585" lon="9.332269947325104"><ele>174.0</ele><time>2026-04-09T07:41:51Z</time></trkpt><trkpt lat="45.5867257471225" lon="9.332144348101105"><ele>174.0</ele><time>2026-04-09T07:41:52Z</time></trkpt><trkpt lat="45.58670833929929" lon="9.332040964060912"><ele>174.0</ele><time>2026-04-09T07:41:53Z</time></trkpt><trkpt lat="45.586714409800635" lon="9.331936897743349"><ele>174.0</ele><time>2026-04-09T07:41:54Z</time></trkpt><trkpt lat="45.586698675545364" lon="9.331844331446325"><ele>174.0</ele><time>2026-04-09T07:41:55Z</time></trkpt><trkpt lat="45.586674756331966" lon="9.331750316618502"><ele>174.0</ele><time>2026-04-09T07:41:56Z</time></trkpt><trkpt lat="45.586653070387996" lon="9.331664187870954"><ele>174.0</ele><time>2026-04-09T07:41:57Z</time></trkpt><trkpt lat="45.586666355529495" lon="9.331499344149671"><ele>174.0</ele><time>2026-04-09T07:41:59Z</time></trkpt><trkpt lat="45.58668310907619" lon="9.331395837496661"><ele>174.0</ele><time>2026-04-09T07:42:00Z</time></trkpt><trkpt lat="45.58672824617993" lon="9.331284285759242"><ele>173.33333333333334</ele><time>2026-04-09T07:42:01Z</time></trkpt><trkpt lat="45.586776096500934" lon="9.331166062819364"><ele>172.66666666666666</ele><time>2026-04-09T07:42:02Z</time></trkpt><trkpt lat="45.58682612071826" lon="9.33105642900373"><ele>172.0</ele><time>2026-04-09T07:42:03Z</time></trkpt><trkpt lat="45.5868804338811" lon="9.330959397928448"><ele>171.33333333333331</ele><time>2026-04-09T07:42:04Z</time></trkpt><trkpt lat="45.586933493442686" lon="9.330869009988913"><ele>170.66666666666666</ele><time>2026-04-09T07:42:05Z</time></trkpt><trkpt lat="45.58698882798019" lon="9.330793316134814"><ele>170.0</ele><time>2026-04-09T07:42:06Z</time></trkpt><trkpt lat="45.58705158313715" lon="9.330681208262108"><ele>170.0</ele><time>2026-04-09T07:42:08Z</time></trkpt><trkpt lat="45.58714142489497" lon="9.330633459247695"><ele>170.0</ele><time>2026-04-09T07:42:11Z</time></trkpt><trkpt lat="45.58720155510728" lon="9.330604116592326"><ele>170.0</ele><time>2026-04-09T07:42:12Z</time></trkpt><trkpt lat="45.587264316821916" lon="9.33059643655011"><ele>170.0</ele><time>2026-04-09T07:42:13Z</time></trkpt><trkpt lat="45.58733091733352" lon="9.330589953537709"><ele>170.0</ele><time>2026-04-09T07:42:14Z</time></trkpt><trkpt lat="45.58740282914899" lon="9.330594206656198"><ele>170.0</ele><time>2026-04-09T07:42:15Z</time></trkpt><trkpt lat="45.587472378079006" lon="9.330601624520131"><ele>170.0</ele><time>2026-04-09T07:42:16Z</time></trkpt><trkpt lat="45.587537620736654" lon="9.330612210196264"><ele>170.0</ele><time>2026-04-09T07:42:17Z</time></trkpt><trkpt lat="45.58762532467677" lon="9.330687127381898"><ele>170.0</ele><time>2026-04-09T07:42:19Z</time></trkpt><trkpt lat="45.587678169773575" lon="9.330756493645922"><ele>170.0</ele><time>2026-04-09T07:42:21Z</time></trkpt><trkpt lat="45.587664751606056" lon="9.330661319706001"><ele>170.0</ele><time>2026-04-09T07:43:27Z</time></trkpt><trkpt lat="45.5877220094968" lon="9.330712561593565"><ele>170.0</ele><time>2026-04-09T07:45:07Z</time></trkpt><trkpt lat="45.58781775715033" lon="9.33068083000319"><ele>170.0</ele><time>2026-04-09T07:45:46Z</time></trkpt><trkpt lat="45.58773842987964" lon="9.330689619886488"><ele>170.0</ele><time>2026-04-09T07:48:05Z</time></trkpt><trkpt lat="45.58781021838745" lon="9.330709078249111"><ele>170.0</ele><time>2026-04-09T07:48:08Z</time></trkpt><trkpt lat="45.587902860091205" lon="9.330698005208857"><ele>170.0</ele><time>2026-04-09T07:48:10Z</time></trkpt><trkpt lat="45.58799202006666" lon="9.3306933773419"><ele>170.0</ele><time>2026-04-09T07:48:12Z</time></trkpt><trkpt lat="45.5881130487292" lon="9.330700607072838"><ele>170.0</ele><time>2026-04-09T07:48:14Z</time></trkpt><trkpt lat="45.588233412641216" lon="9.330765892413352"><ele>170.0</ele><time>2026-04-09T07:48:16Z</time></trkpt><trkpt lat="45.58831598868327" lon="9.330786404948368"><ele>170.0</ele><time>2026-04-09T07:48:17Z</time></trkpt><trkpt lat="45.58839210699075" lon="9.33079619309847"><ele>170.0</ele><time>2026-04-09T07:48:18Z</time></trkpt><trkpt lat="45.58848406912046" lon="9.330815384224913"><ele>170.0</ele><time>2026-04-09T07:48:19Z</time></trkpt><trkpt lat="45.588577183030154" lon="9.330833100110057"><ele>170.0</ele><time>2026-04-09T07:48:20Z</time></trkpt><trkpt lat="45.58866500923577" lon="9.330873875290152"><ele>170.0</ele><time>2026-04-09T07:48:21Z</time></trkpt><trkpt lat="45.588763158532615" lon="9.330901024771643"><ele>170.4</ele><time>2026-04-09T07:48:22Z</time></trkpt><trkpt lat="45.588863919428675" lon="9.330925495690757"><ele>170.8</ele><time>2026-04-09T07:48:23Z</time></trkpt><trkpt lat="45.588953288380466" lon="9.330955987145718"><ele>171.2</ele><time>2026-04-09T07:48:24Z</time></trkpt><trkpt lat="45.589049755801106" lon="9.330971766144415"><ele>171.6</ele><time>2026-04-09T07:48:25Z</time></trkpt><trkpt lat="45.58913519936204" lon="9.330994544745495"><ele>172.0</ele><time>2026-04-09T07:48:26Z</time></trkpt><trkpt lat="45.58921475961433" lon="9.3310114779324"><ele>172.0</ele><time>2026-04-09T07:48:27Z</time></trkpt><trkpt lat="45.5892859505953" lon="9.331022741075735"><ele>172.0</ele><time>2026-04-09T07:48:28Z</time></trkpt><trkpt lat="45.58940154279539" lon="9.331037878439194"><ele>172.0</ele><time>2026-04-09T07:48:30Z</time></trkpt><trkpt lat="45.58950003679678" lon="9.331068053763666"><ele>172.0</ele><time>2026-04-09T07:48:32Z</time></trkpt><trkpt lat="45.58961562756987" lon="9.331117541448144"><ele>172.0</ele><time>2026-04-09T07:48:34Z</time></trkpt><trkpt lat="45.58969267820296" lon="9.331149494601346"><ele>172.39999999999998</ele><time>2026-04-09T07:48:35Z</time></trkpt><trkpt lat="45.58977613654877" lon="9.33119320191798"><ele>172.79999999999998</ele><time>2026-04-09T07:48:36Z</time></trkpt><trkpt lat="45.58986033285607" lon="9.33125383669172"><ele>173.2</ele><time>2026-04-09T07:48:37Z</time></trkpt><trkpt lat="45.589945579547795" lon="9.331330252845124"><ele>173.6</ele><time>2026-04-09T07:48:38Z</time></trkpt><trkpt lat="45.59001959382356" lon="9.331412432430641"><ele>174.0</ele><time>2026-04-09T07:48:39Z</time></trkpt><trkpt lat="45.590100178185175" lon="9.33149801653786"><ele>174.0</ele><time>2026-04-09T07:48:40Z</time></trkpt><trkpt lat="45.59018082998813" lon="9.331588385337438"><ele>174.0</ele><time>2026-04-09T07:48:41Z</time></trkpt><trkpt lat="45.59026639123664" lon="9.331679395638456"><ele>174.0</ele><time>2026-04-09T07:48:42Z</time></trkpt><trkpt lat="45.590358164556136" lon="9.33177591001594"><ele>174.0</ele><time>2026-04-09T07:48:43Z</time></trkpt><trkpt lat="45.59044341511916" lon="9.331871520777366"><ele>174.0</ele><time>2026-04-09T07:48:44Z</time></trkpt><trkpt lat="45.59053237959329" lon="9.331973425777159"><ele>174.0</ele><time>2026-04-09T07:48:45Z</time></trkpt><trkpt lat="45.59062045170985" lon="9.332069658387164"><ele>174.0</ele><time>2026-04-09T07:48:46Z</time></trkpt><trkpt lat="45.59070145124686" lon="9.332170377715613"><ele>174.0</ele><time>2026-04-09T07:48:47Z</time></trkpt><trkpt lat="45.59079166556417" lon="9.332276142753624"><ele>174.0</ele><time>2026-04-09T07:48:48Z</time></trkpt><trkpt lat="45.590880628659505" lon="9.332381139737677"><ele>174.25</ele><time>2026-04-09T07:48:49Z</time></trkpt><trkpt lat="45.59098285215599" lon="9.332484086241498"><ele>174.5</ele><time>2026-04-09T07:48:50Z</time></trkpt><trkpt lat="45.59107750649849" lon="9.332585489506537"><ele>174.75</ele><time>2026-04-09T07:48:51Z</time></trkpt><trkpt lat="45.591162396626025" lon="9.332685130453592"><ele>175.0</ele><time>2026-04-09T07:48:52Z</time></trkpt><trkpt lat="45.59125202712144" lon="9.332790562521996"><ele>175.0</ele><time>2026-04-09T07:48:53Z</time></trkpt><trkpt lat="45.591334324703304" lon="9.33289188309198"><ele>175.0</ele><time>2026-04-09T07:48:54Z</time></trkpt><trkpt lat="45.59141907721006" lon="9.332988644290868"><ele>175.0</ele><time>2026-04-09T07:48:55Z</time></trkpt><trkpt lat="45.591500856963066" lon="9.333079952794824"><ele>175.0</ele><time>2026-04-09T07:48:56Z</time></trkpt><trkpt lat="45.59158309449126" lon="9.333167460640869"><ele>175.0</ele><time>2026-04-09T07:48:57Z</time></trkpt><trkpt lat="45.59165715121442" lon="9.333250756554854"><ele>175.0</ele><time>2026-04-09T07:48:58Z</time></trkpt><trkpt lat="45.591731837769615" lon="9.333333654260999"><ele>175.0</ele><time>2026-04-09T07:48:59Z</time></trkpt><trkpt lat="45.591801995219534" lon="9.33340807644056"><ele>175.0</ele><time>2026-04-09T07:49:00Z</time></trkpt><trkpt lat="45.59186382697927" lon="9.333493529254127"><ele>175.0</ele><time>2026-04-09T07:49:01Z</time></trkpt><trkpt lat="45.591929369142846" lon="9.333568931863327"><ele>175.0</ele><time>2026-04-09T07:49:02Z</time></trkpt><trkpt lat="45.59199767713749" lon="9.33365447987571"><ele>175.0</ele><time>2026-04-09T07:49:03Z</time></trkpt><trkpt lat="45.592078654151784" lon="9.333729969825685"><ele>175.0</ele><time>2026-04-09T07:49:04Z</time></trkpt><trkpt lat="45.59216849267426" lon="9.333812470818893"><ele>175.0</ele><time>2026-04-09T07:49:05Z</time></trkpt><trkpt lat="45.592259043174074" lon="9.333904058702117"><ele>175.0</ele><time>2026-04-09T07:49:06Z</time></trkpt><trkpt lat="45.5923444581085" lon="9.334004675054459"><ele>175.0</ele><time>2026-04-09T07:49:07Z</time></trkpt><trkpt lat="45.59243947455688" lon="9.334100219769319"><ele>175.0</ele><time>2026-04-09T07:49:08Z</time></trkpt><trkpt lat="45.59252837861755" lon="9.334208314795783"><ele>175.0</ele><time>2026-04-09T07:49:08.999Z</time></trkpt><trkpt lat="45.592629836331376" lon="9.334310030508929"><ele>175.0</ele><time>2026-04-09T07:49:09.999Z</time></trkpt><trkpt lat="45.59273279450327" lon="9.334416039734538"><ele>175.0</ele><time>2026-04-09T07:49:10.999Z</time></trkpt><trkpt lat="45.592819908368675" lon="9.334523808196831"><ele>175.0</ele><time>2026-04-09T07:49:11.999Z</time></trkpt><trkpt lat="45.592915565098274" lon="9.33462002101863"><ele>175.0</ele><time>2026-04-09T07:49:12.999Z</time></trkpt><trkpt lat="45.59298677018323" lon="9.334729067345144"><ele>175.0</ele><time>2026-04-09T07:49:13.999Z</time></trkpt><trkpt lat="45.59308230539848" lon="9.33483132843706"><ele>175.0</ele><time>2026-04-09T07:49:14.999Z</time></trkpt><trkpt lat="45.59318378390577" lon="9.334938677232683"><ele>175.0</ele><time>2026-04-09T07:49:15.999Z</time></trkpt><trkpt lat="45.59328243883986" lon="9.335045520674049"><ele>175.0</ele><time>2026-04-09T07:49:16.999Z</time></trkpt><trkpt lat="45.593373957265555" lon="9.335161707369862"><ele>175.0</ele><time>2026-04-09T07:49:17.999Z</time></trkpt><trkpt lat="45.593466120398034" lon="9.335273762760654"><ele>175.0</ele><time>2026-04-09T07:49:19Z</time></trkpt><trkpt lat="45.593556978164656" lon="9.335381735448665"><ele>175.0</ele><time>2026-04-09T07:49:20Z</time></trkpt><trkpt lat="45.59365010554687" lon="9.335486387155369"><ele>175.0</ele><time>2026-04-09T07:49:21Z</time></trkpt><trkpt lat="45.59374455870834" lon="9.335595152365643"><ele>175.0</ele><time>2026-04-09T07:49:22Z</time></trkpt><trkpt lat="45.5938348288319" lon="9.335708264889885"><ele>175.0</ele><time>2026-04-09T07:49:23Z</time></trkpt><trkpt lat="45.593924452779056" lon="9.33582962479361"><ele>175.0</ele><time>2026-04-09T07:49:24Z</time></trkpt><trkpt lat="45.594010046284566" lon="9.335953005251053"><ele>175.0</ele><time>2026-04-09T07:49:25Z</time></trkpt><trkpt lat="45.594088637181" lon="9.336076263257745"><ele>175.0</ele><time>2026-04-09T07:49:26Z</time></trkpt><trkpt lat="45.594159574067184" lon="9.336198444084284"><ele>175.0</ele><time>2026-04-09T07:49:27Z</time></trkpt><trkpt lat="45.594221768931035" lon="9.336310403085788"><ele>175.0</ele><time>2026-04-09T07:49:28Z</time></trkpt><trkpt lat="45.59428021056513" lon="9.336412656415053"><ele>175.0</ele><time>2026-04-09T07:49:29Z</time></trkpt><trkpt lat="45.59433192385014" lon="9.336510089673965"><ele>175.16666666666669</ele><time>2026-04-09T07:49:30Z</time></trkpt><trkpt lat="45.594380277470755" lon="9.336602928858396"><ele>175.33333333333334</ele><time>2026-04-09T07:49:31Z</time></trkpt><trkpt lat="45.594428706129804" lon="9.33670412036895"><ele>175.5</ele><time>2026-04-09T07:49:32Z</time></trkpt><trkpt lat="45.59446804257071" lon="9.336800354593223"><ele>175.66666666666666</ele><time>2026-04-09T07:49:33Z</time></trkpt><trkpt lat="45.59451056234859" lon="9.33688956747867"><ele>175.83333333333331</ele><time>2026-04-09T07:49:34Z</time></trkpt><trkpt lat="45.59454933666271" lon="9.336983307382786"><ele>176.0</ele><time>2026-04-09T07:49:35Z</time></trkpt><trkpt lat="45.59458148989721" lon="9.337073917535738"><ele>176.0</ele><time>2026-04-09T07:49:36Z</time></trkpt><trkpt lat="45.59461578828669" lon="9.337168243307595"><ele>176.0</ele><time>2026-04-09T07:49:37Z</time></trkpt><trkpt lat="45.59464347219267" lon="9.337253743373894"><ele>176.0</ele><time>2026-04-09T07:49:38Z</time></trkpt><trkpt lat="45.594670585090476" lon="9.337338639195057"><ele>176.0</ele><time>2026-04-09T07:49:39Z</time></trkpt><trkpt lat="45.59472412404294" lon="9.337496444399816"><ele>176.0</ele><time>2026-04-09T07:49:41Z</time></trkpt><trkpt lat="45.59477675314374" lon="9.337633113673602"><ele>176.0</ele><time>2026-04-09T07:49:43Z</time></trkpt><trkpt lat="45.594819355019915" lon="9.337730329429071"><ele>176.20000000000002</ele><time>2026-04-09T07:49:45Z</time></trkpt><trkpt lat="45.59485526857708" lon="9.337837091316535"><ele>176.4</ele><time>2026-04-09T07:49:48Z</time></trkpt><trkpt lat="45.594893290599515" lon="9.337967092062048"><ele>176.6</ele><time>2026-04-09T07:50:00Z</time></trkpt><trkpt lat="45.5949263584159" lon="9.338077378524325"><ele>176.8</ele><time>2026-04-09T07:50:02Z</time></trkpt><trkpt lat="45.59496904059234" lon="9.33822511816979"><ele>177.0</ele><time>2026-04-09T07:50:04Z</time></trkpt><trkpt lat="45.59502852858219" lon="9.338400606367399"><ele>176.66666666666666</ele><time>2026-04-09T07:50:06Z</time></trkpt><trkpt lat="45.59506821008339" lon="9.33849687518372"><ele>176.33333333333334</ele><time>2026-04-09T07:50:07Z</time></trkpt><trkpt lat="45.59510987305239" lon="9.338594702640188"><ele>176.0</ele><time>2026-04-09T07:50:08Z</time></trkpt><trkpt lat="45.59514824645599" lon="9.338708195700928"><ele>175.66666666666669</ele><time>2026-04-09T07:50:09Z</time></trkpt><trkpt lat="45.59518625002192" lon="9.338818974158908"><ele>175.33333333333334</ele><time>2026-04-09T07:50:10Z</time></trkpt><trkpt lat="45.59522411679856" lon="9.338927094650305"><ele>175.0</ele><time>2026-04-09T07:50:11Z</time></trkpt><trkpt lat="45.59526612378159" lon="9.339047687179573"><ele>174.8</ele><time>2026-04-09T07:50:12Z</time></trkpt><trkpt lat="45.59530783164235" lon="9.339169892881014"><ele>174.6</ele><time>2026-04-09T07:50:13Z</time></trkpt><trkpt lat="45.59535067078421" lon="9.339291540714887"><ele>174.39999999999998</ele><time>2026-04-09T07:50:14Z</time></trkpt><trkpt lat="45.59538918893536" lon="9.339401571748015"><ele>174.2</ele><time>2026-04-09T07:50:15Z</time></trkpt><trkpt lat="45.59542561211413" lon="9.339516596454366"><ele>174.0</ele><time>2026-04-09T07:50:16Z</time></trkpt><trkpt lat="45.5954644590535" lon="9.339636024425324"><ele>174.39999999999998</ele><time>2026-04-09T07:50:17Z</time></trkpt><trkpt lat="45.595505224567226" lon="9.339755963016023"><ele>174.8</ele><time>2026-04-09T07:50:18Z</time></trkpt><trkpt lat="45.59555201545149" lon="9.339875494410268"><ele>175.2</ele><time>2026-04-09T07:50:19Z</time></trkpt><trkpt lat="45.595606354462944" lon="9.340004268552482"><ele>175.60000000000002</ele><time>2026-04-09T07:50:20Z</time></trkpt><trkpt lat="45.595649257248134" lon="9.340130647340773"><ele>176.0</ele><time>2026-04-09T07:50:21Z</time></trkpt><trkpt lat="45.595689668317455" lon="9.340255276290762"><ele>176.0</ele><time>2026-04-09T07:50:22Z</time></trkpt><trkpt lat="45.5957394189371" lon="9.340379422334909"><ele>176.0</ele><time>2026-04-09T07:50:23Z</time></trkpt><trkpt lat="45.59578230800817" lon="9.34050286864514"><ele>176.0</ele><time>2026-04-09T07:50:24Z</time></trkpt><trkpt lat="45.59583117370693" lon="9.34064211015482"><ele>176.0</ele><time>2026-04-09T07:50:25Z</time></trkpt><trkpt lat="45.59588227558216" lon="9.340780457197592"><ele>176.0</ele><time>2026-04-09T07:50:26Z</time></trkpt><trkpt lat="45.59593770717112" lon="9.34094975903624"><ele>176.0</ele><time>2026-04-09T07:50:27Z</time></trkpt><trkpt lat="45.595994264879174" lon="9.341145764027639"><ele>176.0</ele><time>2026-04-09T07:50:28Z</time></trkpt><trkpt lat="45.59602108218004" lon="9.341346266774016"><ele>176.0</ele><time>2026-04-09T07:50:29Z</time></trkpt><trkpt lat="45.59608523327336" lon="9.341516213989552"><ele>176.0</ele><time>2026-04-09T07:50:30Z</time></trkpt><trkpt lat="45.59612372413578" lon="9.34170770746341"><ele>176.0</ele><time>2026-04-09T07:50:31Z</time></trkpt><trkpt lat="45.59616284438443" lon="9.341892904911951"><ele>176.0</ele><time>2026-04-09T07:50:32Z</time></trkpt><trkpt lat="45.59620452098919" lon="9.342065341775697"><ele>176.0</ele><time>2026-04-09T07:50:33Z</time></trkpt><trkpt lat="45.596242790751724" lon="9.342237241644924"><ele>176.0</ele><time>2026-04-09T07:50:34Z</time></trkpt><trkpt lat="45.59628168979159" lon="9.342394951024461"><ele>176.0</ele><time>2026-04-09T07:50:35Z</time></trkpt><trkpt lat="45.59631751581379" lon="9.342534405821427"><ele>176.0</ele><time>2026-04-09T07:50:36Z</time></trkpt><trkpt lat="45.596340064606565" lon="9.342666282860694"><ele>176.0</ele><time>2026-04-09T07:50:37Z</time></trkpt><trkpt lat="45.59635937979963" lon="9.342788238566865"><ele>176.0</ele><time>2026-04-09T07:50:38Z</time></trkpt><trkpt lat="45.596377291266876" lon="9.342899692209015"><ele>176.0</ele><time>2026-04-09T07:50:39Z</time></trkpt><trkpt lat="45.59637914341987" lon="9.342997935433212"><ele>176.0</ele><time>2026-04-09T07:50:40Z</time></trkpt><trkpt lat="45.596362874119855" lon="9.34309984940866"><ele>176.0</ele><time>2026-04-09T07:50:41Z</time></trkpt><trkpt lat="45.596325408913295" lon="9.343177159954212"><ele>176.0</ele><time>2026-04-09T07:50:42Z</time></trkpt><trkpt lat="45.596281480136874" lon="9.34324185504885"><ele>176.0</ele><time>2026-04-09T07:50:43Z</time></trkpt><trkpt lat="45.59629502653588" lon="9.343389862787864"><ele>176.0</ele><time>2026-04-09T07:50:45Z</time></trkpt><trkpt lat="45.59641274728068" lon="9.343476291167477"><ele>176.0</ele><time>2026-04-09T07:50:47Z</time></trkpt><trkpt lat="45.596487744019676" lon="9.343522182046604"><ele>176.0</ele><time>2026-04-09T07:50:48Z</time></trkpt><trkpt lat="45.596546383891585" lon="9.343618566497257"><ele>176.0</ele><time>2026-04-09T07:50:49Z</time></trkpt><trkpt lat="45.596598384674145" lon="9.34374536368615"><ele>176.0</ele><time>2026-04-09T07:50:50Z</time></trkpt><trkpt lat="45.59663806559312" lon="9.343899333590565"><ele>176.0</ele><time>2026-04-09T07:50:51Z</time></trkpt><trkpt lat="45.596692916373875" lon="9.344039936234255"><ele>176.0</ele><time>2026-04-09T07:50:52Z</time></trkpt><trkpt lat="45.59671919560161" lon="9.34421894639622"><ele>176.25</ele><time>2026-04-09T07:50:53Z</time></trkpt><trkpt lat="45.59676294322532" lon="9.344389611572831"><ele>176.5</ele><time>2026-04-09T07:50:54Z</time></trkpt><trkpt lat="45.59679933133561" lon="9.344573406997075"><ele>176.75</ele><time>2026-04-09T07:50:55Z</time></trkpt><trkpt lat="45.59684212816687" lon="9.344757238748397"><ele>177.0</ele><time>2026-04-09T07:50:56Z</time></trkpt><trkpt lat="45.59688835206983" lon="9.344943488104187"><ele>177.0</ele><time>2026-04-09T07:50:57Z</time></trkpt><trkpt lat="45.59692804905467" lon="9.345119472653664"><ele>177.0</ele><time>2026-04-09T07:50:58Z</time></trkpt><trkpt lat="45.59697178995769" lon="9.345294263078639"><ele>177.0</ele><time>2026-04-09T07:50:59Z</time></trkpt><trkpt lat="45.59701615179075" lon="9.345465738361264"><ele>177.0</ele><time>2026-04-09T07:51:00Z</time></trkpt><trkpt lat="45.59706350626222" lon="9.345656876701643"><ele>176.75</ele><time>2026-04-09T07:51:01Z</time></trkpt><trkpt lat="45.597109964329555" lon="9.34582975286057"><ele>176.5</ele><time>2026-04-09T07:51:02Z</time></trkpt><trkpt lat="45.59714912092677" lon="9.346004656476794"><ele>176.25</ele><time>2026-04-09T07:51:03Z</time></trkpt><trkpt lat="45.59718349751666" lon="9.346166236003816"><ele>176.0</ele><time>2026-04-09T07:51:04Z</time></trkpt><trkpt lat="45.59721172601051" lon="9.346320943383319"><ele>176.20000000000002</ele><time>2026-04-09T07:51:05Z</time></trkpt><trkpt lat="45.5972206606833" lon="9.346468347689282"><ele>176.4</ele><time>2026-04-09T07:51:06Z</time></trkpt><trkpt lat="45.59721717213184" lon="9.346629059564496"><ele>176.6</ele><time>2026-04-09T07:51:07Z</time></trkpt><trkpt lat="45.59722315313441" lon="9.346785291946532"><ele>176.8</ele><time>2026-04-09T07:51:08Z</time></trkpt><trkpt lat="45.59725155733056" lon="9.34694074563516"><ele>177.0</ele><time>2026-04-09T07:51:09Z</time></trkpt><trkpt lat="45.59729147169322" lon="9.347089600049951"><ele>176.75</ele><time>2026-04-09T07:51:10Z</time></trkpt><trkpt lat="45.59735204856007" lon="9.347233901456958"><ele>176.5</ele><time>2026-04-09T07:51:11Z</time></trkpt><trkpt lat="45.59742631169898" lon="9.347382941867654"><ele>176.25</ele><time>2026-04-09T07:51:12Z</time></trkpt><trkpt lat="45.59749871028111" lon="9.347540426933122"><ele>176.0</ele><time>2026-04-09T07:51:13Z</time></trkpt><trkpt lat="45.59755805137912" lon="9.347711827281817"><ele>176.0</ele><time>2026-04-09T07:51:14Z</time></trkpt><trkpt lat="45.597605516155106" lon="9.347893183571818"><ele>176.0</ele><time>2026-04-09T07:51:15Z</time></trkpt><trkpt lat="45.59765008551494" lon="9.34807864580066"><ele>176.0</ele><time>2026-04-09T07:51:16Z</time></trkpt><trkpt lat="45.59769121624376" lon="9.348256044685673"><ele>176.0</ele><time>2026-04-09T07:51:17Z</time></trkpt><trkpt lat="45.59773724688326" lon="9.348433612742866"><ele>176.25</ele><time>2026-04-09T07:51:18Z</time></trkpt><trkpt lat="45.59778408676308" lon="9.348620844430933"><ele>176.5</ele><time>2026-04-09T07:51:19Z</time></trkpt><trkpt lat="45.59783099057497" lon="9.348809730620458"><ele>176.75</ele><time>2026-04-09T07:51:20Z</time></trkpt><trkpt lat="45.597880038006" lon="9.349000310604293"><ele>177.0</ele><time>2026-04-09T07:51:21Z</time></trkpt><trkpt lat="45.59792494601627" lon="9.34919561822466"><ele>177.0</ele><time>2026-04-09T07:51:22Z</time></trkpt><trkpt lat="45.59797359619507" lon="9.34939316588896"><ele>177.0</ele><time>2026-04-09T07:51:23Z</time></trkpt><trkpt lat="45.5980250224445" lon="9.349591644397172"><ele>177.0</ele><time>2026-04-09T07:51:24Z</time></trkpt><trkpt lat="45.59807471147816" lon="9.349799359909145"><ele>177.0</ele><time>2026-04-09T07:51:25Z</time></trkpt><trkpt lat="45.59812648849762" lon="9.35000873678188"><ele>176.66666666666666</ele><time>2026-04-09T07:51:26Z</time></trkpt><trkpt lat="45.59817818023418" lon="9.350223937743259"><ele>176.33333333333331</ele><time>2026-04-09T07:51:27Z</time></trkpt><trkpt lat="45.59823068466183" lon="9.35044131252492"><ele>176.0</ele><time>2026-04-09T07:51:28Z</time></trkpt><trkpt lat="45.59828220303804" lon="9.350663883859859"><ele>176.0</ele><time>2026-04-09T07:51:29Z</time></trkpt><trkpt lat="45.5983347189382" lon="9.35088985445586"><ele>176.0</ele><time>2026-04-09T07:51:30Z</time></trkpt><trkpt lat="45.59839590938899" lon="9.35111821700474"><ele>176.0</ele><time>2026-04-09T07:51:31Z</time></trkpt><trkpt lat="45.59845384533335" lon="9.351348619877694"><ele>175.66666666666666</ele><time>2026-04-09T07:51:32Z</time></trkpt><trkpt lat="45.59851434013698" lon="9.351580880870314"><ele>175.33333333333334</ele><time>2026-04-09T07:51:33Z</time></trkpt><trkpt lat="45.59857296609785" lon="9.351814120107834"><ele>175.0</ele><time>2026-04-09T07:51:34Z</time></trkpt><trkpt lat="45.59863061137331" lon="9.352047546187114"><ele>174.33333333333334</ele><time>2026-04-09T07:51:35Z</time></trkpt><trkpt lat="45.59868690151321" lon="9.352285391247404"><ele>173.66666666666666</ele><time>2026-04-09T07:51:36Z</time></trkpt><trkpt lat="45.59874462106817" lon="9.35252146195675"><ele>173.0</ele><time>2026-04-09T07:51:37Z</time></trkpt><trkpt lat="45.59880613459787" lon="9.352752989214139"><ele>173.0</ele><time>2026-04-09T07:51:38Z</time></trkpt><trkpt lat="45.598864104386436" lon="9.352982282788343"><ele>173.0</ele><time>2026-04-09T07:51:39Z</time></trkpt><trkpt lat="45.59892035500137" lon="9.353215860737405"><ele>173.0</ele><time>2026-04-09T07:51:40Z</time></trkpt><trkpt lat="45.59897754579772" lon="9.35344585383058"><ele>174.33333333333331</ele><time>2026-04-09T07:51:41Z</time></trkpt><trkpt lat="45.599031575338486" lon="9.353671408943335"><ele>175.66666666666666</ele><time>2026-04-09T07:51:42Z</time></trkpt><trkpt lat="45.59908407033846" lon="9.353887626342788"><ele>177.0</ele><time>2026-04-09T07:51:43Z</time></trkpt><trkpt lat="45.5991331155973" lon="9.35410552702931"><ele>177.0</ele><time>2026-04-09T07:51:44Z</time></trkpt><trkpt lat="45.599180200401044" lon="9.35431738362797"><ele>177.0</ele><time>2026-04-09T07:51:45Z</time></trkpt><trkpt lat="45.59923143985852" lon="9.354516947012964"><ele>177.0</ele><time>2026-04-09T07:51:46Z</time></trkpt><trkpt lat="45.59929197372109" lon="9.35470589440829"><ele>176.75</ele><time>2026-04-09T07:51:47Z</time></trkpt><trkpt lat="45.5993683616207" lon="9.354888256129778"><ele>176.5</ele><time>2026-04-09T07:51:48Z</time></trkpt><trkpt lat="45.59945728247444" lon="9.355057019164216"><ele>176.25</ele><time>2026-04-09T07:51:49Z</time></trkpt><trkpt lat="45.59955765139169" lon="9.355211873250274"><ele>176.0</ele><time>2026-04-09T07:51:50Z</time></trkpt><trkpt lat="45.59965464862692" lon="9.355331975507061"><ele>176.5</ele><time>2026-04-09T07:51:51Z</time></trkpt><trkpt lat="45.59975344615074" lon="9.355438775024119"><ele>177.0</ele><time>2026-04-09T07:51:52Z</time></trkpt><trkpt lat="45.599850422249744" lon="9.35554196981395"><ele>177.5</ele><time>2026-04-09T07:51:53Z</time></trkpt><trkpt lat="45.5999361611696" lon="9.355643877157592"><ele>178.0</ele><time>2026-04-09T07:51:54Z</time></trkpt><trkpt lat="45.599997799712185" lon="9.355750593059831"><ele>178.0</ele><time>2026-04-09T07:51:55Z</time></trkpt><trkpt lat="45.60005485738978" lon="9.355875998236044"><ele>178.0</ele><time>2026-04-09T07:51:56Z</time></trkpt><trkpt lat="45.600093851782376" lon="9.355996975944747"><ele>178.0</ele><time>2026-04-09T07:51:57Z</time></trkpt><trkpt lat="45.60014862564733" lon="9.3560972986793"><ele>178.0</ele><time>2026-04-09T07:51:58Z</time></trkpt><trkpt lat="45.6002244114264" lon="9.356169918863625"><ele>178.0</ele><time>2026-04-09T07:51:59Z</time></trkpt><trkpt lat="45.60031669670656" lon="9.356230012903382"><ele>178.0</ele><time>2026-04-09T07:52:00Z</time></trkpt><trkpt lat="45.60043397520001" lon="9.356219968559921"><ele>178.0</ele><time>2026-04-09T07:52:01Z</time></trkpt><trkpt lat="45.600542210489635" lon="9.356281326050087"><ele>178.0</ele><time>2026-04-09T07:52:02Z</time></trkpt><trkpt lat="45.60064713636797" lon="9.356369205192442"><ele>178.0</ele><time>2026-04-09T07:52:03Z</time></trkpt><trkpt lat="45.600753541553665" lon="9.356430072460194"><ele>179.0</ele><time>2026-04-09T07:52:04Z</time></trkpt><trkpt lat="45.60082632907992" lon="9.356628037407408"><ele>180.0</ele><time>2026-04-09T07:52:05Z</time></trkpt><trkpt lat="45.60089946225145" lon="9.35678994411726"><ele>181.0</ele><time>2026-04-09T07:52:06Z</time></trkpt><trkpt lat="45.60097775341512" lon="9.356975179508941"><ele>182.0</ele><time>2026-04-09T07:52:07Z</time></trkpt><trkpt lat="45.60105393463159" lon="9.357170550169691"><ele>182.25</ele><time>2026-04-09T07:52:08Z</time></trkpt><trkpt lat="45.6011238890676" lon="9.357348812094344"><ele>182.5</ele><time>2026-04-09T07:52:09Z</time></trkpt><trkpt lat="45.601187761655645" lon="9.357520018825669"><ele>182.75</ele><time>2026-04-09T07:52:10Z</time></trkpt><trkpt lat="45.60125178409128" lon="9.35768342520795"><ele>183.0</ele><time>2026-04-09T07:52:11Z</time></trkpt><trkpt lat="45.60130754558407" lon="9.357827546688192"><ele>182.25</ele><time>2026-04-09T07:52:12Z</time></trkpt><trkpt lat="45.60136445440914" lon="9.357986807581783"><ele>181.5</ele><time>2026-04-09T07:52:13Z</time></trkpt><trkpt lat="45.60142385551787" lon="9.358143807071455"><ele>180.75</ele><time>2026-04-09T07:52:14Z</time></trkpt><trkpt lat="45.601480973864945" lon="9.358295097594596"><ele>180.0</ele><time>2026-04-09T07:52:15Z</time></trkpt><trkpt lat="45.60154292899371" lon="9.358453926424394"><ele>180.0</ele><time>2026-04-09T07:52:16Z</time></trkpt><trkpt lat="45.60160569774004" lon="9.358623963491334"><ele>180.0</ele><time>2026-04-09T07:52:17Z</time></trkpt><trkpt lat="45.60167527458782" lon="9.358800712934684"><ele>180.0</ele><time>2026-04-09T07:52:18Z</time></trkpt><trkpt lat="45.60174851798965" lon="9.358975058306278"><ele>180.0</ele><time>2026-04-09T07:52:19Z</time></trkpt><trkpt lat="45.60182370436206" lon="9.359160743194026"><ele>180.33333333333334</ele><time>2026-04-09T07:52:20Z</time></trkpt><trkpt lat="45.60189877311141" lon="9.359349637935047"><ele>180.66666666666669</ele><time>2026-04-09T07:52:21Z</time></trkpt><trkpt lat="45.60197200044412" lon="9.359538925894206"><ele>181.0</ele><time>2026-04-09T07:52:22Z</time></trkpt><trkpt lat="45.60204124863493" lon="9.359733160026845"><ele>181.0</ele><time>2026-04-09T07:52:23Z</time></trkpt><trkpt lat="45.60210966966262" lon="9.359925239860072"><ele>181.0</ele><time>2026-04-09T07:52:24Z</time></trkpt><trkpt lat="45.602176402509365" lon="9.360107683605833"><ele>181.0</ele><time>2026-04-09T07:52:25Z</time></trkpt><trkpt lat="45.60223744486748" lon="9.360280016689696"><ele>181.0</ele><time>2026-04-09T07:52:26Z</time></trkpt><trkpt lat="45.60229382453093" lon="9.360439198652438"><ele>180.8</ele><time>2026-04-09T07:52:27Z</time></trkpt><trkpt lat="45.60234775949746" lon="9.360584224294787"><ele>180.60000000000002</ele><time>2026-04-09T07:52:28Z</time></trkpt><trkpt lat="45.60240060188989" lon="9.360711969543296"><ele>180.4</ele><time>2026-04-09T07:52:29Z</time></trkpt><trkpt lat="45.60245032520934" lon="9.360832579955213"><ele>180.2</ele><time>2026-04-09T07:52:30Z</time></trkpt><trkpt lat="45.60250266912113" lon="9.360950860978015"><ele>180.0</ele><time>2026-04-09T07:52:31Z</time></trkpt><trkpt lat="45.6025625856173" lon="9.36106549713594"><ele>180.0</ele><time>2026-04-09T07:52:32Z</time></trkpt><trkpt lat="45.60262961860192" lon="9.361186827014363"><ele>180.0</ele><time>2026-04-09T07:52:33Z</time></trkpt><trkpt lat="45.60270143428476" lon="9.361310641677553"><ele>180.0</ele><time>2026-04-09T07:52:34Z</time></trkpt><trkpt lat="45.60277341265587" lon="9.361422395833841"><ele>180.0</ele><time>2026-04-09T07:52:35Z</time></trkpt><trkpt lat="45.60282505276297" lon="9.361558391614258"><ele>180.0</ele><time>2026-04-09T07:52:36Z</time></trkpt><trkpt lat="45.60285021413216" lon="9.361711495805377"><ele>180.0</ele><time>2026-04-09T07:52:37Z</time></trkpt><trkpt lat="45.6028168610421" lon="9.361882928353557"><ele>180.0</ele><time>2026-04-09T07:52:38Z</time></trkpt><trkpt lat="45.60282157595576" lon="9.362033205110727"><ele>180.0</ele><time>2026-04-09T07:52:39Z</time></trkpt><trkpt lat="45.60285378712672" lon="9.362181168675678"><ele>180.0</ele><time>2026-04-09T07:52:40Z</time></trkpt><trkpt lat="45.60291163597707" lon="9.362317287842844"><ele>180.0</ele><time>2026-04-09T07:52:41Z</time></trkpt><trkpt lat="45.60299682420289" lon="9.362439537665685"><ele>180.0</ele><time>2026-04-09T07:52:42Z</time></trkpt><trkpt lat="45.603089971161786" lon="9.362560845067483"><ele>180.0</ele><time>2026-04-09T07:52:43Z</time></trkpt><trkpt lat="45.60317608021287" lon="9.362704913795275"><ele>180.0</ele><time>2026-04-09T07:52:44Z</time></trkpt><trkpt lat="45.6032869262949" lon="9.362840015837314"><ele>180.0</ele><time>2026-04-09T07:52:45Z</time></trkpt><trkpt lat="45.60335162697279" lon="9.363015654204808"><ele>180.0</ele><time>2026-04-09T07:52:46Z</time></trkpt><trkpt lat="45.60340387814166" lon="9.36320191172881"><ele>180.0</ele><time>2026-04-09T07:52:47Z</time></trkpt><trkpt lat="45.60346801835796" lon="9.363355303895418"><ele>180.0</ele><time>2026-04-09T07:52:48Z</time></trkpt><trkpt lat="45.60351873714366" lon="9.363508795962192"><ele>180.0</ele><time>2026-04-09T07:52:49Z</time></trkpt><trkpt lat="45.60355948359966" lon="9.36365772641452"><ele>180.0</ele><time>2026-04-09T07:52:50Z</time></trkpt><trkpt lat="45.603593285554766" lon="9.363802003126624"><ele>180.0</ele><time>2026-04-09T07:52:51Z</time></trkpt><trkpt lat="45.60363187178136" lon="9.363929777044012"><ele>180.0</ele><time>2026-04-09T07:52:52Z</time></trkpt><trkpt lat="45.603651213471856" lon="9.364054506164148"><ele>180.0</ele><time>2026-04-09T07:52:53Z</time></trkpt><trkpt lat="45.603596439382486" lon="9.364185060870724"><ele>181.0</ele><time>2026-04-09T07:52:54Z</time></trkpt><trkpt lat="45.603538723959765" lon="9.364285621137105"><ele>182.0</ele><time>2026-04-09T07:52:55Z</time></trkpt><trkpt lat="45.603464082855105" lon="9.364360837504927"><ele>183.0</ele><time>2026-04-09T07:52:56Z</time></trkpt><trkpt lat="45.60336912422461" lon="9.364402013344003"><ele>184.0</ele><time>2026-04-09T07:52:57Z</time></trkpt><trkpt lat="45.603267477504495" lon="9.364431113781505"><ele>185.0</ele><time>2026-04-09T07:52:58Z</time></trkpt><trkpt lat="45.60316186953457" lon="9.364438128580877"><ele>185.0</ele><time>2026-04-09T07:52:59Z</time></trkpt><trkpt lat="45.60305955321539" lon="9.36435157435273"><ele>185.0</ele><time>2026-04-09T07:53:00Z</time></trkpt><trkpt lat="45.60296532851532" lon="9.364304709351632"><ele>185.0</ele><time>2026-04-09T07:53:01Z</time></trkpt><trkpt lat="45.602870889009495" lon="9.36424025454"><ele>185.0</ele><time>2026-04-09T07:53:02Z</time></trkpt><trkpt lat="45.602786645577744" lon="9.364161336621956"><ele>185.0</ele><time>2026-04-09T07:53:03Z</time></trkpt><trkpt lat="45.60272400145497" lon="9.36406466194025"><ele>184.5</ele><time>2026-04-09T07:53:04Z</time></trkpt><trkpt lat="45.602683271829655" lon="9.363953330018308"><ele>184.0</ele><time>2026-04-09T07:53:05Z</time></trkpt><trkpt lat="45.602671820265265" lon="9.36383755928427"><ele>183.5</ele><time>2026-04-09T07:53:06Z</time></trkpt><trkpt lat="45.602690931299215" lon="9.363730711905752"><ele>183.0</ele><time>2026-04-09T07:53:07Z</time></trkpt><trkpt lat="45.60273605327978" lon="9.363628686777801"><ele>182.5</ele><time>2026-04-09T07:53:08Z</time></trkpt><trkpt lat="45.602803059017035" lon="9.363537142847852"><ele>182.0</ele><time>2026-04-09T07:53:09Z</time></trkpt><trkpt lat="45.60289381320202" lon="9.363466534018462"><ele>181.5</ele><time>2026-04-09T07:53:10Z</time></trkpt><trkpt lat="45.60300694088008" lon="9.363420196508372"><ele>181.0</ele><time>2026-04-09T07:53:11Z</time></trkpt><trkpt lat="45.60312482354083" lon="9.36336824946594"><ele>180.5</ele><time>2026-04-09T07:53:12Z</time></trkpt><trkpt lat="45.60324430561047" lon="9.36331548965761"><ele>180.0</ele><time>2026-04-09T07:53:13Z</time></trkpt><trkpt lat="45.60336140384149" lon="9.36326344662117"><ele>180.0</ele><time>2026-04-09T07:53:14Z</time></trkpt><trkpt lat="45.60347781575775" lon="9.363209590251984"><ele>180.0</ele><time>2026-04-09T07:53:15Z</time></trkpt><trkpt lat="45.603592387024456" lon="9.363161712635394"><ele>180.0</ele><time>2026-04-09T07:53:16Z</time></trkpt><trkpt lat="45.60370859671763" lon="9.363103800619953"><ele>180.0</ele><time>2026-04-09T07:53:17Z</time></trkpt><trkpt lat="45.603836401560066" lon="9.363039266141051"><ele>179.66666666666666</ele><time>2026-04-09T07:53:18Z</time></trkpt><trkpt lat="45.60398587273438" lon="9.36298198479383"><ele>179.33333333333331</ele><time>2026-04-09T07:53:19Z</time></trkpt><trkpt lat="45.60412887657591" lon="9.362913774622891"><ele>179.0</ele><time>2026-04-09T07:53:20Z</time></trkpt><trkpt lat="45.604280450812006" lon="9.362839519918955"><ele>179.0</ele><time>2026-04-09T07:53:21Z</time></trkpt><trkpt lat="45.60443697315248" lon="9.362768531115137"><ele>179.0</ele><time>2026-04-09T07:53:22Z</time></trkpt><trkpt lat="45.604593586707956" lon="9.362696735751626"><ele>179.0</ele><time>2026-04-09T07:53:23Z</time></trkpt><trkpt lat="45.604744796751966" lon="9.362630046053377"><ele>180.33333333333331</ele><time>2026-04-09T07:53:24Z</time></trkpt><trkpt lat="45.604895039348705" lon="9.362564508800437"><ele>181.66666666666666</ele><time>2026-04-09T07:53:25Z</time></trkpt><trkpt lat="45.60505596364716" lon="9.362495872262084"><ele>183.0</ele><time>2026-04-09T07:53:26Z</time></trkpt><trkpt lat="45.605210163871064" lon="9.36242806324704"><ele>184.0</ele><time>2026-04-09T07:53:27Z</time></trkpt><trkpt lat="45.605380100839874" lon="9.362357262197877"><ele>185.0</ele><time>2026-04-09T07:53:28Z</time></trkpt><trkpt lat="45.605549211502826" lon="9.362290103447132"><ele>186.0</ele><time>2026-04-09T07:53:29Z</time></trkpt><trkpt lat="45.60572481103689" lon="9.362215282057035"><ele>186.33333333333334</ele><time>2026-04-09T07:53:30Z</time></trkpt><trkpt lat="45.605897996268716" lon="9.362143749649597"><ele>186.66666666666669</ele><time>2026-04-09T07:53:31Z</time></trkpt><trkpt lat="45.60607452921435" lon="9.362067867041638"><ele>187.0</ele><time>2026-04-09T07:53:32Z</time></trkpt><trkpt lat="45.60625516578669" lon="9.36199467599322"><ele>185.33333333333334</ele><time>2026-04-09T07:53:33Z</time></trkpt><trkpt lat="45.60643311966961" lon="9.36192034348072"><ele>183.66666666666666</ele><time>2026-04-09T07:53:34Z</time></trkpt><trkpt lat="45.60661746967245" lon="9.361842139127276"><ele>182.0</ele><time>2026-04-09T07:53:35Z</time></trkpt><trkpt lat="45.60680143730937" lon="9.361761191511219"><ele>182.66666666666666</ele><time>2026-04-09T07:53:36Z</time></trkpt><trkpt lat="45.60699471343589" lon="9.361676926565293"><ele>183.33333333333334</ele><time>2026-04-09T07:53:37Z</time></trkpt><trkpt lat="45.607192867485196" lon="9.361592647096426"><ele>184.0</ele><time>2026-04-09T07:53:38Z</time></trkpt><trkpt lat="45.60737983814178" lon="9.361512597274983"><ele>184.0</ele><time>2026-04-09T07:53:39Z</time></trkpt><trkpt lat="45.6075657826419" lon="9.361434406264078"><ele>184.0</ele><time>2026-04-09T07:53:40Z</time></trkpt><trkpt lat="45.60775552906148" lon="9.361359205043652"><ele>184.0</ele><time>2026-04-09T07:53:41Z</time></trkpt><trkpt lat="45.607939936466835" lon="9.361275386865385"><ele>184.33333333333334</ele><time>2026-04-09T07:53:42Z</time></trkpt><trkpt lat="45.60812187871966" lon="9.361195111870822"><ele>184.66666666666666</ele><time>2026-04-09T07:53:43Z</time></trkpt><trkpt lat="45.60830288658869" lon="9.361119305398285"><ele>185.0</ele><time>2026-04-09T07:53:44Z</time></trkpt><trkpt lat="45.60848667886627" lon="9.361044593686296"><ele>185.0</ele><time>2026-04-09T07:53:45Z</time></trkpt><trkpt lat="45.60867295635275" lon="9.360968052632314"><ele>185.0</ele><time>2026-04-09T07:53:46.018Z</time></trkpt><trkpt lat="45.60885977225138" lon="9.360889334050468"><ele>185.0</ele><time>2026-04-09T07:53:47.018Z</time></trkpt><trkpt lat="45.60905366289968" lon="9.360804048005464"><ele>185.0</ele><time>2026-04-09T07:53:48Z</time></trkpt><trkpt lat="45.60925863181123" lon="9.360706403664377"><ele>185.0</ele><time>2026-04-09T07:53:49Z</time></trkpt><trkpt lat="45.60944691094672" lon="9.360599813545301"><ele>185.0</ele><time>2026-04-09T07:53:50Z</time></trkpt><trkpt lat="45.60965389466415" lon="9.36050777689791"><ele>184.33333333333331</ele><time>2026-04-09T07:53:51Z</time></trkpt><trkpt lat="45.60986041332015" lon="9.360413327384716"><ele>183.66666666666666</ele><time>2026-04-09T07:53:52Z</time></trkpt><trkpt lat="45.61006793644049" lon="9.360316331412916"><ele>183.0</ele><time>2026-04-09T07:53:53Z</time></trkpt><trkpt lat="45.610278700069756" lon="9.360226840353489"><ele>184.0</ele><time>2026-04-09T07:53:54Z</time></trkpt><trkpt lat="45.61049404499317" lon="9.360142862967756"><ele>185.0</ele><time>2026-04-09T07:53:55Z</time></trkpt><trkpt lat="45.610702386196834" lon="9.36004763498391"><ele>186.0</ele><time>2026-04-09T07:53:56Z</time></trkpt><trkpt lat="45.610914945031226" lon="9.359960269529914"><ele>186.0</ele><time>2026-04-09T07:53:57Z</time></trkpt><trkpt lat="45.61112695463043" lon="9.35987570763077"><ele>186.0</ele><time>2026-04-09T07:53:58Z</time></trkpt><trkpt lat="45.61133526970605" lon="9.359796056537057"><ele>186.0</ele><time>2026-04-09T07:53:59Z</time></trkpt><trkpt lat="45.61154302973819" lon="9.359713739661126"><ele>186.66666666666666</ele><time>2026-04-09T07:54:00Z</time></trkpt><trkpt lat="45.61175874013066" lon="9.359644678901867"><ele>187.33333333333331</ele><time>2026-04-09T07:54:01Z</time></trkpt><trkpt lat="45.61197162672398" lon="9.35957754813284"><ele>188.0</ele><time>2026-04-09T07:54:02Z</time></trkpt><trkpt lat="45.61218953589271" lon="9.359489904070347"><ele>188.0</ele><time>2026-04-09T07:54:03.016Z</time></trkpt><trkpt lat="45.61240476219903" lon="9.359401524505998"><ele>188.0</ele><time>2026-04-09T07:54:04.019Z</time></trkpt><trkpt lat="45.61262000640448" lon="9.359330100214354"><ele>188.0</ele><time>2026-04-09T07:54:05.014Z</time></trkpt><trkpt lat="45.61284050849224" lon="9.359263461873116"><ele>188.5</ele><time>2026-04-09T07:54:06.019Z</time></trkpt><trkpt lat="45.6130627489513" lon="9.359214650253133"><ele>189.0</ele><time>2026-04-09T07:54:07.018Z</time></trkpt><trkpt lat="45.61328836898421" lon="9.359174527492872"><ele>189.0</ele><time>2026-04-09T07:54:08.019Z</time></trkpt><trkpt lat="45.613090515331805" lon="9.359320449967981"><ele>189.0</ele><time>2026-04-09T07:54:09.501Z</time></trkpt><trkpt lat="45.614185781452875" lon="9.359220798672336"><ele>189.5</ele><time>2026-04-09T07:54:12Z</time></trkpt><trkpt lat="45.61441267230043" lon="9.35925841178276"><ele>190.0</ele><time>2026-04-09T07:54:13Z</time></trkpt><trkpt lat="45.61464441954853" lon="9.3593070228594"><ele>190.0</ele><time>2026-04-09T07:54:14Z</time></trkpt><trkpt lat="45.61487263068748" lon="9.359365743122511"><ele>190.0</ele><time>2026-04-09T07:54:15Z</time></trkpt><trkpt lat="45.615101575052364" lon="9.359406591406792"><ele>190.0</ele><time>2026-04-09T07:54:16Z</time></trkpt><trkpt lat="45.6153393675236" lon="9.359472895698596"><ele>190.0</ele><time>2026-04-09T07:54:17.019Z</time></trkpt><trkpt lat="45.61556872270253" lon="9.359492961583584"><ele>190.0</ele><time>2026-04-09T07:54:18.02Z</time></trkpt><trkpt lat="45.615801738077636" lon="9.359536366168262"><ele>190.0</ele><time>2026-04-09T07:54:19.018Z</time></trkpt><trkpt lat="45.61779693944548" lon="9.360002021762876"><ele>194.0</ele><time>2026-04-09T07:54:22.768Z</time></trkpt><trkpt lat="45.61833249635842" lon="9.360098406789234"><ele>192.0</ele><time>2026-04-09T07:54:23.768Z</time></trkpt><trkpt lat="45.61886729407344" lon="9.360196866775507"><ele>192.0</ele><time>2026-04-09T07:54:24.767Z</time></trkpt><trkpt lat="45.619483077941105" lon="9.360307557517066"><ele>191.5</ele><time>2026-04-09T07:54:36Z</time></trkpt><trkpt lat="45.619766340254245" lon="9.360391676046957"><ele>191.0</ele><time>2026-04-09T07:54:37Z</time></trkpt><trkpt lat="45.6200633665797" lon="9.360416619026843"><ele>191.0</ele><time>2026-04-09T07:54:38Z</time></trkpt><trkpt lat="45.62026536098523" lon="9.360417967179158"><ele>191.0</ele><time>2026-04-09T07:54:39Z</time></trkpt><trkpt lat="45.620513512058025" lon="9.36045840110278"><ele>190.5</ele><time>2026-04-09T07:54:40Z</time></trkpt><trkpt lat="45.62077548575926" lon="9.360524582722567"><ele>190.0</ele><time>2026-04-09T07:54:41Z</time></trkpt><trkpt lat="45.6210370815844" lon="9.360588729383323"><ele>191.33333333333334</ele><time>2026-04-09T07:54:42Z</time></trkpt><trkpt lat="45.62125261810842" lon="9.360649080665901"><ele>192.66666666666669</ele><time>2026-04-09T07:54:43Z</time></trkpt><trkpt lat="45.62146008665045" lon="9.360695796570832"><ele>194.0</ele><time>2026-04-09T07:54:44Z</time></trkpt><trkpt lat="45.62167528588025" lon="9.360742996479315"><ele>194.0</ele><time>2026-04-09T07:54:45Z</time></trkpt><trkpt lat="45.621893759544555" lon="9.360795568641175"><ele>194.0</ele><time>2026-04-09T07:54:46Z</time></trkpt><trkpt lat="45.6221198051422" lon="9.36083783917089"><ele>194.0</ele><time>2026-04-09T07:54:47Z</time></trkpt><trkpt lat="45.62234642838468" lon="9.360881358711069"><ele>194.66666666666669</ele><time>2026-04-09T07:54:48Z</time></trkpt><trkpt lat="45.622565100955285" lon="9.360925563551271"><ele>195.33333333333331</ele><time>2026-04-09T07:54:49Z</time></trkpt><trkpt lat="45.62278601226535" lon="9.360973691502581"><ele>196.0</ele><time>2026-04-09T07:54:50Z</time></trkpt><trkpt lat="45.623016534295985" lon="9.361018511647286"><ele>197.5</ele><time>2026-04-09T07:54:51Z</time></trkpt><trkpt lat="45.6232384734682" lon="9.361062190109612"><ele>199.0</ele><time>2026-04-09T07:54:52Z</time></trkpt><trkpt lat="45.62347302214777" lon="9.361106499244677"><ele>199.0</ele><time>2026-04-09T07:54:53Z</time></trkpt><trkpt lat="45.62370330824391" lon="9.361148780587705"><ele>199.0</ele><time>2026-04-09T07:54:54Z</time></trkpt><trkpt lat="45.62394293903809" lon="9.361190062068061"><ele>199.0</ele><time>2026-04-09T07:54:55Z</time></trkpt><trkpt lat="45.624177672690465" lon="9.36123278125209"><ele>199.0</ele><time>2026-04-09T07:54:56Z</time></trkpt><trkpt lat="45.62440522272395" lon="9.361279289512156"><ele>200.0</ele><time>2026-04-09T07:54:57Z</time></trkpt><trkpt lat="45.624636436183714" lon="9.36132767312564"><ele>201.0</ele><time>2026-04-09T07:54:58Z</time></trkpt><trkpt lat="45.624867634348526" lon="9.361373930251863"><ele>201.5</ele><time>2026-04-09T07:54:59Z</time></trkpt><trkpt lat="45.62510453078808" lon="9.361420902121376"><ele>202.0</ele><time>2026-04-09T07:55:00Z</time></trkpt><trkpt lat="45.6253350023179" lon="9.361465420473223"><ele>202.5</ele><time>2026-04-09T07:55:01Z</time></trkpt><trkpt lat="45.62556593109298" lon="9.361510355764253"><ele>203.0</ele><time>2026-04-09T07:55:02Z</time></trkpt><trkpt lat="45.62579921268546" lon="9.361555558168046"><ele>203.0</ele><time>2026-04-09T07:55:03Z</time></trkpt><trkpt lat="45.62603084332563" lon="9.36160001684567"><ele>203.0</ele><time>2026-04-09T07:55:04Z</time></trkpt><trkpt lat="45.62626388561041" lon="9.361646578453305"><ele>203.0</ele><time>2026-04-09T07:55:05Z</time></trkpt><trkpt lat="45.62649843645845" lon="9.361695403176487"><ele>203.0</ele><time>2026-04-09T07:55:06Z</time></trkpt><trkpt lat="45.62673352048025" lon="9.361742012881656"><ele>203.0</ele><time>2026-04-09T07:55:07Z</time></trkpt><trkpt lat="45.626967618026924" lon="9.361790218268858"><ele>203.0</ele><time>2026-04-09T07:55:08Z</time></trkpt><trkpt lat="45.62720235276963" lon="9.361840427342463"><ele>204.5</ele><time>2026-04-09T07:55:09Z</time></trkpt><trkpt lat="45.6274369464948" lon="9.361883224467325"><ele>206.0</ele><time>2026-04-09T07:55:10Z</time></trkpt><trkpt lat="45.62767661990197" lon="9.36192516901853"><ele>207.0</ele><time>2026-04-09T07:55:11Z</time></trkpt><trkpt lat="45.6279082159292" lon="9.361971215154522"><ele>208.0</ele><time>2026-04-09T07:55:12Z</time></trkpt><trkpt lat="45.628138155123736" lon="9.362019433367108"><ele>208.0</ele><time>2026-04-09T07:55:13Z</time></trkpt><trkpt lat="45.62836726628656" lon="9.36206538138804"><ele>208.0</ele><time>2026-04-09T07:55:14Z</time></trkpt><trkpt lat="45.62859660776273" lon="9.362117384951919"><ele>208.5</ele><time>2026-04-09T07:55:15Z</time></trkpt><trkpt lat="45.6288328864381" lon="9.362166628274673"><ele>209.0</ele><time>2026-04-09T07:55:16Z</time></trkpt><trkpt lat="45.62906104863243" lon="9.36221100995094"><ele>208.0</ele><time>2026-04-09T07:55:17Z</time></trkpt><trkpt lat="45.62928885886723" lon="9.362259225616635"><ele>207.0</ele><time>2026-04-09T07:55:18Z</time></trkpt><trkpt lat="45.6295206972542" lon="9.362311879625667"><ele>206.5</ele><time>2026-04-09T07:55:19Z</time></trkpt><trkpt lat="45.62975957056322" lon="9.362357859657198"><ele>206.0</ele><time>2026-04-09T07:55:20Z</time></trkpt><trkpt lat="45.63000195519518" lon="9.36240704765263"><ele>206.0</ele><time>2026-04-09T07:55:21Z</time></trkpt><trkpt lat="45.630241237317314" lon="9.362449044654488"><ele>206.0</ele><time>2026-04-09T07:55:22Z</time></trkpt><trkpt lat="45.63046908319952" lon="9.362497703580116"><ele>207.5</ele><time>2026-04-09T07:55:23Z</time></trkpt><trkpt lat="45.63069692635755" lon="9.362543030260076"><ele>209.0</ele><time>2026-04-09T07:55:24Z</time></trkpt><trkpt lat="45.630932709623096" lon="9.362588041888225"><ele>209.0</ele><time>2026-04-09T07:55:25Z</time></trkpt><trkpt lat="45.63116982501486" lon="9.362636868652395"><ele>209.0</ele><time>2026-04-09T07:55:26Z</time></trkpt><trkpt lat="45.63139835004501" lon="9.362681751940167"><ele>209.0</ele><time>2026-04-09T07:55:27Z</time></trkpt><trkpt lat="45.63163125280211" lon="9.362727858512857"><ele>209.0</ele><time>2026-04-09T07:55:28Z</time></trkpt><trkpt lat="45.631862675542564" lon="9.36277602767282"><ele>209.5</ele><time>2026-04-09T07:55:29Z</time></trkpt><trkpt lat="45.632093185200716" lon="9.362823088893466"><ele>210.0</ele><time>2026-04-09T07:55:30Z</time></trkpt><trkpt lat="45.63232298731107" lon="9.362869374629724"><ele>210.0</ele><time>2026-04-09T07:55:31Z</time></trkpt><trkpt lat="45.632554296285484" lon="9.362915821379541"><ele>210.0</ele><time>2026-04-09T07:55:32Z</time></trkpt><trkpt lat="45.63279135578746" lon="9.362968874049955"><ele>210.0</ele><time>2026-04-09T07:55:33Z</time></trkpt><trkpt lat="45.63302212120875" lon="9.363015722245407"><ele>210.0</ele><time>2026-04-09T07:55:34Z</time></trkpt><trkpt lat="45.63325650821648" lon="9.363063559346058"><ele>210.5</ele><time>2026-04-09T07:55:35Z</time></trkpt><trkpt lat="45.633487200387556" lon="9.363105329257642"><ele>211.0</ele><time>2026-04-09T07:55:36Z</time></trkpt><trkpt lat="45.633714892786145" lon="9.363152839114024"><ele>211.0</ele><time>2026-04-09T07:55:37Z</time></trkpt><trkpt lat="45.63393997025173" lon="9.36319720232397"><ele>211.0</ele><time>2026-04-09T07:55:38Z</time></trkpt><trkpt lat="45.63416461333119" lon="9.363239425922501"><ele>211.0</ele><time>2026-04-09T07:55:39Z</time></trkpt><trkpt lat="45.63438743822258" lon="9.36328557366244"><ele>211.0</ele><time>2026-04-09T07:55:40Z</time></trkpt><trkpt lat="45.634611632288006" lon="9.363330638102846"><ele>211.0</ele><time>2026-04-09T07:55:41Z</time></trkpt><trkpt lat="45.634833591245496" lon="9.363372701494402"><ele>211.0</ele><time>2026-04-09T07:55:42Z</time></trkpt><trkpt lat="45.635060992416726" lon="9.363407845412025"><ele>211.0</ele><time>2026-04-09T07:55:43Z</time></trkpt><trkpt lat="45.63528406240816" lon="9.363441710940718"><ele>211.0</ele><time>2026-04-09T07:55:44Z</time></trkpt><trkpt lat="45.63551447832255" lon="9.363476557894252"><ele>211.0</ele><time>2026-04-09T07:55:45Z</time></trkpt><trkpt lat="45.635743032205006" lon="9.363521673196622"><ele>211.0</ele><time>2026-04-09T07:55:46Z</time></trkpt><trkpt lat="45.63597191935698" lon="9.363563973118046"><ele>211.0</ele><time>2026-04-09T07:55:47Z</time></trkpt><trkpt lat="45.63620483927964" lon="9.363610647019344"><ele>211.0</ele><time>2026-04-09T07:55:48Z</time></trkpt><trkpt lat="45.636428446067946" lon="9.36365906074103"><ele>211.0</ele><time>2026-04-09T07:55:49Z</time></trkpt><trkpt lat="45.63665150249267" lon="9.363709775376615"><ele>211.0</ele><time>2026-04-09T07:55:50Z</time></trkpt><trkpt lat="45.636881655463185" lon="9.363766730471133"><ele>211.5</ele><time>2026-04-09T07:55:51Z</time></trkpt><trkpt lat="45.63710837752629" lon="9.363826727975587"><ele>212.0</ele><time>2026-04-09T07:55:52Z</time></trkpt><trkpt lat="45.63733323364031" lon="9.363888037611778"><ele>212.0</ele><time>2026-04-09T07:55:53Z</time></trkpt><trkpt lat="45.63756598620039" lon="9.363949820002173"><ele>212.0</ele><time>2026-04-09T07:55:54Z</time></trkpt><trkpt lat="45.63779385676348" lon="9.364011566972922"><ele>212.0</ele><time>2026-04-09T07:55:55Z</time></trkpt><trkpt lat="45.63802940152014" lon="9.364081248759971"><ele>212.0</ele><time>2026-04-09T07:55:56Z</time></trkpt><trkpt lat="45.63825864543628" lon="9.364149226947708"><ele>212.0</ele><time>2026-04-09T07:55:57Z</time></trkpt><trkpt lat="45.63848950142235" lon="9.364221476282076"><ele>212.0</ele><time>2026-04-09T07:55:58Z</time></trkpt><trkpt lat="45.638719346227845" lon="9.364295705297435"><ele>211.5</ele><time>2026-04-09T07:55:59Z</time></trkpt><trkpt lat="45.63894867760238" lon="9.364368967083129"><ele>211.0</ele><time>2026-04-09T07:56:00Z</time></trkpt><trkpt lat="45.63917517374757" lon="9.364444801832995"><ele>211.0</ele><time>2026-04-09T07:56:01Z</time></trkpt><trkpt lat="45.6394070384553" lon="9.364521303545414"><ele>211.0</ele><time>2026-04-09T07:56:02Z</time></trkpt><trkpt lat="45.63963519772113" lon="9.364599907987571"><ele>211.0</ele><time>2026-04-09T07:56:03Z</time></trkpt><trkpt lat="45.63986042657561" lon="9.364679067806852"><ele>211.0</ele><time>2026-04-09T07:56:04Z</time></trkpt><trkpt lat="45.64008855062691" lon="9.364764957974408"><ele>211.5</ele><time>2026-04-09T07:56:05Z</time></trkpt><trkpt lat="45.64031134156534" lon="9.36484636268118"><ele>212.0</ele><time>2026-04-09T07:56:06Z</time></trkpt><trkpt lat="45.64053148724328" lon="9.364929683403094"><ele>212.0</ele><time>2026-04-09T07:56:07Z</time></trkpt><trkpt lat="45.640756327419545" lon="9.365011152585817"><ele>212.0</ele><time>2026-04-09T07:56:08Z</time></trkpt><trkpt lat="45.64098657955369" lon="9.365090100291294"><ele>213.5</ele><time>2026-04-09T07:56:09Z</time></trkpt><trkpt lat="45.641212382945994" lon="9.365162902828617"><ele>215.0</ele><time>2026-04-09T07:56:10Z</time></trkpt><trkpt lat="45.64143094863369" lon="9.365245086321645"><ele>215.0</ele><time>2026-04-09T07:56:11Z</time></trkpt><trkpt lat="45.64165086523144" lon="9.365322337152659"><ele>215.0</ele><time>2026-04-09T07:56:12Z</time></trkpt><trkpt lat="45.64186235857517" lon="9.365402093318757"><ele>215.0</ele><time>2026-04-09T07:56:13Z</time></trkpt><trkpt lat="45.6420748879019" lon="9.365486140725093"><ele>215.33333333333334</ele><time>2026-04-09T07:56:14Z</time></trkpt><trkpt lat="45.64229342294374" lon="9.365568919526357"><ele>215.66666666666669</ele><time>2026-04-09T07:56:15Z</time></trkpt><trkpt lat="45.64250793716888" lon="9.365652059910579"><ele>216.0</ele><time>2026-04-09T07:56:16Z</time></trkpt><trkpt lat="45.64272941399485" lon="9.3657317683464"><ele>216.0</ele><time>2026-04-09T07:56:17Z</time></trkpt><trkpt lat="45.64293713319548" lon="9.36581179146385"><ele>216.0</ele><time>2026-04-09T07:56:18Z</time></trkpt><trkpt lat="45.643161106497615" lon="9.365882136210278"><ele>216.0</ele><time>2026-04-09T07:56:19Z</time></trkpt><trkpt lat="45.643373533927885" lon="9.365952684598444"><ele>216.0</ele><time>2026-04-09T07:56:20Z</time></trkpt><trkpt lat="45.64358967492252" lon="9.366017408760053"><ele>216.0</ele><time>2026-04-09T07:56:21Z</time></trkpt><trkpt lat="45.643800866312354" lon="9.366085934823534"><ele>216.0</ele><time>2026-04-09T07:56:22Z</time></trkpt><trkpt lat="45.644018744076554" lon="9.366156226191308"><ele>215.33333333333331</ele><time>2026-04-09T07:56:23Z</time></trkpt><trkpt lat="45.64422945632925" lon="9.366229781363103"><ele>214.66666666666666</ele><time>2026-04-09T07:56:24Z</time></trkpt><trkpt lat="45.64444820675279" lon="9.366301350129252"><ele>214.0</ele><time>2026-04-09T07:56:25Z</time></trkpt><trkpt lat="45.64465981317364" lon="9.366374748220089"><ele>214.0</ele><time>2026-04-09T07:56:26Z</time></trkpt><trkpt lat="45.64487045921478" lon="9.366444389426977"><ele>214.0</ele><time>2026-04-09T07:56:27Z</time></trkpt><trkpt lat="45.64508278462382" lon="9.366520553685644"><ele>214.0</ele><time>2026-04-09T07:56:28Z</time></trkpt><trkpt lat="45.645288129116594" lon="9.366590966444939"><ele>214.33333333333331</ele><time>2026-04-09T07:56:29Z</time></trkpt><trkpt lat="45.645486864744704" lon="9.366659469048889"><ele>214.66666666666669</ele><time>2026-04-09T07:56:30Z</time></trkpt><trkpt lat="45.64567995909238" lon="9.366722234351208"><ele>215.0</ele><time>2026-04-09T07:56:31Z</time></trkpt><trkpt lat="45.64589230909249" lon="9.366788447410396"><ele>215.0</ele><time>2026-04-09T07:56:32Z</time></trkpt><trkpt lat="45.64609019080189" lon="9.366858687520356"><ele>215.0</ele><time>2026-04-09T07:56:33Z</time></trkpt><trkpt lat="45.646280577955196" lon="9.366931144371806"><ele>215.0</ele><time>2026-04-09T07:56:34Z</time></trkpt><trkpt lat="45.64646999795712" lon="9.3669952327118"><ele>216.33333333333334</ele><time>2026-04-09T07:56:35Z</time></trkpt><trkpt lat="45.64665805070525" lon="9.367059285896332"><ele>217.66666666666669</ele><time>2026-04-09T07:56:36Z</time></trkpt><trkpt lat="45.64684537880871" lon="9.367149927781282"><ele>219.0</ele><time>2026-04-09T07:56:37Z</time></trkpt><trkpt lat="45.647033506070166" lon="9.367217635945785"><ele>219.0</ele><time>2026-04-09T07:56:38Z</time></trkpt><trkpt lat="45.64722257352681" lon="9.367285714469572"><ele>219.0</ele><time>2026-04-09T07:56:39Z</time></trkpt><trkpt lat="45.64741314894552" lon="9.36735446987497"><ele>219.0</ele><time>2026-04-09T07:56:40Z</time></trkpt><trkpt lat="45.64759964823505" lon="9.367421678240726"><ele>219.0</ele><time>2026-04-09T07:56:41Z</time></trkpt><trkpt lat="45.64777945055153" lon="9.367486320909762"><ele>219.0</ele><time>2026-04-09T07:56:42Z</time></trkpt><trkpt lat="45.64796863315985" lon="9.367554579823391"><ele>219.0</ele><time>2026-04-09T07:56:43Z</time></trkpt><trkpt lat="45.64815911357715" lon="9.367622679016344"><ele>218.66666666666669</ele><time>2026-04-09T07:56:44Z</time></trkpt><trkpt lat="45.64834127896414" lon="9.367687636596745"><ele>218.33333333333334</ele><time>2026-04-09T07:56:45Z</time></trkpt><trkpt lat="45.64853572668268" lon="9.367756696029693"><ele>218.0</ele><time>2026-04-09T07:56:46Z</time></trkpt><trkpt lat="45.64872479132896" lon="9.367824705323892"><ele>217.33333333333334</ele><time>2026-04-09T07:56:47Z</time></trkpt><trkpt lat="45.648913778878736" lon="9.367894816628613"><ele>216.66666666666669</ele><time>2026-04-09T07:56:48Z</time></trkpt><trkpt lat="45.649095953224666" lon="9.367952984218508"><ele>216.0</ele><time>2026-04-09T07:56:49Z</time></trkpt><trkpt lat="45.649286574791184" lon="9.367997449200477"><ele>216.33333333333331</ele><time>2026-04-09T07:56:50Z</time></trkpt><trkpt lat="45.64947877355643" lon="9.368067157081272"><ele>216.66666666666666</ele><time>2026-04-09T07:56:51Z</time></trkpt><trkpt lat="45.64966950641131" lon="9.368136244423388"><ele>217.0</ele><time>2026-04-09T07:56:52Z</time></trkpt><trkpt lat="45.64985659716324" lon="9.368204621536508"><ele>217.0</ele><time>2026-04-09T07:56:53Z</time></trkpt><trkpt lat="45.650048057009585" lon="9.368266903766179"><ele>217.0</ele><time>2026-04-09T07:56:54Z</time></trkpt><trkpt lat="45.65024171022152" lon="9.368336530468925"><ele>217.0</ele><time>2026-04-09T07:56:55Z</time></trkpt><trkpt lat="45.6504324490425" lon="9.36840649566114"><ele>218.0</ele><time>2026-04-09T07:56:56Z</time></trkpt><trkpt lat="45.650623779904606" lon="9.368473423228608"><ele>219.0</ele><time>2026-04-09T07:56:57Z</time></trkpt><trkpt lat="45.650807865403095" lon="9.36853947105803"><ele>220.0</ele><time>2026-04-09T07:56:58Z</time></trkpt><trkpt lat="45.650990985275534" lon="9.368607271596888"><ele>220.0</ele><time>2026-04-09T07:56:59Z</time></trkpt><trkpt lat="45.65117525487973" lon="9.368672813490106"><ele>220.0</ele><time>2026-04-09T07:57:00Z</time></trkpt><trkpt lat="45.65135920167167" lon="9.368736084438194"><ele>220.0</ele><time>2026-04-09T07:57:01Z</time></trkpt><trkpt lat="45.65153984356247" lon="9.36879274780966"><ele>220.0</ele><time>2026-04-09T07:57:02Z</time></trkpt><trkpt lat="45.65171928324307" lon="9.368862565104271"><ele>220.0</ele><time>2026-04-09T07:57:03Z</time></trkpt><trkpt lat="45.651897529780854" lon="9.368928145437838"><ele>220.0</ele><time>2026-04-09T07:57:04Z</time></trkpt><trkpt lat="45.652085146127064" lon="9.368991983463015"><ele>220.0</ele><time>2026-04-09T07:57:05Z</time></trkpt><trkpt lat="45.652255614052656" lon="9.369064485972896"><ele>220.0</ele><time>2026-04-09T07:57:06Z</time></trkpt><trkpt lat="45.65240434912268" lon="9.369159278293365"><ele>220.0</ele><time>2026-04-09T07:57:07Z</time></trkpt><trkpt lat="45.65255218775221" lon="9.369228534961678"><ele>220.0</ele><time>2026-04-09T07:57:08Z</time></trkpt><trkpt lat="45.65269672743657" lon="9.369297024374736"><ele>220.0</ele><time>2026-04-09T07:57:09Z</time></trkpt><trkpt lat="45.652839026534544" lon="9.369341312687256"><ele>220.0</ele><time>2026-04-09T07:57:10Z</time></trkpt><trkpt lat="45.652975251609135" lon="9.369405852553594"><ele>220.0</ele><time>2026-04-09T07:57:11Z</time></trkpt><trkpt lat="45.65311078708567" lon="9.369472418241118"><ele>219.5</ele><time>2026-04-09T07:57:12Z</time></trkpt><trkpt lat="45.65324527768631" lon="9.369533314176344"><ele>219.0</ele><time>2026-04-09T07:57:13Z</time></trkpt><trkpt lat="45.653366202321806" lon="9.369591221079313"><ele>218.5</ele><time>2026-04-09T07:57:14Z</time></trkpt><trkpt lat="45.653477738610974" lon="9.36964688262596"><ele>218.0</ele><time>2026-04-09T07:57:15Z</time></trkpt><trkpt lat="45.65360222976456" lon="9.369708252504049"><ele>218.5</ele><time>2026-04-09T07:57:16Z</time></trkpt><trkpt lat="45.653720816031196" lon="9.369772294256508"><ele>219.0</ele><time>2026-04-09T07:57:17Z</time></trkpt><trkpt lat="45.65384866390578" lon="9.36983209442081"><ele>219.5</ele><time>2026-04-09T07:57:18Z</time></trkpt><trkpt lat="45.653978035686094" lon="9.369895303695062"><ele>220.0</ele><time>2026-04-09T07:57:19Z</time></trkpt><trkpt lat="45.65409899571229" lon="9.369960024337413"><ele>220.0</ele><time>2026-04-09T07:57:20Z</time></trkpt><trkpt lat="45.65421887216473" lon="9.370039421442225"><ele>220.0</ele><time>2026-04-09T07:57:21Z</time></trkpt><trkpt lat="45.65433481978841" lon="9.370135077057466"><ele>220.0</ele><time>2026-04-09T07:57:22Z</time></trkpt><trkpt lat="45.65443604756489" lon="9.370255275532172"><ele>220.0</ele><time>2026-04-09T07:57:23Z</time></trkpt><trkpt lat="45.654531043811254" lon="9.37039322506006"><ele>221.75</ele><time>2026-04-09T07:57:24Z</time></trkpt><trkpt lat="45.65461268364457" lon="9.37055015941144"><ele>223.5</ele><time>2026-04-09T07:57:25Z</time></trkpt><trkpt lat="45.654684856984666" lon="9.370722028628446"><ele>225.25</ele><time>2026-04-09T07:57:26Z</time></trkpt><trkpt lat="45.65475014933979" lon="9.370892696408506"><ele>227.0</ele><time>2026-04-09T07:57:27Z</time></trkpt><trkpt lat="45.65481142138209" lon="9.371066709281505"><ele>227.0</ele><time>2026-04-09T07:57:28Z</time></trkpt><trkpt lat="45.65487581874818" lon="9.371241699729575"><ele>227.0</ele><time>2026-04-09T07:57:29Z</time></trkpt><trkpt lat="45.654936007066674" lon="9.371412918321917"><ele>227.0</ele><time>2026-04-09T07:57:30Z</time></trkpt><trkpt lat="45.65499595794491" lon="9.371578389906462"><ele>227.0</ele><time>2026-04-09T07:57:31Z</time></trkpt><trkpt lat="45.65505834107245" lon="9.371744836900923"><ele>226.0</ele><time>2026-04-09T07:57:32Z</time></trkpt><trkpt lat="45.6551176481548" lon="9.371906298376986"><ele>225.0</ele><time>2026-04-09T07:57:33Z</time></trkpt><trkpt lat="45.65517795243791" lon="9.372066737142408"><ele>224.0</ele><time>2026-04-09T07:57:34Z</time></trkpt><trkpt lat="45.65523956830043" lon="9.372222952500186"><ele>223.0</ele><time>2026-04-09T07:57:35Z</time></trkpt><trkpt lat="45.65529614510283" lon="9.372378245839455"><ele>225.0</ele><time>2026-04-09T07:57:36Z</time></trkpt><trkpt lat="45.65535459041282" lon="9.372539256538033"><ele>227.0</ele><time>2026-04-09T07:57:37Z</time></trkpt><trkpt lat="45.65541635991274" lon="9.372690356756197"><ele>229.0</ele><time>2026-04-09T07:57:38Z</time></trkpt><trkpt lat="45.65547346884981" lon="9.372848613189932"><ele>231.0</ele><time>2026-04-09T07:57:39Z</time></trkpt><trkpt lat="45.65553239269605" lon="9.373008013250502"><ele>230.0</ele><time>2026-04-09T07:57:40Z</time></trkpt><trkpt lat="45.65559800377416" lon="9.373167365465545"><ele>229.0</ele><time>2026-04-09T07:57:41Z</time></trkpt><trkpt lat="45.65565572830174" lon="9.37332629357126"><ele>228.0</ele><time>2026-04-09T07:57:42Z</time></trkpt><trkpt lat="45.655716882267775" lon="9.373496364287014"><ele>227.0</ele><time>2026-04-09T07:57:43Z</time></trkpt><trkpt lat="45.655778222529754" lon="9.373662813312981"><ele>227.0</ele><time>2026-04-09T07:57:44Z</time></trkpt><trkpt lat="45.65583819788711" lon="9.37382927593072"><ele>227.0</ele><time>2026-04-09T07:57:45Z</time></trkpt><trkpt lat="45.65589636047673" lon="9.373994916032945"><ele>227.0</ele><time>2026-04-09T07:57:46Z</time></trkpt><trkpt lat="45.655959096030806" lon="9.374160838751738"><ele>227.0</ele><time>2026-04-09T07:57:47Z</time></trkpt><trkpt lat="45.65601947070804" lon="9.374324162626504"><ele>226.25</ele><time>2026-04-09T07:57:48Z</time></trkpt><trkpt lat="45.6560810577382" lon="9.374480988269074"><ele>225.5</ele><time>2026-04-09T07:57:49Z</time></trkpt><trkpt lat="45.656145851370844" lon="9.374634814097888"><ele>224.75</ele><time>2026-04-09T07:57:50Z</time></trkpt><trkpt lat="45.65621009509904" lon="9.374787138740086"><ele>224.0</ele><time>2026-04-09T07:57:51Z</time></trkpt><trkpt lat="45.65626518271608" lon="9.374934363489299"><ele>224.39999999999998</ele><time>2026-04-09T07:57:52Z</time></trkpt><trkpt lat="45.65632662282499" lon="9.375074684605124"><ele>224.79999999999998</ele><time>2026-04-09T07:57:53Z</time></trkpt><trkpt lat="45.65638695253793" lon="9.375215991694871"><ele>225.20000000000002</ele><time>2026-04-09T07:57:54Z</time></trkpt><trkpt lat="45.65644578586297" lon="9.375346635739664"><ele>225.60000000000002</ele><time>2026-04-09T07:57:55Z</time></trkpt><trkpt lat="45.656502949503114" lon="9.375472750165569"><ele>226.0</ele><time>2026-04-09T07:57:56Z</time></trkpt><trkpt lat="45.656566123435766" lon="9.375596050934726"><ele>226.0</ele><time>2026-04-09T07:57:57Z</time></trkpt><trkpt lat="45.656623450926304" lon="9.3757102134716"><ele>226.00000000000003</ele><time>2026-04-09T07:57:58Z</time></trkpt><trkpt lat="45.65667672935245" lon="9.375818658197822"><ele>226.00000000000003</ele><time>2026-04-09T07:57:59Z</time></trkpt><trkpt lat="45.65673627495477" lon="9.37593478382962"><ele>226.0</ele><time>2026-04-09T07:58:00Z</time></trkpt><trkpt lat="45.65679075983675" lon="9.376047590307728"><ele>226.0</ele><time>2026-04-09T07:58:01Z</time></trkpt><trkpt lat="45.65684224177781" lon="9.376155533400725"><ele>226.0</ele><time>2026-04-09T07:58:02Z</time></trkpt><trkpt lat="45.65689061066048" lon="9.37626597912861"><ele>226.00000000000003</ele><time>2026-04-09T07:58:03Z</time></trkpt><trkpt lat="45.656941554314834" lon="9.376370320047402"><ele>226.00000000000003</ele><time>2026-04-09T07:58:04Z</time></trkpt><trkpt lat="45.65699543886162" lon="9.3764846680878"><ele>226.0</ele><time>2026-04-09T07:58:05Z</time></trkpt><trkpt lat="45.65704778433242" lon="9.37659509055191"><ele>226.0</ele><time>2026-04-09T07:58:06Z</time></trkpt><trkpt lat="45.65711164391379" lon="9.376689645597246"><ele>226.0</ele><time>2026-04-09T07:58:07Z</time></trkpt><trkpt lat="45.65717874775007" lon="9.376793181771637"><ele>226.00000000000003</ele><time>2026-04-09T07:58:08Z</time></trkpt><trkpt lat="45.65725284348419" lon="9.37689697868868"><ele>226.00000000000003</ele><time>2026-04-09T07:58:09Z</time></trkpt><trkpt lat="45.657331699002604" lon="9.376995534936874"><ele>226.0</ele><time>2026-04-09T07:58:10Z</time></trkpt><trkpt lat="45.657409352347095" lon="9.377085034945967"><ele>226.0</ele><time>2026-04-09T07:58:11Z</time></trkpt><trkpt lat="45.657492826075405" lon="9.377170510858583"><ele>226.20000000000002</ele><time>2026-04-09T07:58:12Z</time></trkpt><trkpt lat="45.65757666053661" lon="9.377256518759046"><ele>226.40000000000003</ele><time>2026-04-09T07:58:13Z</time></trkpt><trkpt lat="45.65767076963635" lon="9.377346951459508"><ele>226.6</ele><time>2026-04-09T07:58:14Z</time></trkpt><trkpt lat="45.6577668005448" lon="9.377451631629926"><ele>226.8</ele><time>2026-04-09T07:58:15Z</time></trkpt><trkpt lat="45.6578402865728" lon="9.377562879024376"><ele>227.0</ele><time>2026-04-09T07:58:16Z</time></trkpt><trkpt lat="45.657919243711824" lon="9.377671568912776"><ele>228.0</ele><time>2026-04-09T07:58:17Z</time></trkpt><trkpt lat="45.65799690564269" lon="9.377782060720714"><ele>229.0</ele><time>2026-04-09T07:58:18Z</time></trkpt><trkpt lat="45.658072829652106" lon="9.3778995757469"><ele>230.0</ele><time>2026-04-09T07:58:19Z</time></trkpt><trkpt lat="45.65812460163243" lon="9.378027116960617"><ele>231.0</ele><time>2026-04-09T07:58:20Z</time></trkpt><trkpt lat="45.658207079595726" lon="9.378146841178529"><ele>232.0</ele><time>2026-04-09T07:58:21Z</time></trkpt><trkpt lat="45.65828530323617" lon="9.378268657044694"><ele>232.0</ele><time>2026-04-09T07:58:22Z</time></trkpt><trkpt lat="45.65836573913356" lon="9.378394989980421"><ele>232.0</ele><time>2026-04-09T07:58:23Z</time></trkpt><trkpt lat="45.65845063578595" lon="9.378520276554232"><ele>232.0</ele><time>2026-04-09T07:58:24Z</time></trkpt><trkpt lat="45.65853362544251" lon="9.378648711775568"><ele>232.0</ele><time>2026-04-09T07:58:25Z</time></trkpt><trkpt lat="45.65861565186044" lon="9.37878147238876"><ele>232.75</ele><time>2026-04-09T07:58:26Z</time></trkpt><trkpt lat="45.6587044884278" lon="9.378915717000508"><ele>233.5</ele><time>2026-04-09T07:58:27Z</time></trkpt><trkpt lat="45.65879022757239" lon="9.379048339916102"><ele>234.25</ele><time>2026-04-09T07:58:28Z</time></trkpt><trkpt lat="45.6588716848805" lon="9.379179337824633"><ele>235.0</ele><time>2026-04-09T07:58:29Z</time></trkpt><trkpt lat="45.658955478141344" lon="9.379308513369201"><ele>235.0</ele><time>2026-04-09T07:58:30Z</time></trkpt><trkpt lat="45.65903640901458" lon="9.37943538749694"><ele>235.0</ele><time>2026-04-09T07:58:31Z</time></trkpt><trkpt lat="45.65911891277154" lon="9.379556621229767"><ele>235.0</ele><time>2026-04-09T07:58:32Z</time></trkpt><trkpt lat="45.65919955923511" lon="9.379682764803484"><ele>235.0</ele><time>2026-04-09T07:58:33Z</time></trkpt><trkpt lat="45.659277289990925" lon="9.379809163499175"><ele>234.0</ele><time>2026-04-09T07:58:34Z</time></trkpt><trkpt lat="45.65936184729702" lon="9.379930101044748"><ele>233.0</ele><time>2026-04-09T07:58:35Z</time></trkpt><trkpt lat="45.65943701704235" lon="9.380047919394004"><ele>232.0</ele><time>2026-04-09T07:58:36Z</time></trkpt><trkpt lat="45.659516460819745" lon="9.380161388193786"><ele>231.0</ele><time>2026-04-09T07:58:37Z</time></trkpt><trkpt lat="45.65959425514534" lon="9.380279739939203"><ele>231.5</ele><time>2026-04-09T07:58:38Z</time></trkpt><trkpt lat="45.65967476558825" lon="9.380401699002588"><ele>232.0</ele><time>2026-04-09T07:58:39Z</time></trkpt><trkpt lat="45.659759059378445" lon="9.380512000017395"><ele>232.5</ele><time>2026-04-09T07:58:40Z</time></trkpt><trkpt lat="45.65984179872035" lon="9.380628948748187"><ele>233.0</ele><time>2026-04-09T07:58:41Z</time></trkpt><trkpt lat="45.659927261740215" lon="9.380752939713958"><ele>233.0</ele><time>2026-04-09T07:58:42Z</time></trkpt><trkpt lat="45.660015258831386" lon="9.380861503541512"><ele>233.0</ele><time>2026-04-09T07:58:43Z</time></trkpt><trkpt lat="45.66010460250659" lon="9.380966313869436"><ele>233.0</ele><time>2026-04-09T07:58:44Z</time></trkpt><trkpt lat="45.660193778625384" lon="9.381082431258772"><ele>233.0</ele><time>2026-04-09T07:58:45Z</time></trkpt><trkpt lat="45.660281737990886" lon="9.381198727850391"><ele>233.75</ele><time>2026-04-09T07:58:46Z</time></trkpt><trkpt lat="45.66036903627593" lon="9.381314389921911"><ele>234.5</ele><time>2026-04-09T07:58:47Z</time></trkpt><trkpt lat="45.6604610716658" lon="9.381430308274192"><ele>235.25</ele><time>2026-04-09T07:58:48Z</time></trkpt><trkpt lat="45.66055536958391" lon="9.381550328504652"><ele>236.0</ele><time>2026-04-09T07:58:49Z</time></trkpt><trkpt lat="45.66065341396613" lon="9.381662929137763"><ele>236.0</ele><time>2026-04-09T07:58:50Z</time></trkpt><trkpt lat="45.66074893910788" lon="9.38178026596757"><ele>236.0</ele><time>2026-04-09T07:58:51Z</time></trkpt><trkpt lat="45.66084418440473" lon="9.38189967989603"><ele>236.0</ele><time>2026-04-09T07:58:52Z</time></trkpt><trkpt lat="45.660945584427076" lon="9.382002917267581"><ele>236.0</ele><time>2026-04-09T07:58:53Z</time></trkpt><trkpt lat="45.661043566218524" lon="9.382124079133948"><ele>234.25</ele><time>2026-04-09T07:58:54Z</time></trkpt><trkpt lat="45.66114340349634" lon="9.382233757644618"><ele>232.5</ele><time>2026-04-09T07:58:55Z</time></trkpt><trkpt lat="45.661239044556616" lon="9.382343271383995"><ele>230.75</ele><time>2026-04-09T07:58:56Z</time></trkpt><trkpt lat="45.66133533743297" lon="9.382452458660183"><ele>229.0</ele><time>2026-04-09T07:58:57Z</time></trkpt><trkpt lat="45.6614356284194" lon="9.382560066520288"><ele>229.0</ele><time>2026-04-09T07:58:58Z</time></trkpt><trkpt lat="45.66154016831546" lon="9.382673382382741"><ele>229.0</ele><time>2026-04-09T07:58:59Z</time></trkpt><trkpt lat="45.661639104915835" lon="9.38278412624472"><ele>229.0</ele><time>2026-04-09T07:59:00Z</time></trkpt><trkpt lat="45.661739058663684" lon="9.382887875314934"><ele>229.0</ele><time>2026-04-09T07:59:01Z</time></trkpt><trkpt lat="45.661838470794905" lon="9.382981501015966"><ele>229.0</ele><time>2026-04-09T07:59:02Z</time></trkpt><trkpt lat="45.66193302879312" lon="9.383086675990826"><ele>229.0</ele><time>2026-04-09T07:59:03Z</time></trkpt><trkpt lat="45.66202787831073" lon="9.383184123985776"><ele>229.0</ele><time>2026-04-09T07:59:04Z</time></trkpt><trkpt lat="45.662121256970615" lon="9.38328077629405"><ele>229.0</ele><time>2026-04-09T07:59:05Z</time></trkpt><trkpt lat="45.662216602326644" lon="9.383378875995982"><ele>229.0</ele><time>2026-04-09T07:59:06Z</time></trkpt><trkpt lat="45.66231683774231" lon="9.383483058868872"><ele>229.0</ele><time>2026-04-09T07:59:07Z</time></trkpt><trkpt lat="45.662416798889836" lon="9.383576059805277"><ele>229.0</ele><time>2026-04-09T07:59:08Z</time></trkpt><trkpt lat="45.662518153662084" lon="9.383671851819045"><ele>229.0</ele><time>2026-04-09T07:59:09Z</time></trkpt><trkpt lat="45.66262831600716" lon="9.383768615323081"><ele>229.0</ele><time>2026-04-09T07:59:10Z</time></trkpt><trkpt lat="45.66273702279552" lon="9.383860448457915"><ele>229.0</ele><time>2026-04-09T07:59:11Z</time></trkpt><trkpt lat="45.662843862588524" lon="9.383960163954532"><ele>229.0</ele><time>2026-04-09T07:59:12Z</time></trkpt><trkpt lat="45.66294693670947" lon="9.384053228289329"><ele>229.0</ele><time>2026-04-09T07:59:13Z</time></trkpt><trkpt lat="45.66305454671062" lon="9.384142765342729"><ele>229.39999999999998</ele><time>2026-04-09T07:59:14Z</time></trkpt><trkpt lat="45.66315599435624" lon="9.384227993555461"><ele>229.79999999999998</ele><time>2026-04-09T07:59:15Z</time></trkpt><trkpt lat="45.66326162588163" lon="9.384311792805988"><ele>230.20000000000002</ele><time>2026-04-09T07:59:16Z</time></trkpt><trkpt lat="45.66335729281674" lon="9.384391706913002"><ele>230.60000000000002</ele><time>2026-04-09T07:59:17Z</time></trkpt><trkpt lat="45.66344067310709" lon="9.384463565058509"><ele>231.0</ele><time>2026-04-09T07:59:18Z</time></trkpt><trkpt lat="45.66351777639823" lon="9.384529602422866"><ele>231.0</ele><time>2026-04-09T07:59:19Z</time></trkpt><trkpt lat="45.663595453826176" lon="9.38459289754721"><ele>231.00000000000003</ele><time>2026-04-09T07:59:20Z</time></trkpt><trkpt lat="45.663665208830146" lon="9.384649836074287"><ele>231.00000000000003</ele><time>2026-04-09T07:59:21Z</time></trkpt><trkpt lat="45.663724099357395" lon="9.38469973342385"><ele>231.0</ele><time>2026-04-09T07:59:22Z</time></trkpt><trkpt lat="45.663829931090994" lon="9.384781357362407"><ele>231.0</ele><time>2026-04-09T07:59:24Z</time></trkpt><trkpt lat="45.66392388117374" lon="9.384852794122011"><ele>230.8</ele><time>2026-04-09T07:59:26Z</time></trkpt><trkpt lat="45.664002631045776" lon="9.384913098216467"><ele>230.60000000000002</ele><time>2026-04-09T07:59:28Z</time></trkpt><trkpt lat="45.66412813420681" lon="9.38501882570617"><ele>230.4</ele><time>2026-04-09T07:59:30Z</time></trkpt><trkpt lat="45.66419856756194" lon="9.385084506969894"><ele>230.2</ele><time>2026-04-09T07:59:31Z</time></trkpt><trkpt lat="45.66427893395305" lon="9.385158042537514"><ele>230.0</ele><time>2026-04-09T07:59:32Z</time></trkpt><trkpt lat="45.66437558615743" lon="9.385241798487442"><ele>230.25</ele><time>2026-04-09T07:59:33Z</time></trkpt><trkpt lat="45.66448267289171" lon="9.385328033880137"><ele>230.5</ele><time>2026-04-09T07:59:34Z</time></trkpt><trkpt lat="45.66461308633502" lon="9.38543201663607"><ele>230.75</ele><time>2026-04-09T07:59:35Z</time></trkpt><trkpt lat="45.664733138556144" lon="9.385530932187486"><ele>231.0</ele><time>2026-04-09T07:59:36Z</time></trkpt><trkpt lat="45.66486456196483" lon="9.38564225244027"><ele>231.0</ele><time>2026-04-09T07:59:37Z</time></trkpt><trkpt lat="45.6650139949315" lon="9.385765623299447"><ele>231.0</ele><time>2026-04-09T07:59:38Z</time></trkpt><trkpt lat="45.66517418217376" lon="9.385899417893794"><ele>231.0</ele><time>2026-04-09T07:59:39Z</time></trkpt><trkpt lat="45.66533456978634" lon="9.386028252730394"><ele>232.0</ele><time>2026-04-09T07:59:40Z</time></trkpt><trkpt lat="45.66549102912416" lon="9.386158774837831"><ele>233.0</ele><time>2026-04-09T07:59:41Z</time></trkpt><trkpt lat="45.66563176791385" lon="9.386273530891113"><ele>234.0</ele><time>2026-04-09T07:59:42Z</time></trkpt><trkpt lat="45.665787898737726" lon="9.386399611400225"><ele>233.33333333333331</ele><time>2026-04-09T07:59:43Z</time></trkpt><trkpt lat="45.66594236296711" lon="9.386520893630493"><ele>232.66666666666666</ele><time>2026-04-09T07:59:44Z</time></trkpt><trkpt lat="45.6660704273312" lon="9.386638629233836"><ele>232.0</ele><time>2026-04-09T07:59:45Z</time></trkpt><trkpt lat="45.66620783773405" lon="9.3867530764174"><ele>232.0</ele><time>2026-04-09T07:59:46Z</time></trkpt><trkpt lat="45.66634415016461" lon="9.386865849048695"><ele>232.0</ele><time>2026-04-09T07:59:47Z</time></trkpt><trkpt lat="45.666477313405096" lon="9.386977520608616"><ele>232.0</ele><time>2026-04-09T07:59:48Z</time></trkpt><trkpt lat="45.66663056534748" lon="9.387098327067868"><ele>232.66666666666666</ele><time>2026-04-09T07:59:49Z</time></trkpt><trkpt lat="45.66677165017832" lon="9.387212616051661"><ele>233.33333333333331</ele><time>2026-04-09T07:59:50Z</time></trkpt><trkpt lat="45.6669069056711" lon="9.387330353424597"><ele>234.0</ele><time>2026-04-09T07:59:51Z</time></trkpt><trkpt lat="45.667044233403786" lon="9.387436371980872"><ele>234.0</ele><time>2026-04-09T07:59:52Z</time></trkpt><trkpt lat="45.66718318425501" lon="9.38754054796868"><ele>234.0</ele><time>2026-04-09T07:59:53Z</time></trkpt><trkpt lat="45.667313173876174" lon="9.387644513953108"><ele>234.0</ele><time>2026-04-09T07:59:54Z</time></trkpt><trkpt lat="45.667442814345335" lon="9.387744116055442"><ele>234.0</ele><time>2026-04-09T07:59:55Z</time></trkpt><trkpt lat="45.66755742675977" lon="9.387839415512293"><ele>234.0</ele><time>2026-04-09T07:59:56Z</time></trkpt><trkpt lat="45.667691126558594" lon="9.387953189712622"><ele>234.0</ele><time>2026-04-09T07:59:57Z</time></trkpt><trkpt lat="45.66783481045748" lon="9.388048724295102"><ele>234.0</ele><time>2026-04-09T07:59:58Z</time></trkpt><trkpt lat="45.66797153196793" lon="9.388148132998722"><ele>234.66666666666669</ele><time>2026-04-09T07:59:59Z</time></trkpt><trkpt lat="45.66810677713534" lon="9.388251429944132"><ele>235.33333333333334</ele><time>2026-04-09T08:00:00Z</time></trkpt><trkpt lat="45.66823774745184" lon="9.38835230205525"><ele>236.0</ele><time>2026-04-09T08:00:01Z</time></trkpt><trkpt lat="45.668368517269634" lon="9.38845257491834"><ele>236.0</ele><time>2026-04-09T08:00:02Z</time></trkpt><trkpt lat="45.66849992857085" lon="9.388558502670232"><ele>236.0</ele><time>2026-04-09T08:00:03Z</time></trkpt><trkpt lat="45.668637149552524" lon="9.38865472055724"><ele>236.0</ele><time>2026-04-09T08:00:04Z</time></trkpt><trkpt lat="45.668767096612356" lon="9.388762415094211"><ele>236.66666666666669</ele><time>2026-04-09T08:00:05Z</time></trkpt><trkpt lat="45.66889879131337" lon="9.388870966920008"><ele>237.33333333333331</ele><time>2026-04-09T08:00:06Z</time></trkpt><trkpt lat="45.66903401884262" lon="9.388983875290311"><ele>238.0</ele><time>2026-04-09T08:00:07Z</time></trkpt><trkpt lat="45.669158633032566" lon="9.389092423736551"><ele>238.0</ele><time>2026-04-09T08:00:08Z</time></trkpt><trkpt lat="45.669289911945945" lon="9.389196122267213"><ele>238.0</ele><time>2026-04-09T08:00:09Z</time></trkpt><trkpt lat="45.66941927597097" lon="9.389297652914111"><ele>238.0</ele><time>2026-04-09T08:00:10Z</time></trkpt><trkpt lat="45.66954856725154" lon="9.389389920915459"><ele>238.0</ele><time>2026-04-09T08:00:11Z</time></trkpt><trkpt lat="45.66967917955823" lon="9.389470204737904"><ele>238.25</ele><time>2026-04-09T08:00:12Z</time></trkpt><trkpt lat="45.669805006171984" lon="9.389556972806295"><ele>238.5</ele><time>2026-04-09T08:00:13Z</time></trkpt><trkpt lat="45.66992048378364" lon="9.389629785079558"><ele>238.75</ele><time>2026-04-09T08:00:14Z</time></trkpt><trkpt lat="45.670025152936766" lon="9.389696089880776"><ele>239.0</ele><time>2026-04-09T08:00:15Z</time></trkpt><trkpt lat="45.67013281731383" lon="9.389765574912062"><ele>239.2</ele><time>2026-04-09T08:00:16Z</time></trkpt><trkpt lat="45.670230455553835" lon="9.389827604893974"><ele>239.39999999999998</ele><time>2026-04-09T08:00:17Z</time></trkpt><trkpt lat="45.6703224326807" lon="9.389895752282245"><ele>239.6</ele><time>2026-04-09T08:00:18Z</time></trkpt><trkpt lat="45.670412384576174" lon="9.389958324458886"><ele>239.8</ele><time>2026-04-09T08:00:19Z</time></trkpt><trkpt lat="45.67050493682147" lon="9.39001563620331"><ele>240.0</ele><time>2026-04-09T08:00:20Z</time></trkpt><trkpt lat="45.67059808058194" lon="9.390081907530586"><ele>240.0</ele><time>2026-04-09T08:00:21Z</time></trkpt><trkpt lat="45.67069658537341" lon="9.39014717526881"><ele>240.0</ele><time>2026-04-09T08:00:22Z</time></trkpt><trkpt lat="45.67079718126517" lon="9.390212608882486"><ele>240.0</ele><time>2026-04-09T08:00:23Z</time></trkpt><trkpt lat="45.67089500630542" lon="9.390283664854868"><ele>240.0</ele><time>2026-04-09T08:00:24Z</time></trkpt><trkpt lat="45.67099347546159" lon="9.390350852945726"><ele>240.0</ele><time>2026-04-09T08:00:25Z</time></trkpt><trkpt lat="45.67109275508217" lon="9.390418237196439"><ele>240.0</ele><time>2026-04-09T08:00:26Z</time></trkpt><trkpt lat="45.67119099173079" lon="9.39049088152702"><ele>240.0</ele><time>2026-04-09T08:00:27Z</time></trkpt><trkpt lat="45.67129126281824" lon="9.390569441581459"><ele>240.0</ele><time>2026-04-09T08:00:28Z</time></trkpt><trkpt lat="45.67139134532595" lon="9.390650741918806"><ele>240.0</ele><time>2026-04-09T08:00:29Z</time></trkpt><trkpt lat="45.67148660136408" lon="9.390741607363202"><ele>240.2</ele><time>2026-04-09T08:00:30Z</time></trkpt><trkpt lat="45.67158115239701" lon="9.390836746810695"><ele>240.4</ele><time>2026-04-09T08:00:31Z</time></trkpt><trkpt lat="45.6716688961457" lon="9.39093870247854"><ele>240.60000000000002</ele><time>2026-04-09T08:00:32Z</time></trkpt><trkpt lat="45.67175297463354" lon="9.391034696617128"><ele>240.8</ele><time>2026-04-09T08:00:33Z</time></trkpt><trkpt lat="45.67183644023138" lon="9.391128012920486"><ele>241.0</ele><time>2026-04-09T08:00:34Z</time></trkpt><trkpt lat="45.67192450044242" lon="9.391227615828372"><ele>241.0</ele><time>2026-04-09T08:00:35Z</time></trkpt><trkpt lat="45.67201309174147" lon="9.391329098753202"><ele>241.0</ele><time>2026-04-09T08:00:36Z</time></trkpt><trkpt lat="45.67210060918494" lon="9.391440316541997"><ele>241.0</ele><time>2026-04-09T08:00:37Z</time></trkpt><trkpt lat="45.67219031397681" lon="9.391548783241912"><ele>241.0</ele><time>2026-04-09T08:00:38Z</time></trkpt><trkpt lat="45.67228028585718" lon="9.39166343451196"><ele>241.0</ele><time>2026-04-09T08:00:39Z</time></trkpt><trkpt lat="45.67237432763334" lon="9.39178134465719"><ele>241.0</ele><time>2026-04-09T08:00:40Z</time></trkpt><trkpt lat="45.6724660364131" lon="9.391896260353587"><ele>241.0</ele><time>2026-04-09T08:00:41Z</time></trkpt><trkpt lat="45.6725574714893" lon="9.392010821924751"><ele>241.0</ele><time>2026-04-09T08:00:42Z</time></trkpt><trkpt lat="45.67264962387883" lon="9.39212158043239"><ele>241.5</ele><time>2026-04-09T08:00:43Z</time></trkpt><trkpt lat="45.67273407332789" lon="9.392250400958176"><ele>242.0</ele><time>2026-04-09T08:00:44Z</time></trkpt><trkpt lat="45.67281614532554" lon="9.392350117088371"><ele>242.5</ele><time>2026-04-09T08:00:45Z</time></trkpt><trkpt lat="45.67290167359535" lon="9.392468165307903"><ele>243.0</ele><time>2026-04-09T08:00:46Z</time></trkpt><trkpt lat="45.67299087145338" lon="9.392590973471933"><ele>243.25</ele><time>2026-04-09T08:00:47Z</time></trkpt><trkpt lat="45.67307834101244" lon="9.392718786072107"><ele>243.5</ele><time>2026-04-09T08:00:48Z</time></trkpt><trkpt lat="45.673162367416836" lon="9.392853880391845"><ele>243.75</ele><time>2026-04-09T08:00:49Z</time></trkpt><trkpt lat="45.67324904081357" lon="9.392986375979223"><ele>244.0</ele><time>2026-04-09T08:00:50Z</time></trkpt><trkpt lat="45.673335102869686" lon="9.393124566864378"><ele>244.25</ele><time>2026-04-09T08:00:51Z</time></trkpt><trkpt lat="45.67342514594626" lon="9.393262159912881"><ele>244.5</ele><time>2026-04-09T08:00:52Z</time></trkpt><trkpt lat="45.67351568960838" lon="9.393396475102339"><ele>244.75</ele><time>2026-04-09T08:00:53Z</time></trkpt><trkpt lat="45.67360343897902" lon="9.393539865047961"><ele>245.0</ele><time>2026-04-09T08:00:54Z</time></trkpt><trkpt lat="45.67369498585172" lon="9.393684332076077"><ele>245.0</ele><time>2026-04-09T08:00:55Z</time></trkpt><trkpt lat="45.67379017601306" lon="9.393822886160562"><ele>245.0</ele><time>2026-04-09T08:00:56Z</time></trkpt><trkpt lat="45.67389265427601" lon="9.393957734312355"><ele>245.0</ele><time>2026-04-09T08:00:57Z</time></trkpt><trkpt lat="45.67399538823924" lon="9.394090598835179"><ele>245.0</ele><time>2026-04-09T08:00:58Z</time></trkpt><trkpt lat="45.674098884704264" lon="9.3942147710354"><ele>245.0</ele><time>2026-04-09T08:00:59Z</time></trkpt><trkpt lat="45.67420328051187" lon="9.394333171504112"><ele>245.0</ele><time>2026-04-09T08:01:00Z</time></trkpt><trkpt lat="45.674309927050004" lon="9.394452993060506"><ele>245.0</ele><time>2026-04-09T08:01:01Z</time></trkpt><trkpt lat="45.67441870423413" lon="9.394566495230096"><ele>245.0</ele><time>2026-04-09T08:01:02Z</time></trkpt><trkpt lat="45.6745311140692" lon="9.394677023720977"><ele>244.75</ele><time>2026-04-09T08:01:03Z</time></trkpt><trkpt lat="45.67464508624433" lon="9.394786752804597"><ele>244.5</ele><time>2026-04-09T08:01:04Z</time></trkpt><trkpt lat="45.67475520252292" lon="9.394888552222064"><ele>244.25</ele><time>2026-04-09T08:01:05Z</time></trkpt><trkpt lat="45.67487533705916" lon="9.394987103023274"><ele>244.0</ele><time>2026-04-09T08:01:06Z</time></trkpt><trkpt lat="45.67499373641401" lon="9.395076729271313"><ele>244.0</ele><time>2026-04-09T08:01:07Z</time></trkpt><trkpt lat="45.67511189797028" lon="9.395170189977959"><ele>244.0</ele><time>2026-04-09T08:01:08Z</time></trkpt><trkpt lat="45.6752271767935" lon="9.395253192357199"><ele>244.0</ele><time>2026-04-09T08:01:09Z</time></trkpt><trkpt lat="45.6753404517762" lon="9.395327120550794"><ele>244.0</ele><time>2026-04-09T08:01:10Z</time></trkpt><trkpt lat="45.67545793398576" lon="9.395406098620741"><ele>244.75</ele><time>2026-04-09T08:01:11Z</time></trkpt><trkpt lat="45.675573525060756" lon="9.395478409320235"><ele>245.5</ele><time>2026-04-09T08:01:12Z</time></trkpt><trkpt lat="45.67568777090715" lon="9.395539777861417"><ele>246.25</ele><time>2026-04-09T08:01:13Z</time></trkpt><trkpt lat="45.675805185804286" lon="9.395602444085451"><ele>247.0</ele><time>2026-04-09T08:01:14Z</time></trkpt><trkpt lat="45.67592338728492" lon="9.395660748719537"><ele>247.0</ele><time>2026-04-09T08:01:15Z</time></trkpt><trkpt lat="45.676034236554976" lon="9.39571240035282"><ele>247.0</ele><time>2026-04-09T08:01:16Z</time></trkpt><trkpt lat="45.67613831794722" lon="9.39575676275641"><ele>247.0</ele><time>2026-04-09T08:01:17Z</time></trkpt><trkpt lat="45.67623359787432" lon="9.395797003069502"><ele>247.0</ele><time>2026-04-09T08:01:18Z</time></trkpt><trkpt lat="45.67632123475741" lon="9.395830406625645"><ele>247.0</ele><time>2026-04-09T08:01:19Z</time></trkpt><trkpt lat="45.67642136066171" lon="9.395865716092677"><ele>247.5</ele><time>2026-04-09T08:01:20Z</time></trkpt><trkpt lat="45.6765278955699" lon="9.395901330956415"><ele>248.0</ele><time>2026-04-09T08:01:21Z</time></trkpt><trkpt lat="45.67663626720706" lon="9.395944539472215"><ele>248.5</ele><time>2026-04-09T08:01:22Z</time></trkpt><trkpt lat="45.67676256407959" lon="9.395993602687318"><ele>249.0</ele><time>2026-04-09T08:01:23Z</time></trkpt><trkpt lat="45.67688429452007" lon="9.396037970596097"><ele>249.0</ele><time>2026-04-09T08:01:24Z</time></trkpt><trkpt lat="45.676998138535204" lon="9.396079659741424"><ele>249.0</ele><time>2026-04-09T08:01:25Z</time></trkpt><trkpt lat="45.67708795124359" lon="9.396118247221674"><ele>249.0</ele><time>2026-04-09T08:01:26Z</time></trkpt><trkpt lat="45.67715364421443" lon="9.396157463578596"><ele>249.0</ele><time>2026-04-09T08:01:27Z</time></trkpt><trkpt lat="45.67722442115673" lon="9.396198507368851"><ele>249.0</ele><time>2026-04-09T08:01:29Z</time></trkpt><trkpt lat="45.67730685405757" lon="9.396222104206405"><ele>249.0</ele><time>2026-04-09T08:04:42Z</time></trkpt><trkpt lat="45.67738015465382" lon="9.396225670439424"><ele>249.0</ele><time>2026-04-09T08:04:44Z</time></trkpt><trkpt lat="45.677521219128295" lon="9.396276497376887"><ele>248.99999999999997</ele><time>2026-04-09T08:04:46Z</time></trkpt><trkpt lat="45.67760171528557" lon="9.396307679678886"><ele>248.99999999999997</ele><time>2026-04-09T08:04:47Z</time></trkpt><trkpt lat="45.67768695022046" lon="9.396340336990525"><ele>249.0</ele><time>2026-04-09T08:04:48Z</time></trkpt><trkpt lat="45.67779127681281" lon="9.396378880338675"><ele>249.0</ele><time>2026-04-09T08:04:49Z</time></trkpt><trkpt lat="45.67789186183634" lon="9.396417852925993"><ele>249.0</ele><time>2026-04-09T08:04:50Z</time></trkpt><trkpt lat="45.67800097037442" lon="9.396458369368013"><ele>248.99999999999997</ele><time>2026-04-09T08:04:51Z</time></trkpt><trkpt lat="45.678118654176764" lon="9.396493647585524"><ele>248.99999999999997</ele><time>2026-04-09T08:04:52Z</time></trkpt><trkpt lat="45.67822972018557" lon="9.396529232289867"><ele>249.0</ele><time>2026-04-09T08:04:53Z</time></trkpt><trkpt lat="45.678327712179126" lon="9.396564889464774"><ele>249.0</ele><time>2026-04-09T08:04:54Z</time></trkpt><trkpt lat="45.67843720598683" lon="9.396601890995205"><ele>249.0</ele><time>2026-04-09T08:04:55Z</time></trkpt><trkpt lat="45.678538908074856" lon="9.39663732227212"><ele>248.99999999999997</ele><time>2026-04-09T08:04:56Z</time></trkpt><trkpt lat="45.67863311145212" lon="9.396685263110408"><ele>248.99999999999997</ele><time>2026-04-09T08:04:57Z</time></trkpt><trkpt lat="45.67873937350723" lon="9.396715263547732"><ele>249.0</ele><time>2026-04-09T08:04:58Z</time></trkpt><trkpt lat="45.678834056840984" lon="9.396746572978673"><ele>249.0</ele><time>2026-04-09T08:04:59Z</time></trkpt><trkpt lat="45.67892429917642" lon="9.396780315666577"><ele>249.2</ele><time>2026-04-09T08:05:00Z</time></trkpt><trkpt lat="45.67902103168167" lon="9.396816455322885"><ele>249.39999999999998</ele><time>2026-04-09T08:05:01Z</time></trkpt><trkpt lat="45.67910715952194" lon="9.396863992693708"><ele>249.6</ele><time>2026-04-09T08:05:02Z</time></trkpt><trkpt lat="45.67919721623931" lon="9.396923504816693"><ele>249.8</ele><time>2026-04-09T08:05:03Z</time></trkpt><trkpt lat="45.679284379729545" lon="9.39698658728676"><ele>250.0</ele><time>2026-04-09T08:05:04Z</time></trkpt><trkpt lat="45.67937089807284" lon="9.397056764906388"><ele>250.4</ele><time>2026-04-09T08:05:05Z</time></trkpt><trkpt lat="45.67945500048122" lon="9.39710579148682"><ele>250.8</ele><time>2026-04-09T08:05:06Z</time></trkpt><trkpt lat="45.67955566908787" lon="9.397123270241112"><ele>251.2</ele><time>2026-04-09T08:05:07Z</time></trkpt><trkpt lat="45.679651060723735" lon="9.397110626342947"><ele>251.6</ele><time>2026-04-09T08:05:08Z</time></trkpt><trkpt lat="45.6797583015934" lon="9.397093223899965"><ele>252.0</ele><time>2026-04-09T08:05:09Z</time></trkpt><trkpt lat="45.67985200396844" lon="9.397086915594096"><ele>252.0</ele><time>2026-04-09T08:05:10Z</time></trkpt><trkpt lat="45.67995181897985" lon="9.39711271397712"><ele>252.0</ele><time>2026-04-09T08:05:11Z</time></trkpt><trkpt lat="45.680055862780044" lon="9.39715372289954"><ele>252.0</ele><time>2026-04-09T08:05:12Z</time></trkpt><trkpt lat="45.68016546476676" lon="9.39719931715825"><ele>252.0</ele><time>2026-04-09T08:05:13Z</time></trkpt><trkpt lat="45.68028312440187" lon="9.39724795376792"><ele>252.0</ele><time>2026-04-09T08:05:14Z</time></trkpt><trkpt lat="45.680401931681025" lon="9.39729128084283"><ele>252.5</ele><time>2026-04-09T08:05:15Z</time></trkpt><trkpt lat="45.68054238458373" lon="9.397343103159665"><ele>253.0</ele><time>2026-04-09T08:05:16Z</time></trkpt><trkpt lat="45.680653437809234" lon="9.397407390363796"><ele>253.5</ele><time>2026-04-09T08:05:17Z</time></trkpt><trkpt lat="45.68076429823742" lon="9.39744512461111"><ele>254.0</ele><time>2026-04-09T08:05:18Z</time></trkpt><trkpt lat="45.680881855241076" lon="9.397490817557806"><ele>254.0</ele><time>2026-04-09T08:05:19Z</time></trkpt><trkpt lat="45.681003431810225" lon="9.397541070736033"><ele>254.0</ele><time>2026-04-09T08:05:20Z</time></trkpt><trkpt lat="45.68111900383337" lon="9.397586869278893"><ele>254.0</ele><time>2026-04-09T08:05:21Z</time></trkpt><trkpt lat="45.68124544074405" lon="9.397619338091303"><ele>254.0</ele><time>2026-04-09T08:05:22Z</time></trkpt><trkpt lat="45.6813639449473" lon="9.397668112359217"><ele>254.2</ele><time>2026-04-09T08:05:23Z</time></trkpt><trkpt lat="45.68148061677939" lon="9.397710182517885"><ele>254.39999999999998</ele><time>2026-04-09T08:05:24Z</time></trkpt><trkpt lat="45.68158371889652" lon="9.397744286219702"><ele>254.6</ele><time>2026-04-09T08:05:25Z</time></trkpt><trkpt lat="45.68168274546859" lon="9.39777805153223"><ele>254.8</ele><time>2026-04-09T08:05:26Z</time></trkpt><trkpt lat="45.68178975821646" lon="9.397819945130426"><ele>255.0</ele><time>2026-04-09T08:05:27Z</time></trkpt><trkpt lat="45.68188335875363" lon="9.39785044145953"><ele>255.2</ele><time>2026-04-09T08:05:28Z</time></trkpt><trkpt lat="45.68195557238201" lon="9.397877442319281"><ele>255.4</ele><time>2026-04-09T08:05:29Z</time></trkpt><trkpt lat="45.68201894759137" lon="9.397896649770809"><ele>255.60000000000002</ele><time>2026-04-09T08:05:30Z</time></trkpt><trkpt lat="45.682143694272845" lon="9.397923311548347"><ele>255.8</ele><time>2026-04-09T08:05:32Z</time></trkpt><trkpt lat="45.68226336277726" lon="9.397990321503427"><ele>256.0</ele><time>2026-04-09T08:05:34Z</time></trkpt><trkpt lat="45.68234166282613" lon="9.398022670406323"><ele>256.0</ele><time>2026-04-09T08:05:35Z</time></trkpt><trkpt lat="45.682417717024315" lon="9.39805590293241"><ele>256.0</ele><time>2026-04-09T08:05:36Z</time></trkpt><trkpt lat="45.682496876285185" lon="9.398070366106813"><ele>256.0</ele><time>2026-04-09T08:05:37Z</time></trkpt><trkpt lat="45.68258705805367" lon="9.39819796779146"><ele>256.0</ele><time>2026-04-09T08:05:39Z</time></trkpt><trkpt lat="45.682667053285265" lon="9.398354458344674"><ele>256.0</ele><time>2026-04-09T08:05:41Z</time></trkpt><trkpt lat="45.682731466574" lon="9.398394407143702"><ele>255.4</ele><time>2026-04-09T08:05:42Z</time></trkpt><trkpt lat="45.68285868601156" lon="9.39838904255876"><ele>254.8</ele><time>2026-04-09T08:05:44Z</time></trkpt><trkpt lat="45.68293794502691" lon="9.398359137228766"><ele>254.20000000000002</ele><time>2026-04-09T08:05:45Z</time></trkpt><trkpt lat="45.68302927810873" lon="9.398336549896463"><ele>253.60000000000002</ele><time>2026-04-09T08:05:46Z</time></trkpt><trkpt lat="45.68313084206069" lon="9.398336451699416"><ele>253.0</ele><time>2026-04-09T08:05:47Z</time></trkpt><trkpt lat="45.6832262570305" lon="9.39834924369834"><ele>253.0</ele><time>2026-04-09T08:05:48Z</time></trkpt><trkpt lat="45.6833325031696" lon="9.398380020483673"><ele>253.0</ele><time>2026-04-09T08:05:49Z</time></trkpt><trkpt lat="45.68343137797856" lon="9.398418883354307"><ele>253.0</ele><time>2026-04-09T08:05:50Z</time></trkpt><trkpt lat="45.68354632291867" lon="9.398459317973051"><ele>253.0</ele><time>2026-04-09T08:05:51Z</time></trkpt><trkpt lat="45.68365928956268" lon="9.398494070198089"><ele>253.0</ele><time>2026-04-09T08:05:52Z</time></trkpt><trkpt lat="45.683778015317465" lon="9.398534843879874"><ele>253.0</ele><time>2026-04-09T08:05:53Z</time></trkpt><trkpt lat="45.6838943672684" lon="9.398576231825775"><ele>253.0</ele><time>2026-04-09T08:05:54Z</time></trkpt><trkpt lat="45.68402221047112" lon="9.398622604843435"><ele>253.0</ele><time>2026-04-09T08:05:55Z</time></trkpt><trkpt lat="45.68415536307735" lon="9.398674937840578"><ele>253.0</ele><time>2026-04-09T08:05:56Z</time></trkpt><trkpt lat="45.68427719008178" lon="9.398720580058095"><ele>253.0</ele><time>2026-04-09T08:05:56.999Z</time></trkpt><trkpt lat="45.6843987179514" lon="9.3987621220209"><ele>253.0</ele><time>2026-04-09T08:05:57.999Z</time></trkpt><trkpt lat="45.68452664715799" lon="9.398808609727023"><ele>253.0</ele><time>2026-04-09T08:05:58.999Z</time></trkpt><trkpt lat="45.68465261518701" lon="9.398857550744308"><ele>253.0</ele><time>2026-04-09T08:05:59.999Z</time></trkpt><trkpt lat="45.684782431236926" lon="9.398907011187507"><ele>253.0</ele><time>2026-04-09T08:06:00.999Z</time></trkpt><trkpt lat="45.68491525183257" lon="9.39895531595452"><ele>253.0</ele><time>2026-04-09T08:06:01.999Z</time></trkpt><trkpt lat="45.685047780124954" lon="9.39900278191192"><ele>253.0</ele><time>2026-04-09T08:06:02.999Z</time></trkpt><trkpt lat="45.685181982648366" lon="9.399045926362431"><ele>253.0</ele><time>2026-04-09T08:06:03.999Z</time></trkpt><trkpt lat="45.68531264494729" lon="9.399094360263925"><ele>253.0</ele><time>2026-04-09T08:06:04.999Z</time></trkpt><trkpt lat="45.685448282808345" lon="9.399140830070191"><ele>253.0</ele><time>2026-04-09T08:06:05.999Z</time></trkpt><trkpt lat="45.685581004213184" lon="9.39919003691302"><ele>253.0</ele><time>2026-04-09T08:06:06.999Z</time></trkpt><trkpt lat="45.685714843909096" lon="9.39923885590194"><ele>253.0</ele><time>2026-04-09T08:06:08Z</time></trkpt><trkpt lat="45.685849476491306" lon="9.399291554180614"><ele>253.0</ele><time>2026-04-09T08:06:09Z</time></trkpt><trkpt lat="45.68598437421416" lon="9.399340624129696"><ele>253.0</ele><time>2026-04-09T08:06:10Z</time></trkpt><trkpt lat="45.68611697164833" lon="9.399386969434023"><ele>253.0</ele><time>2026-04-09T08:06:11Z</time></trkpt><trkpt lat="45.68624242934349" lon="9.399429429444535"><ele>253.0</ele><time>2026-04-09T08:06:12Z</time></trkpt><trkpt lat="45.68636866043012" lon="9.39947290745836"><ele>254.0</ele><time>2026-04-09T08:06:13Z</time></trkpt><trkpt lat="45.68649001206355" lon="9.39951588552164"><ele>255.0</ele><time>2026-04-09T08:06:14Z</time></trkpt><trkpt lat="45.68661146419203" lon="9.399559681389524"><ele>256.0</ele><time>2026-04-09T08:06:15Z</time></trkpt><trkpt lat="45.68673800470247" lon="9.399602119528012"><ele>257.0</ele><time>2026-04-09T08:06:16Z</time></trkpt><trkpt lat="45.68687438502101" lon="9.399644293963698"><ele>257.25</ele><time>2026-04-09T08:06:17Z</time></trkpt><trkpt lat="45.68700210152743" lon="9.39969025956378"><ele>257.5</ele><time>2026-04-09T08:06:18Z</time></trkpt><trkpt lat="45.68712622434172" lon="9.399734165677057"><ele>257.75</ele><time>2026-04-09T08:06:19Z</time></trkpt><trkpt lat="45.6872504171207" lon="9.399777237880038"><ele>258.0</ele><time>2026-04-09T08:06:20Z</time></trkpt><trkpt lat="45.687370451928096" lon="9.399819094108521"><ele>258.0</ele><time>2026-04-09T08:06:21Z</time></trkpt><trkpt lat="45.6874892720956" lon="9.399861998367426"><ele>258.0</ele><time>2026-04-09T08:06:22Z</time></trkpt><trkpt lat="45.687604972254775" lon="9.399902680072659"><ele>258.0</ele><time>2026-04-09T08:06:23Z</time></trkpt><trkpt lat="45.68771329546729" lon="9.399944413641737"><ele>258.0</ele><time>2026-04-09T08:06:24Z</time></trkpt><trkpt lat="45.68781584855826" lon="9.399990972038763"><ele>258.6666666666667</ele><time>2026-04-09T08:06:25Z</time></trkpt><trkpt lat="45.687914199364215" lon="9.40003049165408"><ele>259.3333333333333</ele><time>2026-04-09T08:06:26Z</time></trkpt><trkpt lat="45.688003046056004" lon="9.400068937600748"><ele>260.0</ele><time>2026-04-09T08:06:27Z</time></trkpt><trkpt lat="45.68808395152054" lon="9.400107851383774"><ele>260.66666666666663</ele><time>2026-04-09T08:06:28Z</time></trkpt><trkpt lat="45.68816409492009" lon="9.400148670512657"><ele>261.3333333333333</ele><time>2026-04-09T08:06:29Z</time></trkpt><trkpt lat="45.688235696318024" lon="9.40018477989356"><ele>262.0</ele><time>2026-04-09T08:06:30Z</time></trkpt><trkpt lat="45.688335582259825" lon="9.400253765618347"><ele>262.0</ele><time>2026-04-09T08:06:32Z</time></trkpt><trkpt lat="45.68839900410336" lon="9.400345724278978"><ele>262.0</ele><time>2026-04-09T08:06:34Z</time></trkpt><trkpt lat="45.68846887182448" lon="9.400464881435564"><ele>262.0</ele><time>2026-04-09T08:06:36Z</time></trkpt><trkpt lat="45.688575338695394" lon="9.40053954295213"><ele>262.0</ele><time>2026-04-09T08:06:38Z</time></trkpt><trkpt lat="45.688652214977324" lon="9.400535039000136"><ele>262.0</ele><time>2026-04-09T08:06:39Z</time></trkpt><trkpt lat="45.688734430889326" lon="9.400503934787244"><ele>262.2</ele><time>2026-04-09T08:06:40Z</time></trkpt><trkpt lat="45.68882379610535" lon="9.400472124709546"><ele>262.4</ele><time>2026-04-09T08:06:41Z</time></trkpt><trkpt lat="45.68891654509763" lon="9.40046723876836"><ele>262.6</ele><time>2026-04-09T08:06:42Z</time></trkpt><trkpt lat="45.68901619318553" lon="9.400493767555494"><ele>262.8</ele><time>2026-04-09T08:06:43Z</time></trkpt><trkpt lat="45.689120916168754" lon="9.400529756556969"><ele>263.0</ele><time>2026-04-09T08:06:44Z</time></trkpt><trkpt lat="45.68923488365281" lon="9.400559170239287"><ele>262.75</ele><time>2026-04-09T08:06:45Z</time></trkpt><trkpt lat="45.68936532362321" lon="9.400597617572306"><ele>262.5</ele><time>2026-04-09T08:06:46Z</time></trkpt><trkpt lat="45.68951322421298" lon="9.400630921472501"><ele>262.25</ele><time>2026-04-09T08:06:47Z</time></trkpt><trkpt lat="45.689660992918384" lon="9.400679364081514"><ele>262.0</ele><time>2026-04-09T08:06:48Z</time></trkpt><trkpt lat="45.689805091424276" lon="9.40073567909993"><ele>262.0</ele><time>2026-04-09T08:06:49Z</time></trkpt><trkpt lat="45.689962077176766" lon="9.400803241982373"><ele>262.0</ele><time>2026-04-09T08:06:50Z</time></trkpt><trkpt lat="45.690091946806795" lon="9.400888148590472"><ele>262.0</ele><time>2026-04-09T08:06:51Z</time></trkpt><trkpt lat="45.6902310572406" lon="9.400955699453295"><ele>262.75</ele><time>2026-04-09T08:06:52Z</time></trkpt><trkpt lat="45.69037340454312" lon="9.401025598369731"><ele>263.5</ele><time>2026-04-09T08:06:53Z</time></trkpt><trkpt lat="45.69051789171979" lon="9.401093233765016"><ele>264.25</ele><time>2026-04-09T08:06:54Z</time></trkpt><trkpt lat="45.690656862752995" lon="9.401158966389408"><ele>265.0</ele><time>2026-04-09T08:06:55Z</time></trkpt><trkpt lat="45.69080210490978" lon="9.401226952286752"><ele>265.0</ele><time>2026-04-09T08:06:56Z</time></trkpt><trkpt lat="45.69093697434778" lon="9.401293990075564"><ele>265.0</ele><time>2026-04-09T08:06:57Z</time></trkpt><trkpt lat="45.69107119852453" lon="9.401359852261164"><ele>265.0</ele><time>2026-04-09T08:06:58Z</time></trkpt><trkpt lat="45.69119966122825" lon="9.4014229892432"><ele>265.0</ele><time>2026-04-09T08:06:59Z</time></trkpt><trkpt lat="45.69133315856922" lon="9.401485552892533"><ele>265.75</ele><time>2026-04-09T08:07:00Z</time></trkpt><trkpt lat="45.69145581938517" lon="9.401543364241482"><ele>266.5</ele><time>2026-04-09T08:07:01Z</time></trkpt><trkpt lat="45.69157037212986" lon="9.401600876136863"><ele>267.25</ele><time>2026-04-09T08:07:02Z</time></trkpt><trkpt lat="45.69167612543668" lon="9.401649027340143"><ele>268.0</ele><time>2026-04-09T08:07:03Z</time></trkpt><trkpt lat="45.69177516549952" lon="9.401697421916387"><ele>268.0</ele><time>2026-04-09T08:07:04Z</time></trkpt><trkpt lat="45.691864813573716" lon="9.4017462588581"><ele>268.0</ele><time>2026-04-09T08:07:05Z</time></trkpt><trkpt lat="45.691946399892" lon="9.401789400374417"><ele>268.0</ele><time>2026-04-09T08:07:06Z</time></trkpt><trkpt lat="45.69202307949636" lon="9.401824942587735"><ele>268.0</ele><time>2026-04-09T08:07:07Z</time></trkpt><trkpt lat="45.69209100583337" lon="9.401859003681052"><ele>268.0</ele><time>2026-04-09T08:07:08Z</time></trkpt><trkpt lat="45.69216260107815" lon="9.401891163061588"><ele>268.0</ele><time>2026-04-09T08:07:09Z</time></trkpt><trkpt lat="45.69222714776279" lon="9.401923078757036"><ele>268.16666666666663</ele><time>2026-04-09T08:07:10Z</time></trkpt><trkpt lat="45.69228812654118" lon="9.4019573071276"><ele>268.3333333333333</ele><time>2026-04-09T08:07:11Z</time></trkpt><trkpt lat="45.69237111148036" lon="9.401999619716527"><ele>268.5</ele><time>2026-04-09T08:07:13Z</time></trkpt><trkpt lat="45.69243071856251" lon="9.402043944152823"><ele>268.6666666666667</ele><time>2026-04-09T08:07:19Z</time></trkpt><trkpt lat="45.69249839286723" lon="9.402077663687946"><ele>268.83333333333337</ele><time>2026-04-09T08:07:55Z</time></trkpt><trkpt lat="45.69259113769428" lon="9.402130884228084"><ele>269.0</ele><time>2026-04-09T08:07:57Z</time></trkpt><trkpt lat="45.6926647139148" lon="9.402170091312744"><ele>269.0</ele><time>2026-04-09T08:07:58Z</time></trkpt><trkpt lat="45.6927403523766" lon="9.402184588789094"><ele>269.0</ele><time>2026-04-09T08:07:59Z</time></trkpt><trkpt lat="45.69282273277789" lon="9.402219152357455"><ele>269.0</ele><time>2026-04-09T08:08:00Z</time></trkpt><trkpt lat="45.69291706488489" lon="9.402239711412713"><ele>269.0</ele><time>2026-04-09T08:08:01Z</time></trkpt><trkpt lat="45.69301135736347" lon="9.402265037078955"><ele>269.0</ele><time>2026-04-09T08:08:02Z</time></trkpt><trkpt lat="45.69311315060468" lon="9.402277757294675"><ele>269.0</ele><time>2026-04-09T08:08:03Z</time></trkpt><trkpt lat="45.6932079633416" lon="9.402282401003818"><ele>269.0</ele><time>2026-04-09T08:08:04Z</time></trkpt><trkpt lat="45.6933070627899" lon="9.402283011857875"><ele>269.0</ele><time>2026-04-09T08:08:05Z</time></trkpt><trkpt lat="45.693397450849" lon="9.402283615271116"><ele>269.0</ele><time>2026-04-09T08:08:06Z</time></trkpt><trkpt lat="45.693471209874964" lon="9.402285558242147"><ele>269.0</ele><time>2026-04-09T08:08:07Z</time></trkpt><trkpt lat="45.69354144354587" lon="9.402285778043716"><ele>269.0</ele><time>2026-04-09T08:08:08Z</time></trkpt><trkpt lat="45.69364058522053" lon="9.40228891891632"><ele>269.1666666666667</ele><time>2026-04-09T08:08:10Z</time></trkpt><trkpt lat="45.69370798031458" lon="9.402300654168776"><ele>269.33333333333337</ele><time>2026-04-09T08:08:12Z</time></trkpt><trkpt lat="45.69377122953584" lon="9.402300650905678"><ele>269.5</ele><time>2026-04-09T08:08:13Z</time></trkpt><trkpt lat="45.693847444676365" lon="9.402305658068876"><ele>269.6666666666667</ele><time>2026-04-09T08:08:14Z</time></trkpt><trkpt lat="45.69393695151289" lon="9.402324528092633"><ele>269.8333333333333</ele><time>2026-04-09T08:08:15Z</time></trkpt><trkpt lat="45.69402563785413" lon="9.402348214336833"><ele>270.0</ele><time>2026-04-09T08:08:16Z</time></trkpt><trkpt lat="45.69412624515194" lon="9.402379973069916"><ele>270.0</ele><time>2026-04-09T08:08:17Z</time></trkpt><trkpt lat="45.69423978742321" lon="9.40243347722043"><ele>270.0</ele><time>2026-04-09T08:08:18Z</time></trkpt><trkpt lat="45.69435155855524" lon="9.402502461588883"><ele>270.0</ele><time>2026-04-09T08:08:19Z</time></trkpt><trkpt lat="45.694456591423915" lon="9.402579474611954"><ele>270.0</ele><time>2026-04-09T08:08:20Z</time></trkpt><trkpt lat="45.694548609323896" lon="9.402677377025817"><ele>270.75</ele><time>2026-04-09T08:08:21Z</time></trkpt><trkpt lat="45.694651428673694" lon="9.40279242932994"><ele>271.5</ele><time>2026-04-09T08:08:22Z</time></trkpt><trkpt lat="45.694764078927776" lon="9.402906755705015"><ele>272.25</ele><time>2026-04-09T08:08:23Z</time></trkpt><trkpt lat="45.69487709429888" lon="9.403025932091165"><ele>273.0</ele><time>2026-04-09T08:08:24Z</time></trkpt><trkpt lat="45.69499920950362" lon="9.403151692999149"><ele>273.0</ele><time>2026-04-09T08:08:25Z</time></trkpt><trkpt lat="45.695122383127774" lon="9.40327900760996"><ele>273.0</ele><time>2026-04-09T08:08:26Z</time></trkpt><trkpt lat="45.695239828838915" lon="9.403398538224803"><ele>273.0</ele><time>2026-04-09T08:08:27Z</time></trkpt><trkpt lat="45.69536450032707" lon="9.4034953676069"><ele>273.0</ele><time>2026-04-09T08:08:28Z</time></trkpt><trkpt lat="45.69548334657992" lon="9.40361575108253"><ele>273.25</ele><time>2026-04-09T08:08:29Z</time></trkpt><trkpt lat="45.695595158480195" lon="9.403731507600883"><ele>273.5</ele><time>2026-04-09T08:08:30Z</time></trkpt><trkpt lat="45.69570893940415" lon="9.403850181212965"><ele>273.75</ele><time>2026-04-09T08:08:31Z</time></trkpt><trkpt lat="45.69582477907624" lon="9.403968907444874"><ele>274.0</ele><time>2026-04-09T08:08:32Z</time></trkpt><trkpt lat="45.69593373377687" lon="9.40409152781697"><ele>274.0</ele><time>2026-04-09T08:08:33Z</time></trkpt><trkpt lat="45.69604856773981" lon="9.404206560087916"><ele>274.0</ele><time>2026-04-09T08:08:34Z</time></trkpt><trkpt lat="45.69615844284422" lon="9.404324718339959"><ele>274.0</ele><time>2026-04-09T08:08:35Z</time></trkpt><trkpt lat="45.69626882182479" lon="9.404443266594141"><ele>274.0</ele><time>2026-04-09T08:08:36Z</time></trkpt><trkpt lat="45.696384778743735" lon="9.404555347482672"><ele>274.75</ele><time>2026-04-09T08:08:37Z</time></trkpt><trkpt lat="45.69649709212907" lon="9.404668668786055"><ele>275.5</ele><time>2026-04-09T08:08:38Z</time></trkpt><trkpt lat="45.69660933020527" lon="9.404782289928932"><ele>276.25</ele><time>2026-04-09T08:08:39Z</time></trkpt><trkpt lat="45.69671929193382" lon="9.404896168878079"><ele>277.0</ele><time>2026-04-09T08:08:40Z</time></trkpt><trkpt lat="45.69683552974968" lon="9.405011722586174"><ele>276.75</ele><time>2026-04-09T08:08:41Z</time></trkpt><trkpt lat="45.696948355304386" lon="9.405128498683663"><ele>276.5</ele><time>2026-04-09T08:08:42Z</time></trkpt><trkpt lat="45.69705733461178" lon="9.405249336518272"><ele>276.25</ele><time>2026-04-09T08:08:43Z</time></trkpt><trkpt lat="45.69717709876834" lon="9.405363779852077"><ele>276.0</ele><time>2026-04-09T08:08:44Z</time></trkpt><trkpt lat="45.69728985297654" lon="9.405476005880159"><ele>276.25</ele><time>2026-04-09T08:08:45Z</time></trkpt><trkpt lat="45.69740209051068" lon="9.405591672877058"><ele>276.5</ele><time>2026-04-09T08:08:46Z</time></trkpt><trkpt lat="45.69751282236495" lon="9.405702211773695"><ele>276.75</ele><time>2026-04-09T08:08:47Z</time></trkpt><trkpt lat="45.69762254954798" lon="9.405809007726901"><ele>277.0</ele><time>2026-04-09T08:08:48Z</time></trkpt><trkpt lat="45.69772766673484" lon="9.405910847810286"><ele>277.25</ele><time>2026-04-09T08:08:49Z</time></trkpt><trkpt lat="45.69782835616546" lon="9.406015557884443"><ele>277.5</ele><time>2026-04-09T08:08:50Z</time></trkpt><trkpt lat="45.69793804388868" lon="9.406107689455242"><ele>277.75</ele><time>2026-04-09T08:08:51Z</time></trkpt><trkpt lat="45.69800770106595" lon="9.406220204106106"><ele>278.0</ele><time>2026-04-09T08:08:52Z</time></trkpt><trkpt lat="45.69810049255143" lon="9.4063286730316"><ele>278.5</ele><time>2026-04-09T08:08:53Z</time></trkpt><trkpt lat="45.69817881807761" lon="9.40645996164057"><ele>279.0</ele><time>2026-04-09T08:08:54Z</time></trkpt><trkpt lat="45.698266634671505" lon="9.406598604414652"><ele>279.5</ele><time>2026-04-09T08:08:55Z</time></trkpt><trkpt lat="45.69833754986184" lon="9.406701032038587"><ele>280.0</ele><time>2026-04-09T08:08:56Z</time></trkpt><trkpt lat="45.698427977750605" lon="9.406791943530882"><ele>280.0</ele><time>2026-04-09T08:08:57Z</time></trkpt><trkpt lat="45.698533825187134" lon="9.406853298947652"><ele>280.0</ele><time>2026-04-09T08:08:58Z</time></trkpt><trkpt lat="45.69863777487323" lon="9.406927635688158"><ele>280.0</ele><time>2026-04-09T08:08:59Z</time></trkpt><trkpt lat="45.69873945638566" lon="9.407014127130084"><ele>280.0</ele><time>2026-04-09T08:09:00Z</time></trkpt><trkpt lat="45.69883448159101" lon="9.407104437875653"><ele>281.0</ele><time>2026-04-09T08:09:01Z</time></trkpt><trkpt lat="45.69891942321755" lon="9.407202672005173"><ele>282.0</ele><time>2026-04-09T08:09:02Z</time></trkpt><trkpt lat="45.698998509610306" lon="9.407318469289702"><ele>283.0</ele><time>2026-04-09T08:09:03Z</time></trkpt><trkpt lat="45.69907984481329" lon="9.407435877974061"><ele>284.0</ele><time>2026-04-09T08:09:04Z</time></trkpt><trkpt lat="45.69916478758303" lon="9.40755954656848"><ele>284.0</ele><time>2026-04-09T08:09:05Z</time></trkpt><trkpt lat="45.69924600178292" lon="9.407676588060518"><ele>284.0</ele><time>2026-04-09T08:09:06Z</time></trkpt><trkpt lat="45.69932948456326" lon="9.407789465554869"><ele>284.0</ele><time>2026-04-09T08:09:07Z</time></trkpt><trkpt lat="45.699404924510944" lon="9.407895767362879"><ele>284.0</ele><time>2026-04-09T08:09:08Z</time></trkpt><trkpt lat="45.69949114438053" lon="9.407994418471734"><ele>284.0</ele><time>2026-04-09T08:09:09Z</time></trkpt><trkpt lat="45.69957408376159" lon="9.408102180883915"><ele>284.59999999999997</ele><time>2026-04-09T08:09:10Z</time></trkpt><trkpt lat="45.69965878036289" lon="9.408207546953033"><ele>285.2</ele><time>2026-04-09T08:09:11Z</time></trkpt><trkpt lat="45.699734070992754" lon="9.408316541176028"><ele>285.79999999999995</ele><time>2026-04-09T08:09:12Z</time></trkpt><trkpt lat="45.699816868058484" lon="9.408421687875368"><ele>286.4</ele><time>2026-04-09T08:09:13Z</time></trkpt><trkpt lat="45.69990239929796" lon="9.4085274280345"><ele>287.0</ele><time>2026-04-09T08:09:14Z</time></trkpt><trkpt lat="45.69998484328584" lon="9.40863384569383"><ele>287.0</ele><time>2026-04-09T08:09:15Z</time></trkpt><trkpt lat="45.7000706674895" lon="9.408738439345667"><ele>287.0</ele><time>2026-04-09T08:09:16Z</time></trkpt><trkpt lat="45.70015525914076" lon="9.408841733795315"><ele>287.0</ele><time>2026-04-09T08:09:17Z</time></trkpt><trkpt lat="45.70024492251632" lon="9.408939806261703"><ele>287.0</ele><time>2026-04-09T08:09:18Z</time></trkpt><trkpt lat="45.70032918119039" lon="9.409052127727199"><ele>286.6</ele><time>2026-04-09T08:09:19Z</time></trkpt><trkpt lat="45.70038681597705" lon="9.409178788544521"><ele>286.2</ele><time>2026-04-09T08:09:20Z</time></trkpt><trkpt lat="45.70046716961674" lon="9.409282429611412"><ele>285.8</ele><time>2026-04-09T08:09:21Z</time></trkpt><trkpt lat="45.70055435865171" lon="9.409379846686052"><ele>285.4</ele><time>2026-04-09T08:09:22Z</time></trkpt><trkpt lat="45.70063501097995" lon="9.409502072079949"><ele>285.0</ele><time>2026-04-09T08:09:23Z</time></trkpt><trkpt lat="45.700728990515195" lon="9.40962662596146"><ele>284.5</ele><time>2026-04-09T08:09:24Z</time></trkpt><trkpt lat="45.700824773956114" lon="9.409742425626233"><ele>284.0</ele><time>2026-04-09T08:09:25Z</time></trkpt><trkpt lat="45.70091948305182" lon="9.409864386098299"><ele>283.5</ele><time>2026-04-09T08:09:26Z</time></trkpt><trkpt lat="45.70102333726045" lon="9.409974297783078"><ele>283.0</ele><time>2026-04-09T08:09:27Z</time></trkpt><trkpt lat="45.70113767994646" lon="9.410077382404248"><ele>283.0</ele><time>2026-04-09T08:09:28Z</time></trkpt><trkpt lat="45.70123909117394" lon="9.410198958492074"><ele>283.0</ele><time>2026-04-09T08:09:29Z</time></trkpt><trkpt lat="45.70134899795547" lon="9.410320280014238"><ele>283.0</ele><time>2026-04-09T08:09:30Z</time></trkpt><trkpt lat="45.70144370991097" lon="9.410448903149375"><ele>283.0</ele><time>2026-04-09T08:09:31Z</time></trkpt><trkpt lat="45.7015543200935" lon="9.410563385184119"><ele>284.25</ele><time>2026-04-09T08:09:32Z</time></trkpt><trkpt lat="45.701672005701084" lon="9.410666325445094"><ele>285.5</ele><time>2026-04-09T08:09:33Z</time></trkpt><trkpt lat="45.70178913321024" lon="9.410764853219996"><ele>286.75</ele><time>2026-04-09T08:09:34Z</time></trkpt><trkpt lat="45.701916611182874" lon="9.410849967486211"><ele>288.0</ele><time>2026-04-09T08:09:35Z</time></trkpt><trkpt lat="45.70203858633928" lon="9.410942028244309"><ele>288.0</ele><time>2026-04-09T08:09:36Z</time></trkpt><trkpt lat="45.70216480675546" lon="9.41098996913676"><ele>288.0</ele><time>2026-04-09T08:09:37Z</time></trkpt><trkpt lat="45.70230096305827" lon="9.411045830251743"><ele>288.0</ele><time>2026-04-09T08:09:38Z</time></trkpt><trkpt lat="45.70243460745346" lon="9.411102320491704"><ele>288.0</ele><time>2026-04-09T08:09:39Z</time></trkpt><trkpt lat="45.702567278421064" lon="9.411155247325237"><ele>288.0</ele><time>2026-04-09T08:09:40Z</time></trkpt><trkpt lat="45.70269592831492" lon="9.411213563858881"><ele>288.0</ele><time>2026-04-09T08:09:41Z</time></trkpt><trkpt lat="45.70282676393452" lon="9.411270005090504"><ele>288.0</ele><time>2026-04-09T08:09:42Z</time></trkpt><trkpt lat="45.70295771214822" lon="9.411327792036461"><ele>288.0</ele><time>2026-04-09T08:09:43Z</time></trkpt><trkpt lat="45.70308463672535" lon="9.411389941940216"><ele>287.75</ele><time>2026-04-09T08:09:44Z</time></trkpt><trkpt lat="45.70322507142514" lon="9.411438999814802"><ele>287.5</ele><time>2026-04-09T08:09:45Z</time></trkpt><trkpt lat="45.703357997760754" lon="9.411492636470678"><ele>287.25</ele><time>2026-04-09T08:09:46Z</time></trkpt><trkpt lat="45.703474729807326" lon="9.411558063007305"><ele>287.0</ele><time>2026-04-09T08:09:47Z</time></trkpt><trkpt lat="45.70360955931501" lon="9.41157092821536"><ele>287.0</ele><time>2026-04-09T08:09:48Z</time></trkpt><trkpt lat="45.70374233269165" lon="9.411578716377349"><ele>287.0</ele><time>2026-04-09T08:09:49Z</time></trkpt><trkpt lat="45.703877002651794" lon="9.411575553835561"><ele>287.0</ele><time>2026-04-09T08:09:50Z</time></trkpt><trkpt lat="45.70400373963418" lon="9.41156454310005"><ele>287.0</ele><time>2026-04-09T08:09:51Z</time></trkpt><trkpt lat="45.7041347930745" lon="9.411550220525358"><ele>287.0</ele><time>2026-04-09T08:09:52Z</time></trkpt><trkpt lat="45.704257739952" lon="9.411522392725754"><ele>287.0</ele><time>2026-04-09T08:09:53Z</time></trkpt><trkpt lat="45.704368807280204" lon="9.411478571071001"><ele>287.0</ele><time>2026-04-09T08:09:54Z</time></trkpt><trkpt lat="45.70448260667743" lon="9.411432956211167"><ele>287.0</ele><time>2026-04-09T08:09:55Z</time></trkpt><trkpt lat="45.70459092549688" lon="9.411380885055275"><ele>287.6</ele><time>2026-04-09T08:09:56Z</time></trkpt><trkpt lat="45.70467939875127" lon="9.411322133377478"><ele>288.2</ele><time>2026-04-09T08:09:57Z</time></trkpt><trkpt lat="45.704782967473086" lon="9.411255655846936"><ele>288.8</ele><time>2026-04-09T08:09:58Z</time></trkpt><trkpt lat="45.70488209236449" lon="9.411183155538948"><ele>289.4</ele><time>2026-04-09T08:09:59Z</time></trkpt><trkpt lat="45.70499688138696" lon="9.411115630523316"><ele>290.0</ele><time>2026-04-09T08:10:00Z</time></trkpt><trkpt lat="45.70508777571706" lon="9.411042533077822"><ele>290.0</ele><time>2026-04-09T08:10:01Z</time></trkpt><trkpt lat="45.705171716099535" lon="9.41096528471372"><ele>290.0</ele><time>2026-04-09T08:10:02Z</time></trkpt><trkpt lat="45.705251118502666" lon="9.410905985322174"><ele>290.0</ele><time>2026-04-09T08:10:03Z</time></trkpt><trkpt lat="45.70532405474719" lon="9.410845413385823"><ele>290.0</ele><time>2026-04-09T08:10:04Z</time></trkpt><trkpt lat="45.70540574946554" lon="9.410804290805265"><ele>290.0</ele><time>2026-04-09T08:10:05Z</time></trkpt><trkpt lat="45.70547079842115" lon="9.410748478196412"><ele>290.0</ele><time>2026-04-09T08:10:06Z</time></trkpt><trkpt lat="45.70554233808425" lon="9.410687245515415"><ele>290.1666666666667</ele><time>2026-04-09T08:10:07Z</time></trkpt><trkpt lat="45.70561219850182" lon="9.410631209005443"><ele>290.33333333333337</ele><time>2026-04-09T08:10:08Z</time></trkpt><trkpt lat="45.70567729469743" lon="9.41057955100802"><ele>290.5</ele><time>2026-04-09T08:10:09Z</time></trkpt><trkpt lat="45.7057436330234" lon="9.410520419690256"><ele>290.6666666666667</ele><time>2026-04-09T08:10:10Z</time></trkpt><trkpt lat="45.70581681589568" lon="9.410452231025255"><ele>290.8333333333333</ele><time>2026-04-09T08:10:11Z</time></trkpt><trkpt lat="45.7058968190467" lon="9.41038635405021"><ele>291.0</ele><time>2026-04-09T08:10:12Z</time></trkpt><trkpt lat="45.70597448246601" lon="9.410326748857027"><ele>291.0</ele><time>2026-04-09T08:10:13Z</time></trkpt><trkpt lat="45.70604481994302" lon="9.4102766673797"><ele>291.0</ele><time>2026-04-09T08:10:14Z</time></trkpt><trkpt lat="45.706112876245044" lon="9.410231181158032"><ele>291.0</ele><time>2026-04-09T08:10:15Z</time></trkpt><trkpt lat="45.70616881819317" lon="9.410185062590575"><ele>291.0</ele><time>2026-04-09T08:10:16Z</time></trkpt><trkpt lat="45.70622781553786" lon="9.41014732371784"><ele>291.0</ele><time>2026-04-09T08:10:17Z</time></trkpt><trkpt lat="45.70634435280174" lon="9.410142071751464"><ele>291.0</ele><time>2026-04-09T08:10:19Z</time></trkpt><trkpt lat="45.70646293422587" lon="9.410110459108983"><ele>291.8333333333333</ele><time>2026-04-09T08:10:21Z</time></trkpt><trkpt lat="45.7065192908075" lon="9.410039382198253"><ele>292.6666666666667</ele><time>2026-04-09T08:10:22Z</time></trkpt><trkpt lat="45.70657320411105" lon="9.409938299311392"><ele>293.5</ele><time>2026-04-09T08:10:23Z</time></trkpt><trkpt lat="45.70662339069016" lon="9.409834375636049"><ele>294.33333333333337</ele><time>2026-04-09T08:10:24Z</time></trkpt><trkpt lat="45.70668747134529" lon="9.409758682649022"><ele>295.1666666666667</ele><time>2026-04-09T08:10:25Z</time></trkpt><trkpt lat="45.70677197074815" lon="9.409692522823416"><ele>296.0</ele><time>2026-04-09T08:10:26Z</time></trkpt><trkpt lat="45.706863933022404" lon="9.409618534850642"><ele>297.25</ele><time>2026-04-09T08:10:27Z</time></trkpt><trkpt lat="45.70696203748044" lon="9.409543513309425"><ele>298.5</ele><time>2026-04-09T08:10:28Z</time></trkpt><trkpt lat="45.70706107179949" lon="9.409455604557072"><ele>299.75</ele><time>2026-04-09T08:10:29Z</time></trkpt><trkpt lat="45.70716494742361" lon="9.409374270829629"><ele>301.0</ele><time>2026-04-09T08:10:30Z</time></trkpt><trkpt lat="45.707272626509706" lon="9.409288314787894"><ele>301.0</ele><time>2026-04-09T08:10:31Z</time></trkpt><trkpt lat="45.707381608551515" lon="9.40920103975317"><ele>301.0</ele><time>2026-04-09T08:10:32Z</time></trkpt><trkpt lat="45.70749191009116" lon="9.409108472226247"><ele>301.0</ele><time>2026-04-09T08:10:33Z</time></trkpt><trkpt lat="45.707605140595646" lon="9.409017414870464"><ele>301.0</ele><time>2026-04-09T08:10:34Z</time></trkpt><trkpt lat="45.70771375275794" lon="9.408927478788717"><ele>301.5</ele><time>2026-04-09T08:10:35Z</time></trkpt><trkpt lat="45.70783774363352" lon="9.408859579941"><ele>302.0</ele><time>2026-04-09T08:10:36Z</time></trkpt><trkpt lat="45.70794969439306" lon="9.408762100382482"><ele>302.5</ele><time>2026-04-09T08:10:37Z</time></trkpt><trkpt lat="45.70805555484385" lon="9.408672512425552"><ele>303.0</ele><time>2026-04-09T08:10:38Z</time></trkpt><trkpt lat="45.70815868860039" lon="9.408586055874023"><ele>303.5</ele><time>2026-04-09T08:10:39Z</time></trkpt><trkpt lat="45.70826117625548" lon="9.408499125979684"><ele>304.0</ele><time>2026-04-09T08:10:40Z</time></trkpt><trkpt lat="45.708361800360365" lon="9.408410063720362"><ele>304.5</ele><time>2026-04-09T08:10:41Z</time></trkpt><trkpt lat="45.70846354817408" lon="9.408329271051219"><ele>305.0</ele><time>2026-04-09T08:10:42Z</time></trkpt><trkpt lat="45.70856549584469" lon="9.408248090520347"><ele>305.25</ele><time>2026-04-09T08:10:43Z</time></trkpt><trkpt lat="45.70866803476888" lon="9.408166198479389"><ele>305.5</ele><time>2026-04-09T08:10:44Z</time></trkpt><trkpt lat="45.70877469378175" lon="9.408086916981572"><ele>305.75</ele><time>2026-04-09T08:10:45Z</time></trkpt><trkpt lat="45.70887743832941" lon="9.4080071250392"><ele>306.0</ele><time>2026-04-09T08:10:46Z</time></trkpt><trkpt lat="45.70898489974404" lon="9.407923657163757"><ele>306.25</ele><time>2026-04-09T08:10:47Z</time></trkpt><trkpt lat="45.70909177132249" lon="9.407837452530167"><ele>306.5</ele><time>2026-04-09T08:10:48Z</time></trkpt><trkpt lat="45.70919490380245" lon="9.407758980001422"><ele>306.75</ele><time>2026-04-09T08:10:49Z</time></trkpt><trkpt lat="45.709296040054404" lon="9.407676582644942"><ele>307.0</ele><time>2026-04-09T08:10:50Z</time></trkpt><trkpt lat="45.709387692498126" lon="9.407596430972475"><ele>307.6</ele><time>2026-04-09T08:10:51Z</time></trkpt><trkpt lat="45.709479780613655" lon="9.407524405259188"><ele>308.2</ele><time>2026-04-09T08:10:52Z</time></trkpt><trkpt lat="45.709571143316175" lon="9.407454499906855"><ele>308.8</ele><time>2026-04-09T08:10:53Z</time></trkpt><trkpt lat="45.7096603347714" lon="9.40737717100662"><ele>309.4</ele><time>2026-04-09T08:10:54Z</time></trkpt><trkpt lat="45.70975244857387" lon="9.40730381045151"><ele>310.0</ele><time>2026-04-09T08:10:55Z</time></trkpt><trkpt lat="45.709841510659636" lon="9.407229717122352"><ele>310.2</ele><time>2026-04-09T08:10:56Z</time></trkpt><trkpt lat="45.70993205026195" lon="9.40715822238807"><ele>310.4</ele><time>2026-04-09T08:10:57Z</time></trkpt><trkpt lat="45.71002413814356" lon="9.407087472172368"><ele>310.6</ele><time>2026-04-09T08:10:58Z</time></trkpt><trkpt lat="45.710113040834706" lon="9.407012418716908"><ele>310.8</ele><time>2026-04-09T08:10:59Z</time></trkpt><trkpt lat="45.710202874384905" lon="9.406942864250155"><ele>311.0</ele><time>2026-04-09T08:11:00Z</time></trkpt><trkpt lat="45.710286057906615" lon="9.406867628403061"><ele>310.6</ele><time>2026-04-09T08:11:01Z</time></trkpt><trkpt lat="45.71037045553453" lon="9.406795740748871"><ele>310.20000000000005</ele><time>2026-04-09T08:11:02Z</time></trkpt><trkpt lat="45.71045303654685" lon="9.406726827529647"><ele>309.79999999999995</ele><time>2026-04-09T08:11:03Z</time></trkpt><trkpt lat="45.71053989809865" lon="9.406668623435849"><ele>309.4</ele><time>2026-04-09T08:11:04Z</time></trkpt><trkpt lat="45.71062605137106" lon="9.406610797122543"><ele>309.0</ele><time>2026-04-09T08:11:05Z</time></trkpt><trkpt lat="45.710711651285735" lon="9.40656755831672"><ele>309.0</ele><time>2026-04-09T08:11:06Z</time></trkpt><trkpt lat="45.710798939500194" lon="9.406519205352549"><ele>309.0</ele><time>2026-04-09T08:11:07Z</time></trkpt><trkpt lat="45.710882106962735" lon="9.406492453665798"><ele>309.0</ele><time>2026-04-09T08:11:08Z</time></trkpt><trkpt lat="45.710970234438875" lon="9.406482420486276"><ele>309.0</ele><time>2026-04-09T08:11:09Z</time></trkpt><trkpt lat="45.71105614610347" lon="9.406491862383234"><ele>309.0</ele><time>2026-04-09T08:11:10Z</time></trkpt><trkpt lat="45.71114310533311" lon="9.406501025277057"><ele>309.0</ele><time>2026-04-09T08:11:11Z</time></trkpt><trkpt lat="45.71123625963956" lon="9.40648064957066"><ele>308.8</ele><time>2026-04-09T08:11:12Z</time></trkpt><trkpt lat="45.711328992548346" lon="9.406421381218495"><ele>308.59999999999997</ele><time>2026-04-09T08:11:13Z</time></trkpt><trkpt lat="45.711411668973774" lon="9.406350871313242"><ele>308.4</ele><time>2026-04-09T08:11:14Z</time></trkpt><trkpt lat="45.71150596421032" lon="9.40628454448573"><ele>308.2</ele><time>2026-04-09T08:11:15Z</time></trkpt><trkpt lat="45.71160417425717" lon="9.406236511940191"><ele>308.0</ele><time>2026-04-09T08:11:16Z</time></trkpt><trkpt lat="45.7117031612161" lon="9.406201190102806"><ele>307.0</ele><time>2026-04-09T08:11:17Z</time></trkpt><trkpt lat="45.71181194089336" lon="9.406178590889532"><ele>306.0</ele><time>2026-04-09T08:11:18Z</time></trkpt><trkpt lat="45.71192464996951" lon="9.406173011090834"><ele>305.0</ele><time>2026-04-09T08:11:19Z</time></trkpt><trkpt lat="45.712036295052236" lon="9.406182489256745"><ele>304.0</ele><time>2026-04-09T08:11:20Z</time></trkpt><trkpt lat="45.712158201501204" lon="9.4062039045262"><ele>303.25</ele><time>2026-04-09T08:11:21Z</time></trkpt><trkpt lat="45.71227541899739" lon="9.40622866128609"><ele>302.5</ele><time>2026-04-09T08:11:22Z</time></trkpt><trkpt lat="45.7124123675015" lon="9.406261763667567"><ele>301.75</ele><time>2026-04-09T08:11:23Z</time></trkpt><trkpt lat="45.71254512494228" lon="9.406305054619713"><ele>301.0</ele><time>2026-04-09T08:11:24Z</time></trkpt><trkpt lat="45.712679007211506" lon="9.406358760550345"><ele>301.5</ele><time>2026-04-09T08:11:25Z</time></trkpt><trkpt lat="45.71281523243583" lon="9.406416964331118"><ele>302.0</ele><time>2026-04-09T08:11:26Z</time></trkpt><trkpt lat="45.71295769225402" lon="9.406484073368254"><ele>302.5</ele><time>2026-04-09T08:11:27Z</time></trkpt><trkpt lat="45.713097333379125" lon="9.406551341431138"><ele>303.0</ele><time>2026-04-09T08:11:28Z</time></trkpt><trkpt lat="45.71323641668687" lon="9.406623854550869"><ele>303.0</ele><time>2026-04-09T08:11:29Z</time></trkpt><trkpt lat="45.71337401835997" lon="9.406688784674703"><ele>303.0</ele><time>2026-04-09T08:11:30Z</time></trkpt><trkpt lat="45.7135077677639" lon="9.406759015197531"><ele>303.0</ele><time>2026-04-09T08:11:31Z</time></trkpt><trkpt lat="45.7136467708381" lon="9.406832840038918"><ele>303.0</ele><time>2026-04-09T08:11:32Z</time></trkpt><trkpt lat="45.71378597899859" lon="9.406901551565468"><ele>302.0</ele><time>2026-04-09T08:11:33Z</time></trkpt><trkpt lat="45.71392866638076" lon="9.406974659694221"><ele>301.0</ele><time>2026-04-09T08:11:34Z</time></trkpt><trkpt lat="45.71407347807137" lon="9.407046933598178"><ele>300.0</ele><time>2026-04-09T08:11:35Z</time></trkpt><trkpt lat="45.71421251372429" lon="9.407119841556481"><ele>300.25</ele><time>2026-04-09T08:11:36Z</time></trkpt><trkpt lat="45.71435247371616" lon="9.407194244777372"><ele>300.5</ele><time>2026-04-09T08:11:37Z</time></trkpt><trkpt lat="45.71448250957473" lon="9.407270022670218"><ele>300.75</ele><time>2026-04-09T08:11:38Z</time></trkpt><trkpt lat="45.71462797649325" lon="9.40734190903906"><ele>301.0</ele><time>2026-04-09T08:11:39Z</time></trkpt><trkpt lat="45.714762828337214" lon="9.407414615813165"><ele>301.0</ele><time>2026-04-09T08:11:40Z</time></trkpt><trkpt lat="45.71490625529221" lon="9.407484285991142"><ele>301.0</ele><time>2026-04-09T08:11:41Z</time></trkpt><trkpt lat="45.71504506585521" lon="9.407550936926398"><ele>301.0</ele><time>2026-04-09T08:11:42Z</time></trkpt><trkpt lat="45.715186885181595" lon="9.40760665327542"><ele>301.0</ele><time>2026-04-09T08:11:43Z</time></trkpt><trkpt lat="45.71532520829948" lon="9.407660758258304"><ele>300.75</ele><time>2026-04-09T08:11:44Z</time></trkpt><trkpt lat="45.71545592136805" lon="9.407711268740908"><ele>300.5</ele><time>2026-04-09T08:11:45Z</time></trkpt><trkpt lat="45.71558986831261" lon="9.407753485996952"><ele>300.25</ele><time>2026-04-09T08:11:46Z</time></trkpt><trkpt lat="45.71572141478223" lon="9.407791775110892"><ele>300.0</ele><time>2026-04-09T08:11:47Z</time></trkpt><trkpt lat="45.71585218487611" lon="9.407831563478876"><ele>300.0</ele><time>2026-04-09T08:11:48Z</time></trkpt><trkpt lat="45.71598146963463" lon="9.40787079873621"><ele>300.0</ele><time>2026-04-09T08:11:49Z</time></trkpt><trkpt lat="45.716106543021034" lon="9.407914853808435"><ele>300.0</ele><time>2026-04-09T08:11:50Z</time></trkpt><trkpt lat="45.7162207149788" lon="9.40796298881937"><ele>300.0</ele><time>2026-04-09T08:11:51Z</time></trkpt><trkpt lat="45.716343347276215" lon="9.408006417756253"><ele>300.25</ele><time>2026-04-09T08:11:52Z</time></trkpt><trkpt lat="45.7164573951697" lon="9.408046707662375"><ele>300.5</ele><time>2026-04-09T08:11:53Z</time></trkpt><trkpt lat="45.71656798852918" lon="9.40808914134773"><ele>300.75</ele><time>2026-04-09T08:11:54Z</time></trkpt><trkpt lat="45.71667601086912" lon="9.408123794184856"><ele>301.0</ele><time>2026-04-09T08:11:55Z</time></trkpt><trkpt lat="45.71679379671099" lon="9.408152097569412"><ele>301.0</ele><time>2026-04-09T08:11:56Z</time></trkpt><trkpt lat="45.71688807014531" lon="9.4081853602739"><ele>301.0</ele><time>2026-04-09T08:11:57Z</time></trkpt><trkpt lat="45.71698936607044" lon="9.408214361417388"><ele>301.0</ele><time>2026-04-09T08:11:58Z</time></trkpt><trkpt lat="45.717080334555696" lon="9.408242783097165"><ele>301.0</ele><time>2026-04-09T08:11:59Z</time></trkpt><trkpt lat="45.71714473668568" lon="9.408275901148881"><ele>301.0</ele><time>2026-04-09T08:12:00Z</time></trkpt><trkpt lat="45.717223661355916" lon="9.40830558987216"><ele>301.0</ele><time>2026-04-09T08:12:01Z</time></trkpt><trkpt lat="45.71729152240781" lon="9.408346594143037"><ele>300.2</ele><time>2026-04-09T08:12:02Z</time></trkpt><trkpt lat="45.71738033555801" lon="9.408404225478865"><ele>299.40000000000003</ele><time>2026-04-09T08:12:03Z</time></trkpt><trkpt lat="45.71747841678062" lon="9.408475599983712"><ele>298.6</ele><time>2026-04-09T08:12:04Z</time></trkpt><trkpt lat="45.717569801116355" lon="9.408562509522271"><ele>297.8</ele><time>2026-04-09T08:12:05Z</time></trkpt><trkpt lat="45.717640729757576" lon="9.408657462409003"><ele>297.0</ele><time>2026-04-09T08:12:06Z</time></trkpt><trkpt lat="45.71773019271663" lon="9.408759672269596"><ele>297.2</ele><time>2026-04-09T08:12:07Z</time></trkpt><trkpt lat="45.717824947978016" lon="9.40886213520589"><ele>297.4</ele><time>2026-04-09T08:12:08Z</time></trkpt><trkpt lat="45.71791356750277" lon="9.408961825212259"><ele>297.6</ele><time>2026-04-09T08:12:09Z</time></trkpt><trkpt lat="45.717982722763956" lon="9.409047559794926"><ele>297.8</ele><time>2026-04-09T08:12:10Z</time></trkpt><trkpt lat="45.71807186907462" lon="9.409149043235242"><ele>298.0</ele><time>2026-04-09T08:12:11Z</time></trkpt><trkpt lat="45.718181714050004" lon="9.40926178600015"><ele>298.0</ele><time>2026-04-09T08:12:12Z</time></trkpt><trkpt lat="45.71827676348088" lon="9.409368317762658"><ele>298.0</ele><time>2026-04-09T08:12:13Z</time></trkpt><trkpt lat="45.71838215813262" lon="9.409480228462561"><ele>298.0</ele><time>2026-04-09T08:12:14Z</time></trkpt><trkpt lat="45.71848622412349" lon="9.409587201785111"><ele>298.0</ele><time>2026-04-09T08:12:15Z</time></trkpt><trkpt lat="45.71859504211647" lon="9.409704769401715"><ele>298.25</ele><time>2026-04-09T08:12:16Z</time></trkpt><trkpt lat="45.718706106366426" lon="9.409820569426385"><ele>298.5</ele><time>2026-04-09T08:12:17Z</time></trkpt><trkpt lat="45.71880661131804" lon="9.409936227910418"><ele>298.75</ele><time>2026-04-09T08:12:18Z</time></trkpt><trkpt lat="45.71891933021642" lon="9.410035788444986"><ele>299.0</ele><time>2026-04-09T08:12:19Z</time></trkpt><trkpt lat="45.7190172888249" lon="9.410137515732437"><ele>299.0</ele><time>2026-04-09T08:12:20Z</time></trkpt><trkpt lat="45.71911580987443" lon="9.410241119515954"><ele>299.0</ele><time>2026-04-09T08:12:21Z</time></trkpt><trkpt lat="45.71922223044464" lon="9.410342963814214"><ele>299.0</ele><time>2026-04-09T08:12:22Z</time></trkpt><trkpt lat="45.71932423409257" lon="9.410441968158333"><ele>299.0</ele><time>2026-04-09T08:12:23Z</time></trkpt><trkpt lat="45.71942424099122" lon="9.410536724823608"><ele>298.4</ele><time>2026-04-09T08:12:24Z</time></trkpt><trkpt lat="45.71951875571183" lon="9.41062798512971"><ele>297.79999999999995</ele><time>2026-04-09T08:12:25Z</time></trkpt><trkpt lat="45.71959977381549" lon="9.41071811001191"><ele>297.20000000000005</ele><time>2026-04-09T08:12:26Z</time></trkpt><trkpt lat="45.71968117590206" lon="9.410797329366533"><ele>296.6</ele><time>2026-04-09T08:12:27Z</time></trkpt><trkpt lat="45.71975746802726" lon="9.41088309350715"><ele>296.0</ele><time>2026-04-09T08:12:28Z</time></trkpt><trkpt lat="45.719838186869424" lon="9.410957859520442"><ele>296.0</ele><time>2026-04-09T08:12:29Z</time></trkpt><trkpt lat="45.71990805200468" lon="9.41102769163216"><ele>296.0</ele><time>2026-04-09T08:12:30Z</time></trkpt><trkpt lat="45.71999609266066" lon="9.41110412954596"><ele>296.0</ele><time>2026-04-09T08:12:31Z</time></trkpt><trkpt lat="45.72006793912865" lon="9.411188905265453"><ele>296.0</ele><time>2026-04-09T08:12:32Z</time></trkpt><trkpt lat="45.720145539116075" lon="9.411267048220049"><ele>296.0</ele><time>2026-04-09T08:12:33Z</time></trkpt><trkpt lat="45.720212871913276" lon="9.411338832573222"><ele>296.0</ele><time>2026-04-09T08:12:34Z</time></trkpt><trkpt lat="45.72028439584326" lon="9.411416409804904"><ele>296.0</ele><time>2026-04-09T08:12:35Z</time></trkpt><trkpt lat="45.72036415986522" lon="9.411497325629075"><ele>296.0</ele><time>2026-04-09T08:12:36Z</time></trkpt><trkpt lat="45.72043037106731" lon="9.41156671671476"><ele>296.0</ele><time>2026-04-09T08:12:37Z</time></trkpt><trkpt lat="45.72048960783173" lon="9.411631556962483"><ele>296.0</ele><time>2026-04-09T08:12:38Z</time></trkpt><trkpt lat="45.72055719597222" lon="9.411691767426106"><ele>296.0</ele><time>2026-04-09T08:12:39Z</time></trkpt><trkpt lat="45.72061232455057" lon="9.41175861710654"><ele>296.0</ele><time>2026-04-09T08:12:40Z</time></trkpt><trkpt lat="45.72067851017536" lon="9.411818949934103"><ele>296.0</ele><time>2026-04-09T08:12:41Z</time></trkpt><trkpt lat="45.720744813859326" lon="9.411879188060816"><ele>296.0</ele><time>2026-04-09T08:12:42Z</time></trkpt><trkpt lat="45.72080537237335" lon="9.411951323415746"><ele>296.0</ele><time>2026-04-09T08:12:43Z</time></trkpt><trkpt lat="45.720868230079844" lon="9.41202822777013"><ele>296.0</ele><time>2026-04-09T08:12:44Z</time></trkpt><trkpt lat="45.720927834038314" lon="9.41212277249693"><ele>296.0</ele><time>2026-04-09T08:12:45Z</time></trkpt><trkpt lat="45.72100032938683" lon="9.412182854535244"><ele>295.83333333333337</ele><time>2026-04-09T08:12:46Z</time></trkpt><trkpt lat="45.72105899460174" lon="9.412234284178155"><ele>295.6666666666667</ele><time>2026-04-09T08:12:47Z</time></trkpt><trkpt lat="45.72112439318989" lon="9.412297458975385"><ele>295.5</ele><time>2026-04-09T08:12:48Z</time></trkpt><trkpt lat="45.72118365334344" lon="9.41235925033525"><ele>295.3333333333333</ele><time>2026-04-09T08:12:49Z</time></trkpt><trkpt lat="45.72123834572584" lon="9.412422278462486"><ele>295.16666666666663</ele><time>2026-04-09T08:12:50Z</time></trkpt><trkpt lat="45.72134950129358" lon="9.41251727758601"><ele>295.0</ele><time>2026-04-09T08:12:52Z</time></trkpt><trkpt lat="45.72142721099752" lon="9.412599646042153"><ele>294.16666666666663</ele><time>2026-04-09T08:12:54Z</time></trkpt><trkpt lat="45.72150422751028" lon="9.412690444868012"><ele>293.3333333333333</ele><time>2026-04-09T08:12:56Z</time></trkpt><trkpt lat="45.72157009329526" lon="9.412785942118173"><ele>292.5</ele><time>2026-04-09T08:12:58Z</time></trkpt><trkpt lat="45.72160559499574" lon="9.412885487626815"><ele>291.6666666666667</ele><time>2026-04-09T08:13:00Z</time></trkpt><trkpt lat="45.72162373493613" lon="9.412994720858057"><ele>290.83333333333337</ele><time>2026-04-09T08:13:03Z</time></trkpt><trkpt lat="45.72166008109386" lon="9.413086781666339"><ele>290.0</ele><time>2026-04-09T08:13:05Z</time></trkpt><trkpt lat="45.72172042769561" lon="9.413150502935459"><ele>290.0</ele><time>2026-04-09T08:13:08Z</time></trkpt><trkpt lat="45.72180338181421" lon="9.4131761344884"><ele>290.0</ele><time>2026-04-09T08:13:10Z</time></trkpt><trkpt lat="45.721909323825656" lon="9.413209466554648"><ele>290.0</ele><time>2026-04-09T08:13:12Z</time></trkpt><trkpt lat="45.72200493241447" lon="9.413254027177405"><ele>290.0</ele><time>2026-04-09T08:13:14Z</time></trkpt><trkpt lat="45.72207023187835" lon="9.413305297824392"><ele>290.0</ele><time>2026-04-09T08:13:16Z</time></trkpt><trkpt lat="45.72214779156693" lon="9.413387914965416"><ele>289.6</ele><time>2026-04-09T08:13:18Z</time></trkpt><trkpt lat="45.722201623084864" lon="9.413450866270011"><ele>289.2</ele><time>2026-04-09T08:13:19Z</time></trkpt><trkpt lat="45.722300106288905" lon="9.413560228233901"><ele>288.8</ele><time>2026-04-09T08:13:21Z</time></trkpt><trkpt lat="45.72239863855383" lon="9.413654459560417"><ele>288.4</ele><time>2026-04-09T08:13:23Z</time></trkpt><trkpt lat="45.72245177165299" lon="9.413708667083736"><ele>288.0</ele><time>2026-04-09T08:13:24Z</time></trkpt><trkpt lat="45.722510568922374" lon="9.413767520799922"><ele>288.0</ele><time>2026-04-09T08:13:25Z</time></trkpt><trkpt lat="45.72257039518063" lon="9.413830707127607"><ele>288.0</ele><time>2026-04-09T08:13:26Z</time></trkpt><trkpt lat="45.72263038524361" lon="9.413892341930062"><ele>288.0</ele><time>2026-04-09T08:13:27Z</time></trkpt><trkpt lat="45.722683713424146" lon="9.413950540496504"><ele>288.0</ele><time>2026-04-09T08:13:28Z</time></trkpt><trkpt lat="45.72273641518318" lon="9.41400152433779"><ele>288.0</ele><time>2026-04-09T08:13:29Z</time></trkpt><trkpt lat="45.72282542814796" lon="9.414077936938535"><ele>288.0</ele><time>2026-04-09T08:13:31Z</time></trkpt><trkpt lat="45.72289483079362" lon="9.414157193022513"><ele>287.6666666666667</ele><time>2026-04-09T08:13:33Z</time></trkpt><trkpt lat="45.72297740847757" lon="9.41422761742208"><ele>287.3333333333333</ele><time>2026-04-09T08:13:35Z</time></trkpt><trkpt lat="45.72306186425486" lon="9.414349405548139"><ele>287.0</ele><time>2026-04-09T08:13:37Z</time></trkpt><trkpt lat="45.72312403065648" lon="9.414408348775492"><ele>286.66666666666663</ele><time>2026-04-09T08:13:38Z</time></trkpt><trkpt lat="45.72318672119242" lon="9.4144664579393"><ele>286.3333333333333</ele><time>2026-04-09T08:13:39Z</time></trkpt><trkpt lat="45.72324274514953" lon="9.41451705712939"><ele>286.0</ele><time>2026-04-09T08:13:40Z</time></trkpt><trkpt lat="45.72331551727651" lon="9.414592557606577"><ele>286.16666666666663</ele><time>2026-04-09T08:13:42Z</time></trkpt><trkpt lat="45.72336810026121" lon="9.414657352069359"><ele>286.3333333333333</ele><time>2026-04-09T08:13:44Z</time></trkpt><trkpt lat="45.723438471388185" lon="9.414726307682576"><ele>286.5</ele><time>2026-04-09T08:13:47Z</time></trkpt><trkpt lat="45.72348869246128" lon="9.414781918170272"><ele>286.6666666666667</ele><time>2026-04-09T08:13:49Z</time></trkpt><trkpt lat="45.72353546990671" lon="9.414846357892115"><ele>286.83333333333337</ele><time>2026-04-09T08:13:52Z</time></trkpt><trkpt lat="45.72359776903081" lon="9.414920203038744"><ele>287.0</ele><time>2026-04-09T08:13:55Z</time></trkpt><trkpt lat="45.72366483831523" lon="9.414996901417767"><ele>286.5</ele><time>2026-04-09T08:13:58Z</time></trkpt><trkpt lat="45.72373019481433" lon="9.41506371093676"><ele>286.0</ele><time>2026-04-09T08:14:00Z</time></trkpt><trkpt lat="45.723805509737105" lon="9.415152014316757"><ele>285.5</ele><time>2026-04-09T08:14:02Z</time></trkpt><trkpt lat="45.723866159043396" lon="9.41521588845924"><ele>285.0</ele><time>2026-04-09T08:14:03Z</time></trkpt><trkpt lat="45.72392579823244" lon="9.415288435326326"><ele>284.5</ele><time>2026-04-09T08:14:04Z</time></trkpt><trkpt lat="45.72398563449478" lon="9.415336275446165"><ele>284.0</ele><time>2026-04-09T08:14:05Z</time></trkpt><trkpt lat="45.72404598136886" lon="9.415400727873042"><ele>284.0</ele><time>2026-04-09T08:14:06Z</time></trkpt><trkpt lat="45.7240961742808" lon="9.415458885380003"><ele>284.0</ele><time>2026-04-09T08:14:07Z</time></trkpt><trkpt lat="45.7242030388521" lon="9.415570680068669"><ele>284.0</ele><time>2026-04-09T08:14:09Z</time></trkpt><trkpt lat="45.72425992975618" lon="9.41562534244345"><ele>284.0</ele><time>2026-04-09T08:14:10Z</time></trkpt><trkpt lat="45.72436894352126" lon="9.415706283550414"><ele>284.0</ele><time>2026-04-09T08:14:12Z</time></trkpt><trkpt lat="45.724464609159455" lon="9.41579275722722"><ele>284.0</ele><time>2026-04-09T08:14:14Z</time></trkpt><trkpt lat="45.7245623970164" lon="9.415877203053569"><ele>284.0</ele><time>2026-04-09T08:14:16Z</time></trkpt><trkpt lat="45.724633148995096" lon="9.415940598461189"><ele>284.0</ele><time>2026-04-09T08:14:18Z</time></trkpt><trkpt lat="45.724694712628725" lon="9.415969505067139"><ele>284.0</ele><time>2026-04-09T08:14:20Z</time></trkpt><trkpt lat="45.72476204700717" lon="9.416007051904382"><ele>284.0</ele><time>2026-04-09T08:14:22Z</time></trkpt><trkpt lat="45.72491034608921" lon="9.416003405943266"><ele>284.0</ele><time>2026-04-09T08:14:24Z</time></trkpt><trkpt lat="45.724980202453764" lon="9.415964232649038"><ele>284.0</ele><time>2026-04-09T08:14:25Z</time></trkpt><trkpt lat="45.7250618613699" lon="9.41591098366344"><ele>284.0</ele><time>2026-04-09T08:14:26Z</time></trkpt><trkpt lat="45.725155427086726" lon="9.415864909354493"><ele>284.0</ele><time>2026-04-09T08:14:27Z</time></trkpt><trkpt lat="45.72525209006966" lon="9.415818860073573"><ele>284.0</ele><time>2026-04-09T08:14:28Z</time></trkpt><trkpt lat="45.72534987893771" lon="9.415773689471028"><ele>283.0</ele><time>2026-04-09T08:14:29Z</time></trkpt><trkpt lat="45.7254603067216" lon="9.415728622741515"><ele>282.0</ele><time>2026-04-09T08:14:30Z</time></trkpt><trkpt lat="45.72557330146616" lon="9.415686349443982"><ele>281.0</ele><time>2026-04-09T08:14:31Z</time></trkpt><trkpt lat="45.725680605737054" lon="9.415641358070806"><ele>280.0</ele><time>2026-04-09T08:14:32Z</time></trkpt><trkpt lat="45.725792393567254" lon="9.415610941076986"><ele>280.0</ele><time>2026-04-09T08:14:33Z</time></trkpt><trkpt lat="45.725907495824636" lon="9.415581883144826"><ele>280.0</ele><time>2026-04-09T08:14:34Z</time></trkpt><trkpt lat="45.72601847935561" lon="9.415555057776183"><ele>280.0</ele><time>2026-04-09T08:14:35Z</time></trkpt><trkpt lat="45.72614205111361" lon="9.415541497607663"><ele>280.0</ele><time>2026-04-09T08:14:36Z</time></trkpt><trkpt lat="45.72627576021612" lon="9.415531543811563"><ele>280.25</ele><time>2026-04-09T08:14:37Z</time></trkpt><trkpt lat="45.7264105841624" lon="9.415529293866703"><ele>280.5</ele><time>2026-04-09T08:14:38Z</time></trkpt><trkpt lat="45.72653683761362" lon="9.415532164008676"><ele>280.75</ele><time>2026-04-09T08:14:39Z</time></trkpt><trkpt lat="45.72666739460663" lon="9.415540599407375"><ele>281.0</ele><time>2026-04-09T08:14:40Z</time></trkpt><trkpt lat="45.726796962188885" lon="9.415543589050156"><ele>279.0</ele><time>2026-04-09T08:14:41Z</time></trkpt><trkpt lat="45.726927454535854" lon="9.415560431738626"><ele>277.0</ele><time>2026-04-09T08:14:42Z</time></trkpt><trkpt lat="45.72706293176977" lon="9.41559542519446"><ele>275.0</ele><time>2026-04-09T08:14:43Z</time></trkpt><trkpt lat="45.72720666044751" lon="9.415636810070222"><ele>273.0</ele><time>2026-04-09T08:14:44Z</time></trkpt><trkpt lat="45.727343676528385" lon="9.415688978530973"><ele>273.0</ele><time>2026-04-09T08:14:45Z</time></trkpt><trkpt lat="45.72748793337095" lon="9.41574815522325"><ele>273.0</ele><time>2026-04-09T08:14:46Z</time></trkpt><trkpt lat="45.727623163316395" lon="9.41580752840569"><ele>273.0</ele><time>2026-04-09T08:14:47Z</time></trkpt><trkpt lat="45.72775570954764" lon="9.415873677208864"><ele>273.0</ele><time>2026-04-09T08:14:48Z</time></trkpt><trkpt lat="45.72788643145946" lon="9.415957719869164"><ele>271.0</ele><time>2026-04-09T08:14:49Z</time></trkpt><trkpt lat="45.728017059584396" lon="9.416052500345906"><ele>269.0</ele><time>2026-04-09T08:14:50Z</time></trkpt><trkpt lat="45.72815276167527" lon="9.416158094067272"><ele>267.0</ele><time>2026-04-09T08:14:51Z</time></trkpt><trkpt lat="45.72828415978991" lon="9.41628129398244"><ele>265.6666666666667</ele><time>2026-04-09T08:14:52Z</time></trkpt><trkpt lat="45.72841277721651" lon="9.416410987552426"><ele>264.33333333333337</ele><time>2026-04-09T08:14:53Z</time></trkpt><trkpt lat="45.72853001077324" lon="9.416545835267133"><ele>263.0</ele><time>2026-04-09T08:14:54Z</time></trkpt><trkpt lat="45.728644337903944" lon="9.416692289835751"><ele>263.0</ele><time>2026-04-09T08:14:55Z</time></trkpt><trkpt lat="45.728754664962764" lon="9.416856436814548"><ele>263.0</ele><time>2026-04-09T08:14:56Z</time></trkpt><trkpt lat="45.72886161304053" lon="9.417032261739283"><ele>263.0</ele><time>2026-04-09T08:14:57Z</time></trkpt><trkpt lat="45.72895363703742" lon="9.417206067073733"><ele>264.0</ele><time>2026-04-09T08:14:58Z</time></trkpt><trkpt lat="45.729080278854674" lon="9.417361700230936"><ele>265.0</ele><time>2026-04-09T08:14:59Z</time></trkpt><trkpt lat="45.72919595703247" lon="9.41752573457206"><ele>266.0</ele><time>2026-04-09T08:15:00Z</time></trkpt><trkpt lat="45.72931721486899" lon="9.417679648408537"><ele>265.0</ele><time>2026-04-09T08:15:01Z</time></trkpt><trkpt lat="45.72945421487157" lon="9.4178207768098"><ele>264.0</ele><time>2026-04-09T08:15:02Z</time></trkpt><trkpt lat="45.72960027868596" lon="9.417954314060962"><ele>263.0</ele><time>2026-04-09T08:15:03Z</time></trkpt><trkpt lat="45.72974300850579" lon="9.418073774203409"><ele>263.0</ele><time>2026-04-09T08:15:04Z</time></trkpt><trkpt lat="45.72987636417674" lon="9.418195263135896"><ele>263.0</ele><time>2026-04-09T08:15:05Z</time></trkpt><trkpt lat="45.73001686086056" lon="9.418321384732769"><ele>263.0</ele><time>2026-04-09T08:15:06Z</time></trkpt><trkpt lat="45.730148141159596" lon="9.418445991443399"><ele>262.33333333333337</ele><time>2026-04-09T08:15:07Z</time></trkpt><trkpt lat="45.73027041174789" lon="9.418571157424743"><ele>261.6666666666667</ele><time>2026-04-09T08:15:08Z</time></trkpt><trkpt lat="45.73040005869809" lon="9.41869589254813"><ele>261.0</ele><time>2026-04-09T08:15:09Z</time></trkpt><trkpt lat="45.73051636162806" lon="9.418826721834535"><ele>261.0</ele><time>2026-04-09T08:15:10Z</time></trkpt><trkpt lat="45.730654368008466" lon="9.418960374140482"><ele>261.0</ele><time>2026-04-09T08:15:11Z</time></trkpt><trkpt lat="45.7307718753558" lon="9.419084168059687"><ele>261.0</ele><time>2026-04-09T08:15:12Z</time></trkpt><trkpt lat="45.73090330335474" lon="9.41921406255434"><ele>261.0</ele><time>2026-04-09T08:15:13Z</time></trkpt><trkpt lat="45.73102396496657" lon="9.419345363416873"><ele>261.0</ele><time>2026-04-09T08:15:14Z</time></trkpt><trkpt lat="45.731141323040895" lon="9.419474929750482"><ele>261.0</ele><time>2026-04-09T08:15:15Z</time></trkpt><trkpt lat="45.73125204773229" lon="9.419602177368564"><ele>261.0</ele><time>2026-04-09T08:15:16Z</time></trkpt><trkpt lat="45.731371099461484" lon="9.419725190279985"><ele>260.5</ele><time>2026-04-09T08:15:17Z</time></trkpt><trkpt lat="45.73148953637345" lon="9.419816290003045"><ele>260.0</ele><time>2026-04-09T08:15:18Z</time></trkpt><trkpt lat="45.73159818729774" lon="9.419899027022142"><ele>259.5</ele><time>2026-04-09T08:15:19Z</time></trkpt><trkpt lat="45.731732448721935" lon="9.419934042091187"><ele>259.0</ele><time>2026-04-09T08:15:20Z</time></trkpt><trkpt lat="45.731847442038" lon="9.419967115321638"><ele>258.0</ele><time>2026-04-09T08:15:21Z</time></trkpt><trkpt lat="45.73196776308459" lon="9.419968292904253"><ele>257.0</ele><time>2026-04-09T08:15:22Z</time></trkpt><trkpt lat="45.73207599550606" lon="9.419950617336491"><ele>255.99999999999997</ele><time>2026-04-09T08:15:23Z</time></trkpt><trkpt lat="45.732172137225255" lon="9.419905703617257"><ele>255.0</ele><time>2026-04-09T08:15:24Z</time></trkpt><trkpt lat="45.732265224520425" lon="9.419832304191994"><ele>254.0</ele><time>2026-04-09T08:15:25Z</time></trkpt><trkpt lat="45.73234527742544" lon="9.419736934042433"><ele>253.79999999999998</ele><time>2026-04-09T08:15:26Z</time></trkpt><trkpt lat="45.732422679292064" lon="9.419625865530945"><ele>253.59999999999997</ele><time>2026-04-09T08:15:27Z</time></trkpt><trkpt lat="45.7324949965922" lon="9.419496181343321"><ele>253.4</ele><time>2026-04-09T08:15:28Z</time></trkpt><trkpt lat="45.73255234187412" lon="9.419358105913272"><ele>253.2</ele><time>2026-04-09T08:15:29Z</time></trkpt><trkpt lat="45.732600936131924" lon="9.419216335330146"><ele>253.0</ele><time>2026-04-09T08:15:30Z</time></trkpt><trkpt lat="45.73264169284393" lon="9.419053080150565"><ele>253.0</ele><time>2026-04-09T08:15:31Z</time></trkpt><trkpt lat="45.7326757428272" lon="9.418889757574316"><ele>253.0</ele><time>2026-04-09T08:15:32Z</time></trkpt><trkpt lat="45.73270006555354" lon="9.418697939491107"><ele>253.0</ele><time>2026-04-09T08:15:33Z</time></trkpt><trkpt lat="45.73272097055581" lon="9.418509980337907"><ele>253.0</ele><time>2026-04-09T08:15:34Z</time></trkpt><trkpt lat="45.732734561569075" lon="9.418317554307604"><ele>253.0</ele><time>2026-04-09T08:15:35Z</time></trkpt><trkpt lat="45.73274220420478" lon="9.41812027115856"><ele>253.0</ele><time>2026-04-09T08:15:36Z</time></trkpt><trkpt lat="45.7327677304525" lon="9.417945001255177"><ele>253.0</ele><time>2026-04-09T08:15:37Z</time></trkpt><trkpt lat="45.732812059231925" lon="9.417778539170484"><ele>253.0</ele><time>2026-04-09T08:15:38Z</time></trkpt><trkpt lat="45.73287267134219" lon="9.417623743291411"><ele>250.75</ele><time>2026-04-09T08:15:39Z</time></trkpt><trkpt lat="45.732947326765405" lon="9.417489442480694"><ele>248.5</ele><time>2026-04-09T08:15:40Z</time></trkpt><trkpt lat="45.733030098939416" lon="9.417375698532469"><ele>246.25</ele><time>2026-04-09T08:15:41Z</time></trkpt><trkpt lat="45.73312965730473" lon="9.417280590592842"><ele>244.0</ele><time>2026-04-09T08:15:42Z</time></trkpt><trkpt lat="45.73323504153654" lon="9.4172105062134"><ele>241.5</ele><time>2026-04-09T08:15:43Z</time></trkpt><trkpt lat="45.73335145592306" lon="9.417149175665072"><ele>239.0</ele><time>2026-04-09T08:15:44Z</time></trkpt><trkpt lat="45.73346813066611" lon="9.41711223902786"><ele>236.5</ele><time>2026-04-09T08:15:45Z</time></trkpt><trkpt lat="45.73359276175798" lon="9.417104383762375"><ele>234.0</ele><time>2026-04-09T08:15:46Z</time></trkpt><trkpt lat="45.733707766299375" lon="9.417112611417547"><ele>233.79999999999998</ele><time>2026-04-09T08:15:47Z</time></trkpt><trkpt lat="45.73382152453417" lon="9.417148231532376"><ele>233.59999999999997</ele><time>2026-04-09T08:15:48Z</time></trkpt><trkpt lat="45.73392461349176" lon="9.417201594650232"><ele>233.4</ele><time>2026-04-09T08:15:49Z</time></trkpt><trkpt lat="45.73401992002146" lon="9.41727049930952"><ele>233.2</ele><time>2026-04-09T08:15:50Z</time></trkpt><trkpt lat="45.73411402033876" lon="9.417351130264969"><ele>233.0</ele><time>2026-04-09T08:15:51Z</time></trkpt><trkpt lat="45.7341930391737" lon="9.417442213038324"><ele>233.00000000000003</ele><time>2026-04-09T08:15:52Z</time></trkpt><trkpt lat="45.734265623381695" lon="9.417525869745214"><ele>233.0</ele><time>2026-04-09T08:15:53Z</time></trkpt><trkpt lat="45.73434424831343" lon="9.417610262903409"><ele>233.0</ele><time>2026-04-09T08:15:54Z</time></trkpt><trkpt lat="45.73440707518515" lon="9.41768184054245"><ele>233.0</ele><time>2026-04-09T08:15:55Z</time></trkpt><trkpt lat="45.73446228777766" lon="9.417740361424775"><ele>233.00000000000003</ele><time>2026-04-09T08:15:56Z</time></trkpt><trkpt lat="45.73450431211934" lon="9.417811406855579"><ele>233.0</ele><time>2026-04-09T08:15:57Z</time></trkpt><trkpt lat="45.73455703877293" lon="9.417947024117087"><ele>231.2</ele><time>2026-04-09T08:15:59Z</time></trkpt><trkpt lat="45.73457438059292" lon="9.418044681899081"><ele>229.4</ele><time>2026-04-09T08:16:02Z</time></trkpt><trkpt lat="45.73460233359174" lon="9.418158558640837"><ele>227.59999999999997</ele><time>2026-04-09T08:16:09Z</time></trkpt><trkpt lat="45.73461614749025" lon="9.418313961871753"><ele>225.79999999999998</ele><time>2026-04-09T08:16:11Z</time></trkpt><trkpt lat="45.73468798500294" lon="9.418427724678411"><ele>224.0</ele><time>2026-04-09T08:16:13Z</time></trkpt><trkpt lat="45.73480637416241" lon="9.418449070241243"><ele>224.00000000000003</ele><time>2026-04-09T08:16:15Z</time></trkpt><trkpt lat="45.73488118564968" lon="9.418433782283982"><ele>224.0</ele><time>2026-04-09T08:16:16Z</time></trkpt><trkpt lat="45.73496157331361" lon="9.418435035305603"><ele>224.0</ele><time>2026-04-09T08:16:17Z</time></trkpt><trkpt lat="45.735032259499164" lon="9.41846065727244"><ele>224.0</ele><time>2026-04-09T08:16:18Z</time></trkpt><trkpt lat="45.73510603486871" lon="9.418516069771378"><ele>224.00000000000003</ele><time>2026-04-09T08:16:19Z</time></trkpt><trkpt lat="45.735185657143305" lon="9.418579134075204"><ele>224.0</ele><time>2026-04-09T08:16:20Z</time></trkpt><trkpt lat="45.735271164032575" lon="9.418656034029832"><ele>223.2</ele><time>2026-04-09T08:16:21Z</time></trkpt><trkpt lat="45.73535406007557" lon="9.418735544673863"><ele>222.39999999999998</ele><time>2026-04-09T08:16:22Z</time></trkpt><trkpt lat="45.73544289497319" lon="9.418817548271091"><ele>221.6</ele><time>2026-04-09T08:16:23Z</time></trkpt><trkpt lat="45.735537580127115" lon="9.41889966675696"><ele>220.8</ele><time>2026-04-09T08:16:24Z</time></trkpt><trkpt lat="45.73562892839588" lon="9.418977009662884"><ele>220.0</ele><time>2026-04-09T08:16:25Z</time></trkpt><trkpt lat="45.73572357806535" lon="9.419045542897868"><ele>220.0</ele><time>2026-04-09T08:16:26Z</time></trkpt><trkpt lat="45.73582325313409" lon="9.41912749072052"><ele>220.0</ele><time>2026-04-09T08:16:27Z</time></trkpt><trkpt lat="45.73592717387301" lon="9.419208652723906"><ele>220.0</ele><time>2026-04-09T08:16:28Z</time></trkpt><trkpt lat="45.73603130526522" lon="9.419283893764916"><ele>220.0</ele><time>2026-04-09T08:16:29Z</time></trkpt><trkpt lat="45.73613392912315" lon="9.419363801210853"><ele>220.0</ele><time>2026-04-09T08:16:30Z</time></trkpt><trkpt lat="45.736241227781484" lon="9.419446430238223"><ele>220.0</ele><time>2026-04-09T08:16:31Z</time></trkpt><trkpt lat="45.73635030653173" lon="9.41952991748931"><ele>220.0</ele><time>2026-04-09T08:16:32Z</time></trkpt><trkpt lat="45.73645737788602" lon="9.419615105140338"><ele>220.0</ele><time>2026-04-09T08:16:33Z</time></trkpt><trkpt lat="45.73657544648217" lon="9.419702750374842"><ele>220.0</ele><time>2026-04-09T08:16:34Z</time></trkpt><trkpt lat="45.736693703956256" lon="9.419793159241175"><ele>220.0</ele><time>2026-04-09T08:16:35Z</time></trkpt><trkpt lat="45.73681023541786" lon="9.419885171278024"><ele>220.0</ele><time>2026-04-09T08:16:36Z</time></trkpt><trkpt lat="45.736924534256296" lon="9.419980448009298"><ele>220.0</ele><time>2026-04-09T08:16:37Z</time></trkpt><trkpt lat="45.73704742371552" lon="9.42007672213777"><ele>220.25</ele><time>2026-04-09T08:16:38Z</time></trkpt><trkpt lat="45.737166664213525" lon="9.420174118642139"><ele>220.5</ele><time>2026-04-09T08:16:39Z</time></trkpt><trkpt lat="45.73728225988891" lon="9.420276236930006"><ele>220.75</ele><time>2026-04-09T08:16:40Z</time></trkpt><trkpt lat="45.73741379054858" lon="9.420376463719252"><ele>221.0</ele><time>2026-04-09T08:16:41Z</time></trkpt><trkpt lat="45.73754151314895" lon="9.420476827713953"><ele>220.5</ele><time>2026-04-09T08:16:42Z</time></trkpt><trkpt lat="45.737675138500684" lon="9.420578301023285"><ele>220.0</ele><time>2026-04-09T08:16:43Z</time></trkpt><trkpt lat="45.737802469463986" lon="9.420673053819566"><ele>219.5</ele><time>2026-04-09T08:16:44Z</time></trkpt><trkpt lat="45.73793381065124" lon="9.420776504094485"><ele>219.0</ele><time>2026-04-09T08:16:45Z</time></trkpt><trkpt lat="45.73806171585556" lon="9.420881183659239"><ele>219.0</ele><time>2026-04-09T08:16:46Z</time></trkpt><trkpt lat="45.738188500955786" lon="9.420982290659087"><ele>219.0</ele><time>2026-04-09T08:16:47Z</time></trkpt><trkpt lat="45.738323286490164" lon="9.421088342001685"><ele>219.0</ele><time>2026-04-09T08:16:48Z</time></trkpt><trkpt lat="45.73845669602581" lon="9.421194755118712"><ele>219.25</ele><time>2026-04-09T08:16:49Z</time></trkpt><trkpt lat="45.7385873252319" lon="9.421294094687392"><ele>219.5</ele><time>2026-04-09T08:16:50Z</time></trkpt><trkpt lat="45.738720493529115" lon="9.421391413984972"><ele>219.75</ele><time>2026-04-09T08:16:51Z</time></trkpt><trkpt lat="45.7388544130835" lon="9.421494180580847"><ele>220.0</ele><time>2026-04-09T08:16:52Z</time></trkpt><trkpt lat="45.7389845202092" lon="9.421593184778692"><ele>220.0</ele><time>2026-04-09T08:16:53Z</time></trkpt><trkpt lat="45.73911936465279" lon="9.421704847614002"><ele>220.0</ele><time>2026-04-09T08:16:54Z</time></trkpt><trkpt lat="45.73925649188785" lon="9.421813365901127"><ele>220.0</ele><time>2026-04-09T08:16:55Z</time></trkpt><trkpt lat="45.7393907427408" lon="9.421916716034893"><ele>220.0</ele><time>2026-04-09T08:16:56Z</time></trkpt><trkpt lat="45.739531551654515" lon="9.422025114457696"><ele>220.0</ele><time>2026-04-09T08:16:57Z</time></trkpt><trkpt lat="45.73967062695212" lon="9.42213129889893"><ele>220.0</ele><time>2026-04-09T08:16:58Z</time></trkpt><trkpt lat="45.73980681435966" lon="9.422230555205461"><ele>219.66666666666666</ele><time>2026-04-09T08:16:59Z</time></trkpt><trkpt lat="45.73994204735193" lon="9.422321009795827"><ele>219.33333333333331</ele><time>2026-04-09T08:17:00Z</time></trkpt><trkpt lat="45.74007849520998" lon="9.422421333390933"><ele>219.0</ele><time>2026-04-09T08:17:01Z</time></trkpt><trkpt lat="45.74021364367686" lon="9.422522142800018"><ele>220.0</ele><time>2026-04-09T08:17:02Z</time></trkpt><trkpt lat="45.7403476644278" lon="9.422623578586967"><ele>221.0</ele><time>2026-04-09T08:17:03Z</time></trkpt><trkpt lat="45.74048311577697" lon="9.422726441644166"><ele>222.0</ele><time>2026-04-09T08:17:04Z</time></trkpt><trkpt lat="45.74061920071858" lon="9.422828358030312"><ele>222.0</ele><time>2026-04-09T08:17:05Z</time></trkpt><trkpt lat="45.74075791218753" lon="9.422934448371336"><ele>222.0</ele><time>2026-04-09T08:17:06Z</time></trkpt><trkpt lat="45.74089387608689" lon="9.423047574272038"><ele>222.0</ele><time>2026-04-09T08:17:07Z</time></trkpt><trkpt lat="45.74103574542606" lon="9.423156251239435"><ele>221.0</ele><time>2026-04-09T08:17:08Z</time></trkpt><trkpt lat="45.74117726139768" lon="9.42326959182069"><ele>220.0</ele><time>2026-04-09T08:17:09Z</time></trkpt><trkpt lat="45.741323171741904" lon="9.423386565664778"><ele>219.0</ele><time>2026-04-09T08:17:10Z</time></trkpt><trkpt lat="45.74146384339989" lon="9.423507490896215"><ele>219.0</ele><time>2026-04-09T08:17:11Z</time></trkpt><trkpt lat="45.74161566932958" lon="9.423625777185794"><ele>219.0</ele><time>2026-04-09T08:17:12Z</time></trkpt><trkpt lat="45.74177622526143" lon="9.42373497788274"><ele>219.0</ele><time>2026-04-09T08:17:13Z</time></trkpt><trkpt lat="45.741933490028565" lon="9.42383290620247"><ele>218.0</ele><time>2026-04-09T08:17:14Z</time></trkpt><trkpt lat="45.742082248225366" lon="9.423923774807191"><ele>217.0</ele><time>2026-04-09T08:17:15Z</time></trkpt><trkpt lat="45.74223068778288" lon="9.424011753173716"><ele>216.0</ele><time>2026-04-09T08:17:16Z</time></trkpt><trkpt lat="45.742396916209195" lon="9.42410185102308"><ele>216.0</ele><time>2026-04-09T08:17:17Z</time></trkpt><trkpt lat="45.74256449641042" lon="9.424187922256348"><ele>216.0</ele><time>2026-04-09T08:17:18Z</time></trkpt><trkpt lat="45.742710672894354" lon="9.424277177775746"><ele>216.0</ele><time>2026-04-09T08:17:19Z</time></trkpt><trkpt lat="45.742868466213935" lon="9.424363741867097"><ele>219.0</ele><time>2026-04-09T08:17:20Z</time></trkpt><trkpt lat="45.74302773503352" lon="9.424451845320359"><ele>222.0</ele><time>2026-04-09T08:17:21Z</time></trkpt><trkpt lat="45.743182597392625" lon="9.424542083662194"><ele>225.0</ele><time>2026-04-09T08:17:22Z</time></trkpt><trkpt lat="45.74333697821254" lon="9.42462510223261"><ele>222.66666666666669</ele><time>2026-04-09T08:17:23Z</time></trkpt><trkpt lat="45.7434908101461" lon="9.424714173975493"><ele>220.33333333333334</ele><time>2026-04-09T08:17:24Z</time></trkpt><trkpt lat="45.743642612688234" lon="9.42480788320175"><ele>218.0</ele><time>2026-04-09T08:17:25Z</time></trkpt><trkpt lat="45.74378853548531" lon="9.424896182652448"><ele>218.0</ele><time>2026-04-09T08:17:26Z</time></trkpt><trkpt lat="45.74393868520492" lon="9.424984969597313"><ele>218.0</ele><time>2026-04-09T08:17:27Z</time></trkpt><trkpt lat="45.74408826555353" lon="9.425072814059263"><ele>218.0</ele><time>2026-04-09T08:17:28Z</time></trkpt><trkpt lat="45.74423907233617" lon="9.425154557042838"><ele>219.33333333333334</ele><time>2026-04-09T08:17:29Z</time></trkpt><trkpt lat="45.74439926220708" lon="9.425230947547277"><ele>220.66666666666669</ele><time>2026-04-09T08:17:30Z</time></trkpt><trkpt lat="45.74454667114708" lon="9.425316801646847"><ele>222.0</ele><time>2026-04-09T08:17:31Z</time></trkpt><trkpt lat="45.74469772307727" lon="9.425405408626995"><ele>218.66666666666669</ele><time>2026-04-09T08:17:32Z</time></trkpt><trkpt lat="45.7448576452941" lon="9.42549597855717"><ele>215.33333333333334</ele><time>2026-04-09T08:17:33Z</time></trkpt><trkpt lat="45.74501222680526" lon="9.425589161123579"><ele>212.0</ele><time>2026-04-09T08:17:34Z</time></trkpt><trkpt lat="45.74516422886776" lon="9.425691408215034"><ele>213.33333333333334</ele><time>2026-04-09T08:17:35Z</time></trkpt><trkpt lat="45.74531631561294" lon="9.425795314442505"><ele>214.66666666666669</ele><time>2026-04-09T08:17:36Z</time></trkpt><trkpt lat="45.74547224210979" lon="9.42589632543335"><ele>216.0</ele><time>2026-04-09T08:17:37Z</time></trkpt><trkpt lat="45.74563701150457" lon="9.425981823827595"><ele>216.0</ele><time>2026-04-09T08:17:38Z</time></trkpt><trkpt lat="45.74579720301632" lon="9.426047938096444"><ele>216.0</ele><time>2026-04-09T08:17:39Z</time></trkpt><trkpt lat="45.745963285444645" lon="9.426102012889553"><ele>216.0</ele><time>2026-04-09T08:17:40Z</time></trkpt><trkpt lat="45.74613995843868" lon="9.426125142737272"><ele>216.0</ele><time>2026-04-09T08:17:41Z</time></trkpt><trkpt lat="45.74631353990751" lon="9.426134489700202"><ele>216.0</ele><time>2026-04-09T08:17:42Z</time></trkpt><trkpt lat="45.74648390797531" lon="9.426131729598344"><ele>216.0</ele><time>2026-04-09T08:17:43Z</time></trkpt><trkpt lat="45.74665333929627" lon="9.426132139595456"><ele>216.0</ele><time>2026-04-09T08:17:44Z</time></trkpt><trkpt lat="45.7468220153286" lon="9.426139895418734"><ele>216.0</ele><time>2026-04-09T08:17:45Z</time></trkpt><trkpt lat="45.746988700646185" lon="9.426157620985093"><ele>216.0</ele><time>2026-04-09T08:17:46Z</time></trkpt><trkpt lat="45.747152080666474" lon="9.426176568050169"><ele>216.66666666666669</ele><time>2026-04-09T08:17:47Z</time></trkpt><trkpt lat="45.74731673608538" lon="9.426189591264809"><ele>217.33333333333334</ele><time>2026-04-09T08:17:48Z</time></trkpt><trkpt lat="45.747466441898254" lon="9.426219194317586"><ele>218.0</ele><time>2026-04-09T08:17:49Z</time></trkpt><trkpt lat="45.74764013011257" lon="9.426236934641786"><ele>217.0</ele><time>2026-04-09T08:17:50Z</time></trkpt><trkpt lat="45.74779900017952" lon="9.42625316149876"><ele>216.0</ele><time>2026-04-09T08:17:51Z</time></trkpt><trkpt lat="45.747960071430015" lon="9.426269613170248"><ele>215.0</ele><time>2026-04-09T08:17:52Z</time></trkpt><trkpt lat="45.74812650963531" lon="9.426286613002793"><ele>215.0</ele><time>2026-04-09T08:17:53Z</time></trkpt><trkpt lat="45.74829119807506" lon="9.426303584375528"><ele>215.0</ele><time>2026-04-09T08:17:54Z</time></trkpt><trkpt lat="45.748463777029166" lon="9.426314768560982"><ele>215.0</ele><time>2026-04-09T08:17:55Z</time></trkpt><trkpt lat="45.74861489046307" lon="9.426333191895033"><ele>213.33333333333334</ele><time>2026-04-09T08:17:56Z</time></trkpt><trkpt lat="45.748772782112766" lon="9.426351769900732"><ele>211.66666666666669</ele><time>2026-04-09T08:17:57Z</time></trkpt><trkpt lat="45.74892649028603" lon="9.426364571363177"><ele>210.0</ele><time>2026-04-09T08:17:58Z</time></trkpt><trkpt lat="45.74908286720059" lon="9.42637917204731"><ele>210.0</ele><time>2026-04-09T08:17:59Z</time></trkpt><trkpt lat="45.74923330046775" lon="9.42639671270681"><ele>210.0</ele><time>2026-04-09T08:18:00Z</time></trkpt><trkpt lat="45.74938529065122" lon="9.426415011417811"><ele>210.0</ele><time>2026-04-09T08:18:01Z</time></trkpt><trkpt lat="45.749528816498106" lon="9.42643195161119"><ele>210.0</ele><time>2026-04-09T08:18:02Z</time></trkpt><trkpt lat="45.74966734314903" lon="9.426446690984614"><ele>209.75</ele><time>2026-04-09T08:18:03Z</time></trkpt><trkpt lat="45.74979984608537" lon="9.42646296073209"><ele>209.5</ele><time>2026-04-09T08:18:04Z</time></trkpt><trkpt lat="45.7499327600175" lon="9.42647196361254"><ele>209.25</ele><time>2026-04-09T08:18:05Z</time></trkpt><trkpt lat="45.750054391903475" lon="9.426487849900683"><ele>209.0</ele><time>2026-04-09T08:18:06Z</time></trkpt><trkpt lat="45.75015631481983" lon="9.426502271592618"><ele>208.83333333333334</ele><time>2026-04-09T08:18:07Z</time></trkpt><trkpt lat="45.750249882431554" lon="9.42652990634481"><ele>208.66666666666669</ele><time>2026-04-09T08:18:08Z</time></trkpt><trkpt lat="45.75032447343529" lon="9.42657895630152"><ele>208.5</ele><time>2026-04-09T08:18:09Z</time></trkpt><trkpt lat="45.75038342760894" lon="9.426645396190533"><ele>208.33333333333331</ele><time>2026-04-09T08:18:10Z</time></trkpt><trkpt lat="45.75044606743484" lon="9.426679696635675"><ele>208.16666666666666</ele><time>2026-04-09T08:18:11Z</time></trkpt><trkpt lat="45.75056986799705" lon="9.426677380328659"><ele>208.0</ele><time>2026-04-09T08:18:13Z</time></trkpt><trkpt lat="45.75064320481002" lon="9.426589269221651"><ele>208.0</ele><time>2026-04-09T08:18:14Z</time></trkpt><trkpt lat="45.7507913320929" lon="9.426551031456704"><ele>208.0</ele><time>2026-04-09T08:18:16Z</time></trkpt><trkpt lat="45.75090631982264" lon="9.426565239855343"><ele>208.0</ele><time>2026-04-09T08:18:17Z</time></trkpt><trkpt lat="45.751030918438" lon="9.426574310865181"><ele>208.0</ele><time>2026-04-09T08:18:18Z</time></trkpt><trkpt lat="45.75116336768242" lon="9.426567792657961"><ele>208.5</ele><time>2026-04-09T08:18:19Z</time></trkpt><trkpt lat="45.751287786914546" lon="9.426558261027496"><ele>209.0</ele><time>2026-04-09T08:18:20Z</time></trkpt><trkpt lat="45.751423263866734" lon="9.426552863043627"><ele>209.5</ele><time>2026-04-09T08:18:21Z</time></trkpt><trkpt lat="45.75156123933589" lon="9.426553904481294"><ele>210.0</ele><time>2026-04-09T08:18:22Z</time></trkpt><trkpt lat="45.751697167270045" lon="9.426576120127773"><ele>210.0</ele><time>2026-04-09T08:18:23Z</time></trkpt><trkpt lat="45.75184713697338" lon="9.426581716831778"><ele>210.0</ele><time>2026-04-09T08:18:24Z</time></trkpt><trkpt lat="45.7520021615454" lon="9.426587072759029"><ele>210.0</ele><time>2026-04-09T08:18:25Z</time></trkpt><trkpt lat="45.752157207918124" lon="9.42659370245488"><ele>211.33333333333331</ele><time>2026-04-09T08:18:26Z</time></trkpt><trkpt lat="45.752309834478204" lon="9.426598971307552"><ele>212.66666666666666</ele><time>2026-04-09T08:18:27Z</time></trkpt><trkpt lat="45.752465304460735" lon="9.42660397833963"><ele>214.0</ele><time>2026-04-09T08:18:28Z</time></trkpt><trkpt lat="45.75261052437381" lon="9.426608825033453"><ele>214.5</ele><time>2026-04-09T08:18:29Z</time></trkpt><trkpt lat="45.75275512170376" lon="9.426590182622784"><ele>215.0</ele><time>2026-04-09T08:18:30Z</time></trkpt><trkpt lat="45.75290094659112" lon="9.426609496990157"><ele>215.5</ele><time>2026-04-09T08:18:31Z</time></trkpt><trkpt lat="45.753044042020434" lon="9.426623546028205"><ele>216.0</ele><time>2026-04-09T08:18:32Z</time></trkpt><trkpt lat="45.753182131486206" lon="9.426617045346921"><ele>216.0</ele><time>2026-04-09T08:18:33Z</time></trkpt><trkpt lat="45.753309302710804" lon="9.426621726601851"><ele>216.0</ele><time>2026-04-09T08:18:34Z</time></trkpt><trkpt lat="45.75342875039403" lon="9.426622684920032"><ele>216.0</ele><time>2026-04-09T08:18:35Z</time></trkpt><trkpt lat="45.7535492719848" lon="9.426622896799369"><ele>216.0</ele><time>2026-04-09T08:18:36Z</time></trkpt><trkpt lat="45.75366044272277" lon="9.42662192736566"><ele>216.4</ele><time>2026-04-09T08:18:37Z</time></trkpt><trkpt lat="45.75377120530642" lon="9.426627095435949"><ele>216.8</ele><time>2026-04-09T08:18:38Z</time></trkpt><trkpt lat="45.753872502662944" lon="9.426636564500914"><ele>217.20000000000002</ele><time>2026-04-09T08:18:39Z</time></trkpt><trkpt lat="45.75394903245177" lon="9.426634428331171"><ele>217.60000000000002</ele><time>2026-04-09T08:18:40Z</time></trkpt><trkpt lat="45.75404715446771" lon="9.426641812928695"><ele>218.0</ele><time>2026-04-09T08:18:41Z</time></trkpt><trkpt lat="45.754130689121794" lon="9.426637761022505"><ele>218.0</ele><time>2026-04-09T08:18:42Z</time></trkpt><trkpt lat="45.75422689364677" lon="9.42665759753543"><ele>218.0</ele><time>2026-04-09T08:18:43Z</time></trkpt><trkpt lat="45.754319505825144" lon="9.426660218634563"><ele>218.0</ele><time>2026-04-09T08:18:44Z</time></trkpt><trkpt lat="45.7544163830361" lon="9.426662960439806"><ele>218.0</ele><time>2026-04-09T08:18:45Z</time></trkpt><trkpt lat="45.75451154509581" lon="9.426665653704504"><ele>218.0</ele><time>2026-04-09T08:18:46Z</time></trkpt><trkpt lat="45.75459755295005" lon="9.426668010776691"><ele>218.28571428571428</ele><time>2026-04-09T08:18:47Z</time></trkpt><trkpt lat="45.754681226954595" lon="9.426670082412947"><ele>218.57142857142858</ele><time>2026-04-09T08:18:48Z</time></trkpt><trkpt lat="45.7547477435628" lon="9.426672093163624"><ele>218.85714285714283</ele><time>2026-04-09T08:18:49Z</time></trkpt><trkpt lat="45.7548271226314" lon="9.426674222561333"><ele>219.14285714285714</ele><time>2026-04-09T08:18:51Z</time></trkpt><trkpt lat="45.75489156201995" lon="9.426720300561614"><ele>219.42857142857142</ele><time>2026-04-09T08:18:57Z</time></trkpt><trkpt lat="45.75495269166198" lon="9.426772994629069"><ele>219.7142857142857</ele><time>2026-04-09T08:18:59Z</time></trkpt><trkpt lat="45.7550265625171" lon="9.426800212730846"><ele>220.0</ele><time>2026-04-09T08:19:02Z</time></trkpt><trkpt lat="45.75509273275152" lon="9.42674851204078"><ele>219.99999999999997</ele><time>2026-04-09T08:19:04Z</time></trkpt><trkpt lat="45.75514438860257" lon="9.426696051148946"><ele>220.0</ele><time>2026-04-09T08:19:05Z</time></trkpt><trkpt lat="45.75520783803275" lon="9.426694195969997"><ele>220.0</ele><time>2026-04-09T08:19:06Z</time></trkpt><trkpt lat="45.755311566743735" lon="9.42669419985308"><ele>220.0</ele><time>2026-04-09T08:19:08Z</time></trkpt><trkpt lat="45.755420117006594" lon="9.426700408171923"><ele>219.99999999999997</ele><time>2026-04-09T08:19:10Z</time></trkpt><trkpt lat="45.75552672910074" lon="9.426703608095133"><ele>220.0</ele><time>2026-04-09T08:19:12Z</time></trkpt><trkpt lat="45.755622082550445" lon="9.42671278271221"><ele>219.6</ele><time>2026-04-09T08:19:14Z</time></trkpt><trkpt lat="45.75569664323431" lon="9.426721691120516"><ele>219.2</ele><time>2026-04-09T08:19:16Z</time></trkpt><trkpt lat="45.75578187264005" lon="9.426777055870115"><ele>218.8</ele><time>2026-04-09T08:19:19Z</time></trkpt><trkpt lat="45.7558569538052" lon="9.426837551174751"><ele>218.4</ele><time>2026-04-09T08:19:21Z</time></trkpt><trkpt lat="45.75597125494463" lon="9.426782155472205"><ele>218.0</ele><time>2026-04-09T08:19:23Z</time></trkpt><trkpt lat="45.7560498559035" lon="9.426751160469705"><ele>218.0</ele><time>2026-04-09T08:19:24Z</time></trkpt><trkpt lat="45.75614406403559" lon="9.42674135644107"><ele>218.0</ele><time>2026-04-09T08:19:25Z</time></trkpt><trkpt lat="45.756233076505765" lon="9.426716575481137"><ele>218.0</ele><time>2026-04-09T08:19:26Z</time></trkpt><trkpt lat="45.75632535714693" lon="9.426712526606543"><ele>218.0</ele><time>2026-04-09T08:19:27Z</time></trkpt><trkpt lat="45.75642320916892" lon="9.426710266703745"><ele>218.0</ele><time>2026-04-09T08:19:28Z</time></trkpt><trkpt lat="45.75652618356806" lon="9.426716160948361"><ele>218.0</ele><time>2026-04-09T08:19:29Z</time></trkpt><trkpt lat="45.756634538387985" lon="9.426752366670382"><ele>218.0</ele><time>2026-04-09T08:19:30Z</time></trkpt><trkpt lat="45.756739642432215" lon="9.426755854919692"><ele>218.0</ele><time>2026-04-09T08:19:31Z</time></trkpt><trkpt lat="45.756848315413144" lon="9.42676022597863"><ele>218.0</ele><time>2026-04-09T08:19:32Z</time></trkpt><trkpt lat="45.75696118784686" lon="9.426764765947715"><ele>218.0</ele><time>2026-04-09T08:19:33Z</time></trkpt><trkpt lat="45.757082527274314" lon="9.426769646479613"><ele>216.5</ele><time>2026-04-09T08:19:34Z</time></trkpt><trkpt lat="45.757194836049244" lon="9.426774163774443"><ele>215.0</ele><time>2026-04-09T08:19:35Z</time></trkpt><trkpt lat="45.75730175968084" lon="9.426778661040089"><ele>213.5</ele><time>2026-04-09T08:19:36Z</time></trkpt><trkpt lat="45.75741295174722" lon="9.426783515895957"><ele>212.0</ele><time>2026-04-09T08:19:37Z</time></trkpt><trkpt lat="45.75753417866659" lon="9.42678880887675"><ele>212.0</ele><time>2026-04-09T08:19:38Z</time></trkpt><trkpt lat="45.75766941015767" lon="9.426794713333377"><ele>212.0</ele><time>2026-04-09T08:19:39Z</time></trkpt><trkpt lat="45.75780720132464" lon="9.426800729542396"><ele>212.0</ele><time>2026-04-09T08:19:40Z</time></trkpt><trkpt lat="45.75794339781194" lon="9.426806676125542"><ele>212.0</ele><time>2026-04-09T08:19:41Z</time></trkpt><trkpt lat="45.7580869720452" lon="9.426790335387805"><ele>212.0</ele><time>2026-04-09T08:19:42Z</time></trkpt><trkpt lat="45.758224033129196" lon="9.426818018496963"><ele>212.0</ele><time>2026-04-09T08:19:43Z</time></trkpt><trkpt lat="45.75835980372336" lon="9.426823122021634"><ele>212.0</ele><time>2026-04-09T08:19:44Z</time></trkpt><trkpt lat="45.758495671542654" lon="9.426825931926757"><ele>212.0</ele><time>2026-04-09T08:19:45Z</time></trkpt><trkpt lat="45.75863332492099" lon="9.426827940000022"><ele>215.33333333333334</ele><time>2026-04-09T08:19:46Z</time></trkpt><trkpt lat="45.75878455962107" lon="9.426804612571466"><ele>218.66666666666669</ele><time>2026-04-09T08:19:47Z</time></trkpt><trkpt lat="45.758939419621925" lon="9.426804245494631"><ele>222.0</ele><time>2026-04-09T08:19:48Z</time></trkpt><trkpt lat="45.75908907183532" lon="9.42680025683834"><ele>222.0</ele><time>2026-04-09T08:19:49Z</time></trkpt><trkpt lat="45.759235771824926" lon="9.42679370076461"><ele>222.0</ele><time>2026-04-09T08:19:50Z</time></trkpt><trkpt lat="45.75939105677619" lon="9.426781038691727"><ele>222.0</ele><time>2026-04-09T08:19:51Z</time></trkpt><trkpt lat="45.759541927044324" lon="9.426770161320597"><ele>220.0</ele><time>2026-04-09T08:19:52Z</time></trkpt><trkpt lat="45.75969097050939" lon="9.426757778628536"><ele>218.0</ele><time>2026-04-09T08:19:53Z</time></trkpt><trkpt lat="45.75983262747381" lon="9.42676481337733"><ele>216.0</ele><time>2026-04-09T08:19:54Z</time></trkpt><trkpt lat="45.75998015178479" lon="9.42675448913517"><ele>214.0</ele><time>2026-04-09T08:19:55Z</time></trkpt><trkpt lat="45.76013045273567" lon="9.42673303524759"><ele>213.0</ele><time>2026-04-09T08:19:56Z</time></trkpt><trkpt lat="45.760281861844206" lon="9.426719361578034"><ele>212.0</ele><time>2026-04-09T08:19:57Z</time></trkpt><trkpt lat="45.760428629310276" lon="9.426707238724484"><ele>211.0</ele><time>2026-04-09T08:19:58Z</time></trkpt><trkpt lat="45.7605764769038" lon="9.426694267174106"><ele>210.0</ele><time>2026-04-09T08:19:59Z</time></trkpt><trkpt lat="45.760730035162354" lon="9.426679488137937"><ele>210.0</ele><time>2026-04-09T08:20:00Z</time></trkpt><trkpt lat="45.760878528168895" lon="9.426672083643064"><ele>210.0</ele><time>2026-04-09T08:20:01Z</time></trkpt><trkpt lat="45.761030786566934" lon="9.426660749107533"><ele>210.0</ele><time>2026-04-09T08:20:02Z</time></trkpt><trkpt lat="45.76118443952698" lon="9.426646224668637"><ele>210.33333333333331</ele><time>2026-04-09T08:20:03Z</time></trkpt><trkpt lat="45.761343842573076" lon="9.426635635580109"><ele>210.66666666666666</ele><time>2026-04-09T08:20:04Z</time></trkpt><trkpt lat="45.76149850819111" lon="9.426628294855139"><ele>211.0</ele><time>2026-04-09T08:20:05Z</time></trkpt><trkpt lat="45.761659334301356" lon="9.426620528931597"><ele>211.0</ele><time>2026-04-09T08:20:06Z</time></trkpt><trkpt lat="45.76183028793478" lon="9.42661261605142"><ele>211.0</ele><time>2026-04-09T08:20:07Z</time></trkpt><trkpt lat="45.76199907825868" lon="9.426595865481438"><ele>211.0</ele><time>2026-04-09T08:20:08Z</time></trkpt><trkpt lat="45.7621661995984" lon="9.426582724236312"><ele>212.33333333333331</ele><time>2026-04-09T08:20:09Z</time></trkpt><trkpt lat="45.76232659054591" lon="9.426575250044918"><ele>213.66666666666669</ele><time>2026-04-09T08:20:10Z</time></trkpt><trkpt lat="45.76248838407867" lon="9.426574561164546"><ele>215.0</ele><time>2026-04-09T08:20:11Z</time></trkpt><trkpt lat="45.76264172723246" lon="9.426561269910298"><ele>211.66666666666669</ele><time>2026-04-09T08:20:12Z</time></trkpt><trkpt lat="45.76279935212589" lon="9.426535619960216"><ele>208.33333333333331</ele><time>2026-04-09T08:20:13Z</time></trkpt><trkpt lat="45.76295513582572" lon="9.426498057879122"><ele>205.0</ele><time>2026-04-09T08:20:14Z</time></trkpt><trkpt lat="45.76311404919343" lon="9.426454819682075"><ele>205.0</ele><time>2026-04-09T08:20:15Z</time></trkpt><trkpt lat="45.76328100802995" lon="9.426387897916062"><ele>205.0</ele><time>2026-04-09T08:20:16Z</time></trkpt><trkpt lat="45.76344557093835" lon="9.42631251745265"><ele>205.0</ele><time>2026-04-09T08:20:17Z</time></trkpt><trkpt lat="45.76361092846377" lon="9.426237072620275"><ele>207.66666666666666</ele><time>2026-04-09T08:20:18Z</time></trkpt><trkpt lat="45.76377256792673" lon="9.426170966942092"><ele>210.33333333333331</ele><time>2026-04-09T08:20:19Z</time></trkpt><trkpt lat="45.76393451177485" lon="9.426101765613813"><ele>213.0</ele><time>2026-04-09T08:20:20Z</time></trkpt><trkpt lat="45.76409820288598" lon="9.426036082797632"><ele>213.0</ele><time>2026-04-09T08:20:21Z</time></trkpt><trkpt lat="45.764260686040416" lon="9.425963577569938"><ele>213.0</ele><time>2026-04-09T08:20:22Z</time></trkpt><trkpt lat="45.76441922101869" lon="9.4259097584044"><ele>213.0</ele><time>2026-04-09T08:20:23Z</time></trkpt><trkpt lat="45.76456949596304" lon="9.425832416207147"><ele>209.66666666666669</ele><time>2026-04-09T08:20:24Z</time></trkpt><trkpt lat="45.764746997589555" lon="9.425780264502961"><ele>206.33333333333334</ele><time>2026-04-09T08:20:25Z</time></trkpt><trkpt lat="45.76491085862133" lon="9.425689159257042"><ele>203.0</ele><time>2026-04-09T08:20:26Z</time></trkpt><trkpt lat="45.76508375726294" lon="9.42562528645393"><ele>201.33333333333334</ele><time>2026-04-09T08:20:27Z</time></trkpt><trkpt lat="45.76524332833948" lon="9.425578874324533"><ele>199.66666666666669</ele><time>2026-04-09T08:20:28Z</time></trkpt><trkpt lat="45.765400546713636" lon="9.425514900511933"><ele>198.0</ele><time>2026-04-09T08:20:29Z</time></trkpt><trkpt lat="45.765549184938294" lon="9.425454372692332"><ele>203.33333333333331</ele><time>2026-04-09T08:20:30Z</time></trkpt><trkpt lat="45.765695301693526" lon="9.425394871649488"><ele>208.66666666666666</ele><time>2026-04-09T08:20:31Z</time></trkpt><trkpt lat="45.76584574920141" lon="9.425333607036363"><ele>214.0</ele><time>2026-04-09T08:20:32Z</time></trkpt><trkpt lat="45.7659965762656" lon="9.425272187846101"><ele>211.33333333333331</ele><time>2026-04-09T08:20:33Z</time></trkpt><trkpt lat="45.76614161176387" lon="9.425191503531966"><ele>208.66666666666669</ele><time>2026-04-09T08:20:34Z</time></trkpt><trkpt lat="45.76629119633201" lon="9.425152213910104"><ele>206.0</ele><time>2026-04-09T08:20:35Z</time></trkpt><trkpt lat="45.766438210222645" lon="9.425092347509299"><ele>206.0</ele><time>2026-04-09T08:20:36Z</time></trkpt><trkpt lat="45.76657279758513" lon="9.425037541447889"><ele>206.0</ele><time>2026-04-09T08:20:37Z</time></trkpt><trkpt lat="45.76670538762561" lon="9.424983548693156"><ele>206.0</ele><time>2026-04-09T08:20:38Z</time></trkpt><trkpt lat="45.76683762086992" lon="9.424933324515282"><ele>206.0</ele><time>2026-04-09T08:20:39Z</time></trkpt><trkpt lat="45.766957678744845" lon="9.424889139623264"><ele>205.25</ele><time>2026-04-09T08:20:40Z</time></trkpt><trkpt lat="45.76708591602354" lon="9.42484943694393"><ele>204.5</ele><time>2026-04-09T08:20:41Z</time></trkpt><trkpt lat="45.76721993788558" lon="9.42481759398877"><ele>203.75</ele><time>2026-04-09T08:20:42Z</time></trkpt><trkpt lat="45.76734370481891" lon="9.424795381996562"><ele>203.0</ele><time>2026-04-09T08:20:43Z</time></trkpt><trkpt lat="45.76746898698471" lon="9.424782413429186"><ele>203.0</ele><time>2026-04-09T08:20:44Z</time></trkpt><trkpt lat="45.767586018925435" lon="9.424775141075541"><ele>203.0</ele><time>2026-04-09T08:20:45Z</time></trkpt><trkpt lat="45.767704119592835" lon="9.42477111482387"><ele>203.0</ele><time>2026-04-09T08:20:46Z</time></trkpt><trkpt lat="45.76782136881742" lon="9.42477212092362"><ele>203.0</ele><time>2026-04-09T08:20:47Z</time></trkpt><trkpt lat="45.7679372177547" lon="9.42477846725643"><ele>202.5</ele><time>2026-04-09T08:20:48Z</time></trkpt><trkpt lat="45.768054918950945" lon="9.424772847743846"><ele>202.0</ele><time>2026-04-09T08:20:49Z</time></trkpt><trkpt lat="45.768170293699" lon="9.424777991075853"><ele>201.5</ele><time>2026-04-09T08:20:50Z</time></trkpt><trkpt lat="45.76827936487708" lon="9.424785594392892"><ele>201.0</ele><time>2026-04-09T08:20:51Z</time></trkpt><trkpt lat="45.768398965693116" lon="9.424804090798876"><ele>201.0</ele><time>2026-04-09T08:20:52Z</time></trkpt><trkpt lat="45.76851577673661" lon="9.42480795363609"><ele>201.0</ele><time>2026-04-09T08:20:53Z</time></trkpt><trkpt lat="45.76863723533235" lon="9.424809917942953"><ele>201.0</ele><time>2026-04-09T08:20:54Z</time></trkpt><trkpt lat="45.76876815635663" lon="9.42482615888213"><ele>201.0</ele><time>2026-04-09T08:20:55Z</time></trkpt><trkpt lat="45.76889801399477" lon="9.42483570409918"><ele>201.25</ele><time>2026-04-09T08:20:56Z</time></trkpt><trkpt lat="45.769037592950696" lon="9.424848243154289"><ele>201.5</ele><time>2026-04-09T08:20:57Z</time></trkpt><trkpt lat="45.769176795697284" lon="9.424858782493567"><ele>201.75</ele><time>2026-04-09T08:20:58Z</time></trkpt><trkpt lat="45.76931795062983" lon="9.424868585266944"><ele>202.0</ele><time>2026-04-09T08:20:59Z</time></trkpt><trkpt lat="45.76945838679747" lon="9.424878576839669"><ele>202.25</ele><time>2026-04-09T08:21:00Z</time></trkpt><trkpt lat="45.7695931084533" lon="9.424888487141988"><ele>202.5</ele><time>2026-04-09T08:21:01Z</time></trkpt><trkpt lat="45.76972808687057" lon="9.42490962026229"><ele>202.75</ele><time>2026-04-09T08:21:02Z</time></trkpt><trkpt lat="45.76985397081286" lon="9.424918132974105"><ele>203.0</ele><time>2026-04-09T08:21:03Z</time></trkpt><trkpt lat="45.769976545633085" lon="9.42492666608793"><ele>203.0</ele><time>2026-04-09T08:21:04Z</time></trkpt><trkpt lat="45.770098810461946" lon="9.42493529536511"><ele>203.0</ele><time>2026-04-09T08:21:05Z</time></trkpt><trkpt lat="45.77022310899622" lon="9.42494419147046"><ele>203.0</ele><time>2026-04-09T08:21:06Z</time></trkpt><trkpt lat="45.77035113955617" lon="9.42495625067173"><ele>203.0</ele><time>2026-04-09T08:21:07Z</time></trkpt><trkpt lat="45.77048122367561" lon="9.424967240006277"><ele>202.25</ele><time>2026-04-09T08:21:08Z</time></trkpt><trkpt lat="45.770611430954396" lon="9.424976668819752"><ele>201.5</ele><time>2026-04-09T08:21:09Z</time></trkpt><trkpt lat="45.77073885803663" lon="9.424985589736464"><ele>200.75</ele><time>2026-04-09T08:21:10Z</time></trkpt><trkpt lat="45.770866661344094" lon="9.42499212031928"><ele>200.0</ele><time>2026-04-09T08:21:11Z</time></trkpt><trkpt lat="45.77099278629627" lon="9.425000282508092"><ele>200.5</ele><time>2026-04-09T08:21:12Z</time></trkpt><trkpt lat="45.771115945431" lon="9.42501378689035"><ele>201.0</ele><time>2026-04-09T08:21:13Z</time></trkpt><trkpt lat="45.77124478273453" lon="9.425025399158347"><ele>201.5</ele><time>2026-04-09T08:21:14Z</time></trkpt><trkpt lat="45.77137249080066" lon="9.425033403656602"><ele>202.0</ele><time>2026-04-09T08:21:15Z</time></trkpt><trkpt lat="45.77150635096699" lon="9.425042570988536"><ele>202.0</ele><time>2026-04-09T08:21:16Z</time></trkpt><trkpt lat="45.771642047427314" lon="9.425050301253663"><ele>202.0</ele><time>2026-04-09T08:21:17Z</time></trkpt><trkpt lat="45.77178217721689" lon="9.425078462360482"><ele>202.0</ele><time>2026-04-09T08:21:18Z</time></trkpt><trkpt lat="45.77192092461491" lon="9.425093497868643"><ele>202.0</ele><time>2026-04-09T08:21:19Z</time></trkpt><trkpt lat="45.77205666986339" lon="9.425104718739885"><ele>202.75</ele><time>2026-04-09T08:21:20Z</time></trkpt><trkpt lat="45.77219034857773" lon="9.425110332153215"><ele>203.5</ele><time>2026-04-09T08:21:21Z</time></trkpt><trkpt lat="45.77231240795332" lon="9.425117336207494"><ele>204.25</ele><time>2026-04-09T08:21:22Z</time></trkpt><trkpt lat="45.772433711948956" lon="9.42512316586583"><ele>205.0</ele><time>2026-04-09T08:21:23Z</time></trkpt><trkpt lat="45.77254544498123" lon="9.425130466437166"><ele>205.0</ele><time>2026-04-09T08:21:24Z</time></trkpt><trkpt lat="45.77266051908195" lon="9.425134827425826"><ele>205.0</ele><time>2026-04-09T08:21:25Z</time></trkpt><trkpt lat="45.7727699565284" lon="9.42513785054036"><ele>205.0</ele><time>2026-04-09T08:21:26Z</time></trkpt><trkpt lat="45.7728889359222" lon="9.425150694900598"><ele>205.0</ele><time>2026-04-09T08:21:27Z</time></trkpt><trkpt lat="45.773007587053414" lon="9.42515472044353"><ele>205.0</ele><time>2026-04-09T08:21:28Z</time></trkpt><trkpt lat="45.77312693720672" lon="9.425171016267628"><ele>205.0</ele><time>2026-04-09T08:21:29Z</time></trkpt><trkpt lat="45.773245414391646" lon="9.4251836095189"><ele>205.0</ele><time>2026-04-09T08:21:30Z</time></trkpt><trkpt lat="45.77336549220658" lon="9.42519468517298"><ele>205.0</ele><time>2026-04-09T08:21:31Z</time></trkpt><trkpt lat="45.77347774182722" lon="9.425206533819393"><ele>205.75</ele><time>2026-04-09T08:21:32Z</time></trkpt><trkpt lat="45.773598532973494" lon="9.42521767701605"><ele>206.5</ele><time>2026-04-09T08:21:33Z</time></trkpt><trkpt lat="45.773715755880254" lon="9.42522645524736"><ele>207.25</ele><time>2026-04-09T08:21:34Z</time></trkpt><trkpt lat="45.773829265911324" lon="9.42523598837925"><ele>208.0</ele><time>2026-04-09T08:21:35Z</time></trkpt><trkpt lat="45.773937491697104" lon="9.425240879558483"><ele>208.0</ele><time>2026-04-09T08:21:36Z</time></trkpt><trkpt lat="45.77404356756802" lon="9.425247109219754"><ele>208.0</ele><time>2026-04-09T08:21:37Z</time></trkpt><trkpt lat="45.774139564606315" lon="9.425255554988805"><ele>208.0</ele><time>2026-04-09T08:21:38Z</time></trkpt><trkpt lat="45.77423423749" lon="9.425263280501104"><ele>208.0</ele><time>2026-04-09T08:21:39Z</time></trkpt><trkpt lat="45.77432326592131" lon="9.425268246374404"><ele>208.0</ele><time>2026-04-09T08:21:40Z</time></trkpt><trkpt lat="45.77440710494728" lon="9.425276590002204"><ele>208.16666666666666</ele><time>2026-04-09T08:21:41Z</time></trkpt><trkpt lat="45.774494033649034" lon="9.42528256718752"><ele>208.33333333333331</ele><time>2026-04-09T08:21:42Z</time></trkpt><trkpt lat="45.77458241927794" lon="9.425291555005398"><ele>208.5</ele><time>2026-04-09T08:21:43Z</time></trkpt><trkpt lat="45.77466799280383" lon="9.425295367989948"><ele>208.66666666666669</ele><time>2026-04-09T08:21:44Z</time></trkpt><trkpt lat="45.774748032945034" lon="9.425306063807387"><ele>208.83333333333334</ele><time>2026-04-09T08:21:45Z</time></trkpt><trkpt lat="45.77483209283609" lon="9.425318092996905"><ele>209.0</ele><time>2026-04-09T08:21:46Z</time></trkpt><trkpt lat="45.774914737814115" lon="9.425325798224039"><ele>209.00000000000003</ele><time>2026-04-09T08:21:47Z</time></trkpt><trkpt lat="45.77498477859907" lon="9.425336689526917"><ele>209.0</ele><time>2026-04-09T08:21:48Z</time></trkpt><trkpt lat="45.77505345127346" lon="9.425348683927355"><ele>209.0</ele><time>2026-04-09T08:21:49Z</time></trkpt><trkpt lat="45.77517346243638" lon="9.425365183565034"><ele>209.0</ele><time>2026-04-09T08:21:51Z</time></trkpt><trkpt lat="45.77523867536537" lon="9.425377349184311"><ele>209.00000000000003</ele><time>2026-04-09T08:21:52Z</time></trkpt><trkpt lat="45.775335832183444" lon="9.42540321303503"><ele>209.0</ele><time>2026-04-09T08:21:54Z</time></trkpt><trkpt lat="45.77544656747485" lon="9.42543355960624"><ele>208.2</ele><time>2026-04-09T08:21:56Z</time></trkpt><trkpt lat="45.77556576055114" lon="9.425488227025543"><ele>207.39999999999998</ele><time>2026-04-09T08:21:58Z</time></trkpt><trkpt lat="45.77567695727786" lon="9.425580207919726"><ele>206.6</ele><time>2026-04-09T08:22:00Z</time></trkpt><trkpt lat="45.77572928818721" lon="9.425643090329972"><ele>205.8</ele><time>2026-04-09T08:22:01Z</time></trkpt><trkpt lat="45.77578319586353" lon="9.425707451578349"><ele>205.0</ele><time>2026-04-09T08:22:02Z</time></trkpt><trkpt lat="45.775858715791784" lon="9.425749793749201"><ele>205.0</ele><time>2026-04-09T08:22:03Z</time></trkpt><trkpt lat="45.775966242497844" lon="9.42576159335568"><ele>205.0</ele><time>2026-04-09T08:22:04Z</time></trkpt><trkpt lat="45.77607866963294" lon="9.425762082969962"><ele>205.0</ele><time>2026-04-09T08:22:05Z</time></trkpt><trkpt lat="45.77618539651437" lon="9.425778591782313"><ele>205.0</ele><time>2026-04-09T08:22:06Z</time></trkpt><trkpt lat="45.776292387327125" lon="9.425799261111793"><ele>205.0</ele><time>2026-04-09T08:22:07Z</time></trkpt><trkpt lat="45.77641561590351" lon="9.425823872273652"><ele>206.5</ele><time>2026-04-09T08:22:08Z</time></trkpt><trkpt lat="45.77654471282682" lon="9.425843831088667"><ele>208.0</ele><time>2026-04-09T08:22:09Z</time></trkpt><trkpt lat="45.77667810788453" lon="9.425854234258619"><ele>209.5</ele><time>2026-04-09T08:22:10Z</time></trkpt><trkpt lat="45.776817645159305" lon="9.425856848429659"><ele>211.0</ele><time>2026-04-09T08:22:11Z</time></trkpt><trkpt lat="45.7769654361688" lon="9.425844865864638"><ele>211.5</ele><time>2026-04-09T08:22:12Z</time></trkpt><trkpt lat="45.77711871166063" lon="9.425824289012676"><ele>212.0</ele><time>2026-04-09T08:22:13Z</time></trkpt><trkpt lat="45.77726789980595" lon="9.425782969728903"><ele>212.5</ele><time>2026-04-09T08:22:14Z</time></trkpt><trkpt lat="45.77740175262113" lon="9.425728348186194"><ele>213.0</ele><time>2026-04-09T08:22:15Z</time></trkpt><trkpt lat="45.77754133049345" lon="9.425670349510902"><ele>213.75</ele><time>2026-04-09T08:22:16Z</time></trkpt><trkpt lat="45.77768606294403" lon="9.425607053165864"><ele>214.5</ele><time>2026-04-09T08:22:17Z</time></trkpt><trkpt lat="45.77782488897159" lon="9.42553865851676"><ele>215.25</ele><time>2026-04-09T08:22:18Z</time></trkpt><trkpt lat="45.777968340078665" lon="9.425471752339096"><ele>216.0</ele><time>2026-04-09T08:22:19Z</time></trkpt><trkpt lat="45.77811132544347" lon="9.42540799921014"><ele>217.66666666666669</ele><time>2026-04-09T08:22:20Z</time></trkpt><trkpt lat="45.77825578764506" lon="9.425341891303102"><ele>219.33333333333334</ele><time>2026-04-09T08:22:21Z</time></trkpt><trkpt lat="45.778400202127216" lon="9.425273186286374"><ele>221.0</ele><time>2026-04-09T08:22:22Z</time></trkpt><trkpt lat="45.77854575826946" lon="9.425201567118059"><ele>221.0</ele><time>2026-04-09T08:22:23Z</time></trkpt><trkpt lat="45.77869692380435" lon="9.425125874107307"><ele>221.0</ele><time>2026-04-09T08:22:24Z</time></trkpt><trkpt lat="45.77884323960932" lon="9.425058579473747"><ele>221.0</ele><time>2026-04-09T08:22:25Z</time></trkpt><trkpt lat="45.77897764369024" lon="9.425006403446954"><ele>221.0</ele><time>2026-04-09T08:22:26Z</time></trkpt><trkpt lat="45.779122883943124" lon="9.424957077519366"><ele>221.0</ele><time>2026-04-09T08:22:27Z</time></trkpt><trkpt lat="45.77926578476853" lon="9.424908415592284"><ele>221.0</ele><time>2026-04-09T08:22:28Z</time></trkpt><trkpt lat="45.77940395374917" lon="9.424864823715257"><ele>221.0</ele><time>2026-04-09T08:22:29Z</time></trkpt><trkpt lat="45.77954341025256" lon="9.424821466401337"><ele>220.5</ele><time>2026-04-09T08:22:30Z</time></trkpt><trkpt lat="45.77967813665039" lon="9.424783414336822"><ele>220.0</ele><time>2026-04-09T08:22:31Z</time></trkpt><trkpt lat="45.77980617029913" lon="9.424745939462875"><ele>219.5</ele><time>2026-04-09T08:22:32Z</time></trkpt><trkpt lat="45.779927446212625" lon="9.424716746058715"><ele>219.0</ele><time>2026-04-09T08:22:33Z</time></trkpt><trkpt lat="45.78003853723904" lon="9.4246890070763"><ele>219.0</ele><time>2026-04-09T08:22:34Z</time></trkpt><trkpt lat="45.78014949095784" lon="9.424658870775271"><ele>219.0</ele><time>2026-04-09T08:22:35Z</time></trkpt><trkpt lat="45.780265471882025" lon="9.424630023883822"><ele>219.0</ele><time>2026-04-09T08:22:36Z</time></trkpt><trkpt lat="45.78037226994207" lon="9.424601106486675"><ele>219.0</ele><time>2026-04-09T08:22:37Z</time></trkpt><trkpt lat="45.780481847345904" lon="9.42457066316761"><ele>219.16666666666666</ele><time>2026-04-09T08:22:38Z</time></trkpt><trkpt lat="45.780580012325636" lon="9.424544666402324"><ele>219.33333333333331</ele><time>2026-04-09T08:22:39Z</time></trkpt><trkpt lat="45.78067930936538" lon="9.424519619550715"><ele>219.5</ele><time>2026-04-09T08:22:40Z</time></trkpt><trkpt lat="45.78077227479145" lon="9.424500164306721"><ele>219.66666666666666</ele><time>2026-04-09T08:22:41Z</time></trkpt><trkpt lat="45.780850224346295" lon="9.424473613627528"><ele>219.83333333333331</ele><time>2026-04-09T08:22:42Z</time></trkpt><trkpt lat="45.78092013650196" lon="9.424449886735998"><ele>220.0</ele><time>2026-04-09T08:22:43Z</time></trkpt><trkpt lat="45.781025817957094" lon="9.424398288297425"><ele>220.0</ele><time>2026-04-09T08:22:45Z</time></trkpt><trkpt lat="45.78113307971421" lon="9.42438860342514"><ele>220.0</ele><time>2026-04-09T08:22:47Z</time></trkpt><trkpt lat="45.78120330204396" lon="9.424392034687074"><ele>220.0</ele><time>2026-04-09T08:22:49Z</time></trkpt><trkpt lat="45.781287948981834" lon="9.424368947062378"><ele>220.0</ele><time>2026-04-09T08:22:51Z</time></trkpt><trkpt lat="45.78137543595993" lon="9.424344855983104"><ele>220.0</ele><time>2026-04-09T08:22:53Z</time></trkpt><trkpt lat="45.7814737005736" lon="9.424317797071456"><ele>220.0</ele><time>2026-04-09T08:22:55Z</time></trkpt><trkpt lat="45.78156231234197" lon="9.424295392263435"><ele>220.0</ele><time>2026-04-09T08:22:57Z</time></trkpt><trkpt lat="45.78164208692537" lon="9.42427563904432"><ele>220.0</ele><time>2026-04-09T08:22:59Z</time></trkpt><trkpt lat="45.78171428383791" lon="9.424236579226658"><ele>220.0</ele><time>2026-04-09T08:23:01Z</time></trkpt><trkpt lat="45.781819343393714" lon="9.424237760533362"><ele>220.0</ele><time>2026-04-09T08:23:04Z</time></trkpt><trkpt lat="45.78193086671564" lon="9.424246924604311"><ele>220.6</ele><time>2026-04-09T08:23:06Z</time></trkpt><trkpt lat="45.78200594670092" lon="9.424213910620363"><ele>221.2</ele><time>2026-04-09T08:23:07Z</time></trkpt><trkpt lat="45.782068004125875" lon="9.424173684243335"><ele>221.8</ele><time>2026-04-09T08:23:08Z</time></trkpt><trkpt lat="45.78215862033536" lon="9.424138565248827"><ele>222.4</ele><time>2026-04-09T08:23:09Z</time></trkpt><trkpt lat="45.782256547432766" lon="9.424117898614385"><ele>223.0</ele><time>2026-04-09T08:23:10Z</time></trkpt><trkpt lat="45.78236621958573" lon="9.424088517610247"><ele>223.0</ele><time>2026-04-09T08:23:11Z</time></trkpt><trkpt lat="45.78246068046111" lon="9.424057244653497"><ele>223.0</ele><time>2026-04-09T08:23:12Z</time></trkpt><trkpt lat="45.782557517155084" lon="9.424022765008369"><ele>223.0</ele><time>2026-04-09T08:23:13Z</time></trkpt><trkpt lat="45.78266162345281" lon="9.423984407066413"><ele>223.0</ele><time>2026-04-09T08:23:14Z</time></trkpt><trkpt lat="45.782746517725485" lon="9.423946772508629"><ele>223.0</ele><time>2026-04-09T08:23:15Z</time></trkpt><trkpt lat="45.782828747534474" lon="9.423916884933904"><ele>222.99999999999997</ele><time>2026-04-09T08:23:16Z</time></trkpt><trkpt lat="45.78291565457886" lon="9.423891682473881"><ele>223.0</ele><time>2026-04-09T08:23:17Z</time></trkpt><trkpt lat="45.782994938700334" lon="9.423869259902826"><ele>223.0</ele><time>2026-04-09T08:23:18Z</time></trkpt><trkpt lat="45.78309020684674" lon="9.42389871337427"><ele>223.0</ele><time>2026-04-09T08:23:19Z</time></trkpt><trkpt lat="45.78316760569172" lon="9.423875921327136"><ele>222.99999999999997</ele><time>2026-04-09T08:23:20Z</time></trkpt><trkpt lat="45.78325160941754" lon="9.423849345997661"><ele>223.0</ele><time>2026-04-09T08:23:21Z</time></trkpt><trkpt lat="45.78333555390158" lon="9.423821442804307"><ele>222.83333333333331</ele><time>2026-04-09T08:23:22Z</time></trkpt><trkpt lat="45.78341781295297" lon="9.423792655385574"><ele>222.66666666666666</ele><time>2026-04-09T08:23:23Z</time></trkpt><trkpt lat="45.78350565113716" lon="9.42375799856742"><ele>222.5</ele><time>2026-04-09T08:23:24Z</time></trkpt><trkpt lat="45.78358460987929" lon="9.423718687668995"><ele>222.33333333333331</ele><time>2026-04-09T08:23:25Z</time></trkpt><trkpt lat="45.7836594295873" lon="9.423678453043475"><ele>222.16666666666666</ele><time>2026-04-09T08:23:26Z</time></trkpt><trkpt lat="45.78373208906367" lon="9.423636039587386"><ele>222.0</ele><time>2026-04-09T08:23:27Z</time></trkpt><trkpt lat="45.783796685274076" lon="9.423598471473024"><ele>221.66666666666666</ele><time>2026-04-09T08:23:28Z</time></trkpt><trkpt lat="45.783868621064364" lon="9.423553357912786"><ele>221.33333333333331</ele><time>2026-04-09T08:23:29Z</time></trkpt><trkpt lat="45.78394713905628" lon="9.42350059713089"><ele>221.0</ele><time>2026-04-09T08:23:30Z</time></trkpt><trkpt lat="45.784025321538024" lon="9.4234461746556"><ele>220.66666666666666</ele><time>2026-04-09T08:23:31Z</time></trkpt><trkpt lat="45.78410174963213" lon="9.423392103718488"><ele>220.33333333333331</ele><time>2026-04-09T08:23:32Z</time></trkpt><trkpt lat="45.78417256082726" lon="9.42333900978612"><ele>220.0</ele><time>2026-04-09T08:23:33Z</time></trkpt><trkpt lat="45.78422935336204" lon="9.42329555407555"><ele>220.0</ele><time>2026-04-09T08:23:34Z</time></trkpt><trkpt lat="45.784290982046976" lon="9.423248288958026"><ele>220.0</ele><time>2026-04-09T08:23:35Z</time></trkpt><trkpt lat="45.78438206051073" lon="9.423174657468136"><ele>220.0</ele><time>2026-04-09T08:23:37Z</time></trkpt><trkpt lat="45.78446179469314" lon="9.42309400332888"><ele>220.0</ele><time>2026-04-09T08:23:39Z</time></trkpt><trkpt lat="45.78453590289249" lon="9.422996954720674"><ele>220.0</ele><time>2026-04-09T08:23:41Z</time></trkpt><trkpt lat="45.784641548182876" lon="9.422928007811542"><ele>220.14285714285714</ele><time>2026-04-09T08:23:43Z</time></trkpt><trkpt lat="45.784708955526554" lon="9.42287635314536"><ele>220.28571428571428</ele><time>2026-04-09T08:23:44Z</time></trkpt><trkpt lat="45.784776984914416" lon="9.422822429041647"><ele>220.42857142857144</ele><time>2026-04-09T08:23:45Z</time></trkpt><trkpt lat="45.78483855917633" lon="9.422770115472757"><ele>220.57142857142856</ele><time>2026-04-09T08:23:46Z</time></trkpt><trkpt lat="45.784894221680624" lon="9.422707676466482"><ele>220.71428571428572</ele><time>2026-04-09T08:23:47Z</time></trkpt><trkpt lat="45.78495867707563" lon="9.422689419273208"><ele>220.85714285714286</ele><time>2026-04-09T08:23:48Z</time></trkpt><trkpt lat="45.785016451452655" lon="9.422642903743341"><ele>221.0</ele><time>2026-04-09T08:23:49Z</time></trkpt><trkpt lat="45.78507855493601" lon="9.422592102236948"><ele>221.00000000000003</ele><time>2026-04-09T08:23:50Z</time></trkpt><trkpt lat="45.78516532229264" lon="9.422490112785505"><ele>221.0</ele><time>2026-04-09T08:23:52Z</time></trkpt><trkpt lat="45.78526025637041" lon="9.42240017142581"><ele>221.0</ele><time>2026-04-09T08:23:54Z</time></trkpt><trkpt lat="45.785318528772855" lon="9.422363056176415"><ele>221.0</ele><time>2026-04-09T08:23:55Z</time></trkpt><trkpt lat="45.78537582243711" lon="9.422321540985239"><ele>221.00000000000003</ele><time>2026-04-09T08:23:56Z</time></trkpt><trkpt lat="45.78543498925042" lon="9.42228328380172"><ele>221.0</ele><time>2026-04-09T08:23:57Z</time></trkpt><trkpt lat="45.78549335044895" lon="9.422230988517123"><ele>220.50000000000003</ele><time>2026-04-09T08:23:58Z</time></trkpt><trkpt lat="45.7855587150588" lon="9.422177045295841"><ele>220.0</ele><time>2026-04-09T08:23:59Z</time></trkpt><trkpt lat="45.78563265778995" lon="9.422114333258374"><ele>219.5</ele><time>2026-04-09T08:24:00Z</time></trkpt><trkpt lat="45.78571454358988" lon="9.422051516887198"><ele>219.0</ele><time>2026-04-09T08:24:01Z</time></trkpt><trkpt lat="45.785787187473495" lon="9.421988480116074"><ele>218.50000000000003</ele><time>2026-04-09T08:24:02Z</time></trkpt><trkpt lat="45.785870429958024" lon="9.421914618779255"><ele>218.0</ele><time>2026-04-09T08:24:03Z</time></trkpt><trkpt lat="45.78595554197274" lon="9.421845896572863"><ele>217.4</ele><time>2026-04-09T08:24:04Z</time></trkpt><trkpt lat="45.78604450581402" lon="9.42177063179089"><ele>216.8</ele><time>2026-04-09T08:24:05Z</time></trkpt><trkpt lat="45.78613643841644" lon="9.421695687046688"><ele>216.2</ele><time>2026-04-09T08:24:06Z</time></trkpt><trkpt lat="45.78622833687175" lon="9.4216206738094"><ele>215.6</ele><time>2026-04-09T08:24:07Z</time></trkpt><trkpt lat="45.786317258913705" lon="9.421551487126042"><ele>215.0</ele><time>2026-04-09T08:24:08Z</time></trkpt><trkpt lat="45.786414795244355" lon="9.421485401105873"><ele>215.0</ele><time>2026-04-09T08:24:09Z</time></trkpt><trkpt lat="45.786513966251164" lon="9.421402052992113"><ele>215.0</ele><time>2026-04-09T08:24:10Z</time></trkpt><trkpt lat="45.786614088208445" lon="9.421321384098544"><ele>215.0</ele><time>2026-04-09T08:24:11Z</time></trkpt><trkpt lat="45.78670617449925" lon="9.421238317505452"><ele>215.0</ele><time>2026-04-09T08:24:12Z</time></trkpt><trkpt lat="45.786812961015215" lon="9.421155863334464"><ele>214.75</ele><time>2026-04-09T08:24:13Z</time></trkpt><trkpt lat="45.78691746662553" lon="9.421072217132824"><ele>214.5</ele><time>2026-04-09T08:24:14Z</time></trkpt><trkpt lat="45.78702797699025" lon="9.420987517429438"><ele>214.25</ele><time>2026-04-09T08:24:15Z</time></trkpt><trkpt lat="45.787142994569244" lon="9.420895903177687"><ele>214.0</ele><time>2026-04-09T08:24:16Z</time></trkpt><trkpt lat="45.787260280469724" lon="9.420797679840675"><ele>214.0</ele><time>2026-04-09T08:24:17Z</time></trkpt><trkpt lat="45.787379492398024" lon="9.420696752566315"><ele>214.0</ele><time>2026-04-09T08:24:18Z</time></trkpt><trkpt lat="45.78749737776164" lon="9.42059908359029"><ele>214.0</ele><time>2026-04-09T08:24:19Z</time></trkpt><trkpt lat="45.78761553081435" lon="9.420507454943737"><ele>214.0</ele><time>2026-04-09T08:24:20Z</time></trkpt><trkpt lat="45.787726911455394" lon="9.420416225345253"><ele>214.0</ele><time>2026-04-09T08:24:21Z</time></trkpt><trkpt lat="45.787842731507496" lon="9.420323930416759"><ele>214.0</ele><time>2026-04-09T08:24:22Z</time></trkpt><trkpt lat="45.7879545127086" lon="9.420230770202718"><ele>214.0</ele><time>2026-04-09T08:24:23Z</time></trkpt><trkpt lat="45.788064540459935" lon="9.420136676611694"><ele>214.0</ele><time>2026-04-09T08:24:24Z</time></trkpt><trkpt lat="45.78817800442365" lon="9.420041282762742"><ele>214.0</ele><time>2026-04-09T08:24:25Z</time></trkpt><trkpt lat="45.78829517913378" lon="9.419940290485112"><ele>214.0</ele><time>2026-04-09T08:24:26Z</time></trkpt><trkpt lat="45.788409466950775" lon="9.419837667640568"><ele>214.0</ele><time>2026-04-09T08:24:27Z</time></trkpt><trkpt lat="45.78851734915395" lon="9.419728789400581"><ele>214.0</ele><time>2026-04-09T08:24:28Z</time></trkpt><trkpt lat="45.788625848042464" lon="9.419624661299085"><ele>213.6</ele><time>2026-04-09T08:24:29Z</time></trkpt><trkpt lat="45.788720241879815" lon="9.41951401797716"><ele>213.2</ele><time>2026-04-09T08:24:30Z</time></trkpt><trkpt lat="45.788808122498345" lon="9.419407440481354"><ele>212.79999999999998</ele><time>2026-04-09T08:24:31Z</time></trkpt><trkpt lat="45.78889288522283" lon="9.419311966181667"><ele>212.39999999999998</ele><time>2026-04-09T08:24:32Z</time></trkpt><trkpt lat="45.788962713126715" lon="9.419215282768569"><ele>212.0</ele><time>2026-04-09T08:24:33Z</time></trkpt><trkpt lat="45.78903827761213" lon="9.419125221586494"><ele>212.00000000000003</ele><time>2026-04-09T08:24:34Z</time></trkpt><trkpt lat="45.78910670652874" lon="9.419044710335159"><ele>212.0</ele><time>2026-04-09T08:24:35Z</time></trkpt><trkpt lat="45.7891759915603" lon="9.418963855643147"><ele>212.0</ele><time>2026-04-09T08:24:36Z</time></trkpt><trkpt lat="45.78924435803259" lon="9.418876826714897"><ele>212.0</ele><time>2026-04-09T08:24:37Z</time></trkpt><trkpt lat="45.78931424260339" lon="9.41882184731628"><ele>212.00000000000003</ele><time>2026-04-09T08:24:38Z</time></trkpt><trkpt lat="45.789386973132046" lon="9.418787197954503"><ele>212.0</ele><time>2026-04-09T08:24:39Z</time></trkpt><trkpt lat="45.789463857165835" lon="9.418757757812012"><ele>211.66666666666669</ele><time>2026-04-09T08:24:40Z</time></trkpt><trkpt lat="45.789538451874904" lon="9.41872140857567"><ele>211.33333333333334</ele><time>2026-04-09T08:24:41Z</time></trkpt><trkpt lat="45.789607167606505" lon="9.418647423858111"><ele>211.0</ele><time>2026-04-09T08:24:42Z</time></trkpt><trkpt lat="45.78966410831421" lon="9.418545957654308"><ele>210.66666666666669</ele><time>2026-04-09T08:24:43Z</time></trkpt><trkpt lat="45.789695323063604" lon="9.418435818173782"><ele>210.33333333333334</ele><time>2026-04-09T08:24:44Z</time></trkpt><trkpt lat="45.78971513710143" lon="9.418291562563077"><ele>210.0</ele><time>2026-04-09T08:24:45Z</time></trkpt><trkpt lat="45.78973669241304" lon="9.41816119438135"><ele>210.0</ele><time>2026-04-09T08:24:46Z</time></trkpt><trkpt lat="45.78979634105192" lon="9.418025468932592"><ele>210.0</ele><time>2026-04-09T08:24:47Z</time></trkpt><trkpt lat="45.78986310936103" lon="9.417879141696623"><ele>210.0</ele><time>2026-04-09T08:24:48Z</time></trkpt><trkpt lat="45.78993548564565" lon="9.417732450046145"><ele>210.0</ele><time>2026-04-09T08:24:49Z</time></trkpt><trkpt lat="45.790021276527035" lon="9.417566807257705"><ele>209.66666666666669</ele><time>2026-04-09T08:24:50Z</time></trkpt><trkpt lat="45.790127364235225" lon="9.41737148676823"><ele>209.33333333333334</ele><time>2026-04-09T08:24:51Z</time></trkpt><trkpt lat="45.7902541050541" lon="9.417170906259729"><ele>209.0</ele><time>2026-04-09T08:24:52Z</time></trkpt><trkpt lat="45.79039514769909" lon="9.416948278279346"><ele>209.0</ele><time>2026-04-09T08:24:53Z</time></trkpt><trkpt lat="45.790538115970264" lon="9.416695216897574"><ele>209.0</ele><time>2026-04-09T08:24:54Z</time></trkpt><trkpt lat="45.79068467457242" lon="9.416427881482052"><ele>209.5</ele><time>2026-04-09T08:24:55Z</time></trkpt><trkpt lat="45.790837245528394" lon="9.416197386222448"><ele>210.0</ele><time>2026-04-09T08:24:56Z</time></trkpt><trkpt lat="45.790989842717615" lon="9.415935405794801"><ele>209.5</ele><time>2026-04-09T08:24:57Z</time></trkpt><trkpt lat="45.791141082830876" lon="9.41567543526624"><ele>209.0</ele><time>2026-04-09T08:24:58Z</time></trkpt><trkpt lat="45.79128160240478" lon="9.415403001304226"><ele>209.0</ele><time>2026-04-09T08:24:59Z</time></trkpt><trkpt lat="45.791436585695585" lon="9.415167121221284"><ele>209.0</ele><time>2026-04-09T08:25:00Z</time></trkpt><trkpt lat="45.79158004918354" lon="9.414944827952187"><ele>209.0</ele><time>2026-04-09T08:25:01Z</time></trkpt><trkpt lat="45.791714606704375" lon="9.414746717297179"><ele>208.66666666666669</ele><time>2026-04-09T08:25:02Z</time></trkpt><trkpt lat="45.791846358545165" lon="9.414555520369376"><ele>208.33333333333331</ele><time>2026-04-09T08:25:03Z</time></trkpt><trkpt lat="45.79197506096012" lon="9.414390862831453"><ele>208.0</ele><time>2026-04-09T08:25:04Z</time></trkpt><trkpt lat="45.79210726754938" lon="9.414230087005471"><ele>208.0</ele><time>2026-04-09T08:25:05Z</time></trkpt><trkpt lat="45.7922443784006" lon="9.41407839639947"><ele>208.0</ele><time>2026-04-09T08:25:06Z</time></trkpt><trkpt lat="45.79238176244386" lon="9.413940938240508"><ele>208.0</ele><time>2026-04-09T08:25:07Z</time></trkpt><trkpt lat="45.792521736963444" lon="9.413800499543301"><ele>208.66666666666666</ele><time>2026-04-09T08:25:08Z</time></trkpt><trkpt lat="45.79266091985086" lon="9.413675510589012"><ele>209.33333333333331</ele><time>2026-04-09T08:25:09Z</time></trkpt><trkpt lat="45.792794924535336" lon="9.41354889015944"><ele>210.0</ele><time>2026-04-09T08:25:10Z</time></trkpt><trkpt lat="45.79293380293704" lon="9.413435185503708"><ele>210.33333333333331</ele><time>2026-04-09T08:25:11Z</time></trkpt><trkpt lat="45.79307052403293" lon="9.413328818497108"><ele>210.66666666666666</ele><time>2026-04-09T08:25:12Z</time></trkpt><trkpt lat="45.79321178242254" lon="9.413235515273882"><ele>211.0</ele><time>2026-04-09T08:25:13Z</time></trkpt><trkpt lat="45.79335561373816" lon="9.413162726399863"><ele>211.0</ele><time>2026-04-09T08:25:14Z</time></trkpt><trkpt lat="45.79349889108199" lon="9.413087801684425"><ele>211.0</ele><time>2026-04-09T08:25:15Z</time></trkpt><trkpt lat="45.79362560466499" lon="9.413020535476287"><ele>211.0</ele><time>2026-04-09T08:25:16Z</time></trkpt><trkpt lat="45.793749965011706" lon="9.412959330744009"><ele>211.0</ele><time>2026-04-09T08:25:17Z</time></trkpt><trkpt lat="45.793866339655715" lon="9.412896233579191"><ele>211.5</ele><time>2026-04-09T08:25:18Z</time></trkpt><trkpt lat="45.79399284150147" lon="9.412839682076873"><ele>212.0</ele><time>2026-04-09T08:25:19Z</time></trkpt><trkpt lat="45.79411161535135" lon="9.412782051437592"><ele>212.5</ele><time>2026-04-09T08:25:20Z</time></trkpt><trkpt lat="45.79423435237675" lon="9.412715697950446"><ele>213.0</ele><time>2026-04-09T08:25:21Z</time></trkpt><trkpt lat="45.794359713122574" lon="9.412658077814465"><ele>213.25</ele><time>2026-04-09T08:25:22Z</time></trkpt><trkpt lat="45.79447930720704" lon="9.41259787905798"><ele>213.5</ele><time>2026-04-09T08:25:23Z</time></trkpt><trkpt lat="45.7946075200431" lon="9.41253724756358"><ele>213.75</ele><time>2026-04-09T08:25:24Z</time></trkpt><trkpt lat="45.79473549017763" lon="9.41247374184663"><ele>214.0</ele><time>2026-04-09T08:25:25Z</time></trkpt><trkpt lat="45.79486309052538" lon="9.412407874603911"><ele>214.0</ele><time>2026-04-09T08:25:26Z</time></trkpt><trkpt lat="45.79499038160922" lon="9.412339359946671"><ele>214.0</ele><time>2026-04-09T08:25:27Z</time></trkpt><trkpt lat="45.795124050516314" lon="9.412303170541508"><ele>214.0</ele><time>2026-04-09T08:25:28Z</time></trkpt><trkpt lat="45.79524353008555" lon="9.412244251252279"><ele>214.0</ele><time>2026-04-09T08:25:29Z</time></trkpt><trkpt lat="45.79535962624333" lon="9.412189377960713"><ele>215.75</ele><time>2026-04-09T08:25:30Z</time></trkpt><trkpt lat="45.7954715294422" lon="9.412138360090667"><ele>217.5</ele><time>2026-04-09T08:25:31Z</time></trkpt><trkpt lat="45.795583918675746" lon="9.41208596489845"><ele>219.25</ele><time>2026-04-09T08:25:32Z</time></trkpt><trkpt lat="45.79570215303485" lon="9.4120283311052"><ele>221.0</ele><time>2026-04-09T08:25:33Z</time></trkpt><trkpt lat="45.795813395708265" lon="9.411978435377177"><ele>221.0</ele><time>2026-04-09T08:25:34Z</time></trkpt><trkpt lat="45.79592551494007" lon="9.411924111560458"><ele>221.0</ele><time>2026-04-09T08:25:35Z</time></trkpt><trkpt lat="45.7960385660487" lon="9.41186912591487"><ele>221.0</ele><time>2026-04-09T08:25:36Z</time></trkpt><trkpt lat="45.79615487393186" lon="9.411810527305057"><ele>221.0</ele><time>2026-04-09T08:25:37Z</time></trkpt><trkpt lat="45.796266340741646" lon="9.41175665320691"><ele>221.25</ele><time>2026-04-09T08:25:38Z</time></trkpt><trkpt lat="45.79638416405636" lon="9.411701304345875"><ele>221.5</ele><time>2026-04-09T08:25:39Z</time></trkpt><trkpt lat="45.796509370340075" lon="9.411644907569515"><ele>221.75</ele><time>2026-04-09T08:25:40Z</time></trkpt><trkpt lat="45.79662820637621" lon="9.411588563943928"><ele>222.0</ele><time>2026-04-09T08:25:41Z</time></trkpt><trkpt lat="45.7967483115249" lon="9.411532592790483"><ele>222.25</ele><time>2026-04-09T08:25:42Z</time></trkpt><trkpt lat="45.79686938922229" lon="9.411471408857198"><ele>222.5</ele><time>2026-04-09T08:25:43Z</time></trkpt><trkpt lat="45.79698601800488" lon="9.411418134842457"><ele>222.75</ele><time>2026-04-09T08:25:44Z</time></trkpt><trkpt lat="45.797095006155985" lon="9.411364598167347"><ele>223.0</ele><time>2026-04-09T08:25:45Z</time></trkpt><trkpt lat="45.797199509971456" lon="9.41131601387457"><ele>224.8</ele><time>2026-04-09T08:25:46Z</time></trkpt><trkpt lat="45.797299085064004" lon="9.411267466518689"><ele>226.60000000000002</ele><time>2026-04-09T08:25:47Z</time></trkpt><trkpt lat="45.797391200481925" lon="9.411222098626007"><ele>228.39999999999998</ele><time>2026-04-09T08:25:48Z</time></trkpt><trkpt lat="45.79748272233419" lon="9.411178499681945"><ele>230.2</ele><time>2026-04-09T08:25:49Z</time></trkpt><trkpt lat="45.79756850710579" lon="9.411136102900306"><ele>232.0</ele><time>2026-04-09T08:25:50Z</time></trkpt><trkpt lat="45.79765070542665" lon="9.411098015240494"><ele>231.16666666666666</ele><time>2026-04-09T08:25:51Z</time></trkpt><trkpt lat="45.79773726776167" lon="9.411083071448257"><ele>230.33333333333331</ele><time>2026-04-09T08:25:52Z</time></trkpt><trkpt lat="45.797822637498165" lon="9.41104486532978"><ele>229.5</ele><time>2026-04-09T08:25:53Z</time></trkpt><trkpt lat="45.79789773103299" lon="9.411007248055725"><ele>228.66666666666669</ele><time>2026-04-09T08:25:54Z</time></trkpt><trkpt lat="45.797965621123346" lon="9.410972593328415"><ele>227.83333333333334</ele><time>2026-04-09T08:25:55Z</time></trkpt><trkpt lat="45.79802868943856" lon="9.410940314994061"><ele>227.0</ele><time>2026-04-09T08:25:56Z</time></trkpt><trkpt lat="45.798137345158175" lon="9.410893241966454"><ele>227.0</ele><time>2026-04-09T08:25:58Z</time></trkpt><trkpt lat="45.79822524838756" lon="9.410842215732536"><ele>227.0</ele><time>2026-04-09T08:26:00Z</time></trkpt><trkpt lat="45.798361399706934" lon="9.410782101582258"><ele>227.0</ele><time>2026-04-09T08:26:02Z</time></trkpt><trkpt lat="45.798444206092036" lon="9.410738273865539"><ele>227.0</ele><time>2026-04-09T08:26:03Z</time></trkpt><trkpt lat="45.79853621358958" lon="9.410696900818653"><ele>227.0</ele><time>2026-04-09T08:26:04Z</time></trkpt><trkpt lat="45.798622330571106" lon="9.410652823799632"><ele>227.39999999999998</ele><time>2026-04-09T08:26:05Z</time></trkpt><trkpt lat="45.798719175873664" lon="9.410612707778705"><ele>227.79999999999998</ele><time>2026-04-09T08:26:06Z</time></trkpt><trkpt lat="45.79882165655853" lon="9.4105680256171"><ele>228.2</ele><time>2026-04-09T08:26:07Z</time></trkpt><trkpt lat="45.79892614328499" lon="9.410523847089543"><ele>228.6</ele><time>2026-04-09T08:26:08Z</time></trkpt><trkpt lat="45.79903933405897" lon="9.41047681687881"><ele>229.0</ele><time>2026-04-09T08:26:09Z</time></trkpt><trkpt lat="45.79913239806074" lon="9.410431797959962"><ele>229.0</ele><time>2026-04-09T08:26:10Z</time></trkpt><trkpt lat="45.7992173122413" lon="9.410382536687711"><ele>228.99999999999997</ele><time>2026-04-09T08:26:11Z</time></trkpt><trkpt lat="45.79931281202807" lon="9.410336933704041"><ele>228.99999999999997</ele><time>2026-04-09T08:26:12Z</time></trkpt><trkpt lat="45.79941529960249" lon="9.410289351282156"><ele>229.0</ele><time>2026-04-09T08:26:13Z</time></trkpt><trkpt lat="45.799524531233054" lon="9.410238834034818"><ele>229.0</ele><time>2026-04-09T08:26:14Z</time></trkpt><trkpt lat="45.799628188189494" lon="9.410184683485495"><ele>228.0</ele><time>2026-04-09T08:26:15Z</time></trkpt><trkpt lat="45.799728387037234" lon="9.41013759447122"><ele>226.99999999999997</ele><time>2026-04-09T08:26:16Z</time></trkpt><trkpt lat="45.799816510766476" lon="9.410092099946047"><ele>225.99999999999997</ele><time>2026-04-09T08:26:17Z</time></trkpt><trkpt lat="45.79990066077265" lon="9.410054060842974"><ele>225.0</ele><time>2026-04-09T08:26:18Z</time></trkpt><trkpt lat="45.79998211953531" lon="9.410013594709266"><ele>224.0</ele><time>2026-04-09T08:26:19Z</time></trkpt><trkpt lat="45.800069413963215" lon="9.409996715729159"><ele>224.0</ele><time>2026-04-09T08:26:20Z</time></trkpt><trkpt lat="45.800134478169916" lon="9.409967062194234"><ele>223.99999999999997</ele><time>2026-04-09T08:26:21Z</time></trkpt><trkpt lat="45.80023424332706" lon="9.409917094721502"><ele>223.99999999999997</ele><time>2026-04-09T08:26:23Z</time></trkpt><trkpt lat="45.80032699803575" lon="9.409874517291545"><ele>224.0</ele><time>2026-04-09T08:26:25Z</time></trkpt><trkpt lat="45.80040766819363" lon="9.4098476340552"><ele>224.0</ele><time>2026-04-09T08:26:27Z</time></trkpt><trkpt lat="45.8005282559987" lon="9.40982606170185"><ele>223.83333333333334</ele><time>2026-04-09T08:26:29Z</time></trkpt><trkpt lat="45.80059525977541" lon="9.409802247567"><ele>223.66666666666669</ele><time>2026-04-09T08:26:30Z</time></trkpt><trkpt lat="45.80066184958586" lon="9.409754826958183"><ele>223.5</ele><time>2026-04-09T08:26:31Z</time></trkpt><trkpt lat="45.80073392023068" lon="9.40969446252993"><ele>223.33333333333331</ele><time>2026-04-09T08:26:32Z</time></trkpt><trkpt lat="45.80081370195459" lon="9.409637431345113"><ele>223.16666666666666</ele><time>2026-04-09T08:26:33Z</time></trkpt><trkpt lat="45.80090161880228" lon="9.409581041897429"><ele>223.0</ele><time>2026-04-09T08:26:34Z</time></trkpt><trkpt lat="45.80099284219854" lon="9.40951714556566"><ele>222.0</ele><time>2026-04-09T08:26:35Z</time></trkpt><trkpt lat="45.80107990527312" lon="9.409451504065308"><ele>221.0</ele><time>2026-04-09T08:26:36Z</time></trkpt><trkpt lat="45.80117044660564" lon="9.409377753335827"><ele>220.0</ele><time>2026-04-09T08:26:37Z</time></trkpt><trkpt lat="45.80126061456464" lon="9.409302059548095"><ele>219.0</ele><time>2026-04-09T08:26:38Z</time></trkpt><trkpt lat="45.80136246075705" lon="9.40923994488597"><ele>218.0</ele><time>2026-04-09T08:26:39Z</time></trkpt><trkpt lat="45.80145515825054" lon="9.409144888422071"><ele>218.0</ele><time>2026-04-09T08:26:40Z</time></trkpt><trkpt lat="45.80154752767745" lon="9.409037289290906"><ele>218.0</ele><time>2026-04-09T08:26:41Z</time></trkpt><trkpt lat="45.80163352332174" lon="9.408928063345826"><ele>218.0</ele><time>2026-04-09T08:26:42Z</time></trkpt><trkpt lat="45.80171776720846" lon="9.408817125549316"><ele>218.0</ele><time>2026-04-09T08:26:43Z</time></trkpt><trkpt lat="45.80180191927216" lon="9.408701240012723"><ele>217.5</ele><time>2026-04-09T08:26:44Z</time></trkpt><trkpt lat="45.80188492317113" lon="9.408582124052867"><ele>217.0</ele><time>2026-04-09T08:26:45Z</time></trkpt><trkpt lat="45.801968526619696" lon="9.408461602787533"><ele>216.5</ele><time>2026-04-09T08:26:46Z</time></trkpt><trkpt lat="45.802051899047484" lon="9.408344738157378"><ele>216.0</ele><time>2026-04-09T08:26:47Z</time></trkpt><trkpt lat="45.80213860866752" lon="9.408222848239236"><ele>216.0</ele><time>2026-04-09T08:26:48Z</time></trkpt><trkpt lat="45.802225749876754" lon="9.40810899475488"><ele>216.00000000000003</ele><time>2026-04-09T08:26:49Z</time></trkpt><trkpt lat="45.802302042861776" lon="9.407995069392031"><ele>216.00000000000003</ele><time>2026-04-09T08:26:50Z</time></trkpt><trkpt lat="45.802373286865674" lon="9.407879695447814"><ele>216.0</ele><time>2026-04-09T08:26:51Z</time></trkpt><trkpt lat="45.80244385560971" lon="9.407769815026233"><ele>216.0</ele><time>2026-04-09T08:26:52Z</time></trkpt><trkpt lat="45.80251255573324" lon="9.407672072480846"><ele>216.0</ele><time>2026-04-09T08:26:53Z</time></trkpt><trkpt lat="45.80257781688182" lon="9.407577266689334"><ele>216.00000000000003</ele><time>2026-04-09T08:26:54Z</time></trkpt><trkpt lat="45.80263840961293" lon="9.407475060606194"><ele>216.00000000000003</ele><time>2026-04-09T08:26:55Z</time></trkpt><trkpt lat="45.80270006009763" lon="9.40739016512705"><ele>216.0</ele><time>2026-04-09T08:26:56Z</time></trkpt><trkpt lat="45.8027681468366" lon="9.40729243114492"><ele>216.0</ele><time>2026-04-09T08:26:57Z</time></trkpt><trkpt lat="45.80284023313093" lon="9.407198561699985"><ele>214.66666666666666</ele><time>2026-04-09T08:26:58Z</time></trkpt><trkpt lat="45.8029050856533" lon="9.407117077697732"><ele>213.33333333333331</ele><time>2026-04-09T08:26:59Z</time></trkpt><trkpt lat="45.80296578572205" lon="9.407032143393192"><ele>212.0</ele><time>2026-04-09T08:27:00Z</time></trkpt><trkpt lat="45.803022179567364" lon="9.406948056138265"><ele>210.66666666666666</ele><time>2026-04-09T08:27:01Z</time></trkpt><trkpt lat="45.803072206710794" lon="9.406869435845667"><ele>209.33333333333331</ele><time>2026-04-09T08:27:02Z</time></trkpt><trkpt lat="45.80312486313565" lon="9.406790061564848"><ele>208.0</ele><time>2026-04-09T08:27:03Z</time></trkpt><trkpt lat="45.803168866022645" lon="9.406719087307287"><ele>207.99999999999997</ele><time>2026-04-09T08:27:04Z</time></trkpt><trkpt lat="45.80321811476289" lon="9.406644194313682"><ele>208.0</ele><time>2026-04-09T08:27:05Z</time></trkpt><trkpt lat="45.80326751172182" lon="9.406558715169385"><ele>208.0</ele><time>2026-04-09T08:27:06Z</time></trkpt><trkpt lat="45.80333869490695" lon="9.406510620283562"><ele>208.0</ele><time>2026-04-09T08:27:07Z</time></trkpt><trkpt lat="45.80338530017005" lon="9.406444213372136"><ele>207.99999999999997</ele><time>2026-04-09T08:27:08Z</time></trkpt><trkpt lat="45.80346383245928" lon="9.406320388738152"><ele>208.0</ele><time>2026-04-09T08:27:10Z</time></trkpt><trkpt lat="45.803554814301336" lon="9.406204737841602"><ele>207.16666666666666</ele><time>2026-04-09T08:27:12Z</time></trkpt><trkpt lat="45.80361649313827" lon="9.406139299422758"><ele>206.33333333333331</ele><time>2026-04-09T08:27:13Z</time></trkpt><trkpt lat="45.80369218248792" lon="9.406061300592736"><ele>205.5</ele><time>2026-04-09T08:27:14Z</time></trkpt><trkpt lat="45.803769774620314" lon="9.405985991128412"><ele>204.66666666666669</ele><time>2026-04-09T08:27:15Z</time></trkpt><trkpt lat="45.80383894755192" lon="9.40591118569108"><ele>203.83333333333334</ele><time>2026-04-09T08:27:16Z</time></trkpt><trkpt lat="45.80391468929906" lon="9.405846524379008"><ele>203.0</ele><time>2026-04-09T08:27:17Z</time></trkpt><trkpt lat="45.80397546380955" lon="9.40579861782417"><ele>203.00000000000003</ele><time>2026-04-09T08:27:18Z</time></trkpt><trkpt lat="45.80403173986489" lon="9.405748394877927"><ele>203.0</ele><time>2026-04-09T08:27:19Z</time></trkpt><trkpt lat="45.804136538190114" lon="9.405692766591326"><ele>203.0</ele><time>2026-04-09T08:27:21Z</time></trkpt><trkpt lat="45.804251693849295" lon="9.40567081774343"><ele>203.0</ele><time>2026-04-09T08:27:23Z</time></trkpt><trkpt lat="45.80430483567132" lon="9.405612779755742"><ele>203.00000000000003</ele><time>2026-04-09T08:27:24Z</time></trkpt><trkpt lat="45.80435266809519" lon="9.405536557615262"><ele>203.0</ele><time>2026-04-09T08:27:25Z</time></trkpt><trkpt lat="45.804387923591584" lon="9.40543292727612"><ele>202.4</ele><time>2026-04-09T08:27:26Z</time></trkpt><trkpt lat="45.80442732700518" lon="9.405351839262558"><ele>201.8</ele><time>2026-04-09T08:27:27Z</time></trkpt><trkpt lat="45.80446535409679" lon="9.405275629278693"><ele>201.2</ele><time>2026-04-09T08:27:28Z</time></trkpt><trkpt lat="45.80453946800548" lon="9.405161119442578"><ele>200.6</ele><time>2026-04-09T08:27:30Z</time></trkpt><trkpt lat="45.80462409574216" lon="9.405044080272354"><ele>200.0</ele><time>2026-04-09T08:27:32Z</time></trkpt><trkpt lat="45.80471259572504" lon="9.404969046411592"><ele>200.00000000000003</ele><time>2026-04-09T08:27:33Z</time></trkpt><trkpt lat="45.80477250968314" lon="9.404902322439074"><ele>200.0</ele><time>2026-04-09T08:27:34Z</time></trkpt><trkpt lat="45.804870084826234" lon="9.40480663830339"><ele>200.0</ele><time>2026-04-09T08:27:36Z</time></trkpt><trkpt lat="45.80492660783146" lon="9.404753821241364"><ele>200.0</ele><time>2026-04-09T08:27:37Z</time></trkpt><trkpt lat="45.80498278656581" lon="9.404706651469716"><ele>200.00000000000003</ele><time>2026-04-09T08:27:38Z</time></trkpt><trkpt lat="45.80503916852971" lon="9.404649250054035"><ele>200.0</ele><time>2026-04-09T08:27:39Z</time></trkpt><trkpt lat="45.805086074626864" lon="9.404583014751143"><ele>200.33333333333334</ele><time>2026-04-09T08:27:40Z</time></trkpt><trkpt lat="45.80516192673999" lon="9.404563072912568"><ele>200.66666666666669</ele><time>2026-04-09T08:27:41Z</time></trkpt><trkpt lat="45.80526335587008" lon="9.404455778247668"><ele>201.0</ele><time>2026-04-09T08:27:43Z</time></trkpt><trkpt lat="45.805319615065514" lon="9.40439904137403"><ele>201.33333333333331</ele><time>2026-04-09T08:27:44Z</time></trkpt><trkpt lat="45.8053812023157" lon="9.404338703775588"><ele>201.66666666666666</ele><time>2026-04-09T08:27:45Z</time></trkpt><trkpt lat="45.80544561160168" lon="9.404268308163383"><ele>202.0</ele><time>2026-04-09T08:27:46Z</time></trkpt><trkpt lat="45.80552355958565" lon="9.404200213123918"><ele>202.0</ele><time>2026-04-09T08:27:47Z</time></trkpt><trkpt lat="45.80560425622441" lon="9.404126926690239"><ele>202.0</ele><time>2026-04-09T08:27:48Z</time></trkpt><trkpt lat="45.80568676715897" lon="9.404045698868002"><ele>202.0</ele><time>2026-04-09T08:27:49Z</time></trkpt><trkpt lat="45.80575843155638" lon="9.403967791720552"><ele>202.0</ele><time>2026-04-09T08:27:50Z</time></trkpt><trkpt lat="45.80583163339257" lon="9.403887740813378"><ele>202.0</ele><time>2026-04-09T08:27:51Z</time></trkpt><trkpt lat="45.80590203700115" lon="9.403815358448837"><ele>202.0</ele><time>2026-04-09T08:27:52Z</time></trkpt><trkpt lat="45.80597036100609" lon="9.403747327584101"><ele>202.0</ele><time>2026-04-09T08:27:53Z</time></trkpt><trkpt lat="45.806030962431656" lon="9.403687932052579"><ele>202.0</ele><time>2026-04-09T08:27:54Z</time></trkpt><trkpt lat="45.80608247924049" lon="9.403634713607767"><ele>202.0</ele><time>2026-04-09T08:27:55Z</time></trkpt><trkpt lat="45.80613702484638" lon="9.403582180135214"><ele>202.0</ele><time>2026-04-09T08:27:56Z</time></trkpt><trkpt lat="45.806191645619684" lon="9.403524203667427"><ele>202.0</ele><time>2026-04-09T08:27:57Z</time></trkpt><trkpt lat="45.80625146529278" lon="9.403463489382363"><ele>202.0</ele><time>2026-04-09T08:27:58Z</time></trkpt><trkpt lat="45.80631409235925" lon="9.403398521311754"><ele>202.0</ele><time>2026-04-09T08:27:59Z</time></trkpt><trkpt lat="45.80637300804424" lon="9.403334945248158"><ele>202.0</ele><time>2026-04-09T08:28:00Z</time></trkpt><trkpt lat="45.80643205343805" lon="9.403276408828622"><ele>202.0</ele><time>2026-04-09T08:28:01Z</time></trkpt><trkpt lat="45.806484114304105" lon="9.403222552256093"><ele>202.0</ele><time>2026-04-09T08:28:02Z</time></trkpt><trkpt lat="45.80658213659993" lon="9.403130990286302"><ele>202.0</ele><time>2026-04-09T08:28:04Z</time></trkpt><trkpt lat="45.806686140462084" lon="9.40301157595922"><ele>202.0</ele><time>2026-04-09T08:28:06Z</time></trkpt><trkpt lat="45.80674427300038" lon="9.402954949895552"><ele>202.0</ele><time>2026-04-09T08:28:07Z</time></trkpt><trkpt lat="45.80680933442716" lon="9.402893316260853"><ele>202.0</ele><time>2026-04-09T08:28:08Z</time></trkpt><trkpt lat="45.80687188136969" lon="9.40282590984233"><ele>202.0</ele><time>2026-04-09T08:28:09Z</time></trkpt><trkpt lat="45.80692726861686" lon="9.402761702299541"><ele>202.0</ele><time>2026-04-09T08:28:10Z</time></trkpt><trkpt lat="45.80699093924352" lon="9.402700592491344"><ele>202.0</ele><time>2026-04-09T08:28:11Z</time></trkpt><trkpt lat="45.80704762095792" lon="9.402646444517346"><ele>202.0</ele><time>2026-04-09T08:28:12Z</time></trkpt><trkpt lat="45.8071037900669" lon="9.402593397971279"><ele>202.0</ele><time>2026-04-09T08:28:13Z</time></trkpt><trkpt lat="45.80720371353519" lon="9.402490641911198"><ele>202.0</ele><time>2026-04-09T08:28:15Z</time></trkpt><trkpt lat="45.807286489982786" lon="9.402403379133576"><ele>202.0</ele><time>2026-04-09T08:28:17Z</time></trkpt><trkpt lat="45.80735235057704" lon="9.402312462800825"><ele>202.0</ele><time>2026-04-09T08:28:19Z</time></trkpt><trkpt lat="45.807397023075275" lon="9.402245835854686"><ele>202.0</ele><time>2026-04-09T08:28:21Z</time></trkpt><trkpt lat="45.807443721159444" lon="9.402162618919773"><ele>201.83333333333331</ele><time>2026-04-09T08:28:24Z</time></trkpt><trkpt lat="45.80749365918657" lon="9.40209795409164"><ele>201.66666666666666</ele><time>2026-04-09T08:28:27Z</time></trkpt><trkpt lat="45.807569232185486" lon="9.402036593907694"><ele>201.5</ele><time>2026-04-09T08:28:30Z</time></trkpt><trkpt lat="45.80769281798233" lon="9.401949123211585"><ele>201.33333333333331</ele><time>2026-04-09T08:28:32Z</time></trkpt><trkpt lat="45.80776002153265" lon="9.401894310402895"><ele>201.16666666666666</ele><time>2026-04-09T08:28:33Z</time></trkpt><trkpt lat="45.807829513809125" lon="9.401837172626648"><ele>201.0</ele><time>2026-04-09T08:28:34Z</time></trkpt><trkpt lat="45.807906429523904" lon="9.401759287691712"><ele>201.0</ele><time>2026-04-09T08:28:35Z</time></trkpt><trkpt lat="45.80799970402065" lon="9.401672541445922"><ele>201.0</ele><time>2026-04-09T08:28:36Z</time></trkpt><trkpt lat="45.80809922899305" lon="9.401584021670876"><ele>201.0</ele><time>2026-04-09T08:28:37Z</time></trkpt><trkpt lat="45.808189200387424" lon="9.40150690483632"><ele>201.0</ele><time>2026-04-09T08:28:38Z</time></trkpt><trkpt lat="45.8082913317034" lon="9.401442611799405"><ele>201.0</ele><time>2026-04-09T08:28:39Z</time></trkpt><trkpt lat="45.808396315154226" lon="9.401376387244067"><ele>201.25</ele><time>2026-04-09T08:28:40Z</time></trkpt><trkpt lat="45.80849739504292" lon="9.401310076294921"><ele>201.5</ele><time>2026-04-09T08:28:41Z</time></trkpt><trkpt lat="45.80860537080907" lon="9.401247821606907"><ele>201.75</ele><time>2026-04-09T08:28:42Z</time></trkpt><trkpt lat="45.80871354016916" lon="9.4011891688381"><ele>202.0</ele><time>2026-04-09T08:28:43Z</time></trkpt><trkpt lat="45.80882629309139" lon="9.401134495718527"><ele>202.0</ele><time>2026-04-09T08:28:44Z</time></trkpt><trkpt lat="45.808937818441365" lon="9.401078770243368"><ele>202.0</ele><time>2026-04-09T08:28:45Z</time></trkpt><trkpt lat="45.80904810183881" lon="9.401016883903786"><ele>202.0</ele><time>2026-04-09T08:28:46Z</time></trkpt><trkpt lat="45.809158531175264" lon="9.400959186128597"><ele>202.0</ele><time>2026-04-09T08:28:47Z</time></trkpt><trkpt lat="45.80927186953129" lon="9.400905329632556"><ele>202.0</ele><time>2026-04-09T08:28:48Z</time></trkpt><trkpt lat="45.80937411975765" lon="9.400851096106214"><ele>202.0</ele><time>2026-04-09T08:28:49Z</time></trkpt><trkpt lat="45.80948226613389" lon="9.40080112855305"><ele>202.0</ele><time>2026-04-09T08:28:50Z</time></trkpt><trkpt lat="45.80959088705053" lon="9.40074932766304"><ele>202.0</ele><time>2026-04-09T08:28:51Z</time></trkpt><trkpt lat="45.80969989553739" lon="9.40069815167948"><ele>202.0</ele><time>2026-04-09T08:28:52Z</time></trkpt><trkpt lat="45.809810660000814" lon="9.4006404459716"><ele>202.0</ele><time>2026-04-09T08:28:53Z</time></trkpt><trkpt lat="45.809918338730384" lon="9.400589139785302"><ele>202.0</ele><time>2026-04-09T08:28:54Z</time></trkpt><trkpt lat="45.81002432950157" lon="9.400537115596846"><ele>202.0</ele><time>2026-04-09T08:28:55Z</time></trkpt><trkpt lat="45.810128099998" lon="9.400481172142959"><ele>202.0</ele><time>2026-04-09T08:28:56Z</time></trkpt><trkpt lat="45.81022843258997" lon="9.400426659018015"><ele>202.0</ele><time>2026-04-09T08:28:57Z</time></trkpt><trkpt lat="45.810320963452206" lon="9.400376780180606"><ele>202.0</ele><time>2026-04-09T08:28:58Z</time></trkpt><trkpt lat="45.81042425789385" lon="9.400328363705315"><ele>202.0</ele><time>2026-04-09T08:28:59Z</time></trkpt><trkpt lat="45.81052914760648" lon="9.40027749045506"><ele>202.0</ele><time>2026-04-09T08:29:00Z</time></trkpt><trkpt lat="45.81063201063156" lon="9.400228148502078"><ele>202.0</ele><time>2026-04-09T08:29:01Z</time></trkpt><trkpt lat="45.81074292041297" lon="9.400170395721997"><ele>202.0</ele><time>2026-04-09T08:29:02Z</time></trkpt><trkpt lat="45.810848867923156" lon="9.400119171556286"><ele>202.0</ele><time>2026-04-09T08:29:03Z</time></trkpt><trkpt lat="45.81095631330793" lon="9.400067635490215"><ele>202.0</ele><time>2026-04-09T08:29:04Z</time></trkpt><trkpt lat="45.8110569240741" lon="9.400015561504974"><ele>202.39999999999998</ele><time>2026-04-09T08:29:05Z</time></trkpt><trkpt lat="45.81115716164019" lon="9.39996547304026"><ele>202.79999999999998</ele><time>2026-04-09T08:29:06Z</time></trkpt><trkpt lat="45.81125709378111" lon="9.399917802066856"><ele>203.2</ele><time>2026-04-09T08:29:07Z</time></trkpt><trkpt lat="45.81135427378401" lon="9.399868405429732"><ele>203.6</ele><time>2026-04-09T08:29:08Z</time></trkpt><trkpt lat="45.81145260682366" lon="9.399823315281994"><ele>204.0</ele><time>2026-04-09T08:29:09Z</time></trkpt><trkpt lat="45.81155725859679" lon="9.399760243055413"><ele>204.0</ele><time>2026-04-09T08:29:10Z</time></trkpt><trkpt lat="45.811658156499696" lon="9.399702883448654"><ele>204.0</ele><time>2026-04-09T08:29:11Z</time></trkpt><trkpt lat="45.81176622316543" lon="9.399650804762938"><ele>204.0</ele><time>2026-04-09T08:29:12Z</time></trkpt><trkpt lat="45.811873959917705" lon="9.399595688632166"><ele>204.0</ele><time>2026-04-09T08:29:13Z</time></trkpt><trkpt lat="45.811969711201215" lon="9.399548377223454"><ele>204.0</ele><time>2026-04-09T08:29:14Z</time></trkpt><trkpt lat="45.812060618909335" lon="9.39950211559778"><ele>204.33333333333334</ele><time>2026-04-09T08:29:15Z</time></trkpt><trkpt lat="45.81214332369719" lon="9.399454243802687"><ele>204.66666666666669</ele><time>2026-04-09T08:29:16Z</time></trkpt><trkpt lat="45.812227316515525" lon="9.399410132369782"><ele>205.0</ele><time>2026-04-09T08:29:17Z</time></trkpt><trkpt lat="45.81231018630167" lon="9.399368446286116"><ele>205.33333333333334</ele><time>2026-04-09T08:29:18Z</time></trkpt><trkpt lat="45.81239238267521" lon="9.399331112213071"><ele>205.66666666666669</ele><time>2026-04-09T08:29:19Z</time></trkpt><trkpt lat="45.812456846904865" lon="9.399299830203873"><ele>206.0</ele><time>2026-04-09T08:29:20Z</time></trkpt><trkpt lat="45.81257437312347" lon="9.399257057515475"><ele>206.00000000000003</ele><time>2026-04-09T08:29:22Z</time></trkpt><trkpt lat="45.812646952341154" lon="9.399235170935981"><ele>206.0</ele><time>2026-04-09T08:29:23Z</time></trkpt><trkpt lat="45.81273362272834" lon="9.399229267030913"><ele>206.0</ele><time>2026-04-09T08:29:24Z</time></trkpt><trkpt lat="45.81280398847818" lon="9.399146198393108"><ele>206.0</ele><time>2026-04-09T08:29:25Z</time></trkpt><trkpt lat="45.81287157954808" lon="9.39908241511229"><ele>206.00000000000003</ele><time>2026-04-09T08:29:26Z</time></trkpt><trkpt lat="45.81293002468185" lon="9.399041610378756"><ele>206.0</ele><time>2026-04-09T08:29:27Z</time></trkpt><trkpt lat="45.813017391612014" lon="9.398996104890793"><ele>206.0</ele><time>2026-04-09T08:29:28Z</time></trkpt><trkpt lat="45.81311975664365" lon="9.398951550502487"><ele>206.0</ele><time>2026-04-09T08:29:29Z</time></trkpt><trkpt lat="45.81321196399975" lon="9.398899782729147"><ele>206.0</ele><time>2026-04-09T08:29:30Z</time></trkpt><trkpt lat="45.81330553702041" lon="9.398855653369402"><ele>206.0</ele><time>2026-04-09T08:29:31Z</time></trkpt><trkpt lat="45.813398248323246" lon="9.398807354134716"><ele>206.0</ele><time>2026-04-09T08:29:32Z</time></trkpt><trkpt lat="45.81348744015745" lon="9.398761584441264"><ele>206.4</ele><time>2026-04-09T08:29:33Z</time></trkpt><trkpt lat="45.81357860783113" lon="9.398722824153312"><ele>206.8</ele><time>2026-04-09T08:29:34Z</time></trkpt><trkpt lat="45.81367559314544" lon="9.39867845514496"><ele>207.20000000000002</ele><time>2026-04-09T08:29:35Z</time></trkpt><trkpt lat="45.813761446303054" lon="9.398641365607519"><ele>207.60000000000002</ele><time>2026-04-09T08:29:36Z</time></trkpt><trkpt lat="45.8138464562925" lon="9.398595573964093"><ele>208.0</ele><time>2026-04-09T08:29:37Z</time></trkpt><trkpt lat="45.813939816331974" lon="9.398548569955656"><ele>208.0</ele><time>2026-04-09T08:29:38Z</time></trkpt><trkpt lat="45.814028706214806" lon="9.398500697965321"><ele>208.0</ele><time>2026-04-09T08:29:39Z</time></trkpt><trkpt lat="45.81412579045545" lon="9.398450908127188"><ele>208.0</ele><time>2026-04-09T08:29:40Z</time></trkpt><trkpt lat="45.81421572379833" lon="9.39839245378423"><ele>208.0</ele><time>2026-04-09T08:29:41Z</time></trkpt><trkpt lat="45.814315852365006" lon="9.398341081229413"><ele>208.0</ele><time>2026-04-09T08:29:42Z</time></trkpt><trkpt lat="45.8144313407594" lon="9.39831976709563"><ele>207.60000000000002</ele><time>2026-04-09T08:29:43Z</time></trkpt><trkpt lat="45.8145263945812" lon="9.398264348349944"><ele>207.20000000000002</ele><time>2026-04-09T08:29:44Z</time></trkpt><trkpt lat="45.81462037372293" lon="9.398213335458186"><ele>206.8</ele><time>2026-04-09T08:29:45Z</time></trkpt><trkpt lat="45.81471552663979" lon="9.398169024753805"><ele>206.4</ele><time>2026-04-09T08:29:46Z</time></trkpt><trkpt lat="45.814807018178286" lon="9.398120533707264"><ele>206.0</ele><time>2026-04-09T08:29:47Z</time></trkpt><trkpt lat="45.814897668999485" lon="9.39807120400184"><ele>206.00000000000003</ele><time>2026-04-09T08:29:48Z</time></trkpt><trkpt lat="45.81497980944949" lon="9.398029280119774"><ele>206.0</ele><time>2026-04-09T08:29:49Z</time></trkpt><trkpt lat="45.815058914339325" lon="9.397993204683353"><ele>206.0</ele><time>2026-04-09T08:29:50Z</time></trkpt><trkpt lat="45.8151443165052" lon="9.39795726917372"><ele>206.0</ele><time>2026-04-09T08:29:51Z</time></trkpt><trkpt lat="45.815230660271446" lon="9.397914707536064"><ele>206.00000000000003</ele><time>2026-04-09T08:29:52Z</time></trkpt><trkpt lat="45.8153126948713" lon="9.397864950483768"><ele>206.0</ele><time>2026-04-09T08:29:53Z</time></trkpt><trkpt lat="45.81540622767421" lon="9.397816851346326"><ele>206.0</ele><time>2026-04-09T08:29:54Z</time></trkpt><trkpt lat="45.81549864598112" lon="9.397771516578333"><ele>206.0</ele><time>2026-04-09T08:29:55Z</time></trkpt><trkpt lat="45.81559456254981" lon="9.39772570653531"><ele>206.0</ele><time>2026-04-09T08:29:56Z</time></trkpt><trkpt lat="45.81569525071403" lon="9.3976763333215"><ele>206.0</ele><time>2026-04-09T08:29:57Z</time></trkpt><trkpt lat="45.815790062307954" lon="9.397627084903522"><ele>206.0</ele><time>2026-04-09T08:29:58Z</time></trkpt><trkpt lat="45.81588469796222" lon="9.397576600394055"><ele>206.0</ele><time>2026-04-09T08:29:59Z</time></trkpt><trkpt lat="45.81598642494456" lon="9.397527280001997"><ele>206.0</ele><time>2026-04-09T08:30:00Z</time></trkpt><trkpt lat="45.816080915390984" lon="9.397484936746052"><ele>206.0</ele><time>2026-04-09T08:30:01Z</time></trkpt><trkpt lat="45.81617055135237" lon="9.397440128692766"><ele>206.0</ele><time>2026-04-09T08:30:02Z</time></trkpt><trkpt lat="45.81625097234654" lon="9.397401863054878"><ele>206.0</ele><time>2026-04-09T08:30:03Z</time></trkpt><trkpt lat="45.816334955486695" lon="9.397354819478576"><ele>205.8</ele><time>2026-04-09T08:30:04Z</time></trkpt><trkpt lat="45.816421597067354" lon="9.397318626107008"><ele>205.60000000000002</ele><time>2026-04-09T08:30:05Z</time></trkpt><trkpt lat="45.816508304943056" lon="9.397281707820017"><ele>205.4</ele><time>2026-04-09T08:30:06Z</time></trkpt><trkpt lat="45.81659924063613" lon="9.397234170737283"><ele>205.2</ele><time>2026-04-09T08:30:07Z</time></trkpt><trkpt lat="45.81669383660591" lon="9.397188068125834"><ele>205.0</ele><time>2026-04-09T08:30:08Z</time></trkpt><trkpt lat="45.81678314954798" lon="9.397139643829295"><ele>204.4</ele><time>2026-04-09T08:30:09Z</time></trkpt><trkpt lat="45.81687374407992" lon="9.397093821524846"><ele>203.8</ele><time>2026-04-09T08:30:10Z</time></trkpt><trkpt lat="45.81696823914628" lon="9.397037720580503"><ele>203.2</ele><time>2026-04-09T08:30:11Z</time></trkpt><trkpt lat="45.817059783439284" lon="9.396993398674917"><ele>202.6</ele><time>2026-04-09T08:30:12Z</time></trkpt><trkpt lat="45.81715230937142" lon="9.396942934440697"><ele>202.0</ele><time>2026-04-09T08:30:13Z</time></trkpt><trkpt lat="45.81724999195376" lon="9.396899469808893"><ele>202.0</ele><time>2026-04-09T08:30:14Z</time></trkpt><trkpt lat="45.8173437277541" lon="9.396851288701958"><ele>202.0</ele><time>2026-04-09T08:30:15Z</time></trkpt><trkpt lat="45.81744091211197" lon="9.396808568311398"><ele>202.0</ele><time>2026-04-09T08:30:16Z</time></trkpt><trkpt lat="45.81753209207394" lon="9.39676245842773"><ele>202.0</ele><time>2026-04-09T08:30:17Z</time></trkpt><trkpt lat="45.81762618236064" lon="9.396715360554774"><ele>202.0</ele><time>2026-04-09T08:30:18Z</time></trkpt><trkpt lat="45.817720464744625" lon="9.396665968826143"><ele>202.39999999999998</ele><time>2026-04-09T08:30:19Z</time></trkpt><trkpt lat="45.81781272235398" lon="9.396626416125912"><ele>202.79999999999998</ele><time>2026-04-09T08:30:20Z</time></trkpt><trkpt lat="45.81791227822575" lon="9.396575754586895"><ele>203.2</ele><time>2026-04-09T08:30:21Z</time></trkpt><trkpt lat="45.818008819664364" lon="9.396525912833424"><ele>203.6</ele><time>2026-04-09T08:30:22Z</time></trkpt><trkpt lat="45.818108286387954" lon="9.396474928943956"><ele>204.0</ele><time>2026-04-09T08:30:23Z</time></trkpt><trkpt lat="45.81821201518657" lon="9.396417519276733"><ele>204.0</ele><time>2026-04-09T08:30:24Z</time></trkpt><trkpt lat="45.81831582276089" lon="9.396361871151152"><ele>204.0</ele><time>2026-04-09T08:30:25Z</time></trkpt><trkpt lat="45.81842601125771" lon="9.396309258916098"><ele>204.0</ele><time>2026-04-09T08:30:26Z</time></trkpt><trkpt lat="45.818532192034844" lon="9.39625358775536"><ele>204.0</ele><time>2026-04-09T08:30:27Z</time></trkpt><trkpt lat="45.818632260411924" lon="9.396201303007997"><ele>204.0</ele><time>2026-04-09T08:30:28Z</time></trkpt><trkpt lat="45.81873723877981" lon="9.396149370442739"><ele>204.0</ele><time>2026-04-09T08:30:29Z</time></trkpt><trkpt lat="45.81883832444091" lon="9.396094088800332"><ele>204.0</ele><time>2026-04-09T08:30:30Z</time></trkpt><trkpt lat="45.81893214527533" lon="9.396042556803724"><ele>204.0</ele><time>2026-04-09T08:30:31Z</time></trkpt><trkpt lat="45.81902142142705" lon="9.395995404493949"><ele>204.0</ele><time>2026-04-09T08:30:32Z</time></trkpt><trkpt lat="45.81910916454601" lon="9.395943989553526"><ele>204.0</ele><time>2026-04-09T08:30:33Z</time></trkpt><trkpt lat="45.81919303931851" lon="9.39589481349743"><ele>204.0</ele><time>2026-04-09T08:30:34Z</time></trkpt><trkpt lat="45.81927625904608" lon="9.395854193756174"><ele>204.0</ele><time>2026-04-09T08:30:35Z</time></trkpt><trkpt lat="45.81936082763096" lon="9.395819052936943"><ele>204.0</ele><time>2026-04-09T08:30:36Z</time></trkpt><trkpt lat="45.81944778608166" lon="9.395780507747489"><ele>204.0</ele><time>2026-04-09T08:30:37Z</time></trkpt><trkpt lat="45.81953510702019" lon="9.395733161908081"><ele>204.0</ele><time>2026-04-09T08:30:38Z</time></trkpt><trkpt lat="45.81962603634798" lon="9.395688051272542"><ele>203.39999999999998</ele><time>2026-04-09T08:30:39Z</time></trkpt><trkpt lat="45.81971389471548" lon="9.39564384277248"><ele>202.8</ele><time>2026-04-09T08:30:40Z</time></trkpt><trkpt lat="45.81979320377752" lon="9.395600407104585"><ele>202.2</ele><time>2026-04-09T08:30:41Z</time></trkpt><trkpt lat="45.81987642939703" lon="9.395554682077627"><ele>201.60000000000002</ele><time>2026-04-09T08:30:42Z</time></trkpt><trkpt lat="45.81996783258209" lon="9.395507379391958"><ele>201.0</ele><time>2026-04-09T08:30:43Z</time></trkpt><trkpt lat="45.82005998885485" lon="9.395450052463284"><ele>201.60000000000002</ele><time>2026-04-09T08:30:44Z</time></trkpt><trkpt lat="45.82015538945678" lon="9.395403856072326"><ele>202.2</ele><time>2026-04-09T08:30:45Z</time></trkpt><trkpt lat="45.82024682805299" lon="9.395357628405218"><ele>202.8</ele><time>2026-04-09T08:30:46Z</time></trkpt><trkpt lat="45.82034046498344" lon="9.395309773697301"><ele>203.39999999999998</ele><time>2026-04-09T08:30:47Z</time></trkpt><trkpt lat="45.82043548765595" lon="9.395269562340836"><ele>204.0</ele><time>2026-04-09T08:30:48Z</time></trkpt><trkpt lat="45.82052338225732" lon="9.395220939995964"><ele>204.0</ele><time>2026-04-09T08:30:49Z</time></trkpt><trkpt lat="45.82061782834135" lon="9.395177134842497"><ele>204.0</ele><time>2026-04-09T08:30:50Z</time></trkpt><trkpt lat="45.82071421208888" lon="9.395133395127328"><ele>204.0</ele><time>2026-04-09T08:30:51Z</time></trkpt><trkpt lat="45.82081121480507" lon="9.395104632589431"><ele>204.0</ele><time>2026-04-09T08:30:52Z</time></trkpt><trkpt lat="45.82090936170556" lon="9.395066017584687"><ele>204.0</ele><time>2026-04-09T08:30:53Z</time></trkpt><trkpt lat="45.821004346666584" lon="9.395036621203138"><ele>203.6</ele><time>2026-04-09T08:30:54Z</time></trkpt><trkpt lat="45.821101525578534" lon="9.395016965415481"><ele>203.2</ele><time>2026-04-09T08:30:55Z</time></trkpt><trkpt lat="45.821205430803715" lon="9.394996470043065"><ele>202.79999999999998</ele><time>2026-04-09T08:30:56Z</time></trkpt><trkpt lat="45.82130919561962" lon="9.394981112199565"><ele>202.39999999999998</ele><time>2026-04-09T08:30:57Z</time></trkpt><trkpt lat="45.8214084739082" lon="9.394972566262966"><ele>202.0</ele><time>2026-04-09T08:30:58Z</time></trkpt><trkpt lat="45.821508269926625" lon="9.394961514092708"><ele>202.0</ele><time>2026-04-09T08:30:59Z</time></trkpt><trkpt lat="45.82160821535894" lon="9.394957478245304"><ele>202.0</ele><time>2026-04-09T08:31:00Z</time></trkpt><trkpt lat="45.82171143109566" lon="9.394958885484426"><ele>202.0</ele><time>2026-04-09T08:31:01Z</time></trkpt><trkpt lat="45.82181624912406" lon="9.3949630168507"><ele>202.0</ele><time>2026-04-09T08:31:02Z</time></trkpt><trkpt lat="45.82191487206544" lon="9.394971343313388"><ele>202.0</ele><time>2026-04-09T08:31:03Z</time></trkpt><trkpt lat="45.8220210779778" lon="9.394986005880304"><ele>202.6</ele><time>2026-04-09T08:31:04Z</time></trkpt><trkpt lat="45.82212887150475" lon="9.39500289906342"><ele>203.2</ele><time>2026-04-09T08:31:05Z</time></trkpt><trkpt lat="45.82223155605107" lon="9.395021881633388"><ele>203.8</ele><time>2026-04-09T08:31:06Z</time></trkpt><trkpt lat="45.82233483104683" lon="9.39504651079342"><ele>204.4</ele><time>2026-04-09T08:31:07Z</time></trkpt><trkpt lat="45.822440535616465" lon="9.39507000995998"><ele>205.0</ele><time>2026-04-09T08:31:08Z</time></trkpt><trkpt lat="45.82255344181349" lon="9.395087927247022"><ele>204.8</ele><time>2026-04-09T08:31:09Z</time></trkpt><trkpt lat="45.822656696147185" lon="9.395101254404441"><ele>204.6</ele><time>2026-04-09T08:31:10Z</time></trkpt><trkpt lat="45.82277192285117" lon="9.395107247026687"><ele>204.39999999999998</ele><time>2026-04-09T08:31:11Z</time></trkpt><trkpt lat="45.82287965990639" lon="9.39510659045763"><ele>204.2</ele><time>2026-04-09T08:31:12Z</time></trkpt><trkpt lat="45.822984954479956" lon="9.395103993694006"><ele>204.0</ele><time>2026-04-09T08:31:13Z</time></trkpt><trkpt lat="45.82310236067923" lon="9.395097077429703"><ele>204.0</ele><time>2026-04-09T08:31:14Z</time></trkpt><trkpt lat="45.82320944956915" lon="9.39509096562515"><ele>204.0</ele><time>2026-04-09T08:31:15Z</time></trkpt><trkpt lat="45.82332352242731" lon="9.395087732098112"><ele>204.0</ele><time>2026-04-09T08:31:16Z</time></trkpt><trkpt lat="45.82343237570332" lon="9.395085114794629"><ele>204.0</ele><time>2026-04-09T08:31:17Z</time></trkpt><trkpt lat="45.82353131007841" lon="9.395087845631926"><ele>204.0</ele><time>2026-04-09T08:31:18Z</time></trkpt><trkpt lat="45.823624955167034" lon="9.39509080123445"><ele>204.2</ele><time>2026-04-09T08:31:19Z</time></trkpt><trkpt lat="45.82371881270515" lon="9.395096435082765"><ele>204.39999999999998</ele><time>2026-04-09T08:31:20Z</time></trkpt><trkpt lat="45.82381472636118" lon="9.395108816366783"><ele>204.6</ele><time>2026-04-09T08:31:21Z</time></trkpt><trkpt lat="45.82390802589618" lon="9.395124388602909"><ele>204.8</ele><time>2026-04-09T08:31:22Z</time></trkpt><trkpt lat="45.82400428465322" lon="9.395140494985215"><ele>205.0</ele><time>2026-04-09T08:31:23Z</time></trkpt><trkpt lat="45.824097477059" lon="9.395159517276689"><ele>205.0</ele><time>2026-04-09T08:31:24Z</time></trkpt><trkpt lat="45.824189160339415" lon="9.395175660229759"><ele>205.0</ele><time>2026-04-09T08:31:25Z</time></trkpt><trkpt lat="45.824277387523395" lon="9.395191144415739"><ele>205.0</ele><time>2026-04-09T08:31:26Z</time></trkpt><trkpt lat="45.8243709212391" lon="9.39520911333483"><ele>205.0</ele><time>2026-04-09T08:31:27Z</time></trkpt><trkpt lat="45.82446468492303" lon="9.395222180250492"><ele>205.0</ele><time>2026-04-09T08:31:28Z</time></trkpt><trkpt lat="45.824547514142075" lon="9.395238536898594"><ele>205.0</ele><time>2026-04-09T08:31:29Z</time></trkpt><trkpt lat="45.824645059731424" lon="9.395254203482132"><ele>205.0</ele><time>2026-04-09T08:31:30Z</time></trkpt><trkpt lat="45.82473642646875" lon="9.395269416559156"><ele>205.0</ele><time>2026-04-09T08:31:31Z</time></trkpt><trkpt lat="45.82483134467697" lon="9.395283007956222"><ele>205.0</ele><time>2026-04-09T08:31:32Z</time></trkpt><trkpt lat="45.82492502734198" lon="9.395303265517859"><ele>205.0</ele><time>2026-04-09T08:31:33Z</time></trkpt><trkpt lat="45.825021008749545" lon="9.39532062283721"><ele>205.0</ele><time>2026-04-09T08:31:34Z</time></trkpt><trkpt lat="45.825120014203286" lon="9.395337911552154"><ele>205.0</ele><time>2026-04-09T08:31:35Z</time></trkpt><trkpt lat="45.82521274667552" lon="9.3953615684828"><ele>205.0</ele><time>2026-04-09T08:31:36Z</time></trkpt><trkpt lat="45.82531249256463" lon="9.395379391220121"><ele>205.0</ele><time>2026-04-09T08:31:37Z</time></trkpt><trkpt lat="45.82540684887303" lon="9.395396426572674"><ele>205.0</ele><time>2026-04-09T08:31:38Z</time></trkpt><trkpt lat="45.8254901856258" lon="9.395409513148422"><ele>205.33333333333331</ele><time>2026-04-09T08:31:39Z</time></trkpt><trkpt lat="45.825565743987575" lon="9.395423253863482"><ele>205.66666666666666</ele><time>2026-04-09T08:31:40Z</time></trkpt><trkpt lat="45.8256522900852" lon="9.395438803288595"><ele>206.0</ele><time>2026-04-09T08:31:41Z</time></trkpt><trkpt lat="45.825741221381854" lon="9.395450532514985"><ele>206.33333333333331</ele><time>2026-04-09T08:31:42Z</time></trkpt><trkpt lat="45.82583322846843" lon="9.39546325484411"><ele>206.66666666666666</ele><time>2026-04-09T08:31:43Z</time></trkpt><trkpt lat="45.82592707289642" lon="9.395479281882778"><ele>207.0</ele><time>2026-04-09T08:31:44Z</time></trkpt><trkpt lat="45.82602006665521" lon="9.395499916965067"><ele>206.6</ele><time>2026-04-09T08:31:45Z</time></trkpt><trkpt lat="45.82611103400762" lon="9.395520799619518"><ele>206.2</ele><time>2026-04-09T08:31:46Z</time></trkpt><trkpt lat="45.82621771517555" lon="9.395539652036454"><ele>205.8</ele><time>2026-04-09T08:31:47Z</time></trkpt><trkpt lat="45.826329621690945" lon="9.395555839457176"><ele>205.4</ele><time>2026-04-09T08:31:48Z</time></trkpt><trkpt lat="45.826438040433075" lon="9.395600953848408"><ele>205.0</ele><time>2026-04-09T08:31:49Z</time></trkpt><trkpt lat="45.826546921983514" lon="9.395617210445339"><ele>204.99999999999997</ele><time>2026-04-09T08:31:50Z</time></trkpt><trkpt lat="45.82664929028341" lon="9.395633465163545"><ele>205.0</ele><time>2026-04-09T08:31:51Z</time></trkpt><trkpt lat="45.826736719124206" lon="9.395645707976234"><ele>205.0</ele><time>2026-04-09T08:31:52Z</time></trkpt><trkpt lat="45.82682555408321" lon="9.395649764527"><ele>205.0</ele><time>2026-04-09T08:31:53Z</time></trkpt><trkpt lat="45.826906330102155" lon="9.395659612497457"><ele>204.99999999999997</ele><time>2026-04-09T08:31:54Z</time></trkpt><trkpt lat="45.82698017870147" lon="9.395674929876321"><ele>205.0</ele><time>2026-04-09T08:31:55Z</time></trkpt><trkpt lat="45.82705015158256" lon="9.395687583368991"><ele>204.8</ele><time>2026-04-09T08:31:56Z</time></trkpt><trkpt lat="45.82711325802582" lon="9.395713534967351"><ele>204.6</ele><time>2026-04-09T08:31:57Z</time></trkpt><trkpt lat="45.82721428665709" lon="9.39572816692293"><ele>204.39999999999998</ele><time>2026-04-09T08:31:59Z</time></trkpt><trkpt lat="45.82733546215304" lon="9.395746185754403"><ele>204.2</ele><time>2026-04-09T08:32:01Z</time></trkpt><trkpt lat="45.827442865286685" lon="9.395766506610606"><ele>204.0</ele><time>2026-04-09T08:32:03Z</time></trkpt><trkpt lat="45.82755002614528" lon="9.395791534725358"><ele>204.0</ele><time>2026-04-09T08:32:05Z</time></trkpt><trkpt lat="45.82764169174837" lon="9.395812911591792"><ele>204.0</ele><time>2026-04-09T08:32:07Z</time></trkpt><trkpt lat="45.827751362077954" lon="9.395848004981891"><ele>204.0</ele><time>2026-04-09T08:32:09Z</time></trkpt><trkpt lat="45.8278989283992" lon="9.395860137322165"><ele>204.0</ele><time>2026-04-09T08:32:11Z</time></trkpt><trkpt lat="45.82800051190164" lon="9.395871070582352"><ele>204.2</ele><time>2026-04-09T08:32:12Z</time></trkpt><trkpt lat="45.828093512399846" lon="9.39588308637213"><ele>204.39999999999998</ele><time>2026-04-09T08:32:13Z</time></trkpt><trkpt lat="45.828198406209516" lon="9.39589497453959"><ele>204.6</ele><time>2026-04-09T08:32:14Z</time></trkpt><trkpt lat="45.8283080048504" lon="9.395913265811009"><ele>204.8</ele><time>2026-04-09T08:32:15Z</time></trkpt><trkpt lat="45.828429314115226" lon="9.395926147471867"><ele>205.0</ele><time>2026-04-09T08:32:16Z</time></trkpt><trkpt lat="45.82855268132612" lon="9.39593307936547"><ele>205.0</ele><time>2026-04-09T08:32:17Z</time></trkpt><trkpt lat="45.8286690988151" lon="9.395930491156278"><ele>205.0</ele><time>2026-04-09T08:32:18Z</time></trkpt><trkpt lat="45.828785090249944" lon="9.395921913367609"><ele>205.0</ele><time>2026-04-09T08:32:19Z</time></trkpt><trkpt lat="45.82888306959897" lon="9.395908925791241"><ele>205.0</ele><time>2026-04-09T08:32:20Z</time></trkpt><trkpt lat="45.828982346542695" lon="9.395895951703363"><ele>205.0</ele><time>2026-04-09T08:32:21Z</time></trkpt><trkpt lat="45.82907985943782" lon="9.395882387139684"><ele>205.0</ele><time>2026-04-09T08:32:22Z</time></trkpt><trkpt lat="45.829173961398524" lon="9.395872274451513"><ele>205.0</ele><time>2026-04-09T08:32:23Z</time></trkpt><trkpt lat="45.829264436173304" lon="9.395849500115588"><ele>205.0</ele><time>2026-04-09T08:32:24Z</time></trkpt><trkpt lat="45.829372897264584" lon="9.395859980338255"><ele>205.0</ele><time>2026-04-09T08:32:25Z</time></trkpt><trkpt lat="45.8294722657533" lon="9.395838823750918"><ele>205.0</ele><time>2026-04-09T08:32:26Z</time></trkpt><trkpt lat="45.82957864999808" lon="9.395805577726543"><ele>204.8</ele><time>2026-04-09T08:32:27Z</time></trkpt><trkpt lat="45.82967787679675" lon="9.395783674649772"><ele>204.6</ele><time>2026-04-09T08:32:28Z</time></trkpt><trkpt lat="45.82978399395765" lon="9.39577513455503"><ele>204.39999999999998</ele><time>2026-04-09T08:32:29Z</time></trkpt><trkpt lat="45.82988524337211" lon="9.395749031206117"><ele>204.2</ele><time>2026-04-09T08:32:30Z</time></trkpt><trkpt lat="45.83001367945131" lon="9.39571574261766"><ele>204.0</ele><time>2026-04-09T08:32:31Z</time></trkpt><trkpt lat="45.83014855093936" lon="9.395685617063638"><ele>203.25</ele><time>2026-04-09T08:32:32Z</time></trkpt><trkpt lat="45.83028121085791" lon="9.395656413651174"><ele>202.5</ele><time>2026-04-09T08:32:33Z</time></trkpt><trkpt lat="45.83039401673541" lon="9.395636745221642"><ele>201.75</ele><time>2026-04-09T08:32:34Z</time></trkpt><trkpt lat="45.830501018418595" lon="9.39561708921675"><ele>201.0</ele><time>2026-04-09T08:32:35Z</time></trkpt><trkpt lat="45.83059879064225" lon="9.395601366930766"><ele>201.0</ele><time>2026-04-09T08:32:36Z</time></trkpt><trkpt lat="45.83068951806473" lon="9.39558381385879"><ele>201.0</ele><time>2026-04-09T08:32:37Z</time></trkpt><trkpt lat="45.830774180561875" lon="9.395569682774738"><ele>201.0</ele><time>2026-04-09T08:32:38Z</time></trkpt><trkpt lat="45.83086647594136" lon="9.395546305555335"><ele>201.0</ele><time>2026-04-09T08:32:39Z</time></trkpt><trkpt lat="45.83096467331856" lon="9.395520730077905"><ele>201.0</ele><time>2026-04-09T08:32:40Z</time></trkpt><trkpt lat="45.831069503575485" lon="9.395496888831008"><ele>202.4</ele><time>2026-04-09T08:32:41Z</time></trkpt><trkpt lat="45.831184456767346" lon="9.395473972968656"><ele>203.8</ele><time>2026-04-09T08:32:42Z</time></trkpt><trkpt lat="45.8312894463506" lon="9.39545891206671"><ele>205.20000000000002</ele><time>2026-04-09T08:32:43Z</time></trkpt><trkpt lat="45.83139361072601" lon="9.395441548103275"><ele>206.60000000000002</ele><time>2026-04-09T08:32:44Z</time></trkpt><trkpt lat="45.831498016720865" lon="9.395424538095156"><ele>208.0</ele><time>2026-04-09T08:32:45Z</time></trkpt><trkpt lat="45.83159934185484" lon="9.395407232274753"><ele>208.0</ele><time>2026-04-09T08:32:46Z</time></trkpt><trkpt lat="45.83170698801356" lon="9.395382870945502"><ele>208.0</ele><time>2026-04-09T08:32:47Z</time></trkpt><trkpt lat="45.83181638867288" lon="9.395354817814003"><ele>208.0</ele><time>2026-04-09T08:32:48Z</time></trkpt><trkpt lat="45.83193262198303" lon="9.395328194075375"><ele>208.0</ele><time>2026-04-09T08:32:49Z</time></trkpt><trkpt lat="45.83205433508937" lon="9.395303966520833"><ele>207.75</ele><time>2026-04-09T08:32:50Z</time></trkpt><trkpt lat="45.83215930527998" lon="9.395270793718833"><ele>207.5</ele><time>2026-04-09T08:32:51Z</time></trkpt><trkpt lat="45.83227303994969" lon="9.395223237703693"><ele>207.25</ele><time>2026-04-09T08:32:52Z</time></trkpt><trkpt lat="45.832385869772374" lon="9.395180078126037"><ele>207.0</ele><time>2026-04-09T08:32:53Z</time></trkpt><trkpt lat="45.832495762615046" lon="9.395123269830103"><ele>207.0</ele><time>2026-04-09T08:32:54Z</time></trkpt><trkpt lat="45.83260270948279" lon="9.395062715245741"><ele>207.0</ele><time>2026-04-09T08:32:55Z</time></trkpt><trkpt lat="45.8327035990419" lon="9.395006189735415"><ele>207.0</ele><time>2026-04-09T08:32:56Z</time></trkpt><trkpt lat="45.83280637530615" lon="9.394937150476926"><ele>207.0</ele><time>2026-04-09T08:32:57Z</time></trkpt><trkpt lat="45.83290662122315" lon="9.39485849289396"><ele>206.6</ele><time>2026-04-09T08:32:58Z</time></trkpt><trkpt lat="45.83300828349364" lon="9.394779209026431"><ele>206.2</ele><time>2026-04-09T08:32:59Z</time></trkpt><trkpt lat="45.83309941108632" lon="9.39469102487875"><ele>205.8</ele><time>2026-04-09T08:33:00Z</time></trkpt><trkpt lat="45.83318725072323" lon="9.39460487003032"><ele>205.4</ele><time>2026-04-09T08:33:01Z</time></trkpt><trkpt lat="45.83326347271402" lon="9.394526280343722"><ele>205.0</ele><time>2026-04-09T08:33:02Z</time></trkpt><trkpt lat="45.833342615670155" lon="9.39444917914566"><ele>204.99999999999997</ele><time>2026-04-09T08:33:03Z</time></trkpt><trkpt lat="45.83341932809485" lon="9.394377377780811"><ele>205.0</ele><time>2026-04-09T08:33:04Z</time></trkpt><trkpt lat="45.83349162478209" lon="9.394316446918346"><ele>205.0</ele><time>2026-04-09T08:33:05Z</time></trkpt><trkpt lat="45.83355988008196" lon="9.39425561697195"><ele>205.0</ele><time>2026-04-09T08:33:06Z</time></trkpt><trkpt lat="45.83362003171812" lon="9.39419786654808"><ele>204.99999999999997</ele><time>2026-04-09T08:33:07Z</time></trkpt><trkpt lat="45.83368710135866" lon="9.394143517053053"><ele>205.0</ele><time>2026-04-09T08:33:08Z</time></trkpt><trkpt lat="45.83375844953264" lon="9.394089941056228"><ele>204.4</ele><time>2026-04-09T08:33:09Z</time></trkpt><trkpt lat="45.83383741272026" lon="9.39402400107641"><ele>203.8</ele><time>2026-04-09T08:33:10Z</time></trkpt><trkpt lat="45.83391930983173" lon="9.393962197927776"><ele>203.2</ele><time>2026-04-09T08:33:11Z</time></trkpt><trkpt lat="45.834003876243855" lon="9.393930099702663"><ele>202.6</ele><time>2026-04-09T08:33:12Z</time></trkpt><trkpt lat="45.8340993307803" lon="9.393910199227788"><ele>202.0</ele><time>2026-04-09T08:33:13Z</time></trkpt><trkpt lat="45.8341975719281" lon="9.393889949104084"><ele>202.0</ele><time>2026-04-09T08:33:14Z</time></trkpt><trkpt lat="45.83430149891183" lon="9.393872848943282"><ele>202.0</ele><time>2026-04-09T08:33:15Z</time></trkpt><trkpt lat="45.83440570389196" lon="9.393852318304665"><ele>202.0</ele><time>2026-04-09T08:33:16Z</time></trkpt><trkpt lat="45.83451012219375" lon="9.393831260428357"><ele>202.0</ele><time>2026-04-09T08:33:17Z</time></trkpt><trkpt lat="45.83461723022613" lon="9.393814627389785"><ele>202.0</ele><time>2026-04-09T08:33:18Z</time></trkpt><trkpt lat="45.83473034666608" lon="9.393794985484462"><ele>203.6</ele><time>2026-04-09T08:33:19Z</time></trkpt><trkpt lat="45.834835503314295" lon="9.393783357834664"><ele>205.2</ele><time>2026-04-09T08:33:20Z</time></trkpt><trkpt lat="45.834936373431276" lon="9.393775477921807"><ele>206.8</ele><time>2026-04-09T08:33:21Z</time></trkpt><trkpt lat="45.83503833587491" lon="9.393778810860931"><ele>208.4</ele><time>2026-04-09T08:33:22Z</time></trkpt><trkpt lat="45.83514016240814" lon="9.393795412304275"><ele>210.0</ele><time>2026-04-09T08:33:23Z</time></trkpt><trkpt lat="45.83524250427969" lon="9.393829120011631"><ele>208.8</ele><time>2026-04-09T08:33:24Z</time></trkpt><trkpt lat="45.83534325783903" lon="9.393875418702894"><ele>207.6</ele><time>2026-04-09T08:33:25Z</time></trkpt><trkpt lat="45.83543449588571" lon="9.393933121594712"><ele>206.39999999999998</ele><time>2026-04-09T08:33:26Z</time></trkpt><trkpt lat="45.83551536881096" lon="9.394006494796255"><ele>205.2</ele><time>2026-04-09T08:33:27Z</time></trkpt><trkpt lat="45.83559184015189" lon="9.39408844177085"><ele>204.0</ele><time>2026-04-09T08:33:28Z</time></trkpt><trkpt lat="45.83566160895905" lon="9.394184563154674"><ele>204.0</ele><time>2026-04-09T08:33:29Z</time></trkpt><trkpt lat="45.83572725629014" lon="9.394299084261881"><ele>204.0</ele><time>2026-04-09T08:33:30Z</time></trkpt><trkpt lat="45.8358047461922" lon="9.394422369390725"><ele>204.0</ele><time>2026-04-09T08:33:31Z</time></trkpt><trkpt lat="45.835880473242405" lon="9.394550423938606"><ele>204.0</ele><time>2026-04-09T08:33:32Z</time></trkpt><trkpt lat="45.83595827214564" lon="9.394710699413071"><ele>203.75</ele><time>2026-04-09T08:33:33Z</time></trkpt><trkpt lat="45.836026420311164" lon="9.394870508828223"><ele>203.5</ele><time>2026-04-09T08:33:34Z</time></trkpt><trkpt lat="45.83609505585709" lon="9.395034984827847"><ele>203.25</ele><time>2026-04-09T08:33:35Z</time></trkpt><trkpt lat="45.83617403217215" lon="9.395214516478054"><ele>203.0</ele><time>2026-04-09T08:33:36Z</time></trkpt><trkpt lat="45.83625169209571" lon="9.395385456500474"><ele>202.75</ele><time>2026-04-09T08:33:37Z</time></trkpt><trkpt lat="45.83632904533065" lon="9.395557857749045"><ele>202.5</ele><time>2026-04-09T08:33:38Z</time></trkpt><trkpt lat="45.83640248614936" lon="9.395721946086098"><ele>202.25</ele><time>2026-04-09T08:33:39Z</time></trkpt><trkpt lat="45.8364758838333" lon="9.395893381788836"><ele>202.0</ele><time>2026-04-09T08:33:40Z</time></trkpt><trkpt lat="45.83654743186624" lon="9.396057693881131"><ele>202.0</ele><time>2026-04-09T08:33:41Z</time></trkpt><trkpt lat="45.836619258750325" lon="9.396215842260165"><ele>202.0</ele><time>2026-04-09T08:33:42Z</time></trkpt><trkpt lat="45.83668462725965" lon="9.396372250511739"><ele>202.0</ele><time>2026-04-09T08:33:43Z</time></trkpt><trkpt lat="45.83674797696668" lon="9.396510363808886"><ele>202.0</ele><time>2026-04-09T08:33:44Z</time></trkpt><trkpt lat="45.83681405053007" lon="9.396635965072964"><ele>202.0</ele><time>2026-04-09T08:33:45Z</time></trkpt><trkpt lat="45.83689031058494" lon="9.396761952586907"><ele>202.0</ele><time>2026-04-09T08:33:46Z</time></trkpt><trkpt lat="45.83697071293939" lon="9.396870541184377"><ele>202.0</ele><time>2026-04-09T08:33:47Z</time></trkpt><trkpt lat="45.837058265106066" lon="9.396955727524913"><ele>202.0</ele><time>2026-04-09T08:33:48Z</time></trkpt><trkpt lat="45.83715486204585" lon="9.39702953912494"><ele>202.0</ele><time>2026-04-09T08:33:49Z</time></trkpt><trkpt lat="45.837265314544354" lon="9.397082985246856"><ele>202.0</ele><time>2026-04-09T08:33:50Z</time></trkpt><trkpt lat="45.8373834476446" lon="9.397125322341509"><ele>202.0</ele><time>2026-04-09T08:33:51Z</time></trkpt><trkpt lat="45.83749766916613" lon="9.397156083434345"><ele>202.0</ele><time>2026-04-09T08:33:52Z</time></trkpt><trkpt lat="45.837617791402536" lon="9.397176298355129"><ele>202.0</ele><time>2026-04-09T08:33:53Z</time></trkpt><trkpt lat="45.83774126320472" lon="9.397186857700447"><ele>202.39999999999998</ele><time>2026-04-09T08:33:54Z</time></trkpt><trkpt lat="45.837849746467" lon="9.397193112657126"><ele>202.79999999999998</ele><time>2026-04-09T08:33:55Z</time></trkpt><trkpt lat="45.83795285222091" lon="9.397207002257561"><ele>203.2</ele><time>2026-04-09T08:33:56Z</time></trkpt><trkpt lat="45.838042488277814" lon="9.397219789600692"><ele>203.6</ele><time>2026-04-09T08:33:57Z</time></trkpt><trkpt lat="45.838135000617136" lon="9.39723603042584"><ele>204.0</ele><time>2026-04-09T08:33:58Z</time></trkpt><trkpt lat="45.83822703167872" lon="9.397252945031125"><ele>204.0</ele><time>2026-04-09T08:33:59Z</time></trkpt><trkpt lat="45.83830240378453" lon="9.39728743672372"><ele>204.0</ele><time>2026-04-09T08:34:00Z</time></trkpt><trkpt lat="45.83836934378244" lon="9.397336180436243"><ele>204.0</ele><time>2026-04-09T08:34:01Z</time></trkpt><trkpt lat="45.83842393330741" lon="9.39740083960029"><ele>204.0</ele><time>2026-04-09T08:34:02Z</time></trkpt><trkpt lat="45.83847525758027" lon="9.397495794817965"><ele>204.0</ele><time>2026-04-09T08:34:03Z</time></trkpt><trkpt lat="45.83851278409801" lon="9.397610042749188"><ele>204.0</ele><time>2026-04-09T08:34:04Z</time></trkpt><trkpt lat="45.83853438506628" lon="9.397739663437708"><ele>203.2</ele><time>2026-04-09T08:34:05Z</time></trkpt><trkpt lat="45.838557775886976" lon="9.397866131873208"><ele>202.39999999999998</ele><time>2026-04-09T08:34:06Z</time></trkpt><trkpt lat="45.83857790862687" lon="9.398002060753015"><ele>201.6</ele><time>2026-04-09T08:34:07Z</time></trkpt><trkpt lat="45.83860084877412" lon="9.398165355190034"><ele>200.8</ele><time>2026-04-09T08:34:08Z</time></trkpt><trkpt lat="45.838627936942494" lon="9.398345887982623"><ele>200.0</ele><time>2026-04-09T08:34:09Z</time></trkpt><trkpt lat="45.83865532792434" lon="9.398526866228798"><ele>199.5</ele><time>2026-04-09T08:34:10Z</time></trkpt><trkpt lat="45.838680633212846" lon="9.398721173018656"><ele>199.0</ele><time>2026-04-09T08:34:11Z</time></trkpt><trkpt lat="45.83870917873614" lon="9.398930350209627"><ele>198.5</ele><time>2026-04-09T08:34:12Z</time></trkpt><trkpt lat="45.83873336911437" lon="9.399139587645504"><ele>198.0</ele><time>2026-04-09T08:34:13Z</time></trkpt><trkpt lat="45.838754850995166" lon="9.399345195797052"><ele>198.0</ele><time>2026-04-09T08:34:14Z</time></trkpt><trkpt lat="45.83877834377777" lon="9.399549108546307"><ele>198.0</ele><time>2026-04-09T08:34:15Z</time></trkpt><trkpt lat="45.8388067109886" lon="9.399755931254242"><ele>198.0</ele><time>2026-04-09T08:34:16Z</time></trkpt><trkpt lat="45.83883387385368" lon="9.399964142561739"><ele>198.0</ele><time>2026-04-09T08:34:17Z</time></trkpt><trkpt lat="45.838861778897915" lon="9.400175347744742"><ele>198.0</ele><time>2026-04-09T08:34:18Z</time></trkpt><trkpt lat="45.8388879272961" lon="9.400387979607675"><ele>198.0</ele><time>2026-04-09T08:34:19Z</time></trkpt><trkpt lat="45.83891381956134" lon="9.400605398173923"><ele>198.0</ele><time>2026-04-09T08:34:20Z</time></trkpt><trkpt lat="45.83894164686301" lon="9.400825191686007"><ele>198.33333333333331</ele><time>2026-04-09T08:34:21Z</time></trkpt><trkpt lat="45.838966176881506" lon="9.401040318865311"><ele>198.66666666666666</ele><time>2026-04-09T08:34:22Z</time></trkpt><trkpt lat="45.83899230693927" lon="9.401258249617245"><ele>199.0</ele><time>2026-04-09T08:34:23Z</time></trkpt><trkpt lat="45.839023455462694" lon="9.40148623733135"><ele>199.66666666666666</ele><time>2026-04-09T08:34:24Z</time></trkpt><trkpt lat="45.839049794339154" lon="9.401717176430976"><ele>200.33333333333331</ele><time>2026-04-09T08:34:25Z</time></trkpt><trkpt lat="45.83907820097909" lon="9.401948318718839"><ele>201.0</ele><time>2026-04-09T08:34:26Z</time></trkpt><trkpt lat="45.83910777565166" lon="9.402185005573443"><ele>201.66666666666669</ele><time>2026-04-09T08:34:27Z</time></trkpt><trkpt lat="45.839138652084735" lon="9.402425402730007"><ele>202.33333333333334</ele><time>2026-04-09T08:34:28Z</time></trkpt><trkpt lat="45.839169259712364" lon="9.402661993107056"><ele>203.0</ele><time>2026-04-09T08:34:29Z</time></trkpt><trkpt lat="45.83921071957129" lon="9.402897520304512"><ele>202.66666666666669</ele><time>2026-04-09T08:34:30Z</time></trkpt><trkpt lat="45.83925836870972" lon="9.40311955386628"><ele>202.33333333333331</ele><time>2026-04-09T08:34:31Z</time></trkpt><trkpt lat="45.83932326915769" lon="9.403330642185903"><ele>202.0</ele><time>2026-04-09T08:34:32Z</time></trkpt><trkpt lat="45.83939465744598" lon="9.403535413587896"><ele>202.66666666666666</ele><time>2026-04-09T08:34:33Z</time></trkpt><trkpt lat="45.839482159156084" lon="9.403718872725754"><ele>203.33333333333331</ele><time>2026-04-09T08:34:34Z</time></trkpt><trkpt lat="45.83958093110986" lon="9.40390557896308"><ele>204.0</ele><time>2026-04-09T08:34:35Z</time></trkpt><trkpt lat="45.83968441297309" lon="9.404076719447595"><ele>204.66666666666669</ele><time>2026-04-09T08:34:36Z</time></trkpt><trkpt lat="45.839801106360895" lon="9.404246920109285"><ele>205.33333333333334</ele><time>2026-04-09T08:34:37Z</time></trkpt><trkpt lat="45.839931485633805" lon="9.404393992116695"><ele>206.0</ele><time>2026-04-09T08:34:38Z</time></trkpt><trkpt lat="45.840060955603384" lon="9.404525515553882"><ele>206.0</ele><time>2026-04-09T08:34:39Z</time></trkpt><trkpt lat="45.84019180196892" lon="9.404640542456924"><ele>206.0</ele><time>2026-04-09T08:34:40Z</time></trkpt><trkpt lat="45.840332656460085" lon="9.404727656238203"><ele>206.0</ele><time>2026-04-09T08:34:41Z</time></trkpt><trkpt lat="45.84047219166017" lon="9.404801958823551"><ele>206.0</ele><time>2026-04-09T08:34:42Z</time></trkpt><trkpt lat="45.840613561527114" lon="9.404865744899865"><ele>206.0</ele><time>2026-04-09T08:34:43Z</time></trkpt><trkpt lat="45.840734403601886" lon="9.404903363192636"><ele>206.0</ele><time>2026-04-09T08:34:44Z</time></trkpt><trkpt lat="45.84083702037574" lon="9.404923527782524"><ele>206.0</ele><time>2026-04-09T08:34:45Z</time></trkpt><trkpt lat="45.84094352684871" lon="9.404940452658856"><ele>206.50000000000003</ele><time>2026-04-09T08:34:46Z</time></trkpt><trkpt lat="45.84104568420649" lon="9.404947648406681"><ele>207.0</ele><time>2026-04-09T08:34:47Z</time></trkpt><trkpt lat="45.84114020497964" lon="9.404954637008554"><ele>207.5</ele><time>2026-04-09T08:34:48Z</time></trkpt><trkpt lat="45.84122464024868" lon="9.40496978290385"><ele>208.0</ele><time>2026-04-09T08:34:49Z</time></trkpt><trkpt lat="45.84130376794491" lon="9.404985203409943"><ele>208.50000000000003</ele><time>2026-04-09T08:34:50Z</time></trkpt><trkpt lat="45.84137622524562" lon="9.404998989460967"><ele>209.0</ele><time>2026-04-09T08:34:51Z</time></trkpt><trkpt lat="45.8414403503656" lon="9.405012105454386"><ele>209.00000000000003</ele><time>2026-04-09T08:34:52Z</time></trkpt><trkpt lat="45.84150497270532" lon="9.405020723681597"><ele>209.0</ele><time>2026-04-09T08:34:53Z</time></trkpt><trkpt lat="45.841570149127605" lon="9.40502833450958"><ele>209.0</ele><time>2026-04-09T08:34:54Z</time></trkpt><trkpt lat="45.84164820174879" lon="9.405037853767324"><ele>209.0</ele><time>2026-04-09T08:34:55Z</time></trkpt><trkpt lat="45.841719855183406" lon="9.405049378061019"><ele>209.00000000000003</ele><time>2026-04-09T08:34:56Z</time></trkpt><trkpt lat="45.84184050965548" lon="9.405072495573288"><ele>209.0</ele><time>2026-04-09T08:34:58Z</time></trkpt><trkpt lat="45.84190356728511" lon="9.405080504962696"><ele>209.00000000000003</ele><time>2026-04-09T08:34:59Z</time></trkpt><trkpt lat="45.84197605487278" lon="9.405082715726262"><ele>209.0</ele><time>2026-04-09T08:35:00Z</time></trkpt><trkpt lat="45.842053799791664" lon="9.40509041280958"><ele>209.0</ele><time>2026-04-09T08:35:01Z</time></trkpt><trkpt lat="45.842143053358214" lon="9.40509834781291"><ele>209.0</ele><time>2026-04-09T08:35:02Z</time></trkpt><trkpt lat="45.84222929295162" lon="9.405108100214251"><ele>209.00000000000003</ele><time>2026-04-09T08:35:03Z</time></trkpt><trkpt lat="45.84231472864505" lon="9.405118051918118"><ele>209.0</ele><time>2026-04-09T08:35:04Z</time></trkpt><trkpt lat="45.84240127053221" lon="9.405137518174651"><ele>209.0</ele><time>2026-04-09T08:35:05Z</time></trkpt><trkpt lat="45.84249068077902" lon="9.405171956911204"><ele>209.0</ele><time>2026-04-09T08:35:06Z</time></trkpt><trkpt lat="45.84258154697347" lon="9.405212810517199"><ele>209.0</ele><time>2026-04-09T08:35:07Z</time></trkpt><trkpt lat="45.84268665897579" lon="9.405249805151382"><ele>209.0</ele><time>2026-04-09T08:35:08Z</time></trkpt><trkpt lat="45.84278791023571" lon="9.405292005806043"><ele>209.0</ele><time>2026-04-09T08:35:09Z</time></trkpt><trkpt lat="45.84290182955003" lon="9.405335060686955"><ele>208.75</ele><time>2026-04-09T08:35:10Z</time></trkpt><trkpt lat="45.84300375424131" lon="9.405378193241779"><ele>208.5</ele><time>2026-04-09T08:35:11Z</time></trkpt><trkpt lat="45.84311071222487" lon="9.40542695010487"><ele>208.25</ele><time>2026-04-09T08:35:12Z</time></trkpt><trkpt lat="45.84322589554604" lon="9.405449587194623"><ele>208.0</ele><time>2026-04-09T08:35:13Z</time></trkpt><trkpt lat="45.843342432501466" lon="9.405507456431147"><ele>208.25</ele><time>2026-04-09T08:35:14Z</time></trkpt><trkpt lat="45.84346890360662" lon="9.405544202819293"><ele>208.5</ele><time>2026-04-09T08:35:15Z</time></trkpt><trkpt lat="45.84358442362998" lon="9.405601846073283"><ele>208.75</ele><time>2026-04-09T08:35:16Z</time></trkpt><trkpt lat="45.843703521578256" lon="9.405638510081582"><ele>209.0</ele><time>2026-04-09T08:35:17Z</time></trkpt><trkpt lat="45.84381429593395" lon="9.405672475903609"><ele>209.0</ele><time>2026-04-09T08:35:18Z</time></trkpt><trkpt lat="45.84391521712889" lon="9.405715272111442"><ele>209.0</ele><time>2026-04-09T08:35:19Z</time></trkpt><trkpt lat="45.84402245977141" lon="9.40574855832567"><ele>209.0</ele><time>2026-04-09T08:35:20Z</time></trkpt><trkpt lat="45.844139700391516" lon="9.405753902206325"><ele>209.0</ele><time>2026-04-09T08:35:21Z</time></trkpt><trkpt lat="45.844261489535086" lon="9.405736974127597"><ele>209.0</ele><time>2026-04-09T08:35:22Z</time></trkpt><trkpt lat="45.8443874480251" lon="9.405690310756457"><ele>209.0</ele><time>2026-04-09T08:35:23Z</time></trkpt><trkpt lat="45.844507934380076" lon="9.405608914383395"><ele>209.0</ele><time>2026-04-09T08:35:24Z</time></trkpt><trkpt lat="45.84462258952916" lon="9.405501399605624"><ele>209.0</ele><time>2026-04-09T08:35:25Z</time></trkpt><trkpt lat="45.844736977392444" lon="9.405389934961269"><ele>209.0</ele><time>2026-04-09T08:35:26Z</time></trkpt><trkpt lat="45.84484963445894" lon="9.405293439886158"><ele>209.0</ele><time>2026-04-09T08:35:27Z</time></trkpt><trkpt lat="45.84495207036518" lon="9.405187772306745"><ele>209.0</ele><time>2026-04-09T08:35:28Z</time></trkpt><trkpt lat="45.84504717947767" lon="9.405072207121213"><ele>209.0</ele><time>2026-04-09T08:35:29Z</time></trkpt><trkpt lat="45.845100415691626" lon="9.404956705152738"><ele>209.0</ele><time>2026-04-09T08:35:30Z</time></trkpt><trkpt lat="45.845128022449614" lon="9.40482299727871"><ele>209.0</ele><time>2026-04-09T08:35:31Z</time></trkpt><trkpt lat="45.845141864978444" lon="9.404688219448877"><ele>209.0</ele><time>2026-04-09T08:35:32Z</time></trkpt><trkpt lat="45.845132430837126" lon="9.404557428333552"><ele>209.0</ele><time>2026-04-09T08:35:33Z</time></trkpt><trkpt lat="45.845101125195704" lon="9.404436389934219"><ele>209.0</ele><time>2026-04-09T08:35:34Z</time></trkpt><trkpt lat="45.84504745697233" lon="9.40431624081831"><ele>208.79999999999998</ele><time>2026-04-09T08:35:35Z</time></trkpt><trkpt lat="45.84497784425408" lon="9.404203752005962"><ele>208.6</ele><time>2026-04-09T08:35:36Z</time></trkpt><trkpt lat="45.84489751421926" lon="9.404105083159944"><ele>208.4</ele><time>2026-04-09T08:35:37Z</time></trkpt><trkpt lat="45.844791539640845" lon="9.404057079148467"><ele>208.2</ele><time>2026-04-09T08:35:38Z</time></trkpt><trkpt lat="45.84467926449914" lon="9.40406110705149"><ele>208.0</ele><time>2026-04-09T08:35:39Z</time></trkpt><trkpt lat="45.84457409403135" lon="9.404100208452707"><ele>208.0</ele><time>2026-04-09T08:35:40Z</time></trkpt><trkpt lat="45.84445093991079" lon="9.404179225482123"><ele>208.0</ele><time>2026-04-09T08:35:41Z</time></trkpt><trkpt lat="45.844329619396056" lon="9.404286749798139"><ele>208.0</ele><time>2026-04-09T08:35:42Z</time></trkpt><trkpt lat="45.844212681257055" lon="9.404393633377108"><ele>208.0</ele><time>2026-04-09T08:35:43Z</time></trkpt><trkpt lat="45.84409732067981" lon="9.404490052623395"><ele>208.0</ele><time>2026-04-09T08:35:44Z</time></trkpt><trkpt lat="45.84399632996447" lon="9.404612763866094"><ele>208.0</ele><time>2026-04-09T08:35:45Z</time></trkpt><trkpt lat="45.84390268642829" lon="9.404751052551843"><ele>208.0</ele><time>2026-04-09T08:35:46Z</time></trkpt><trkpt lat="45.84383673281224" lon="9.404932683476693"><ele>208.0</ele><time>2026-04-09T08:35:47.018Z</time></trkpt><trkpt lat="45.84375782849754" lon="9.405115310248494"><ele>208.33333333333331</ele><time>2026-04-09T08:35:48.02Z</time></trkpt><trkpt lat="45.843690070160854" lon="9.405266033796751"><ele>208.66666666666669</ele><time>2026-04-09T08:35:49.014Z</time></trkpt><trkpt lat="45.843653500370095" lon="9.405530123970362"><ele>209.0</ele><time>2026-04-09T08:35:50.016Z</time></trkpt><trkpt lat="45.84406082374161" lon="9.40727490925354"><ele>250.0</ele><time>2026-04-09T08:35:53.773Z</time></trkpt><trkpt lat="45.85053304680236" lon="9.414698816844648"><ele>250.5</ele><time>2026-04-09T08:37:59Z</time></trkpt><trkpt lat="45.85062960341822" lon="9.414626048220613"><ele>251.0</ele><time>2026-04-09T08:38:00Z</time></trkpt><trkpt lat="45.85071497688703" lon="9.414506145813455"><ele>251.5</ele><time>2026-04-09T08:38:01Z</time></trkpt><trkpt lat="45.85077257819429" lon="9.414455169323382"><ele>252.0</ele><time>2026-04-09T08:38:02Z</time></trkpt><trkpt lat="45.851038160645246" lon="9.414407826526277"><ele>252.0</ele><time>2026-04-09T08:38:08.001Z</time></trkpt><trkpt lat="45.85111354375162" lon="9.414347793231336"><ele>252.0</ele><time>2026-04-09T08:38:10.001Z</time></trkpt><trkpt lat="45.851179149141664" lon="9.414308204831821"><ele>252.0</ele><time>2026-04-09T08:38:11.001Z</time></trkpt><trkpt lat="45.85125573860195" lon="9.414253838207022"><ele>252.0</ele><time>2026-04-09T08:38:12.001Z</time></trkpt><trkpt lat="45.85134406403811" lon="9.414205975264222"><ele>252.0</ele><time>2026-04-09T08:38:13.001Z</time></trkpt><trkpt lat="45.851446732382655" lon="9.414139593905546"><ele>252.0</ele><time>2026-04-09T08:38:14Z</time></trkpt><trkpt lat="45.85154807018882" lon="9.41406576413189"><ele>252.0</ele><time>2026-04-09T08:38:15Z</time></trkpt><trkpt lat="45.851638179195156" lon="9.413984528026408"><ele>252.0</ele><time>2026-04-09T08:38:16Z</time></trkpt><trkpt lat="45.85172331368124" lon="9.413923382469395"><ele>252.0</ele><time>2026-04-09T08:38:17Z</time></trkpt><trkpt lat="45.85183001028421" lon="9.41386225079942"><ele>252.0</ele><time>2026-04-09T08:38:18Z</time></trkpt><trkpt lat="45.851931639960945" lon="9.413776279518688"><ele>252.25</ele><time>2026-04-09T08:38:19Z</time></trkpt><trkpt lat="45.85202940928382" lon="9.413685503993374"><ele>252.5</ele><time>2026-04-09T08:38:20Z</time></trkpt><trkpt lat="45.85215472756479" lon="9.413592974291362"><ele>252.75</ele><time>2026-04-09T08:38:21Z</time></trkpt><trkpt lat="45.85224615200205" lon="9.413519168625603"><ele>253.0</ele><time>2026-04-09T08:38:22Z</time></trkpt><trkpt lat="45.852342167025554" lon="9.413460579899755"><ele>253.0</ele><time>2026-04-09T08:38:23Z</time></trkpt><trkpt lat="45.85243108479223" lon="9.413404851871508"><ele>253.0</ele><time>2026-04-09T08:38:24Z</time></trkpt><trkpt lat="45.85251564087245" lon="9.413342322954845"><ele>253.0</ele><time>2026-04-09T08:38:25Z</time></trkpt><trkpt lat="45.852599812540596" lon="9.413288177541643"><ele>253.0</ele><time>2026-04-09T08:38:26Z</time></trkpt><trkpt lat="45.85269102718608" lon="9.413233224202383"><ele>253.0</ele><time>2026-04-09T08:38:27Z</time></trkpt><trkpt lat="45.85277195926199" lon="9.413180406793483"><ele>252.33333333333331</ele><time>2026-04-09T08:38:28Z</time></trkpt><trkpt lat="45.852862158253416" lon="9.413130856562816"><ele>251.66666666666666</ele><time>2026-04-09T08:38:29Z</time></trkpt><trkpt lat="45.85295132428856" lon="9.41306406166217"><ele>251.0</ele><time>2026-04-09T08:38:30Z</time></trkpt><trkpt lat="45.85301876697636" lon="9.413031853650557"><ele>250.33333333333331</ele><time>2026-04-09T08:38:31Z</time></trkpt><trkpt lat="45.85307578185683" lon="9.412981651621156"><ele>249.66666666666666</ele><time>2026-04-09T08:38:32Z</time></trkpt><trkpt lat="45.85314123618684" lon="9.412938374817452"><ele>249.0</ele><time>2026-04-09T08:38:33Z</time></trkpt><trkpt lat="45.853198582925216" lon="9.412895632851448"><ele>248.39999999999998</ele><time>2026-04-09T08:38:34Z</time></trkpt><trkpt lat="45.85326799675646" lon="9.41284692806926"><ele>247.79999999999998</ele><time>2026-04-09T08:38:35Z</time></trkpt><trkpt lat="45.853382111222416" lon="9.412771114891605"><ele>247.20000000000002</ele><time>2026-04-09T08:38:37Z</time></trkpt><trkpt lat="45.853486054004854" lon="9.412715112299079"><ele>246.60000000000002</ele><time>2026-04-09T08:38:39Z</time></trkpt><trkpt lat="45.85359140161959" lon="9.412694764334942"><ele>246.0</ele><time>2026-04-09T08:38:41Z</time></trkpt><trkpt lat="45.85368557825317" lon="9.41269268511864"><ele>246.0</ele><time>2026-04-09T08:38:43Z</time></trkpt><trkpt lat="45.853794533594545" lon="9.412691911898936"><ele>246.00000000000003</ele><time>2026-04-09T08:38:45Z</time></trkpt><trkpt lat="45.853876851394155" lon="9.41262430861062"><ele>246.00000000000003</ele><time>2026-04-09T08:38:47Z</time></trkpt><trkpt lat="45.85393355883523" lon="9.412555142815664"><ele>246.0</ele><time>2026-04-09T08:38:48Z</time></trkpt><trkpt lat="45.85400931272717" lon="9.412489455044996"><ele>246.0</ele><time>2026-04-09T08:38:49Z</time></trkpt><trkpt lat="45.854099568781585" lon="9.412454935293313"><ele>246.0</ele><time>2026-04-09T08:38:50Z</time></trkpt><trkpt lat="45.85419966843824" lon="9.412450290291204"><ele>246.00000000000003</ele><time>2026-04-09T08:38:51Z</time></trkpt><trkpt lat="45.854294783131046" lon="9.41244294545574"><ele>246.00000000000003</ele><time>2026-04-09T08:38:52Z</time></trkpt><trkpt lat="45.85439748537149" lon="9.412426525818866"><ele>246.0</ele><time>2026-04-09T08:38:53Z</time></trkpt><trkpt lat="45.854521940590104" lon="9.412404353626846"><ele>246.0</ele><time>2026-04-09T08:38:54Z</time></trkpt><trkpt lat="45.85464581899561" lon="9.412411994738983"><ele>246.5</ele><time>2026-04-09T08:38:55Z</time></trkpt><trkpt lat="45.85476852169935" lon="9.412385964038332"><ele>247.0</ele><time>2026-04-09T08:38:56Z</time></trkpt><trkpt lat="45.85489353295758" lon="9.41236841558309"><ele>247.5</ele><time>2026-04-09T08:38:57Z</time></trkpt><trkpt lat="45.8550311630302" lon="9.412338235173868"><ele>248.0</ele><time>2026-04-09T08:38:58Z</time></trkpt><trkpt lat="45.85516747362204" lon="9.412308701490918"><ele>248.0</ele><time>2026-04-09T08:38:59Z</time></trkpt><trkpt lat="45.85529167676634" lon="9.41226942925032"><ele>248.0</ele><time>2026-04-09T08:39:00Z</time></trkpt><trkpt lat="45.85540580001704" lon="9.412231147717945"><ele>248.0</ele><time>2026-04-09T08:39:01Z</time></trkpt><trkpt lat="45.85550623016648" lon="9.412178113208055"><ele>248.0</ele><time>2026-04-09T08:39:02Z</time></trkpt><trkpt lat="45.8555987484279" lon="9.41213462378172"><ele>248.0</ele><time>2026-04-09T08:39:03Z</time></trkpt><trkpt lat="45.85569211430435" lon="9.41210949845126"><ele>248.0</ele><time>2026-04-09T08:39:04Z</time></trkpt><trkpt lat="45.85577988223697" lon="9.412087859203242"><ele>248.0</ele><time>2026-04-09T08:39:05Z</time></trkpt><trkpt lat="45.855870476786386" lon="9.412057120772044"><ele>248.0</ele><time>2026-04-09T08:39:06Z</time></trkpt><trkpt lat="45.85597155111211" lon="9.412056996173796"><ele>248.0</ele><time>2026-04-09T08:39:07Z</time></trkpt><trkpt lat="45.85605989791538" lon="9.412011870462294"><ele>248.0</ele><time>2026-04-09T08:39:08Z</time></trkpt><trkpt lat="45.856165696665485" lon="9.411925403117142"><ele>248.75</ele><time>2026-04-09T08:39:09Z</time></trkpt><trkpt lat="45.8562789761412" lon="9.411848361481795"><ele>249.5</ele><time>2026-04-09T08:39:10Z</time></trkpt><trkpt lat="45.85638137373966" lon="9.411718189906189"><ele>250.25</ele><time>2026-04-09T08:39:11Z</time></trkpt><trkpt lat="45.8565232019388" lon="9.41168100995572"><ele>251.0</ele><time>2026-04-09T08:39:12Z</time></trkpt><trkpt lat="45.85665829042767" lon="9.411600505395782"><ele>251.25</ele><time>2026-04-09T08:39:13Z</time></trkpt><trkpt lat="45.85678744563511" lon="9.4114605145944"><ele>251.5</ele><time>2026-04-09T08:39:14Z</time></trkpt><trkpt lat="45.85689658224284" lon="9.411359052598431"><ele>251.75</ele><time>2026-04-09T08:39:15Z</time></trkpt><trkpt lat="45.85700840316643" lon="9.41122459996357"><ele>252.0</ele><time>2026-04-09T08:39:16Z</time></trkpt><trkpt lat="45.85711108318856" lon="9.411107648607597"><ele>252.0</ele><time>2026-04-09T08:39:17Z</time></trkpt><trkpt lat="45.85720971026651" lon="9.410982309015333"><ele>252.0</ele><time>2026-04-09T08:39:18Z</time></trkpt><trkpt lat="45.85731431604782" lon="9.410847859615542"><ele>252.0</ele><time>2026-04-09T08:39:19Z</time></trkpt><trkpt lat="45.85740840449887" lon="9.41068806648635"><ele>252.0</ele><time>2026-04-09T08:39:20Z</time></trkpt><trkpt lat="45.85750679004193" lon="9.410555355888675"><ele>252.25</ele><time>2026-04-09T08:39:21Z</time></trkpt><trkpt lat="45.85759201188008" lon="9.410437074954393"><ele>252.5</ele><time>2026-04-09T08:39:22Z</time></trkpt><trkpt lat="45.857680561706886" lon="9.410312988833635"><ele>252.75</ele><time>2026-04-09T08:39:23Z</time></trkpt><trkpt lat="45.857755948098266" lon="9.410183274372839"><ele>253.0</ele><time>2026-04-09T08:39:24Z</time></trkpt><trkpt lat="45.85782519564222" lon="9.41006445602304"><ele>253.2</ele><time>2026-04-09T08:39:25Z</time></trkpt><trkpt lat="45.85789485652369" lon="9.409948918924375"><ele>253.4</ele><time>2026-04-09T08:39:26Z</time></trkpt><trkpt lat="45.85797342572046" lon="9.40983884934039"><ele>253.59999999999997</ele><time>2026-04-09T08:39:27Z</time></trkpt><trkpt lat="45.858035068413436" lon="9.40977724140211"><ele>253.79999999999998</ele><time>2026-04-09T08:39:28Z</time></trkpt><trkpt lat="45.85808892508701" lon="9.409703325127786"><ele>254.0</ele><time>2026-04-09T08:39:29Z</time></trkpt><trkpt lat="45.8581773402483" lon="9.409590417877219"><ele>254.50000000000003</ele><time>2026-04-09T08:39:31Z</time></trkpt><trkpt lat="45.85823069741718" lon="9.40949130318546"><ele>255.0</ele><time>2026-04-09T08:39:33Z</time></trkpt><trkpt lat="45.858287718995015" lon="9.40940766889967"><ele>255.5</ele><time>2026-04-09T08:39:35Z</time></trkpt><trkpt lat="45.858366333542364" lon="9.409311932892338"><ele>256.0</ele><time>2026-04-09T08:39:37Z</time></trkpt><trkpt lat="45.858440037376646" lon="9.409261455284959"><ele>256.5</ele><time>2026-04-09T08:39:39Z</time></trkpt><trkpt lat="45.8585173870372" lon="9.409207591318314"><ele>257.0</ele><time>2026-04-09T08:39:41Z</time></trkpt><trkpt lat="45.8585819781466" lon="9.409147128448707"><ele>257.0</ele><time>2026-04-09T08:39:42Z</time></trkpt><trkpt lat="45.85863446441808" lon="9.409064941777727"><ele>257.0</ele><time>2026-04-09T08:39:43Z</time></trkpt><trkpt lat="45.85866317692558" lon="9.408978943453132"><ele>257.0</ele><time>2026-04-09T08:39:44Z</time></trkpt><trkpt lat="45.85871846068428" lon="9.408897677622457"><ele>257.0</ele><time>2026-04-09T08:39:45Z</time></trkpt><trkpt lat="45.858780792808766" lon="9.408809794891836"><ele>257.0</ele><time>2026-04-09T08:39:46Z</time></trkpt><trkpt lat="45.8588603290905" lon="9.408745331984516"><ele>257.0</ele><time>2026-04-09T08:39:47Z</time></trkpt><trkpt lat="45.85893549316848" lon="9.408648401906659"><ele>256.0</ele><time>2026-04-09T08:39:48Z</time></trkpt><trkpt lat="45.85901396458036" lon="9.408545436538022"><ele>255.0</ele><time>2026-04-09T08:39:49Z</time></trkpt><trkpt lat="45.859099044344255" lon="9.408433190494836"><ele>254.0</ele><time>2026-04-09T08:39:50Z</time></trkpt><trkpt lat="45.85917470274828" lon="9.408333374034918"><ele>253.0</ele><time>2026-04-09T08:39:51Z</time></trkpt><trkpt lat="45.85924170228995" lon="9.408244685703785"><ele>252.0</ele><time>2026-04-09T08:39:52Z</time></trkpt><trkpt lat="45.85930212354077" lon="9.408164711345389"><ele>252.2</ele><time>2026-04-09T08:39:53Z</time></trkpt><trkpt lat="45.859368257052445" lon="9.408077176233485"><ele>252.39999999999998</ele><time>2026-04-09T08:39:54Z</time></trkpt><trkpt lat="45.85944349942887" lon="9.40797746903336"><ele>252.60000000000002</ele><time>2026-04-09T08:39:55Z</time></trkpt><trkpt lat="45.85950669475208" lon="9.407893828756873"><ele>252.8</ele><time>2026-04-09T08:39:56Z</time></trkpt><trkpt lat="45.85957547481861" lon="9.407804762755838"><ele>253.0</ele><time>2026-04-09T08:39:57Z</time></trkpt><trkpt lat="45.85963750507281" lon="9.407729021840598"><ele>253.0</ele><time>2026-04-09T08:39:58Z</time></trkpt><trkpt lat="45.8597163798584" lon="9.407650802987707"><ele>253.0</ele><time>2026-04-09T08:39:59Z</time></trkpt><trkpt lat="45.85979934778477" lon="9.407591230838495"><ele>253.0</ele><time>2026-04-09T08:40:00Z</time></trkpt><trkpt lat="45.85990005590266" lon="9.407543759501488"><ele>253.0</ele><time>2026-04-09T08:40:01Z</time></trkpt><trkpt lat="45.859990171791615" lon="9.40750215806652"><ele>253.0</ele><time>2026-04-09T08:40:02Z</time></trkpt><trkpt lat="45.860097793543254" lon="9.407463679893764"><ele>253.66666666666666</ele><time>2026-04-09T08:40:03Z</time></trkpt><trkpt lat="45.86018318366696" lon="9.407428493225481"><ele>254.33333333333331</ele><time>2026-04-09T08:40:04Z</time></trkpt><trkpt lat="45.86027105424879" lon="9.407387877931237"><ele>255.0</ele><time>2026-04-09T08:40:05Z</time></trkpt><trkpt lat="45.86035643865806" lon="9.407347331312717"><ele>255.66666666666669</ele><time>2026-04-09T08:40:06Z</time></trkpt><trkpt lat="45.86044190108866" lon="9.407302072118885"><ele>256.33333333333337</ele><time>2026-04-09T08:40:07Z</time></trkpt><trkpt lat="45.86051707120067" lon="9.407259400496601"><ele>257.0</ele><time>2026-04-09T08:40:08Z</time></trkpt><trkpt lat="45.86059323880923" lon="9.407219162564122"><ele>257.0</ele><time>2026-04-09T08:40:09Z</time></trkpt><trkpt lat="45.86066893503994" lon="9.407183339692487"><ele>257.0</ele><time>2026-04-09T08:40:10Z</time></trkpt><trkpt lat="45.86074165656562" lon="9.407151638151188"><ele>257.0</ele><time>2026-04-09T08:40:11Z</time></trkpt><trkpt lat="45.860872885531975" lon="9.407096419475717"><ele>257.0</ele><time>2026-04-09T08:40:13Z</time></trkpt><trkpt lat="45.86095866720269" lon="9.407057845178606"><ele>257.0</ele><time>2026-04-09T08:40:14Z</time></trkpt><trkpt lat="45.86107107971208" lon="9.40697626077542"><ele>257.0</ele><time>2026-04-09T08:40:15Z</time></trkpt><trkpt lat="45.861192587259055" lon="9.406933948108954"><ele>257.0</ele><time>2026-04-09T08:40:16Z</time></trkpt><trkpt lat="45.86132638436855" lon="9.406869764857479"><ele>257.0</ele><time>2026-04-09T08:40:17Z</time></trkpt><trkpt lat="45.861456134415334" lon="9.406805984114403"><ele>257.0</ele><time>2026-04-09T08:40:18Z</time></trkpt><trkpt lat="45.86158287194113" lon="9.406736813744182"><ele>257.0</ele><time>2026-04-09T08:40:19Z</time></trkpt><trkpt lat="45.8617047315952" lon="9.406650071934727"><ele>257.0</ele><time>2026-04-09T08:40:20Z</time></trkpt><trkpt lat="45.86183410433827" lon="9.40657018483188"><ele>257.0</ele><time>2026-04-09T08:40:21Z</time></trkpt><trkpt lat="45.861968855428" lon="9.406477624264216"><ele>257.0</ele><time>2026-04-09T08:40:22Z</time></trkpt><trkpt lat="45.86208917789596" lon="9.406390935528105"><ele>260.25</ele><time>2026-04-09T08:40:23Z</time></trkpt><trkpt lat="45.86218886926563" lon="9.406299620233687"><ele>263.5</ele><time>2026-04-09T08:40:24Z</time></trkpt><trkpt lat="45.862286026003176" lon="9.406196275137393"><ele>266.75</ele><time>2026-04-09T08:40:25Z</time></trkpt><trkpt lat="45.86237578435106" lon="9.40608656094292"><ele>270.0</ele><time>2026-04-09T08:40:26Z</time></trkpt><trkpt lat="45.862445040908234" lon="9.405990598847096"><ele>270.0</ele><time>2026-04-09T08:40:27Z</time></trkpt><trkpt lat="45.862516944431796" lon="9.405906227234892"><ele>270.0</ele><time>2026-04-09T08:40:28Z</time></trkpt><trkpt lat="45.86258228119171" lon="9.405826299795864"><ele>270.0</ele><time>2026-04-09T08:40:29Z</time></trkpt><trkpt lat="45.862730625820355" lon="9.405705194851068"><ele>270.0</ele><time>2026-04-09T08:40:31Z</time></trkpt><trkpt lat="45.862747014206235" lon="9.405616287327911"><ele>270.0</ele><time>2026-04-09T08:40:32Z</time></trkpt><trkpt lat="45.86282368116798" lon="9.405474900458556"><ele>270.4</ele><time>2026-04-09T08:40:34Z</time></trkpt><trkpt lat="45.86290010551038" lon="9.405325764982814"><ele>270.8</ele><time>2026-04-09T08:40:36Z</time></trkpt><trkpt lat="45.86292984055514" lon="9.405219758925924"><ele>271.2</ele><time>2026-04-09T08:40:37Z</time></trkpt><trkpt lat="45.86297827919198" lon="9.40510709852434"><ele>271.6</ele><time>2026-04-09T08:40:38Z</time></trkpt><trkpt lat="45.86303085855388" lon="9.404995592731312"><ele>272.0</ele><time>2026-04-09T08:40:39Z</time></trkpt><trkpt lat="45.863080506244486" lon="9.404887372960424"><ele>272.0</ele><time>2026-04-09T08:40:40Z</time></trkpt><trkpt lat="45.86312912373255" lon="9.404785557128443"><ele>272.0</ele><time>2026-04-09T08:40:41Z</time></trkpt><trkpt lat="45.863192551464266" lon="9.404709993228927"><ele>272.0</ele><time>2026-04-09T08:40:42Z</time></trkpt><trkpt lat="45.863240988235034" lon="9.404611304054226"><ele>272.0</ele><time>2026-04-09T08:40:43Z</time></trkpt><trkpt lat="45.8632902200647" lon="9.404507385490984"><ele>272.0</ele><time>2026-04-09T08:40:44Z</time></trkpt><trkpt lat="45.863338962638856" lon="9.404406514085366"><ele>272.0</ele><time>2026-04-09T08:40:45Z</time></trkpt><trkpt lat="45.863387281079326" lon="9.404302724293787"><ele>272.1666666666667</ele><time>2026-04-09T08:40:46Z</time></trkpt><trkpt lat="45.863437019929734" lon="9.404198841918417"><ele>272.33333333333337</ele><time>2026-04-09T08:40:47Z</time></trkpt><trkpt lat="45.863486579549196" lon="9.404095196552213"><ele>272.5</ele><time>2026-04-09T08:40:48Z</time></trkpt><trkpt lat="45.86352905615801" lon="9.403995711259439"><ele>272.6666666666667</ele><time>2026-04-09T08:40:49Z</time></trkpt><trkpt lat="45.86356700242194" lon="9.403908774990596"><ele>272.8333333333333</ele><time>2026-04-09T08:40:50Z</time></trkpt><trkpt lat="45.86361559580416" lon="9.403841823645216"><ele>273.0</ele><time>2026-04-09T08:40:51Z</time></trkpt><trkpt lat="45.86365446641459" lon="9.403764200019161"><ele>274.6666666666667</ele><time>2026-04-09T08:40:52Z</time></trkpt><trkpt lat="45.86371521616336" lon="9.40372858881104"><ele>276.3333333333333</ele><time>2026-04-09T08:40:54Z</time></trkpt><trkpt lat="45.86379085339653" lon="9.403709744829554"><ele>278.0</ele><time>2026-04-09T08:40:57Z</time></trkpt><trkpt lat="45.86389031196654" lon="9.403783441968644"><ele>279.66666666666663</ele><time>2026-04-09T08:40:59Z</time></trkpt><trkpt lat="45.863944436526495" lon="9.403866960904274"><ele>281.3333333333333</ele><time>2026-04-09T08:41:00Z</time></trkpt><trkpt lat="45.86398683391631" lon="9.403942257896084"><ele>283.0</ele><time>2026-04-09T08:41:01Z</time></trkpt><trkpt lat="45.86397870998636" lon="9.40409327178596"><ele>283.6</ele><time>2026-04-09T08:41:02Z</time></trkpt><trkpt lat="45.86400653882424" lon="9.40422477647064"><ele>284.20000000000005</ele><time>2026-04-09T08:41:03Z</time></trkpt><trkpt lat="45.864044983092626" lon="9.404367940937364"><ele>284.8</ele><time>2026-04-09T08:41:04Z</time></trkpt><trkpt lat="45.86409287725005" lon="9.404513505244802"><ele>285.40000000000003</ele><time>2026-04-09T08:41:05Z</time></trkpt><trkpt lat="45.86415181482988" lon="9.404622826353341"><ele>286.0</ele><time>2026-04-09T08:41:06Z</time></trkpt><trkpt lat="45.86422122568738" lon="9.404716017287283"><ele>287.6</ele><time>2026-04-09T08:41:07Z</time></trkpt><trkpt lat="45.864308924956674" lon="9.404803753570567"><ele>289.20000000000005</ele><time>2026-04-09T08:41:08Z</time></trkpt><trkpt lat="45.86440998417182" lon="9.404879010051722"><ele>290.79999999999995</ele><time>2026-04-09T08:41:09Z</time></trkpt><trkpt lat="45.86451075701552" lon="9.404934363877146"><ele>292.4</ele><time>2026-04-09T08:41:10Z</time></trkpt><trkpt lat="45.864609947675234" lon="9.404988028925667"><ele>294.0</ele><time>2026-04-09T08:41:11Z</time></trkpt><trkpt lat="45.864685544433286" lon="9.405030518648623"><ele>294.0</ele><time>2026-04-09T08:41:12Z</time></trkpt><trkpt lat="45.86476491483367" lon="9.405045337911941"><ele>294.0</ele><time>2026-04-09T08:41:13Z</time></trkpt><trkpt lat="45.864847357879135" lon="9.40501807697826"><ele>294.0</ele><time>2026-04-09T08:41:14Z</time></trkpt><trkpt lat="45.86493188880784" lon="9.404980291879397"><ele>294.0</ele><time>2026-04-09T08:41:15Z</time></trkpt><trkpt lat="45.86499999637885" lon="9.404875388273998"><ele>294.0</ele><time>2026-04-09T08:41:16Z</time></trkpt><trkpt lat="45.865031895218365" lon="9.404727261890887"><ele>293.75</ele><time>2026-04-09T08:41:17Z</time></trkpt><trkpt lat="45.865064183132" lon="9.40457456279809"><ele>293.5</ele><time>2026-04-09T08:41:18Z</time></trkpt><trkpt lat="45.86509594904904" lon="9.404406596755319"><ele>293.25</ele><time>2026-04-09T08:41:19Z</time></trkpt><trkpt lat="45.865155933810634" lon="9.404251605340674"><ele>293.0</ele><time>2026-04-09T08:41:20Z</time></trkpt><trkpt lat="45.865193827062114" lon="9.404099698725426"><ele>294.8</ele><time>2026-04-09T08:41:21Z</time></trkpt><trkpt lat="45.865230096471066" lon="9.403929169687622"><ele>296.6</ele><time>2026-04-09T08:41:22Z</time></trkpt><trkpt lat="45.865267350050075" lon="9.403787698216936"><ele>298.4</ele><time>2026-04-09T08:41:23Z</time></trkpt><trkpt lat="45.86532217745606" lon="9.403668879181744"><ele>300.2</ele><time>2026-04-09T08:41:24Z</time></trkpt><trkpt lat="45.865389303523315" lon="9.403576562566887"><ele>302.0</ele><time>2026-04-09T08:41:25Z</time></trkpt><trkpt lat="45.865473811516715" lon="9.403501945672316"><ele>302.0</ele><time>2026-04-09T08:41:26Z</time></trkpt><trkpt lat="45.86556825265807" lon="9.403445159777588"><ele>302.0</ele><time>2026-04-09T08:41:27Z</time></trkpt><trkpt lat="45.86567021452464" lon="9.403392201309433"><ele>302.0</ele><time>2026-04-09T08:41:28Z</time></trkpt><trkpt lat="45.86576323999473" lon="9.403292483079357"><ele>302.0</ele><time>2026-04-09T08:41:29Z</time></trkpt><trkpt lat="45.865850939718555" lon="9.403179911631897"><ele>302.0</ele><time>2026-04-09T08:41:30Z</time></trkpt><trkpt lat="45.8659426808785" lon="9.403078247077433"><ele>303.8</ele><time>2026-04-09T08:41:31Z</time></trkpt><trkpt lat="45.86604109636428" lon="9.402997431567096"><ele>305.6</ele><time>2026-04-09T08:41:32Z</time></trkpt><trkpt lat="45.86615009513985" lon="9.402967946568099"><ele>307.40000000000003</ele><time>2026-04-09T08:41:33Z</time></trkpt><trkpt lat="45.86625676878106" lon="9.402963234623927"><ele>309.2</ele><time>2026-04-09T08:41:34Z</time></trkpt><trkpt lat="45.866367226131366" lon="9.40301338074807"><ele>311.0</ele><time>2026-04-09T08:41:35Z</time></trkpt><trkpt lat="45.86648509106157" lon="9.403093984887988"><ele>311.75</ele><time>2026-04-09T08:41:36Z</time></trkpt><trkpt lat="45.866610371903775" lon="9.403158082856892"><ele>312.5</ele><time>2026-04-09T08:41:37Z</time></trkpt><trkpt lat="45.86673382206776" lon="9.403222596625769"><ele>313.25</ele><time>2026-04-09T08:41:38Z</time></trkpt><trkpt lat="45.866859553230825" lon="9.403285069741045"><ele>314.0</ele><time>2026-04-09T08:41:39Z</time></trkpt><trkpt lat="45.86697451764993" lon="9.40334247681588"><ele>315.0</ele><time>2026-04-09T08:41:40Z</time></trkpt><trkpt lat="45.867087716461924" lon="9.403405397141645"><ele>316.0</ele><time>2026-04-09T08:41:41Z</time></trkpt><trkpt lat="45.867204523384295" lon="9.403465640696535"><ele>317.0</ele><time>2026-04-09T08:41:42Z</time></trkpt><trkpt lat="45.86730597947027" lon="9.403517440227686"><ele>318.0</ele><time>2026-04-09T08:41:43Z</time></trkpt><trkpt lat="45.86738711629952" lon="9.403555647183943"><ele>319.0</ele><time>2026-04-09T08:41:44Z</time></trkpt><trkpt lat="45.86746172308375" lon="9.403589003842924"><ele>319.0</ele><time>2026-04-09T08:41:45Z</time></trkpt><trkpt lat="45.867555232122506" lon="9.403626923060832"><ele>319.0</ele><time>2026-04-09T08:41:46Z</time></trkpt><trkpt lat="45.867656750308726" lon="9.403684876317516"><ele>319.0</ele><time>2026-04-09T08:41:47Z</time></trkpt><trkpt lat="45.86777017818352" lon="9.403747327326167"><ele>319.0</ele><time>2026-04-09T08:41:48Z</time></trkpt><trkpt lat="45.86788060363145" lon="9.403822815869082"><ele>320.4</ele><time>2026-04-09T08:41:49Z</time></trkpt><trkpt lat="45.86798688668585" lon="9.40388366680827"><ele>321.79999999999995</ele><time>2026-04-09T08:41:50Z</time></trkpt><trkpt lat="45.86808810620873" lon="9.403921369093668"><ele>323.20000000000005</ele><time>2026-04-09T08:41:51Z</time></trkpt><trkpt lat="45.86819662365972" lon="9.403924413985052"><ele>324.6</ele><time>2026-04-09T08:41:52Z</time></trkpt><trkpt lat="45.86830238211712" lon="9.403911809783859"><ele>326.0</ele><time>2026-04-09T08:41:53Z</time></trkpt><trkpt lat="45.86839698079369" lon="9.403911110005847"><ele>328.0</ele><time>2026-04-09T08:41:54Z</time></trkpt><trkpt lat="45.86848225346237" lon="9.403909169184331"><ele>330.0</ele><time>2026-04-09T08:41:55Z</time></trkpt><trkpt lat="45.86854983043542" lon="9.403889091401002"><ele>332.0</ele><time>2026-04-09T08:41:56Z</time></trkpt><trkpt lat="45.86861395608983" lon="9.403838530327887"><ele>334.0</ele><time>2026-04-09T08:41:57Z</time></trkpt><trkpt lat="45.86868848002736" lon="9.403797200386562"><ele>336.0</ele><time>2026-04-09T08:41:58Z</time></trkpt><trkpt lat="45.86871263112556" lon="9.403638549820679"><ele>338.0</ele><time>2026-04-09T08:41:59Z</time></trkpt><trkpt lat="45.86873693453878" lon="9.403484146717936"><ele>338.0</ele><time>2026-04-09T08:42:00Z</time></trkpt><trkpt lat="45.86875414381082" lon="9.40334325573607"><ele>338.0</ele><time>2026-04-09T08:42:01Z</time></trkpt><trkpt lat="45.8687799565198" lon="9.403203745778272"><ele>338.0</ele><time>2026-04-09T08:42:02Z</time></trkpt><trkpt lat="45.86881923743775" lon="9.403098345413708"><ele>338.0</ele><time>2026-04-09T08:42:03Z</time></trkpt><trkpt lat="45.868839163956835" lon="9.40298377391912"><ele>338.0</ele><time>2026-04-09T08:42:04Z</time></trkpt><trkpt lat="45.86897099726327" lon="9.402932484374439"><ele>336.79999999999995</ele><time>2026-04-09T08:42:05Z</time></trkpt><trkpt lat="45.86906575138237" lon="9.402873181810907"><ele>335.6</ele><time>2026-04-09T08:42:06Z</time></trkpt><trkpt lat="45.86915963125195" lon="9.40281766879272"><ele>334.4</ele><time>2026-04-09T08:42:07Z</time></trkpt><trkpt lat="45.86924709086216" lon="9.402768422266055"><ele>333.20000000000005</ele><time>2026-04-09T08:42:08Z</time></trkpt><trkpt lat="45.86933275331919" lon="9.40273192652314"><ele>332.0</ele><time>2026-04-09T08:42:09Z</time></trkpt><trkpt lat="45.86942710818531" lon="9.402734594743196"><ele>332.0</ele><time>2026-04-09T08:42:10Z</time></trkpt><trkpt lat="45.86951378817161" lon="9.402757557108373"><ele>332.0</ele><time>2026-04-09T08:42:11Z</time></trkpt><trkpt lat="45.86961009349162" lon="9.402802592270021"><ele>332.0</ele><time>2026-04-09T08:42:12Z</time></trkpt><trkpt lat="45.869700332604594" lon="9.402851708004684"><ele>332.0</ele><time>2026-04-09T08:42:13Z</time></trkpt><trkpt lat="45.86979628261853" lon="9.402903675056944"><ele>332.0</ele><time>2026-04-09T08:42:14Z</time></trkpt><trkpt lat="45.869880246902994" lon="9.402953787078298"><ele>332.0</ele><time>2026-04-09T08:42:15Z</time></trkpt><trkpt lat="45.86995851663546" lon="9.40299158834794"><ele>332.0</ele><time>2026-04-09T08:42:16Z</time></trkpt><trkpt lat="45.87004657345322" lon="9.403019372402259"><ele>332.0</ele><time>2026-04-09T08:42:17Z</time></trkpt><trkpt lat="45.8701320931749" lon="9.403025757609083"><ele>332.0</ele><time>2026-04-09T08:42:18Z</time></trkpt><trkpt lat="45.87022630665988" lon="9.40301353566609"><ele>332.0</ele><time>2026-04-09T08:42:19Z</time></trkpt><trkpt lat="45.87033042070159" lon="9.403002475829814"><ele>332.8</ele><time>2026-04-09T08:42:20Z</time></trkpt><trkpt lat="45.87042462467412" lon="9.403016091071471"><ele>333.6</ele><time>2026-04-09T08:42:21Z</time></trkpt><trkpt lat="45.87051586547854" lon="9.402999204965514"><ele>334.40000000000003</ele><time>2026-04-09T08:42:22Z</time></trkpt><trkpt lat="45.87060412527734" lon="9.402994967548501"><ele>335.20000000000005</ele><time>2026-04-09T08:42:23Z</time></trkpt><trkpt lat="45.870696063822244" lon="9.40301071611312"><ele>336.0</ele><time>2026-04-09T08:42:24Z</time></trkpt><trkpt lat="45.8708029559389" lon="9.403061716031768"><ele>337.8</ele><time>2026-04-09T08:42:25Z</time></trkpt><trkpt lat="45.87088478511974" lon="9.403069402343116"><ele>339.6</ele><time>2026-04-09T08:42:26Z</time></trkpt><trkpt lat="45.870967591261675" lon="9.40310490199878"><ele>341.4</ele><time>2026-04-09T08:42:27Z</time></trkpt><trkpt lat="45.87105502930335" lon="9.403160266858174"><ele>343.2</ele><time>2026-04-09T08:42:28Z</time></trkpt><trkpt lat="45.871150838002315" lon="9.403238044639034"><ele>345.0</ele><time>2026-04-09T08:42:29Z</time></trkpt><trkpt lat="45.871261001734105" lon="9.403323280901319"><ele>345.0</ele><time>2026-04-09T08:42:30Z</time></trkpt><trkpt lat="45.87139105607789" lon="9.40342062286779"><ele>345.0</ele><time>2026-04-09T08:42:31Z</time></trkpt><trkpt lat="45.87151055251896" lon="9.403513907929698"><ele>345.0</ele><time>2026-04-09T08:42:32Z</time></trkpt><trkpt lat="45.87160525515974" lon="9.403594158283758"><ele>345.0</ele><time>2026-04-09T08:42:33Z</time></trkpt><trkpt lat="45.871691065148745" lon="9.403657406315471"><ele>345.0</ele><time>2026-04-09T08:42:34Z</time></trkpt><trkpt lat="45.87176334853766" lon="9.403713796273005"><ele>345.0</ele><time>2026-04-09T08:42:35Z</time></trkpt><trkpt lat="45.87182299902933" lon="9.40375559977599"><ele>345.0</ele><time>2026-04-09T08:42:36Z</time></trkpt><trkpt lat="45.87188601286008" lon="9.403808248468161"><ele>345.0</ele><time>2026-04-09T08:42:38Z</time></trkpt><trkpt lat="45.87195482175408" lon="9.403875901846588"><ele>345.0</ele><time>2026-04-09T08:42:41Z</time></trkpt><trkpt lat="45.87206877746308" lon="9.403939477899847"><ele>345.0</ele><time>2026-04-09T08:42:43Z</time></trkpt><trkpt lat="45.872122247553754" lon="9.404011508123025"><ele>348.1666666666667</ele><time>2026-04-09T08:42:44Z</time></trkpt><trkpt lat="45.87218334349936" lon="9.40405131873556"><ele>351.3333333333333</ele><time>2026-04-09T08:42:45Z</time></trkpt><trkpt lat="45.87225493060509" lon="9.404090190127324"><ele>354.5</ele><time>2026-04-09T08:42:46Z</time></trkpt><trkpt lat="45.87232737669902" lon="9.40413116104789"><ele>357.66666666666663</ele><time>2026-04-09T08:42:47Z</time></trkpt><trkpt lat="45.87240613608453" lon="9.404164448582007"><ele>360.8333333333333</ele><time>2026-04-09T08:42:48Z</time></trkpt><trkpt lat="45.87248427329667" lon="9.404190750919513"><ele>364.0</ele><time>2026-04-09T08:42:49Z</time></trkpt><trkpt lat="45.87257043825827" lon="9.404183772118207"><ele>365.2</ele><time>2026-04-09T08:42:50Z</time></trkpt><trkpt lat="45.872657586182555" lon="9.404177086109575"><ele>366.4</ele><time>2026-04-09T08:42:51Z</time></trkpt><trkpt lat="45.87275633760819" lon="9.40418540166712"><ele>367.6</ele><time>2026-04-09T08:42:52Z</time></trkpt><trkpt lat="45.87285946746567" lon="9.404174281739078"><ele>368.8</ele><time>2026-04-09T08:42:53Z</time></trkpt><trkpt lat="45.8729697212703" lon="9.404160560188716"><ele>370.0</ele><time>2026-04-09T08:42:54Z</time></trkpt><trkpt lat="45.8730803071166" lon="9.40414836572889"><ele>370.0</ele><time>2026-04-09T08:42:55Z</time></trkpt><trkpt lat="45.87318212826725" lon="9.404150164659224"><ele>370.0</ele><time>2026-04-09T08:42:56Z</time></trkpt><trkpt lat="45.87329670915924" lon="9.404165249304468"><ele>370.0</ele><time>2026-04-09T08:42:57Z</time></trkpt><trkpt lat="45.873407818097945" lon="9.404174580662694"><ele>370.0</ele><time>2026-04-09T08:42:58Z</time></trkpt><trkpt lat="45.873522117030056" lon="9.404190066269564"><ele>370.0</ele><time>2026-04-09T08:42:59Z</time></trkpt><trkpt lat="45.87362881480319" lon="9.404225142954113"><ele>370.16666666666663</ele><time>2026-04-09T08:43:00Z</time></trkpt><trkpt lat="45.87372363888947" lon="9.40424926574964"><ele>370.3333333333333</ele><time>2026-04-09T08:43:01Z</time></trkpt><trkpt lat="45.87381534431283" lon="9.404286801590276"><ele>370.5</ele><time>2026-04-09T08:43:02Z</time></trkpt><trkpt lat="45.87389970571058" lon="9.404315830230466"><ele>370.6666666666667</ele><time>2026-04-09T08:43:03Z</time></trkpt><trkpt lat="45.873977916624206" lon="9.404339329419509"><ele>370.83333333333337</ele><time>2026-04-09T08:43:04Z</time></trkpt><trkpt lat="45.874057268866075" lon="9.404329815009639"><ele>371.0</ele><time>2026-04-09T08:43:05Z</time></trkpt><trkpt lat="45.8741347757223" lon="9.40433664075838"><ele>371.0</ele><time>2026-04-09T08:43:06Z</time></trkpt><trkpt lat="45.87421929927559" lon="9.404286560284872"><ele>371.0</ele><time>2026-04-09T08:43:07Z</time></trkpt><trkpt lat="45.87430911082254" lon="9.404217599610517"><ele>371.0</ele><time>2026-04-09T08:43:08Z</time></trkpt><trkpt lat="45.87438264462379" lon="9.40414895675556"><ele>371.0</ele><time>2026-04-09T08:43:09Z</time></trkpt><trkpt lat="45.87446876018955" lon="9.404067822300139"><ele>371.0</ele><time>2026-04-09T08:43:10Z</time></trkpt><trkpt lat="45.87454183722945" lon="9.40398175961282"><ele>371.6666666666667</ele><time>2026-04-09T08:43:11Z</time></trkpt><trkpt lat="45.87460689060983" lon="9.403897574398727"><ele>372.33333333333337</ele><time>2026-04-09T08:43:12Z</time></trkpt><trkpt lat="45.874668399996665" lon="9.40381580427104"><ele>373.0</ele><time>2026-04-09T08:43:13Z</time></trkpt><trkpt lat="45.87471488174251" lon="9.403750386616034"><ele>373.6666666666667</ele><time>2026-04-09T08:43:14Z</time></trkpt><trkpt lat="45.87476064419077" lon="9.403648390756258"><ele>374.3333333333333</ele><time>2026-04-09T08:43:15Z</time></trkpt><trkpt lat="45.87477681600281" lon="9.40353869507797"><ele>375.0</ele><time>2026-04-09T08:43:16Z</time></trkpt><trkpt lat="45.87474429743148" lon="9.403399161892859"><ele>377.0</ele><time>2026-04-09T08:43:17Z</time></trkpt><trkpt lat="45.874664179992244" lon="9.403335807799643"><ele>379.0</ele><time>2026-04-09T08:43:18Z</time></trkpt><trkpt lat="45.87460226289586" lon="9.403246724631298"><ele>381.0</ele><time>2026-04-09T08:43:19Z</time></trkpt><trkpt lat="45.87453130326722" lon="9.403184445654968"><ele>383.0</ele><time>2026-04-09T08:43:20Z</time></trkpt><trkpt lat="45.87444108060829" lon="9.403145064370486"><ele>385.0</ele><time>2026-04-09T08:43:21Z</time></trkpt><trkpt lat="45.87435703024546" lon="9.403088551731098"><ele>387.0</ele><time>2026-04-09T08:43:22Z</time></trkpt><trkpt lat="45.8742720786524" lon="9.40304994989587"><ele>386.0</ele><time>2026-04-09T08:43:23Z</time></trkpt><trkpt lat="45.87418727659005" lon="9.403008704960934"><ele>385.0</ele><time>2026-04-09T08:43:24Z</time></trkpt><trkpt lat="45.874100583930435" lon="9.4029724402615"><ele>384.0</ele><time>2026-04-09T08:43:25Z</time></trkpt><trkpt lat="45.87401793966057" lon="9.402934057277081"><ele>383.0</ele><time>2026-04-09T08:43:26Z</time></trkpt><trkpt lat="45.873943618044294" lon="9.402890441528855"><ele>382.0</ele><time>2026-04-09T08:43:27Z</time></trkpt><trkpt lat="45.87387974381931" lon="9.402832775613318"><ele>381.0</ele><time>2026-04-09T08:43:28Z</time></trkpt><trkpt lat="45.873811787386366" lon="9.40273270999762"><ele>381.0</ele><time>2026-04-09T08:43:29Z</time></trkpt><trkpt lat="45.873763741228075" lon="9.402657532480555"><ele>381.0</ele><time>2026-04-09T08:43:30Z</time></trkpt><trkpt lat="45.873720050344254" lon="9.402586640424172"><ele>381.0</ele><time>2026-04-09T08:43:31Z</time></trkpt><trkpt lat="45.87367957973991" lon="9.402517042280767"><ele>381.0</ele><time>2026-04-09T08:43:32Z</time></trkpt><trkpt lat="45.87362100112241" lon="9.402408267172227"><ele>381.0</ele><time>2026-04-09T08:43:34Z</time></trkpt><trkpt lat="45.87355374641666" lon="9.402268922642694"><ele>381.0</ele><time>2026-04-09T08:43:37Z</time></trkpt><trkpt lat="45.87353179029787" lon="9.402142782035796"><ele>383.8333333333333</ele><time>2026-04-09T08:43:39Z</time></trkpt><trkpt lat="45.87359186450969" lon="9.402066014050828"><ele>386.66666666666663</ele><time>2026-04-09T08:43:41Z</time></trkpt><trkpt lat="45.873642871056234" lon="9.401994930550826"><ele>389.5</ele><time>2026-04-09T08:43:43Z</time></trkpt><trkpt lat="45.873746845741174" lon="9.401990145330997"><ele>392.3333333333333</ele><time>2026-04-09T08:43:46Z</time></trkpt><trkpt lat="45.873804829615196" lon="9.40204320956381"><ele>395.16666666666663</ele><time>2026-04-09T08:43:47Z</time></trkpt><trkpt lat="45.873885574642706" lon="9.402087552382415"><ele>398.0</ele><time>2026-04-09T08:43:49Z</time></trkpt><trkpt lat="45.873958754956526" lon="9.402105572556907"><ele>399.3333333333333</ele><time>2026-04-09T08:43:52Z</time></trkpt><trkpt lat="45.87404299863296" lon="9.40217284983164"><ele>400.66666666666663</ele><time>2026-04-09T08:43:55Z</time></trkpt><trkpt lat="45.87413163645725" lon="9.402223119648733"><ele>402.0</ele><time>2026-04-09T08:43:57Z</time></trkpt><trkpt lat="45.87420310471163" lon="9.4022455271681"><ele>403.33333333333337</ele><time>2026-04-09T08:43:58Z</time></trkpt><trkpt lat="45.87426226337595" lon="9.402317666407816"><ele>404.6666666666667</ele><time>2026-04-09T08:43:59Z</time></trkpt><trkpt lat="45.874338061856804" lon="9.40235275680015"><ele>406.0</ele><time>2026-04-09T08:44:00Z</time></trkpt><trkpt lat="45.874423383673225" lon="9.402403384165394"><ele>406.0</ele><time>2026-04-09T08:44:01Z</time></trkpt><trkpt lat="45.874507887806075" lon="9.402471468397843"><ele>406.0</ele><time>2026-04-09T08:44:02Z</time></trkpt><trkpt lat="45.87459735008242" lon="9.402556054504716"><ele>406.0</ele><time>2026-04-09T08:44:03Z</time></trkpt><trkpt lat="45.87468658107926" lon="9.402647878301668"><ele>406.0</ele><time>2026-04-09T08:44:04Z</time></trkpt><trkpt lat="45.874783875854895" lon="9.402751540560569"><ele>406.0</ele><time>2026-04-09T08:44:05Z</time></trkpt><trkpt lat="45.87487935002921" lon="9.402860867240431"><ele>406.0</ele><time>2026-04-09T08:44:06Z</time></trkpt><trkpt lat="45.87497098869579" lon="9.402958744289121"><ele>406.0</ele><time>2026-04-09T08:44:07Z</time></trkpt><trkpt lat="45.87506272666211" lon="9.403072006008829"><ele>406.0</ele><time>2026-04-09T08:44:08Z</time></trkpt><trkpt lat="45.875164911695" lon="9.403181371910769"><ele>406.0</ele><time>2026-04-09T08:44:09Z</time></trkpt><trkpt lat="45.87527005548303" lon="9.403270549341922"><ele>410.0</ele><time>2026-04-09T08:44:10Z</time></trkpt><trkpt lat="45.87539703337669" lon="9.40333834771374"><ele>414.0</ele><time>2026-04-09T08:44:11Z</time></trkpt><trkpt lat="45.87550834551512" lon="9.403426439716918"><ele>418.0</ele><time>2026-04-09T08:44:12Z</time></trkpt><trkpt lat="45.87561951315452" lon="9.403506835923608"><ele>422.0</ele><time>2026-04-09T08:44:13Z</time></trkpt><trkpt lat="45.87572658183198" lon="9.403615486862307"><ele>422.0</ele><time>2026-04-09T08:44:14Z</time></trkpt><trkpt lat="45.87584967756835" lon="9.40370583373067"><ele>422.0</ele><time>2026-04-09T08:44:15Z</time></trkpt><trkpt lat="45.87597261872312" lon="9.403785530180212"><ele>422.0</ele><time>2026-04-09T08:44:16Z</time></trkpt><trkpt lat="45.876100791922816" lon="9.403865180820652"><ele>422.0</ele><time>2026-04-09T08:44:17Z</time></trkpt><trkpt lat="45.8762178994296" lon="9.403930557230348"><ele>419.75</ele><time>2026-04-09T08:44:18Z</time></trkpt><trkpt lat="45.87633815841351" lon="9.403987144161228"><ele>417.5</ele><time>2026-04-09T08:44:19Z</time></trkpt><trkpt lat="45.876457271291294" lon="9.404034205508134"><ele>415.25</ele><time>2026-04-09T08:44:20Z</time></trkpt><trkpt lat="45.87657688941678" lon="9.404086980771186"><ele>413.0</ele><time>2026-04-09T08:44:21Z</time></trkpt><trkpt lat="45.87670502332422" lon="9.404152848505717"><ele>420.0</ele><time>2026-04-09T08:44:22Z</time></trkpt><trkpt lat="45.876822507642245" lon="9.404238072582332"><ele>427.0</ele><time>2026-04-09T08:44:23Z</time></trkpt><trkpt lat="45.87693924880646" lon="9.404338599250812"><ele>434.0</ele><time>2026-04-09T08:44:24Z</time></trkpt><trkpt lat="45.87705063221556" lon="9.40443016917135"><ele>441.0</ele><time>2026-04-09T08:44:25Z</time></trkpt><trkpt lat="45.877162278548795" lon="9.40452425401413"><ele>441.0</ele><time>2026-04-09T08:44:26Z</time></trkpt><trkpt lat="45.87728010336798" lon="9.40461875990001"><ele>441.0</ele><time>2026-04-09T08:44:27Z</time></trkpt><trkpt lat="45.87739877180029" lon="9.404706684549035"><ele>441.0</ele><time>2026-04-09T08:44:28Z</time></trkpt><trkpt lat="45.87752002548966" lon="9.404798200887733"><ele>441.0</ele><time>2026-04-09T08:44:29Z</time></trkpt><trkpt lat="45.87764037034787" lon="9.40489159835968"><ele>440.0</ele><time>2026-04-09T08:44:30Z</time></trkpt><trkpt lat="45.87774848191298" lon="9.404983765672005"><ele>439.0</ele><time>2026-04-09T08:44:31Z</time></trkpt><trkpt lat="45.87785581602322" lon="9.405070256603707"><ele>438.0</ele><time>2026-04-09T08:44:32Z</time></trkpt><trkpt lat="45.877957407843034" lon="9.40516896082364"><ele>437.0</ele><time>2026-04-09T08:44:33Z</time></trkpt><trkpt lat="45.8780565769468" lon="9.40528552472734"><ele>437.0</ele><time>2026-04-09T08:44:34Z</time></trkpt><trkpt lat="45.87814254640336" lon="9.405427891942844"><ele>437.0</ele><time>2026-04-09T08:44:35Z</time></trkpt><trkpt lat="45.87822250202621" lon="9.405579274276391"><ele>437.0</ele><time>2026-04-09T08:44:36Z</time></trkpt><trkpt lat="45.87828114715969" lon="9.405729812031993"><ele>437.0</ele><time>2026-04-09T08:44:37Z</time></trkpt><trkpt lat="45.878342696511076" lon="9.405872640523452"><ele>436.5</ele><time>2026-04-09T08:44:38Z</time></trkpt><trkpt lat="45.878401537729985" lon="9.40601423449316"><ele>436.0</ele><time>2026-04-09T08:44:39Z</time></trkpt><trkpt lat="45.8784720286976" lon="9.406144703244834"><ele>435.5</ele><time>2026-04-09T08:44:40Z</time></trkpt><trkpt lat="45.878549647923194" lon="9.40627767289148"><ele>435.0</ele><time>2026-04-09T08:44:41Z</time></trkpt><trkpt lat="45.87863795297682" lon="9.406415980414"><ele>435.0</ele><time>2026-04-09T08:44:42Z</time></trkpt><trkpt lat="45.87873480979921" lon="9.406551833520142"><ele>435.0</ele><time>2026-04-09T08:44:43Z</time></trkpt><trkpt lat="45.878831592747304" lon="9.406678614974"><ele>435.0</ele><time>2026-04-09T08:44:44Z</time></trkpt><trkpt lat="45.87892647288648" lon="9.406805345034105"><ele>435.0</ele><time>2026-04-09T08:44:45Z</time></trkpt><trkpt lat="45.87903057489882" lon="9.406916560171435"><ele>435.0</ele><time>2026-04-09T08:44:46Z</time></trkpt><trkpt lat="45.87912177972416" lon="9.407029363083161"><ele>435.0</ele><time>2026-04-09T08:44:47Z</time></trkpt><trkpt lat="45.87921597825395" lon="9.407123629428623"><ele>435.0</ele><time>2026-04-09T08:44:48Z</time></trkpt><trkpt lat="45.879320386447354" lon="9.407208607525614"><ele>435.0</ele><time>2026-04-09T08:44:49Z</time></trkpt><trkpt lat="45.879436853592615" lon="9.40727582531402"><ele>435.5</ele><time>2026-04-09T08:44:50Z</time></trkpt><trkpt lat="45.87955528797665" lon="9.407335184464609"><ele>436.0</ele><time>2026-04-09T08:44:51Z</time></trkpt><trkpt lat="45.87966995142807" lon="9.407389168834955"><ele>436.5</ele><time>2026-04-09T08:44:52Z</time></trkpt><trkpt lat="45.87977081860062" lon="9.407459585212209"><ele>437.0</ele><time>2026-04-09T08:44:53Z</time></trkpt><trkpt lat="45.87989191532733" lon="9.407504971643856"><ele>437.0</ele><time>2026-04-09T08:44:54Z</time></trkpt><trkpt lat="45.8800196151069" lon="9.407541998279518"><ele>437.0</ele><time>2026-04-09T08:44:55Z</time></trkpt><trkpt lat="45.880142236282346" lon="9.407562718948682"><ele>437.0</ele><time>2026-04-09T08:44:56Z</time></trkpt><trkpt lat="45.8802561790247" lon="9.4075814557442"><ele>437.0</ele><time>2026-04-09T08:44:57Z</time></trkpt><trkpt lat="45.88035673815932" lon="9.407619331890189"><ele>436.75</ele><time>2026-04-09T08:44:58Z</time></trkpt><trkpt lat="45.88045847799918" lon="9.407689065464082"><ele>436.5</ele><time>2026-04-09T08:44:59Z</time></trkpt><trkpt lat="45.88056008895351" lon="9.407791499375653"><ele>436.25</ele><time>2026-04-09T08:45:00Z</time></trkpt><trkpt lat="45.88065671632783" lon="9.40791993234006"><ele>436.0</ele><time>2026-04-09T08:45:01Z</time></trkpt><trkpt lat="45.880774623384774" lon="9.408047227472784"><ele>436.0</ele><time>2026-04-09T08:45:02Z</time></trkpt><trkpt lat="45.8808823931288" lon="9.408168768405961"><ele>436.0</ele><time>2026-04-09T08:45:03Z</time></trkpt><trkpt lat="45.88098095878532" lon="9.408300407453401"><ele>436.0</ele><time>2026-04-09T08:45:04Z</time></trkpt><trkpt lat="45.88106360227406" lon="9.408448748616479"><ele>436.0</ele><time>2026-04-09T08:45:05Z</time></trkpt><trkpt lat="45.88116160312074" lon="9.408576430854346"><ele>439.5</ele><time>2026-04-09T08:45:06Z</time></trkpt><trkpt lat="45.88127654299252" lon="9.408667607162613"><ele>443.0</ele><time>2026-04-09T08:45:07Z</time></trkpt><trkpt lat="45.88139163853083" lon="9.408764729314015"><ele>446.5</ele><time>2026-04-09T08:45:08Z</time></trkpt><trkpt lat="45.88151318709389" lon="9.408869223290768"><ele>450.0</ele><time>2026-04-09T08:45:09Z</time></trkpt><trkpt lat="45.88165192109656" lon="9.408932479932199"><ele>451.75</ele><time>2026-04-09T08:45:10Z</time></trkpt><trkpt lat="45.881798871413665" lon="9.408976162181265"><ele>453.5</ele><time>2026-04-09T08:45:11Z</time></trkpt><trkpt lat="45.88193331127973" lon="9.40901635786554"><ele>455.25</ele><time>2026-04-09T08:45:12Z</time></trkpt><trkpt lat="45.88207146601717" lon="9.409070163785605"><ele>457.0</ele><time>2026-04-09T08:45:13Z</time></trkpt><trkpt lat="45.88217784462075" lon="9.409142910055929"><ele>457.0</ele><time>2026-04-09T08:45:14Z</time></trkpt><trkpt lat="45.882279769956355" lon="9.409245459396283"><ele>457.0</ele><time>2026-04-09T08:45:15Z</time></trkpt><trkpt lat="45.88238430121447" lon="9.40934131025038"><ele>457.0</ele><time>2026-04-09T08:45:16Z</time></trkpt><trkpt lat="45.88247025890048" lon="9.409459615292473"><ele>457.0</ele><time>2026-04-09T08:45:17Z</time></trkpt><trkpt lat="45.88255367091598" lon="9.409558158632821"><ele>457.0</ele><time>2026-04-09T08:45:18Z</time></trkpt><trkpt lat="45.88265333135906" lon="9.409627455217013"><ele>457.0</ele><time>2026-04-09T08:45:19Z</time></trkpt><trkpt lat="45.88276205799561" lon="9.40964359612691"><ele>457.0</ele><time>2026-04-09T08:45:20Z</time></trkpt><trkpt lat="45.8828794539488" lon="9.409614875244928"><ele>457.0</ele><time>2026-04-09T08:45:21Z</time></trkpt><trkpt lat="45.882992612865216" lon="9.409558714003875"><ele>457.0</ele><time>2026-04-09T08:45:22Z</time></trkpt><trkpt lat="45.88313402045163" lon="9.40951213229239"><ele>457.0</ele><time>2026-04-09T08:45:23Z</time></trkpt><trkpt lat="45.88326265323053" lon="9.409435360235847"><ele>457.0</ele><time>2026-04-09T08:45:24Z</time></trkpt><trkpt lat="45.88339076168201" lon="9.409364774043258"><ele>457.0</ele><time>2026-04-09T08:45:25Z</time></trkpt><trkpt lat="45.883514763376255" lon="9.40929955774363"><ele>463.5</ele><time>2026-04-09T08:45:26Z</time></trkpt><trkpt lat="45.88363653842285" lon="9.409233762094752"><ele>470.0</ele><time>2026-04-09T08:45:27Z</time></trkpt><trkpt lat="45.88375086254805" lon="9.40916356912818"><ele>476.5</ele><time>2026-04-09T08:45:28Z</time></trkpt><trkpt lat="45.883846547266394" lon="9.40909694423494"><ele>483.0</ele><time>2026-04-09T08:45:29Z</time></trkpt><trkpt lat="45.88393012168506" lon="9.409034266475361"><ele>483.0</ele><time>2026-04-09T08:45:30Z</time></trkpt><trkpt lat="45.884009997549484" lon="9.409009678063333"><ele>482.99999999999994</ele><time>2026-04-09T08:45:31Z</time></trkpt><trkpt lat="45.88411781421511" lon="9.4090650591729"><ele>482.99999999999994</ele><time>2026-04-09T08:45:33Z</time></trkpt><trkpt lat="45.884097133031865" lon="9.409214230300714"><ele>483.0</ele><time>2026-04-09T08:45:35Z</time></trkpt><trkpt lat="45.8840359462519" lon="9.409283195401727"><ele>483.0</ele><time>2026-04-09T08:45:36Z</time></trkpt><trkpt lat="45.88395557631724" lon="9.409335470983986"><ele>483.0</ele><time>2026-04-09T08:45:37Z</time></trkpt><trkpt lat="45.88386216420753" lon="9.409382047903767"><ele>482.99999999999994</ele><time>2026-04-09T08:45:38Z</time></trkpt><trkpt lat="45.88375427625713" lon="9.409438975163406"><ele>482.99999999999994</ele><time>2026-04-09T08:45:39Z</time></trkpt><trkpt lat="45.883656050330615" lon="9.409495583714016"><ele>483.0</ele><time>2026-04-09T08:45:40Z</time></trkpt><trkpt lat="45.88357060616702" lon="9.40953942100303"><ele>483.0</ele><time>2026-04-09T08:45:41Z</time></trkpt><trkpt lat="45.88349172685922" lon="9.409588353463713"><ele>483.0</ele><time>2026-04-09T08:45:42Z</time></trkpt><trkpt lat="45.88343139796359" lon="9.409637567705841"><ele>482.99999999999994</ele><time>2026-04-09T08:45:43Z</time></trkpt><trkpt lat="45.88338381975528" lon="9.409712746163311"><ele>482.99999999999994</ele><time>2026-04-09T08:45:44Z</time></trkpt><trkpt lat="45.88338532154482" lon="9.409895725552873"><ele>483.0</ele><time>2026-04-09T08:45:46Z</time></trkpt><trkpt lat="45.88343481306" lon="9.409993407902217"><ele>483.0</ele><time>2026-04-09T08:45:47Z</time></trkpt><trkpt lat="45.883513566149425" lon="9.41008911024124"><ele>483.25</ele><time>2026-04-09T08:45:48Z</time></trkpt><trkpt lat="45.883600962234105" lon="9.41019829521175"><ele>483.5</ele><time>2026-04-09T08:45:49Z</time></trkpt><trkpt lat="45.883693521491146" lon="9.41031566052474"><ele>483.75</ele><time>2026-04-09T08:45:50Z</time></trkpt><trkpt lat="45.88378309782871" lon="9.410437076596258"><ele>484.0</ele><time>2026-04-09T08:45:51Z</time></trkpt><trkpt lat="45.88386413180353" lon="9.410574289047911"><ele>484.0</ele><time>2026-04-09T08:45:52Z</time></trkpt><trkpt lat="45.88392598559544" lon="9.41072989855963"><ele>484.0</ele><time>2026-04-09T08:45:53Z</time></trkpt><trkpt lat="45.88397822970922" lon="9.410911417342584"><ele>484.0</ele><time>2026-04-09T08:45:54Z</time></trkpt><trkpt lat="45.884023401682654" lon="9.411096264774091"><ele>484.0</ele><time>2026-04-09T08:45:55Z</time></trkpt><trkpt lat="45.88407391789703" lon="9.411274124572621"><ele>485.0</ele><time>2026-04-09T08:45:56Z</time></trkpt><trkpt lat="45.88411779110933" lon="9.411419905387197"><ele>486.0</ele><time>2026-04-09T08:45:57Z</time></trkpt><trkpt lat="45.88416721436893" lon="9.411539243532648"><ele>487.0</ele><time>2026-04-09T08:45:58Z</time></trkpt><trkpt lat="45.88424231166237" lon="9.41162252418485"><ele>488.0</ele><time>2026-04-09T08:45:59Z</time></trkpt><trkpt lat="45.8843304410839" lon="9.411665414200256"><ele>489.0</ele><time>2026-04-09T08:46:00Z</time></trkpt><trkpt lat="45.884425506406124" lon="9.41168311957671"><ele>492.6</ele><time>2026-04-09T08:46:01Z</time></trkpt><trkpt lat="45.88452308841578" lon="9.411644408660072"><ele>496.2</ele><time>2026-04-09T08:46:02Z</time></trkpt><trkpt lat="45.884607828116955" lon="9.411574884629774"><ele>499.80000000000007</ele><time>2026-04-09T08:46:03Z</time></trkpt><trkpt lat="45.88467277567858" lon="9.411468505233442"><ele>503.40000000000003</ele><time>2026-04-09T08:46:04Z</time></trkpt><trkpt lat="45.884711763606475" lon="9.411341725025373"><ele>507.0</ele><time>2026-04-09T08:46:05Z</time></trkpt><trkpt lat="45.88469342954477" lon="9.411171767972935"><ele>508.6</ele><time>2026-04-09T08:46:06Z</time></trkpt><trkpt lat="45.88467180861935" lon="9.411023396503987"><ele>510.20000000000005</ele><time>2026-04-09T08:46:07Z</time></trkpt><trkpt lat="45.88464971380688" lon="9.41086540030739"><ele>511.8</ele><time>2026-04-09T08:46:08Z</time></trkpt><trkpt lat="45.884624946375446" lon="9.410704486372362"><ele>513.4</ele><time>2026-04-09T08:46:09Z</time></trkpt><trkpt lat="45.8846097377001" lon="9.410566562355662"><ele>515.0</ele><time>2026-04-09T08:46:10Z</time></trkpt><trkpt lat="45.88461443135524" lon="9.410448645415597"><ele>515.0</ele><time>2026-04-09T08:46:11Z</time></trkpt><trkpt lat="45.88462530846433" lon="9.41029208893259"><ele>515.0</ele><time>2026-04-09T08:46:13Z</time></trkpt><trkpt lat="45.88473088014802" lon="9.41023493615708"><ele>515.0</ele><time>2026-04-09T08:46:15Z</time></trkpt><trkpt lat="45.884787039688845" lon="9.410289769707871"><ele>515.0</ele><time>2026-04-09T08:46:16Z</time></trkpt><trkpt lat="45.88482433111927" lon="9.410378161633078"><ele>515.0</ele><time>2026-04-09T08:46:17Z</time></trkpt><trkpt lat="45.884842923275436" lon="9.410505849830558"><ele>515.0</ele><time>2026-04-09T08:46:18Z</time></trkpt><trkpt lat="45.88488651503471" lon="9.41063116802447"><ele>515.0</ele><time>2026-04-09T08:46:19Z</time></trkpt><trkpt lat="45.884955976979825" lon="9.410768461818149"><ele>515.0</ele><time>2026-04-09T08:46:20Z</time></trkpt><trkpt lat="45.88502769666777" lon="9.41091761337372"><ele>515.0</ele><time>2026-04-09T08:46:21Z</time></trkpt><trkpt lat="45.885095358835706" lon="9.411032482924027"><ele>515.0</ele><time>2026-04-09T08:46:22Z</time></trkpt><trkpt lat="45.885175706016504" lon="9.411151862228616"><ele>524.0</ele><time>2026-04-09T08:46:23Z</time></trkpt><trkpt lat="45.885258239047516" lon="9.41127974606108"><ele>533.0</ele><time>2026-04-09T08:46:24Z</time></trkpt><trkpt lat="45.88534134183789" lon="9.41141792650636"><ele>542.0</ele><time>2026-04-09T08:46:25Z</time></trkpt><trkpt lat="45.88541704158252" lon="9.411563504589358"><ele>551.0</ele><time>2026-04-09T08:46:26Z</time></trkpt><trkpt lat="45.88549285010443" lon="9.411704997303495"><ele>551.0</ele><time>2026-04-09T08:46:27Z</time></trkpt><trkpt lat="45.88556322059166" lon="9.411869900912805"><ele>551.0</ele><time>2026-04-09T08:46:28Z</time></trkpt><trkpt lat="45.88563165208381" lon="9.412060932752848"><ele>551.0</ele><time>2026-04-09T08:46:29Z</time></trkpt><trkpt lat="45.885692053566686" lon="9.412263605300122"><ele>551.0</ele><time>2026-04-09T08:46:30Z</time></trkpt><trkpt lat="45.88575553553967" lon="9.412433804387348"><ele>553.25</ele><time>2026-04-09T08:46:31Z</time></trkpt><trkpt lat="45.88581167557772" lon="9.412605812347945"><ele>555.5</ele><time>2026-04-09T08:46:32Z</time></trkpt><trkpt lat="45.88587625755075" lon="9.412786488302398"><ele>557.75</ele><time>2026-04-09T08:46:33Z</time></trkpt><trkpt lat="45.8859401985651" lon="9.412963432606025"><ele>560.0</ele><time>2026-04-09T08:46:34Z</time></trkpt><trkpt lat="45.885998104466914" lon="9.4131459886453"><ele>560.0</ele><time>2026-04-09T08:46:35Z</time></trkpt><trkpt lat="45.88607155481625" lon="9.413315445559066"><ele>560.0</ele><time>2026-04-09T08:46:36Z</time></trkpt><trkpt lat="45.88613024256775" lon="9.41349728475428"><ele>560.0</ele><time>2026-04-09T08:46:37Z</time></trkpt><trkpt lat="45.88617931968439" lon="9.413667218764482"><ele>560.0</ele><time>2026-04-09T08:46:38Z</time></trkpt><trkpt lat="45.88621646597831" lon="9.413842673024613"><ele>561.5</ele><time>2026-04-09T08:46:39Z</time></trkpt><trkpt lat="45.886235159250724" lon="9.414025485985622"><ele>563.0</ele><time>2026-04-09T08:46:40Z</time></trkpt><trkpt lat="45.88621972168225" lon="9.414247551824516"><ele>564.5</ele><time>2026-04-09T08:46:41Z</time></trkpt><trkpt lat="45.88619162557474" lon="9.41447842284582"><ele>566.0</ele><time>2026-04-09T08:46:42Z</time></trkpt><trkpt lat="45.886164859519084" lon="9.414710440035485"><ele>570.3333333333333</ele><time>2026-04-09T08:46:43Z</time></trkpt><trkpt lat="45.88614455059166" lon="9.414947116529051"><ele>574.6666666666666</ele><time>2026-04-09T08:46:44Z</time></trkpt><trkpt lat="45.88613966243447" lon="9.415175711341401"><ele>579.0</ele><time>2026-04-09T08:46:45Z</time></trkpt><trkpt lat="45.886124231132044" lon="9.415382996142885"><ele>578.6666666666666</ele><time>2026-04-09T08:46:46Z</time></trkpt><trkpt lat="45.88613448196319" lon="9.41560203740437"><ele>578.3333333333333</ele><time>2026-04-09T08:46:47Z</time></trkpt><trkpt lat="45.8861638443625" lon="9.415836164038849"><ele>578.0</ele><time>2026-04-09T08:46:48Z</time></trkpt><trkpt lat="45.886220216557156" lon="9.416076982137046"><ele>576.0</ele><time>2026-04-09T08:46:49Z</time></trkpt><trkpt lat="45.88628486765567" lon="9.416336346242232"><ele>574.0</ele><time>2026-04-09T08:46:50Z</time></trkpt><trkpt lat="45.88633213063893" lon="9.416544499148692"><ele>572.0</ele><time>2026-04-09T08:46:51Z</time></trkpt><trkpt lat="45.88637426689527" lon="9.416712784001634"><ele>572.0</ele><time>2026-04-09T08:46:52Z</time></trkpt><trkpt lat="45.88641785871359" lon="9.416854363666012"><ele>572.0</ele><time>2026-04-09T08:46:53Z</time></trkpt><trkpt lat="45.886488478501285" lon="9.416961352250347"><ele>572.0</ele><time>2026-04-09T08:46:54Z</time></trkpt><trkpt lat="45.88658228392254" lon="9.417062923472088"><ele>572.0</ele><time>2026-04-09T08:46:55Z</time></trkpt><trkpt lat="45.88670847949898" lon="9.417147446458602"><ele>576.75</ele><time>2026-04-09T08:46:56Z</time></trkpt><trkpt lat="45.886845229737276" lon="9.417221728013521"><ele>581.5</ele><time>2026-04-09T08:46:57Z</time></trkpt><trkpt lat="45.886955187145354" lon="9.417311931610884"><ele>586.25</ele><time>2026-04-09T08:46:58Z</time></trkpt><trkpt lat="45.887056360047765" lon="9.417375528300493"><ele>591.0</ele><time>2026-04-09T08:46:59Z</time></trkpt><trkpt lat="45.88715849014917" lon="9.41743786073836"><ele>591.0</ele><time>2026-04-09T08:47:00Z</time></trkpt><trkpt lat="45.88724712585047" lon="9.417479556735683"><ele>591.0</ele><time>2026-04-09T08:47:01Z</time></trkpt><trkpt lat="45.88730500921361" lon="9.417566886271494"><ele>591.0</ele><time>2026-04-09T08:47:02Z</time></trkpt><trkpt lat="45.88733444510247" lon="9.417661472662639"><ele>591.0</ele><time>2026-04-09T08:47:03Z</time></trkpt><trkpt lat="45.887294748637714" lon="9.41785666067051"><ele>591.0</ele><time>2026-04-09T08:47:05Z</time></trkpt><trkpt lat="45.887224509534896" lon="9.417897027740187"><ele>591.0</ele><time>2026-04-09T08:47:06Z</time></trkpt><trkpt lat="45.88713508318748" lon="9.417942091289154"><ele>591.0</ele><time>2026-04-09T08:47:07Z</time></trkpt><trkpt lat="45.887028424554124" lon="9.41797199543049"><ele>591.0</ele><time>2026-04-09T08:47:08Z</time></trkpt><trkpt lat="45.886916972462956" lon="9.418048259929957"><ele>591.0</ele><time>2026-04-09T08:47:09Z</time></trkpt><trkpt lat="45.88680505416563" lon="9.418156764531606"><ele>587.6666666666666</ele><time>2026-04-09T08:47:10Z</time></trkpt><trkpt lat="45.88668245387977" lon="9.418314361610522"><ele>584.3333333333333</ele><time>2026-04-09T08:47:11Z</time></trkpt><trkpt lat="45.88655229910854" lon="9.418499177421062"><ele>581.0</ele><time>2026-04-09T08:47:12Z</time></trkpt><trkpt lat="45.88643523073805" lon="9.418666988468274"><ele>581.0</ele><time>2026-04-09T08:47:13Z</time></trkpt><trkpt lat="45.88631090464867" lon="9.418810539054592"><ele>581.0</ele><time>2026-04-09T08:47:14Z</time></trkpt><trkpt lat="45.886174624666424" lon="9.418912409659484"><ele>581.0</ele><time>2026-04-09T08:47:15Z</time></trkpt><trkpt lat="45.886021142437286" lon="9.418993250017897"><ele>585.3333333333333</ele><time>2026-04-09T08:47:16Z</time></trkpt><trkpt lat="45.88585277205215" lon="9.419021268151758"><ele>589.6666666666666</ele><time>2026-04-09T08:47:17Z</time></trkpt><trkpt lat="45.88569087203336" lon="9.419014063916668"><ele>594.0</ele><time>2026-04-09T08:47:18Z</time></trkpt><trkpt lat="45.88552295841964" lon="9.418986435363914"><ele>594.0</ele><time>2026-04-09T08:47:19Z</time></trkpt><trkpt lat="45.885354350026205" lon="9.418980301008867"><ele>594.0</ele><time>2026-04-09T08:47:20Z</time></trkpt><trkpt lat="45.885178764057734" lon="9.418946824350101"><ele>594.0</ele><time>2026-04-09T08:47:21Z</time></trkpt><trkpt lat="45.884983202684595" lon="9.418942574485683"><ele>594.6666666666666</ele><time>2026-04-09T08:47:22Z</time></trkpt><trkpt lat="45.884794592901095" lon="9.418945636628003"><ele>595.3333333333333</ele><time>2026-04-09T08:47:23Z</time></trkpt><trkpt lat="45.884638260843204" lon="9.418945026464"><ele>596.0</ele><time>2026-04-09T08:47:24Z</time></trkpt><trkpt lat="45.88449587367232" lon="9.418943490539021"><ele>596.0</ele><time>2026-04-09T08:47:25Z</time></trkpt><trkpt lat="45.88436995981606" lon="9.418945502992408"><ele>596.0</ele><time>2026-04-09T08:47:26Z</time></trkpt><trkpt lat="45.88425343434406" lon="9.4189503112228"><ele>596.0</ele><time>2026-04-09T08:47:27Z</time></trkpt><trkpt lat="45.88416237216593" lon="9.418984959062584"><ele>596.0</ele><time>2026-04-09T08:47:28Z</time></trkpt><trkpt lat="45.884102605591266" lon="9.419051088727898"><ele>596.0</ele><time>2026-04-09T08:47:29Z</time></trkpt><trkpt lat="45.884069405903055" lon="9.4191382410909"><ele>596.0</ele><time>2026-04-09T08:47:30Z</time></trkpt><trkpt lat="45.88407393695272" lon="9.4192510938674"><ele>596.0</ele><time>2026-04-09T08:47:31Z</time></trkpt><trkpt lat="45.884084831825525" lon="9.41935389292679"><ele>596.0</ele><time>2026-04-09T08:47:32Z</time></trkpt><trkpt lat="45.8841484900393" lon="9.419445395700132"><ele>596.0</ele><time>2026-04-09T08:47:33Z</time></trkpt><trkpt lat="45.884246097136106" lon="9.419464780329355"><ele>596.0</ele><time>2026-04-09T08:47:34Z</time></trkpt><trkpt lat="45.88433506275354" lon="9.419452348184134"><ele>596.0</ele><time>2026-04-09T08:47:35Z</time></trkpt><trkpt lat="45.88445047013918" lon="9.419431055656913"><ele>596.0</ele><time>2026-04-09T08:47:36Z</time></trkpt><trkpt lat="45.88457639654763" lon="9.419430442703876"><ele>596.0</ele><time>2026-04-09T08:47:37Z</time></trkpt><trkpt lat="45.884717163390796" lon="9.419452174670557"><ele>596.0</ele><time>2026-04-09T08:47:38Z</time></trkpt><trkpt lat="45.884858057486205" lon="9.419491743772586"><ele>596.0</ele><time>2026-04-09T08:47:39Z</time></trkpt><trkpt lat="45.885010673242235" lon="9.419539400987338"><ele>595.5</ele><time>2026-04-09T08:47:40Z</time></trkpt><trkpt lat="45.88515614983261" lon="9.419580172563068"><ele>595.0</ele><time>2026-04-09T08:47:41Z</time></trkpt><trkpt lat="45.88529973829569" lon="9.41962476492074"><ele>594.5</ele><time>2026-04-09T08:47:42Z</time></trkpt><trkpt lat="45.88544483305373" lon="9.419673155608706"><ele>594.0</ele><time>2026-04-09T08:47:43Z</time></trkpt><trkpt lat="45.88558661260774" lon="9.419748600084285"><ele>603.0</ele><time>2026-04-09T08:47:44Z</time></trkpt><trkpt lat="45.88572566795454" lon="9.419850548007652"><ele>612.0</ele><time>2026-04-09T08:47:45Z</time></trkpt><trkpt lat="45.88586406405167" lon="9.419959432293771"><ele>621.0</ele><time>2026-04-09T08:47:46Z</time></trkpt><trkpt lat="45.88600503517316" lon="9.420056941167777"><ele>621.0</ele><time>2026-04-09T08:47:47Z</time></trkpt><trkpt lat="45.886146703138984" lon="9.420137105877444"><ele>621.0</ele><time>2026-04-09T08:47:48Z</time></trkpt><trkpt lat="45.88629239425815" lon="9.420198530491238"><ele>621.0</ele><time>2026-04-09T08:47:49Z</time></trkpt><trkpt lat="45.88642937721683" lon="9.420233418579862"><ele>621.0</ele><time>2026-04-09T08:47:50Z</time></trkpt><trkpt lat="45.88657403819208" lon="9.420249784615377"><ele>621.0</ele><time>2026-04-09T08:47:51Z</time></trkpt><trkpt lat="45.88671122054039" lon="9.420231153466625"><ele>621.0</ele><time>2026-04-09T08:47:52Z</time></trkpt><trkpt lat="45.886852311890536" lon="9.420196627207385"><ele>621.0</ele><time>2026-04-09T08:47:53Z</time></trkpt><trkpt lat="45.886989808417795" lon="9.420169846699975"><ele>621.0</ele><time>2026-04-09T08:47:54Z</time></trkpt><trkpt lat="45.88711456635901" lon="9.420129050906853"><ele>623.6</ele><time>2026-04-09T08:47:55Z</time></trkpt><trkpt lat="45.88722965504663" lon="9.420096690253736"><ele>626.2</ele><time>2026-04-09T08:47:56Z</time></trkpt><trkpt lat="45.887337270711555" lon="9.420081942784469"><ele>628.8</ele><time>2026-04-09T08:47:57Z</time></trkpt><trkpt lat="45.88744220609959" lon="9.420102086233639"><ele>631.4</ele><time>2026-04-09T08:47:58Z</time></trkpt><trkpt lat="45.887542480349076" lon="9.420131022240913"><ele>634.0</ele><time>2026-04-09T08:47:59Z</time></trkpt><trkpt lat="45.88764380963095" lon="9.420192028752846"><ele>635.3333333333334</ele><time>2026-04-09T08:48:00Z</time></trkpt><trkpt lat="45.887730361357875" lon="9.420277177873123"><ele>636.6666666666667</ele><time>2026-04-09T08:48:01Z</time></trkpt><trkpt lat="45.88781226896454" lon="9.420377009957038"><ele>638.0</ele><time>2026-04-09T08:48:02Z</time></trkpt><trkpt lat="45.88788183415777" lon="9.420465563072222"><ele>639.3333333333334</ele><time>2026-04-09T08:48:03Z</time></trkpt><trkpt lat="45.887936615822454" lon="9.420549054665422"><ele>640.6666666666666</ele><time>2026-04-09T08:48:04Z</time></trkpt><trkpt lat="45.887970064439486" lon="9.420626988014641"><ele>642.0</ele><time>2026-04-09T08:48:05Z</time></trkpt><trkpt lat="45.887852069930794" lon="9.420833247302243"><ele>642.0</ele><time>2026-04-09T08:48:09Z</time></trkpt><trkpt lat="45.88776833806758" lon="9.42088605229966"><ele>642.0</ele><time>2026-04-09T08:48:10Z</time></trkpt><trkpt lat="45.88768340443066" lon="9.420963706541672"><ele>642.0</ele><time>2026-04-09T08:48:11Z</time></trkpt><trkpt lat="45.887594413650326" lon="9.421036575107486"><ele>642.0</ele><time>2026-04-09T08:48:12Z</time></trkpt><trkpt lat="45.88750954954006" lon="9.421088996161124"><ele>642.0</ele><time>2026-04-09T08:48:13Z</time></trkpt><trkpt lat="45.88743306998744" lon="9.421144658165893"><ele>642.0</ele><time>2026-04-09T08:48:14Z</time></trkpt><trkpt lat="45.887370626677324" lon="9.421202740980416"><ele>642.0</ele><time>2026-04-09T08:48:15Z</time></trkpt><trkpt lat="45.88731980648361" lon="9.421277007618661"><ele>642.0</ele><time>2026-04-09T08:48:16Z</time></trkpt><trkpt lat="45.887274955165516" lon="9.421383867651905"><ele>642.0</ele><time>2026-04-09T08:48:17Z</time></trkpt><trkpt lat="45.88723194634251" lon="9.421532571448903"><ele>642.0</ele><time>2026-04-09T08:48:18Z</time></trkpt><trkpt lat="45.88719860951798" lon="9.421653741091102"><ele>642.0</ele><time>2026-04-09T08:48:19Z</time></trkpt><trkpt lat="45.887163098413005" lon="9.421768776043315"><ele>640.4</ele><time>2026-04-09T08:48:20Z</time></trkpt><trkpt lat="45.887137729743586" lon="9.421853826593509"><ele>638.8000000000001</ele><time>2026-04-09T08:48:21Z</time></trkpt><trkpt lat="45.887106069847256" lon="9.421980598009167"><ele>637.2</ele><time>2026-04-09T08:48:23Z</time></trkpt><trkpt lat="45.88707570950171" lon="9.422169637655635"><ele>635.6</ele><time>2026-04-09T08:48:25Z</time></trkpt><trkpt lat="45.88706382340872" lon="9.422298722513288"><ele>634.0</ele><time>2026-04-09T08:48:26Z</time></trkpt><trkpt lat="45.88704700361029" lon="9.422437327122228"><ele>633.6</ele><time>2026-04-09T08:48:27Z</time></trkpt><trkpt lat="45.88703118315234" lon="9.422589552964736"><ele>633.2</ele><time>2026-04-09T08:48:28Z</time></trkpt><trkpt lat="45.88701574065631" lon="9.422736535567477"><ele>632.8000000000001</ele><time>2026-04-09T08:48:29Z</time></trkpt><trkpt lat="45.886991683753955" lon="9.422887877131812"><ele>632.4</ele><time>2026-04-09T08:48:30Z</time></trkpt><trkpt lat="45.88695976489702" lon="9.423049454377058"><ele>632.0</ele><time>2026-04-09T08:48:31Z</time></trkpt><trkpt lat="45.88692952153926" lon="9.423206253170159"><ele>631.6</ele><time>2026-04-09T08:48:32Z</time></trkpt><trkpt lat="45.88690041699739" lon="9.423350234458473"><ele>631.2</ele><time>2026-04-09T08:48:33Z</time></trkpt><trkpt lat="45.886868459683186" lon="9.423485665693168"><ele>630.8</ele><time>2026-04-09T08:48:34Z</time></trkpt><trkpt lat="45.88683608090186" lon="9.423629179598795"><ele>630.4</ele><time>2026-04-09T08:48:35Z</time></trkpt><trkpt lat="45.88680315202105" lon="9.423774699196407"><ele>630.0</ele><time>2026-04-09T08:48:36Z</time></trkpt><trkpt lat="45.88676896855577" lon="9.423931566260611"><ele>629.6</ele><time>2026-04-09T08:48:37Z</time></trkpt><trkpt lat="45.88674687341091" lon="9.42408269328071"><ele>629.2</ele><time>2026-04-09T08:48:38Z</time></trkpt><trkpt lat="45.88673668036854" lon="9.424228132106169"><ele>628.8</ele><time>2026-04-09T08:48:39Z</time></trkpt><trkpt lat="45.88673919157148" lon="9.424382780909406"><ele>628.4</ele><time>2026-04-09T08:48:40Z</time></trkpt><trkpt lat="45.886762484971236" lon="9.424524511344421"><ele>628.0</ele><time>2026-04-09T08:48:41Z</time></trkpt><trkpt lat="45.88681703479478" lon="9.424675996826327"><ele>628.0</ele><time>2026-04-09T08:48:42Z</time></trkpt><trkpt lat="45.88688330627088" lon="9.424812087059747"><ele>628.0</ele><time>2026-04-09T08:48:43Z</time></trkpt><trkpt lat="45.88695877807144" lon="9.424938845318746"><ele>628.0</ele><time>2026-04-09T08:48:44Z</time></trkpt><trkpt lat="45.88701368539608" lon="9.425067256421334"><ele>628.0</ele><time>2026-04-09T08:48:45Z</time></trkpt><trkpt lat="45.88707484969506" lon="9.42517383053812"><ele>628.0</ele><time>2026-04-09T08:48:46Z</time></trkpt><trkpt lat="45.88713996894197" lon="9.42526344037148"><ele>628.0</ele><time>2026-04-09T08:48:47Z</time></trkpt><trkpt lat="45.887168570031506" lon="9.425370049006498"><ele>628.0</ele><time>2026-04-09T08:48:48Z</time></trkpt><trkpt lat="45.88717111587218" lon="9.425481038476487"><ele>628.0</ele><time>2026-04-09T08:48:49Z</time></trkpt><trkpt lat="45.887143947901215" lon="9.425612368913121"><ele>628.0</ele><time>2026-04-09T08:48:50Z</time></trkpt><trkpt lat="45.88710609182951" lon="9.425779422306166"><ele>628.0</ele><time>2026-04-09T08:48:51Z</time></trkpt><trkpt lat="45.887062536322105" lon="9.42594224831767"><ele>628.0</ele><time>2026-04-09T08:48:52Z</time></trkpt><trkpt lat="45.8870208894653" lon="9.426110142460816"><ele>628.0</ele><time>2026-04-09T08:48:53Z</time></trkpt><trkpt lat="45.88697655144067" lon="9.426282824431476"><ele>628.0</ele><time>2026-04-09T08:48:54Z</time></trkpt><trkpt lat="45.88693912447321" lon="9.426431521251521"><ele>628.0</ele><time>2026-04-09T08:48:55Z</time></trkpt><trkpt lat="45.886915240939445" lon="9.4265699493823"><ele>628.0</ele><time>2026-04-09T08:48:56Z</time></trkpt><trkpt lat="45.88691014320446" lon="9.426709887788645"><ele>628.0</ele><time>2026-04-09T08:48:57Z</time></trkpt><trkpt lat="45.886929244010666" lon="9.426844970463153"><ele>628.0</ele><time>2026-04-09T08:48:58Z</time></trkpt><trkpt lat="45.886990693249714" lon="9.42698854609899"><ele>628.0</ele><time>2026-04-09T08:48:59Z</time></trkpt><trkpt lat="45.88706187162855" lon="9.427070265249945"><ele>628.0</ele><time>2026-04-09T08:49:00Z</time></trkpt><trkpt lat="45.88715642764154" lon="9.427143053193856"><ele>629.5</ele><time>2026-04-09T08:49:01Z</time></trkpt><trkpt lat="45.88726674621937" lon="9.427178978063509"><ele>631.0</ele><time>2026-04-09T08:49:02Z</time></trkpt><trkpt lat="45.887381858341385" lon="9.427194122869746"><ele>632.5</ele><time>2026-04-09T08:49:03Z</time></trkpt><trkpt lat="45.88751629863575" lon="9.427215435058741"><ele>634.0</ele><time>2026-04-09T08:49:04Z</time></trkpt><trkpt lat="45.88765347381072" lon="9.427232352503323"><ele>635.5</ele><time>2026-04-09T08:49:05Z</time></trkpt><trkpt lat="45.8878017935751" lon="9.427237959329213"><ele>637.0</ele><time>2026-04-09T08:49:06Z</time></trkpt><trkpt lat="45.88795126863468" lon="9.42724962452023"><ele>638.5</ele><time>2026-04-09T08:49:07Z</time></trkpt><trkpt lat="45.88809870430266" lon="9.427267246353376"><ele>640.0</ele><time>2026-04-09T08:49:08Z</time></trkpt><trkpt lat="45.888223578476236" lon="9.427285210978267"><ele>640.0</ele><time>2026-04-09T08:49:09Z</time></trkpt><trkpt lat="45.88832370840691" lon="9.427296516681015"><ele>640.0</ele><time>2026-04-09T08:49:10Z</time></trkpt><trkpt lat="45.888417157643886" lon="9.427327988982677"><ele>640.0</ele><time>2026-04-09T08:49:11Z</time></trkpt><trkpt lat="45.888499882422764" lon="9.427338948773402"><ele>640.0</ele><time>2026-04-09T08:49:12Z</time></trkpt><trkpt lat="45.888586151753074" lon="9.427358715241155"><ele>640.0</ele><time>2026-04-09T08:49:13Z</time></trkpt><trkpt lat="45.88866383820464" lon="9.427377817726843"><ele>640.0</ele><time>2026-04-09T08:49:14Z</time></trkpt><trkpt lat="45.888718857589105" lon="9.42744957379576"><ele>639.8333333333334</ele><time>2026-04-09T08:49:15Z</time></trkpt><trkpt lat="45.88874676981759" lon="9.427539138461972"><ele>639.6666666666667</ele><time>2026-04-09T08:49:16Z</time></trkpt><trkpt lat="45.88874876744311" lon="9.427639416674012"><ele>639.5</ele><time>2026-04-09T08:49:17Z</time></trkpt><trkpt lat="45.88871686819259" lon="9.427736525459146"><ele>639.3333333333334</ele><time>2026-04-09T08:49:18Z</time></trkpt><trkpt lat="45.88866382187321" lon="9.427804745776394"><ele>639.1666666666666</ele><time>2026-04-09T08:49:19Z</time></trkpt><trkpt lat="45.88857701307173" lon="9.427837685254632"><ele>639.0</ele><time>2026-04-09T08:49:20Z</time></trkpt><trkpt lat="45.88847084503347" lon="9.427844972566117"><ele>639.25</ele><time>2026-04-09T08:49:21Z</time></trkpt><trkpt lat="45.88835354630955" lon="9.427820374457529"><ele>639.5</ele><time>2026-04-09T08:49:22Z</time></trkpt><trkpt lat="45.88822085641515" lon="9.427832594866233"><ele>639.75</ele><time>2026-04-09T08:49:23Z</time></trkpt><trkpt lat="45.88809432028107" lon="9.427810796352766"><ele>640.0</ele><time>2026-04-09T08:49:24Z</time></trkpt><trkpt lat="45.88797454392473" lon="9.427816591602461"><ele>640.0</ele><time>2026-04-09T08:49:25Z</time></trkpt><trkpt lat="45.887861200409525" lon="9.427845715592705"><ele>640.0</ele><time>2026-04-09T08:49:26Z</time></trkpt><trkpt lat="45.887747867365405" lon="9.427908728990298"><ele>640.0</ele><time>2026-04-09T08:49:27Z</time></trkpt><trkpt lat="45.88762083878421" lon="9.427982501913261"><ele>640.0</ele><time>2026-04-09T08:49:28Z</time></trkpt><trkpt lat="45.887500816124046" lon="9.428048698852804"><ele>644.75</ele><time>2026-04-09T08:49:29Z</time></trkpt><trkpt lat="45.887386048897795" lon="9.428137800764466"><ele>649.5</ele><time>2026-04-09T08:49:30Z</time></trkpt><trkpt lat="45.88726173555075" lon="9.428213069129919"><ele>654.25</ele><time>2026-04-09T08:49:31Z</time></trkpt><trkpt lat="45.88715609516285" lon="9.428301765211481"><ele>659.0</ele><time>2026-04-09T08:49:32Z</time></trkpt><trkpt lat="45.88706161364401" lon="9.428416489340169"><ele>659.0</ele><time>2026-04-09T08:49:33Z</time></trkpt><trkpt lat="45.886962723748354" lon="9.428526518499053"><ele>659.0</ele><time>2026-04-09T08:49:34Z</time></trkpt><trkpt lat="45.886890282713715" lon="9.428640883733848"><ele>659.0</ele><time>2026-04-09T08:49:35Z</time></trkpt><trkpt lat="45.886798390675914" lon="9.428704583365993"><ele>659.0</ele><time>2026-04-09T08:49:36Z</time></trkpt><trkpt lat="45.886712066193134" lon="9.42874212358814"><ele>659.0</ele><time>2026-04-09T08:49:37Z</time></trkpt><trkpt lat="45.88659405678302" lon="9.428749993364779"><ele>659.1666666666666</ele><time>2026-04-09T08:49:39Z</time></trkpt><trkpt lat="45.88652419678208" lon="9.428705307086833"><ele>659.3333333333333</ele><time>2026-04-09T08:49:40Z</time></trkpt><trkpt lat="45.88646670406177" lon="9.42862568709568"><ele>659.5</ele><time>2026-04-09T08:49:41Z</time></trkpt><trkpt lat="45.886421389300004" lon="9.42852188389347"><ele>659.6666666666666</ele><time>2026-04-09T08:49:42Z</time></trkpt><trkpt lat="45.88642559698658" lon="9.428392972853118"><ele>659.8333333333334</ele><time>2026-04-09T08:49:43Z</time></trkpt><trkpt lat="45.88640919475375" lon="9.428253057707549"><ele>660.0</ele><time>2026-04-09T08:49:44Z</time></trkpt><trkpt lat="45.88638132134447" lon="9.428101967500961"><ele>656.2</ele><time>2026-04-09T08:49:45Z</time></trkpt><trkpt lat="45.88632697724968" lon="9.42796423818839"><ele>652.4</ele><time>2026-04-09T08:49:46Z</time></trkpt><trkpt lat="45.8862572766114" lon="9.427860936319583"><ele>648.5999999999999</ele><time>2026-04-09T08:49:47Z</time></trkpt><trkpt lat="45.88616068896703" lon="9.427787080499506"><ele>644.8</ele><time>2026-04-09T08:49:48Z</time></trkpt><trkpt lat="45.88605939192019" lon="9.427801441247073"><ele>641.0</ele><time>2026-04-09T08:49:49Z</time></trkpt><trkpt lat="45.88595550552581" lon="9.427819306745183"><ele>643.0</ele><time>2026-04-09T08:49:50Z</time></trkpt><trkpt lat="45.88583840507742" lon="9.427854326206427"><ele>645.0</ele><time>2026-04-09T08:49:51Z</time></trkpt><trkpt lat="45.885720422916336" lon="9.42791150485548"><ele>647.0</ele><time>2026-04-09T08:49:52Z</time></trkpt><trkpt lat="45.88559457243742" lon="9.427979360641778"><ele>649.0</ele><time>2026-04-09T08:49:53Z</time></trkpt><trkpt lat="45.88548367246468" lon="9.428021705009007"><ele>659.5</ele><time>2026-04-09T08:49:54Z</time></trkpt><trkpt lat="45.885368378853485" lon="9.428020022753639"><ele>670.0</ele><time>2026-04-09T08:49:55Z</time></trkpt><trkpt lat="45.885248164649305" lon="9.428009225406267"><ele>680.5</ele><time>2026-04-09T08:49:56Z</time></trkpt><trkpt lat="45.88512585651283" lon="9.42800754353053"><ele>691.0</ele><time>2026-04-09T08:49:57Z</time></trkpt><trkpt lat="45.88499199856925" lon="9.428032580983245"><ele>692.0</ele><time>2026-04-09T08:49:58Z</time></trkpt><trkpt lat="45.884871862780585" lon="9.428068971779064"><ele>693.0</ele><time>2026-04-09T08:49:59Z</time></trkpt><trkpt lat="45.88476600856922" lon="9.428097687138765"><ele>694.0</ele><time>2026-04-09T08:50:00Z</time></trkpt><trkpt lat="45.88467183299247" lon="9.428139377057857"><ele>695.0</ele><time>2026-04-09T08:50:01Z</time></trkpt><trkpt lat="45.88457270531049" lon="9.428216611692196"><ele>696.0</ele><time>2026-04-09T08:50:02Z</time></trkpt><trkpt lat="45.88448484075532" lon="9.428320082453165"><ele>696.0</ele><time>2026-04-09T08:50:03Z</time></trkpt><trkpt lat="45.884368281727134" lon="9.42849024452769"><ele>696.0</ele><time>2026-04-09T08:50:04Z</time></trkpt><trkpt lat="45.88426283454592" lon="9.428614905142211"><ele>696.0</ele><time>2026-04-09T08:50:05Z</time></trkpt><trkpt lat="45.88416102873686" lon="9.428714943260642"><ele>696.0</ele><time>2026-04-09T08:50:06Z</time></trkpt><trkpt lat="45.88405427889778" lon="9.428830594321814"><ele>697.0</ele><time>2026-04-09T08:50:07Z</time></trkpt><trkpt lat="45.88396507462655" lon="9.42891910879274"><ele>698.0</ele><time>2026-04-09T08:50:08Z</time></trkpt><trkpt lat="45.88385185407134" lon="9.429009174059743"><ele>699.0</ele><time>2026-04-09T08:50:09Z</time></trkpt><trkpt lat="45.88378472148496" lon="9.429087248530143"><ele>700.0</ele><time>2026-04-09T08:50:10Z</time></trkpt><trkpt lat="45.883715928195784" lon="9.42920059041655"><ele>701.0</ele><time>2026-04-09T08:50:11Z</time></trkpt><trkpt lat="45.883651112350094" lon="9.42935313743077"><ele>701.0</ele><time>2026-04-09T08:50:12Z</time></trkpt><trkpt lat="45.883605706395926" lon="9.429514576467938"><ele>701.0</ele><time>2026-04-09T08:50:13Z</time></trkpt><trkpt lat="45.88355245291408" lon="9.429669050048995"><ele>701.0</ele><time>2026-04-09T08:50:14Z</time></trkpt><trkpt lat="45.883483137484475" lon="9.429804798072388"><ele>701.0</ele><time>2026-04-09T08:50:15Z</time></trkpt><trkpt lat="45.88340455929772" lon="9.429932004700246"><ele>700.4</ele><time>2026-04-09T08:50:16Z</time></trkpt><trkpt lat="45.8833218069583" lon="9.430051765324711"><ele>699.8</ele><time>2026-04-09T08:50:17Z</time></trkpt><trkpt lat="45.883268628909626" lon="9.430156151230614"><ele>699.1999999999999</ele><time>2026-04-09T08:50:18Z</time></trkpt><trkpt lat="45.88321631775421" lon="9.430283679206447"><ele>698.5999999999999</ele><time>2026-04-09T08:50:19Z</time></trkpt><trkpt lat="45.88317766424817" lon="9.430430218854477"><ele>698.0</ele><time>2026-04-09T08:50:20Z</time></trkpt><trkpt lat="45.88313830076635" lon="9.430588692882697"><ele>707.75</ele><time>2026-04-09T08:50:21Z</time></trkpt><trkpt lat="45.88309047316866" lon="9.430738513963348"><ele>717.5</ele><time>2026-04-09T08:50:22Z</time></trkpt><trkpt lat="45.88301573239089" lon="9.430873787510045"><ele>727.25</ele><time>2026-04-09T08:50:23Z</time></trkpt><trkpt lat="45.882932842943866" lon="9.431012949276722"><ele>737.0</ele><time>2026-04-09T08:50:24Z</time></trkpt><trkpt lat="45.882853622980164" lon="9.431174268290997"><ele>744.75</ele><time>2026-04-09T08:50:25Z</time></trkpt><trkpt lat="45.88277989920898" lon="9.431355070505795"><ele>752.5</ele><time>2026-04-09T08:50:26Z</time></trkpt><trkpt lat="45.882704216139274" lon="9.431531286743278"><ele>760.25</ele><time>2026-04-09T08:50:27Z</time></trkpt><trkpt lat="45.88260686333841" lon="9.43167077561263"><ele>768.0</ele><time>2026-04-09T08:50:28Z</time></trkpt><trkpt lat="45.88252482794092" lon="9.431796141671603"><ele>755.0</ele><time>2026-04-09T08:50:29Z</time></trkpt><trkpt lat="45.8824346822783" lon="9.431903208081918"><ele>742.0</ele><time>2026-04-09T08:50:30Z</time></trkpt><trkpt lat="45.88237627314211" lon="9.432022985292221"><ele>729.0</ele><time>2026-04-09T08:50:31Z</time></trkpt><trkpt lat="45.88231632927137" lon="9.432168514054242"><ele>716.0</ele><time>2026-04-09T08:50:32Z</time></trkpt><trkpt lat="45.882276571666566" lon="9.432331651226418"><ele>716.0</ele><time>2026-04-09T08:50:33Z</time></trkpt><trkpt lat="45.8822594108726" lon="9.432506427109542"><ele>716.0</ele><time>2026-04-09T08:50:34Z</time></trkpt><trkpt lat="45.88225322364344" lon="9.432686754799317"><ele>716.0</ele><time>2026-04-09T08:50:35Z</time></trkpt><trkpt lat="45.88224300476019" lon="9.432840965809838"><ele>716.0</ele><time>2026-04-09T08:50:36Z</time></trkpt><trkpt lat="45.882202754822586" lon="9.432993573599388"><ele>721.5</ele><time>2026-04-09T08:50:37Z</time></trkpt><trkpt lat="45.88213722370546" lon="9.433143932050772"><ele>727.0</ele><time>2026-04-09T08:50:38Z</time></trkpt><trkpt lat="45.88205165231631" lon="9.43330226636128"><ele>732.5</ele><time>2026-04-09T08:50:39Z</time></trkpt><trkpt lat="45.8819640947184" lon="9.433476630311342"><ele>738.0</ele><time>2026-04-09T08:50:40Z</time></trkpt><trkpt lat="45.88188450197713" lon="9.433651362910377"><ele>732.5</ele><time>2026-04-09T08:50:41Z</time></trkpt><trkpt lat="45.88181522095595" lon="9.433824247592646"><ele>727.0</ele><time>2026-04-09T08:50:42Z</time></trkpt><trkpt lat="45.88175427419688" lon="9.433991739177017"><ele>721.5</ele><time>2026-04-09T08:50:43Z</time></trkpt><trkpt lat="45.88169635138514" lon="9.434116563867299"><ele>716.0</ele><time>2026-04-09T08:50:44Z</time></trkpt><trkpt lat="45.88162929192469" lon="9.434237708018001"><ele>716.0</ele><time>2026-04-09T08:50:45Z</time></trkpt><trkpt lat="45.881563513926416" lon="9.434353564287356"><ele>716.0</ele><time>2026-04-09T08:50:46Z</time></trkpt><trkpt lat="45.88150912830466" lon="9.434462953293327"><ele>716.0</ele><time>2026-04-09T08:50:47Z</time></trkpt><trkpt lat="45.881475824545895" lon="9.434601709996237"><ele>716.0</ele><time>2026-04-09T08:50:49Z</time></trkpt><trkpt lat="45.881556697456276" lon="9.434652131550735"><ele>716.0</ele><time>2026-04-09T08:50:51Z</time></trkpt><trkpt lat="45.88160685903342" lon="9.43451988358306"><ele>716.0</ele><time>2026-04-09T08:50:53Z</time></trkpt><trkpt lat="45.88165046897453" lon="9.434405001151633"><ele>716.0</ele><time>2026-04-09T08:50:54Z</time></trkpt><trkpt lat="45.8816958581358" lon="9.434337144276203"><ele>716.0</ele><time>2026-04-09T08:50:55Z</time></trkpt><trkpt lat="45.88176103750561" lon="9.434248152379629"><ele>716.0</ele><time>2026-04-09T08:50:56Z</time></trkpt><trkpt lat="45.881840624017514" lon="9.434140335256908"><ele>716.0</ele><time>2026-04-09T08:50:57Z</time></trkpt><trkpt lat="45.88192137716983" lon="9.434024642418313"><ele>720.4</ele><time>2026-04-09T08:50:58Z</time></trkpt><trkpt lat="45.8819864862275" lon="9.433919825378537"><ele>724.8</ele><time>2026-04-09T08:50:59Z</time></trkpt><trkpt lat="45.882055064090444" lon="9.43380817366082"><ele>729.1999999999999</ele><time>2026-04-09T08:51:00Z</time></trkpt><trkpt lat="45.8821364968392" lon="9.433701371807446"><ele>733.5999999999999</ele><time>2026-04-09T08:51:01Z</time></trkpt><trkpt lat="45.88222086639093" lon="9.433595472208056"><ele>738.0</ele><time>2026-04-09T08:51:02Z</time></trkpt><trkpt lat="45.88229868187463" lon="9.433476662089705"><ele>738.0</ele><time>2026-04-09T08:51:03Z</time></trkpt><trkpt lat="45.8823710947721" lon="9.433346253391827"><ele>738.0</ele><time>2026-04-09T08:51:04Z</time></trkpt><trkpt lat="45.88242268477052" lon="9.433193375199544"><ele>738.0</ele><time>2026-04-09T08:51:05Z</time></trkpt><trkpt lat="45.88247981775744" lon="9.433035225996756"><ele>738.0</ele><time>2026-04-09T08:51:06Z</time></trkpt><trkpt lat="45.8825253497815" lon="9.432884400709188"><ele>733.5999999999999</ele><time>2026-04-09T08:51:07Z</time></trkpt><trkpt lat="45.882575886442176" lon="9.43272859215381"><ele>729.1999999999999</ele><time>2026-04-09T08:51:08Z</time></trkpt><trkpt lat="45.882631668782935" lon="9.43260489826956"><ele>724.8</ele><time>2026-04-09T08:51:09Z</time></trkpt><trkpt lat="45.88269329031925" lon="9.432487916680687"><ele>720.4</ele><time>2026-04-09T08:51:10Z</time></trkpt><trkpt lat="45.882758698283084" lon="9.43238505293142"><ele>716.0</ele><time>2026-04-09T08:51:11Z</time></trkpt><trkpt lat="45.88283622460632" lon="9.432293219496248"><ele>726.4</ele><time>2026-04-09T08:51:12Z</time></trkpt><trkpt lat="45.882927303191586" lon="9.432205870619482"><ele>736.8</ele><time>2026-04-09T08:51:13Z</time></trkpt><trkpt lat="45.883020338692546" lon="9.432126769927837"><ele>747.1999999999999</ele><time>2026-04-09T08:51:14Z</time></trkpt><trkpt lat="45.88310461017074" lon="9.432022892304845"><ele>757.5999999999999</ele><time>2026-04-09T08:51:15Z</time></trkpt><trkpt lat="45.88318459664104" lon="9.43191734081932"><ele>768.0</ele><time>2026-04-09T08:51:16Z</time></trkpt><trkpt lat="45.883259315219945" lon="9.431824253911197"><ele>768.0</ele><time>2026-04-09T08:51:17Z</time></trkpt><trkpt lat="45.88331615732263" lon="9.431762302871348"><ele>768.0</ele><time>2026-04-09T08:51:18Z</time></trkpt><trkpt lat="45.88337945334123" lon="9.431750291479643"><ele>768.0</ele><time>2026-04-09T08:51:19Z</time></trkpt><trkpt lat="45.88339875769579" lon="9.431873784611218"><ele>768.0</ele><time>2026-04-09T08:51:21Z</time></trkpt><trkpt lat="45.88334391529228" lon="9.431918918671787"><ele>768.0</ele><time>2026-04-09T08:51:23Z</time></trkpt><trkpt lat="45.883204896597036" lon="9.432011762347857"><ele>768.0</ele><time>2026-04-09T08:51:25Z</time></trkpt><trkpt lat="45.88312673771802" lon="9.432115775119712"><ele>770.8</ele><time>2026-04-09T08:51:26Z</time></trkpt><trkpt lat="45.88306270445651" lon="9.43219923617551"><ele>773.5999999999999</ele><time>2026-04-09T08:51:27Z</time></trkpt><trkpt lat="45.88298654387943" lon="9.432285508286489"><ele>776.4000000000001</ele><time>2026-04-09T08:51:28Z</time></trkpt><trkpt lat="45.8829110388869" lon="9.432368531453921"><ele>779.2</ele><time>2026-04-09T08:51:29Z</time></trkpt><trkpt lat="45.88283786824619" lon="9.432456271954107"><ele>782.0</ele><time>2026-04-09T08:51:30Z</time></trkpt><trkpt lat="45.88277434747241" lon="9.432552380117375"><ele>782.0</ele><time>2026-04-09T08:51:31Z</time></trkpt><trkpt lat="45.88272919528136" lon="9.432673273635887"><ele>782.0</ele><time>2026-04-09T08:51:32Z</time></trkpt><trkpt lat="45.88268910727418" lon="9.432845951182241"><ele>782.0</ele><time>2026-04-09T08:51:33Z</time></trkpt><trkpt lat="45.88265909713568" lon="9.433032916598135"><ele>782.0</ele><time>2026-04-09T08:51:34Z</time></trkpt><trkpt lat="45.882613449158505" lon="9.433210957564814"><ele>777.75</ele><time>2026-04-09T08:51:35Z</time></trkpt><trkpt lat="45.88257645209855" lon="9.43338729502737"><ele>773.5</ele><time>2026-04-09T08:51:36Z</time></trkpt><trkpt lat="45.88251462735482" lon="9.43359249955421"><ele>769.25</ele><time>2026-04-09T08:51:37Z</time></trkpt><trkpt lat="45.88246123086178" lon="9.433774130821615"><ele>765.0</ele><time>2026-04-09T08:51:38Z</time></trkpt><trkpt lat="45.88242050641244" lon="9.433931062392285"><ele>765.0</ele><time>2026-04-09T08:51:39Z</time></trkpt><trkpt lat="45.88236313194547" lon="9.434086381192934"><ele>765.0</ele><time>2026-04-09T08:51:40Z</time></trkpt><trkpt lat="45.8822925518472" lon="9.43425138147007"><ele>765.0</ele><time>2026-04-09T08:51:41Z</time></trkpt><trkpt lat="45.88222233761902" lon="9.434414371041255"><ele>765.0</ele><time>2026-04-09T08:51:42Z</time></trkpt><trkpt lat="45.88214281886775" lon="9.434546116849742"><ele>770.0</ele><time>2026-04-09T08:51:43Z</time></trkpt><trkpt lat="45.88205807466123" lon="9.434651287926881"><ele>775.0</ele><time>2026-04-09T08:51:44Z</time></trkpt><trkpt lat="45.88199597713124" lon="9.434761476310607"><ele>780.0</ele><time>2026-04-09T08:51:45Z</time></trkpt><trkpt lat="45.88193794553624" lon="9.434885704569373"><ele>785.0</ele><time>2026-04-09T08:51:46Z</time></trkpt><trkpt lat="45.881895587545344" lon="9.435015589524353"><ele>790.0</ele><time>2026-04-09T08:51:47Z</time></trkpt><trkpt lat="45.88187016272882" lon="9.43516059008649"><ele>790.0</ele><time>2026-04-09T08:51:48Z</time></trkpt><trkpt lat="45.881843824375984" lon="9.435284071111083"><ele>790.0</ele><time>2026-04-09T08:51:49Z</time></trkpt><trkpt lat="45.881816390041344" lon="9.435380788078529"><ele>790.0</ele><time>2026-04-09T08:51:50Z</time></trkpt><trkpt lat="45.88184124140257" lon="9.43551629538395"><ele>790.0</ele><time>2026-04-09T08:51:52Z</time></trkpt><trkpt lat="45.88193284810252" lon="9.435528279991912"><ele>790.0</ele><time>2026-04-09T08:51:54Z</time></trkpt><trkpt lat="45.88198492271872" lon="9.435306952408178"><ele>789.9999999999999</ele><time>2026-04-09T08:51:56Z</time></trkpt><trkpt lat="45.88199032202854" lon="9.43520823524315"><ele>790.0</ele><time>2026-04-09T08:51:57Z</time></trkpt><trkpt lat="45.882021518565956" lon="9.435089516303663"><ele>790.0</ele><time>2026-04-09T08:51:58Z</time></trkpt><trkpt lat="45.88206846151488" lon="9.434972678068402"><ele>790.0</ele><time>2026-04-09T08:51:59Z</time></trkpt><trkpt lat="45.88212558113013" lon="9.43486723516998"><ele>789.9999999999999</ele><time>2026-04-09T08:52:00Z</time></trkpt><trkpt lat="45.882193804597065" lon="9.434760647411768"><ele>790.0</ele><time>2026-04-09T08:52:01Z</time></trkpt><trkpt lat="45.882263865993465" lon="9.434652895948279"><ele>783.75</ele><time>2026-04-09T08:52:02Z</time></trkpt><trkpt lat="45.88234154638386" lon="9.434545990912104"><ele>777.5</ele><time>2026-04-09T08:52:03Z</time></trkpt><trkpt lat="45.88243265344087" lon="9.4344308701285"><ele>771.25</ele><time>2026-04-09T08:52:04Z</time></trkpt><trkpt lat="45.8825258149662" lon="9.434309706122717"><ele>765.0</ele><time>2026-04-09T08:52:05Z</time></trkpt><trkpt lat="45.88261788897744" lon="9.43417762900245"><ele>778.25</ele><time>2026-04-09T08:52:06Z</time></trkpt><trkpt lat="45.88271958284486" lon="9.434055135856763"><ele>791.5</ele><time>2026-04-09T08:52:07Z</time></trkpt><trkpt lat="45.88281262167263" lon="9.433949736084674"><ele>804.75</ele><time>2026-04-09T08:52:08Z</time></trkpt><trkpt lat="45.88289181702738" lon="9.43384120267818"><ele>818.0</ele><time>2026-04-09T08:52:09Z</time></trkpt><trkpt lat="45.88297697017744" lon="9.433755179218608"><ele>818.0000000000001</ele><time>2026-04-09T08:52:10Z</time></trkpt><trkpt lat="45.88305480420818" lon="9.433664159710224"><ele>818.0</ele><time>2026-04-09T08:52:11Z</time></trkpt><trkpt lat="45.883118232433404" lon="9.433586094413512"><ele>818.0</ele><time>2026-04-09T08:52:12Z</time></trkpt><trkpt lat="45.88318442088348" lon="9.433504432976349"><ele>818.0</ele><time>2026-04-09T08:52:13Z</time></trkpt><trkpt lat="45.883239289479036" lon="9.43340729311166"><ele>818.0000000000001</ele><time>2026-04-09T08:52:14Z</time></trkpt><trkpt lat="45.88326433446868" lon="9.433300913717577"><ele>818.0</ele><time>2026-04-09T08:52:15Z</time></trkpt><trkpt lat="45.88328220794944" lon="9.433213038258614"><ele>818.0000000000001</ele><time>2026-04-09T08:52:16Z</time></trkpt><trkpt lat="45.88329078591326" lon="9.43312124844452"><ele>818.0</ele><time>2026-04-09T08:52:17Z</time></trkpt><trkpt lat="45.88338097497097" lon="9.43307607392951"><ele>818.0</ele><time>2026-04-09T08:52:19Z</time></trkpt><trkpt lat="45.88341567685573" lon="9.433184954115232"><ele>818.0</ele><time>2026-04-09T08:52:21Z</time></trkpt><trkpt lat="45.8833573405652" lon="9.433252391446342"><ele>818.0000000000001</ele><time>2026-04-09T08:52:22Z</time></trkpt><trkpt lat="45.88331394236053" lon="9.43335581056566"><ele>818.0</ele><time>2026-04-09T08:52:23Z</time></trkpt><trkpt lat="45.88327694328033" lon="9.433475860173164"><ele>818.0</ele><time>2026-04-09T08:52:24Z</time></trkpt><trkpt lat="45.883209556317986" lon="9.433583169930582"><ele>818.0</ele><time>2026-04-09T08:52:25Z</time></trkpt><trkpt lat="45.88313010532546" lon="9.433693536852154"><ele>818.0</ele><time>2026-04-09T08:52:26Z</time></trkpt><trkpt lat="45.88304442246132" lon="9.433822548793154"><ele>818.0</ele><time>2026-04-09T08:52:27Z</time></trkpt><trkpt lat="45.882951079214635" lon="9.43393303901309"><ele>819.5</ele><time>2026-04-09T08:52:28Z</time></trkpt><trkpt lat="45.882872518359456" lon="9.43405856880812"><ele>821.0</ele><time>2026-04-09T08:52:29Z</time></trkpt><trkpt lat="45.88280537838129" lon="9.434190710681888"><ele>822.5</ele><time>2026-04-09T08:52:30Z</time></trkpt><trkpt lat="45.8827282686838" lon="9.434339118096101"><ele>824.0</ele><time>2026-04-09T08:52:31Z</time></trkpt><trkpt lat="45.882650644330425" lon="9.434470537864728"><ele>817.2</ele><time>2026-04-09T08:52:32Z</time></trkpt><trkpt lat="45.882577938790575" lon="9.43457986083246"><ele>810.4000000000001</ele><time>2026-04-09T08:52:33Z</time></trkpt><trkpt lat="45.88250994380127" lon="9.434669066963124"><ele>803.6</ele><time>2026-04-09T08:52:34Z</time></trkpt><trkpt lat="45.882448155689936" lon="9.434753620834481"><ele>796.8</ele><time>2026-04-09T08:52:35Z</time></trkpt><trkpt lat="45.882386376741835" lon="9.434834665664177"><ele>790.0</ele><time>2026-04-09T08:52:36Z</time></trkpt><trkpt lat="45.882346352465014" lon="9.434960883971188"><ele>789.9999999999999</ele><time>2026-04-09T08:52:37Z</time></trkpt><trkpt lat="45.882317094954246" lon="9.43509529928168"><ele>790.0</ele><time>2026-04-09T08:52:38Z</time></trkpt><trkpt lat="45.88228602305834" lon="9.43519881350215"><ele>790.0</ele><time>2026-04-09T08:52:39Z</time></trkpt><trkpt lat="45.882261974040574" lon="9.435299735441427"><ele>790.0</ele><time>2026-04-09T08:52:40Z</time></trkpt><trkpt lat="45.88226648118792" lon="9.435393946197575"><ele>789.9999999999999</ele><time>2026-04-09T08:52:41Z</time></trkpt><trkpt lat="45.88234671544494" lon="9.435439190530836"><ele>790.0</ele><time>2026-04-09T08:52:43Z</time></trkpt><trkpt lat="45.882442543206395" lon="9.435367989890723"><ele>789.9999999999999</ele><time>2026-04-09T08:52:45Z</time></trkpt><trkpt lat="45.88241818222769" lon="9.435220954565263"><ele>790.0</ele><time>2026-04-09T08:52:46Z</time></trkpt><trkpt lat="45.8824223258924" lon="9.435094024746968"><ele>790.0</ele><time>2026-04-09T08:52:47Z</time></trkpt><trkpt lat="45.88245112138086" lon="9.43497724622667"><ele>790.0</ele><time>2026-04-09T08:52:48Z</time></trkpt><trkpt lat="45.882494546032056" lon="9.434896972754968"><ele>789.9999999999999</ele><time>2026-04-09T08:52:49Z</time></trkpt><trkpt lat="45.88256868038059" lon="9.434814986823495"><ele>790.0</ele><time>2026-04-09T08:52:50Z</time></trkpt><trkpt lat="45.88265727162095" lon="9.434723646963276"><ele>798.5</ele><time>2026-04-09T08:52:51Z</time></trkpt><trkpt lat="45.8827474030344" lon="9.434597599853113"><ele>807.0</ele><time>2026-04-09T08:52:52Z</time></trkpt><trkpt lat="45.88285672531472" lon="9.434486521263114"><ele>815.5</ele><time>2026-04-09T08:52:53Z</time></trkpt><trkpt lat="45.882952730449595" lon="9.43436253341306"><ele>824.0</ele><time>2026-04-09T08:52:54Z</time></trkpt><trkpt lat="45.883038410695775" lon="9.434247738001925"><ele>824.0000000000001</ele><time>2026-04-09T08:52:55Z</time></trkpt><trkpt lat="45.883110629811284" lon="9.43415277856072"><ele>824.0</ele><time>2026-04-09T08:52:56Z</time></trkpt><trkpt lat="45.8831717079295" lon="9.434066891568394"><ele>824.0</ele><time>2026-04-09T08:52:57Z</time></trkpt><trkpt lat="45.88322251383199" lon="9.434003685686301"><ele>824.0</ele><time>2026-04-09T08:52:58Z</time></trkpt><trkpt lat="45.88331204454588" lon="9.434005740936977"><ele>824.0000000000001</ele><time>2026-04-09T08:53:00Z</time></trkpt><trkpt lat="45.883286112394266" lon="9.434096927347154"><ele>824.0</ele><time>2026-04-09T08:53:02Z</time></trkpt><trkpt lat="45.883163668889324" lon="9.434151172991063"><ele>824.0</ele><time>2026-04-09T08:53:04Z</time></trkpt><trkpt lat="45.883091561712064" lon="9.434231644670316"><ele>824.0</ele><time>2026-04-09T08:53:05Z</time></trkpt><trkpt lat="45.88301727867684" lon="9.434328970755276"><ele>824.0</ele><time>2026-04-09T08:53:06Z</time></trkpt><trkpt lat="45.88294217614171" lon="9.434443296159714"><ele>824.0</ele><time>2026-04-09T08:53:07Z</time></trkpt><trkpt lat="45.88287666669515" lon="9.434530789436826"><ele>824.0</ele><time>2026-04-09T08:53:08Z</time></trkpt><trkpt lat="45.8828155963067" lon="9.434619446601967"><ele>829.1666666666667</ele><time>2026-04-09T08:53:09Z</time></trkpt><trkpt lat="45.88276120847818" lon="9.434694922359844"><ele>834.3333333333334</ele><time>2026-04-09T08:53:10Z</time></trkpt><trkpt lat="45.88270109623594" lon="9.434776612288239"><ele>839.5</ele><time>2026-04-09T08:53:11Z</time></trkpt><trkpt lat="45.88263902802282" lon="9.434863487994292"><ele>844.6666666666667</ele><time>2026-04-09T08:53:12Z</time></trkpt><trkpt lat="45.88258681992249" lon="9.434951942728393"><ele>849.8333333333334</ele><time>2026-04-09T08:53:13Z</time></trkpt><trkpt lat="45.88256800683393" lon="9.435108268382336"><ele>855.0</ele><time>2026-04-09T08:53:15Z</time></trkpt><trkpt lat="45.88263698596319" lon="9.435159782131633"><ele>855.0</ele><time>2026-04-09T08:53:17Z</time></trkpt><trkpt lat="45.8826864361478" lon="9.435036179016132"><ele>855.0</ele><time>2026-04-09T08:53:19Z</time></trkpt><trkpt lat="45.882721908320406" lon="9.434959696811994"><ele>855.0</ele><time>2026-04-09T08:53:20Z</time></trkpt><trkpt lat="45.882745185323905" lon="9.434863173789974"><ele>855.0</ele><time>2026-04-09T08:53:21Z</time></trkpt><trkpt lat="45.88281142155598" lon="9.434770842031845"><ele>855.0</ele><time>2026-04-09T08:53:22Z</time></trkpt><trkpt lat="45.88288306240226" lon="9.434692507516695"><ele>855.0</ele><time>2026-04-09T08:53:23Z</time></trkpt><trkpt lat="45.88294782682665" lon="9.434619287583768"><ele>855.0</ele><time>2026-04-09T08:53:24Z</time></trkpt><trkpt lat="45.883002035841294" lon="9.434560003527936"><ele>855.0</ele><time>2026-04-09T08:53:25Z</time></trkpt><trkpt lat="45.88306173381985" lon="9.434508889929136"><ele>855.0</ele><time>2026-04-09T08:53:27Z</time></trkpt><trkpt lat="45.883099363241975" lon="9.434604904832801"><ele>855.0</ele><time>2026-04-09T08:53:30Z</time></trkpt><trkpt lat="45.883029982405326" lon="9.434614627108939"><ele>855.0</ele><time>2026-04-09T08:53:31Z</time></trkpt><trkpt lat="45.882975519564276" lon="9.434684101047862"><ele>855.0</ele><time>2026-04-09T08:53:32Z</time></trkpt><trkpt lat="45.88291238303505" lon="9.434740858567974"><ele>855.0</ele><time>2026-04-09T08:53:33Z</time></trkpt><trkpt lat="45.88285709567525" lon="9.434803736635448"><ele>855.0</ele><time>2026-04-09T08:53:34Z</time></trkpt><trkpt lat="45.882809203570645" lon="9.434868347495382"><ele>855.0</ele><time>2026-04-09T08:53:35Z</time></trkpt><trkpt lat="45.88276740341986" lon="9.43496703260459"><ele>855.0</ele><time>2026-04-09T08:53:36Z</time></trkpt><trkpt lat="45.88273999016541" lon="9.43510039315325"><ele>855.0</ele><time>2026-04-09T08:53:37Z</time></trkpt><trkpt lat="45.88271815538721" lon="9.435250691005105"><ele>855.0</ele><time>2026-04-09T08:53:38Z</time></trkpt><trkpt lat="45.88269170961674" lon="9.435414048600002"><ele>847.2</ele><time>2026-04-09T08:53:39Z</time></trkpt><trkpt lat="45.88266831816815" lon="9.435559595420406"><ele>839.4</ele><time>2026-04-09T08:53:40Z</time></trkpt><trkpt lat="45.8826403387784" lon="9.435687333164118"><ele>831.5999999999999</ele><time>2026-04-09T08:53:41Z</time></trkpt><trkpt lat="45.88261275692029" lon="9.43583456053488"><ele>823.8</ele><time>2026-04-09T08:53:42Z</time></trkpt><trkpt lat="45.88259510525995" lon="9.435970407896287"><ele>816.0</ele><time>2026-04-09T08:53:43Z</time></trkpt><trkpt lat="45.8825747659448" lon="9.436092135905703"><ele>816.0</ele><time>2026-04-09T08:53:44Z</time></trkpt><trkpt lat="45.8825437086357" lon="9.43620332172941"><ele>816.0</ele><time>2026-04-09T08:53:45Z</time></trkpt><trkpt lat="45.88249598809658" lon="9.436322223634146"><ele>816.0</ele><time>2026-04-09T08:53:46.022Z</time></trkpt><trkpt lat="45.882438975993864" lon="9.436444225121699"><ele>816.0</ele><time>2026-04-09T08:53:47.02Z</time></trkpt><trkpt lat="45.882368826343146" lon="9.436550467271728"><ele>816.0</ele><time>2026-04-09T08:53:48.018Z</time></trkpt><trkpt lat="45.882320118370075" lon="9.436652511061686"><ele>853.0</ele><time>2026-04-09T08:53:49.019Z</time></trkpt><trkpt lat="45.88227420420536" lon="9.436744523487192"><ele>890.0</ele><time>2026-04-09T08:53:50.018Z</time></trkpt><trkpt lat="45.88191385970612" lon="9.436869699296945"><ele>890.0</ele><time>2026-04-09T08:53:54Z</time></trkpt><trkpt lat="45.88183449265567" lon="9.436876641378673"><ele>890.0</ele><time>2026-04-09T08:53:55Z</time></trkpt><trkpt lat="45.88173462076576" lon="9.436887322421095"><ele>890.0</ele><time>2026-04-09T08:53:57Z</time></trkpt><trkpt lat="45.88160146155043" lon="9.436915439594577"><ele>890.0</ele><time>2026-04-09T08:53:58Z</time></trkpt><trkpt lat="45.88147463808178" lon="9.436946559639356"><ele>890.0</ele><time>2026-04-09T08:53:59Z</time></trkpt><trkpt lat="45.88133375332866" lon="9.437055181401835"><ele>885.25</ele><time>2026-04-09T08:54:00Z</time></trkpt><trkpt lat="45.881203946327794" lon="9.437117137337271"><ele>880.5</ele><time>2026-04-09T08:54:01Z</time></trkpt><trkpt lat="45.8810868291821" lon="9.43718098187816"><ele>875.75</ele><time>2026-04-09T08:54:02Z</time></trkpt><trkpt lat="45.88098613378217" lon="9.437253622139824"><ele>871.0</ele><time>2026-04-09T08:54:03Z</time></trkpt><trkpt lat="45.88089049217744" lon="9.437326623876261"><ele>863.8</ele><time>2026-04-09T08:54:04Z</time></trkpt><trkpt lat="45.88080525755337" lon="9.437434208884508"><ele>856.5999999999999</ele><time>2026-04-09T08:54:05Z</time></trkpt><trkpt lat="45.88072567475341" lon="9.437563693611882"><ele>849.4</ele><time>2026-04-09T08:54:06Z</time></trkpt><trkpt lat="45.88065333823253" lon="9.437667291027541"><ele>842.2</ele><time>2026-04-09T08:54:07Z</time></trkpt><trkpt lat="45.88058283730488" lon="9.437726752356415"><ele>835.0</ele><time>2026-04-09T08:54:08Z</time></trkpt><trkpt lat="45.8805010241447" lon="9.437800771320775"><ele>834.9999999999999</ele><time>2026-04-09T08:54:09Z</time></trkpt><trkpt lat="45.88040936807377" lon="9.437871233833311"><ele>835.0</ele><time>2026-04-09T08:54:11Z</time></trkpt><trkpt lat="45.880430684963784" lon="9.437970439344676"><ele>835.0</ele><time>2026-04-09T08:54:13Z</time></trkpt><trkpt lat="45.88052103216788" lon="9.437991815139862"><ele>835.0</ele><time>2026-04-09T08:54:15Z</time></trkpt><trkpt lat="45.88057812394366" lon="9.437916848765267"><ele>834.9999999999999</ele><time>2026-04-09T08:54:16Z</time></trkpt><trkpt lat="45.88064766283618" lon="9.437840219898773"><ele>835.0</ele><time>2026-04-09T08:54:17Z</time></trkpt><trkpt lat="45.88073828442845" lon="9.437741968321511"><ele>834.9999999999999</ele><time>2026-04-09T08:54:18Z</time></trkpt><trkpt lat="45.880814870942956" lon="9.437647479835327"><ele>835.0</ele><time>2026-04-09T08:54:19Z</time></trkpt><trkpt lat="45.88087854001429" lon="9.437562317605485"><ele>835.0</ele><time>2026-04-09T08:54:20Z</time></trkpt><trkpt lat="45.880937075584036" lon="9.437499058118055"><ele>835.0</ele><time>2026-04-09T08:54:21Z</time></trkpt><trkpt lat="45.881009562861095" lon="9.437443026140032"><ele>834.9999999999999</ele><time>2026-04-09T08:54:22Z</time></trkpt><trkpt lat="45.88109767513625" lon="9.43739746600527"><ele>835.0</ele><time>2026-04-09T08:54:23Z</time></trkpt><trkpt lat="45.8811924807931" lon="9.43735570637458"><ele>840.9999999999999</ele><time>2026-04-09T08:54:24Z</time></trkpt><trkpt lat="45.881266786740866" lon="9.437316925674187"><ele>847.0</ele><time>2026-04-09T08:54:25Z</time></trkpt><trkpt lat="45.88133259731096" lon="9.43729804474052"><ele>853.0</ele><time>2026-04-09T08:54:26Z</time></trkpt><trkpt lat="45.881440673934804" lon="9.437297916145495"><ele>859.0</ele><time>2026-04-09T08:54:28Z</time></trkpt><trkpt lat="45.88147255947455" lon="9.437378159325618"><ele>864.9999999999999</ele><time>2026-04-09T08:54:30Z</time></trkpt><trkpt lat="45.88139171420028" lon="9.437443730984734"><ele>871.0</ele><time>2026-04-09T08:54:32Z</time></trkpt><trkpt lat="45.88127408671602" lon="9.437383293128317"><ele>870.9999999999999</ele><time>2026-04-09T08:54:34Z</time></trkpt><trkpt lat="45.88119713623869" lon="9.437403032987568"><ele>871.0</ele><time>2026-04-09T08:54:35Z</time></trkpt><trkpt lat="45.881104420974246" lon="9.437452396321456"><ele>871.0</ele><time>2026-04-09T08:54:36Z</time></trkpt><trkpt lat="45.88104147964753" lon="9.437513155212521"><ele>871.0</ele><time>2026-04-09T08:54:37Z</time></trkpt><trkpt lat="45.880976954431475" lon="9.43758382813356"><ele>870.9999999999999</ele><time>2026-04-09T08:54:38Z</time></trkpt><trkpt lat="45.88092383610526" lon="9.437682468305718"><ele>871.0</ele><time>2026-04-09T08:54:39Z</time></trkpt><trkpt lat="45.88088003389165" lon="9.437788799755534"><ele>870.0</ele><time>2026-04-09T08:54:40Z</time></trkpt><trkpt lat="45.88082035316352" lon="9.437881303393869"><ele>869.0</ele><time>2026-04-09T08:54:41Z</time></trkpt><trkpt lat="45.880753381842744" lon="9.437934475138782"><ele>868.0</ele><time>2026-04-09T08:54:42Z</time></trkpt><trkpt lat="45.88069355160651" lon="9.437983557397486"><ele>867.0</ele><time>2026-04-09T08:54:43Z</time></trkpt><trkpt lat="45.88064782792696" lon="9.438063047564114"><ele>866.0</ele><time>2026-04-09T08:54:44Z</time></trkpt><trkpt lat="45.88063053855057" lon="9.438155728617787"><ele>865.0</ele><time>2026-04-09T08:54:45Z</time></trkpt><trkpt lat="45.88063592803342" lon="9.438255893035452"><ele>864.0</ele><time>2026-04-09T08:54:46Z</time></trkpt><trkpt lat="45.880683474290514" lon="9.438381359544195"><ele>864.0</ele><time>2026-04-09T08:54:47Z</time></trkpt><trkpt lat="45.88072619714655" lon="9.438514180238531"><ele>864.0000000000001</ele><time>2026-04-09T08:54:48Z</time></trkpt><trkpt lat="45.88075351074361" lon="9.438653022932858"><ele>864.0000000000001</ele><time>2026-04-09T08:54:49Z</time></trkpt><trkpt lat="45.880785402832096" lon="9.43879327386477"><ele>864.0</ele><time>2026-04-09T08:54:50Z</time></trkpt><trkpt lat="45.880794902623705" lon="9.438914917773392"><ele>864.0</ele><time>2026-04-09T08:54:51Z</time></trkpt><trkpt lat="45.880784479567296" lon="9.439035592004391"><ele>866.4000000000001</ele><time>2026-04-09T08:54:52Z</time></trkpt><trkpt lat="45.88074766811036" lon="9.439156440221101"><ele>868.8000000000001</ele><time>2026-04-09T08:54:53Z</time></trkpt><trkpt lat="45.88070122619436" lon="9.439291322876608"><ele>871.1999999999999</ele><time>2026-04-09T08:54:54Z</time></trkpt><trkpt lat="45.88061343902056" lon="9.439409939157189"><ele>873.5999999999999</ele><time>2026-04-09T08:54:55Z</time></trkpt><trkpt lat="45.88052669565595" lon="9.43953117396529"><ele>876.0</ele><time>2026-04-09T08:54:56Z</time></trkpt><trkpt lat="45.88045613449746" lon="9.43965552147451"><ele>879.0</ele><time>2026-04-09T08:54:57Z</time></trkpt><trkpt lat="45.88038344603019" lon="9.439742134065712"><ele>882.0</ele><time>2026-04-09T08:54:58Z</time></trkpt><trkpt lat="45.880279476640005" lon="9.439837097679055"><ele>885.0</ele><time>2026-04-09T08:54:59Z</time></trkpt><trkpt lat="45.88015427647652" lon="9.439910208657963"><ele>888.0</ele><time>2026-04-09T08:55:00Z</time></trkpt><trkpt lat="45.880050796275235" lon="9.439969637003669"><ele>888.0</ele><time>2026-04-09T08:55:01Z</time></trkpt><trkpt lat="45.87996260671858" lon="9.440014988332054"><ele>888.0</ele><time>2026-04-09T08:55:02Z</time></trkpt><trkpt lat="45.879881085568634" lon="9.44006002844159"><ele>888.0</ele><time>2026-04-09T08:55:03Z</time></trkpt><trkpt lat="45.87981076821437" lon="9.440093906449938"><ele>888.0</ele><time>2026-04-09T08:55:04Z</time></trkpt><trkpt lat="45.879759550076336" lon="9.44017664295733"><ele>888.0</ele><time>2026-04-09T08:55:06Z</time></trkpt><trkpt lat="45.87979144075635" lon="9.440257290581286"><ele>888.0</ele><time>2026-04-09T08:55:08Z</time></trkpt><trkpt lat="45.879875794107846" lon="9.440253586668346"><ele>888.0</ele><time>2026-04-09T08:55:10Z</time></trkpt><trkpt lat="45.87993502989788" lon="9.440214400361796"><ele>888.0</ele><time>2026-04-09T08:55:11Z</time></trkpt><trkpt lat="45.87999796938325" lon="9.440161791403806"><ele>888.0</ele><time>2026-04-09T08:55:12Z</time></trkpt><trkpt lat="45.880078295670785" lon="9.44010410286711"><ele>888.0</ele><time>2026-04-09T08:55:13Z</time></trkpt><trkpt lat="45.88015465993116" lon="9.440078897986071"><ele>888.0</ele><time>2026-04-09T08:55:14Z</time></trkpt><trkpt lat="45.880236235709965" lon="9.440050593158713"><ele>888.0</ele><time>2026-04-09T08:55:15Z</time></trkpt><trkpt lat="45.88031609518983" lon="9.440009951548078"><ele>891.5</ele><time>2026-04-09T08:55:16Z</time></trkpt><trkpt lat="45.880383724924464" lon="9.43997194716122"><ele>895.0</ele><time>2026-04-09T08:55:17Z</time></trkpt><trkpt lat="45.8804626218979" lon="9.439918592614207"><ele>898.5</ele><time>2026-04-09T08:55:19Z</time></trkpt><trkpt lat="45.880485668769985" lon="9.440018158884364"><ele>902.0</ele><time>2026-04-09T08:55:21Z</time></trkpt><trkpt lat="45.880385993567494" lon="9.440053416617774"><ele>905.5</ele><time>2026-04-09T08:55:23Z</time></trkpt><trkpt lat="45.88030752649483" lon="9.44009910038105"><ele>909.0</ele><time>2026-04-09T08:55:24Z</time></trkpt><trkpt lat="45.880223980857345" lon="9.440133403000512"><ele>909.0</ele><time>2026-04-09T08:55:25Z</time></trkpt><trkpt lat="45.88013619476242" lon="9.440186070590581"><ele>909.0</ele><time>2026-04-09T08:55:26Z</time></trkpt><trkpt lat="45.88005089204574" lon="9.44024944177083"><ele>909.0</ele><time>2026-04-09T08:55:27Z</time></trkpt><trkpt lat="45.87997300298071" lon="9.440327936936873"><ele>909.0</ele><time>2026-04-09T08:55:28Z</time></trkpt><trkpt lat="45.87990594036284" lon="9.440387460467141"><ele>909.0</ele><time>2026-04-09T08:55:29Z</time></trkpt><trkpt lat="45.879835288959654" lon="9.440419060249837"><ele>909.0</ele><time>2026-04-09T08:55:30Z</time></trkpt><trkpt lat="45.87976350950161" lon="9.4404261033992"><ele>905.5</ele><time>2026-04-09T08:55:31Z</time></trkpt><trkpt lat="45.87969541665956" lon="9.440411141203077"><ele>902.0</ele><time>2026-04-09T08:55:32Z</time></trkpt><trkpt lat="45.8796401211659" lon="9.440350169998428"><ele>898.5</ele><time>2026-04-09T08:55:33Z</time></trkpt><trkpt lat="45.879528918868395" lon="9.44033988525736"><ele>895.0</ele><time>2026-04-09T08:55:35Z</time></trkpt><trkpt lat="45.87949394004219" lon="9.44041651807306"><ele>891.5</ele><time>2026-04-09T08:55:37Z</time></trkpt><trkpt lat="45.879577430636935" lon="9.440518051875188"><ele>888.0</ele><time>2026-04-09T08:55:39Z</time></trkpt><trkpt lat="45.87965956694165" lon="9.440538138337736"><ele>892.2</ele><time>2026-04-09T08:55:40Z</time></trkpt><trkpt lat="45.87974888101908" lon="9.440560360275997"><ele>896.4</ele><time>2026-04-09T08:55:41Z</time></trkpt><trkpt lat="45.87984727088323" lon="9.440578455803113"><ele>900.6000000000001</ele><time>2026-04-09T08:55:42Z</time></trkpt><trkpt lat="45.87994938792498" lon="9.440559981687512"><ele>904.8000000000001</ele><time>2026-04-09T08:55:43Z</time></trkpt><trkpt lat="45.88005109101786" lon="9.440498669331516"><ele>909.0</ele><time>2026-04-09T08:55:44Z</time></trkpt><trkpt lat="45.880143549936584" lon="9.440435074205022"><ele>909.0</ele><time>2026-04-09T08:55:45Z</time></trkpt><trkpt lat="45.880220375430504" lon="9.44038884090004"><ele>909.0</ele><time>2026-04-09T08:55:46Z</time></trkpt><trkpt lat="45.88028065825531" lon="9.440353020174461"><ele>909.0</ele><time>2026-04-09T08:55:47Z</time></trkpt><trkpt lat="45.880350817298364" lon="9.440289139563777"><ele>909.0</ele><time>2026-04-09T08:55:49Z</time></trkpt><trkpt lat="45.880386277615926" lon="9.440367553111368"><ele>909.0</ele><time>2026-04-09T08:55:51Z</time></trkpt><trkpt lat="45.88025736015226" lon="9.440413278757616"><ele>909.0</ele><time>2026-04-09T08:55:53Z</time></trkpt><trkpt lat="45.88019493302225" lon="9.440450551005009"><ele>913.6666666666666</ele><time>2026-04-09T08:55:54Z</time></trkpt><trkpt lat="45.88012908121163" lon="9.440544944979905"><ele>918.3333333333333</ele><time>2026-04-09T08:55:55Z</time></trkpt><trkpt lat="45.88004897433371" lon="9.44062913677642"><ele>923.0</ele><time>2026-04-09T08:55:56Z</time></trkpt><trkpt lat="45.87996837228738" lon="9.440714834105117"><ele>927.6666666666666</ele><time>2026-04-09T08:55:57Z</time></trkpt><trkpt lat="45.8799020909888" lon="9.44076975380852"><ele>932.3333333333333</ele><time>2026-04-09T08:55:58Z</time></trkpt><trkpt lat="45.87983460790915" lon="9.440800303968606"><ele>937.0</ele><time>2026-04-09T08:55:59Z</time></trkpt><trkpt lat="45.87975978698107" lon="9.440759851533818"><ele>936.9999999999999</ele><time>2026-04-09T08:56:00Z</time></trkpt><trkpt lat="45.879695005732984" lon="9.440706129794188"><ele>937.0</ele><time>2026-04-09T08:56:01Z</time></trkpt><trkpt lat="45.87960062083725" lon="9.440678571947007"><ele>937.0</ele><time>2026-04-09T08:56:02Z</time></trkpt><trkpt lat="45.879513666255875" lon="9.44063657377972"><ele>937.0</ele><time>2026-04-09T08:56:03Z</time></trkpt><trkpt lat="45.87941900375653" lon="9.440626670738238"><ele>936.9999999999999</ele><time>2026-04-09T08:56:04Z</time></trkpt><trkpt lat="45.879343270818694" lon="9.440627869955653"><ele>937.0</ele><time>2026-04-09T08:56:05Z</time></trkpt><trkpt lat="45.87923278174126" lon="9.44069914697406"><ele>937.0</ele><time>2026-04-09T08:56:07Z</time></trkpt><trkpt lat="45.87919940156388" lon="9.440870679909807"><ele>937.0</ele><time>2026-04-09T08:56:09Z</time></trkpt><trkpt lat="45.879290288412" lon="9.441012878326287"><ele>937.0</ele><time>2026-04-09T08:56:11Z</time></trkpt><trkpt lat="45.87937162860457" lon="9.441079559996696"><ele>937.0</ele><time>2026-04-09T08:56:12Z</time></trkpt><trkpt lat="45.87946017684149" lon="9.441168036263875"><ele>937.0</ele><time>2026-04-09T08:56:13Z</time></trkpt><trkpt lat="45.87955565356721" lon="9.44126238160806"><ele>937.0</ele><time>2026-04-09T08:56:14Z</time></trkpt><trkpt lat="45.87964667047423" lon="9.441330429470478"><ele>937.0</ele><time>2026-04-09T08:56:15Z</time></trkpt><trkpt lat="45.87973307204678" lon="9.441363874730003"><ele>937.0</ele><time>2026-04-09T08:56:16Z</time></trkpt><trkpt lat="45.87980681342925" lon="9.441421034594512"><ele>937.0</ele><time>2026-04-09T08:56:17Z</time></trkpt><trkpt lat="45.87986706272753" lon="9.44148935247929"><ele>933.0</ele><time>2026-04-09T08:56:18Z</time></trkpt><trkpt lat="45.879910541290116" lon="9.441582787160714"><ele>929.0</ele><time>2026-04-09T08:56:19Z</time></trkpt><trkpt lat="45.879930310442816" lon="9.441694024919215"><ele>925.0</ele><time>2026-04-09T08:56:20Z</time></trkpt><trkpt lat="45.87995437735539" lon="9.441833271906074"><ele>921.0</ele><time>2026-04-09T08:56:21Z</time></trkpt><trkpt lat="45.87998262514386" lon="9.441991806588465"><ele>917.0</ele><time>2026-04-09T08:56:22Z</time></trkpt><trkpt lat="45.880010664922324" lon="9.44215067502136"><ele>914.0</ele><time>2026-04-09T08:56:23Z</time></trkpt><trkpt lat="45.88000876392573" lon="9.44228516664196"><ele>911.0</ele><time>2026-04-09T08:56:24Z</time></trkpt><trkpt lat="45.88003598794896" lon="9.442436677885677"><ele>908.0</ele><time>2026-04-09T08:56:25Z</time></trkpt><trkpt lat="45.880069907796575" lon="9.442583835378446"><ele>905.0</ele><time>2026-04-09T08:56:26Z</time></trkpt><trkpt lat="45.88008538067982" lon="9.442713744502836"><ele>902.0</ele><time>2026-04-09T08:56:27Z</time></trkpt><trkpt lat="45.88010767501272" lon="9.442835873145741"><ele>910.4000000000001</ele><time>2026-04-09T08:56:28Z</time></trkpt><trkpt lat="45.880139794921114" lon="9.442946756268118"><ele>918.8000000000001</ele><time>2026-04-09T08:56:29Z</time></trkpt><trkpt lat="45.8801749331837" lon="9.443067929374866"><ele>927.2</ele><time>2026-04-09T08:56:30Z</time></trkpt><trkpt lat="45.88025165581139" lon="9.443147446532258"><ele>935.6</ele><time>2026-04-09T08:56:31Z</time></trkpt><trkpt lat="45.88033651397873" lon="9.4432216640014"><ele>944.0</ele><time>2026-04-09T08:56:32Z</time></trkpt><trkpt lat="45.880441215225844" lon="9.443301388742434"><ele>944.0</ele><time>2026-04-09T08:56:33Z</time></trkpt><trkpt lat="45.880540787851565" lon="9.443388839820862"><ele>944.0</ele><time>2026-04-09T08:56:34Z</time></trkpt><trkpt lat="45.88060287650188" lon="9.443531953212723"><ele>944.0</ele><time>2026-04-09T08:56:35Z</time></trkpt><trkpt lat="45.88067180069621" lon="9.443674376606516"><ele>944.0</ele><time>2026-04-09T08:56:36Z</time></trkpt><trkpt lat="45.88073550822417" lon="9.443812732045993"><ele>939.0</ele><time>2026-04-09T08:56:37Z</time></trkpt><trkpt lat="45.88079205256582" lon="9.443928138639826"><ele>934.0000000000001</ele><time>2026-04-09T08:56:38Z</time></trkpt><trkpt lat="45.88087159764907" lon="9.444006836374331"><ele>929.0000000000001</ele><time>2026-04-09T08:56:39Z</time></trkpt><trkpt lat="45.880961163460924" lon="9.444074624737723"><ele>924.0</ele><time>2026-04-09T08:56:40Z</time></trkpt><trkpt lat="45.8810523479499" lon="9.444142017779628"><ele>919.0</ele><time>2026-04-09T08:56:41Z</time></trkpt><trkpt lat="45.881145437138365" lon="9.444214491410998"><ele>924.6666666666666</ele><time>2026-04-09T08:56:42Z</time></trkpt><trkpt lat="45.88122053810414" lon="9.444314476315657"><ele>930.3333333333333</ele><time>2026-04-09T08:56:43Z</time></trkpt><trkpt lat="45.88127905449777" lon="9.444418020832643"><ele>936.0</ele><time>2026-04-09T08:56:44Z</time></trkpt><trkpt lat="45.88131651074021" lon="9.444509990835039"><ele>941.6666666666667</ele><time>2026-04-09T08:56:45Z</time></trkpt><trkpt lat="45.88133611164546" lon="9.444635153285752"><ele>947.3333333333334</ele><time>2026-04-09T08:56:46Z</time></trkpt><trkpt lat="45.88133129108899" lon="9.44475884799014"><ele>953.0</ele><time>2026-04-09T08:56:47Z</time></trkpt><trkpt lat="45.8813129014426" lon="9.444900797208533"><ele>953.0000000000001</ele><time>2026-04-09T08:56:48Z</time></trkpt><trkpt lat="45.8813067938887" lon="9.445018145154902"><ele>953.0</ele><time>2026-04-09T08:56:49Z</time></trkpt><trkpt lat="45.88131941109753" lon="9.445122041823602"><ele>953.0</ele><time>2026-04-09T08:56:50Z</time></trkpt><trkpt lat="45.88135693921197" lon="9.445230819895341"><ele>953.0</ele><time>2026-04-09T08:56:51Z</time></trkpt><trkpt lat="45.88141571122065" lon="9.445335020445233"><ele>953.0000000000001</ele><time>2026-04-09T08:56:52Z</time></trkpt><trkpt lat="45.881495205269225" lon="9.445447517108354"><ele>953.0</ele><time>2026-04-09T08:56:53Z</time></trkpt><trkpt lat="45.881567224340415" lon="9.445555804286512"><ele>955.3333333333334</ele><time>2026-04-09T08:56:54Z</time></trkpt><trkpt lat="45.881638318296886" lon="9.445668835402534"><ele>957.6666666666667</ele><time>2026-04-09T08:56:55Z</time></trkpt><trkpt lat="45.88169072676412" lon="9.445777307485658"><ele>960.0</ele><time>2026-04-09T08:56:56Z</time></trkpt><trkpt lat="45.88173062171793" lon="9.445861114387363"><ele>962.3333333333333</ele><time>2026-04-09T08:56:57Z</time></trkpt><trkpt lat="45.8817619719588" lon="9.445949777061884"><ele>964.6666666666666</ele><time>2026-04-09T08:56:58Z</time></trkpt><trkpt lat="45.88182473408324" lon="9.446015935310266"><ele>967.0</ele><time>2026-04-09T08:56:59Z</time></trkpt><trkpt lat="45.88192352190711" lon="9.446027006588611"><ele>967.0</ele><time>2026-04-09T08:57:00Z</time></trkpt><trkpt lat="45.88200839227771" lon="9.446046256149007"><ele>967.0</ele><time>2026-04-09T08:57:01Z</time></trkpt><trkpt lat="45.88209914722665" lon="9.446093365578802"><ele>967.0</ele><time>2026-04-09T08:57:02Z</time></trkpt><trkpt lat="45.882196396435695" lon="9.446107968116157"><ele>967.0</ele><time>2026-04-09T08:57:03Z</time></trkpt><trkpt lat="45.88230199867359" lon="9.446093987521536"><ele>967.0</ele><time>2026-04-09T08:57:04Z</time></trkpt><trkpt lat="45.88238627476042" lon="9.44606839137064"><ele>967.0</ele><time>2026-04-09T08:57:05Z</time></trkpt><trkpt lat="45.882461538254674" lon="9.446057564744326"><ele>967.0</ele><time>2026-04-09T08:57:06Z</time></trkpt><trkpt lat="45.88252845217928" lon="9.446075727508807"><ele>967.0</ele><time>2026-04-09T08:57:07Z</time></trkpt><trkpt lat="45.88262591104814" lon="9.446084233557182"><ele>967.0</ele><time>2026-04-09T08:57:09Z</time></trkpt><trkpt lat="45.882654051210714" lon="9.446488137928672"><ele>970.8333333333333</ele><time>2026-04-09T08:57:12Z</time></trkpt><trkpt lat="45.882684332420375" lon="9.446598061244504"><ele>974.6666666666666</ele><time>2026-04-09T08:57:13Z</time></trkpt><trkpt lat="45.88272815762158" lon="9.446688482162386"><ele>978.5</ele><time>2026-04-09T08:57:14Z</time></trkpt><trkpt lat="45.88279682424447" lon="9.446763049242934"><ele>982.3333333333333</ele><time>2026-04-09T08:57:15Z</time></trkpt><trkpt lat="45.882886100319034" lon="9.446816959754932"><ele>986.1666666666666</ele><time>2026-04-09T08:57:16Z</time></trkpt><trkpt lat="45.882950330684885" lon="9.446875471284201"><ele>990.0</ele><time>2026-04-09T08:57:17Z</time></trkpt><trkpt lat="45.883001145185055" lon="9.446960034467267"><ele>990.0</ele><time>2026-04-09T08:57:18Z</time></trkpt><trkpt lat="45.88301737741265" lon="9.447056603702784"><ele>990.0</ele><time>2026-04-09T08:57:19Z</time></trkpt><trkpt lat="45.88305276711185" lon="9.44718409692497"><ele>990.0</ele><time>2026-04-09T08:57:20Z</time></trkpt><trkpt lat="45.883120441178576" lon="9.447302794089483"><ele>990.0</ele><time>2026-04-09T08:57:21Z</time></trkpt><trkpt lat="45.88319863144814" lon="9.447423875851605"><ele>990.0</ele><time>2026-04-09T08:57:22Z</time></trkpt><trkpt lat="45.88326449390022" lon="9.447572165164555"><ele>989.6</ele><time>2026-04-09T08:57:23Z</time></trkpt><trkpt lat="45.883320610462945" lon="9.44772290263525"><ele>989.2</ele><time>2026-04-09T08:57:24Z</time></trkpt><trkpt lat="45.883381381467046" lon="9.447848602197986"><ele>988.8</ele><time>2026-04-09T08:57:25Z</time></trkpt><trkpt lat="45.883447262941594" lon="9.447963264134938"><ele>988.4</ele><time>2026-04-09T08:57:26Z</time></trkpt><trkpt lat="45.88352053105558" lon="9.448053467333136"><ele>988.0</ele><time>2026-04-09T08:57:27Z</time></trkpt><trkpt lat="45.88359437288422" lon="9.44813017540413"><ele>987.9999999999999</ele><time>2026-04-09T08:57:28Z</time></trkpt><trkpt lat="45.88364913585615" lon="9.448215525518966"><ele>988.0</ele><time>2026-04-09T08:57:29Z</time></trkpt><trkpt lat="45.88367500607752" lon="9.448313363384303"><ele>988.0</ele><time>2026-04-09T08:57:30Z</time></trkpt><trkpt lat="45.8836544934986" lon="9.448428738000707"><ele>988.0</ele><time>2026-04-09T08:57:31Z</time></trkpt><trkpt lat="45.883616845598546" lon="9.448522120788253"><ele>987.9999999999999</ele><time>2026-04-09T08:57:32Z</time></trkpt><trkpt lat="45.88356185382432" lon="9.448601081479454"><ele>988.0</ele><time>2026-04-09T08:57:33Z</time></trkpt><trkpt lat="45.88350034615218" lon="9.448659547514387"><ele>988.0</ele><time>2026-04-09T08:57:34Z</time></trkpt><trkpt lat="45.88344468033549" lon="9.448708818477026"><ele>988.0</ele><time>2026-04-09T08:57:35Z</time></trkpt><trkpt lat="45.88335939146736" lon="9.44879951922445"><ele>988.0</ele><time>2026-04-09T08:57:37Z</time></trkpt><trkpt lat="45.88328371308427" lon="9.448915965260658"><ele>988.0</ele><time>2026-04-09T08:57:39Z</time></trkpt><trkpt lat="45.88322259293247" lon="9.449059792881451"><ele>988.0</ele><time>2026-04-09T08:57:41Z</time></trkpt><trkpt lat="45.883177646406196" lon="9.449196824964924"><ele>980.6666666666666</ele><time>2026-04-09T08:57:43Z</time></trkpt><trkpt lat="45.88318176960498" lon="9.449364472288"><ele>973.3333333333333</ele><time>2026-04-09T08:57:45Z</time></trkpt><trkpt lat="45.88320763986357" lon="9.449479407885178"><ele>966.0</ele><time>2026-04-09T08:57:46Z</time></trkpt><trkpt lat="45.883221942805235" lon="9.449603020682652"><ele>958.6666666666667</ele><time>2026-04-09T08:57:47Z</time></trkpt><trkpt lat="45.88322975537922" lon="9.449707211105311"><ele>951.3333333333334</ele><time>2026-04-09T08:57:48Z</time></trkpt><trkpt lat="45.88325792001161" lon="9.449800766486371"><ele>944.0</ele><time>2026-04-09T08:57:49Z</time></trkpt><trkpt lat="45.88330247665843" lon="9.449883298714452"><ele>943.2</ele><time>2026-04-09T08:57:50Z</time></trkpt><trkpt lat="45.88336240919249" lon="9.449954092624978"><ele>942.4000000000001</ele><time>2026-04-09T08:57:51Z</time></trkpt><trkpt lat="45.883441202134186" lon="9.450017750870256"><ele>941.6</ele><time>2026-04-09T08:57:52Z</time></trkpt><trkpt lat="45.88352663500334" lon="9.450090148284241"><ele>940.8</ele><time>2026-04-09T08:57:53Z</time></trkpt><trkpt lat="45.88361924670956" lon="9.450215404062044"><ele>940.0</ele><time>2026-04-09T08:57:54Z</time></trkpt><trkpt lat="45.88371382458113" lon="9.450338279853224"><ele>947.0</ele><time>2026-04-09T08:57:55Z</time></trkpt><trkpt lat="45.883804306534365" lon="9.45046136975134"><ele>954.0</ele><time>2026-04-09T08:57:56Z</time></trkpt><trkpt lat="45.88390130484887" lon="9.450588005365724"><ele>961.0</ele><time>2026-04-09T08:57:57Z</time></trkpt><trkpt lat="45.88398550248856" lon="9.450732067041965"><ele>968.0</ele><time>2026-04-09T08:57:58Z</time></trkpt><trkpt lat="45.8840600969957" lon="9.450888451001871"><ele>968.0</ele><time>2026-04-09T08:57:59Z</time></trkpt><trkpt lat="45.884122269081736" lon="9.451035803075065"><ele>968.0</ele><time>2026-04-09T08:58:00Z</time></trkpt><trkpt lat="45.884185554123235" lon="9.451169696185774"><ele>968.0</ele><time>2026-04-09T08:58:01Z</time></trkpt><trkpt lat="45.88424228016013" lon="9.451273137751162"><ele>968.0</ele><time>2026-04-09T08:58:02Z</time></trkpt><trkpt lat="45.88428785490253" lon="9.451389022564927"><ele>968.0</ele><time>2026-04-09T08:58:03Z</time></trkpt><trkpt lat="45.88429433850683" lon="9.45151668416693"><ele>971.6666666666667</ele><time>2026-04-09T08:58:04Z</time></trkpt><trkpt lat="45.884296711482094" lon="9.451639225480351"><ele>975.3333333333334</ele><time>2026-04-09T08:58:05Z</time></trkpt><trkpt lat="45.88431514291864" lon="9.45175244748694"><ele>979.0</ele><time>2026-04-09T08:58:06Z</time></trkpt><trkpt lat="45.884362386067984" lon="9.45183697090102"><ele>982.6666666666667</ele><time>2026-04-09T08:58:07Z</time></trkpt><trkpt lat="45.88443200211512" lon="9.451917965296184"><ele>986.3333333333334</ele><time>2026-04-09T08:58:08Z</time></trkpt><trkpt lat="45.884522396002055" lon="9.451985495607273"><ele>990.0</ele><time>2026-04-09T08:58:09Z</time></trkpt><trkpt lat="45.884604527690755" lon="9.452047829444929"><ele>982.2</ele><time>2026-04-09T08:58:10Z</time></trkpt><trkpt lat="45.884669194912725" lon="9.452145297725151"><ele>974.4</ele><time>2026-04-09T08:58:11Z</time></trkpt><trkpt lat="45.88473577318333" lon="9.452232575429136"><ele>966.5999999999999</ele><time>2026-04-09T08:58:12Z</time></trkpt><trkpt lat="45.884824531622066" lon="9.452297031355622"><ele>958.8</ele><time>2026-04-09T08:58:13Z</time></trkpt><trkpt lat="45.884914894516996" lon="9.452344853886876"><ele>951.0</ele><time>2026-04-09T08:58:14Z</time></trkpt><trkpt lat="45.88500589916833" lon="9.452371325639618"><ele>952.5</ele><time>2026-04-09T08:58:15Z</time></trkpt><trkpt lat="45.88511190686371" lon="9.452358904679567"><ele>954.0</ele><time>2026-04-09T08:58:16Z</time></trkpt><trkpt lat="45.885221487443346" lon="9.452322024375018"><ele>955.5</ele><time>2026-04-09T08:58:17Z</time></trkpt><trkpt lat="45.8853456209262" lon="9.452284795032904"><ele>957.0</ele><time>2026-04-09T08:58:18Z</time></trkpt><trkpt lat="45.88547109538572" lon="9.452249304153783"><ele>957.0</ele><time>2026-04-09T08:58:19Z</time></trkpt><trkpt lat="45.88559752477259" lon="9.45221974137472"><ele>957.0</ele><time>2026-04-09T08:58:20Z</time></trkpt><trkpt lat="45.885720663127124" lon="9.45219010274715"><ele>957.0</ele><time>2026-04-09T08:58:21Z</time></trkpt><trkpt lat="45.885841382163015" lon="9.452155194460131"><ele>957.0</ele><time>2026-04-09T08:58:22Z</time></trkpt><trkpt lat="45.88594997245419" lon="9.45210857142147"><ele>965.6</ele><time>2026-04-09T08:58:23Z</time></trkpt><trkpt lat="45.88605312192249" lon="9.452044915665413"><ele>974.2</ele><time>2026-04-09T08:58:24Z</time></trkpt><trkpt lat="45.88613680839253" lon="9.452028690637983"><ele>982.8</ele><time>2026-04-09T08:58:25Z</time></trkpt><trkpt lat="45.88622500593508" lon="9.452022962552865"><ele>991.4</ele><time>2026-04-09T08:58:26Z</time></trkpt><trkpt lat="45.88630579128609" lon="9.452047495484436"><ele>1000.0</ele><time>2026-04-09T08:58:27Z</time></trkpt><trkpt lat="45.88639695119706" lon="9.452115418802839"><ele>1001.8</ele><time>2026-04-09T08:58:28Z</time></trkpt><trkpt lat="45.88648616341842" lon="9.452151107461345"><ele>1003.6</ele><time>2026-04-09T08:58:29Z</time></trkpt><trkpt lat="45.88659993932929" lon="9.452178259438389"><ele>1005.4000000000001</ele><time>2026-04-09T08:58:30Z</time></trkpt><trkpt lat="45.886701519047676" lon="9.452184342210892"><ele>1007.2</ele><time>2026-04-09T08:58:31Z</time></trkpt><trkpt lat="45.88680130016806" lon="9.45220329248237"><ele>1009.0</ele><time>2026-04-09T08:58:32Z</time></trkpt><trkpt lat="45.886865194821354" lon="9.452236109955937"><ele>1008.9999999999999</ele><time>2026-04-09T08:58:33Z</time></trkpt><trkpt lat="45.88693416627386" lon="9.452286226654326"><ele>1009.0</ele><time>2026-04-09T08:58:34Z</time></trkpt><trkpt lat="45.886976738278264" lon="9.452388798189322"><ele>1009.0</ele><time>2026-04-09T08:58:35Z</time></trkpt><trkpt lat="45.886996928275934" lon="9.452501729337587"><ele>1009.0</ele><time>2026-04-09T08:58:36Z</time></trkpt><trkpt lat="45.88700114387639" lon="9.4526134042131"><ele>1008.9999999999999</ele><time>2026-04-09T08:58:37Z</time></trkpt><trkpt lat="45.886987969998955" lon="9.452703890493694"><ele>1009.0</ele><time>2026-04-09T08:58:38Z</time></trkpt><trkpt lat="45.88693986242154" lon="9.452794162523642"><ele>1009.0</ele><time>2026-04-09T08:58:39Z</time></trkpt><trkpt lat="45.88686118045686" lon="9.452849754956784"><ele>1009.0000000000001</ele><time>2026-04-09T08:58:40Z</time></trkpt><trkpt lat="45.88678770070553" lon="9.452910763287766"><ele>1009.0000000000001</ele><time>2026-04-09T08:58:41Z</time></trkpt><trkpt lat="45.886715975928055" lon="9.453008885190863"><ele>1009.0</ele><time>2026-04-09T08:58:42Z</time></trkpt><trkpt lat="45.886643938944395" lon="9.453114764249202"><ele>1009.0</ele><time>2026-04-09T08:58:43Z</time></trkpt><trkpt lat="45.88658618327392" lon="9.453206913602257"><ele>1007.0</ele><time>2026-04-09T08:58:44Z</time></trkpt><trkpt lat="45.88654254934736" lon="9.453301468134205"><ele>1005.0000000000001</ele><time>2026-04-09T08:58:45Z</time></trkpt><trkpt lat="45.88652174533354" lon="9.453423700730347"><ele>1003.0000000000001</ele><time>2026-04-09T08:58:46Z</time></trkpt><trkpt lat="45.886516946049184" lon="9.453576735372982"><ele>1001.0</ele><time>2026-04-09T08:58:47Z</time></trkpt><trkpt lat="45.8865010268219" lon="9.453734101489994"><ele>999.0</ele><time>2026-04-09T08:58:48Z</time></trkpt><trkpt lat="45.886493180797885" lon="9.45390006877225"><ele>999.0</ele><time>2026-04-09T08:58:49Z</time></trkpt><trkpt lat="45.88649738562407" lon="9.454062561031716"><ele>999.0000000000001</ele><time>2026-04-09T08:58:50Z</time></trkpt><trkpt lat="45.88650781831377" lon="9.454224567004617"><ele>999.0000000000001</ele><time>2026-04-09T08:58:51Z</time></trkpt><trkpt lat="45.88650600477123" lon="9.45437276082278"><ele>999.0</ele><time>2026-04-09T08:58:52Z</time></trkpt><trkpt lat="45.88647569370619" lon="9.454509069928845"><ele>999.0</ele><time>2026-04-09T08:58:53Z</time></trkpt><trkpt lat="45.88644512954948" lon="9.454633676086972"><ele>1000.5</ele><time>2026-04-09T08:58:54Z</time></trkpt><trkpt lat="45.88639102463979" lon="9.454726391142094"><ele>1002.0</ele><time>2026-04-09T08:58:55Z</time></trkpt><trkpt lat="45.88631948326222" lon="9.454783773893109"><ele>1003.5</ele><time>2026-04-09T08:58:56Z</time></trkpt><trkpt lat="45.88624013995834" lon="9.454830961482775"><ele>1005.0</ele><time>2026-04-09T08:58:57Z</time></trkpt><trkpt lat="45.88617295927121" lon="9.454887348523648"><ele>1006.5</ele><time>2026-04-09T08:58:58Z</time></trkpt><trkpt lat="45.88612788316979" lon="9.454961282931317"><ele>1008.0</ele><time>2026-04-09T08:58:59Z</time></trkpt><trkpt lat="45.886110219685236" lon="9.455126469439284"><ele>1008.0</ele><time>2026-04-09T08:59:01Z</time></trkpt><trkpt lat="45.886144800598494" lon="9.455224677807177"><ele>1008.0</ele><time>2026-04-09T08:59:02Z</time></trkpt><trkpt lat="45.88620169609078" lon="9.455336557206188"><ele>1008.0</ele><time>2026-04-09T08:59:03Z</time></trkpt><trkpt lat="45.886243893322536" lon="9.455450580670101"><ele>1008.0</ele><time>2026-04-09T08:59:04Z</time></trkpt><trkpt lat="45.88626063344499" lon="9.455552349751823"><ele>1008.0</ele><time>2026-04-09T08:59:05.001Z</time></trkpt><trkpt lat="45.88626014493396" lon="9.455660146030562"><ele>1008.0</ele><time>2026-04-09T08:59:06.001Z</time></trkpt><trkpt lat="45.88626460411114" lon="9.45576754112087"><ele>1006.5</ele><time>2026-04-09T08:59:07.001Z</time></trkpt><trkpt lat="45.886297531614005" lon="9.455864676467165"><ele>1005.0</ele><time>2026-04-09T08:59:08.001Z</time></trkpt><trkpt lat="45.886356690688544" lon="9.455942096916166"><ele>1003.5</ele><time>2026-04-09T08:59:09.001Z</time></trkpt><trkpt lat="45.88642856376217" lon="9.455981016655278"><ele>1002.0</ele><time>2026-04-09T08:59:10.001Z</time></trkpt><trkpt lat="45.886529427966266" lon="9.45599090355217"><ele>1000.5</ele><time>2026-04-09T08:59:11.001Z</time></trkpt><trkpt lat="45.88664446684036" lon="9.455985462752912"><ele>999.0</ele><time>2026-04-09T08:59:12.001Z</time></trkpt><trkpt lat="45.88678056274583" lon="9.455969596416576"><ele>1005.25</ele><time>2026-04-09T08:59:13Z</time></trkpt><trkpt lat="45.88691847704127" lon="9.455960235469322"><ele>1011.5</ele><time>2026-04-09T08:59:14Z</time></trkpt><trkpt lat="45.88704495727262" lon="9.45594549053417"><ele>1017.75</ele><time>2026-04-09T08:59:15Z</time></trkpt><trkpt lat="45.88715798069634" lon="9.45593120991828"><ele>1024.0</ele><time>2026-04-09T08:59:16Z</time></trkpt><trkpt lat="45.88727683651946" lon="9.455919903992958"><ele>1024.0</ele><time>2026-04-09T08:59:17Z</time></trkpt><trkpt lat="45.88739590115349" lon="9.455936648522458"><ele>1024.0</ele><time>2026-04-09T08:59:18Z</time></trkpt><trkpt lat="45.88750979733114" lon="9.455974258623476"><ele>1024.0</ele><time>2026-04-09T08:59:19Z</time></trkpt><trkpt lat="45.88760540265127" lon="9.456025211881729"><ele>1024.0</ele><time>2026-04-09T08:59:20Z</time></trkpt><trkpt lat="45.88768650236404" lon="9.456096660198066"><ele>1024.0</ele><time>2026-04-09T08:59:21Z</time></trkpt><trkpt lat="45.8877485981829" lon="9.456193893147542"><ele>1020.8000000000001</ele><time>2026-04-09T08:59:22Z</time></trkpt><trkpt lat="45.887787402389314" lon="9.456303393666149"><ele>1017.6000000000001</ele><time>2026-04-09T08:59:23Z</time></trkpt><trkpt lat="45.887843740458166" lon="9.45637679623666"><ele>1014.4</ele><time>2026-04-09T08:59:24Z</time></trkpt><trkpt lat="45.887930124552945" lon="9.456434594037134"><ele>1011.2</ele><time>2026-04-09T08:59:25Z</time></trkpt><trkpt lat="45.88802905306128" lon="9.456498763878809"><ele>1008.0</ele><time>2026-04-09T08:59:26Z</time></trkpt><trkpt lat="45.888107962130675" lon="9.456567349036815"><ele>1008.0</ele><time>2026-04-09T08:59:27Z</time></trkpt><trkpt lat="45.888174032779425" lon="9.45663096925271"><ele>1008.0</ele><time>2026-04-09T08:59:28Z</time></trkpt><trkpt lat="45.888236262651446" lon="9.456665433257589"><ele>1008.0</ele><time>2026-04-09T08:59:29Z</time></trkpt><trkpt lat="45.88835268147336" lon="9.456595518602741"><ele>1008.0</ele><time>2026-04-09T08:59:31Z</time></trkpt><trkpt lat="45.88840683979976" lon="9.456514265634212"><ele>1008.0</ele><time>2026-04-09T08:59:32Z</time></trkpt><trkpt lat="45.888485421474506" lon="9.45647400219421"><ele>1008.0</ele><time>2026-04-09T08:59:33Z</time></trkpt><trkpt lat="45.88858454004843" lon="9.456464564876446"><ele>1013.1666666666666</ele><time>2026-04-09T08:59:34Z</time></trkpt><trkpt lat="45.88868301502716" lon="9.456492614542961"><ele>1018.3333333333333</ele><time>2026-04-09T08:59:35Z</time></trkpt><trkpt lat="45.8887576726456" lon="9.456538369789984"><ele>1023.5</ele><time>2026-04-09T08:59:36Z</time></trkpt><trkpt lat="45.888814341937945" lon="9.456594456857545"><ele>1028.6666666666665</ele><time>2026-04-09T08:59:37Z</time></trkpt><trkpt lat="45.88885997166543" lon="9.456686183244328"><ele>1033.8333333333333</ele><time>2026-04-09T08:59:38Z</time></trkpt><trkpt lat="45.88888035280719" lon="9.456794828519477"><ele>1039.0</ele><time>2026-04-09T08:59:39Z</time></trkpt><trkpt lat="45.88890480980682" lon="9.456908454347667"><ele>1039.0</ele><time>2026-04-09T08:59:40Z</time></trkpt><trkpt lat="45.88894845409149" lon="9.457016809747307"><ele>1039.0</ele><time>2026-04-09T08:59:41Z</time></trkpt><trkpt lat="45.88899723784304" lon="9.457101285153694"><ele>1039.0</ele><time>2026-04-09T08:59:42Z</time></trkpt><trkpt lat="45.889063577010965" lon="9.457153671069939"><ele>1039.0</ele><time>2026-04-09T08:59:43Z</time></trkpt><trkpt lat="45.8891361995791" lon="9.457149235886792"><ele>1039.0</ele><time>2026-04-09T08:59:44Z</time></trkpt><trkpt lat="45.88922073074903" lon="9.457115844335815"><ele>1039.0</ele><time>2026-04-09T08:59:45Z</time></trkpt><trkpt lat="45.88930614220805" lon="9.457115947645695"><ele>1035.8</ele><time>2026-04-09T08:59:46Z</time></trkpt><trkpt lat="45.889397937353316" lon="9.457165760823873"><ele>1032.6000000000001</ele><time>2026-04-09T08:59:47Z</time></trkpt><trkpt lat="45.88949862383578" lon="9.457249081899217"><ele>1029.4</ele><time>2026-04-09T08:59:48Z</time></trkpt><trkpt lat="45.889589089614645" lon="9.457333812657167"><ele>1026.2</ele><time>2026-04-09T08:59:49Z</time></trkpt><trkpt lat="45.8896815163899" lon="9.457397499946891"><ele>1023.0</ele><time>2026-04-09T08:59:50Z</time></trkpt><trkpt lat="45.889781900141486" lon="9.457426743976434"><ele>1023.0</ele><time>2026-04-09T08:59:51Z</time></trkpt><trkpt lat="45.88989055201478" lon="9.45740938575902"><ele>1023.0</ele><time>2026-04-09T08:59:52Z</time></trkpt><trkpt lat="45.890004934166505" lon="9.457368168002029"><ele>1023.0</ele><time>2026-04-09T08:59:53Z</time></trkpt><trkpt lat="45.89011748374414" lon="9.457348524551668"><ele>1023.0</ele><time>2026-04-09T08:59:54Z</time></trkpt><trkpt lat="45.890230354826755" lon="9.457344287249262"><ele>1023.5999999999999</ele><time>2026-04-09T08:59:55Z</time></trkpt><trkpt lat="45.89032691835097" lon="9.457313748158066"><ele>1024.1999999999998</ele><time>2026-04-09T08:59:56Z</time></trkpt><trkpt lat="45.890401668071334" lon="9.457258657411405"><ele>1024.8</ele><time>2026-04-09T08:59:57Z</time></trkpt><trkpt lat="45.89046132086284" lon="9.45717462626405"><ele>1025.3999999999999</ele><time>2026-04-09T08:59:58Z</time></trkpt><trkpt lat="45.89051589754291" lon="9.457058070096972"><ele>1026.0</ele><time>2026-04-09T08:59:59Z</time></trkpt><trkpt lat="45.89057368976415" lon="9.45693199823887"><ele>1028.2</ele><time>2026-04-09T09:00:00Z</time></trkpt><trkpt lat="45.89063308468075" lon="9.45680294590829"><ele>1030.3999999999999</ele><time>2026-04-09T09:00:01Z</time></trkpt><trkpt lat="45.89068192518986" lon="9.456684109787485"><ele>1032.6</ele><time>2026-04-09T09:00:02Z</time></trkpt><trkpt lat="45.890729688538116" lon="9.456569377115683"><ele>1034.8</ele><time>2026-04-09T09:00:03Z</time></trkpt><trkpt lat="45.890764847441574" lon="9.456449207833339"><ele>1037.0</ele><time>2026-04-09T09:00:04Z</time></trkpt><trkpt lat="45.890799214419445" lon="9.456334235673605"><ele>1041.0</ele><time>2026-04-09T09:00:05Z</time></trkpt><trkpt lat="45.89085971563458" lon="9.456260556970822"><ele>1045.0</ele><time>2026-04-09T09:00:06Z</time></trkpt><trkpt lat="45.89092132242293" lon="9.45621908130324"><ele>1049.0</ele><time>2026-04-09T09:00:07Z</time></trkpt><trkpt lat="45.89101859617357" lon="9.456279376152343"><ele>1053.0</ele><time>2026-04-09T09:00:09Z</time></trkpt><trkpt lat="45.89105226717509" lon="9.456420550971783"><ele>1057.0</ele><time>2026-04-09T09:00:11Z</time></trkpt><trkpt lat="45.891030539214334" lon="9.456525105116192"><ele>1061.0</ele><time>2026-04-09T09:00:12Z</time></trkpt><trkpt lat="45.891011150603624" lon="9.45664612912815"><ele>1062.6</ele><time>2026-04-09T09:00:13Z</time></trkpt><trkpt lat="45.89100042435599" lon="9.456776715882468"><ele>1064.1999999999998</ele><time>2026-04-09T09:00:14Z</time></trkpt><trkpt lat="45.89098864375256" lon="9.45689903235542"><ele>1065.8000000000002</ele><time>2026-04-09T09:00:15Z</time></trkpt><trkpt lat="45.89098719454322" lon="9.457026809086084"><ele>1067.4</ele><time>2026-04-09T09:00:16Z</time></trkpt><trkpt lat="45.89100690262759" lon="9.457169928862129"><ele>1069.0</ele><time>2026-04-09T09:00:17Z</time></trkpt><trkpt lat="45.89105352046324" lon="9.457336083376159"><ele>1069.0</ele><time>2026-04-09T09:00:18Z</time></trkpt><trkpt lat="45.89109893407542" lon="9.457502721864282"><ele>1069.0</ele><time>2026-04-09T09:00:19Z</time></trkpt><trkpt lat="45.89113853054627" lon="9.457661666641753"><ele>1069.0</ele><time>2026-04-09T09:00:20Z</time></trkpt><trkpt lat="45.8911699494266" lon="9.457811593625886"><ele>1069.0</ele><time>2026-04-09T09:00:21Z</time></trkpt><trkpt lat="45.89119719847813" lon="9.457944595613146"><ele>1069.0</ele><time>2026-04-09T09:00:22Z</time></trkpt><trkpt lat="45.8912225084353" lon="9.458058666866528"><ele>1068.8333333333333</ele><time>2026-04-09T09:00:23Z</time></trkpt><trkpt lat="45.89124889720508" lon="9.458177686226291"><ele>1068.6666666666665</ele><time>2026-04-09T09:00:24Z</time></trkpt><trkpt lat="45.89125937841287" lon="9.458299076240618"><ele>1068.5</ele><time>2026-04-09T09:00:25Z</time></trkpt><trkpt lat="45.8912398560313" lon="9.45841318477813"><ele>1068.3333333333333</ele><time>2026-04-09T09:00:26Z</time></trkpt><trkpt lat="45.89119128345704" lon="9.458522990704045"><ele>1068.1666666666667</ele><time>2026-04-09T09:00:27Z</time></trkpt><trkpt lat="45.891127789135254" lon="9.458634420270162"><ele>1068.0</ele><time>2026-04-09T09:00:28Z</time></trkpt><trkpt lat="45.8910658472812" lon="9.458748460194467"><ele>1071.0</ele><time>2026-04-09T09:00:29Z</time></trkpt><trkpt lat="45.8909918174687" lon="9.458839939367193"><ele>1074.0</ele><time>2026-04-09T09:00:30Z</time></trkpt><trkpt lat="45.89092001224272" lon="9.458901392307684"><ele>1077.0</ele><time>2026-04-09T09:00:31Z</time></trkpt><trkpt lat="45.89084435271911" lon="9.45893362351377"><ele>1080.0</ele><time>2026-04-09T09:00:32Z</time></trkpt><trkpt lat="45.89077089672022" lon="9.458941438689456"><ele>1083.0</ele><time>2026-04-09T09:00:33Z</time></trkpt><trkpt lat="45.89070335230254" lon="9.458970585413166"><ele>1086.0</ele><time>2026-04-09T09:00:34Z</time></trkpt><trkpt lat="45.89065352908727" lon="9.459037728309848"><ele>1079.6666666666667</ele><time>2026-04-09T09:00:35Z</time></trkpt><trkpt lat="45.89061980184731" lon="9.459138473800357"><ele>1073.3333333333333</ele><time>2026-04-09T09:00:36Z</time></trkpt><trkpt lat="45.89059571709762" lon="9.459261689507835"><ele>1067.0</ele><time>2026-04-09T09:00:37Z</time></trkpt><trkpt lat="45.890568852344124" lon="9.459375904323077"><ele>1060.6666666666665</ele><time>2026-04-09T09:00:38Z</time></trkpt><trkpt lat="45.89053201739049" lon="9.45946990220145"><ele>1054.3333333333333</ele><time>2026-04-09T09:00:39Z</time></trkpt><trkpt lat="45.89048189775253" lon="9.459529991518291"><ele>1048.0</ele><time>2026-04-09T09:00:40Z</time></trkpt><trkpt lat="45.89042140867706" lon="9.459560682729405"><ele>1048.0</ele><time>2026-04-09T09:00:41Z</time></trkpt><trkpt lat="45.890348034123704" lon="9.459544336781029"><ele>1048.0</ele><time>2026-04-09T09:00:42Z</time></trkpt><trkpt lat="45.8902799805249" lon="9.459502871972365"><ele>1048.0</ele><time>2026-04-09T09:00:43Z</time></trkpt><trkpt lat="45.89021368238562" lon="9.459476129695464"><ele>1048.0</ele><time>2026-04-09T09:00:44Z</time></trkpt><trkpt lat="45.89014759415107" lon="9.459476960203773"><ele>1048.0</ele><time>2026-04-09T09:00:45Z</time></trkpt><trkpt lat="45.89007655297431" lon="9.4595112383503"><ele>1048.0</ele><time>2026-04-09T09:00:46Z</time></trkpt><trkpt lat="45.89000786912821" lon="9.459597909188448"><ele>1048.0</ele><time>2026-04-09T09:00:47Z</time></trkpt><trkpt lat="45.88993610362492" lon="9.45970617758008"><ele>1050.6</ele><time>2026-04-09T09:00:48Z</time></trkpt><trkpt lat="45.88987521301086" lon="9.459807670007686"><ele>1053.1999999999998</ele><time>2026-04-09T09:00:49Z</time></trkpt><trkpt lat="45.889801519826705" lon="9.459875693245163"><ele>1055.8</ele><time>2026-04-09T09:00:50Z</time></trkpt><trkpt lat="45.889718754616496" lon="9.459910486900164"><ele>1058.3999999999999</ele><time>2026-04-09T09:00:51Z</time></trkpt><trkpt lat="45.889628212770454" lon="9.459903264180346"><ele>1061.0</ele><time>2026-04-09T09:00:52Z</time></trkpt><trkpt lat="45.88953535914302" lon="9.459873560852712"><ele>1061.0</ele><time>2026-04-09T09:00:53Z</time></trkpt><trkpt lat="45.889442105853796" lon="9.459833290035274"><ele>1061.0</ele><time>2026-04-09T09:00:54Z</time></trkpt><trkpt lat="45.88936915486063" lon="9.459816422428942"><ele>1061.0</ele><time>2026-04-09T09:00:55Z</time></trkpt><trkpt lat="45.88927296198946" lon="9.459833943470844"><ele>1061.0</ele><time>2026-04-09T09:00:57Z</time></trkpt><trkpt lat="45.889281253284864" lon="9.459948289116502"><ele>1061.0</ele><time>2026-04-09T09:00:59Z</time></trkpt><trkpt lat="45.88939522851784" lon="9.459991110383397"><ele>1061.0</ele><time>2026-04-09T09:01:01Z</time></trkpt><trkpt lat="45.88947528002125" lon="9.459975470403887"><ele>1061.0</ele><time>2026-04-09T09:01:02Z</time></trkpt><trkpt lat="45.88957532370492" lon="9.459995431537045"><ele>1061.0</ele><time>2026-04-09T09:01:03Z</time></trkpt><trkpt lat="45.889678944526764" lon="9.460028228409124"><ele>1061.0</ele><time>2026-04-09T09:01:04Z</time></trkpt><trkpt lat="45.88978020907848" lon="9.460042143848083"><ele>1061.0</ele><time>2026-04-09T09:01:05Z</time></trkpt><trkpt lat="45.88987193090395" lon="9.460022308828483"><ele>1061.0</ele><time>2026-04-09T09:01:06Z</time></trkpt><trkpt lat="45.889958737481436" lon="9.45997058657992"><ele>1061.0</ele><time>2026-04-09T09:01:07Z</time></trkpt><trkpt lat="45.89003132367764" lon="9.459884764946144"><ele>1061.0</ele><time>2026-04-09T09:01:08Z</time></trkpt><trkpt lat="45.89009287497087" lon="9.459812370074168"><ele>1061.0</ele><time>2026-04-09T09:01:09Z</time></trkpt><trkpt lat="45.8901570791092" lon="9.45977732232104"><ele>1061.0</ele><time>2026-04-09T09:01:10Z</time></trkpt><trkpt lat="45.89022582312328" lon="9.459805140677316"><ele>1061.0</ele><time>2026-04-09T09:01:11.001Z</time></trkpt><trkpt lat="45.890296802156726" lon="9.45986182586052"><ele>1065.8</ele><time>2026-04-09T09:01:12.001Z</time></trkpt><trkpt lat="45.89035988920125" lon="9.459925976764874"><ele>1070.6</ele><time>2026-04-09T09:01:13.001Z</time></trkpt><trkpt lat="45.8904310660815" lon="9.459976363935981"><ele>1075.4</ele><time>2026-04-09T09:01:14.001Z</time></trkpt><trkpt lat="45.89055928345057" lon="9.459958130899127"><ele>1080.2</ele><time>2026-04-09T09:01:16.001Z</time></trkpt><trkpt lat="45.890628835525" lon="9.459869700979759"><ele>1085.0</ele><time>2026-04-09T09:01:17.001Z</time></trkpt><trkpt lat="45.89070446577641" lon="9.45976791336986"><ele>1085.0</ele><time>2026-04-09T09:01:18.001Z</time></trkpt><trkpt lat="45.89078698081049" lon="9.45967911441317"><ele>1085.0</ele><time>2026-04-09T09:01:19.001Z</time></trkpt><trkpt lat="45.89086267149313" lon="9.459599568186512"><ele>1085.0</ele><time>2026-04-09T09:01:20.001Z</time></trkpt><trkpt lat="45.89090916140362" lon="9.459510111269974"><ele>1085.0</ele><time>2026-04-09T09:01:21.001Z</time></trkpt><trkpt lat="45.89095812258842" lon="9.459449290999652"><ele>1085.0</ele><time>2026-04-09T09:01:22.001Z</time></trkpt><trkpt lat="45.89102020040627" lon="9.459416030221584"><ele>1085.0</ele><time>2026-04-09T09:01:23Z</time></trkpt><trkpt lat="45.89109504713556" lon="9.459420403334473"><ele>1085.2</ele><time>2026-04-09T09:01:24Z</time></trkpt><trkpt lat="45.89117815215016" lon="9.459424463793349"><ele>1085.4</ele><time>2026-04-09T09:01:25Z</time></trkpt><trkpt lat="45.8912724866207" lon="9.459376098219279"><ele>1085.6</ele><time>2026-04-09T09:01:26Z</time></trkpt><trkpt lat="45.891368646475456" lon="9.459305525691162"><ele>1085.8</ele><time>2026-04-09T09:01:27Z</time></trkpt><trkpt lat="45.89146772346832" lon="9.459228942660289"><ele>1086.0</ele><time>2026-04-09T09:01:28Z</time></trkpt><trkpt lat="45.891560885076395" lon="9.45915231346132"><ele>1086.0</ele><time>2026-04-09T09:01:29Z</time></trkpt><trkpt lat="45.89164310435385" lon="9.45904538175682"><ele>1086.0</ele><time>2026-04-09T09:01:30Z</time></trkpt><trkpt lat="45.89171368194804" lon="9.458923959219279"><ele>1086.0</ele><time>2026-04-09T09:01:31Z</time></trkpt><trkpt lat="45.89178454903553" lon="9.458804392364879"><ele>1086.0</ele><time>2026-04-09T09:01:32Z</time></trkpt><trkpt lat="45.89184124268868" lon="9.458703204460576"><ele>1086.0</ele><time>2026-04-09T09:01:33Z</time></trkpt><trkpt lat="45.89187473590471" lon="9.458592562176523"><ele>1092.5</ele><time>2026-04-09T09:01:34Z</time></trkpt><trkpt lat="45.89188632758543" lon="9.458473171946071"><ele>1099.0</ele><time>2026-04-09T09:01:35Z</time></trkpt><trkpt lat="45.89187569046507" lon="9.45836156033458"><ele>1105.5</ele><time>2026-04-09T09:01:36Z</time></trkpt><trkpt lat="45.89182344539603" lon="9.458211672774361"><ele>1112.0</ele><time>2026-04-09T09:01:38Z</time></trkpt><trkpt lat="45.89182024949915" lon="9.458114201689767"><ele>1118.5</ele><time>2026-04-09T09:01:40Z</time></trkpt><trkpt lat="45.89189525053633" lon="9.458120637433108"><ele>1125.0</ele><time>2026-04-09T09:01:42Z</time></trkpt><trkpt lat="45.89192751911515" lon="9.458282279220185"><ele>1125.0</ele><time>2026-04-09T09:01:44Z</time></trkpt><trkpt lat="45.89195046331997" lon="9.458393014258569"><ele>1125.0</ele><time>2026-04-09T09:01:45Z</time></trkpt><trkpt lat="45.89197146402148" lon="9.45851182500527"><ele>1125.0</ele><time>2026-04-09T09:01:46Z</time></trkpt><trkpt lat="45.89196712843335" lon="9.458643217554956"><ele>1125.0</ele><time>2026-04-09T09:01:47Z</time></trkpt><trkpt lat="45.89193206543937" lon="9.458765863114063"><ele>1125.0</ele><time>2026-04-09T09:01:48Z</time></trkpt><trkpt lat="45.891869491765945" lon="9.458892812766155"><ele>1124.6</ele><time>2026-04-09T09:01:49Z</time></trkpt><trkpt lat="45.89182243482229" lon="9.459041968575455"><ele>1124.2</ele><time>2026-04-09T09:01:50Z</time></trkpt><trkpt lat="45.89178323594591" lon="9.459186074552228"><ele>1123.8</ele><time>2026-04-09T09:01:51Z</time></trkpt><trkpt lat="45.89173433009682" lon="9.459283345008746"><ele>1123.4</ele><time>2026-04-09T09:01:52Z</time></trkpt><trkpt lat="45.89165136195384" lon="9.459369239344035"><ele>1123.0</ele><time>2026-04-09T09:01:53Z</time></trkpt><trkpt lat="45.89157148848462" lon="9.459448818773387"><ele>1121.6</ele><time>2026-04-09T09:01:54Z</time></trkpt><trkpt lat="45.891487670077105" lon="9.459554709480416"><ele>1120.1999999999998</ele><time>2026-04-09T09:01:55Z</time></trkpt><trkpt lat="45.891407070598476" lon="9.459657891355633"><ele>1118.8</ele><time>2026-04-09T09:01:56Z</time></trkpt><trkpt lat="45.89133278081495" lon="9.459726781940626"><ele>1117.3999999999999</ele><time>2026-04-09T09:01:57Z</time></trkpt><trkpt lat="45.891248860510224" lon="9.459747265977377"><ele>1116.0</ele><time>2026-04-09T09:01:58Z</time></trkpt><trkpt lat="45.89117002647399" lon="9.459763562788307"><ele>1116.0</ele><time>2026-04-09T09:01:59Z</time></trkpt><trkpt lat="45.8910927052835" lon="9.45981678877859"><ele>1116.0</ele><time>2026-04-09T09:02:00Z</time></trkpt><trkpt lat="45.891028919998725" lon="9.45990695623634"><ele>1116.0</ele><time>2026-04-09T09:02:01Z</time></trkpt><trkpt lat="45.890970860779646" lon="9.460023856936768"><ele>1116.0</ele><time>2026-04-09T09:02:02Z</time></trkpt><trkpt lat="45.89091395361502" lon="9.460186772500906"><ele>1116.0</ele><time>2026-04-09T09:02:03Z</time></trkpt><trkpt lat="45.89086089737428" lon="9.46031749273231"><ele>1112.8333333333333</ele><time>2026-04-09T09:02:04Z</time></trkpt><trkpt lat="45.890803050518855" lon="9.460419733667317"><ele>1109.6666666666667</ele><time>2026-04-09T09:02:05Z</time></trkpt><trkpt lat="45.89074087909877" lon="9.460503316059915"><ele>1106.5</ele><time>2026-04-09T09:02:06Z</time></trkpt><trkpt lat="45.89067122616605" lon="9.46057528406401"><ele>1103.3333333333335</ele><time>2026-04-09T09:02:07Z</time></trkpt><trkpt lat="45.89058494614124" lon="9.46060881112197"><ele>1100.1666666666667</ele><time>2026-04-09T09:02:08Z</time></trkpt><trkpt lat="45.890498143317046" lon="9.460624444475608"><ele>1097.0</ele><time>2026-04-09T09:02:09Z</time></trkpt><trkpt lat="45.89042318245099" lon="9.460605362543777"><ele>1097.0</ele><time>2026-04-09T09:02:10Z</time></trkpt><trkpt lat="45.8903596262512" lon="9.460562495214939"><ele>1097.0</ele><time>2026-04-09T09:02:11Z</time></trkpt><trkpt lat="45.89027995276239" lon="9.460542491676408"><ele>1097.0</ele><time>2026-04-09T09:02:13Z</time></trkpt><trkpt lat="45.89025738908213" lon="9.460630061223316"><ele>1097.0</ele><time>2026-04-09T09:02:15Z</time></trkpt><trkpt lat="45.89034994021927" lon="9.460726164362308"><ele>1097.0</ele><time>2026-04-09T09:02:17Z</time></trkpt><trkpt lat="45.89043750263315" lon="9.460732818688362"><ele>1097.0</ele><time>2026-04-09T09:02:18Z</time></trkpt><trkpt lat="45.89052821835969" lon="9.46072717513078"><ele>1097.0</ele><time>2026-04-09T09:02:19Z</time></trkpt><trkpt lat="45.89060338676303" lon="9.4607167130861"><ele>1097.0</ele><time>2026-04-09T09:02:20Z</time></trkpt><trkpt lat="45.8906858786223" lon="9.460700686731606"><ele>1097.0</ele><time>2026-04-09T09:02:21Z</time></trkpt><trkpt lat="45.89077165672065" lon="9.460673943830576"><ele>1097.0</ele><time>2026-04-09T09:02:22Z</time></trkpt><trkpt lat="45.890854363092565" lon="9.460614442551224"><ele>1097.0</ele><time>2026-04-09T09:02:23Z</time></trkpt><trkpt lat="45.89093345273525" lon="9.460525137795337"><ele>1097.0</ele><time>2026-04-09T09:02:24Z</time></trkpt><trkpt lat="45.891004088053535" lon="9.460430336693385"><ele>1100.1666666666667</ele><time>2026-04-09T09:02:25Z</time></trkpt><trkpt lat="45.8910544294199" lon="9.460328731208044"><ele>1103.3333333333335</ele><time>2026-04-09T09:02:26Z</time></trkpt><trkpt lat="45.89110229692065" lon="9.460229965029523"><ele>1106.5</ele><time>2026-04-09T09:02:27Z</time></trkpt><trkpt lat="45.891157475312404" lon="9.460157401763206"><ele>1109.6666666666667</ele><time>2026-04-09T09:02:28Z</time></trkpt><trkpt lat="45.89122815133727" lon="9.460095758765613"><ele>1112.8333333333333</ele><time>2026-04-09T09:02:29Z</time></trkpt><trkpt lat="45.89130420149319" lon="9.460072384588761"><ele>1116.0</ele><time>2026-04-09T09:02:30Z</time></trkpt><trkpt lat="45.89138960235409" lon="9.460067873983428"><ele>1116.0</ele><time>2026-04-09T09:02:31Z</time></trkpt><trkpt lat="45.89147880017331" lon="9.460067685299917"><ele>1116.0</ele><time>2026-04-09T09:02:32Z</time></trkpt><trkpt lat="45.89157365383358" lon="9.460059753057733"><ele>1116.0</ele><time>2026-04-09T09:02:33Z</time></trkpt><trkpt lat="45.891660464172" lon="9.459974533273172"><ele>1116.0</ele><time>2026-04-09T09:02:34Z</time></trkpt><trkpt lat="45.891734515510436" lon="9.459874174097862"><ele>1116.0</ele><time>2026-04-09T09:02:35Z</time></trkpt><trkpt lat="45.891820925898394" lon="9.459789198729904"><ele>1116.25</ele><time>2026-04-09T09:02:36Z</time></trkpt><trkpt lat="45.89191869762488" lon="9.459731910509454"><ele>1116.5</ele><time>2026-04-09T09:02:37Z</time></trkpt><trkpt lat="45.89200963863809" lon="9.459649225386867"><ele>1116.75</ele><time>2026-04-09T09:02:38Z</time></trkpt><trkpt lat="45.892094650956096" lon="9.459519516201595"><ele>1117.0</ele><time>2026-04-09T09:02:39Z</time></trkpt><trkpt lat="45.89215525656575" lon="9.459367045240178"><ele>1118.2</ele><time>2026-04-09T09:02:40Z</time></trkpt><trkpt lat="45.89221941757641" lon="9.459232179122177"><ele>1119.4</ele><time>2026-04-09T09:02:41Z</time></trkpt><trkpt lat="45.892293016709836" lon="9.459144847465902"><ele>1120.6</ele><time>2026-04-09T09:02:42Z</time></trkpt><trkpt lat="45.892367304127795" lon="9.459052958816295"><ele>1121.8</ele><time>2026-04-09T09:02:43Z</time></trkpt><trkpt lat="45.89242796388802" lon="9.458956832930342"><ele>1123.0</ele><time>2026-04-09T09:02:44Z</time></trkpt><trkpt lat="45.89246271429011" lon="9.45884334406516"><ele>1123.3333333333333</ele><time>2026-04-09T09:02:45Z</time></trkpt><trkpt lat="45.89253031609468" lon="9.458716800228407"><ele>1123.6666666666665</ele><time>2026-04-09T09:02:47Z</time></trkpt><trkpt lat="45.89260240026642" lon="9.458726146002364"><ele>1124.0</ele><time>2026-04-09T09:02:48Z</time></trkpt><trkpt lat="45.89268173836432" lon="9.458749840413502"><ele>1124.3333333333333</ele><time>2026-04-09T09:02:49Z</time></trkpt><trkpt lat="45.892753456717074" lon="9.45875302095584"><ele>1124.6666666666667</ele><time>2026-04-09T09:02:50Z</time></trkpt><trkpt lat="45.89281751828174" lon="9.458727799598503"><ele>1125.0</ele><time>2026-04-09T09:02:51Z</time></trkpt><trkpt lat="45.8928755452364" lon="9.458686970168388"><ele>1128.2</ele><time>2026-04-09T09:02:52Z</time></trkpt><trkpt lat="45.892930701375235" lon="9.45864026683334"><ele>1131.4</ele><time>2026-04-09T09:02:53Z</time></trkpt><trkpt lat="45.89306756623673" lon="9.458568257242053"><ele>1134.6</ele><time>2026-04-09T09:02:55Z</time></trkpt><trkpt lat="45.89316001254003" lon="9.458538054573683"><ele>1137.8</ele><time>2026-04-09T09:02:56Z</time></trkpt><trkpt lat="45.89326177729296" lon="9.458495790216176"><ele>1141.0</ele><time>2026-04-09T09:02:57Z</time></trkpt><trkpt lat="45.893355181414464" lon="9.458500444003366"><ele>1139.8</ele><time>2026-04-09T09:02:58Z</time></trkpt><trkpt lat="45.89345363888887" lon="9.458500228367873"><ele>1138.6</ele><time>2026-04-09T09:02:59Z</time></trkpt><trkpt lat="45.89355541920399" lon="9.458500774724152"><ele>1137.4</ele><time>2026-04-09T09:03:00Z</time></trkpt><trkpt lat="45.89366364362576" lon="9.45843922117106"><ele>1136.2</ele><time>2026-04-09T09:03:01Z</time></trkpt><trkpt lat="45.89375660697604" lon="9.458369897724259"><ele>1135.0</ele><time>2026-04-09T09:03:02Z</time></trkpt><trkpt lat="45.89385864620367" lon="9.458320350858479"><ele>1135.0</ele><time>2026-04-09T09:03:03Z</time></trkpt><trkpt lat="45.89394801644683" lon="9.458292167085018"><ele>1135.0</ele><time>2026-04-09T09:03:04Z</time></trkpt><trkpt lat="45.89403070534942" lon="9.458271189194614"><ele>1135.0</ele><time>2026-04-09T09:03:05Z</time></trkpt><trkpt lat="45.89412599721282" lon="9.458325120307903"><ele>1135.0</ele><time>2026-04-09T09:03:06Z</time></trkpt><trkpt lat="45.89422107811426" lon="9.4584079516457"><ele>1135.0</ele><time>2026-04-09T09:03:07Z</time></trkpt><trkpt lat="45.89430303454559" lon="9.458477948910195"><ele>1137.0</ele><time>2026-04-09T09:03:08Z</time></trkpt><trkpt lat="45.89439291201416" lon="9.458510236456567"><ele>1139.0</ele><time>2026-04-09T09:03:09Z</time></trkpt><trkpt lat="45.89448091655669" lon="9.458543483252042"><ele>1141.0</ele><time>2026-04-09T09:03:10Z</time></trkpt><trkpt lat="45.89457612675648" lon="9.458622791808544"><ele>1143.0</ele><time>2026-04-09T09:03:11Z</time></trkpt><trkpt lat="45.894670049799004" lon="9.458719702032754"><ele>1145.0</ele><time>2026-04-09T09:03:12Z</time></trkpt><trkpt lat="45.89475011251851" lon="9.45881658978959"><ele>1138.5</ele><time>2026-04-09T09:03:13Z</time></trkpt><trkpt lat="45.894823985525186" lon="9.458920628010295"><ele>1132.0</ele><time>2026-04-09T09:03:14Z</time></trkpt><trkpt lat="45.894879952205216" lon="9.459029348889318"><ele>1125.5</ele><time>2026-04-09T09:03:15Z</time></trkpt><trkpt lat="45.89491545025507" lon="9.459136424350136"><ele>1119.0</ele><time>2026-04-09T09:03:16Z</time></trkpt><trkpt lat="45.89495576103524" lon="9.45921147070039"><ele>1112.5</ele><time>2026-04-09T09:03:16.999Z</time></trkpt><trkpt lat="45.89501779642105" lon="9.459250885207044"><ele>1106.0</ele><time>2026-04-09T09:03:17.999Z</time></trkpt><trkpt lat="45.895085209537946" lon="9.459267131552382"><ele>1104.6666666666667</ele><time>2026-04-09T09:03:18.999Z</time></trkpt><trkpt lat="45.895169042991604" lon="9.459226781464743"><ele>1103.3333333333335</ele><time>2026-04-09T09:03:19.999Z</time></trkpt><trkpt lat="45.89524867092215" lon="9.459140290413979"><ele>1102.0</ele><time>2026-04-09T09:03:20.999Z</time></trkpt><trkpt lat="45.895331152227655" lon="9.459049524431254"><ele>1100.6666666666667</ele><time>2026-04-09T09:03:21.999Z</time></trkpt><trkpt lat="45.895395678160114" lon="9.458987562521942"><ele>1099.3333333333333</ele><time>2026-04-09T09:03:22.999Z</time></trkpt><trkpt lat="45.89545678753126" lon="9.458925596368104"><ele>1098.0</ele><time>2026-04-09T09:03:23.999Z</time></trkpt><trkpt lat="45.8954851548012" lon="9.45882410816646"><ele>1104.8</ele><time>2026-04-09T09:03:24.999Z</time></trkpt><trkpt lat="45.89549548940473" lon="9.458715841897938"><ele>1111.6</ele><time>2026-04-09T09:03:25.999Z</time></trkpt><trkpt lat="45.895567451020945" lon="9.458568445996557"><ele>1118.4</ele><time>2026-04-09T09:03:27.999Z</time></trkpt><trkpt lat="45.895631964365315" lon="9.458541360475445"><ele>1125.2</ele><time>2026-04-09T09:03:28.999Z</time></trkpt><trkpt lat="45.89569955421725" lon="9.4584913266992"><ele>1132.0</ele><time>2026-04-09T09:03:29.999Z</time></trkpt><trkpt lat="45.89582714432487" lon="9.45855372063913"><ele>1132.0</ele><time>2026-04-09T09:03:31.999Z</time></trkpt><trkpt lat="45.89589764068661" lon="9.458667861493534"><ele>1132.0</ele><time>2026-04-09T09:03:32.999Z</time></trkpt><trkpt lat="45.89596466042" lon="9.458797654399952"><ele>1132.0</ele><time>2026-04-09T09:03:33.999Z</time></trkpt><trkpt lat="45.89604850988383" lon="9.458931270036567"><ele>1132.0</ele><time>2026-04-09T09:03:34.999Z</time></trkpt><trkpt lat="45.896107442916964" lon="9.459072261360527"><ele>1129.4</ele><time>2026-04-09T09:03:35.999Z</time></trkpt><trkpt lat="45.8961786872609" lon="9.459188485877423"><ele>1126.8000000000002</ele><time>2026-04-09T09:03:36.999Z</time></trkpt><trkpt lat="45.896262287202134" lon="9.459279876120483"><ele>1124.2</ele><time>2026-04-09T09:03:37.999Z</time></trkpt><trkpt lat="45.89634594003979" lon="9.459342829523559"><ele>1121.6000000000001</ele><time>2026-04-09T09:03:38.999Z</time></trkpt><trkpt lat="45.89641748686602" lon="9.459413147905742"><ele>1119.0</ele><time>2026-04-09T09:03:39.999Z</time></trkpt><trkpt lat="45.89651555372034" lon="9.459442201902776"><ele>1119.0</ele><time>2026-04-09T09:03:40.999Z</time></trkpt><trkpt lat="45.89662686923918" lon="9.45942079610072"><ele>1119.0</ele><time>2026-04-09T09:03:41.999Z</time></trkpt><trkpt lat="45.89673240707638" lon="9.459379267310185"><ele>1119.0</ele><time>2026-04-09T09:03:42.999Z</time></trkpt><trkpt lat="45.8968100464414" lon="9.459349987900115"><ele>1119.0</ele><time>2026-04-09T09:03:43.999Z</time></trkpt><trkpt lat="45.896880821070724" lon="9.459327925088587"><ele>1119.0</ele><time>2026-04-09T09:03:44.999Z</time></trkpt><trkpt lat="45.896968986162314" lon="9.459364888451068"><ele>1120.4</ele><time>2026-04-09T09:03:46.999Z</time></trkpt><trkpt lat="45.89698174821473" lon="9.459546797061027"><ele>1121.8000000000002</ele><time>2026-04-09T09:03:48.999Z</time></trkpt><trkpt lat="45.896952491742915" lon="9.45963593004709"><ele>1123.1999999999998</ele><time>2026-04-09T09:03:49.999Z</time></trkpt><trkpt lat="45.89691352309998" lon="9.459731346404409"><ele>1124.6</ele><time>2026-04-09T09:03:50.999Z</time></trkpt><trkpt lat="45.89691995925772" lon="9.459862376631015"><ele>1126.0</ele><time>2026-04-09T09:03:51.999Z</time></trkpt><trkpt lat="45.89693838129499" lon="9.459988836327518"><ele>1126.0</ele><time>2026-04-09T09:03:52.999Z</time></trkpt><trkpt lat="45.89691441388648" lon="9.460109134591644"><ele>1126.0</ele><time>2026-04-09T09:03:53.999Z</time></trkpt><trkpt lat="45.89687305683097" lon="9.46022656451884"><ele>1126.0</ele><time>2026-04-09T09:03:54.999Z</time></trkpt><trkpt lat="45.89684742786257" lon="9.46036020322135"><ele>1126.0</ele><time>2026-04-09T09:03:55.999Z</time></trkpt><trkpt lat="45.89682423235659" lon="9.460508083949316"><ele>1126.0</ele><time>2026-04-09T09:03:56.999Z</time></trkpt><trkpt lat="45.896800761933186" lon="9.46064120415278"><ele>1128.142857142857</ele><time>2026-04-09T09:03:57.999Z</time></trkpt><trkpt lat="45.89678073431548" lon="9.460753798155455"><ele>1130.2857142857142</ele><time>2026-04-09T09:03:58.999Z</time></trkpt><trkpt lat="45.89674635886167" lon="9.460830934140374"><ele>1132.4285714285716</ele><time>2026-04-09T09:03:59.999Z</time></trkpt><trkpt lat="45.89668654686394" lon="9.460859897947339"><ele>1134.5714285714284</ele><time>2026-04-09T09:04:00.999Z</time></trkpt><trkpt lat="45.89661667536842" lon="9.46084638604215"><ele>1136.7142857142858</ele><time>2026-04-09T09:04:01.999Z</time></trkpt><trkpt lat="45.896549448685164" lon="9.460811116808717"><ele>1138.857142857143</ele><time>2026-04-09T09:04:02.999Z</time></trkpt><trkpt lat="45.89648465752248" lon="9.460829968742603"><ele>1141.0</ele><time>2026-04-09T09:04:03.999Z</time></trkpt><trkpt lat="45.8964375773268" lon="9.460902235545893"><ele>1134.8</ele><time>2026-04-09T09:04:04.999Z</time></trkpt><trkpt lat="45.896404440023716" lon="9.46101408480181"><ele>1128.6</ele><time>2026-04-09T09:04:05.999Z</time></trkpt><trkpt lat="45.896371743511544" lon="9.461122987619191"><ele>1122.4</ele><time>2026-04-09T09:04:06.999Z</time></trkpt><trkpt lat="45.89635280464918" lon="9.461210732907821"><ele>1116.2</ele><time>2026-04-09T09:04:07.999Z</time></trkpt><trkpt lat="45.89641844366709" lon="9.461398435787942"><ele>1110.0</ele><time>2026-04-09T09:04:10Z</time></trkpt><trkpt lat="45.896462126866375" lon="9.461505393519007"><ele>1110.0</ele><time>2026-04-09T09:04:11Z</time></trkpt><trkpt lat="45.89650940604981" lon="9.461627647961924"><ele>1110.0</ele><time>2026-04-09T09:04:12Z</time></trkpt><trkpt lat="45.89656029631682" lon="9.461749393147226"><ele>1110.0</ele><time>2026-04-09T09:04:13Z</time></trkpt><trkpt lat="45.89663395014662" lon="9.461856224155317"><ele>1110.0</ele><time>2026-04-09T09:04:14Z</time></trkpt><trkpt lat="45.89670960590957" lon="9.461946176583917"><ele>1110.0</ele><time>2026-04-09T09:04:15Z</time></trkpt><trkpt lat="45.896755525654015" lon="9.462049614179156"><ele>1110.6666666666667</ele><time>2026-04-09T09:04:16Z</time></trkpt><trkpt lat="45.896810381290685" lon="9.462141085722333"><ele>1111.3333333333333</ele><time>2026-04-09T09:04:17Z</time></trkpt><trkpt lat="45.896833633505295" lon="9.462244007438592"><ele>1112.0</ele><time>2026-04-09T09:04:18Z</time></trkpt><trkpt lat="45.89681685359653" lon="9.46240370487042"><ele>1112.6666666666665</ele><time>2026-04-09T09:04:20Z</time></trkpt><trkpt lat="45.89676327060289" lon="9.462455201060786"><ele>1113.3333333333333</ele><time>2026-04-09T09:04:21Z</time></trkpt><trkpt lat="45.89668492895559" lon="9.462461597379978"><ele>1114.0</ele><time>2026-04-09T09:04:22Z</time></trkpt><trkpt lat="45.89660641799319" lon="9.462460997749865"><ele>1114.0</ele><time>2026-04-09T09:04:23Z</time></trkpt><trkpt lat="45.89650357127219" lon="9.462489875460257"><ele>1114.0</ele><time>2026-04-09T09:04:25Z</time></trkpt><trkpt lat="45.89646426924567" lon="9.46258523943095"><ele>1114.0</ele><time>2026-04-09T09:04:26Z</time></trkpt><trkpt lat="45.89642788843161" lon="9.462709964884617"><ele>1114.0</ele><time>2026-04-09T09:04:27Z</time></trkpt><trkpt lat="45.89637902123194" lon="9.46281907242752"><ele>1114.0</ele><time>2026-04-09T09:04:28Z</time></trkpt><trkpt lat="45.896343064295394" lon="9.462934542568421"><ele>1117.2</ele><time>2026-04-09T09:04:29Z</time></trkpt><trkpt lat="45.89632758840496" lon="9.463085083163513"><ele>1120.4</ele><time>2026-04-09T09:04:30Z</time></trkpt><trkpt lat="45.89632049129338" lon="9.463263708114406"><ele>1123.6</ele><time>2026-04-09T09:04:31Z</time></trkpt><trkpt lat="45.89632301332872" lon="9.463410031675606"><ele>1126.8</ele><time>2026-04-09T09:04:32Z</time></trkpt><trkpt lat="45.89633426514803" lon="9.46352796046268"><ele>1130.0</ele><time>2026-04-09T09:04:33Z</time></trkpt><trkpt lat="45.8963587793223" lon="9.463645074013929"><ele>1130.0</ele><time>2026-04-09T09:04:34Z</time></trkpt><trkpt lat="45.89641818916688" lon="9.46375952545949"><ele>1130.0</ele><time>2026-04-09T09:04:35Z</time></trkpt><trkpt lat="45.896484886707405" lon="9.463861078691428"><ele>1130.0</ele><time>2026-04-09T09:04:36Z</time></trkpt><trkpt lat="45.896538357098834" lon="9.463945520505918"><ele>1130.0</ele><time>2026-04-09T09:04:37Z</time></trkpt><trkpt lat="45.89658543824373" lon="9.46401835132255"><ele>1130.0</ele><time>2026-04-09T09:04:38Z</time></trkpt><trkpt lat="45.89660198899069" lon="9.464172474246132"><ele>1131.0</ele><time>2026-04-09T09:04:40Z</time></trkpt><trkpt lat="45.896539504038756" lon="9.46428724080709"><ele>1132.0</ele><time>2026-04-09T09:04:42Z</time></trkpt><trkpt lat="45.896467510797066" lon="9.464314472271315"><ele>1133.0</ele><time>2026-04-09T09:04:43Z</time></trkpt><trkpt lat="45.896383247751054" lon="9.46435513402819"><ele>1134.0</ele><time>2026-04-09T09:04:44Z</time></trkpt><trkpt lat="45.896294585153925" lon="9.464412459131529"><ele>1135.0</ele><time>2026-04-09T09:04:45Z</time></trkpt><trkpt lat="45.896206672709326" lon="9.464453078923976"><ele>1135.0</ele><time>2026-04-09T09:04:46Z</time></trkpt><trkpt lat="45.89611770457514" lon="9.464469505165626"><ele>1135.0</ele><time>2026-04-09T09:04:47Z</time></trkpt><trkpt lat="45.89604579487853" lon="9.464482938037914"><ele>1135.0</ele><time>2026-04-09T09:04:48Z</time></trkpt><trkpt lat="45.895985134594724" lon="9.464525841092703"><ele>1135.0</ele><time>2026-04-09T09:04:49Z</time></trkpt><trkpt lat="45.895934774163905" lon="9.464598395791805"><ele>1135.0</ele><time>2026-04-09T09:04:50Z</time></trkpt><trkpt lat="45.89587410236375" lon="9.464684281355785"><ele>1135.0</ele><time>2026-04-09T09:04:51Z</time></trkpt><trkpt lat="45.89579608419581" lon="9.464704984657653"><ele>1135.5</ele><time>2026-04-09T09:04:52Z</time></trkpt><trkpt lat="45.89572030236298" lon="9.464737103418889"><ele>1136.0</ele><time>2026-04-09T09:04:53Z</time></trkpt><trkpt lat="45.89565553404443" lon="9.464794603414875"><ele>1136.5</ele><time>2026-04-09T09:04:54Z</time></trkpt><trkpt lat="45.89560443886748" lon="9.46487475354628"><ele>1137.0</ele><time>2026-04-09T09:04:55Z</time></trkpt><trkpt lat="45.89554194150354" lon="9.464943335783078"><ele>1137.5</ele><time>2026-04-09T09:04:56Z</time></trkpt><trkpt lat="45.895458716526015" lon="9.465034988257832"><ele>1138.0</ele><time>2026-04-09T09:04:58Z</time></trkpt><trkpt lat="45.89555595964098" lon="9.465281211329799"><ele>1138.0</ele><time>2026-04-09T09:04:59Z</time></trkpt><trkpt lat="45.89558641720666" lon="9.465371498820613"><ele>1138.0</ele><time>2026-04-09T09:05:00Z</time></trkpt><trkpt lat="45.89554826039088" lon="9.465545340345962"><ele>1138.0</ele><time>2026-04-09T09:05:02Z</time></trkpt><trkpt lat="45.895480761433795" lon="9.465612725390734"><ele>1138.0</ele><time>2026-04-09T09:05:03Z</time></trkpt><trkpt lat="45.895410644005906" lon="9.465701884709443"><ele>1138.0</ele><time>2026-04-09T09:05:04Z</time></trkpt><trkpt lat="45.89534776252734" lon="9.465799398321227"><ele>1141.8</ele><time>2026-04-09T09:05:05Z</time></trkpt><trkpt lat="45.895302424555275" lon="9.465893573839086"><ele>1145.6</ele><time>2026-04-09T09:05:06Z</time></trkpt><trkpt lat="45.89527370069969" lon="9.466011003806347"><ele>1149.4</ele><time>2026-04-09T09:05:07Z</time></trkpt><trkpt lat="45.8952662061819" lon="9.466153863273378"><ele>1153.2</ele><time>2026-04-09T09:05:08Z</time></trkpt><trkpt lat="45.89525570151468" lon="9.466305901884827"><ele>1157.0</ele><time>2026-04-09T09:05:09Z</time></trkpt><trkpt lat="45.89521643947858" lon="9.466464212183464"><ele>1163.25</ele><time>2026-04-09T09:05:10Z</time></trkpt><trkpt lat="45.895162166056586" lon="9.466604527709267"><ele>1169.5</ele><time>2026-04-09T09:05:11Z</time></trkpt><trkpt lat="45.89510967585336" lon="9.466751879619004"><ele>1175.75</ele><time>2026-04-09T09:05:12Z</time></trkpt><trkpt lat="45.89505924868881" lon="9.466898826264558"><ele>1182.0</ele><time>2026-04-09T09:05:13Z</time></trkpt><trkpt lat="45.89500795864407" lon="9.467042389222671"><ele>1171.8</ele><time>2026-04-09T09:05:14Z</time></trkpt><trkpt lat="45.894959343667104" lon="9.467171452868074"><ele>1161.6</ele><time>2026-04-09T09:05:15Z</time></trkpt><trkpt lat="45.89493694113828" lon="9.467298097898421"><ele>1151.3999999999999</ele><time>2026-04-09T09:05:16Z</time></trkpt><trkpt lat="45.894941464733726" lon="9.467430815597135"><ele>1141.2</ele><time>2026-04-09T09:05:17Z</time></trkpt><trkpt lat="45.89493360400646" lon="9.467554665394463"><ele>1131.0</ele><time>2026-04-09T09:05:18Z</time></trkpt><trkpt lat="45.8949002925383" lon="9.467657682957357"><ele>1131.0</ele><time>2026-04-09T09:05:19Z</time></trkpt><trkpt lat="45.89485809646694" lon="9.467752280962356"><ele>1131.0</ele><time>2026-04-09T09:05:20Z</time></trkpt><trkpt lat="45.89487857902561" lon="9.467937687501172"><ele>1131.0</ele><time>2026-04-09T09:05:22Z</time></trkpt><trkpt lat="45.89490992331572" lon="9.468026524181525"><ele>1131.0</ele><time>2026-04-09T09:05:23Z</time></trkpt><trkpt lat="45.89492351141316" lon="9.468134847708061"><ele>1131.0</ele><time>2026-04-09T09:05:24Z</time></trkpt><trkpt lat="45.89489652100671" lon="9.468240250357416"><ele>1131.0</ele><time>2026-04-09T09:05:25Z</time></trkpt><trkpt lat="45.89484259357262" lon="9.468329158627169"><ele>1133.2</ele><time>2026-04-09T09:05:26Z</time></trkpt><trkpt lat="45.894755681495816" lon="9.46839653190946"><ele>1135.3999999999999</ele><time>2026-04-09T09:05:27Z</time></trkpt><trkpt lat="45.89466211991152" lon="9.46845797267656"><ele>1137.6</ele><time>2026-04-09T09:05:28Z</time></trkpt><trkpt lat="45.89457040368418" lon="9.468503702837651"><ele>1139.8</ele><time>2026-04-09T09:05:29Z</time></trkpt><trkpt lat="45.89447638285355" lon="9.468513140178763"><ele>1142.0</ele><time>2026-04-09T09:05:30Z</time></trkpt><trkpt lat="45.89438034709416" lon="9.468479948540828"><ele>1142.0</ele><time>2026-04-09T09:05:31Z</time></trkpt><trkpt lat="45.89428377348217" lon="9.468426672866011"><ele>1142.0</ele><time>2026-04-09T09:05:32Z</time></trkpt><trkpt lat="45.89420102557715" lon="9.468394317188183"><ele>1142.0</ele><time>2026-04-09T09:05:33Z</time></trkpt><trkpt lat="45.89413395637159" lon="9.468396117628028"><ele>1142.0</ele><time>2026-04-09T09:05:34Z</time></trkpt><trkpt lat="45.894047204908624" lon="9.468508852748387"><ele>1142.0</ele><time>2026-04-09T09:05:36Z</time></trkpt><trkpt lat="45.89400748468767" lon="9.468605616898277"><ele>1137.4</ele><time>2026-04-09T09:05:37Z</time></trkpt><trkpt lat="45.89394545306372" lon="9.46866689450584"><ele>1132.8000000000002</ele><time>2026-04-09T09:05:38Z</time></trkpt><trkpt lat="45.89384651434785" lon="9.468687582969531"><ele>1128.2</ele><time>2026-04-09T09:05:39Z</time></trkpt><trkpt lat="45.89371484579398" lon="9.468678847818255"><ele>1123.6000000000001</ele><time>2026-04-09T09:05:40Z</time></trkpt><trkpt lat="45.89358732646353" lon="9.468686597758932"><ele>1119.0</ele><time>2026-04-09T09:05:41Z</time></trkpt><trkpt lat="45.893466723230986" lon="9.468703222168868"><ele>1116.4</ele><time>2026-04-09T09:05:42Z</time></trkpt><trkpt lat="45.893372123457354" lon="9.468694449385833"><ele>1113.8000000000002</ele><time>2026-04-09T09:05:43Z</time></trkpt><trkpt lat="45.893292706119844" lon="9.468649963171309"><ele>1111.1999999999998</ele><time>2026-04-09T09:05:44Z</time></trkpt><trkpt lat="45.89322629012888" lon="9.468640351955454"><ele>1108.6</ele><time>2026-04-09T09:05:45Z</time></trkpt><trkpt lat="45.893124711293055" lon="9.4687350947988"><ele>1106.0</ele><time>2026-04-09T09:05:47Z</time></trkpt><trkpt lat="45.89308265039221" lon="9.468851846330914"><ele>1115.3999999999999</ele><time>2026-04-09T09:05:48Z</time></trkpt><trkpt lat="45.893020634861294" lon="9.468959342526631"><ele>1124.8</ele><time>2026-04-09T09:05:49Z</time></trkpt><trkpt lat="45.89293275694579" lon="9.469046028470476"><ele>1134.1999999999998</ele><time>2026-04-09T09:05:50Z</time></trkpt><trkpt lat="45.89285188173675" lon="9.469091715790846"><ele>1143.6</ele><time>2026-04-09T09:05:51Z</time></trkpt><trkpt lat="45.892762526738714" lon="9.469102691228278"><ele>1153.0</ele><time>2026-04-09T09:05:52Z</time></trkpt><trkpt lat="45.892683824454984" lon="9.469085219750886"><ele>1153.0</ele><time>2026-04-09T09:05:53Z</time></trkpt><trkpt lat="45.892616852654584" lon="9.469059876097557"><ele>1153.0</ele><time>2026-04-09T09:05:54Z</time></trkpt><trkpt lat="45.89251165325717" lon="9.46914339540332"><ele>1153.0</ele><time>2026-04-09T09:05:56Z</time></trkpt><trkpt lat="45.89246242806319" lon="9.469300056945015"><ele>1153.0</ele><time>2026-04-09T09:05:58Z</time></trkpt><trkpt lat="45.89248122036434" lon="9.46940428822304"><ele>1153.0</ele><time>2026-04-09T09:05:59Z</time></trkpt><trkpt lat="45.892531027100475" lon="9.469515815888894"><ele>1152.1666666666665</ele><time>2026-04-09T09:06:00Z</time></trkpt><trkpt lat="45.892580501910146" lon="9.469635186141094"><ele>1151.3333333333333</ele><time>2026-04-09T09:06:01Z</time></trkpt><trkpt lat="45.89259326517449" lon="9.469739435443623"><ele>1150.5</ele><time>2026-04-09T09:06:02Z</time></trkpt><trkpt lat="45.89259384272058" lon="9.46985610668375"><ele>1149.6666666666667</ele><time>2026-04-09T09:06:03Z</time></trkpt><trkpt lat="45.89254385125403" lon="9.469958261219501"><ele>1148.8333333333335</ele><time>2026-04-09T09:06:04Z</time></trkpt><trkpt lat="45.89249263339896" lon="9.470017979274324"><ele>1148.0</ele><time>2026-04-09T09:06:05Z</time></trkpt><trkpt lat="45.89242498864486" lon="9.47003020308085"><ele>1148.0</ele><time>2026-04-09T09:06:06Z</time></trkpt><trkpt lat="45.89235182769446" lon="9.470050895019314"><ele>1148.0</ele><time>2026-04-09T09:06:07Z</time></trkpt><trkpt lat="45.892278409065206" lon="9.47011323903653"><ele>1148.0</ele><time>2026-04-09T09:06:08Z</time></trkpt><trkpt lat="45.89221093146563" lon="9.47020085720962"><ele>1148.0</ele><time>2026-04-09T09:06:09Z</time></trkpt><trkpt lat="45.89213169737095" lon="9.470300601098065"><ele>1148.0</ele><time>2026-04-09T09:06:10Z</time></trkpt><trkpt lat="45.892067508271786" lon="9.470380438224945"><ele>1148.0</ele><time>2026-04-09T09:06:11Z</time></trkpt><trkpt lat="45.8919976489959" lon="9.470432695083339"><ele>1151.6</ele><time>2026-04-09T09:06:12Z</time></trkpt><trkpt lat="45.89193322872569" lon="9.470569959681804"><ele>1155.1999999999998</ele><time>2026-04-09T09:06:14Z</time></trkpt><trkpt lat="45.89193117825851" lon="9.470685327943016"><ele>1158.8</ele><time>2026-04-09T09:06:15Z</time></trkpt><trkpt lat="45.891932994967995" lon="9.470800326861427"><ele>1162.3999999999999</ele><time>2026-04-09T09:06:16Z</time></trkpt><trkpt lat="45.89196006221308" lon="9.470955770270121"><ele>1166.0</ele><time>2026-04-09T09:06:17Z</time></trkpt><trkpt lat="45.89200582758883" lon="9.471106168011577"><ele>1166.0</ele><time>2026-04-09T09:06:18Z</time></trkpt><trkpt lat="45.8920654323686" lon="9.47125787820511"><ele>1166.0</ele><time>2026-04-09T09:06:19Z</time></trkpt><trkpt lat="45.89213186410357" lon="9.471371916432274"><ele>1166.0</ele><time>2026-04-09T09:06:20Z</time></trkpt><trkpt lat="45.892199098249066" lon="9.471470980310885"><ele>1166.0</ele><time>2026-04-09T09:06:21Z</time></trkpt><trkpt lat="45.89223922463797" lon="9.47155877348474"><ele>1166.0</ele><time>2026-04-09T09:06:22Z</time></trkpt><trkpt lat="45.892236890290704" lon="9.471669438395507"><ele>1166.2</ele><time>2026-04-09T09:06:23Z</time></trkpt><trkpt lat="45.89216374615009" lon="9.471809105694167"><ele>1166.3999999999999</ele><time>2026-04-09T09:06:25Z</time></trkpt><trkpt lat="45.89207652117381" lon="9.471821435090225"><ele>1166.6</ele><time>2026-04-09T09:06:26Z</time></trkpt><trkpt lat="45.89197727347093" lon="9.471863325644884"><ele>1166.8</ele><time>2026-04-09T09:06:27Z</time></trkpt><trkpt lat="45.89188258664041" lon="9.47193090587121"><ele>1167.0</ele><time>2026-04-09T09:06:28Z</time></trkpt><trkpt lat="45.891799054680064" lon="9.471988619266115"><ele>1162.1666666666667</ele><time>2026-04-09T09:06:29Z</time></trkpt><trkpt lat="45.89170460665989" lon="9.47201990590781"><ele>1157.3333333333333</ele><time>2026-04-09T09:06:30Z</time></trkpt><trkpt lat="45.89161944708285" lon="9.471992621856195"><ele>1152.5</ele><time>2026-04-09T09:06:31Z</time></trkpt><trkpt lat="45.89155129851352" lon="9.471906904106953"><ele>1147.6666666666665</ele><time>2026-04-09T09:06:32Z</time></trkpt><trkpt lat="45.891479380531756" lon="9.471825464825748"><ele>1142.8333333333333</ele><time>2026-04-09T09:06:33Z</time></trkpt><trkpt lat="45.89140168863099" lon="9.471792374372184"><ele>1138.0</ele><time>2026-04-09T09:06:34Z</time></trkpt><trkpt lat="45.8913137090303" lon="9.471800272808085"><ele>1138.0</ele><time>2026-04-09T09:06:35Z</time></trkpt><trkpt lat="45.891208648665184" lon="9.47184967062095"><ele>1138.0</ele><time>2026-04-09T09:06:36Z</time></trkpt><trkpt lat="45.89110323892059" lon="9.471917025664984"><ele>1138.0</ele><time>2026-04-09T09:06:37Z</time></trkpt><trkpt lat="45.89099711922816" lon="9.471994035618847"><ele>1138.0</ele><time>2026-04-09T09:06:38Z</time></trkpt><trkpt lat="45.89089202129037" lon="9.472065594175465"><ele>1137.3333333333333</ele><time>2026-04-09T09:06:39Z</time></trkpt><trkpt lat="45.89080877983197" lon="9.472116162611643"><ele>1136.6666666666665</ele><time>2026-04-09T09:06:40Z</time></trkpt><trkpt lat="45.890729603885454" lon="9.472159019777912"><ele>1136.0</ele><time>2026-04-09T09:06:41Z</time></trkpt><trkpt lat="45.89065592099232" lon="9.472168161027922"><ele>1135.3333333333333</ele><time>2026-04-09T09:06:42Z</time></trkpt><trkpt lat="45.890586026487924" lon="9.47214148565895"><ele>1134.6666666666667</ele><time>2026-04-09T09:06:43Z</time></trkpt><trkpt lat="45.890507053687756" lon="9.472070296801201"><ele>1134.0</ele><time>2026-04-09T09:06:44Z</time></trkpt><trkpt lat="45.89042536466295" lon="9.471971674300843"><ele>1134.0</ele><time>2026-04-09T09:06:45Z</time></trkpt><trkpt lat="45.89034571936194" lon="9.471890684776552"><ele>1134.0</ele><time>2026-04-09T09:06:46Z</time></trkpt><trkpt lat="45.89025341985846" lon="9.471819935149533"><ele>1134.0</ele><time>2026-04-09T09:06:47Z</time></trkpt><trkpt lat="45.890166596013074" lon="9.471773800087567"><ele>1134.0</ele><time>2026-04-09T09:06:48Z</time></trkpt><trkpt lat="45.890090545082906" lon="9.471755675770163"><ele>1134.0</ele><time>2026-04-09T09:06:49Z</time></trkpt><trkpt lat="45.890004881576786" lon="9.471752704312783"><ele>1134.2</ele><time>2026-04-09T09:06:50Z</time></trkpt><trkpt lat="45.889908545374745" lon="9.471783570074047"><ele>1134.4</ele><time>2026-04-09T09:06:51Z</time></trkpt><trkpt lat="45.889819593780345" lon="9.471836902704977"><ele>1134.6</ele><time>2026-04-09T09:06:52Z</time></trkpt><trkpt lat="45.88973463088793" lon="9.471882215179964"><ele>1134.8</ele><time>2026-04-09T09:06:53Z</time></trkpt><trkpt lat="45.88966966507892" lon="9.471946766045038"><ele>1135.0</ele><time>2026-04-09T09:06:54Z</time></trkpt><trkpt lat="45.8896236758577" lon="9.472061746689024"><ele>1141.6</ele><time>2026-04-09T09:06:55Z</time></trkpt><trkpt lat="45.889596996931395" lon="9.47219740393519"><ele>1148.2</ele><time>2026-04-09T09:06:56Z</time></trkpt><trkpt lat="45.88954294152104" lon="9.4723170855792"><ele>1154.8</ele><time>2026-04-09T09:06:57Z</time></trkpt><trkpt lat="45.889466281385346" lon="9.472414265565497"><ele>1161.4</ele><time>2026-04-09T09:06:58Z</time></trkpt><trkpt lat="45.8893762718419" lon="9.47247805288785"><ele>1168.0</ele><time>2026-04-09T09:06:59Z</time></trkpt><trkpt lat="45.88926136969071" lon="9.472507399117136"><ele>1162.75</ele><time>2026-04-09T09:07:00Z</time></trkpt><trkpt lat="45.88912571924222" lon="9.472536893007227"><ele>1157.5</ele><time>2026-04-09T09:07:01Z</time></trkpt><trkpt lat="45.889009492759" lon="9.472612494441114"><ele>1152.25</ele><time>2026-04-09T09:07:02Z</time></trkpt><trkpt lat="45.88890668541708" lon="9.4726934301447"><ele>1147.0</ele><time>2026-04-09T09:07:03Z</time></trkpt><trkpt lat="45.88882045370632" lon="9.472763940219645"><ele>1147.0</ele><time>2026-04-09T09:07:04Z</time></trkpt><trkpt lat="45.888758246099435" lon="9.472842147817868"><ele>1147.0</ele><time>2026-04-09T09:07:05Z</time></trkpt><trkpt lat="45.888701065726934" lon="9.472962124586337"><ele>1147.0</ele><time>2026-04-09T09:07:06Z</time></trkpt><trkpt lat="45.88866033300315" lon="9.473122217828477"><ele>1147.0</ele><time>2026-04-09T09:07:07Z</time></trkpt><trkpt lat="45.88860544170223" lon="9.4732753776478"><ele>1147.0</ele><time>2026-04-09T09:07:08Z</time></trkpt><trkpt lat="45.88852539805063" lon="9.473400081443854"><ele>1147.0</ele><time>2026-04-09T09:07:09Z</time></trkpt><trkpt lat="45.88843840150126" lon="9.473489906821886"><ele>1147.0</ele><time>2026-04-09T09:07:10Z</time></trkpt><trkpt lat="45.88836867459706" lon="9.473574033692342"><ele>1147.0</ele><time>2026-04-09T09:07:11Z</time></trkpt><trkpt lat="45.88832041226278" lon="9.473672579845633"><ele>1147.0</ele><time>2026-04-09T09:07:12Z</time></trkpt><trkpt lat="45.88830636133136" lon="9.473772197596574"><ele>1147.0</ele><time>2026-04-09T09:07:13Z</time></trkpt><trkpt lat="45.888309714220966" lon="9.473906368567327"><ele>1147.0</ele><time>2026-04-09T09:07:14Z</time></trkpt><trkpt lat="45.88831391228191" lon="9.474037546007219"><ele>1150.0</ele><time>2026-04-09T09:07:15Z</time></trkpt><trkpt lat="45.8883220560003" lon="9.474164924755723"><ele>1153.0</ele><time>2026-04-09T09:07:16Z</time></trkpt><trkpt lat="45.888342346823855" lon="9.474274813711482"><ele>1156.0</ele><time>2026-04-09T09:07:17Z</time></trkpt><trkpt lat="45.888378356966356" lon="9.474392564754247"><ele>1159.0</ele><time>2026-04-09T09:07:18Z</time></trkpt><trkpt lat="45.888419233100684" lon="9.474498101490248"><ele>1162.0</ele><time>2026-04-09T09:07:19Z</time></trkpt><trkpt lat="45.88845280602026" lon="9.474611905855427"><ele>1165.0</ele><time>2026-04-09T09:07:20Z</time></trkpt><trkpt lat="45.8884885346468" lon="9.4747083018935"><ele>1169.0</ele><time>2026-04-09T09:07:21Z</time></trkpt><trkpt lat="45.888533900174025" lon="9.47478623728238"><ele>1173.0</ele><time>2026-04-09T09:07:22Z</time></trkpt><trkpt lat="45.888598227356994" lon="9.474878724547713"><ele>1177.0</ele><time>2026-04-09T09:07:23Z</time></trkpt><trkpt lat="45.88867463257208" lon="9.4749631713452"><ele>1181.0</ele><time>2026-04-09T09:07:24Z</time></trkpt><trkpt lat="45.88875727448911" lon="9.47504328287456"><ele>1185.0</ele><time>2026-04-09T09:07:25Z</time></trkpt><trkpt lat="45.88883252086429" lon="9.475136750695864"><ele>1185.0</ele><time>2026-04-09T09:07:26Z</time></trkpt><trkpt lat="45.888893501762674" lon="9.47524032561757"><ele>1185.0</ele><time>2026-04-09T09:07:27Z</time></trkpt><trkpt lat="45.88894583686848" lon="9.475359078809246"><ele>1185.0</ele><time>2026-04-09T09:07:28Z</time></trkpt><trkpt lat="45.88899033166472" lon="9.47549747154045"><ele>1185.0</ele><time>2026-04-09T09:07:28.998Z</time></trkpt><trkpt lat="45.88903733404422" lon="9.475650594604257"><ele>1185.0</ele><time>2026-04-09T09:07:29.998Z</time></trkpt><trkpt lat="45.88907789924739" lon="9.475797601407407"><ele>1182.6</ele><time>2026-04-09T09:07:30.998Z</time></trkpt><trkpt lat="45.88912270328027" lon="9.47593637595273"><ele>1180.2</ele><time>2026-04-09T09:07:31.998Z</time></trkpt><trkpt lat="45.889182039373004" lon="9.476054107735063"><ele>1177.8</ele><time>2026-04-09T09:07:32.998Z</time></trkpt><trkpt lat="45.889258804156434" lon="9.47614652761067"><ele>1175.4</ele><time>2026-04-09T09:07:33.998Z</time></trkpt><trkpt lat="45.88933870130013" lon="9.47622813956671"><ele>1173.0</ele><time>2026-04-09T09:07:34.998Z</time></trkpt><trkpt lat="45.88939885274507" lon="9.47630659164399"><ele>1168.1666666666667</ele><time>2026-04-09T09:07:35.998Z</time></trkpt><trkpt lat="45.8894337406234" lon="9.47638922208272"><ele>1163.3333333333333</ele><time>2026-04-09T09:07:36.998Z</time></trkpt><trkpt lat="45.889437394221844" lon="9.47650242507647"><ele>1158.5</ele><time>2026-04-09T09:07:37.998Z</time></trkpt><trkpt lat="45.889416349541484" lon="9.47662246206234"><ele>1153.6666666666665</ele><time>2026-04-09T09:07:38.998Z</time></trkpt><trkpt lat="45.88939740111709" lon="9.476751938818236"><ele>1148.8333333333333</ele><time>2026-04-09T09:07:39.998Z</time></trkpt><trkpt lat="45.88940213470756" lon="9.476874461377372"><ele>1144.0</ele><time>2026-04-09T09:07:40.998Z</time></trkpt><trkpt lat="45.889420493107245" lon="9.476999403766415"><ele>1141.5</ele><time>2026-04-09T09:07:41.998Z</time></trkpt><trkpt lat="45.889443723158024" lon="9.477116532831568"><ele>1139.0</ele><time>2026-04-09T09:07:42.998Z</time></trkpt><trkpt lat="45.88948542313591" lon="9.477232494312814"><ele>1136.5</ele><time>2026-04-09T09:07:43.998Z</time></trkpt><trkpt lat="45.889537645205905" lon="9.477331068665695"><ele>1134.0</ele><time>2026-04-09T09:07:44.998Z</time></trkpt><trkpt lat="45.88960429335541" lon="9.477362097177776"><ele>1131.5</ele><time>2026-04-09T09:07:45.998Z</time></trkpt><trkpt lat="45.889671055967256" lon="9.477357313586351"><ele>1129.0</ele><time>2026-04-09T09:07:46.999Z</time></trkpt><trkpt lat="45.889747284588466" lon="9.477237715299475"><ele>1129.0</ele><time>2026-04-09T09:07:48.999Z</time></trkpt><trkpt lat="45.88978665126921" lon="9.477161232257702"><ele>1129.0</ele><time>2026-04-09T09:07:49.999Z</time></trkpt><trkpt lat="45.889839246285376" lon="9.477103382063682"><ele>1129.0</ele><time>2026-04-09T09:07:50.999Z</time></trkpt><trkpt lat="45.88990916587031" lon="9.477073444369749"><ele>1129.0</ele><time>2026-04-09T09:07:51.999Z</time></trkpt><trkpt lat="45.88998674544367" lon="9.477049776564181"><ele>1129.0</ele><time>2026-04-09T09:07:52.999Z</time></trkpt><trkpt lat="45.890050382751824" lon="9.476982673784411"><ele>1129.0</ele><time>2026-04-09T09:07:53.999Z</time></trkpt><trkpt lat="45.89010699186026" lon="9.47690978852718"><ele>1129.0</ele><time>2026-04-09T09:07:54.999Z</time></trkpt><trkpt lat="45.89020143437647" lon="9.476904440353142"><ele>1131.0</ele><time>2026-04-09T09:07:56.999Z</time></trkpt><trkpt lat="45.890249903636786" lon="9.476963596366287"><ele>1133.0</ele><time>2026-04-09T09:07:57.999Z</time></trkpt><trkpt lat="45.890272199684986" lon="9.477055803181143"><ele>1135.0</ele><time>2026-04-09T09:07:58.999Z</time></trkpt><trkpt lat="45.89027836480214" lon="9.477186662205657"><ele>1137.0</ele><time>2026-04-09T09:07:59.999Z</time></trkpt><trkpt lat="45.89029053495212" lon="9.477336285646766"><ele>1139.0</ele><time>2026-04-09T09:08:00.999Z</time></trkpt><trkpt lat="45.89031072284064" lon="9.477507177769878"><ele>1141.0</ele><time>2026-04-09T09:08:01.999Z</time></trkpt><trkpt lat="45.89033351781439" lon="9.477681796991545"><ele>1141.0</ele><time>2026-04-09T09:08:02.999Z</time></trkpt><trkpt lat="45.89033765474586" lon="9.477842140027168"><ele>1141.0</ele><time>2026-04-09T09:08:03.999Z</time></trkpt><trkpt lat="45.890319564421844" lon="9.477999694448394"><ele>1141.0</ele><time>2026-04-09T09:08:04.999Z</time></trkpt><trkpt lat="45.89027937930515" lon="9.47813699943871"><ele>1141.0</ele><time>2026-04-09T09:08:05.999Z</time></trkpt><trkpt lat="45.890220286811804" lon="9.478246233376085"><ele>1141.0</ele><time>2026-04-09T09:08:06.999Z</time></trkpt><trkpt lat="45.89016404437971" lon="9.4783317580285"><ele>1140.2</ele><time>2026-04-09T09:08:07.999Z</time></trkpt><trkpt lat="45.890162830051004" lon="9.478512426732019"><ele>1139.3999999999999</ele><time>2026-04-09T09:08:09.999Z</time></trkpt><trkpt lat="45.89019423779068" lon="9.478644553834254"><ele>1138.6</ele><time>2026-04-09T09:08:10.999Z</time></trkpt><trkpt lat="45.89021749632581" lon="9.478781553682346"><ele>1137.8</ele><time>2026-04-09T09:08:11.999Z</time></trkpt><trkpt lat="45.89024795038838" lon="9.478893019900541"><ele>1137.0</ele><time>2026-04-09T09:08:12.999Z</time></trkpt><trkpt lat="45.89030062500412" lon="9.478962570175506"><ele>1135.3333333333333</ele><time>2026-04-09T09:08:13.999Z</time></trkpt><trkpt lat="45.89036815138198" lon="9.478992329917537"><ele>1133.6666666666667</ele><time>2026-04-09T09:08:14.999Z</time></trkpt><trkpt lat="45.8904553328003" lon="9.479004466181634"><ele>1132.0</ele><time>2026-04-09T09:08:15.999Z</time></trkpt><trkpt lat="45.890553725911204" lon="9.479032664447088"><ele>1130.3333333333335</ele><time>2026-04-09T09:08:16.999Z</time></trkpt><trkpt lat="45.89064553294718" lon="9.479073442783807"><ele>1128.6666666666667</ele><time>2026-04-09T09:08:17.999Z</time></trkpt><trkpt lat="45.89071337982676" lon="9.479127837128818"><ele>1127.0</ele><time>2026-04-09T09:08:18.999Z</time></trkpt><trkpt lat="45.890773879100685" lon="9.479283285604852"><ele>1127.0</ele><time>2026-04-09T09:08:20.999Z</time></trkpt><trkpt lat="45.890760750846816" lon="9.47940639804313"><ele>1127.0</ele><time>2026-04-09T09:08:21.999Z</time></trkpt><trkpt lat="45.89070839718141" lon="9.479544822390787"><ele>1127.0</ele><time>2026-04-09T09:08:22.999Z</time></trkpt><trkpt lat="45.890655424204866" lon="9.47965634152768"><ele>1127.0</ele><time>2026-04-09T09:08:23.999Z</time></trkpt><trkpt lat="45.89057369561099" lon="9.479750220064801"><ele>1127.0</ele><time>2026-04-09T09:08:24.999Z</time></trkpt><trkpt lat="45.890470375506425" lon="9.479814561448434"><ele>1126.5</ele><time>2026-04-09T09:08:26Z</time></trkpt><trkpt lat="45.8903731381188" lon="9.479901503760894"><ele>1126.0</ele><time>2026-04-09T09:08:27Z</time></trkpt><trkpt lat="45.890281735576124" lon="9.4800247647566"><ele>1125.5</ele><time>2026-04-09T09:08:28Z</time></trkpt><trkpt lat="45.890197311979854" lon="9.480141562341462"><ele>1125.0</ele><time>2026-04-09T09:08:29Z</time></trkpt><trkpt lat="45.890120768705266" lon="9.480249430024013"><ele>1120.4</ele><time>2026-04-09T09:08:30Z</time></trkpt><trkpt lat="45.89006612630794" lon="9.480357429900982"><ele>1115.8</ele><time>2026-04-09T09:08:31Z</time></trkpt><trkpt lat="45.89004249360242" lon="9.480491269977078"><ele>1111.2</ele><time>2026-04-09T09:08:32Z</time></trkpt><trkpt lat="45.89001829323023" lon="9.48064792099783"><ele>1106.6</ele><time>2026-04-09T09:08:33Z</time></trkpt><trkpt lat="45.88996673634574" lon="9.480798353875379"><ele>1102.0</ele><time>2026-04-09T09:08:34Z</time></trkpt><trkpt lat="45.8898914546487" lon="9.480947089462683"><ele>1102.0</ele><time>2026-04-09T09:08:35Z</time></trkpt><trkpt lat="45.88980896760673" lon="9.481096509411044"><ele>1102.0</ele><time>2026-04-09T09:08:36Z</time></trkpt><trkpt lat="45.889732980709205" lon="9.48124036498748"><ele>1102.0</ele><time>2026-04-09T09:08:37Z</time></trkpt><trkpt lat="45.889664526780734" lon="9.481372276825777"><ele>1102.0</ele><time>2026-04-09T09:08:38Z</time></trkpt><trkpt lat="45.88959427179193" lon="9.481465305640958"><ele>1102.2</ele><time>2026-04-09T09:08:39Z</time></trkpt><trkpt lat="45.88951711027701" lon="9.481536691599352"><ele>1102.4</ele><time>2026-04-09T09:08:40Z</time></trkpt><trkpt lat="45.889447241295244" lon="9.481598280611626"><ele>1102.6</ele><time>2026-04-09T09:08:41Z</time></trkpt><trkpt lat="45.889369356761215" lon="9.481699964625372"><ele>1102.8</ele><time>2026-04-09T09:08:42Z</time></trkpt><trkpt lat="45.889290640755" lon="9.48184079029264"><ele>1103.0</ele><time>2026-04-09T09:08:43Z</time></trkpt><trkpt lat="45.889196994669845" lon="9.48197996491619"><ele>1100.6</ele><time>2026-04-09T09:08:44Z</time></trkpt><trkpt lat="45.88911022102306" lon="9.482092366442426"><ele>1098.1999999999998</ele><time>2026-04-09T09:08:45Z</time></trkpt><trkpt lat="45.88902599663896" lon="9.482179116010947"><ele>1095.8</ele><time>2026-04-09T09:08:46Z</time></trkpt><trkpt lat="45.88896056675109" lon="9.482288197046474"><ele>1093.3999999999999</ele><time>2026-04-09T09:08:47Z</time></trkpt><trkpt lat="45.88892176664259" lon="9.482386872006677"><ele>1091.0</ele><time>2026-04-09T09:08:48Z</time></trkpt><trkpt lat="45.88891241142492" lon="9.482511121558979"><ele>1091.0</ele><time>2026-04-09T09:08:49Z</time></trkpt><trkpt lat="45.88892336908231" lon="9.482628117981092"><ele>1091.0</ele><time>2026-04-09T09:08:50Z</time></trkpt><trkpt lat="45.88891278303556" lon="9.482728873336251"><ele>1091.0</ele><time>2026-04-09T09:08:51Z</time></trkpt><trkpt lat="45.8888712321901" lon="9.482804758478402"><ele>1091.0</ele><time>2026-04-09T09:08:52Z</time></trkpt><trkpt lat="45.888801429040356" lon="9.48285872330914"><ele>1091.0</ele><time>2026-04-09T09:08:53Z</time></trkpt><trkpt lat="45.88870777160923" lon="9.482928309167393"><ele>1091.0</ele><time>2026-04-09T09:08:54Z</time></trkpt><trkpt lat="45.88861116757196" lon="9.48302899890407"><ele>1090.0</ele><time>2026-04-09T09:08:55Z</time></trkpt><trkpt lat="45.88850808056856" lon="9.483139062002975"><ele>1089.0</ele><time>2026-04-09T09:08:56Z</time></trkpt><trkpt lat="45.88840699082204" lon="9.483223615049576"><ele>1088.0</ele><time>2026-04-09T09:08:57Z</time></trkpt><trkpt lat="45.888316290034965" lon="9.483321761667037"><ele>1087.0</ele><time>2026-04-09T09:08:58Z</time></trkpt><trkpt lat="45.88824689129343" lon="9.483424212942918"><ele>1087.0</ele><time>2026-04-09T09:08:59Z</time></trkpt><trkpt lat="45.888189486804" lon="9.483494317207157"><ele>1087.0</ele><time>2026-04-09T09:09:00Z</time></trkpt><trkpt lat="45.8880629623953" lon="9.483494498035185"><ele>1087.0</ele><time>2026-04-09T09:09:02Z</time></trkpt><trkpt lat="45.88794803301134" lon="9.483565853909361"><ele>1087.0</ele><time>2026-04-09T09:09:04Z</time></trkpt><trkpt lat="45.88792021458414" lon="9.483673396351566"><ele>1087.0</ele><time>2026-04-09T09:09:05Z</time></trkpt><trkpt lat="45.88788373093171" lon="9.483789274834846"><ele>1085.3333333333333</ele><time>2026-04-09T09:09:06Z</time></trkpt><trkpt lat="45.88783132058232" lon="9.48387807246542"><ele>1083.6666666666665</ele><time>2026-04-09T09:09:07Z</time></trkpt><trkpt lat="45.88775140793609" lon="9.483938337055802"><ele>1082.0</ele><time>2026-04-09T09:09:08Z</time></trkpt><trkpt lat="45.88766980896882" lon="9.484026185080467"><ele>1080.3333333333333</ele><time>2026-04-09T09:09:09Z</time></trkpt><trkpt lat="45.887612586695056" lon="9.484121160408682"><ele>1078.6666666666667</ele><time>2026-04-09T09:09:10Z</time></trkpt><trkpt lat="45.887572908492075" lon="9.484201074088551"><ele>1077.0</ele><time>2026-04-09T09:09:11Z</time></trkpt><trkpt lat="45.88748808716015" lon="9.484158478494418"><ele>1077.0</ele><time>2026-04-09T09:09:14Z</time></trkpt><trkpt lat="45.88755147835045" lon="9.484001714019751"><ele>1077.0</ele><time>2026-04-09T09:09:16Z</time></trkpt><trkpt lat="45.88762207107743" lon="9.48393300356055"><ele>1077.0</ele><time>2026-04-09T09:09:17Z</time></trkpt><trkpt lat="45.88769025607047" lon="9.483829558891532"><ele>1077.0</ele><time>2026-04-09T09:09:18Z</time></trkpt><trkpt lat="45.88775197618449" lon="9.483740324924923"><ele>1077.0</ele><time>2026-04-09T09:09:19Z</time></trkpt><trkpt lat="45.88779094739175" lon="9.483639976755397"><ele>1078.6666666666667</ele><time>2026-04-09T09:09:20Z</time></trkpt><trkpt lat="45.887809534469795" lon="9.48351910385355"><ele>1080.3333333333333</ele><time>2026-04-09T09:09:21Z</time></trkpt><trkpt lat="45.88782025935983" lon="9.483377610822469"><ele>1082.0</ele><time>2026-04-09T09:09:22Z</time></trkpt><trkpt lat="45.887866583647536" lon="9.48326157829909"><ele>1083.6666666666665</ele><time>2026-04-09T09:09:23Z</time></trkpt><trkpt lat="45.88792002495669" lon="9.483168558988837"><ele>1085.3333333333333</ele><time>2026-04-09T09:09:24Z</time></trkpt><trkpt lat="45.88797626124486" lon="9.48310701954232"><ele>1087.0</ele><time>2026-04-09T09:09:25Z</time></trkpt><trkpt lat="45.88803737879875" lon="9.483068982556768"><ele>1087.0</ele><time>2026-04-09T09:09:26Z</time></trkpt><trkpt lat="45.88810235180573" lon="9.483006432654705"><ele>1087.0</ele><time>2026-04-09T09:09:27Z</time></trkpt><trkpt lat="45.88816404029292" lon="9.48288766334893"><ele>1087.0</ele><time>2026-04-09T09:09:28Z</time></trkpt><trkpt lat="45.888229487767646" lon="9.482740997848556"><ele>1087.0</ele><time>2026-04-09T09:09:29Z</time></trkpt><trkpt lat="45.88827809669819" lon="9.482598548820127"><ele>1087.0</ele><time>2026-04-09T09:09:30Z</time></trkpt><trkpt lat="45.88831825234831" lon="9.482445642482114"><ele>1086.25</ele><time>2026-04-09T09:09:31Z</time></trkpt><trkpt lat="45.88835962737055" lon="9.482281028233603"><ele>1085.5</ele><time>2026-04-09T09:09:32Z</time></trkpt><trkpt lat="45.88839505945504" lon="9.482104597518404"><ele>1084.75</ele><time>2026-04-09T09:09:33Z</time></trkpt><trkpt lat="45.88845129501795" lon="9.48193643006808"><ele>1084.0</ele><time>2026-04-09T09:09:34Z</time></trkpt><trkpt lat="45.888504738794644" lon="9.481760830944953"><ele>1084.0</ele><time>2026-04-09T09:09:35Z</time></trkpt><trkpt lat="45.888563071821544" lon="9.481592046433063"><ele>1084.0</ele><time>2026-04-09T09:09:36Z</time></trkpt><trkpt lat="45.88862819026587" lon="9.481417913905663"><ele>1084.0</ele><time>2026-04-09T09:09:37Z</time></trkpt><trkpt lat="45.88868320246512" lon="9.48125246798055"><ele>1084.0</ele><time>2026-04-09T09:09:38Z</time></trkpt><trkpt lat="45.88873081544773" lon="9.481094967161603"><ele>1080.6000000000001</ele><time>2026-04-09T09:09:39Z</time></trkpt><trkpt lat="45.88877491779601" lon="9.480959084508854"><ele>1077.2</ele><time>2026-04-09T09:09:40Z</time></trkpt><trkpt lat="45.88882181282413" lon="9.480840480800797"><ele>1073.8000000000002</ele><time>2026-04-09T09:09:41Z</time></trkpt><trkpt lat="45.88888140237528" lon="9.480747101340434"><ele>1070.4</ele><time>2026-04-09T09:09:42Z</time></trkpt><trkpt lat="45.88896458987841" lon="9.480666386682593"><ele>1067.0</ele><time>2026-04-09T09:09:43Z</time></trkpt><trkpt lat="45.889051431154606" lon="9.480569699645438"><ele>1067.0</ele><time>2026-04-09T09:09:44Z</time></trkpt><trkpt lat="45.88912298069432" lon="9.480474614737536"><ele>1067.0</ele><time>2026-04-09T09:09:45Z</time></trkpt><trkpt lat="45.88918240948161" lon="9.48039415376383"><ele>1067.0</ele><time>2026-04-09T09:09:46Z</time></trkpt><trkpt lat="45.889220542097824" lon="9.480315451857718"><ele>1067.0</ele><time>2026-04-09T09:09:47Z</time></trkpt><trkpt lat="45.8892120000745" lon="9.480157239580436"><ele>1067.0</ele><time>2026-04-09T09:09:49Z</time></trkpt><trkpt lat="45.88910908718662" lon="9.480095832410532"><ele>1066.2</ele><time>2026-04-09T09:09:51Z</time></trkpt><trkpt lat="45.88901979489338" lon="9.480114465556532"><ele>1065.4</ele><time>2026-04-09T09:09:52Z</time></trkpt><trkpt lat="45.888919913487555" lon="9.48012697429666"><ele>1064.6</ele><time>2026-04-09T09:09:53Z</time></trkpt><trkpt lat="45.888804233882155" lon="9.480129237499481"><ele>1063.8</ele><time>2026-04-09T09:09:54Z</time></trkpt><trkpt lat="45.888683260675734" lon="9.480111524515722"><ele>1063.0</ele><time>2026-04-09T09:09:55Z</time></trkpt><trkpt lat="45.88856772108254" lon="9.480095755215373"><ele>1063.0</ele><time>2026-04-09T09:09:56Z</time></trkpt><trkpt lat="45.88845542394378" lon="9.480081602585356"><ele>1063.0</ele><time>2026-04-09T09:09:57Z</time></trkpt><trkpt lat="45.88834662665088" lon="9.480087389731384"><ele>1063.0</ele><time>2026-04-09T09:09:58Z</time></trkpt><trkpt lat="45.88824163320545" lon="9.48013902813005"><ele>1063.0</ele><time>2026-04-09T09:09:59Z</time></trkpt><trkpt lat="45.888139187693035" lon="9.48022156346926"><ele>1060.0</ele><time>2026-04-09T09:10:00Z</time></trkpt><trkpt lat="45.88804049432177" lon="9.480317247767154"><ele>1057.0</ele><time>2026-04-09T09:10:01Z</time></trkpt><trkpt lat="45.887951417679226" lon="9.480402727383142"><ele>1054.0</ele><time>2026-04-09T09:10:02Z</time></trkpt><trkpt lat="45.887871166535184" lon="9.480474744260913"><ele>1051.0</ele><time>2026-04-09T09:10:03Z</time></trkpt><trkpt lat="45.88780143463723" lon="9.480526387274416"><ele>1048.0</ele><time>2026-04-09T09:10:04Z</time></trkpt><trkpt lat="45.887733254842566" lon="9.480558461930725"><ele>1047.8333333333333</ele><time>2026-04-09T09:10:05Z</time></trkpt><trkpt lat="45.88767001552753" lon="9.480564578861532"><ele>1047.6666666666665</ele><time>2026-04-09T09:10:06Z</time></trkpt><trkpt lat="45.88760485522484" lon="9.480558812703242"><ele>1047.5</ele><time>2026-04-09T09:10:07Z</time></trkpt><trkpt lat="45.88753679713755" lon="9.480531880470377"><ele>1047.3333333333333</ele><time>2026-04-09T09:10:08Z</time></trkpt><trkpt lat="45.887460016448955" lon="9.480473096314892"><ele>1047.1666666666667</ele><time>2026-04-09T09:10:09Z</time></trkpt><trkpt lat="45.887389041258096" lon="9.480409631937079"><ele>1047.0</ele><time>2026-04-09T09:10:10Z</time></trkpt><trkpt lat="45.88733359093774" lon="9.480322184307825"><ele>1048.0</ele><time>2026-04-09T09:10:11Z</time></trkpt><trkpt lat="45.88728758662327" lon="9.480216917027352"><ele>1049.0</ele><time>2026-04-09T09:10:12Z</time></trkpt><trkpt lat="45.88725606474099" lon="9.480084163359864"><ele>1050.0</ele><time>2026-04-09T09:10:13Z</time></trkpt><trkpt lat="45.88723542785106" lon="9.479947797260966"><ele>1051.0</ele><time>2026-04-09T09:10:14Z</time></trkpt><trkpt lat="45.88723813994823" lon="9.47979019007637"><ele>1052.0</ele><time>2026-04-09T09:10:15.001Z</time></trkpt><trkpt lat="45.887248187014315" lon="9.479614599068748"><ele>1054.0</ele><time>2026-04-09T09:10:16.001Z</time></trkpt><trkpt lat="45.8872460525726" lon="9.479421322455737"><ele>1056.0</ele><time>2026-04-09T09:10:17.001Z</time></trkpt><trkpt lat="45.8872162238497" lon="9.479228907459516"><ele>1058.0</ele><time>2026-04-09T09:10:18.001Z</time></trkpt><trkpt lat="45.88718630268745" lon="9.479043424991616"><ele>1060.0</ele><time>2026-04-09T09:10:19.001Z</time></trkpt><trkpt lat="45.88717192267371" lon="9.478887166665551"><ele>1062.8333333333333</ele><time>2026-04-09T09:10:20.001Z</time></trkpt><trkpt lat="45.88716692084766" lon="9.478761132496455"><ele>1065.6666666666665</ele><time>2026-04-09T09:10:21.001Z</time></trkpt><trkpt lat="45.88713426222394" lon="9.47867760990522"><ele>1068.5</ele><time>2026-04-09T09:10:22.001Z</time></trkpt><trkpt lat="45.88708354408083" lon="9.478617798311545"><ele>1071.3333333333333</ele><time>2026-04-09T09:10:23.001Z</time></trkpt><trkpt lat="45.887010759798265" lon="9.47856071466036"><ele>1074.1666666666667</ele><time>2026-04-09T09:10:24.001Z</time></trkpt><trkpt lat="45.886926703593275" lon="9.478500816852359"><ele>1077.0</ele><time>2026-04-09T09:10:25.001Z</time></trkpt><trkpt lat="45.886826572407735" lon="9.478467020678021"><ele>1074.0</ele><time>2026-04-09T09:10:26.001Z</time></trkpt><trkpt lat="45.886725835808996" lon="9.478445044945673"><ele>1071.0</ele><time>2026-04-09T09:10:27.001Z</time></trkpt><trkpt lat="45.886632885308615" lon="9.47841144131578"><ele>1068.0</ele><time>2026-04-09T09:10:28.001Z</time></trkpt><trkpt lat="45.88655575598741" lon="9.478370938549192"><ele>1065.0</ele><time>2026-04-09T09:10:29.001Z</time></trkpt><trkpt lat="45.886491246172326" lon="9.47837452723744"><ele>1062.0</ele><time>2026-04-09T09:10:30.001Z</time></trkpt><trkpt lat="45.88643430354608" lon="9.478414670220658"><ele>1059.0</ele><time>2026-04-09T09:10:31.001Z</time></trkpt><trkpt lat="45.88638446797388" lon="9.478495156946535"><ele>1059.0</ele><time>2026-04-09T09:10:32.001Z</time></trkpt><trkpt lat="45.88634232045926" lon="9.478617505030275"><ele>1059.0</ele><time>2026-04-09T09:10:33.001Z</time></trkpt><trkpt lat="45.88627702976043" lon="9.478742131660477"><ele>1059.0</ele><time>2026-04-09T09:10:34.001Z</time></trkpt><trkpt lat="45.886200863505636" lon="9.478868404916732"><ele>1059.0</ele><time>2026-04-09T09:10:35.001Z</time></trkpt><trkpt lat="45.88614098416459" lon="9.479022195862266"><ele>1059.0</ele><time>2026-04-09T09:10:36.001Z</time></trkpt><trkpt lat="45.88609042314716" lon="9.479175857701788"><ele>1055.8</ele><time>2026-04-09T09:10:37.001Z</time></trkpt><trkpt lat="45.886045588924475" lon="9.479316819587023"><ele>1052.6000000000001</ele><time>2026-04-09T09:10:38.001Z</time></trkpt><trkpt lat="45.886004096670234" lon="9.479441304795573"><ele>1049.4</ele><time>2026-04-09T09:10:39.001Z</time></trkpt><trkpt lat="45.885961713744116" lon="9.479535288683392"><ele>1046.2</ele><time>2026-04-09T09:10:40.001Z</time></trkpt><trkpt lat="45.88591524809095" lon="9.479597891167744"><ele>1043.0</ele><time>2026-04-09T09:10:41.001Z</time></trkpt><trkpt lat="45.88580711085529" lon="9.479586097518794"><ele>1043.0</ele><time>2026-04-09T09:10:43.001Z</time></trkpt><trkpt lat="45.88576318950233" lon="9.47950841310837"><ele>1043.0</ele><time>2026-04-09T09:10:44.001Z</time></trkpt><trkpt lat="45.88571192617591" lon="9.479408480055815"><ele>1043.0</ele><time>2026-04-09T09:10:45.001Z</time></trkpt><trkpt lat="45.88563926897966" lon="9.479305788214555"><ele>1043.0</ele><time>2026-04-09T09:10:46.001Z</time></trkpt><trkpt lat="45.885549081396825" lon="9.479200761099387"><ele>1043.0</ele><time>2026-04-09T09:10:47.001Z</time></trkpt><trkpt lat="45.88544955843346" lon="9.47910090507089"><ele>1043.0</ele><time>2026-04-09T09:10:48.001Z</time></trkpt><trkpt lat="45.88536139305644" lon="9.478978295799415"><ele>1043.0</ele><time>2026-04-09T09:10:49.001Z</time></trkpt><trkpt lat="45.88527215410339" lon="9.478873002522894"><ele>1043.0</ele><time>2026-04-09T09:10:50.001Z</time></trkpt><trkpt lat="45.885178783517624" lon="9.478803460706223"><ele>1043.0</ele><time>2026-04-09T09:10:51.001Z</time></trkpt><trkpt lat="45.88509456822799" lon="9.478759480587222"><ele>1043.0</ele><time>2026-04-09T09:10:52.001Z</time></trkpt><trkpt lat="45.885011433958645" lon="9.47870926167995"><ele>1045.3333333333335</ele><time>2026-04-09T09:10:53.001Z</time></trkpt><trkpt lat="45.88493169232263" lon="9.478667775739119"><ele>1047.6666666666667</ele><time>2026-04-09T09:10:54.001Z</time></trkpt><trkpt lat="45.884853252466876" lon="9.478642543616466"><ele>1050.0</ele><time>2026-04-09T09:10:55.001Z</time></trkpt><trkpt lat="45.88478168414298" lon="9.47864025459508"><ele>1052.3333333333333</ele><time>2026-04-09T09:10:56.001Z</time></trkpt><trkpt lat="45.88465730289234" lon="9.478619692606868"><ele>1054.6666666666665</ele><time>2026-04-09T09:10:58.001Z</time></trkpt><trkpt lat="45.88460484894262" lon="9.478566504181996"><ele>1057.0</ele><time>2026-04-09T09:10:59.001Z</time></trkpt><trkpt lat="45.8845616061097" lon="9.478475422351888"><ele>1057.0</ele><time>2026-04-09T09:11:00.001Z</time></trkpt><trkpt lat="45.88453008948082" lon="9.478347264425851"><ele>1057.0</ele><time>2026-04-09T09:11:01.001Z</time></trkpt><trkpt lat="45.88449074019052" lon="9.478203956141659"><ele>1057.0</ele><time>2026-04-09T09:11:02.001Z</time></trkpt><trkpt lat="45.88444751268073" lon="9.478075420154306"><ele>1057.0</ele><time>2026-04-09T09:11:03.001Z</time></trkpt><trkpt lat="45.88441806834774" lon="9.477970672461867"><ele>1057.0</ele><time>2026-04-09T09:11:04.001Z</time></trkpt><trkpt lat="45.88437624073853" lon="9.477900513198808"><ele>1057.0</ele><time>2026-04-09T09:11:05.001Z</time></trkpt><trkpt lat="45.88425732781788" lon="9.477902114988701"><ele>1054.8333333333333</ele><time>2026-04-09T09:11:07.001Z</time></trkpt><trkpt lat="45.88418645177446" lon="9.477971580623333"><ele>1052.6666666666665</ele><time>2026-04-09T09:11:08.001Z</time></trkpt><trkpt lat="45.88411355619225" lon="9.478065067005065"><ele>1050.5</ele><time>2026-04-09T09:11:09.001Z</time></trkpt><trkpt lat="45.88404307432078" lon="9.478163075328437"><ele>1048.3333333333333</ele><time>2026-04-09T09:11:10.001Z</time></trkpt><trkpt lat="45.88396151225909" lon="9.478214399071854"><ele>1046.1666666666667</ele><time>2026-04-09T09:11:11.001Z</time></trkpt><trkpt lat="45.88389052467053" lon="9.478246828596456"><ele>1044.0</ele><time>2026-04-09T09:11:12.001Z</time></trkpt><trkpt lat="45.88381548698662" lon="9.478236119837934"><ele>1044.0</ele><time>2026-04-09T09:11:13.001Z</time></trkpt><trkpt lat="45.88374669465578" lon="9.47822677873211"><ele>1044.0</ele><time>2026-04-09T09:11:14.001Z</time></trkpt><trkpt lat="45.88366033047777" lon="9.478334563592036"><ele>1044.0</ele><time>2026-04-09T09:11:16.001Z</time></trkpt><trkpt lat="45.883653140292665" lon="9.478424817076634"><ele>1044.0</ele><time>2026-04-09T09:11:17.001Z</time></trkpt><trkpt lat="45.88368389321403" lon="9.47851053768287"><ele>1044.0</ele><time>2026-04-09T09:11:18.001Z</time></trkpt><trkpt lat="45.883740880937566" lon="9.4785814577619"><ele>1044.0</ele><time>2026-04-09T09:11:19.001Z</time></trkpt><trkpt lat="45.88380434106984" lon="9.478651250097395"><ele>1044.0</ele><time>2026-04-09T09:11:20.001Z</time></trkpt><trkpt lat="45.88387560565434" lon="9.478723730481478"><ele>1044.0</ele><time>2026-04-09T09:11:21.001Z</time></trkpt><trkpt lat="45.88392370952055" lon="9.478809824922969"><ele>1044.0</ele><time>2026-04-09T09:11:22.001Z</time></trkpt><trkpt lat="45.88394819071004" lon="9.47890156284636"><ele>1044.0</ele><time>2026-04-09T09:11:23.001Z</time></trkpt><trkpt lat="45.88395472374315" lon="9.479004959758337"><ele>1044.0</ele><time>2026-04-09T09:11:24.001Z</time></trkpt><trkpt lat="45.88392800018599" lon="9.479115957244474"><ele>1044.0</ele><time>2026-04-09T09:11:25.001Z</time></trkpt><trkpt lat="45.88388798483256" lon="9.479226357173523"><ele>1041.2</ele><time>2026-04-09T09:11:26.001Z</time></trkpt><trkpt lat="45.88385636605377" lon="9.479354701879263"><ele>1038.4</ele><time>2026-04-09T09:11:27.001Z</time></trkpt><trkpt lat="45.88385157273994" lon="9.479494648571318"><ele>1035.6</ele><time>2026-04-09T09:11:28.001Z</time></trkpt><trkpt lat="45.88386704043637" lon="9.479638639142156"><ele>1032.8</ele><time>2026-04-09T09:11:29.001Z</time></trkpt><trkpt lat="45.883869926304094" lon="9.479781125647285"><ele>1030.0</ele><time>2026-04-09T09:11:30.001Z</time></trkpt><trkpt lat="45.883858296673125" lon="9.479900140218373"><ele>1029.8333333333333</ele><time>2026-04-09T09:11:31.001Z</time></trkpt><trkpt lat="45.883830748241955" lon="9.480019074703396"><ele>1029.6666666666665</ele><time>2026-04-09T09:11:32.001Z</time></trkpt><trkpt lat="45.8837915922947" lon="9.480121274069617"><ele>1029.5</ele><time>2026-04-09T09:11:33.001Z</time></trkpt><trkpt lat="45.88373164206637" lon="9.480221900186558"><ele>1029.3333333333333</ele><time>2026-04-09T09:11:34.001Z</time></trkpt><trkpt lat="45.883659999119004" lon="9.480311468164743"><ele>1029.1666666666667</ele><time>2026-04-09T09:11:35.001Z</time></trkpt><trkpt lat="45.883612159561686" lon="9.480412062642447"><ele>1029.0</ele><time>2026-04-09T09:11:36.001Z</time></trkpt><trkpt lat="45.883595556088736" lon="9.480512524693399"><ele>1029.0</ele><time>2026-04-09T09:11:37.001Z</time></trkpt><trkpt lat="45.883601089144406" lon="9.480614680473682"><ele>1029.0</ele><time>2026-04-09T09:11:38.001Z</time></trkpt><trkpt lat="45.883636696159954" lon="9.480713309693456"><ele>1029.0</ele><time>2026-04-09T09:11:39.001Z</time></trkpt><trkpt lat="45.8836991363407" lon="9.48079558672759"><ele>1029.0</ele><time>2026-04-09T09:11:40.001Z</time></trkpt><trkpt lat="45.883758726867114" lon="9.480878258549255"><ele>1029.0</ele><time>2026-04-09T09:11:41.002Z</time></trkpt><trkpt lat="45.883799399205344" lon="9.480961321557906"><ele>1029.0</ele><time>2026-04-09T09:11:42.002Z</time></trkpt><trkpt lat="45.88382173374541" lon="9.481078028229465"><ele>1029.0</ele><time>2026-04-09T09:11:43.002Z</time></trkpt><trkpt lat="45.88381864081348" lon="9.481212594510176"><ele>1029.0</ele><time>2026-04-09T09:11:44.002Z</time></trkpt><trkpt lat="45.883822562983696" lon="9.481375739763951"><ele>1029.0</ele><time>2026-04-09T09:11:45.002Z</time></trkpt><trkpt lat="45.88379116136241" lon="9.481533963333174"><ele>1029.0</ele><time>2026-04-09T09:11:46.002Z</time></trkpt><trkpt lat="45.88375629720538" lon="9.481710169302971"><ele>1029.0</ele><time>2026-04-09T09:11:47.002Z</time></trkpt><trkpt lat="45.883715801836026" lon="9.4819065720153"><ele>1029.25</ele><time>2026-04-09T09:11:48.002Z</time></trkpt><trkpt lat="45.88365079621271" lon="9.48211970211244"><ele>1029.5</ele><time>2026-04-09T09:11:49.001Z</time></trkpt><trkpt lat="45.88360916348039" lon="9.482324479047524"><ele>1029.75</ele><time>2026-04-09T09:11:50.001Z</time></trkpt><trkpt lat="45.88357868485438" lon="9.482507217438451"><ele>1030.0</ele><time>2026-04-09T09:11:51.001Z</time></trkpt><trkpt lat="45.88354868399028" lon="9.482698594249523"><ele>1030.0</ele><time>2026-04-09T09:11:52.001Z</time></trkpt><trkpt lat="45.88354217317258" lon="9.482869510635114"><ele>1030.0</ele><time>2026-04-09T09:11:53.001Z</time></trkpt><trkpt lat="45.88352280464712" lon="9.483037937988623"><ele>1030.0</ele><time>2026-04-09T09:11:54.001Z</time></trkpt><trkpt lat="45.883508737800234" lon="9.483176199110206"><ele>1030.0</ele><time>2026-04-09T09:11:55.001Z</time></trkpt><trkpt lat="45.88347085416956" lon="9.48330708096576"><ele>1030.0</ele><time>2026-04-09T09:11:56.001Z</time></trkpt><trkpt lat="45.883421922089724" lon="9.483433525471662"><ele>1033.25</ele><time>2026-04-09T09:11:57.001Z</time></trkpt><trkpt lat="45.88336013752779" lon="9.483554815222043"><ele>1036.5</ele><time>2026-04-09T09:11:58.001Z</time></trkpt><trkpt lat="45.883269115022685" lon="9.483679788464332"><ele>1039.75</ele><time>2026-04-09T09:11:59.001Z</time></trkpt><trkpt lat="45.88317281445229" lon="9.483824088265798"><ele>1043.0</ele><time>2026-04-09T09:12:00.001Z</time></trkpt><trkpt lat="45.883087652489415" lon="9.483992901710682"><ele>1043.0</ele><time>2026-04-09T09:12:01.001Z</time></trkpt><trkpt lat="45.88301534550542" lon="9.484165377296586"><ele>1043.0</ele><time>2026-04-09T09:12:02.001Z</time></trkpt><trkpt lat="45.88293387437656" lon="9.484328718184038"><ele>1043.0</ele><time>2026-04-09T09:12:03.001Z</time></trkpt><trkpt lat="45.88284252753092" lon="9.484482291105522"><ele>1043.0</ele><time>2026-04-09T09:12:04.001Z</time></trkpt><trkpt lat="45.8827540886454" lon="9.484630883096795"><ele>1046.25</ele><time>2026-04-09T09:12:05.001Z</time></trkpt><trkpt lat="45.8826620791919" lon="9.484748953872035"><ele>1049.5</ele><time>2026-04-09T09:12:06.001Z</time></trkpt><trkpt lat="45.882587560775725" lon="9.484876237765354"><ele>1052.75</ele><time>2026-04-09T09:12:07.001Z</time></trkpt><trkpt lat="45.882508236556546" lon="9.48498483373537"><ele>1056.0</ele><time>2026-04-09T09:12:08.001Z</time></trkpt><trkpt lat="45.8824222336047" lon="9.48509133373744"><ele>1056.0</ele><time>2026-04-09T09:12:09.001Z</time></trkpt><trkpt lat="45.88233415064662" lon="9.48517592818501"><ele>1056.0</ele><time>2026-04-09T09:12:10.001Z</time></trkpt><trkpt lat="45.88225272582244" lon="9.485252861900697"><ele>1056.0</ele><time>2026-04-09T09:12:11.001Z</time></trkpt><trkpt lat="45.88217482907849" lon="9.485334327798002"><ele>1056.0</ele><time>2026-04-09T09:12:12.001Z</time></trkpt><trkpt lat="45.882111729578284" lon="9.485347174853027"><ele>1056.0</ele><time>2026-04-09T09:12:13.001Z</time></trkpt><trkpt lat="45.8820208297387" lon="9.485349783012278"><ele>1056.0</ele><time>2026-04-09T09:12:15.001Z</time></trkpt><trkpt lat="45.881963878631765" lon="9.485241322033525"><ele>1056.0</ele><time>2026-04-09T09:12:17.001Z</time></trkpt><trkpt lat="45.881952655505586" lon="9.48514401386125"><ele>1056.0</ele><time>2026-04-09T09:12:18.001Z</time></trkpt><trkpt lat="45.88195039393305" lon="9.485030413683461"><ele>1056.0</ele><time>2026-04-09T09:12:19.001Z</time></trkpt><trkpt lat="45.881933308605156" lon="9.484893514710185"><ele>1056.0</ele><time>2026-04-09T09:12:20.001Z</time></trkpt><trkpt lat="45.88191240651456" lon="9.484746226057968"><ele>1056.0</ele><time>2026-04-09T09:12:21.001Z</time></trkpt><trkpt lat="45.88188638335143" lon="9.48461081050792"><ele>1058.2857142857142</ele><time>2026-04-09T09:12:22.001Z</time></trkpt><trkpt lat="45.88186579076642" lon="9.484489475321856"><ele>1060.5714285714287</ele><time>2026-04-09T09:12:23.001Z</time></trkpt><trkpt lat="45.88184058314854" lon="9.484397242470063"><ele>1062.857142857143</ele><time>2026-04-09T09:12:24.001Z</time></trkpt><trkpt lat="45.88179553565787" lon="9.484322019152799"><ele>1065.142857142857</ele><time>2026-04-09T09:12:25.001Z</time></trkpt><trkpt lat="45.88173175226651" lon="9.484282621799338"><ele>1067.4285714285713</ele><time>2026-04-09T09:12:26.001Z</time></trkpt><trkpt lat="45.881662664842366" lon="9.484318511548398"><ele>1069.7142857142858</ele><time>2026-04-09T09:12:27.001Z</time></trkpt><trkpt lat="45.881587498795135" lon="9.484343151698186"><ele>1072.0</ele><time>2026-04-09T09:12:28.001Z</time></trkpt><trkpt lat="45.88151515487091" lon="9.484406426049699"><ele>1073.0</ele><time>2026-04-09T09:12:29.001Z</time></trkpt><trkpt lat="45.88143890006122" lon="9.48444186710679"><ele>1074.0</ele><time>2026-04-09T09:12:30.001Z</time></trkpt><trkpt lat="45.881351513138746" lon="9.484468951947266"><ele>1075.0</ele><time>2026-04-09T09:12:31.001Z</time></trkpt><trkpt lat="45.88124701419389" lon="9.484449650733968"><ele>1076.0</ele><time>2026-04-09T09:12:32.001Z</time></trkpt><trkpt lat="45.88114292761677" lon="9.48444363451563"><ele>1077.0</ele><time>2026-04-09T09:12:33.001Z</time></trkpt><trkpt lat="45.88104162886504" lon="9.484460626143159"><ele>1077.0</ele><time>2026-04-09T09:12:34.001Z</time></trkpt><trkpt lat="45.88093661290373" lon="9.484499074958219"><ele>1077.0</ele><time>2026-04-09T09:12:35.001Z</time></trkpt><trkpt lat="45.880831732627385" lon="9.484553931191693"><ele>1077.0</ele><time>2026-04-09T09:12:36.001Z</time></trkpt><trkpt lat="45.88071791852038" lon="9.484624638704558"><ele>1077.0</ele><time>2026-04-09T09:12:37.001Z</time></trkpt><trkpt lat="45.88061206619394" lon="9.484674863729722"><ele>1073.4</ele><time>2026-04-09T09:12:38.001Z</time></trkpt><trkpt lat="45.88051630436926" lon="9.484728327618395"><ele>1069.8000000000002</ele><time>2026-04-09T09:12:39.001Z</time></trkpt><trkpt lat="45.880421288041504" lon="9.484755593768378"><ele>1066.2</ele><time>2026-04-09T09:12:40.001Z</time></trkpt><trkpt lat="45.88030502972368" lon="9.484762813694774"><ele>1062.6000000000001</ele><time>2026-04-09T09:12:41.001Z</time></trkpt><trkpt lat="45.880186358683474" lon="9.484758200577758"><ele>1059.0</ele><time>2026-04-09T09:12:42.001Z</time></trkpt><trkpt lat="45.8800451216592" lon="9.484782540432892"><ele>1059.0</ele><time>2026-04-09T09:12:43.001Z</time></trkpt><trkpt lat="45.87991830080882" lon="9.484824804263189"><ele>1059.0</ele><time>2026-04-09T09:12:44.001Z</time></trkpt><trkpt lat="45.87980375040207" lon="9.484888965987642"><ele>1059.0</ele><time>2026-04-09T09:12:45.001Z</time></trkpt><trkpt lat="45.879692442279776" lon="9.484959605710799"><ele>1059.0</ele><time>2026-04-09T09:12:46.001Z</time></trkpt><trkpt lat="45.879593391903754" lon="9.485014805544154"><ele>1059.0</ele><time>2026-04-09T09:12:47.001Z</time></trkpt><trkpt lat="45.87949403867173" lon="9.485063257788703"><ele>1059.0</ele><time>2026-04-09T09:12:48.001Z</time></trkpt><trkpt lat="45.8793936821583" lon="9.48510013952414"><ele>1059.0</ele><time>2026-04-09T09:12:49.001Z</time></trkpt><trkpt lat="45.87929929453315" lon="9.485110423716934"><ele>1059.0</ele><time>2026-04-09T09:12:50.001Z</time></trkpt><trkpt lat="45.87921523829801" lon="9.485102510165666"><ele>1059.0</ele><time>2026-04-09T09:12:51.001Z</time></trkpt><trkpt lat="45.879138093729026" lon="9.485077005834539"><ele>1061.0</ele><time>2026-04-09T09:12:52.001Z</time></trkpt><trkpt lat="45.87905717032025" lon="9.485057360438066"><ele>1063.0</ele><time>2026-04-09T09:12:53.001Z</time></trkpt><trkpt lat="45.87897294686485" lon="9.485015852608534"><ele>1065.0</ele><time>2026-04-09T09:12:54.001Z</time></trkpt><trkpt lat="45.87889168501737" lon="9.48498109220394"><ele>1067.0</ele><time>2026-04-09T09:12:55.001Z</time></trkpt><trkpt lat="45.87881497353499" lon="9.484951339918332"><ele>1069.0</ele><time>2026-04-09T09:12:56.001Z</time></trkpt><trkpt lat="45.878748526741944" lon="9.484924022867244"><ele>1071.0</ele><time>2026-04-09T09:12:57.001Z</time></trkpt><trkpt lat="45.87867023658414" lon="9.48491851341834"><ele>1071.0</ele><time>2026-04-09T09:12:59.001Z</time></trkpt><trkpt lat="45.87860279412353" lon="9.48494926245808"><ele>1071.0</ele><time>2026-04-09T09:13:01.001Z</time></trkpt><trkpt lat="45.87853197131929" lon="9.484920920360283"><ele>1071.0</ele><time>2026-04-09T09:13:04.001Z</time></trkpt><trkpt lat="45.87846694700606" lon="9.48491717163018"><ele>1071.0</ele><time>2026-04-09T09:13:07.001Z</time></trkpt><trkpt lat="45.87842057317562" lon="9.484835935065782"><ele>1071.0</ele><time>2026-04-09T09:26:43.998Z</time></trkpt><trkpt lat="45.878376414843615" lon="9.484722741777876"><ele>1071.0</ele><time>2026-04-09T09:26:46.998Z</time></trkpt><trkpt lat="45.87831616373038" lon="9.484671294718034"><ele>1071.0</ele><time>2026-04-09T09:26:48.998Z</time></trkpt><trkpt lat="45.878230515468715" lon="9.484592600618752"><ele>1072.3333333333333</ele><time>2026-04-09T09:26:50.998Z</time></trkpt><trkpt lat="45.878167584320295" lon="9.484560670856922"><ele>1073.6666666666667</ele><time>2026-04-09T09:26:51.998Z</time></trkpt><trkpt lat="45.878045425334896" lon="9.484531560742392"><ele>1075.0</ele><time>2026-04-09T09:26:53.998Z</time></trkpt><trkpt lat="45.877983421267274" lon="9.484509421742757"><ele>1076.3333333333335</ele><time>2026-04-09T09:26:54.998Z</time></trkpt><trkpt lat="45.87792413641958" lon="9.484456562527967"><ele>1077.6666666666667</ele><time>2026-04-09T09:26:55.998Z</time></trkpt><trkpt lat="45.87787083942182" lon="9.48438924738333"><ele>1079.0</ele><time>2026-04-09T09:26:56.998Z</time></trkpt><trkpt lat="45.877822223428716" lon="9.484310564016559"><ele>1079.0</ele><time>2026-04-09T09:26:57.998Z</time></trkpt><trkpt lat="45.87777963788183" lon="9.484215644123397"><ele>1079.0</ele><time>2026-04-09T09:26:58.998Z</time></trkpt><trkpt lat="45.877736203628324" lon="9.484115744688058"><ele>1079.0</ele><time>2026-04-09T09:26:59.998Z</time></trkpt><trkpt lat="45.87768949043624" lon="9.48401132174057"><ele>1079.0</ele><time>2026-04-09T09:27:00.998Z</time></trkpt><trkpt lat="45.87763596983601" lon="9.483908181188239"><ele>1079.0</ele><time>2026-04-09T09:27:01.998Z</time></trkpt><trkpt lat="45.87758133674236" lon="9.48381413256219"><ele>1079.0</ele><time>2026-04-09T09:27:02.998Z</time></trkpt><trkpt lat="45.877526133063526" lon="9.483727124653797"><ele>1076.5</ele><time>2026-04-09T09:27:03.998Z</time></trkpt><trkpt lat="45.877472678035936" lon="9.483642973065516"><ele>1074.0</ele><time>2026-04-09T09:27:04.998Z</time></trkpt><trkpt lat="45.87741932167536" lon="9.483557985582248"><ele>1071.5</ele><time>2026-04-09T09:27:05.998Z</time></trkpt><trkpt lat="45.87736667037605" lon="9.483487699598147"><ele>1069.0</ele><time>2026-04-09T09:27:06.998Z</time></trkpt><trkpt lat="45.87726895084383" lon="9.483392771458865"><ele>1066.5</ele><time>2026-04-09T09:27:08.998Z</time></trkpt><trkpt lat="45.877205783671826" lon="9.483335656274578"><ele>1064.0</ele><time>2026-04-09T09:27:10.998Z</time></trkpt><trkpt lat="45.87714395074349" lon="9.483300057889787"><ele>1064.0</ele><time>2026-04-09T09:27:13.999Z</time></trkpt><trkpt lat="45.87706449529376" lon="9.48328408587185"><ele>1064.0</ele><time>2026-04-09T09:27:16.999Z</time></trkpt><trkpt lat="45.87697436969854" lon="9.483215886386242"><ele>1064.0</ele><time>2026-04-09T09:27:18.999Z</time></trkpt><trkpt lat="45.87687552690288" lon="9.48315414221472"><ele>1064.0</ele><time>2026-04-09T09:27:20.999Z</time></trkpt><trkpt lat="45.87677124877573" lon="9.483123075676533"><ele>1064.0</ele><time>2026-04-09T09:27:22.999Z</time></trkpt><trkpt lat="45.87665341123309" lon="9.48310510842296"><ele>1062.6000000000001</ele><time>2026-04-09T09:27:24.999Z</time></trkpt><trkpt lat="45.87652877343929" lon="9.483073657750102"><ele>1061.2</ele><time>2026-04-09T09:27:26.999Z</time></trkpt><trkpt lat="45.87641375479931" lon="9.483020165775788"><ele>1059.8000000000002</ele><time>2026-04-09T09:27:28.999Z</time></trkpt><trkpt lat="45.876347126310385" lon="9.482932637885469"><ele>1058.4</ele><time>2026-04-09T09:27:30.999Z</time></trkpt><trkpt lat="45.87627530042829" lon="9.482897981461994"><ele>1057.0</ele><time>2026-04-09T09:27:32.999Z</time></trkpt><trkpt lat="45.87620055103754" lon="9.482904819252354"><ele>1057.0</ele><time>2026-04-09T09:27:34.999Z</time></trkpt><trkpt lat="45.8761382875581" lon="9.482868627511406"><ele>1057.0</ele><time>2026-04-09T09:27:37.999Z</time></trkpt><trkpt lat="45.87613679640119" lon="9.482762447022193"><ele>1057.0</ele><time>2026-04-09T09:27:39.999Z</time></trkpt><trkpt lat="45.87616662608885" lon="9.482585435996072"><ele>1057.0</ele><time>2026-04-09T09:27:41.999Z</time></trkpt><trkpt lat="45.87616092879351" lon="9.482485967311515"><ele>1057.0</ele><time>2026-04-09T09:27:42.999Z</time></trkpt><trkpt lat="45.87610912835223" lon="9.48233716755617"><ele>1057.0</ele><time>2026-04-09T09:27:44.999Z</time></trkpt><trkpt lat="45.87604220219314" lon="9.482194460291563"><ele>1057.0</ele><time>2026-04-09T09:27:46.999Z</time></trkpt><trkpt lat="45.87602616109284" lon="9.482106035803756"><ele>1057.0</ele><time>2026-04-09T09:27:47.999Z</time></trkpt><trkpt lat="45.87602608200136" lon="9.482008773438187"><ele>1057.0</ele><time>2026-04-09T09:27:48.999Z</time></trkpt><trkpt lat="45.87598940941286" lon="9.481861432862807"><ele>1057.0</ele><time>2026-04-09T09:27:50.999Z</time></trkpt><trkpt lat="45.87590072236399" lon="9.481779090889095"><ele>1054.3333333333333</ele><time>2026-04-09T09:27:52.999Z</time></trkpt><trkpt lat="45.875808271316515" lon="9.481791371410573"><ele>1051.6666666666665</ele><time>2026-04-09T09:27:54.999Z</time></trkpt><trkpt lat="45.87574715972331" lon="9.481831319779976"><ele>1049.0</ele><time>2026-04-09T09:27:55.999Z</time></trkpt><trkpt lat="45.87568700499423" lon="9.481892689515291"><ele>1046.3333333333333</ele><time>2026-04-09T09:27:56.999Z</time></trkpt><trkpt lat="45.87563316789704" lon="9.481944373347734"><ele>1043.6666666666667</ele><time>2026-04-09T09:27:57.999Z</time></trkpt><trkpt lat="45.87556228029776" lon="9.482011695164967"><ele>1041.0</ele><time>2026-04-09T09:27:59.999Z</time></trkpt><trkpt lat="45.8754554326942" lon="9.481995487295972"><ele>1041.0</ele><time>2026-04-09T09:28:01.999Z</time></trkpt><trkpt lat="45.87538341914395" lon="9.481977374776152"><ele>1041.0</ele><time>2026-04-09T09:28:02.999Z</time></trkpt><trkpt lat="45.87531433463184" lon="9.481950338135135"><ele>1041.0</ele><time>2026-04-09T09:28:03.999Z</time></trkpt><trkpt lat="45.875237091570305" lon="9.481929700164914"><ele>1041.0</ele><time>2026-04-09T09:28:04.999Z</time></trkpt><trkpt lat="45.87516095986526" lon="9.481916745229755"><ele>1041.0</ele><time>2026-04-09T09:28:05.999Z</time></trkpt><trkpt lat="45.87507795264877" lon="9.481922321449181"><ele>1041.0</ele><time>2026-04-09T09:28:06.999Z</time></trkpt><trkpt lat="45.874990569540394" lon="9.481928767364577"><ele>1043.8</ele><time>2026-04-09T09:28:07.999Z</time></trkpt><trkpt lat="45.87489819065845" lon="9.481930854114971"><ele>1046.6</ele><time>2026-04-09T09:28:08.999Z</time></trkpt><trkpt lat="45.87480578294311" lon="9.481923783809489"><ele>1049.4</ele><time>2026-04-09T09:28:09.999Z</time></trkpt><trkpt lat="45.874709052323375" lon="9.481921138921003"><ele>1052.2</ele><time>2026-04-09T09:28:10.999Z</time></trkpt><trkpt lat="45.87462132166191" lon="9.481901627754073"><ele>1055.0</ele><time>2026-04-09T09:28:11.999Z</time></trkpt><trkpt lat="45.87453229390513" lon="9.481892709499128"><ele>1055.0</ele><time>2026-04-09T09:28:12.999Z</time></trkpt><trkpt lat="45.874458538387096" lon="9.481865751939615"><ele>1055.0</ele><time>2026-04-09T09:28:13.999Z</time></trkpt><trkpt lat="45.8743910647094" lon="9.481835766958053"><ele>1055.0</ele><time>2026-04-09T09:28:14.999Z</time></trkpt><trkpt lat="45.874289565101016" lon="9.481770856970675"><ele>1055.0</ele><time>2026-04-09T09:28:16.999Z</time></trkpt><trkpt lat="45.87422484461623" lon="9.481750921949716"><ele>1055.0</ele><time>2026-04-09T09:28:17.999Z</time></trkpt><trkpt lat="45.874153518639" lon="9.481730131496485"><ele>1055.0</ele><time>2026-04-09T09:28:18.999Z</time></trkpt><trkpt lat="45.874060987803205" lon="9.48175680849204"><ele>1056.6666666666667</ele><time>2026-04-09T09:28:20.999Z</time></trkpt><trkpt lat="45.87400916201093" lon="9.481927196684667"><ele>1058.3333333333335</ele><time>2026-04-09T09:28:22.999Z</time></trkpt><trkpt lat="45.87399897077988" lon="9.482022933297884"><ele>1060.0</ele><time>2026-04-09T09:28:23.999Z</time></trkpt><trkpt lat="45.87403003342902" lon="9.48210632624269"><ele>1061.6666666666667</ele><time>2026-04-09T09:28:24.999Z</time></trkpt><trkpt lat="45.87406468189534" lon="9.482195712705241"><ele>1063.3333333333333</ele><time>2026-04-09T09:28:25.999Z</time></trkpt><trkpt lat="45.874111723041636" lon="9.482267020278444"><ele>1065.0</ele><time>2026-04-09T09:28:26.999Z</time></trkpt><trkpt lat="45.87415844487742" lon="9.482387864810775"><ele>1065.0</ele><time>2026-04-09T09:28:28.995Z</time></trkpt><trkpt lat="45.87415274863863" lon="9.482528291119934"><ele>1065.0</ele><time>2026-04-09T09:28:30.995Z</time></trkpt><trkpt lat="45.874069873142716" lon="9.482627422055875"><ele>1065.0</ele><time>2026-04-09T09:28:32.995Z</time></trkpt><trkpt lat="45.87397976673782" lon="9.482610867404983"><ele>1065.0</ele><time>2026-04-09T09:28:34.995Z</time></trkpt><trkpt lat="45.87390797431286" lon="9.482534944217415"><ele>1065.0</ele><time>2026-04-09T09:28:36.995Z</time></trkpt><trkpt lat="45.87386233071431" lon="9.48243756523619"><ele>1065.0</ele><time>2026-04-09T09:28:38.996Z</time></trkpt><trkpt lat="45.87383788237005" lon="9.482297117038826"><ele>1065.0</ele><time>2026-04-09T09:28:40.996Z</time></trkpt><trkpt lat="45.873821203367804" lon="9.482204682144955"><ele>1065.0</ele><time>2026-04-09T09:28:41.996Z</time></trkpt><trkpt lat="45.873803331443426" lon="9.482108732720771"><ele>1065.0</ele><time>2026-04-09T09:28:42.996Z</time></trkpt><trkpt lat="45.873795258293896" lon="9.48201056394872"><ele>1065.0</ele><time>2026-04-09T09:28:43.996Z</time></trkpt><trkpt lat="45.873780897867526" lon="9.481905887250509"><ele>1065.0</ele><time>2026-04-09T09:28:44.996Z</time></trkpt><trkpt lat="45.87375789330987" lon="9.481784891459197"><ele>1066.8333333333333</ele><time>2026-04-09T09:28:45.996Z</time></trkpt><trkpt lat="45.87373742303202" lon="9.481662525256962"><ele>1068.6666666666667</ele><time>2026-04-09T09:28:46.997Z</time></trkpt><trkpt lat="45.873703435897504" lon="9.481572114866527"><ele>1070.5</ele><time>2026-04-09T09:28:47.997Z</time></trkpt><trkpt lat="45.87366612340513" lon="9.48142404086856"><ele>1072.3333333333335</ele><time>2026-04-09T09:28:49.997Z</time></trkpt><trkpt lat="45.873636719948585" lon="9.481339178332554"><ele>1074.1666666666667</ele><time>2026-04-09T09:28:50.997Z</time></trkpt><trkpt lat="45.87360707314618" lon="9.48125733460914"><ele>1076.0</ele><time>2026-04-09T09:28:51.997Z</time></trkpt><trkpt lat="45.87361264112811" lon="9.481107346382613"><ele>1076.0</ele><time>2026-04-09T09:28:53.997Z</time></trkpt><trkpt lat="45.873627913750745" lon="9.481006078101881"><ele>1076.0</ele><time>2026-04-09T09:28:55.997Z</time></trkpt><trkpt lat="45.873586022538326" lon="9.480937653390404"><ele>1076.0</ele><time>2026-04-09T09:28:57.998Z</time></trkpt><trkpt lat="45.873501631268155" lon="9.480959183807618"><ele>1076.0</ele><time>2026-04-09T09:28:59.998Z</time></trkpt><trkpt lat="45.87344360890836" lon="9.48108057001298"><ele>1076.0</ele><time>2026-04-09T09:29:01.998Z</time></trkpt><trkpt lat="45.87346280152137" lon="9.481218805031556"><ele>1076.0</ele><time>2026-04-09T09:29:03.998Z</time></trkpt><trkpt lat="45.87349157382371" lon="9.48131334440078"><ele>1076.0</ele><time>2026-04-09T09:29:04.998Z</time></trkpt><trkpt lat="45.87351554648117" lon="9.481403606179338"><ele>1076.0</ele><time>2026-04-09T09:29:05.998Z</time></trkpt><trkpt lat="45.873546408036816" lon="9.481548946976556"><ele>1076.0</ele><time>2026-04-09T09:29:07.998Z</time></trkpt><trkpt lat="45.873533108340816" lon="9.481669369226996"><ele>1076.0</ele><time>2026-04-09T09:29:09.998Z</time></trkpt><trkpt lat="45.8734559679084" lon="9.481753680320779"><ele>1076.0</ele><time>2026-04-09T09:29:11.998Z</time></trkpt><trkpt lat="45.87339700012127" lon="9.481785629641909"><ele>1076.0</ele><time>2026-04-09T09:29:12.998Z</time></trkpt><trkpt lat="45.873330008098655" lon="9.48181721338937"><ele>1077.6666666666667</ele><time>2026-04-09T09:29:13.998Z</time></trkpt><trkpt lat="45.87326375340592" lon="9.481837597666868"><ele>1079.3333333333335</ele><time>2026-04-09T09:29:14.998Z</time></trkpt><trkpt lat="45.87319200991397" lon="9.481845731148631"><ele>1081.0</ele><time>2026-04-09T09:29:15.998Z</time></trkpt><trkpt lat="45.87311355371847" lon="9.481857383537358"><ele>1082.6666666666667</ele><time>2026-04-09T09:29:16.998Z</time></trkpt><trkpt lat="45.873033008326814" lon="9.481866987244274"><ele>1084.3333333333333</ele><time>2026-04-09T09:29:17.998Z</time></trkpt><trkpt lat="45.87295116518561" lon="9.481875659779032"><ele>1086.0</ele><time>2026-04-09T09:29:18.998Z</time></trkpt><trkpt lat="45.87286517057738" lon="9.481884969634732"><ele>1086.0</ele><time>2026-04-09T09:29:19.998Z</time></trkpt><trkpt lat="45.872790632843554" lon="9.481893932272278"><ele>1086.0</ele><time>2026-04-09T09:29:20.999Z</time></trkpt><trkpt lat="45.87271588873919" lon="9.481887035573758"><ele>1086.0</ele><time>2026-04-09T09:29:21.999Z</time></trkpt><trkpt lat="45.872655474838275" lon="9.481858116073393"><ele>1086.0</ele><time>2026-04-09T09:29:22.999Z</time></trkpt><trkpt lat="45.87257932951816" lon="9.481704218544898"><ele>1086.0</ele><time>2026-04-09T09:29:24.999Z</time></trkpt><trkpt lat="45.87253571275273" lon="9.481614152829353"><ele>1086.0</ele><time>2026-04-09T09:29:25.999Z</time></trkpt><trkpt lat="45.87247670338067" lon="9.481560128171829"><ele>1087.5</ele><time>2026-04-09T09:29:26.999Z</time></trkpt><trkpt lat="45.872409053834474" lon="9.481556724148476"><ele>1089.0</ele><time>2026-04-09T09:29:27.999Z</time></trkpt><trkpt lat="45.87233747708657" lon="9.481592183536465"><ele>1090.5</ele><time>2026-04-09T09:29:28.999Z</time></trkpt><trkpt lat="45.872256832160645" lon="9.481646089460524"><ele>1092.0</ele><time>2026-04-09T09:29:29.999Z</time></trkpt><trkpt lat="45.872173882240226" lon="9.481690061807129"><ele>1093.5</ele><time>2026-04-09T09:29:30.999Z</time></trkpt><trkpt lat="45.8720867914236" lon="9.48174252610171"><ele>1095.0</ele><time>2026-04-09T09:29:31.999Z</time></trkpt><trkpt lat="45.872004759916244" lon="9.481813369027336"><ele>1095.0</ele><time>2026-04-09T09:29:32.999Z</time></trkpt><trkpt lat="45.87193334742593" lon="9.481887977079516"><ele>1095.0</ele><time>2026-04-09T09:29:33.999Z</time></trkpt><trkpt lat="45.87186656062139" lon="9.48194082910214"><ele>1095.0</ele><time>2026-04-09T09:29:34.999Z</time></trkpt><trkpt lat="45.871750020210214" lon="9.48192232485578"><ele>1095.0</ele><time>2026-04-09T09:29:36.999Z</time></trkpt><trkpt lat="45.87165683493337" lon="9.481826236510855"><ele>1095.0</ele><time>2026-04-09T09:29:38.999Z</time></trkpt><trkpt lat="45.87157581638166" lon="9.481875311773061"><ele>1096.6</ele><time>2026-04-09T09:29:40.999Z</time></trkpt><trkpt lat="45.871549076831265" lon="9.481962835155247"><ele>1098.2</ele><time>2026-04-09T09:29:41.999Z</time></trkpt><trkpt lat="45.87151924323976" lon="9.482064240061026"><ele>1099.8</ele><time>2026-04-09T09:29:42.999Z</time></trkpt><trkpt lat="45.87148807287583" lon="9.482179809527379"><ele>1101.4</ele><time>2026-04-09T09:29:43.999Z</time></trkpt><trkpt lat="45.871426514613916" lon="9.482340175851023"><ele>1103.0</ele><time>2026-04-09T09:29:44.999Z</time></trkpt><trkpt lat="45.87137968431698" lon="9.482474955340718"><ele>1103.0</ele><time>2026-04-09T09:29:45.999Z</time></trkpt><trkpt lat="45.871350230331" lon="9.482588055829236"><ele>1103.0</ele><time>2026-04-09T09:29:46.999Z</time></trkpt><trkpt lat="45.87134004000143" lon="9.48269195876929"><ele>1103.0</ele><time>2026-04-09T09:29:47.999Z</time></trkpt><trkpt lat="45.87134345500441" lon="9.482795851738224"><ele>1103.0</ele><time>2026-04-09T09:29:48.999Z</time></trkpt><trkpt lat="45.871359008560404" lon="9.48289973972422"><ele>1103.0</ele><time>2026-04-09T09:29:49.999Z</time></trkpt><trkpt lat="45.87137619564641" lon="9.483010391674647"><ele>1103.0</ele><time>2026-04-09T09:29:50.999Z</time></trkpt><trkpt lat="45.871385186086364" lon="9.483111414833997"><ele>1102.2</ele><time>2026-04-09T09:29:51.999Z</time></trkpt><trkpt lat="45.87137891038074" lon="9.483209392044964"><ele>1101.4</ele><time>2026-04-09T09:29:52.999Z</time></trkpt><trkpt lat="45.871313437352384" lon="9.483341367380545"><ele>1100.6000000000001</ele><time>2026-04-09T09:29:54.999Z</time></trkpt><trkpt lat="45.871210086973356" lon="9.483438636901012"><ele>1099.8</ele><time>2026-04-09T09:29:56.999Z</time></trkpt><trkpt lat="45.87115367535355" lon="9.4835090691229"><ele>1099.0</ele><time>2026-04-09T09:29:57.999Z</time></trkpt><trkpt lat="45.871090307462374" lon="9.483562457498621"><ele>1099.0</ele><time>2026-04-09T09:29:58.999Z</time></trkpt><trkpt lat="45.871055474048916" lon="9.483651267391668"><ele>1099.0</ele><time>2026-04-09T09:29:59.999Z</time></trkpt><trkpt lat="45.87099072049381" lon="9.483710461921934"><ele>1099.0</ele><time>2026-04-09T09:30:00.999Z</time></trkpt><trkpt lat="45.87091710190481" lon="9.483775504336752"><ele>1099.0</ele><time>2026-04-09T09:30:01.999Z</time></trkpt><trkpt lat="45.87084844208092" lon="9.483846848557087"><ele>1099.0</ele><time>2026-04-09T09:30:02.999Z</time></trkpt><trkpt lat="45.87078238049297" lon="9.483916644759798"><ele>1099.0</ele><time>2026-04-09T09:30:03.999Z</time></trkpt><trkpt lat="45.870706348019965" lon="9.483948681455825"><ele>1103.0</ele><time>2026-04-09T09:30:04.999Z</time></trkpt><trkpt lat="45.870625694044826" lon="9.483981823217785"><ele>1107.0</ele><time>2026-04-09T09:30:05.999Z</time></trkpt><trkpt lat="45.870553669455994" lon="9.484018539668563"><ele>1111.0</ele><time>2026-04-09T09:30:06.999Z</time></trkpt><trkpt lat="45.87046466171162" lon="9.484040221983479"><ele>1115.0</ele><time>2026-04-09T09:30:07.999Z</time></trkpt><trkpt lat="45.87038947639404" lon="9.48407089652058"><ele>1119.0</ele><time>2026-04-09T09:30:09Z</time></trkpt><trkpt lat="45.870276875708" lon="9.484104701468036"><ele>1123.0</ele><time>2026-04-09T09:30:11Z</time></trkpt><trkpt lat="45.87018688001442" lon="9.48421703291334"><ele>1123.0</ele><time>2026-04-09T09:30:13Z</time></trkpt><trkpt lat="45.870134569246126" lon="9.484299871688782"><ele>1123.0</ele><time>2026-04-09T09:30:14Z</time></trkpt><trkpt lat="45.87007572769858" lon="9.484402623893303"><ele>1123.0</ele><time>2026-04-09T09:30:15Z</time></trkpt><trkpt lat="45.87002518464356" lon="9.484498120244895"><ele>1123.0</ele><time>2026-04-09T09:30:16Z</time></trkpt><trkpt lat="45.86995572704396" lon="9.484622735850547"><ele>1123.0</ele><time>2026-04-09T09:30:17Z</time></trkpt><trkpt lat="45.86986121595552" lon="9.484757889980939"><ele>1125.4</ele><time>2026-04-09T09:30:19Z</time></trkpt><trkpt lat="45.86978656199535" lon="9.484904954552144"><ele>1127.8</ele><time>2026-04-09T09:30:21Z</time></trkpt><trkpt lat="45.869740422260406" lon="9.485028831321003"><ele>1130.2</ele><time>2026-04-09T09:30:23Z</time></trkpt><trkpt lat="45.869781435888676" lon="9.48512414413393"><ele>1132.6</ele><time>2026-04-09T09:30:25Z</time></trkpt><trkpt lat="45.86986724982371" lon="9.485232161086183"><ele>1135.0</ele><time>2026-04-09T09:30:27Z</time></trkpt><trkpt lat="45.86992599349603" lon="9.485315460685124"><ele>1135.0</ele><time>2026-04-09T09:30:28Z</time></trkpt><trkpt lat="45.869982719861866" lon="9.485402239516818"><ele>1135.0</ele><time>2026-04-09T09:30:29Z</time></trkpt><trkpt lat="45.87004589946919" lon="9.485489225455709"><ele>1135.0</ele><time>2026-04-09T09:30:30Z</time></trkpt><trkpt lat="45.87009486841263" lon="9.48555793875753"><ele>1135.0</ele><time>2026-04-09T09:30:31Z</time></trkpt><trkpt lat="45.87016495877024" lon="9.485636572088051"><ele>1135.0</ele><time>2026-04-09T09:30:32Z</time></trkpt><trkpt lat="45.870215771650386" lon="9.485696058941281"><ele>1135.0</ele><time>2026-04-09T09:30:33Z</time></trkpt><trkpt lat="45.87026862931123" lon="9.485764810931217"><ele>1134.8333333333333</ele><time>2026-04-09T09:30:34Z</time></trkpt><trkpt lat="45.87035522848278" lon="9.485862538399283"><ele>1134.6666666666665</ele><time>2026-04-09T09:30:35.995Z</time></trkpt><trkpt lat="45.87042700316596" lon="9.485892255523488"><ele>1134.5</ele><time>2026-04-09T09:30:36.996Z</time></trkpt><trkpt lat="45.87049122639681" lon="9.485922932116365"><ele>1134.3333333333333</ele><time>2026-04-09T09:30:37.996Z</time></trkpt><trkpt lat="45.87055187729016" lon="9.485954576851505"><ele>1134.1666666666667</ele><time>2026-04-09T09:30:38.996Z</time></trkpt><trkpt lat="45.87060864725861" lon="9.485998734901267"><ele>1134.0</ele><time>2026-04-09T09:30:39.996Z</time></trkpt><trkpt lat="45.87068110305023" lon="9.486021500755113"><ele>1134.0</ele><time>2026-04-09T09:30:40.996Z</time></trkpt><trkpt lat="45.870744661366764" lon="9.486050710710662"><ele>1134.0</ele><time>2026-04-09T09:30:41.996Z</time></trkpt><trkpt lat="45.870821678763484" lon="9.486092530774606"><ele>1134.0</ele><time>2026-04-09T09:30:42.996Z</time></trkpt><trkpt lat="45.87089597382638" lon="9.48613107322427"><ele>1134.0</ele><time>2026-04-09T09:30:43.996Z</time></trkpt><trkpt lat="45.87096573790963" lon="9.48616505850048"><ele>1134.0</ele><time>2026-04-09T09:30:44.996Z</time></trkpt><trkpt lat="45.87103869384436" lon="9.48620100619843"><ele>1134.0</ele><time>2026-04-09T09:30:45.996Z</time></trkpt><trkpt lat="45.87111114405447" lon="9.486244959747618"><ele>1137.3333333333333</ele><time>2026-04-09T09:30:46.996Z</time></trkpt><trkpt lat="45.871171866709005" lon="9.486306743348392"><ele>1140.6666666666667</ele><time>2026-04-09T09:30:47.996Z</time></trkpt><trkpt lat="45.87122945136782" lon="9.486367736642018"><ele>1144.0</ele><time>2026-04-09T09:30:48.997Z</time></trkpt><trkpt lat="45.87129829315376" lon="9.486429970451528"><ele>1147.3333333333335</ele><time>2026-04-09T09:30:49.997Z</time></trkpt><trkpt lat="45.87136418172716" lon="9.486483549678523"><ele>1150.6666666666667</ele><time>2026-04-09T09:30:50.997Z</time></trkpt><trkpt lat="45.87143053341548" lon="9.486521592024756"><ele>1154.0</ele><time>2026-04-09T09:30:51.997Z</time></trkpt><trkpt lat="45.87153930296599" lon="9.486581315759745"><ele>1154.0</ele><time>2026-04-09T09:30:53.997Z</time></trkpt><trkpt lat="45.871609295616764" lon="9.486606141846229"><ele>1154.0</ele><time>2026-04-09T09:30:54.997Z</time></trkpt><trkpt lat="45.87167295642958" lon="9.486635852899399"><ele>1154.0</ele><time>2026-04-09T09:30:55.997Z</time></trkpt><trkpt lat="45.87173601288534" lon="9.486673415418988"><ele>1154.0</ele><time>2026-04-09T09:30:56.998Z</time></trkpt><trkpt lat="45.871852104221574" lon="9.486743022885372"><ele>1154.0</ele><time>2026-04-09T09:30:58.998Z</time></trkpt><trkpt lat="45.8719159091232" lon="9.486783475474885"><ele>1154.0</ele><time>2026-04-09T09:30:59.998Z</time></trkpt><trkpt lat="45.87198585615444" lon="9.486834091180866"><ele>1155.0</ele><time>2026-04-09T09:31:00.998Z</time></trkpt><trkpt lat="45.872078112599304" lon="9.486941840293733"><ele>1156.0</ele><time>2026-04-09T09:31:02.998Z</time></trkpt><trkpt lat="45.87213184182974" lon="9.486991815335404"><ele>1157.0</ele><time>2026-04-09T09:31:03.998Z</time></trkpt><trkpt lat="45.87219662141157" lon="9.48703288149224"><ele>1158.0</ele><time>2026-04-09T09:31:04.998Z</time></trkpt><trkpt lat="45.87225105842908" lon="9.48708741137739"><ele>1159.0</ele><time>2026-04-09T09:31:05.998Z</time></trkpt><trkpt lat="45.87230227409773" lon="9.487147581477355"><ele>1160.0</ele><time>2026-04-09T09:31:06.998Z</time></trkpt><trkpt lat="45.872347230611425" lon="9.487225436167575"><ele>1160.0</ele><time>2026-04-09T09:31:07.998Z</time></trkpt><trkpt lat="45.87238869678089" lon="9.487299859830406"><ele>1160.0</ele><time>2026-04-09T09:31:08.998Z</time></trkpt><trkpt lat="45.872423692659545" lon="9.487386004577457"><ele>1160.0</ele><time>2026-04-09T09:31:09.999Z</time></trkpt><trkpt lat="45.872451279569205" lon="9.487476877170998"><ele>1160.0</ele><time>2026-04-09T09:31:10.999Z</time></trkpt><trkpt lat="45.87245709214257" lon="9.487579109117357"><ele>1160.0</ele><time>2026-04-09T09:31:11.999Z</time></trkpt><trkpt lat="45.87247725270041" lon="9.487674562878775"><ele>1160.0</ele><time>2026-04-09T09:31:12.999Z</time></trkpt><trkpt lat="45.87250463464389" lon="9.487852620915536"><ele>1162.1666666666667</ele><time>2026-04-09T09:31:14.999Z</time></trkpt><trkpt lat="45.87253570498401" lon="9.488038080226909"><ele>1164.3333333333335</ele><time>2026-04-09T09:31:16.999Z</time></trkpt><trkpt lat="45.87256345814403" lon="9.48812546020474"><ele>1166.5</ele><time>2026-04-09T09:31:17.999Z</time></trkpt><trkpt lat="45.87260446505298" lon="9.488201216585335"><ele>1168.6666666666667</ele><time>2026-04-09T09:31:18.999Z</time></trkpt><trkpt lat="45.872629511067245" lon="9.488294669210168"><ele>1170.8333333333333</ele><time>2026-04-09T09:31:19.999Z</time></trkpt><trkpt lat="45.872659486779035" lon="9.488384061643156"><ele>1173.0</ele><time>2026-04-09T09:31:20.999Z</time></trkpt><trkpt lat="45.872687653789875" lon="9.488468060326227"><ele>1169.1666666666667</ele><time>2026-04-09T09:31:21.999Z</time></trkpt><trkpt lat="45.87273080021337" lon="9.488561616546962"><ele>1165.3333333333333</ele><time>2026-04-09T09:31:22.999Z</time></trkpt><trkpt lat="45.872760367284826" lon="9.488650279748917"><ele>1161.5</ele><time>2026-04-09T09:31:23.999Z</time></trkpt><trkpt lat="45.87279524154914" lon="9.488735621603645"><ele>1157.6666666666665</ele><time>2026-04-09T09:31:24.999Z</time></trkpt><trkpt lat="45.87282873710354" lon="9.488828464540653"><ele>1153.8333333333333</ele><time>2026-04-09T09:31:25.999Z</time></trkpt><trkpt lat="45.87287417320641" lon="9.488981066835896"><ele>1150.0</ele><time>2026-04-09T09:31:27.999Z</time></trkpt><trkpt lat="45.87292140252877" lon="9.48911070451118"><ele>1150.0</ele><time>2026-04-09T09:31:29.999Z</time></trkpt><trkpt lat="45.87287740580681" lon="9.489202523280317"><ele>1150.0</ele><time>2026-04-09T09:31:32Z</time></trkpt><trkpt lat="45.87280343147398" lon="9.489192278303586"><ele>1150.0</ele><time>2026-04-09T09:31:34Z</time></trkpt><trkpt lat="45.87279330681257" lon="9.489063863570541"><ele>1150.0</ele><time>2026-04-09T09:31:36Z</time></trkpt><trkpt lat="45.872759163866284" lon="9.488938485968815"><ele>1150.0</ele><time>2026-04-09T09:31:38Z</time></trkpt><trkpt lat="45.87272743713107" lon="9.488854792592928"><ele>1150.0</ele><time>2026-04-09T09:31:39Z</time></trkpt><trkpt lat="45.87268362321914" lon="9.488775867725284"><ele>1153.8333333333333</ele><time>2026-04-09T09:31:40Z</time></trkpt><trkpt lat="45.87259776940056" lon="9.48867024009567"><ele>1157.6666666666665</ele><time>2026-04-09T09:31:42Z</time></trkpt><trkpt lat="45.87250711180382" lon="9.48854568992538"><ele>1161.5</ele><time>2026-04-09T09:31:44Z</time></trkpt><trkpt lat="45.87245594379233" lon="9.488459445061673"><ele>1165.3333333333333</ele><time>2026-04-09T09:31:45Z</time></trkpt><trkpt lat="45.87241408803851" lon="9.488391031896345"><ele>1169.1666666666667</ele><time>2026-04-09T09:31:46Z</time></trkpt><trkpt lat="45.87238277322878" lon="9.488308580697547"><ele>1173.0</ele><time>2026-04-09T09:31:47Z</time></trkpt><trkpt lat="45.872338201497534" lon="9.488234280966417"><ele>1173.0000000000002</ele><time>2026-04-09T09:31:48Z</time></trkpt><trkpt lat="45.8722897625105" lon="9.48815018537932"><ele>1173.0</ele><time>2026-04-09T09:31:49Z</time></trkpt><trkpt lat="45.87223613252528" lon="9.488062823594575"><ele>1173.0</ele><time>2026-04-09T09:31:50Z</time></trkpt><trkpt lat="45.872188879212175" lon="9.487977363562761"><ele>1173.0</ele><time>2026-04-09T09:31:51Z</time></trkpt><trkpt lat="45.87214605573034" lon="9.48789359644509"><ele>1173.0</ele><time>2026-04-09T09:31:52Z</time></trkpt><trkpt lat="45.872105661177" lon="9.487816687694357"><ele>1173.0000000000002</ele><time>2026-04-09T09:31:53Z</time></trkpt><trkpt lat="45.87206253717871" lon="9.487745491829129"><ele>1173.0</ele><time>2026-04-09T09:31:54Z</time></trkpt><trkpt lat="45.87201419576265" lon="9.487675428156285"><ele>1170.4</ele><time>2026-04-09T09:31:55Z</time></trkpt><trkpt lat="45.87196539823925" lon="9.4876172715542"><ele>1167.8</ele><time>2026-04-09T09:31:56Z</time></trkpt><trkpt lat="45.87185586985537" lon="9.487533251153046"><ele>1165.2</ele><time>2026-04-09T09:31:58Z</time></trkpt><trkpt lat="45.87174755834042" lon="9.487457157672484"><ele>1162.6</ele><time>2026-04-09T09:32:00Z</time></trkpt><trkpt lat="45.8716257960562" lon="9.487444435387536"><ele>1160.0</ele><time>2026-04-09T09:32:02.001Z</time></trkpt><trkpt lat="45.87155485334844" lon="9.487446051398736"><ele>1165.6</ele><time>2026-04-09T09:32:03.001Z</time></trkpt><trkpt lat="45.87142721547077" lon="9.487447777730244"><ele>1171.2</ele><time>2026-04-09T09:32:05.001Z</time></trkpt><trkpt lat="45.8712968474939" lon="9.487463748112761"><ele>1176.8</ele><time>2026-04-09T09:32:07.001Z</time></trkpt><trkpt lat="45.871232144905036" lon="9.487467506978959"><ele>1182.4</ele><time>2026-04-09T09:32:08.001Z</time></trkpt><trkpt lat="45.871153050510266" lon="9.487448724647315"><ele>1188.0</ele><time>2026-04-09T09:32:09.001Z</time></trkpt><trkpt lat="45.87108564057676" lon="9.487449010317352"><ele>1188.0</ele><time>2026-04-09T09:32:10.001Z</time></trkpt><trkpt lat="45.87096621082298" lon="9.487450308467396"><ele>1188.0</ele><time>2026-04-09T09:32:12.001Z</time></trkpt><trkpt lat="45.87088309818865" lon="9.487452824119613"><ele>1188.0</ele><time>2026-04-09T09:32:14.001Z</time></trkpt><trkpt lat="45.87079869718973" lon="9.48747407478857"><ele>1188.0</ele><time>2026-04-09T09:32:15.001Z</time></trkpt><trkpt lat="45.87067867932025" lon="9.487485824633302"><ele>1188.0</ele><time>2026-04-09T09:32:17.001Z</time></trkpt><trkpt lat="45.87056221644598" lon="9.487514073118724"><ele>1190.0</ele><time>2026-04-09T09:32:19.001Z</time></trkpt><trkpt lat="45.87044066505249" lon="9.487523754772774"><ele>1192.0</ele><time>2026-04-09T09:32:21.001Z</time></trkpt><trkpt lat="45.870371534384056" lon="9.487550122348697"><ele>1194.0</ele><time>2026-04-09T09:32:22.001Z</time></trkpt><trkpt lat="45.87025315667841" lon="9.487579927665903"><ele>1196.0</ele><time>2026-04-09T09:32:24.001Z</time></trkpt><trkpt lat="45.87012866530577" lon="9.487637666190844"><ele>1198.0</ele><time>2026-04-09T09:32:26.001Z</time></trkpt><trkpt lat="45.87004687345158" lon="9.487654452151618"><ele>1200.0</ele><time>2026-04-09T09:32:27.001Z</time></trkpt><trkpt lat="45.86995607298442" lon="9.487650592300003"><ele>1202.0</ele><time>2026-04-09T09:32:28.001Z</time></trkpt><trkpt lat="45.86983309728808" lon="9.487648697256258"><ele>1204.0</ele><time>2026-04-09T09:32:31.001Z</time></trkpt><trkpt lat="45.86977097831296" lon="9.487625485311625"><ele>1206.0</ele><time>2026-04-09T09:32:32.001Z</time></trkpt><trkpt lat="45.86968375999559" lon="9.487559489370211"><ele>1208.0</ele><time>2026-04-09T09:32:34.001Z</time></trkpt><trkpt lat="45.86959160774583" lon="9.487496378613502"><ele>1208.0</ele><time>2026-04-09T09:32:35.002Z</time></trkpt><trkpt lat="45.869530736238076" lon="9.487451568206245"><ele>1208.0</ele><time>2026-04-09T09:32:36.002Z</time></trkpt><trkpt lat="45.86943533918597" lon="9.487354554709574"><ele>1208.0</ele><time>2026-04-09T09:32:38.002Z</time></trkpt><trkpt lat="45.86938807626299" lon="9.487267962767481"><ele>1208.0</ele><time>2026-04-09T09:32:40.002Z</time></trkpt><trkpt lat="45.869272303032844" lon="9.487139823294388"><ele>1208.0</ele><time>2026-04-09T09:32:41.997Z</time></trkpt><trkpt lat="45.86920507449471" lon="9.487043993314805"><ele>1209.5</ele><time>2026-04-09T09:32:42.997Z</time></trkpt><trkpt lat="45.869091677199314" lon="9.486972584147658"><ele>1211.0</ele><time>2026-04-09T09:32:44.998Z</time></trkpt><trkpt lat="45.86895138372105" lon="9.486859342485886"><ele>1212.5</ele><time>2026-04-09T09:32:46.998Z</time></trkpt><trkpt lat="45.86886159062964" lon="9.486836059426164"><ele>1214.0</ele><time>2026-04-09T09:32:48.998Z</time></trkpt><trkpt lat="45.868743391341226" lon="9.486776140785828"><ele>1214.0</ele><time>2026-04-09T09:32:50.998Z</time></trkpt><trkpt lat="45.86865245909942" lon="9.486726355899382"><ele>1214.0</ele><time>2026-04-09T09:32:51.999Z</time></trkpt><trkpt lat="45.86857707579143" lon="9.486701032890808"><ele>1214.0</ele><time>2026-04-09T09:32:52.999Z</time></trkpt><trkpt lat="45.86851096228166" lon="9.486650648978696"><ele>1214.0</ele><time>2026-04-09T09:32:54.999Z</time></trkpt><trkpt lat="45.868399703881636" lon="9.486651567116487"><ele>1214.0</ele><time>2026-04-09T09:32:56.999Z</time></trkpt><trkpt lat="45.86831119991425" lon="9.486698850847377"><ele>1214.0</ele><time>2026-04-09T09:33:01.999Z</time></trkpt><trkpt lat="45.86832295353756" lon="9.48682778586222"><ele>1214.0</ele><time>2026-04-09T09:33:05Z</time></trkpt><trkpt lat="45.8683930081419" lon="9.486902752691243"><ele>1214.0</ele><time>2026-04-09T09:33:07Z</time></trkpt><trkpt lat="45.86847833489722" lon="9.48696333057808"><ele>1214.0</ele><time>2026-04-09T09:33:08Z</time></trkpt><trkpt lat="45.868582521341196" lon="9.487019780758152"><ele>1214.0</ele><time>2026-04-09T09:33:10Z</time></trkpt><trkpt lat="45.868659712712265" lon="9.487078898976334"><ele>1217.6000000000001</ele><time>2026-04-09T09:33:12Z</time></trkpt><trkpt lat="45.86873068502065" lon="9.487150270535455"><ele>1221.2</ele><time>2026-04-09T09:33:14Z</time></trkpt><trkpt lat="45.868832878412576" lon="9.487249372210384"><ele>1224.8000000000002</ele><time>2026-04-09T09:33:16Z</time></trkpt><trkpt lat="45.86890275683151" lon="9.487356508181112"><ele>1228.4</ele><time>2026-04-09T09:33:18Z</time></trkpt><trkpt lat="45.86895208531633" lon="9.487442315824088"><ele>1232.0</ele><time>2026-04-09T09:33:19.001Z</time></trkpt><trkpt lat="45.869009439481765" lon="9.487594534659275"><ele>1232.0</ele><time>2026-04-09T09:33:21.001Z</time></trkpt><trkpt lat="45.869067103702314" lon="9.487698565913472"><ele>1232.0</ele><time>2026-04-09T09:33:22.001Z</time></trkpt><trkpt lat="45.869121858035484" lon="9.487871693440622"><ele>1232.0</ele><time>2026-04-09T09:33:24.001Z</time></trkpt><trkpt lat="45.86915636743785" lon="9.487963781358163"><ele>1232.0</ele><time>2026-04-09T09:33:25.001Z</time></trkpt><trkpt lat="45.86923331535431" lon="9.48812896811818"><ele>1232.0</ele><time>2026-04-09T09:33:27.001Z</time></trkpt><trkpt lat="45.86929635593498" lon="9.488197546158538"><ele>1232.0</ele><time>2026-04-09T09:33:28.001Z</time></trkpt><trkpt lat="45.86938821160989" lon="9.488314056017149"><ele>1232.0</ele><time>2026-04-09T09:33:30.001Z</time></trkpt><trkpt lat="45.869465762505946" lon="9.488392644103213"><ele>1232.0</ele><time>2026-04-09T09:33:32.001Z</time></trkpt><trkpt lat="45.86952825964926" lon="9.488454446895537"><ele>1232.0</ele><time>2026-04-09T09:33:34.001Z</time></trkpt><trkpt lat="45.86936674131994" lon="9.488592219690583"><ele>1232.0</ele><time>2026-04-09T09:33:41.001Z</time></trkpt><trkpt lat="45.869293266992315" lon="9.488636123620772"><ele>1232.0</ele><time>2026-04-09T09:33:42.001Z</time></trkpt><trkpt lat="45.869165147924384" lon="9.488691150994635"><ele>1232.0</ele><time>2026-04-09T09:33:44.001Z</time></trkpt><trkpt lat="45.86903573310097" lon="9.488770404863887"><ele>1232.0</ele><time>2026-04-09T09:33:46.002Z</time></trkpt><trkpt lat="45.868944235821594" lon="9.488784512664006"><ele>1232.0</ele><time>2026-04-09T09:33:48.002Z</time></trkpt><trkpt lat="45.868870618877054" lon="9.488870429990437"><ele>1232.8</ele><time>2026-04-09T09:33:50.002Z</time></trkpt><trkpt lat="45.8687581103462" lon="9.488913927466186"><ele>1233.6</ele><time>2026-04-09T09:33:52.002Z</time></trkpt><trkpt lat="45.868660931928375" lon="9.488958215259855"><ele>1234.3999999999999</ele><time>2026-04-09T09:33:54.002Z</time></trkpt><trkpt lat="45.86860372237202" lon="9.488999899071453"><ele>1235.2</ele><time>2026-04-09T09:33:55.002Z</time></trkpt><trkpt lat="45.868533012780055" lon="9.4890441687841"><ele>1236.0</ele><time>2026-04-09T09:33:56.002Z</time></trkpt><trkpt lat="45.86843944380619" lon="9.489108064225366"><ele>1239.1666666666667</ele><time>2026-04-09T09:33:58.002Z</time></trkpt><trkpt lat="45.86838985530678" lon="9.48917571546771"><ele>1242.3333333333333</ele><time>2026-04-09T09:33:59.002Z</time></trkpt><trkpt lat="45.86833351299055" lon="9.489243984034777"><ele>1245.5</ele><time>2026-04-09T09:34:00.002Z</time></trkpt><trkpt lat="45.868247785828295" lon="9.48931902260337"><ele>1248.6666666666665</ele><time>2026-04-09T09:34:02.002Z</time></trkpt><trkpt lat="45.86820623712893" lon="9.489411310366183"><ele>1251.8333333333333</ele><time>2026-04-09T09:34:03.002Z</time></trkpt><trkpt lat="45.868119634827444" lon="9.48953100743457"><ele>1255.0</ele><time>2026-04-09T09:34:04.002Z</time></trkpt><trkpt lat="45.86806650613943" lon="9.489635089593861"><ele>1255.0</ele><time>2026-04-09T09:34:05.002Z</time></trkpt><trkpt lat="45.86802187903801" lon="9.489713103565213"><ele>1255.0</ele><time>2026-04-09T09:34:06.002Z</time></trkpt><trkpt lat="45.867956395692154" lon="9.489772880854758"><ele>1255.0</ele><time>2026-04-09T09:34:07.002Z</time></trkpt><trkpt lat="45.86789927369561" lon="9.489827151880496"><ele>1255.0</ele><time>2026-04-09T09:34:08.002Z</time></trkpt><trkpt lat="45.867853759078876" lon="9.489925947606773"><ele>1255.0</ele><time>2026-04-09T09:34:10.002Z</time></trkpt><trkpt lat="45.867771770709425" lon="9.490030240414905"><ele>1255.0</ele><time>2026-04-09T09:34:12.002Z</time></trkpt><trkpt lat="45.86783307554289" lon="9.490131461784873"><ele>1255.0</ele><time>2026-04-09T09:34:14.002Z</time></trkpt><trkpt lat="45.86786607718519" lon="9.490251795456269"><ele>1255.0</ele><time>2026-04-09T09:34:17.003Z</time></trkpt><trkpt lat="45.867918357820514" lon="9.490336923798926"><ele>1255.0</ele><time>2026-04-09T09:34:19.003Z</time></trkpt><trkpt lat="45.86797342610191" lon="9.490412374690516"><ele>1255.0</ele><time>2026-04-09T09:34:22.003Z</time></trkpt><trkpt lat="45.86806300652186" lon="9.49047404370903"><ele>1255.0</ele><time>2026-04-09T09:34:24.003Z</time></trkpt><trkpt lat="45.86811570959197" lon="9.49054160713594"><ele>1255.0</ele><time>2026-04-09T09:34:27.003Z</time></trkpt><trkpt lat="45.86819146141188" lon="9.490621174456823"><ele>1257.2</ele><time>2026-04-09T09:34:29.003Z</time></trkpt><trkpt lat="45.868258714359804" lon="9.490713660149984"><ele>1259.4</ele><time>2026-04-09T09:34:30.003Z</time></trkpt><trkpt lat="45.86829869717549" lon="9.490795834130186"><ele>1261.6</ele><time>2026-04-09T09:34:31.003Z</time></trkpt><trkpt lat="45.86835171052403" lon="9.490946778667299"><ele>1263.8</ele><time>2026-04-09T09:34:33.003Z</time></trkpt><trkpt lat="45.86837765307388" lon="9.491105672025173"><ele>1266.0</ele><time>2026-04-09T09:34:35.003Z</time></trkpt><trkpt lat="45.86841515547947" lon="9.491192233387496"><ele>1269.1666666666667</ele><time>2026-04-09T09:34:36.003Z</time></trkpt><trkpt lat="45.8684365530674" lon="9.49129240411051"><ele>1272.3333333333333</ele><time>2026-04-09T09:34:37.003Z</time></trkpt><trkpt lat="45.86844510579582" lon="9.49143575565848"><ele>1275.5</ele><time>2026-04-09T09:34:39.003Z</time></trkpt><trkpt lat="45.86845561742466" lon="9.49155510242865"><ele>1278.6666666666665</ele><time>2026-04-09T09:34:41.003Z</time></trkpt><trkpt lat="45.86846932029282" lon="9.491648130971827"><ele>1281.8333333333333</ele><time>2026-04-09T09:34:42.003Z</time></trkpt><trkpt lat="45.86849661829386" lon="9.491781936269641"><ele>1285.0</ele><time>2026-04-09T09:34:44.003Z</time></trkpt><trkpt lat="45.86855177630234" lon="9.491920767221929"><ele>1280.8333333333333</ele><time>2026-04-09T09:34:46.003Z</time></trkpt><trkpt lat="45.868567688750616" lon="9.492031414620357"><ele>1276.6666666666665</ele><time>2026-04-09T09:34:49Z</time></trkpt><trkpt lat="45.868600926260896" lon="9.492135515200692"><ele>1272.5</ele><time>2026-04-09T09:34:50Z</time></trkpt><trkpt lat="45.868694683112" lon="9.492243182654036"><ele>1268.3333333333333</ele><time>2026-04-09T09:34:52Z</time></trkpt><trkpt lat="45.86873793764809" lon="9.492311940423553"><ele>1264.1666666666667</ele><time>2026-04-09T09:34:53Z</time></trkpt><trkpt lat="45.868782221889816" lon="9.492381137551263"><ele>1260.0</ele><time>2026-04-09T09:34:54Z</time></trkpt><trkpt lat="45.86882764345768" lon="9.492497340450228"><ele>1260.0</ele><time>2026-04-09T09:34:56Z</time></trkpt><trkpt lat="45.86886818889765" lon="9.492633821631529"><ele>1260.0</ele><time>2026-04-09T09:34:58Z</time></trkpt><trkpt lat="45.86888401680053" lon="9.49280641327499"><ele>1260.0</ele><time>2026-04-09T09:35:00Z</time></trkpt><trkpt lat="45.86887744053001" lon="9.492956925885018"><ele>1260.0</ele><time>2026-04-09T09:35:02Z</time></trkpt><trkpt lat="45.86891281511078" lon="9.49309708367125"><ele>1260.0</ele><time>2026-04-09T09:35:04Z</time></trkpt><trkpt lat="45.86893871858024" lon="9.49323853720346"><ele>1262.0</ele><time>2026-04-09T09:35:06Z</time></trkpt><trkpt lat="45.868944770342" lon="9.493331178513834"><ele>1264.0</ele><time>2026-04-09T09:35:08Z</time></trkpt><trkpt lat="45.86895938603768" lon="9.493427512298213"><ele>1266.0</ele><time>2026-04-09T09:35:09Z</time></trkpt><trkpt lat="45.86898113789667" lon="9.49357274766907"><ele>1268.0</ele><time>2026-04-09T09:35:11Z</time></trkpt><trkpt lat="45.86899694040425" lon="9.493660614011041"><ele>1270.0</ele><time>2026-04-09T09:35:12Z</time></trkpt><trkpt lat="45.869037515833355" lon="9.49381517120703"><ele>1272.0</ele><time>2026-04-09T09:35:14Z</time></trkpt><trkpt lat="45.8690783229933" lon="9.493924757932318"><ele>1268.8</ele><time>2026-04-09T09:35:16Z</time></trkpt><trkpt lat="45.86912367697536" lon="9.494019549863154"><ele>1265.6</ele><time>2026-04-09T09:35:18Z</time></trkpt><trkpt lat="45.869165545187" lon="9.494096412223263"><ele>1262.3999999999999</ele><time>2026-04-09T09:35:19Z</time></trkpt><trkpt lat="45.86926066230699" lon="9.49421669522733"><ele>1259.2</ele><time>2026-04-09T09:35:21.001Z</time></trkpt><trkpt lat="45.869344109353804" lon="9.494295045123408"><ele>1256.0</ele><time>2026-04-09T09:35:23.001Z</time></trkpt><trkpt lat="45.869414859782054" lon="9.494383528241318"><ele>1256.0</ele><time>2026-04-09T09:35:25.001Z</time></trkpt><trkpt lat="45.869464309104075" lon="9.49449236035811"><ele>1256.0</ele><time>2026-04-09T09:35:27.001Z</time></trkpt><trkpt lat="45.869481677584794" lon="9.49463074077174"><ele>1256.0</ele><time>2026-04-09T09:35:29.001Z</time></trkpt><trkpt lat="45.869516432557546" lon="9.494752030744321"><ele>1256.0</ele><time>2026-04-09T09:35:31.001Z</time></trkpt><trkpt lat="45.869521984078986" lon="9.494963215469307"><ele>1256.0</ele><time>2026-04-09T09:35:34.001Z</time></trkpt><trkpt lat="45.869549660064195" lon="9.495113340223075"><ele>1260.5</ele><time>2026-04-09T09:35:36.001Z</time></trkpt><trkpt lat="45.8695601242322" lon="9.495273842412521"><ele>1265.0</ele><time>2026-04-09T09:35:38.001Z</time></trkpt><trkpt lat="45.86958484247371" lon="9.495458092627926"><ele>1269.5</ele><time>2026-04-09T09:35:40.001Z</time></trkpt><trkpt lat="45.869635641062466" lon="9.495597722717132"><ele>1274.0</ele><time>2026-04-09T09:35:42.001Z</time></trkpt><trkpt lat="45.86970404552509" lon="9.495731468488572"><ele>1278.8000000000002</ele><time>2026-04-09T09:35:44.001Z</time></trkpt><trkpt lat="45.86978558031472" lon="9.495839352240923"><ele>1283.6000000000001</ele><time>2026-04-09T09:35:46.001Z</time></trkpt><trkpt lat="45.86985634209047" lon="9.495931979180588"><ele>1288.4</ele><time>2026-04-09T09:35:48.001Z</time></trkpt><trkpt lat="45.869928022074866" lon="9.496037547703112"><ele>1293.2</ele><time>2026-04-09T09:35:50.001Z</time></trkpt><trkpt lat="45.86996841242803" lon="9.496107385003437"><ele>1298.0</ele><time>2026-04-09T09:35:51.001Z</time></trkpt><trkpt lat="45.87005912647522" lon="9.496218930764636"><ele>1300.4</ele><time>2026-04-09T09:35:53.002Z</time></trkpt><trkpt lat="45.87008157893716" lon="9.496335358799566"><ele>1302.8000000000002</ele><time>2026-04-09T09:35:55.002Z</time></trkpt><trkpt lat="45.87008017224542" lon="9.496489063211715"><ele>1305.2</ele><time>2026-04-09T09:35:57.002Z</time></trkpt><trkpt lat="45.870034223632835" lon="9.496609360290082"><ele>1307.6</ele><time>2026-04-09T09:35:59.002Z</time></trkpt><trkpt lat="45.86998074252174" lon="9.49675331360866"><ele>1310.0</ele><time>2026-04-09T09:36:01.002Z</time></trkpt><trkpt lat="45.869893622436564" lon="9.496870620872768"><ele>1310.0</ele><time>2026-04-09T09:36:03.002Z</time></trkpt><trkpt lat="45.86984940475941" lon="9.496951228081093"><ele>1310.0</ele><time>2026-04-09T09:36:04.002Z</time></trkpt><trkpt lat="45.86980912605733" lon="9.49702383148148"><ele>1310.0</ele><time>2026-04-09T09:36:05.002Z</time></trkpt><trkpt lat="45.869769466047465" lon="9.497098462835705"><ele>1310.0</ele><time>2026-04-09T09:36:06.002Z</time></trkpt><trkpt lat="45.869736250157644" lon="9.497191782162417"><ele>1310.0</ele><time>2026-04-09T09:36:07.002Z</time></trkpt><trkpt lat="45.869700480312915" lon="9.497277406068635"><ele>1310.0</ele><time>2026-04-09T09:36:08.002Z</time></trkpt><trkpt lat="45.86964541680582" lon="9.497408231472319"><ele>1308.8333333333335</ele><time>2026-04-09T09:36:10.002Z</time></trkpt><trkpt lat="45.86959763654281" lon="9.497548676507552"><ele>1307.6666666666667</ele><time>2026-04-09T09:36:12.002Z</time></trkpt><trkpt lat="45.86956404172981" lon="9.497629708870805"><ele>1306.5</ele><time>2026-04-09T09:36:13.002Z</time></trkpt><trkpt lat="45.869542792194665" lon="9.497722576761028"><ele>1305.3333333333333</ele><time>2026-04-09T09:36:14.002Z</time></trkpt><trkpt lat="45.86949490373057" lon="9.497839385155839"><ele>1304.1666666666665</ele><time>2026-04-09T09:36:16.002Z</time></trkpt><trkpt lat="45.869466629516864" lon="9.497960538436132"><ele>1303.0</ele><time>2026-04-09T09:36:17.002Z</time></trkpt><trkpt lat="45.869463702113805" lon="9.498053955868349"><ele>1302.4</ele><time>2026-04-09T09:36:18.002Z</time></trkpt><trkpt lat="45.86944678134736" lon="9.498184992668612"><ele>1301.8000000000002</ele><time>2026-04-09T09:36:20.002Z</time></trkpt><trkpt lat="45.86946383923668" lon="9.49828723613487"><ele>1301.2</ele><time>2026-04-09T09:36:21.002Z</time></trkpt><trkpt lat="45.869501536883085" lon="9.49843768789025"><ele>1300.6</ele><time>2026-04-09T09:36:23.002Z</time></trkpt><trkpt lat="45.86952967265984" lon="9.498592355793157"><ele>1300.0</ele><time>2026-04-09T09:36:25.002Z</time></trkpt><trkpt lat="45.86958520557695" lon="9.49874266738041"><ele>1303.0</ele><time>2026-04-09T09:36:27.003Z</time></trkpt><trkpt lat="45.8696214218694" lon="9.498890736488644"><ele>1306.0</ele><time>2026-04-09T09:36:29.003Z</time></trkpt><trkpt lat="45.86967106317435" lon="9.499043342697023"><ele>1309.0</ele><time>2026-04-09T09:36:31.003Z</time></trkpt><trkpt lat="45.86972059727056" lon="9.499179578198415"><ele>1312.0</ele><time>2026-04-09T09:36:33.003Z</time></trkpt><trkpt lat="45.869730315686944" lon="9.499270439032971"><ele>1315.0</ele><time>2026-04-09T09:36:35.003Z</time></trkpt><trkpt lat="45.86973690753897" lon="9.499363256938677"><ele>1315.0</ele><time>2026-04-09T09:36:39.003Z</time></trkpt><trkpt lat="45.869672404855265" lon="9.499267675301494"><ele>1315.0</ele><time>2026-04-09T09:36:43.003Z</time></trkpt><trkpt lat="45.86965676000861" lon="9.499145777182152"><ele>1315.0</ele><time>2026-04-09T09:36:45.003Z</time></trkpt><trkpt lat="45.86960252916247" lon="9.499036115130291"><ele>1315.0</ele><time>2026-04-09T09:36:47.003Z</time></trkpt><trkpt lat="45.86954608346155" lon="9.498912539670744"><ele>1315.0</ele><time>2026-04-09T09:36:49.003Z</time></trkpt><trkpt lat="45.86949190229021" lon="9.498806407821322"><ele>1312.0</ele><time>2026-04-09T09:36:51.003Z</time></trkpt><trkpt lat="45.86942611537867" lon="9.498688109575099"><ele>1309.0</ele><time>2026-04-09T09:36:53Z</time></trkpt><trkpt lat="45.86934759189531" lon="9.498577231175483"><ele>1306.0</ele><time>2026-04-09T09:36:55Z</time></trkpt><trkpt lat="45.869297919697054" lon="9.498449784797874"><ele>1303.0</ele><time>2026-04-09T09:36:57Z</time></trkpt><trkpt lat="45.869267668244504" lon="9.498367202544575"><ele>1300.0</ele><time>2026-04-09T09:36:58Z</time></trkpt><trkpt lat="45.8692415296245" lon="9.498185727747755"><ele>1309.8</ele><time>2026-04-09T09:37:00Z</time></trkpt><trkpt lat="45.869224923214254" lon="9.498026427631787"><ele>1319.6</ele><time>2026-04-09T09:37:02Z</time></trkpt><trkpt lat="45.86920519611516" lon="9.497876351638622"><ele>1329.4</ele><time>2026-04-09T09:37:04Z</time></trkpt><trkpt lat="45.86921524082789" lon="9.497786945452798"><ele>1339.2</ele><time>2026-04-09T09:37:05Z</time></trkpt><trkpt lat="45.86922064725055" lon="9.497630050666649"><ele>1349.0</ele><time>2026-04-09T09:37:07Z</time></trkpt><trkpt lat="45.86923127668508" lon="9.497451692858588"><ele>1349.0</ele><time>2026-04-09T09:37:09Z</time></trkpt><trkpt lat="45.86925725794009" lon="9.49727727719646"><ele>1349.0</ele><time>2026-04-09T09:37:11Z</time></trkpt><trkpt lat="45.86927064792315" lon="9.497182022785733"><ele>1349.0</ele><time>2026-04-09T09:37:12Z</time></trkpt><trkpt lat="45.86929837891471" lon="9.49703047366988"><ele>1349.0</ele><time>2026-04-09T09:37:14Z</time></trkpt><trkpt lat="45.869300723418235" lon="9.496874639597527"><ele>1349.0</ele><time>2026-04-09T09:37:16Z</time></trkpt><trkpt lat="45.86929140157178" lon="9.49673617154263"><ele>1349.2</ele><time>2026-04-09T09:37:18Z</time></trkpt><trkpt lat="45.869252804230946" lon="9.496596435764031"><ele>1349.4</ele><time>2026-04-09T09:37:20Z</time></trkpt><trkpt lat="45.869210690365236" lon="9.496478183312151"><ele>1349.6</ele><time>2026-04-09T09:37:22Z</time></trkpt><trkpt lat="45.86914273482021" lon="9.496338377704866"><ele>1349.8</ele><time>2026-04-09T09:37:24Z</time></trkpt><trkpt lat="45.869099841072725" lon="9.496258876076087"><ele>1350.0</ele><time>2026-04-09T09:37:25.001Z</time></trkpt><trkpt lat="45.86906055638177" lon="9.496186063730613"><ele>1347.0</ele><time>2026-04-09T09:37:26.001Z</time></trkpt><trkpt lat="45.868980212624706" lon="9.496046326636037"><ele>1344.0</ele><time>2026-04-09T09:37:28.001Z</time></trkpt><trkpt lat="45.868915949584085" lon="9.495891174018652"><ele>1341.0</ele><time>2026-04-09T09:37:30.001Z</time></trkpt><trkpt lat="45.8688830275189" lon="9.495803392041177"><ele>1338.0</ele><time>2026-04-09T09:37:31.001Z</time></trkpt><trkpt lat="45.868858342133244" lon="9.495708459727464"><ele>1335.0</ele><time>2026-04-09T09:37:32.001Z</time></trkpt><trkpt lat="45.86883009614963" lon="9.495618394646032"><ele>1335.0</ele><time>2026-04-09T09:37:33.001Z</time></trkpt><trkpt lat="45.86879916514644" lon="9.49552134057754"><ele>1335.0</ele><time>2026-04-09T09:37:34.001Z</time></trkpt><trkpt lat="45.86876511206139" lon="9.495444998420988"><ele>1335.0</ele><time>2026-04-09T09:37:35.001Z</time></trkpt><trkpt lat="45.86873021588035" lon="9.495365442446108"><ele>1335.0</ele><time>2026-04-09T09:37:36.001Z</time></trkpt><trkpt lat="45.86869382840316" lon="9.495284286222937"><ele>1335.0</ele><time>2026-04-09T09:37:37.001Z</time></trkpt><trkpt lat="45.86865179760412" lon="9.495202993492676"><ele>1335.0</ele><time>2026-04-09T09:37:38.001Z</time></trkpt><trkpt lat="45.86860360307003" lon="9.495126539326032"><ele>1335.0</ele><time>2026-04-09T09:37:39.001Z</time></trkpt><trkpt lat="45.868568232786664" lon="9.49503880385785"><ele>1335.1666666666667</ele><time>2026-04-09T09:37:40.001Z</time></trkpt><trkpt lat="45.868520807577696" lon="9.494966258236024"><ele>1335.3333333333333</ele><time>2026-04-09T09:37:41.001Z</time></trkpt><trkpt lat="45.86847218148743" lon="9.494895171928851"><ele>1335.5</ele><time>2026-04-09T09:37:42.001Z</time></trkpt><trkpt lat="45.86841353936658" lon="9.494846151444932"><ele>1335.6666666666665</ele><time>2026-04-09T09:37:43.001Z</time></trkpt><trkpt lat="45.86833922184919" lon="9.494725918632987"><ele>1335.8333333333333</ele><time>2026-04-09T09:37:45.001Z</time></trkpt><trkpt lat="45.86829739769875" lon="9.494654616549036"><ele>1336.0</ele><time>2026-04-09T09:37:46.001Z</time></trkpt><trkpt lat="45.86825576660548" lon="9.494573751212391"><ele>1336.0</ele><time>2026-04-09T09:37:47.001Z</time></trkpt><trkpt lat="45.86821524571149" lon="9.494489534408602"><ele>1336.0</ele><time>2026-04-09T09:37:48.001Z</time></trkpt><trkpt lat="45.86816884323445" lon="9.494408570493492"><ele>1336.0</ele><time>2026-04-09T09:37:49.001Z</time></trkpt><trkpt lat="45.868126290358205" lon="9.494325249783362"><ele>1336.0</ele><time>2026-04-09T09:37:50.001Z</time></trkpt><trkpt lat="45.86808856014103" lon="9.494238467943685"><ele>1336.0</ele><time>2026-04-09T09:37:51.001Z</time></trkpt><trkpt lat="45.86805375262443" lon="9.494150584756945"><ele>1336.0</ele><time>2026-04-09T09:37:52.001Z</time></trkpt><trkpt lat="45.86800886070582" lon="9.494052250462238"><ele>1336.0</ele><time>2026-04-09T09:37:53.001Z</time></trkpt><trkpt lat="45.867962092683236" lon="9.493949982337359"><ele>1336.0</ele><time>2026-04-09T09:37:54.001Z</time></trkpt><trkpt lat="45.86791558855764" lon="9.493850047306054"><ele>1336.0</ele><time>2026-04-09T09:37:55.001Z</time></trkpt><trkpt lat="45.86787556665218" lon="9.493755079842634"><ele>1336.0</ele><time>2026-04-09T09:37:56.001Z</time></trkpt><trkpt lat="45.86779468540734" lon="9.493613090502864"><ele>1336.0</ele><time>2026-04-09T09:37:58.001Z</time></trkpt><trkpt lat="45.867746523143516" lon="9.493531245689681"><ele>1336.0</ele><time>2026-04-09T09:37:59.002Z</time></trkpt><trkpt lat="45.86769267176175" lon="9.493451363597691"><ele>1336.0</ele><time>2026-04-09T09:38:00.002Z</time></trkpt><trkpt lat="45.86763229876412" lon="9.493371260249614"><ele>1336.6</ele><time>2026-04-09T09:38:01.002Z</time></trkpt><trkpt lat="45.8675775898411" lon="9.493300493629759"><ele>1337.1999999999998</ele><time>2026-04-09T09:38:02.002Z</time></trkpt><trkpt lat="45.86752223825452" lon="9.493218169289975"><ele>1337.8000000000002</ele><time>2026-04-09T09:38:03.002Z</time></trkpt><trkpt lat="45.86746639797337" lon="9.49313701702918"><ele>1338.4</ele><time>2026-04-09T09:38:04.002Z</time></trkpt><trkpt lat="45.86735251628333" lon="9.492966186346928"><ele>1339.0</ele><time>2026-04-09T09:38:06.002Z</time></trkpt><trkpt lat="45.8673063694202" lon="9.492894981294459"><ele>1339.0</ele><time>2026-04-09T09:38:07.002Z</time></trkpt><trkpt lat="45.867259840045094" lon="9.492816629098902"><ele>1339.0</ele><time>2026-04-09T09:38:08.002Z</time></trkpt><trkpt lat="45.867213585440226" lon="9.49273584635157"><ele>1339.0</ele><time>2026-04-09T09:38:09.002Z</time></trkpt><trkpt lat="45.86716137311009" lon="9.492654062153582"><ele>1339.0</ele><time>2026-04-09T09:38:10.002Z</time></trkpt><trkpt lat="45.86711598162017" lon="9.492579688070162"><ele>1339.0</ele><time>2026-04-09T09:38:11.002Z</time></trkpt><trkpt lat="45.86704977546398" lon="9.492439360022312"><ele>1339.0</ele><time>2026-04-09T09:38:13.002Z</time></trkpt><trkpt lat="45.86699896292719" lon="9.49236717716949"><ele>1339.0</ele><time>2026-04-09T09:38:15.002Z</time></trkpt><trkpt lat="45.86695013320579" lon="9.492292511937956"><ele>1339.0</ele><time>2026-04-09T09:38:18.002Z</time></trkpt><trkpt lat="45.86693546205893" lon="9.492482417501936"><ele>1339.0</ele><time>2026-04-09T09:38:27.002Z</time></trkpt><trkpt lat="45.866969406784385" lon="9.492571546422505"><ele>1339.0</ele><time>2026-04-09T09:38:30.002Z</time></trkpt><trkpt lat="45.866959651259805" lon="9.492664652891236"><ele>1339.0</ele><time>2026-04-09T09:51:53Z</time></trkpt><trkpt lat="45.86693195182228" lon="9.492565067588371"><ele>1339.0</ele><time>2026-04-09T09:52:19Z</time></trkpt><trkpt lat="45.866918958441815" lon="9.492471288210181"><ele>1339.0</ele><time>2026-04-09T10:01:23.001Z</time></trkpt><trkpt lat="45.866883979540795" lon="9.492383068227374"><ele>1339.0</ele><time>2026-04-09T10:01:27.002Z</time></trkpt><trkpt lat="45.86685227910969" lon="9.492292205449791"><ele>1339.0</ele><time>2026-04-09T10:01:30.002Z</time></trkpt><trkpt lat="45.866792977755466" lon="9.492232452145704"><ele>1339.0</ele><time>2026-04-09T10:01:33.002Z</time></trkpt><trkpt lat="45.86672438481563" lon="9.492208001619934"><ele>1339.0</ele><time>2026-04-09T10:01:35.002Z</time></trkpt><trkpt lat="45.86665355390271" lon="9.49220323808932"><ele>1339.0</ele><time>2026-04-09T10:01:37.002Z</time></trkpt><trkpt lat="45.86657229299487" lon="9.49219134539641"><ele>1339.0</ele><time>2026-04-09T10:01:39.002Z</time></trkpt><trkpt lat="45.86649765503512" lon="9.492171860683607"><ele>1341.6666666666665</ele><time>2026-04-09T10:01:41.002Z</time></trkpt><trkpt lat="45.86642733880607" lon="9.492137954945907"><ele>1344.3333333333333</ele><time>2026-04-09T10:01:43.002Z</time></trkpt><trkpt lat="45.866364266656475" lon="9.49210713647939"><ele>1347.0</ele><time>2026-04-09T10:01:45.002Z</time></trkpt><trkpt lat="45.866277433947246" lon="9.492085019654265"><ele>1349.6666666666667</ele><time>2026-04-09T10:01:48.002Z</time></trkpt><trkpt lat="45.86620513953153" lon="9.492039354455125"><ele>1352.3333333333335</ele><time>2026-04-09T10:01:50.002Z</time></trkpt><trkpt lat="45.866132103662075" lon="9.49199106891852"><ele>1355.0</ele><time>2026-04-09T10:01:52.002Z</time></trkpt><trkpt lat="45.866060228762095" lon="9.491939520668879"><ele>1355.8</ele><time>2026-04-09T10:01:54.002Z</time></trkpt><trkpt lat="45.865976867181686" lon="9.491903677229095"><ele>1356.6</ele><time>2026-04-09T10:01:56.002Z</time></trkpt><trkpt lat="45.86589359648244" lon="9.491880691739281"><ele>1357.4</ele><time>2026-04-09T10:01:58.002Z</time></trkpt><trkpt lat="45.86579512197601" lon="9.49186606962388"><ele>1358.2</ele><time>2026-04-09T10:02:00.002Z</time></trkpt><trkpt lat="45.8656955003987" lon="9.4918411252338"><ele>1359.0</ele><time>2026-04-09T10:02:02.002Z</time></trkpt><trkpt lat="45.86559622138894" lon="9.491875573151518"><ele>1359.2</ele><time>2026-04-09T10:02:04.002Z</time></trkpt><trkpt lat="45.86551576164566" lon="9.491792241310886"><ele>1359.4</ele><time>2026-04-09T10:02:05.001Z</time></trkpt><trkpt lat="45.86539952067839" lon="9.49178504963624"><ele>1359.6</ele><time>2026-04-09T10:02:07Z</time></trkpt><trkpt lat="45.86528869049722" lon="9.491767018788819"><ele>1359.8</ele><time>2026-04-09T10:02:09Z</time></trkpt><trkpt lat="45.86522546278301" lon="9.491751827648221"><ele>1360.0</ele><time>2026-04-09T10:02:10Z</time></trkpt><trkpt lat="45.86510122138292" lon="9.49172017754319"><ele>1358.3333333333333</ele><time>2026-04-09T10:02:12Z</time></trkpt><trkpt lat="45.86498895911835" lon="9.491719417331401"><ele>1356.6666666666665</ele><time>2026-04-09T10:02:14Z</time></trkpt><trkpt lat="45.864896869553455" lon="9.491712009301844"><ele>1355.0</ele><time>2026-04-09T10:02:16Z</time></trkpt><trkpt lat="45.864828542263396" lon="9.491686331742754"><ele>1353.3333333333333</ele><time>2026-04-09T10:02:18Z</time></trkpt><trkpt lat="45.86473474943142" lon="9.49170581543712"><ele>1351.6666666666667</ele><time>2026-04-09T10:02:20Z</time></trkpt><trkpt lat="45.86466958316592" lon="9.491713216080054"><ele>1350.0</ele><time>2026-04-09T10:02:21Z</time></trkpt><trkpt lat="45.86459992533111" lon="9.49175335190869"><ele>1350.0</ele><time>2026-04-09T10:02:23Z</time></trkpt><trkpt lat="45.86450884200592" lon="9.491723029888202"><ele>1350.0</ele><time>2026-04-09T10:02:25Z</time></trkpt><trkpt lat="45.86442399627266" lon="9.491694235279542"><ele>1350.0</ele><time>2026-04-09T10:02:27Z</time></trkpt><trkpt lat="45.864326034258205" lon="9.491664479392078"><ele>1350.0</ele><time>2026-04-09T10:02:29Z</time></trkpt><trkpt lat="45.864210358231965" lon="9.491652270586187"><ele>1350.0</ele><time>2026-04-09T10:02:31Z</time></trkpt><trkpt lat="45.86410899064573" lon="9.491654239807419"><ele>1348.8</ele><time>2026-04-09T10:02:33Z</time></trkpt><trkpt lat="45.86404552934123" lon="9.491665299539742"><ele>1347.6</ele><time>2026-04-09T10:02:34Z</time></trkpt><trkpt lat="45.863981968237724" lon="9.491685139885488"><ele>1346.4</ele><time>2026-04-09T10:02:35Z</time></trkpt><trkpt lat="45.86387339366211" lon="9.491728172066736"><ele>1345.2</ele><time>2026-04-09T10:02:37Z</time></trkpt><trkpt lat="45.86375885858747" lon="9.491781898566673"><ele>1344.0</ele><time>2026-04-09T10:02:39Z</time></trkpt><trkpt lat="45.86365900636353" lon="9.491834868743467"><ele>1344.0</ele><time>2026-04-09T10:02:41Z</time></trkpt><trkpt lat="45.863567298937305" lon="9.491889961613825"><ele>1344.0</ele><time>2026-04-09T10:02:43Z</time></trkpt><trkpt lat="45.86351614137746" lon="9.49194432743905"><ele>1344.0</ele><time>2026-04-09T10:02:44Z</time></trkpt><trkpt lat="45.863417120892706" lon="9.492009666243316"><ele>1344.0</ele><time>2026-04-09T10:02:46Z</time></trkpt><trkpt lat="45.86333377867987" lon="9.49207685235504"><ele>1344.0</ele><time>2026-04-09T10:02:48Z</time></trkpt><trkpt lat="45.863248586778916" lon="9.492128303810347"><ele>1342.8000000000002</ele><time>2026-04-09T10:02:50Z</time></trkpt><trkpt lat="45.86316627074164" lon="9.492161640872588"><ele>1341.6000000000001</ele><time>2026-04-09T10:02:52Z</time></trkpt><trkpt lat="45.86307224532826" lon="9.492183002886238"><ele>1340.4</ele><time>2026-04-09T10:02:54Z</time></trkpt><trkpt lat="45.86300396881256" lon="9.492110819028962"><ele>1339.2</ele><time>2026-04-09T10:02:56Z</time></trkpt><trkpt lat="45.86293357379181" lon="9.492026387758653"><ele>1338.0</ele><time>2026-04-09T10:02:58Z</time></trkpt><trkpt lat="45.862842115552255" lon="9.491939882011014"><ele>1338.0</ele><time>2026-04-09T10:03:00Z</time></trkpt><trkpt lat="45.86278748000833" lon="9.491891710587629"><ele>1338.0</ele><time>2026-04-09T10:03:01.001Z</time></trkpt><trkpt lat="45.8627171187266" lon="9.491829891529731"><ele>1338.0</ele><time>2026-04-09T10:03:03.001Z</time></trkpt><trkpt lat="45.86262301611307" lon="9.49175798613638"><ele>1338.0</ele><time>2026-04-09T10:03:05.001Z</time></trkpt><trkpt lat="45.862565280416305" lon="9.491680882127264"><ele>1338.0</ele><time>2026-04-09T10:03:07.001Z</time></trkpt><trkpt lat="45.86253073407494" lon="9.491560518452262"><ele>1338.0</ele><time>2026-04-09T10:03:09.001Z</time></trkpt><trkpt lat="45.862514677360295" lon="9.491448218828927"><ele>1334.0</ele><time>2026-04-09T10:03:11.001Z</time></trkpt><trkpt lat="45.862504454887336" lon="9.491346326763148"><ele>1330.0</ele><time>2026-04-09T10:03:13.001Z</time></trkpt><trkpt lat="45.86249595283101" lon="9.491240477501599"><ele>1326.0</ele><time>2026-04-09T10:03:15.001Z</time></trkpt><trkpt lat="45.86248946164258" lon="9.491129053453374"><ele>1322.0</ele><time>2026-04-09T10:03:18.001Z</time></trkpt><trkpt lat="45.86248550235583" lon="9.490988445261788"><ele>1318.0</ele><time>2026-04-09T10:03:26.001Z</time></trkpt><trkpt lat="45.86248594092687" lon="9.490862324646955"><ele>1314.0</ele><time>2026-04-09T10:03:28.001Z</time></trkpt><trkpt lat="45.86249069071381" lon="9.490757406117595"><ele>1314.0</ele><time>2026-04-09T10:03:30.001Z</time></trkpt><trkpt lat="45.86249989345882" lon="9.490660597494896"><ele>1314.0</ele><time>2026-04-09T10:03:32.001Z</time></trkpt><trkpt lat="45.86251551628872" lon="9.490565740202934"><ele>1314.0</ele><time>2026-04-09T10:03:34.001Z</time></trkpt><trkpt lat="45.86254068343649" lon="9.490450850447258"><ele>1314.0</ele><time>2026-04-09T10:03:37.001Z</time></trkpt><trkpt lat="45.86257192142113" lon="9.490337370308854"><ele>1314.0</ele><time>2026-04-09T10:03:39.001Z</time></trkpt><trkpt lat="45.86260780217054" lon="9.490231790043552"><ele>1314.0</ele><time>2026-04-09T10:03:42.001Z</time></trkpt><trkpt lat="45.86264232037016" lon="9.490145766143996"><ele>1317.0</ele><time>2026-04-09T10:03:44.001Z</time></trkpt><trkpt lat="45.862679917435266" lon="9.490062944279817"><ele>1320.0</ele><time>2026-04-09T10:03:46.001Z</time></trkpt><trkpt lat="45.862709200553454" lon="9.489967624202256"><ele>1323.0</ele><time>2026-04-09T10:03:48.001Z</time></trkpt><trkpt lat="45.862771773030346" lon="9.489883325036017"><ele>1326.0</ele><time>2026-04-09T10:03:51.001Z</time></trkpt><trkpt lat="45.86284472347497" lon="9.489784984040867"><ele>1329.0</ele><time>2026-04-09T10:03:54.001Z</time></trkpt><trkpt lat="45.86290318267462" lon="9.48973052896307"><ele>1332.0</ele><time>2026-04-09T10:03:56.001Z</time></trkpt><trkpt lat="45.86296978686249" lon="9.489661508971844"><ele>1329.3999999999999</ele><time>2026-04-09T10:03:58.001Z</time></trkpt><trkpt lat="45.86305300417903" lon="9.489581815378356"><ele>1326.8</ele><time>2026-04-09T10:04:00.001Z</time></trkpt><trkpt lat="45.86313947082396" lon="9.489505630458353"><ele>1324.2</ele><time>2026-04-09T10:04:02.001Z</time></trkpt><trkpt lat="45.86322186148747" lon="9.48943471402922"><ele>1321.6</ele><time>2026-04-09T10:04:04.001Z</time></trkpt><trkpt lat="45.86330138357036" lon="9.489370634675737"><ele>1319.0</ele><time>2026-04-09T10:04:06.001Z</time></trkpt><trkpt lat="45.8633732523336" lon="9.489285507678575"><ele>1319.0</ele><time>2026-04-09T10:04:08.001Z</time></trkpt><trkpt lat="45.863399469116366" lon="9.489155483818177"><ele>1319.0</ele><time>2026-04-09T10:04:10.996Z</time></trkpt><trkpt lat="45.86337373340742" lon="9.489051580629715"><ele>1319.0</ele><time>2026-04-09T10:04:12.996Z</time></trkpt><trkpt lat="45.86332029620028" lon="9.489000010832067"><ele>1319.0</ele><time>2026-04-09T10:04:13.996Z</time></trkpt><trkpt lat="45.86322447444051" lon="9.48901031430859"><ele>1319.0</ele><time>2026-04-09T10:04:14.996Z</time></trkpt><trkpt lat="45.86311637708537" lon="9.489000258465802"><ele>1319.0</ele><time>2026-04-09T10:04:16.996Z</time></trkpt><trkpt lat="45.86305419320351" lon="9.488981203906556"><ele>1319.0</ele><time>2026-04-09T10:04:17.996Z</time></trkpt><trkpt lat="45.862947444246444" lon="9.488945160570719"><ele>1319.0</ele><time>2026-04-09T10:04:19.996Z</time></trkpt><trkpt lat="45.86283621622166" lon="9.488901465261494"><ele>1319.0</ele><time>2026-04-09T10:04:21.997Z</time></trkpt><trkpt lat="45.8627444574157" lon="9.488857925784554"><ele>1319.0</ele><time>2026-04-09T10:04:23.997Z</time></trkpt><trkpt lat="45.862640317822915" lon="9.488812995734403"><ele>1319.0</ele><time>2026-04-09T10:04:25.997Z</time></trkpt><trkpt lat="45.86253703222574" lon="9.48877763656927"><ele>1317.0</ele><time>2026-04-09T10:04:27.997Z</time></trkpt><trkpt lat="45.86243904011472" lon="9.488714221558933"><ele>1315.0</ele><time>2026-04-09T10:04:29.997Z</time></trkpt><trkpt lat="45.862375243419926" lon="9.488705786869001"><ele>1313.0</ele><time>2026-04-09T10:04:30.997Z</time></trkpt><trkpt lat="45.862283089427635" lon="9.488656957766048"><ele>1311.0</ele><time>2026-04-09T10:04:32.998Z</time></trkpt><trkpt lat="45.86217943870032" lon="9.48861026317228"><ele>1309.0</ele><time>2026-04-09T10:04:34.998Z</time></trkpt><trkpt lat="45.86206997518318" lon="9.488561097476499"><ele>1309.0</ele><time>2026-04-09T10:04:36.998Z</time></trkpt><trkpt lat="45.861975498886316" lon="9.488507908261807"><ele>1309.0</ele><time>2026-04-09T10:04:38.998Z</time></trkpt><trkpt lat="45.861904736359676" lon="9.488501859523204"><ele>1309.0</ele><time>2026-04-09T10:04:39.998Z</time></trkpt><trkpt lat="45.86180586160066" lon="9.488438586439468"><ele>1309.0</ele><time>2026-04-09T10:04:41.998Z</time></trkpt><trkpt lat="45.86171240764008" lon="9.488396265074789"><ele>1309.0</ele><time>2026-04-09T10:04:43.998Z</time></trkpt><trkpt lat="45.86160851513259" lon="9.488381280144436"><ele>1305.0</ele><time>2026-04-09T10:04:45.998Z</time></trkpt><trkpt lat="45.86154902271782" lon="9.48841883416229"><ele>1301.0</ele><time>2026-04-09T10:04:46.998Z</time></trkpt><trkpt lat="45.8614853799167" lon="9.488495492012243"><ele>1297.0</ele><time>2026-04-09T10:04:48.998Z</time></trkpt><trkpt lat="45.86140086022073" lon="9.4885537492239"><ele>1293.0</ele><time>2026-04-09T10:04:50.999Z</time></trkpt><trkpt lat="45.86131609333969" lon="9.48862765283424"><ele>1289.0</ele><time>2026-04-09T10:04:52.999Z</time></trkpt><trkpt lat="45.861234066881146" lon="9.488654748066953"><ele>1285.0</ele><time>2026-04-09T10:04:54.999Z</time></trkpt><trkpt lat="45.8611697699367" lon="9.48861723781567"><ele>1285.0</ele><time>2026-04-09T10:04:56.999Z</time></trkpt><trkpt lat="45.861167625576236" lon="9.488497177683328"><ele>1285.0</ele><time>2026-04-09T10:04:59.999Z</time></trkpt><trkpt lat="45.8612401030729" lon="9.488494255941795"><ele>1285.0</ele><time>2026-04-09T10:05:01.999Z</time></trkpt><trkpt lat="45.86129217646427" lon="9.488410729548649"><ele>1285.0</ele><time>2026-04-09T10:05:03.999Z</time></trkpt><trkpt lat="45.86133178065832" lon="9.48832062438609"><ele>1285.0</ele><time>2026-04-09T10:05:05.999Z</time></trkpt><trkpt lat="45.86137734038671" lon="9.488247582573651"><ele>1285.0</ele><time>2026-04-09T10:05:07.999Z</time></trkpt><trkpt lat="45.86139911188745" lon="9.48811955617293"><ele>1285.0</ele><time>2026-04-09T10:05:09.999Z</time></trkpt><trkpt lat="45.86139064121483" lon="9.488005075660649"><ele>1285.0</ele><time>2026-04-09T10:05:11.999Z</time></trkpt><trkpt lat="45.861370044246854" lon="9.487892642142008"><ele>1285.0</ele><time>2026-04-09T10:05:13.999Z</time></trkpt><trkpt lat="45.861346424406264" lon="9.487794476586101"><ele>1285.0</ele><time>2026-04-09T10:05:14.999Z</time></trkpt><trkpt lat="45.86130299945047" lon="9.487656595789812"><ele>1285.0</ele><time>2026-04-09T10:05:16.999Z</time></trkpt><trkpt lat="45.86129718555725" lon="9.48752039570952"><ele>1285.0</ele><time>2026-04-09T10:05:18.999Z</time></trkpt><trkpt lat="45.8613216057858" lon="9.487398931863547"><ele>1285.8</ele><time>2026-04-09T10:05:20.999Z</time></trkpt><trkpt lat="45.86134992197443" lon="9.487251245610226"><ele>1286.6</ele><time>2026-04-09T10:05:22.999Z</time></trkpt><trkpt lat="45.86138131853656" lon="9.487121010457967"><ele>1287.4</ele><time>2026-04-09T10:05:25Z</time></trkpt><trkpt lat="45.86141037277227" lon="9.486991482623342"><ele>1288.2</ele><time>2026-04-09T10:05:27Z</time></trkpt><trkpt lat="45.86142052707426" lon="9.486873884071379"><ele>1289.0</ele><time>2026-04-09T10:05:29Z</time></trkpt><trkpt lat="45.86142355062164" lon="9.486730425421255"><ele>1289.0</ele><time>2026-04-09T10:05:31Z</time></trkpt><trkpt lat="45.86141927481191" lon="9.486593348571061"><ele>1289.0</ele><time>2026-04-09T10:05:33Z</time></trkpt><trkpt lat="45.86140189503356" lon="9.486458914789532"><ele>1289.0</ele><time>2026-04-09T10:05:35Z</time></trkpt><trkpt lat="45.86139360866673" lon="9.486312374815794"><ele>1289.0</ele><time>2026-04-09T10:05:37Z</time></trkpt><trkpt lat="45.861381247086825" lon="9.486173381674453"><ele>1289.0</ele><time>2026-04-09T10:05:39Z</time></trkpt><trkpt lat="45.86140367942986" lon="9.486050098925002"><ele>1289.0</ele><time>2026-04-09T10:05:41Z</time></trkpt><trkpt lat="45.8613898208593" lon="9.485956228890894"><ele>1289.0</ele><time>2026-04-09T10:05:43Z</time></trkpt><trkpt lat="45.86137924280994" lon="9.485848761786325"><ele>1289.0</ele><time>2026-04-09T10:05:45Z</time></trkpt><trkpt lat="45.86131586951288" lon="9.48568824070527"><ele>1289.0</ele><time>2026-04-09T10:05:50Z</time></trkpt><trkpt lat="45.86124861599994" lon="9.485692757719395"><ele>1289.0</ele><time>2026-04-09T10:05:51Z</time></trkpt><trkpt lat="45.8611626636868" lon="9.485756762047664"><ele>1289.0</ele><time>2026-04-09T10:05:52Z</time></trkpt><trkpt lat="45.86110924228558" lon="9.485827307942298"><ele>1289.0</ele><time>2026-04-09T10:05:53Z</time></trkpt><trkpt lat="45.86103041667251" lon="9.485930278259756"><ele>1289.0</ele><time>2026-04-09T10:05:55Z</time></trkpt><trkpt lat="45.86097915974566" lon="9.485995614118758"><ele>1289.0</ele><time>2026-04-09T10:05:56Z</time></trkpt><trkpt lat="45.86090551379206" lon="9.486089488637266"><ele>1289.0</ele><time>2026-04-09T10:05:58Z</time></trkpt><trkpt lat="45.860830130186095" lon="9.486218120172975"><ele>1289.0</ele><time>2026-04-09T10:06:00Z</time></trkpt><trkpt lat="45.86075863131693" lon="9.486304383403644"><ele>1286.0</ele><time>2026-04-09T10:06:01Z</time></trkpt><trkpt lat="45.86067385582681" lon="9.48637946442819"><ele>1283.0</ele><time>2026-04-09T10:06:03Z</time></trkpt><trkpt lat="45.86060895266503" lon="9.486370051724338"><ele>1280.0</ele><time>2026-04-09T10:06:05Z</time></trkpt><trkpt lat="45.86057733157303" lon="9.486287049234074"><ele>1277.0</ele><time>2026-04-09T10:06:07Z</time></trkpt><trkpt lat="45.86050837897515" lon="9.486168138799036"><ele>1274.0</ele><time>2026-04-09T10:06:10.001Z</time></trkpt><trkpt lat="45.8604373179735" lon="9.486061869566813"><ele>1271.0</ele><time>2026-04-09T10:06:12.001Z</time></trkpt><trkpt lat="45.86036942213522" lon="9.485957316726159"><ele>1271.0</ele><time>2026-04-09T10:06:14.001Z</time></trkpt><trkpt lat="45.860316320304165" lon="9.485789632238808"><ele>1271.0</ele><time>2026-04-09T10:06:16.001Z</time></trkpt><trkpt lat="45.860291893390304" lon="9.485672942304737"><ele>1271.0</ele><time>2026-04-09T10:06:16.994Z</time></trkpt><trkpt lat="45.86025978264152" lon="9.48556841853946"><ele>1271.0</ele><time>2026-04-09T10:06:17.994Z</time></trkpt><trkpt lat="45.86018659753056" lon="9.485407565307005"><ele>1271.0</ele><time>2026-04-09T10:06:19.995Z</time></trkpt><trkpt lat="45.860113799296634" lon="9.485283025274144"><ele>1272.3999999999999</ele><time>2026-04-09T10:06:21.995Z</time></trkpt><trkpt lat="45.860026126056276" lon="9.485210029604975"><ele>1273.8</ele><time>2026-04-09T10:06:23.995Z</time></trkpt><trkpt lat="45.859944022615" lon="9.48521998202309"><ele>1275.1999999999998</ele><time>2026-04-09T10:06:25.995Z</time></trkpt><trkpt lat="45.85990937991899" lon="9.48532141752279"><ele>1276.6</ele><time>2026-04-09T10:06:26.995Z</time></trkpt><trkpt lat="45.85990961886266" lon="9.48542964178969"><ele>1278.0</ele><time>2026-04-09T10:06:28.996Z</time></trkpt><trkpt lat="45.86001159198671" lon="9.485506383782706"><ele>1276.6</ele><time>2026-04-09T10:06:31.996Z</time></trkpt><trkpt lat="45.8600794938278" lon="9.485606238140447"><ele>1275.1999999999998</ele><time>2026-04-09T10:06:33.996Z</time></trkpt><trkpt lat="45.86011712278804" lon="9.485737118231295"><ele>1273.8</ele><time>2026-04-09T10:06:35.997Z</time></trkpt><trkpt lat="45.860142924485054" lon="9.48588090150034"><ele>1272.3999999999999</ele><time>2026-04-09T10:06:37.997Z</time></trkpt><trkpt lat="45.86015149062037" lon="9.48603650901154"><ele>1271.0</ele><time>2026-04-09T10:06:39.997Z</time></trkpt><trkpt lat="45.86018254630161" lon="9.486164882241843"><ele>1271.0</ele><time>2026-04-09T10:06:41.997Z</time></trkpt><trkpt lat="45.860216361581344" lon="9.486243685011909"><ele>1271.0</ele><time>2026-04-09T10:06:42.997Z</time></trkpt><trkpt lat="45.86024576109134" lon="9.486417193192418"><ele>1271.0</ele><time>2026-04-09T10:06:44.998Z</time></trkpt><trkpt lat="45.86025124499576" lon="9.486513561501692"><ele>1271.0</ele><time>2026-04-09T10:06:45.998Z</time></trkpt><trkpt lat="45.86026888411601" lon="9.486614806148207"><ele>1271.0</ele><time>2026-04-09T10:06:46.998Z</time></trkpt><trkpt lat="45.8602654024707" lon="9.486714027483789"><ele>1271.0</ele><time>2026-04-09T10:06:47.998Z</time></trkpt><trkpt lat="45.860252128090515" lon="9.486806737886475"><ele>1268.0</ele><time>2026-04-09T10:06:48.998Z</time></trkpt><trkpt lat="45.86021859607417" lon="9.486894975364317"><ele>1265.0</ele><time>2026-04-09T10:06:49.998Z</time></trkpt><trkpt lat="45.86017734181953" lon="9.487055793567915"><ele>1262.0</ele><time>2026-04-09T10:06:51.998Z</time></trkpt><trkpt lat="45.8601369181108" lon="9.487133846420056"><ele>1259.0</ele><time>2026-04-09T10:06:52.998Z</time></trkpt><trkpt lat="45.86006472402489" lon="9.487297738152629"><ele>1256.0</ele><time>2026-04-09T10:06:54.998Z</time></trkpt><trkpt lat="45.85998780283651" lon="9.487458876153797"><ele>1252.8333333333335</ele><time>2026-04-09T10:06:56.998Z</time></trkpt><trkpt lat="45.859945594686806" lon="9.48755258610467"><ele>1249.6666666666667</ele><time>2026-04-09T10:06:57.998Z</time></trkpt><trkpt lat="45.85991107110546" lon="9.487638163621071"><ele>1246.5</ele><time>2026-04-09T10:06:58.998Z</time></trkpt><trkpt lat="45.85987975267071" lon="9.487722448649379"><ele>1243.3333333333333</ele><time>2026-04-09T10:06:59.999Z</time></trkpt><trkpt lat="45.859825668712666" lon="9.487798764941672"><ele>1240.1666666666665</ele><time>2026-04-09T10:07:01.999Z</time></trkpt><trkpt lat="45.85971599364008" lon="9.48784597882138"><ele>1237.0</ele><time>2026-04-09T10:07:03.999Z</time></trkpt><trkpt lat="45.8596346268049" lon="9.487939030545613"><ele>1237.0</ele><time>2026-04-09T10:07:05.999Z</time></trkpt><trkpt lat="45.85964779489231" lon="9.488149988156595"><ele>1237.0</ele><time>2026-04-09T10:07:07.999Z</time></trkpt><trkpt lat="45.859617179012524" lon="9.488303493306269"><ele>1237.0</ele><time>2026-04-09T10:07:09.999Z</time></trkpt><trkpt lat="45.85955346418637" lon="9.488466664283694"><ele>1237.0</ele><time>2026-04-09T10:07:11.999Z</time></trkpt><trkpt lat="45.859525646720215" lon="9.488561779032619"><ele>1237.0</ele><time>2026-04-09T10:07:12.999Z</time></trkpt><trkpt lat="45.859479097863165" lon="9.488655554129776"><ele>1237.0</ele><time>2026-04-09T10:07:13.999Z</time></trkpt><trkpt lat="45.8594509220218" lon="9.488810687470316"><ele>1237.0</ele><time>2026-04-09T10:07:15.999Z</time></trkpt><trkpt lat="45.85941853598974" lon="9.488929327069409"><ele>1237.0</ele><time>2026-04-09T10:07:17.999Z</time></trkpt><trkpt lat="45.85940228744807" lon="9.489092901538992"><ele>1237.0</ele><time>2026-04-09T10:07:19.999Z</time></trkpt><trkpt lat="45.85940008498662" lon="9.489188694770176"><ele>1238.6666666666665</ele><time>2026-04-09T10:07:20.999Z</time></trkpt><trkpt lat="45.8594005414294" lon="9.489304624854961"><ele>1240.3333333333333</ele><time>2026-04-09T10:07:21.999Z</time></trkpt><trkpt lat="45.85938038253062" lon="9.489414316280525"><ele>1242.0</ele><time>2026-04-09T10:07:22.999Z</time></trkpt><trkpt lat="45.85936473862095" lon="9.489515735422064"><ele>1243.6666666666667</ele><time>2026-04-09T10:07:24Z</time></trkpt><trkpt lat="45.85935649628739" lon="9.489614971243165"><ele>1245.3333333333335</ele><time>2026-04-09T10:07:25Z</time></trkpt><trkpt lat="45.85930630725361" lon="9.489671712277909"><ele>1247.0</ele><time>2026-04-09T10:07:26Z</time></trkpt><trkpt lat="45.859227050594356" lon="9.489771985602179"><ele>1242.2</ele><time>2026-04-09T10:07:28Z</time></trkpt><trkpt lat="45.85917154895044" lon="9.489874724293312"><ele>1237.4</ele><time>2026-04-09T10:07:30Z</time></trkpt><trkpt lat="45.85911121156659" lon="9.489926530964642"><ele>1232.6</ele><time>2026-04-09T10:07:32Z</time></trkpt><trkpt lat="45.85900855345699" lon="9.490039662603044"><ele>1227.8</ele><time>2026-04-09T10:07:34Z</time></trkpt><trkpt lat="45.85894581442581" lon="9.490105375815604"><ele>1223.0</ele><time>2026-04-09T10:07:35Z</time></trkpt><trkpt lat="45.8589069117906" lon="9.49022955425347"><ele>1223.0</ele><time>2026-04-09T10:07:37Z</time></trkpt><trkpt lat="45.85888364791211" lon="9.490392899159161"><ele>1223.0</ele><time>2026-04-09T10:07:39Z</time></trkpt><trkpt lat="45.85888962792922" lon="9.490530845868122"><ele>1223.0</ele><time>2026-04-09T10:07:41Z</time></trkpt><trkpt lat="45.85890258312168" lon="9.490679659999682"><ele>1223.0</ele><time>2026-04-09T10:07:43Z</time></trkpt><trkpt lat="45.8588543426247" lon="9.490803297574976"><ele>1223.0</ele><time>2026-04-09T10:07:45Z</time></trkpt><trkpt lat="45.85882464330386" lon="9.490949247781332"><ele>1222.4</ele><time>2026-04-09T10:07:47Z</time></trkpt><trkpt lat="45.85884556211959" lon="9.491088038710815"><ele>1221.8</ele><time>2026-04-09T10:07:49Z</time></trkpt><trkpt lat="45.858896855501335" lon="9.491225405037888"><ele>1221.2</ele><time>2026-04-09T10:07:51Z</time></trkpt><trkpt lat="45.85891157696768" lon="9.491356489150755"><ele>1220.6</ele><time>2026-04-09T10:07:53Z</time></trkpt><trkpt lat="45.85890457461127" lon="9.491484652540016"><ele>1220.0</ele><time>2026-04-09T10:07:55.001Z</time></trkpt><trkpt lat="45.85889224075147" lon="9.49160250596703"><ele>1218.0</ele><time>2026-04-09T10:07:57.001Z</time></trkpt><trkpt lat="45.858917151745935" lon="9.491694123615641"><ele>1216.0</ele><time>2026-04-09T10:07:59.001Z</time></trkpt><trkpt lat="45.85896044181461" lon="9.491780020279869"><ele>1214.0</ele><time>2026-04-09T10:08:02.001Z</time></trkpt><trkpt lat="45.85903475905529" lon="9.491863931119772"><ele>1212.0</ele><time>2026-04-09T10:08:05.001Z</time></trkpt><trkpt lat="45.85911246498632" lon="9.491890810831096"><ele>1210.0</ele><time>2026-04-09T10:08:07.001Z</time></trkpt><trkpt lat="45.859202813423316" lon="9.49187354408073"><ele>1208.0</ele><time>2026-04-09T10:08:09.001Z</time></trkpt><trkpt lat="45.85926980130094" lon="9.491844776951611"><ele>1207.6</ele><time>2026-04-09T10:08:10.001Z</time></trkpt><trkpt lat="45.8593694518674" lon="9.49178213577981"><ele>1207.1999999999998</ele><time>2026-04-09T10:08:12.001Z</time></trkpt><trkpt lat="45.8594656847674" lon="9.491715344628004"><ele>1206.8</ele><time>2026-04-09T10:08:14.001Z</time></trkpt><trkpt lat="45.85955575921336" lon="9.491656808167118"><ele>1206.3999999999999</ele><time>2026-04-09T10:08:16.001Z</time></trkpt><trkpt lat="45.85963837693003" lon="9.491616825863513"><ele>1206.0</ele><time>2026-04-09T10:08:18.001Z</time></trkpt><trkpt lat="45.85971345082623" lon="9.491589786983669"><ele>1206.0</ele><time>2026-04-09T10:08:20.001Z</time></trkpt><trkpt lat="45.85982175684987" lon="9.491577388444066"><ele>1206.0</ele><time>2026-04-09T10:08:22.996Z</time></trkpt><trkpt lat="45.85989848847378" lon="9.491578524232047"><ele>1206.0</ele><time>2026-04-09T10:08:24.997Z</time></trkpt><trkpt lat="45.85999186649184" lon="9.49160550633176"><ele>1206.0</ele><time>2026-04-09T10:08:26.997Z</time></trkpt><trkpt lat="45.86005906728729" lon="9.491626061320385"><ele>1206.0</ele><time>2026-04-09T10:08:28.997Z</time></trkpt><trkpt lat="45.860134220692565" lon="9.49167376434262"><ele>1206.0</ele><time>2026-04-09T10:08:30.998Z</time></trkpt><trkpt lat="45.860203012303366" lon="9.491752091612675"><ele>1209.0</ele><time>2026-04-09T10:08:32.998Z</time></trkpt><trkpt lat="45.860255099132004" lon="9.491827876744539"><ele>1212.0</ele><time>2026-04-09T10:08:34.998Z</time></trkpt><trkpt lat="45.86031169228073" lon="9.491902306791872"><ele>1215.0</ele><time>2026-04-09T10:08:36.998Z</time></trkpt><trkpt lat="45.86036219523339" lon="9.49197541416762"><ele>1218.0</ele><time>2026-04-09T10:08:38.999Z</time></trkpt><trkpt lat="45.86041312625" lon="9.49205462331658"><ele>1221.0</ele><time>2026-04-09T10:08:40.999Z</time></trkpt><trkpt lat="45.86046891971507" lon="9.492132905041796"><ele>1224.0</ele><time>2026-04-09T10:08:42.999Z</time></trkpt><trkpt lat="45.860412747641845" lon="9.492241732387702"><ele>1224.4</ele><time>2026-04-09T10:08:43.999Z</time></trkpt><trkpt lat="45.860341172853516" lon="9.492269857303482"><ele>1224.8000000000002</ele><time>2026-04-09T10:08:45.999Z</time></trkpt><trkpt lat="45.8602870370917" lon="9.492352881353575"><ele>1225.1999999999998</ele><time>2026-04-09T10:08:48Z</time></trkpt><trkpt lat="45.860235785051" lon="9.492470633650985"><ele>1225.6</ele><time>2026-04-09T10:08:50Z</time></trkpt><trkpt lat="45.86015938929771" lon="9.492610430170044"><ele>1226.0</ele><time>2026-04-09T10:08:52Z</time></trkpt><trkpt lat="45.860117449051934" lon="9.492760473402543"><ele>1223.1666666666667</ele><time>2026-04-09T10:08:54Z</time></trkpt><trkpt lat="45.86008317817997" lon="9.49285976878075"><ele>1220.3333333333335</ele><time>2026-04-09T10:08:55Z</time></trkpt><trkpt lat="45.86004756489678" lon="9.492949509987811"><ele>1217.5</ele><time>2026-04-09T10:08:56Z</time></trkpt><trkpt lat="45.86001309211703" lon="9.493028947992508"><ele>1214.6666666666667</ele><time>2026-04-09T10:08:57Z</time></trkpt><trkpt lat="45.85996114542051" lon="9.493151301958658"><ele>1211.8333333333333</ele><time>2026-04-09T10:08:59Z</time></trkpt><trkpt lat="45.859885228598834" lon="9.493271691891092"><ele>1209.0</ele><time>2026-04-09T10:09:01Z</time></trkpt><trkpt lat="45.85982927343268" lon="9.493404613696507"><ele>1209.0</ele><time>2026-04-09T10:09:03.001Z</time></trkpt><trkpt lat="45.859821511558685" lon="9.493506725618026"><ele>1209.0</ele><time>2026-04-09T10:09:06.001Z</time></trkpt><trkpt lat="45.859873633170125" lon="9.493576247794019"><ele>1209.0</ele><time>2026-04-09T10:09:10.001Z</time></trkpt><trkpt lat="45.859941131577706" lon="9.493632888485367"><ele>1209.0</ele><time>2026-04-09T10:09:12.001Z</time></trkpt><trkpt lat="45.86000533267813" lon="9.493686192814906"><ele>1209.0</ele><time>2026-04-09T10:09:14.001Z</time></trkpt><trkpt lat="45.86007644302281" lon="9.493744414021462"><ele>1209.0</ele><time>2026-04-09T10:09:17.001Z</time></trkpt><trkpt lat="45.86014821671743" lon="9.493798816107683"><ele>1212.2</ele><time>2026-04-09T10:09:19.001Z</time></trkpt><trkpt lat="45.86020829616378" lon="9.493880885639207"><ele>1215.4</ele><time>2026-04-09T10:09:21.001Z</time></trkpt><trkpt lat="45.86026954680773" lon="9.49397103709426"><ele>1218.6</ele><time>2026-04-09T10:09:23.001Z</time></trkpt><trkpt lat="45.86033765292004" lon="9.494096783725583"><ele>1221.8</ele><time>2026-04-09T10:09:25.001Z</time></trkpt><trkpt lat="45.86040984478375" lon="9.494224199961055"><ele>1225.0</ele><time>2026-04-09T10:09:27.002Z</time></trkpt><trkpt lat="45.86046571444123" lon="9.49435483387855"><ele>1225.0</ele><time>2026-04-09T10:09:29.002Z</time></trkpt><trkpt lat="45.86051796286826" lon="9.494420726340534"><ele>1225.0</ele><time>2026-04-09T10:09:30.002Z</time></trkpt><trkpt lat="45.86057997791401" lon="9.494526098084041"><ele>1225.0</ele><time>2026-04-09T10:09:32.002Z</time></trkpt><trkpt lat="45.86065703602093" lon="9.494629194601318"><ele>1225.0</ele><time>2026-04-09T10:09:34.002Z</time></trkpt><trkpt lat="45.860715992804515" lon="9.49468607732579"><ele>1225.0</ele><time>2026-04-09T10:09:36.002Z</time></trkpt><trkpt lat="45.86077260211428" lon="9.49473430661903"><ele>1225.0</ele><time>2026-04-09T10:09:37.002Z</time></trkpt><trkpt lat="45.860843851589756" lon="9.494790224157517"><ele>1223.6</ele><time>2026-04-09T10:09:38.002Z</time></trkpt><trkpt lat="45.8609133614871" lon="9.49484289655511"><ele>1222.2</ele><time>2026-04-09T10:09:39.002Z</time></trkpt><trkpt lat="45.860976453054136" lon="9.494889888508252"><ele>1220.8</ele><time>2026-04-09T10:09:40.002Z</time></trkpt><trkpt lat="45.86108008041324" lon="9.494967072399842"><ele>1219.4</ele><time>2026-04-09T10:09:42.002Z</time></trkpt><trkpt lat="45.86117202567957" lon="9.49503570478679"><ele>1218.0</ele><time>2026-04-09T10:09:44.002Z</time></trkpt><trkpt lat="45.861250959723115" lon="9.495112040118055"><ele>1218.0</ele><time>2026-04-09T10:09:46.002Z</time></trkpt><trkpt lat="45.861331241326056" lon="9.495174140183217"><ele>1218.0</ele><time>2026-04-09T10:09:48.002Z</time></trkpt><trkpt lat="45.86139378564324" lon="9.495217682855635"><ele>1218.0</ele><time>2026-04-09T10:09:49.002Z</time></trkpt><trkpt lat="45.86150935207258" lon="9.495289511752722"><ele>1218.0</ele><time>2026-04-09T10:09:51.002Z</time></trkpt><trkpt lat="45.8615690569382" lon="9.495326385886546"><ele>1218.0</ele><time>2026-04-09T10:09:52.002Z</time></trkpt><trkpt lat="45.86164151981095" lon="9.495364834015605"><ele>1218.0</ele><time>2026-04-09T10:09:53.002Z</time></trkpt><trkpt lat="45.861734098370434" lon="9.495418307284941"><ele>1213.4</ele><time>2026-04-09T10:09:55.002Z</time></trkpt><trkpt lat="45.861834514871575" lon="9.495459515265992"><ele>1208.8</ele><time>2026-04-09T10:09:57.002Z</time></trkpt><trkpt lat="45.86193278878514" lon="9.49554850831454"><ele>1204.2</ele><time>2026-04-09T10:09:59.003Z</time></trkpt><trkpt lat="45.86200738177778" lon="9.49561476562317"><ele>1199.6</ele><time>2026-04-09T10:10:01.003Z</time></trkpt><trkpt lat="45.86212669281064" lon="9.49566279631805"><ele>1195.0</ele><time>2026-04-09T10:10:03.003Z</time></trkpt><trkpt lat="45.86220987255891" lon="9.495769714544736"><ele>1195.0</ele><time>2026-04-09T10:10:05.003Z</time></trkpt><trkpt lat="45.86227476579818" lon="9.495895585835159"><ele>1195.0</ele><time>2026-04-09T10:10:07.003Z</time></trkpt><trkpt lat="45.86237837742702" lon="9.495955765586903"><ele>1195.0</ele><time>2026-04-09T10:10:09.003Z</time></trkpt><trkpt lat="45.86248110268526" lon="9.495970226065138"><ele>1195.0</ele><time>2026-04-09T10:10:11.003Z</time></trkpt><trkpt lat="45.862567239635396" lon="9.495982028573186"><ele>1195.0</ele><time>2026-04-09T10:10:13.003Z</time></trkpt><trkpt lat="45.86267197106344" lon="9.495942736804176"><ele>1193.5</ele><time>2026-04-09T10:10:15.003Z</time></trkpt><trkpt lat="45.86276637398768" lon="9.495934271206046"><ele>1192.0</ele><time>2026-04-09T10:10:17.003Z</time></trkpt><trkpt lat="45.862855426023664" lon="9.495908632375505"><ele>1190.5</ele><time>2026-04-09T10:10:20.003Z</time></trkpt><trkpt lat="45.86292962564438" lon="9.495885428139957"><ele>1189.0</ele><time>2026-04-09T10:10:21.003Z</time></trkpt><trkpt lat="45.862997581555554" lon="9.495878593133641"><ele>1187.5</ele><time>2026-04-09T10:10:22.003Z</time></trkpt><trkpt lat="45.86307328076058" lon="9.495873909427203"><ele>1186.0</ele><time>2026-04-09T10:10:23.003Z</time></trkpt><trkpt lat="45.86314500792044" lon="9.495872143930795"><ele>1186.0</ele><time>2026-04-09T10:10:24.003Z</time></trkpt><trkpt lat="45.86323790443591" lon="9.495853368729048"><ele>1186.0</ele><time>2026-04-09T10:10:25.003Z</time></trkpt><trkpt lat="45.86334729047702" lon="9.495822653881024"><ele>1186.0</ele><time>2026-04-09T10:10:27.003Z</time></trkpt><trkpt lat="45.86342030225866" lon="9.495809363430038"><ele>1186.0</ele><time>2026-04-09T10:10:28.998Z</time></trkpt><trkpt lat="45.86351886577884" lon="9.495775699597305"><ele>1186.0</ele><time>2026-04-09T10:10:30.998Z</time></trkpt><trkpt lat="45.86358824098576" lon="9.495769685192581"><ele>1185.3333333333333</ele><time>2026-04-09T10:10:31.998Z</time></trkpt><trkpt lat="45.86366765531638" lon="9.495677769269717"><ele>1184.6666666666665</ele><time>2026-04-09T10:10:33.998Z</time></trkpt><trkpt lat="45.863720788581965" lon="9.4956241156792"><ele>1184.0</ele><time>2026-04-09T10:10:34.998Z</time></trkpt><trkpt lat="45.86379021069357" lon="9.495560208240308"><ele>1183.3333333333333</ele><time>2026-04-09T10:10:36.999Z</time></trkpt><trkpt lat="45.86390418661837" lon="9.495564405150335"><ele>1182.6666666666667</ele><time>2026-04-09T10:10:38.999Z</time></trkpt><trkpt lat="45.863989103810084" lon="9.49555528013923"><ele>1182.0</ele><time>2026-04-09T10:10:39.999Z</time></trkpt><trkpt lat="45.8640589973571" lon="9.495528042461876"><ele>1182.0</ele><time>2026-04-09T10:10:40.999Z</time></trkpt><trkpt lat="45.86414114064275" lon="9.495532957266908"><ele>1182.0</ele><time>2026-04-09T10:10:41.999Z</time></trkpt><trkpt lat="45.864209844525405" lon="9.49551719300628"><ele>1182.0</ele><time>2026-04-09T10:10:42.999Z</time></trkpt><trkpt lat="45.86430743426808" lon="9.495497157596075"><ele>1182.0</ele><time>2026-04-09T10:10:44.999Z</time></trkpt><trkpt lat="45.8643150962242" lon="9.49559512249616"><ele>1182.0</ele><time>2026-04-09T10:10:47.999Z</time></trkpt><trkpt lat="45.864314494475394" lon="9.495716536146407"><ele>1182.0</ele><time>2026-04-09T10:10:50Z</time></trkpt><trkpt lat="45.86424598565329" lon="9.495840915309959"><ele>1182.0</ele><time>2026-04-09T10:10:52Z</time></trkpt><trkpt lat="45.86419973709348" lon="9.49591714131373"><ele>1182.0</ele><time>2026-04-09T10:10:53Z</time></trkpt><trkpt lat="45.86419732718867" lon="9.496007695962968"><ele>1182.0</ele><time>2026-04-09T10:10:55Z</time></trkpt><trkpt lat="45.864196223919606" lon="9.49617457498498"><ele>1182.0</ele><time>2026-04-09T10:10:57Z</time></trkpt><trkpt lat="45.864164408273645" lon="9.496331764629728"><ele>1182.0</ele><time>2026-04-09T10:10:59Z</time></trkpt><trkpt lat="45.86417051404578" lon="9.496466320178786"><ele>1180.2</ele><time>2026-04-09T10:11:01Z</time></trkpt><trkpt lat="45.864158078340246" lon="9.496569262944751"><ele>1178.4</ele><time>2026-04-09T10:11:03Z</time></trkpt><trkpt lat="45.86415333154094" lon="9.496694869189646"><ele>1176.6</ele><time>2026-04-09T10:11:05Z</time></trkpt><trkpt lat="45.864133781919186" lon="9.496929385926785"><ele>1174.8</ele><time>2026-04-09T10:11:08Z</time></trkpt><trkpt lat="45.86411089770563" lon="9.497027245020043"><ele>1173.0</ele><time>2026-04-09T10:11:09Z</time></trkpt><trkpt lat="45.864061875209686" lon="9.497106238847124"><ele>1172.6666666666667</ele><time>2026-04-09T10:11:10.001Z</time></trkpt><trkpt lat="45.86402866771964" lon="9.497234107292496"><ele>1172.3333333333333</ele><time>2026-04-09T10:11:12.001Z</time></trkpt><trkpt lat="45.864018318778676" lon="9.497338861930862"><ele>1172.0</ele><time>2026-04-09T10:11:13.001Z</time></trkpt><trkpt lat="45.863999043619586" lon="9.497450773786102"><ele>1171.6666666666665</ele><time>2026-04-09T10:11:15.001Z</time></trkpt><trkpt lat="45.86398774036907" lon="9.497585811663889"><ele>1171.3333333333333</ele><time>2026-04-09T10:11:17.001Z</time></trkpt><trkpt lat="45.86396086275435" lon="9.49769289726252"><ele>1171.0</ele><time>2026-04-09T10:11:19.001Z</time></trkpt><trkpt lat="45.86393519388381" lon="9.49781709131677"><ele>1171.3999999999999</ele><time>2026-04-09T10:11:20.001Z</time></trkpt><trkpt lat="45.863925235234376" lon="9.497927233899857"><ele>1171.8</ele><time>2026-04-09T10:11:21.001Z</time></trkpt><trkpt lat="45.863918532368324" lon="9.498078445368618"><ele>1172.1999999999998</ele><time>2026-04-09T10:11:22.001Z</time></trkpt><trkpt lat="45.863910354593585" lon="9.49820209084891"><ele>1172.6</ele><time>2026-04-09T10:11:24.001Z</time></trkpt><trkpt lat="45.86387679768234" lon="9.49835544959155"><ele>1173.0</ele><time>2026-04-09T10:11:26.001Z</time></trkpt><trkpt lat="45.86386039308449" lon="9.498512337894821"><ele>1173.0</ele><time>2026-04-09T10:11:28.001Z</time></trkpt><trkpt lat="45.86381808282328" lon="9.49866278760711"><ele>1173.0</ele><time>2026-04-09T10:11:30.001Z</time></trkpt><trkpt lat="45.86381482635493" lon="9.498759790447073"><ele>1173.0</ele><time>2026-04-09T10:11:31.001Z</time></trkpt><trkpt lat="45.86380117722152" lon="9.49892384969339"><ele>1173.0</ele><time>2026-04-09T10:11:33.001Z</time></trkpt><trkpt lat="45.863786875612504" lon="9.499046599283453"><ele>1173.0</ele><time>2026-04-09T10:11:34.001Z</time></trkpt><trkpt lat="45.86376566585078" lon="9.499138653117447"><ele>1172.75</ele><time>2026-04-09T10:11:35.001Z</time></trkpt><trkpt lat="45.863742365773895" lon="9.49931409431935"><ele>1172.5</ele><time>2026-04-09T10:11:37.001Z</time></trkpt><trkpt lat="45.86372106796435" lon="9.499482803758742"><ele>1172.25</ele><time>2026-04-09T10:11:39.002Z</time></trkpt><trkpt lat="45.863725981989404" lon="9.499638569654405"><ele>1172.0</ele><time>2026-04-09T10:11:41.002Z</time></trkpt><trkpt lat="45.86378763709268" lon="9.499779417705856"><ele>1168.4</ele><time>2026-04-09T10:11:43.002Z</time></trkpt><trkpt lat="45.86387091277373" lon="9.499891526061065"><ele>1164.8000000000002</ele><time>2026-04-09T10:11:45.002Z</time></trkpt><trkpt lat="45.863956483741745" lon="9.500032747583473"><ele>1161.2</ele><time>2026-04-09T10:11:47.002Z</time></trkpt><trkpt lat="45.86403205459945" lon="9.500170482614395"><ele>1157.6000000000001</ele><time>2026-04-09T10:11:49.002Z</time></trkpt><trkpt lat="45.864085969225584" lon="9.500234561787579"><ele>1154.0</ele><time>2026-04-09T10:11:50.002Z</time></trkpt><trkpt lat="45.86415797472401" lon="9.50037609802052"><ele>1153.142857142857</ele><time>2026-04-09T10:11:52.002Z</time></trkpt><trkpt lat="45.86413452103067" lon="9.500463830949531"><ele>1152.2857142857142</ele><time>2026-04-09T10:11:53.002Z</time></trkpt><trkpt lat="45.86411322193811" lon="9.500554863346613"><ele>1151.4285714285716</ele><time>2026-04-09T10:11:55.002Z</time></trkpt><trkpt lat="45.86407598476102" lon="9.500628090954217"><ele>1150.5714285714284</ele><time>2026-04-09T10:11:56.002Z</time></trkpt><trkpt lat="45.86403911736548" lon="9.500752464624506"><ele>1149.7142857142858</ele><time>2026-04-09T10:11:58.002Z</time></trkpt><trkpt lat="45.86399263292529" lon="9.500818254873748"><ele>1148.857142857143</ele><time>2026-04-09T10:11:59.002Z</time></trkpt><trkpt lat="45.86393794677938" lon="9.500927349416676"><ele>1148.0</ele><time>2026-04-09T10:12:01.002Z</time></trkpt><trkpt lat="45.86390621078315" lon="9.501049546754281"><ele>1148.0</ele><time>2026-04-09T10:12:03.002Z</time></trkpt><trkpt lat="45.86385617577264" lon="9.501159118609252"><ele>1148.0</ele><time>2026-04-09T10:12:05.002Z</time></trkpt><trkpt lat="45.863812163262914" lon="9.50126897944224"><ele>1148.0</ele><time>2026-04-09T10:12:07.002Z</time></trkpt><trkpt lat="45.86380940142394" lon="9.501359492279956"><ele>1148.0</ele><time>2026-04-09T10:12:08.002Z</time></trkpt><trkpt lat="45.86376191176024" lon="9.501431793404807"><ele>1148.0</ele><time>2026-04-09T10:12:09.002Z</time></trkpt><trkpt lat="45.86372957286586" lon="9.50154648590217"><ele>1148.0</ele><time>2026-04-09T10:12:11.003Z</time></trkpt><trkpt lat="45.86369852166668" lon="9.501635075221838"><ele>1151.0</ele><time>2026-04-09T10:12:13.003Z</time></trkpt><trkpt lat="45.86371645345492" lon="9.501728042353934"><ele>1154.0</ele><time>2026-04-09T10:12:14.003Z</time></trkpt><trkpt lat="45.86371240316547" lon="9.501832861321402"><ele>1157.0</ele><time>2026-04-09T10:12:15.003Z</time></trkpt><trkpt lat="45.863747667549404" lon="9.50204119983568"><ele>1160.0</ele><time>2026-04-09T10:12:17.003Z</time></trkpt><trkpt lat="45.863743681278685" lon="9.50216998085452"><ele>1163.0</ele><time>2026-04-09T10:12:18.003Z</time></trkpt><trkpt lat="45.86381641231836" lon="9.502273536825252"><ele>1163.6</ele><time>2026-04-09T10:12:19.003Z</time></trkpt><trkpt lat="45.863814011165516" lon="9.502420275408506"><ele>1164.1999999999998</ele><time>2026-04-09T10:12:21.003Z</time></trkpt><trkpt lat="45.86381236673356" lon="9.502520768975879"><ele>1164.8</ele><time>2026-04-09T10:12:22.003Z</time></trkpt><trkpt lat="45.863778165826126" lon="9.502608306876803"><ele>1165.3999999999999</ele><time>2026-04-09T10:12:23.003Z</time></trkpt><trkpt lat="45.86376072449526" lon="9.502822050375308"><ele>1166.0</ele><time>2026-04-09T10:12:25.003Z</time></trkpt><trkpt lat="45.86372941803319" lon="9.50297050976916"><ele>1167.6</ele><time>2026-04-09T10:12:27.003Z</time></trkpt><trkpt lat="45.863707660465494" lon="9.50315712349097"><ele>1169.1999999999998</ele><time>2026-04-09T10:12:30.003Z</time></trkpt><trkpt lat="45.863661770100336" lon="9.503263686183196"><ele>1170.8000000000002</ele><time>2026-04-09T10:12:32.003Z</time></trkpt><trkpt lat="45.86366344375339" lon="9.503374490386053"><ele>1172.4</ele><time>2026-04-09T10:12:33.003Z</time></trkpt><trkpt lat="45.863691465734036" lon="9.503472968201693"><ele>1174.0</ele><time>2026-04-09T10:12:34.003Z</time></trkpt><trkpt lat="45.86375963333259" lon="9.503624359778843"><ele>1174.0</ele><time>2026-04-09T10:12:35.999Z</time></trkpt><trkpt lat="45.86380449280552" lon="9.503702172645596"><ele>1174.0</ele><time>2026-04-09T10:12:36.999Z</time></trkpt><trkpt lat="45.86384620402074" lon="9.503773386919484"><ele>1174.0</ele><time>2026-04-09T10:12:37.999Z</time></trkpt><trkpt lat="45.863889171419366" lon="9.503851691850686"><ele>1174.0</ele><time>2026-04-09T10:12:38.999Z</time></trkpt><trkpt lat="45.86394740209966" lon="9.504017332210868"><ele>1174.0</ele><time>2026-04-09T10:12:40.999Z</time></trkpt><trkpt lat="45.86397944134749" lon="9.504177686537648"><ele>1172.0</ele><time>2026-04-09T10:12:42.999Z</time></trkpt><trkpt lat="45.863986301778375" lon="9.504330253955661"><ele>1170.0</ele><time>2026-04-09T10:12:44.999Z</time></trkpt><trkpt lat="45.86401652720728" lon="9.504438790559973"><ele>1168.0</ele><time>2026-04-09T10:12:46.999Z</time></trkpt><trkpt lat="45.864042540473555" lon="9.504548018603543"><ele>1166.0</ele><time>2026-04-09T10:12:48.999Z</time></trkpt><trkpt lat="45.86405501328149" lon="9.50465384142095"><ele>1164.0</ele><time>2026-04-09T10:12:49.999Z</time></trkpt><trkpt lat="45.86411502849141" lon="9.504711948660654"><ele>1162.0</ele><time>2026-04-09T10:12:54Z</time></trkpt><trkpt lat="45.864184852856965" lon="9.504775702419092"><ele>1163.0</ele><time>2026-04-09T10:13:05Z</time></trkpt><trkpt lat="45.86430304095655" lon="9.504871806536396"><ele>1164.0</ele><time>2026-04-09T10:13:07Z</time></trkpt><trkpt lat="45.86440077597722" lon="9.504950120409257"><ele>1165.0</ele><time>2026-04-09T10:13:09Z</time></trkpt><trkpt lat="45.86448546129233" lon="9.504983262919879"><ele>1166.0</ele><time>2026-04-09T10:13:10Z</time></trkpt><trkpt lat="45.8645555120237" lon="9.505022424335898"><ele>1167.0</ele><time>2026-04-09T10:13:11Z</time></trkpt><trkpt lat="45.86463568717353" lon="9.505042341771757"><ele>1167.0</ele><time>2026-04-09T10:13:12.001Z</time></trkpt><trkpt lat="45.864719343359326" lon="9.50508539454052"><ele>1167.0</ele><time>2026-04-09T10:13:13.001Z</time></trkpt><trkpt lat="45.86479411055576" lon="9.505110644242588"><ele>1167.0</ele><time>2026-04-09T10:13:14.001Z</time></trkpt><trkpt lat="45.86487807332362" lon="9.50512969852329"><ele>1167.0</ele><time>2026-04-09T10:13:15.001Z</time></trkpt><trkpt lat="45.86495087462219" lon="9.505166721930506"><ele>1167.0</ele><time>2026-04-09T10:13:16.001Z</time></trkpt><trkpt lat="45.86501901244659" lon="9.505195313374472"><ele>1167.0</ele><time>2026-04-09T10:13:17.001Z</time></trkpt><trkpt lat="45.86511407586377" lon="9.505257078190917"><ele>1162.6</ele><time>2026-04-09T10:13:19.001Z</time></trkpt><trkpt lat="45.86518976481459" lon="9.505413529009388"><ele>1158.2</ele><time>2026-04-09T10:13:21.001Z</time></trkpt><trkpt lat="45.86517366191324" lon="9.505531048694502"><ele>1153.8</ele><time>2026-04-09T10:13:22.001Z</time></trkpt><trkpt lat="45.86515314215879" lon="9.50564997203596"><ele>1149.4</ele><time>2026-04-09T10:13:23.001Z</time></trkpt><trkpt lat="45.86512949312229" lon="9.505776665689208"><ele>1145.0</ele><time>2026-04-09T10:13:24.001Z</time></trkpt><trkpt lat="45.865099708722646" lon="9.505889134381773"><ele>1145.0</ele><time>2026-04-09T10:13:25.001Z</time></trkpt><trkpt lat="45.86505895434121" lon="9.505998046368136"><ele>1145.0</ele><time>2026-04-09T10:13:26.001Z</time></trkpt><trkpt lat="45.86504773009447" lon="9.50612599222225"><ele>1145.0</ele><time>2026-04-09T10:13:27.001Z</time></trkpt><trkpt lat="45.86503787611335" lon="9.506247270207973"><ele>1145.0</ele><time>2026-04-09T10:13:28.001Z</time></trkpt><trkpt lat="45.86505415298261" lon="9.506365316024384"><ele>1145.0</ele><time>2026-04-09T10:13:29.001Z</time></trkpt><trkpt lat="45.86507155177356" lon="9.506488722509872"><ele>1145.0</ele><time>2026-04-09T10:13:30.001Z</time></trkpt><trkpt lat="45.86508830410129" lon="9.506648175395542"><ele>1152.5</ele><time>2026-04-09T10:13:31.001Z</time></trkpt><trkpt lat="45.86512018706216" lon="9.50680200906928"><ele>1160.0</ele><time>2026-04-09T10:13:32.001Z</time></trkpt><trkpt lat="45.865166096979976" lon="9.506961210331843"><ele>1167.5</ele><time>2026-04-09T10:13:33.001Z</time></trkpt><trkpt lat="45.86521385304465" lon="9.50711424352006"><ele>1175.0</ele><time>2026-04-09T10:13:34.001Z</time></trkpt><trkpt lat="45.86526034546251" lon="9.507247717954884"><ele>1175.0</ele><time>2026-04-09T10:13:35.001Z</time></trkpt><trkpt lat="45.86528335534558" lon="9.507359669892105"><ele>1175.0</ele><time>2026-04-09T10:13:36.001Z</time></trkpt><trkpt lat="45.86531205859519" lon="9.507442709655736"><ele>1175.0</ele><time>2026-04-09T10:13:37.001Z</time></trkpt><trkpt lat="45.86526498893559" lon="9.507558164449248"><ele>1175.0</ele><time>2026-04-09T10:13:39.001Z</time></trkpt><trkpt lat="45.86516903833917" lon="9.507615064252034"><ele>1175.0</ele><time>2026-04-09T10:13:41.001Z</time></trkpt><trkpt lat="45.86499849401298" lon="9.50764705977341"><ele>1166.0</ele><time>2026-04-09T10:13:43.002Z</time></trkpt><trkpt lat="45.8649056314797" lon="9.507670695429844"><ele>1157.0</ele><time>2026-04-09T10:13:44.002Z</time></trkpt><trkpt lat="45.864799238271225" lon="9.507717956401496"><ele>1148.0</ele><time>2026-04-09T10:13:45.002Z</time></trkpt><trkpt lat="45.864672947303646" lon="9.507786654785864"><ele>1139.0</ele><time>2026-04-09T10:13:46.002Z</time></trkpt><trkpt lat="45.86456719680787" lon="9.507834353296648"><ele>1139.0</ele><time>2026-04-09T10:13:47.002Z</time></trkpt><trkpt lat="45.86446044661974" lon="9.50787604463208"><ele>1139.0</ele><time>2026-04-09T10:13:48.002Z</time></trkpt><trkpt lat="45.86434599029311" lon="9.507919684540944"><ele>1139.0</ele><time>2026-04-09T10:13:49.002Z</time></trkpt><trkpt lat="45.86424910742447" lon="9.507973251216887"><ele>1139.0</ele><time>2026-04-09T10:13:50.002Z</time></trkpt><trkpt lat="45.8641779427444" lon="9.508011594517097"><ele>1139.0</ele><time>2026-04-09T10:13:51.002Z</time></trkpt><trkpt lat="45.86409471632262" lon="9.508062018586935"><ele>1138.8</ele><time>2026-04-09T10:13:52.002Z</time></trkpt><trkpt lat="45.86398302883972" lon="9.508125814741167"><ele>1138.6000000000001</ele><time>2026-04-09T10:13:53.002Z</time></trkpt><trkpt lat="45.86393834671292" lon="9.508226482661858"><ele>1138.4</ele><time>2026-04-09T10:13:54.002Z</time></trkpt><trkpt lat="45.863875816400245" lon="9.50834567366212"><ele>1138.2</ele><time>2026-04-09T10:13:55.002Z</time></trkpt><trkpt lat="45.8638376366051" lon="9.508433335006506"><ele>1138.0</ele><time>2026-04-09T10:13:56.002Z</time></trkpt><trkpt lat="45.86381378463298" lon="9.508552494020792"><ele>1138.0</ele><time>2026-04-09T10:13:57.002Z</time></trkpt><trkpt lat="45.86379055243708" lon="9.508708447976817"><ele>1138.0</ele><time>2026-04-09T10:13:58.002Z</time></trkpt><trkpt lat="45.86377540869682" lon="9.50885783787145"><ele>1138.0</ele><time>2026-04-09T10:13:59.002Z</time></trkpt><trkpt lat="45.86376146787562" lon="9.509002454560914"><ele>1138.0</ele><time>2026-04-09T10:14:00.002Z</time></trkpt><trkpt lat="45.863768403193944" lon="9.509180416270647"><ele>1138.0</ele><time>2026-04-09T10:14:01.002Z</time></trkpt><trkpt lat="45.8637720189706" lon="9.509357704985062"><ele>1140.8</ele><time>2026-04-09T10:14:02.002Z</time></trkpt><trkpt lat="45.863764119435274" lon="9.50951319870828"><ele>1143.6</ele><time>2026-04-09T10:14:03.002Z</time></trkpt><trkpt lat="45.863735726593966" lon="9.509672999775846"><ele>1146.4</ele><time>2026-04-09T10:14:04.002Z</time></trkpt><trkpt lat="45.863741173616354" lon="9.509835490296608"><ele>1149.2</ele><time>2026-04-09T10:14:05.002Z</time></trkpt><trkpt lat="45.8637385373476" lon="9.50996996380895"><ele>1152.0</ele><time>2026-04-09T10:14:06.002Z</time></trkpt><trkpt lat="45.86371293902933" lon="9.510098412209787"><ele>1152.3333333333333</ele><time>2026-04-09T10:14:07.002Z</time></trkpt><trkpt lat="45.86369878641953" lon="9.510224736996237"><ele>1152.6666666666667</ele><time>2026-04-09T10:14:08.002Z</time></trkpt><trkpt lat="45.86366685613153" lon="9.510363851012933"><ele>1153.0</ele><time>2026-04-09T10:14:09.002Z</time></trkpt><trkpt lat="45.863636915840225" lon="9.510482230982296"><ele>1153.3333333333335</ele><time>2026-04-09T10:14:10.002Z</time></trkpt><trkpt lat="45.86361743374469" lon="9.510583797186811"><ele>1153.6666666666667</ele><time>2026-04-09T10:14:11.002Z</time></trkpt><trkpt lat="45.863586830201356" lon="9.510687979683308"><ele>1154.0</ele><time>2026-04-09T10:14:12.002Z</time></trkpt><trkpt lat="45.863571832051086" lon="9.51078854657337"><ele>1153.6000000000001</ele><time>2026-04-09T10:14:13.002Z</time></trkpt><trkpt lat="45.863550219259714" lon="9.510895863306214"><ele>1153.2</ele><time>2026-04-09T10:14:14.003Z</time></trkpt><trkpt lat="45.863562550012155" lon="9.511016878779996"><ele>1152.8000000000002</ele><time>2026-04-09T10:14:15.003Z</time></trkpt><trkpt lat="45.86361735245514" lon="9.511204768828184"><ele>1152.4</ele><time>2026-04-09T10:14:17.003Z</time></trkpt><trkpt lat="45.86361643400414" lon="9.511334367569138"><ele>1152.0</ele><time>2026-04-09T10:14:18.003Z</time></trkpt><trkpt lat="45.86363050099284" lon="9.511448637830975"><ele>1152.0</ele><time>2026-04-09T10:14:19.003Z</time></trkpt><trkpt lat="45.86365311726021" lon="9.51154717007234"><ele>1152.0</ele><time>2026-04-09T10:14:20.003Z</time></trkpt><trkpt lat="45.863679987105584" lon="9.511644611270572"><ele>1152.0</ele><time>2026-04-09T10:14:21.003Z</time></trkpt><trkpt lat="45.86368131972339" lon="9.51176349798427"><ele>1152.0</ele><time>2026-04-09T10:14:22.003Z</time></trkpt><trkpt lat="45.863679165122164" lon="9.511879975305046"><ele>1152.0</ele><time>2026-04-09T10:14:23.003Z</time></trkpt><trkpt lat="45.86366518269933" lon="9.51198666059365"><ele>1152.0</ele><time>2026-04-09T10:14:24.003Z</time></trkpt><trkpt lat="45.86367159499624" lon="9.51208410030826"><ele>1151.6666666666667</ele><time>2026-04-09T10:14:25.003Z</time></trkpt><trkpt lat="45.86367057255057" lon="9.512182072519456"><ele>1151.3333333333333</ele><time>2026-04-09T10:14:26.003Z</time></trkpt><trkpt lat="45.86367874284228" lon="9.512322189923426"><ele>1151.0</ele><time>2026-04-09T10:14:27.003Z</time></trkpt><trkpt lat="45.86369575123106" lon="9.51243858232504"><ele>1150.6666666666665</ele><time>2026-04-09T10:14:28.003Z</time></trkpt><trkpt lat="45.863704242556295" lon="9.512556324649545"><ele>1150.3333333333333</ele><time>2026-04-09T10:14:29.003Z</time></trkpt><trkpt lat="45.86367891844507" lon="9.512689867174473"><ele>1150.0</ele><time>2026-04-09T10:14:30.003Z</time></trkpt><trkpt lat="45.863633070627614" lon="9.512808498337797"><ele>1150.0</ele><time>2026-04-09T10:14:31.003Z</time></trkpt><trkpt lat="45.863562454452044" lon="9.512887914482187"><ele>1150.0</ele><time>2026-04-09T10:14:32.003Z</time></trkpt><trkpt lat="45.863474919203234" lon="9.512919412853138"><ele>1150.0</ele><time>2026-04-09T10:14:33.003Z</time></trkpt><trkpt lat="45.863375439893325" lon="9.513016365968033"><ele>1150.0</ele><time>2026-04-09T10:14:35.003Z</time></trkpt><trkpt lat="45.86329886886011" lon="9.513077178374187"><ele>1150.0</ele><time>2026-04-09T10:14:36.003Z</time></trkpt><trkpt lat="45.86323786742748" lon="9.513147792256435"><ele>1145.6</ele><time>2026-04-09T10:14:37.003Z</time></trkpt><trkpt lat="45.86316016687308" lon="9.513285412344006"><ele>1141.2</ele><time>2026-04-09T10:14:39.003Z</time></trkpt><trkpt lat="45.863150918139674" lon="9.513422109829687"><ele>1136.8</ele><time>2026-04-09T10:14:40.003Z</time></trkpt><trkpt lat="45.86314887834936" lon="9.513558882749427"><ele>1132.4</ele><time>2026-04-09T10:14:40.999Z</time></trkpt><trkpt lat="45.86312810641325" lon="9.513691118547586"><ele>1128.0</ele><time>2026-04-09T10:14:41.999Z</time></trkpt><trkpt lat="45.863091650143424" lon="9.513807881953358"><ele>1128.0</ele><time>2026-04-09T10:14:42.999Z</time></trkpt><trkpt lat="45.86306933286858" lon="9.513970108316062"><ele>1128.0</ele><time>2026-04-09T10:14:43.999Z</time></trkpt><trkpt lat="45.863055373704675" lon="9.514109440259912"><ele>1128.0</ele><time>2026-04-09T10:14:44.999Z</time></trkpt><trkpt lat="45.86303707359988" lon="9.514243907238935"><ele>1128.0</ele><time>2026-04-09T10:14:45.999Z</time></trkpt><trkpt lat="45.863009961743806" lon="9.514365708334966"><ele>1128.0</ele><time>2026-04-09T10:14:46.999Z</time></trkpt><trkpt lat="45.86297171557331" lon="9.514493892142667"><ele>1128.8</ele><time>2026-04-09T10:14:47.999Z</time></trkpt><trkpt lat="45.862928746459495" lon="9.514633360379513"><ele>1129.6</ele><time>2026-04-09T10:14:48.999Z</time></trkpt><trkpt lat="45.862889772762934" lon="9.51476621641207"><ele>1130.4</ele><time>2026-04-09T10:14:49.999Z</time></trkpt><trkpt lat="45.86286649725055" lon="9.514912519741141"><ele>1131.2</ele><time>2026-04-09T10:14:50.999Z</time></trkpt><trkpt lat="45.86282888375105" lon="9.515043009551022"><ele>1132.0</ele><time>2026-04-09T10:14:51.999Z</time></trkpt><trkpt lat="45.862794487152904" lon="9.515189308642173"><ele>1132.0</ele><time>2026-04-09T10:14:52.999Z</time></trkpt><trkpt lat="45.862781407235886" lon="9.5153346034913"><ele>1132.0</ele><time>2026-04-09T10:14:53.999Z</time></trkpt><trkpt lat="45.86275962144659" lon="9.51549261019813"><ele>1132.0</ele><time>2026-04-09T10:14:55Z</time></trkpt><trkpt lat="45.86274200664881" lon="9.5156561932624"><ele>1132.0</ele><time>2026-04-09T10:14:56Z</time></trkpt><trkpt lat="45.86271554943571" lon="9.515822310931668"><ele>1132.0</ele><time>2026-04-09T10:14:57Z</time></trkpt><trkpt lat="45.86268501642269" lon="9.515983509675374"><ele>1133.0</ele><time>2026-04-09T10:14:58Z</time></trkpt><trkpt lat="45.86264968059869" lon="9.516139317636451"><ele>1134.0</ele><time>2026-04-09T10:14:59Z</time></trkpt><trkpt lat="45.862611404851" lon="9.516290388708718"><ele>1135.0</ele><time>2026-04-09T10:15:00Z</time></trkpt><trkpt lat="45.86257595690099" lon="9.516452094510612"><ele>1136.0</ele><time>2026-04-09T10:15:01Z</time></trkpt><trkpt lat="45.86254015888724" lon="9.516619267217497"><ele>1125.0</ele><time>2026-04-09T10:15:02Z</time></trkpt><trkpt lat="45.8625036906722" lon="9.516790312114335"><ele>1114.0</ele><time>2026-04-09T10:15:03Z</time></trkpt><trkpt lat="45.862473185278425" lon="9.516962189236743"><ele>1103.0</ele><time>2026-04-09T10:15:04Z</time></trkpt><trkpt lat="45.86245218166989" lon="9.517141991804067"><ele>1092.0</ele><time>2026-04-09T10:15:05Z</time></trkpt><trkpt lat="45.86243705133313" lon="9.517315218391454"><ele>1092.0</ele><time>2026-04-09T10:15:06Z</time></trkpt><trkpt lat="45.862405620619505" lon="9.517473554149667"><ele>1092.0</ele><time>2026-04-09T10:15:07Z</time></trkpt><trkpt lat="45.86238416742689" lon="9.517652620995126"><ele>1092.0</ele><time>2026-04-09T10:15:08Z</time></trkpt><trkpt lat="45.86235012641118" lon="9.517811382044"><ele>1092.0</ele><time>2026-04-09T10:15:09Z</time></trkpt><trkpt lat="45.86232681185756" lon="9.517991186604643"><ele>1093.0</ele><time>2026-04-09T10:15:10Z</time></trkpt><trkpt lat="45.862295001870145" lon="9.51814465855984"><ele>1094.0</ele><time>2026-04-09T10:15:11Z</time></trkpt><trkpt lat="45.862261197665134" lon="9.518292414576772"><ele>1095.0</ele><time>2026-04-09T10:15:12Z</time></trkpt><trkpt lat="45.86222511351123" lon="9.518435277237122"><ele>1096.0</ele><time>2026-04-09T10:15:13Z</time></trkpt><trkpt lat="45.862173514584654" lon="9.518578717545106"><ele>1097.0</ele><time>2026-04-09T10:15:14Z</time></trkpt><trkpt lat="45.862111315535095" lon="9.518715031853633"><ele>1095.2</ele><time>2026-04-09T10:15:15Z</time></trkpt><trkpt lat="45.86205158112029" lon="9.518843124940588"><ele>1093.4</ele><time>2026-04-09T10:15:16.001Z</time></trkpt><trkpt lat="45.861982668182286" lon="9.518948857453841"><ele>1091.6</ele><time>2026-04-09T10:15:17.001Z</time></trkpt><trkpt lat="45.86191324789509" lon="9.51904160503284"><ele>1089.8</ele><time>2026-04-09T10:15:18.001Z</time></trkpt><trkpt lat="45.861844581299806" lon="9.519114463591485"><ele>1088.0</ele><time>2026-04-09T10:15:19.001Z</time></trkpt><trkpt lat="45.8617753581167" lon="9.519177458192434"><ele>1088.0</ele><time>2026-04-09T10:15:20.001Z</time></trkpt><trkpt lat="45.861713371900706" lon="9.519203186869305"><ele>1088.0</ele><time>2026-04-09T10:15:21.001Z</time></trkpt><trkpt lat="45.86159842069126" lon="9.519158994996335"><ele>1088.0</ele><time>2026-04-09T10:15:23.001Z</time></trkpt><trkpt lat="45.8615898369145" lon="9.519049646608572"><ele>1088.0</ele><time>2026-04-09T10:15:24.001Z</time></trkpt><trkpt lat="45.86153270518439" lon="9.518854169889812"><ele>1088.0</ele><time>2026-04-09T10:15:26.001Z</time></trkpt><trkpt lat="45.86148888582805" lon="9.518764820292969"><ele>1084.4</ele><time>2026-04-09T10:15:27.001Z</time></trkpt><trkpt lat="45.861421988910436" lon="9.51869993386403"><ele>1080.8</ele><time>2026-04-09T10:15:28.001Z</time></trkpt><trkpt lat="45.861343885214026" lon="9.518661194760186"><ele>1077.2</ele><time>2026-04-09T10:15:29.001Z</time></trkpt><trkpt lat="45.861241226601074" lon="9.51863407909703"><ele>1073.6</ele><time>2026-04-09T10:15:30.001Z</time></trkpt><trkpt lat="45.86113903249075" lon="9.518592145960055"><ele>1070.0</ele><time>2026-04-09T10:15:31.001Z</time></trkpt><trkpt lat="45.861055374234226" lon="9.518512316795523"><ele>1070.0</ele><time>2026-04-09T10:15:32.001Z</time></trkpt><trkpt lat="45.860969138676" lon="9.518430028975175"><ele>1070.0</ele><time>2026-04-09T10:15:33.001Z</time></trkpt><trkpt lat="45.86089624707299" lon="9.518370257859779"><ele>1070.0</ele><time>2026-04-09T10:15:34.001Z</time></trkpt><trkpt lat="45.86082417253637" lon="9.518317343283286"><ele>1070.0</ele><time>2026-04-09T10:15:35.001Z</time></trkpt><trkpt lat="45.86075376363608" lon="9.51827730786921"><ele>1070.0</ele><time>2026-04-09T10:15:36.001Z</time></trkpt><trkpt lat="45.860690637466476" lon="9.518263984832483"><ele>1070.0</ele><time>2026-04-09T10:15:37.001Z</time></trkpt><trkpt lat="45.86062079125925" lon="9.518292768303166"><ele>1069.8</ele><time>2026-04-09T10:15:38.001Z</time></trkpt><trkpt lat="45.86054815720714" lon="9.518318267138058"><ele>1069.6</ele><time>2026-04-09T10:15:39.001Z</time></trkpt><trkpt lat="45.86046869209493" lon="9.518369025852534"><ele>1069.4</ele><time>2026-04-09T10:15:40.001Z</time></trkpt><trkpt lat="45.860389431597014" lon="9.518444039328115"><ele>1069.2</ele><time>2026-04-09T10:15:41.001Z</time></trkpt><trkpt lat="45.86030375497758" lon="9.51855368093776"><ele>1069.0</ele><time>2026-04-09T10:15:42.001Z</time></trkpt><trkpt lat="45.860226341255164" lon="9.518625943206594"><ele>1069.0</ele><time>2026-04-09T10:15:43.001Z</time></trkpt><trkpt lat="45.860142365529214" lon="9.518704226244203"><ele>1069.0</ele><time>2026-04-09T10:15:44.001Z</time></trkpt><trkpt lat="45.86006039194809" lon="9.518752075019295"><ele>1069.0</ele><time>2026-04-09T10:15:45.001Z</time></trkpt><trkpt lat="45.85998532775557" lon="9.518778088235003"><ele>1069.0</ele><time>2026-04-09T10:15:46.002Z</time></trkpt><trkpt lat="45.85990731860089" lon="9.518793489557904"><ele>1069.0</ele><time>2026-04-09T10:15:47.002Z</time></trkpt><trkpt lat="45.85983914980839" lon="9.518816191488328"><ele>1069.0</ele><time>2026-04-09T10:15:48.002Z</time></trkpt><trkpt lat="45.85977395831757" lon="9.5188458145909"><ele>1069.0</ele><time>2026-04-09T10:15:49.002Z</time></trkpt><trkpt lat="45.85971343216015" lon="9.518886256152735"><ele>1069.0</ele><time>2026-04-09T10:15:50.002Z</time></trkpt><trkpt lat="45.85963691495647" lon="9.519017877285888"><ele>1069.0</ele><time>2026-04-09T10:15:52.002Z</time></trkpt><trkpt lat="45.85966930000902" lon="9.519207851087758"><ele>1069.0</ele><time>2026-04-09T10:15:54.002Z</time></trkpt><trkpt lat="45.859698514309905" lon="9.51931031302427"><ele>1069.0</ele><time>2026-04-09T10:15:55.002Z</time></trkpt><trkpt lat="45.8597247202995" lon="9.519397510239559"><ele>1069.0</ele><time>2026-04-09T10:15:56.002Z</time></trkpt><trkpt lat="45.85973966006488" lon="9.519488453607083"><ele>1069.0</ele><time>2026-04-09T10:15:57.002Z</time></trkpt><trkpt lat="45.85973432044993" lon="9.519627391594566"><ele>1069.0</ele><time>2026-04-09T10:15:59.002Z</time></trkpt><trkpt lat="45.859695189779394" lon="9.519774021722059"><ele>1069.0</ele><time>2026-04-09T10:16:01.002Z</time></trkpt><trkpt lat="45.859678634041316" lon="9.519866366521788"><ele>1069.0</ele><time>2026-04-09T10:16:02.002Z</time></trkpt><trkpt lat="45.85965262879336" lon="9.520003664904864"><ele>1069.0</ele><time>2026-04-09T10:16:04.002Z</time></trkpt><trkpt lat="45.85968150597422" lon="9.520160370978978"><ele>1069.3333333333333</ele><time>2026-04-09T10:16:07.002Z</time></trkpt><trkpt lat="45.859703453185915" lon="9.520325318937035"><ele>1069.6666666666665</ele><time>2026-04-09T10:16:09.002Z</time></trkpt><trkpt lat="45.85971458529912" lon="9.520443465258065"><ele>1070.0</ele><time>2026-04-09T10:16:10.002Z</time></trkpt><trkpt lat="45.85972037075136" lon="9.520566103102162"><ele>1070.3333333333333</ele><time>2026-04-09T10:16:11.002Z</time></trkpt><trkpt lat="45.859726376291206" lon="9.52068088528532"><ele>1070.6666666666667</ele><time>2026-04-09T10:16:12.002Z</time></trkpt><trkpt lat="45.85972474843308" lon="9.520783073807921"><ele>1071.0</ele><time>2026-04-09T10:16:13.002Z</time></trkpt><trkpt lat="45.8597146563994" lon="9.520899083728636"><ele>1071.6666666666667</ele><time>2026-04-09T10:16:14.002Z</time></trkpt><trkpt lat="45.85970970566197" lon="9.521017512657046"><ele>1072.3333333333333</ele><time>2026-04-09T10:16:15.002Z</time></trkpt><trkpt lat="45.85970204252231" lon="9.521137781473728"><ele>1073.0</ele><time>2026-04-09T10:16:16.002Z</time></trkpt><trkpt lat="45.85968975370012" lon="9.521264187468612"><ele>1073.6666666666665</ele><time>2026-04-09T10:16:17.002Z</time></trkpt><trkpt lat="45.85968066165024" lon="9.521389598022726"><ele>1074.3333333333333</ele><time>2026-04-09T10:16:18.002Z</time></trkpt><trkpt lat="45.859677532264065" lon="9.52151740222338"><ele>1075.0</ele><time>2026-04-09T10:16:19.003Z</time></trkpt><trkpt lat="45.85967915973371" lon="9.521652120205902"><ele>1075.0</ele><time>2026-04-09T10:16:20.003Z</time></trkpt><trkpt lat="45.85968440877271" lon="9.521784365819148"><ele>1075.0</ele><time>2026-04-09T10:16:21.003Z</time></trkpt><trkpt lat="45.85969145493354" lon="9.52191941745734"><ele>1075.0</ele><time>2026-04-09T10:16:22.003Z</time></trkpt><trkpt lat="45.85969140000953" lon="9.522066941560869"><ele>1075.0</ele><time>2026-04-09T10:16:23.003Z</time></trkpt><trkpt lat="45.8596896959657" lon="9.522208641552398"><ele>1075.0</ele><time>2026-04-09T10:16:24.003Z</time></trkpt><trkpt lat="45.85969092382764" lon="9.522344469638483"><ele>1074.0</ele><time>2026-04-09T10:16:25.003Z</time></trkpt><trkpt lat="45.85969228093595" lon="9.522476597222566"><ele>1073.0</ele><time>2026-04-09T10:16:26.003Z</time></trkpt><trkpt lat="45.859691000048585" lon="9.522597164131202"><ele>1072.0</ele><time>2026-04-09T10:16:27.003Z</time></trkpt><trkpt lat="45.85971337572585" lon="9.522717941993788"><ele>1071.0</ele><time>2026-04-09T10:16:28.003Z</time></trkpt><trkpt lat="45.85973018873271" lon="9.522834178968665"><ele>1070.0</ele><time>2026-04-09T10:16:29.003Z</time></trkpt><trkpt lat="45.85975160002953" lon="9.522955395023624"><ele>1069.0</ele><time>2026-04-09T10:16:30.003Z</time></trkpt><trkpt lat="45.85977814011119" lon="9.523075343828049"><ele>1068.142857142857</ele><time>2026-04-09T10:16:31.003Z</time></trkpt><trkpt lat="45.859809360508045" lon="9.523189198266827"><ele>1067.2857142857144</ele><time>2026-04-09T10:16:32.003Z</time></trkpt><trkpt lat="45.859837002065134" lon="9.523295634503087"><ele>1066.4285714285716</ele><time>2026-04-09T10:16:33.003Z</time></trkpt><trkpt lat="45.859849638454904" lon="9.523390359472069"><ele>1065.5714285714287</ele><time>2026-04-09T10:16:34.003Z</time></trkpt><trkpt lat="45.85984012294544" lon="9.523481108177087"><ele>1064.7142857142858</ele><time>2026-04-09T10:16:35.003Z</time></trkpt><trkpt lat="45.859797193666" lon="9.5235502615732"><ele>1063.857142857143</ele><time>2026-04-09T10:16:36.003Z</time></trkpt><trkpt lat="45.85973149575429" lon="9.523602921422146"><ele>1063.0</ele><time>2026-04-09T10:16:37.003Z</time></trkpt><trkpt lat="45.8596634419224" lon="9.523637435392178"><ele>1064.2</ele><time>2026-04-09T10:16:38.003Z</time></trkpt><trkpt lat="45.859560637080726" lon="9.523759934461635"><ele>1065.4</ele><time>2026-04-09T10:16:40.003Z</time></trkpt><trkpt lat="45.859536815034026" lon="9.52387457629272"><ele>1066.6000000000001</ele><time>2026-04-09T10:16:41.003Z</time></trkpt><trkpt lat="45.859527893383806" lon="9.524004383383621"><ele>1067.8</ele><time>2026-04-09T10:16:42.003Z</time></trkpt><trkpt lat="45.859516538744494" lon="9.524128038362287"><ele>1069.0</ele><time>2026-04-09T10:16:43.003Z</time></trkpt><trkpt lat="45.859483213715876" lon="9.524231860643953"><ele>1069.0</ele><time>2026-04-09T10:16:44.003Z</time></trkpt><trkpt lat="45.859409044235655" lon="9.524277257301293"><ele>1069.0</ele><time>2026-04-09T10:16:45.003Z</time></trkpt><trkpt lat="45.85934051391212" lon="9.524349042164511"><ele>1069.0</ele><time>2026-04-09T10:16:46.003Z</time></trkpt><trkpt lat="45.859241970924735" lon="9.524305499746392"><ele>1069.0</ele><time>2026-04-09T10:16:47Z</time></trkpt><trkpt lat="45.85917806994907" lon="9.524330984086047"><ele>1069.0</ele><time>2026-04-09T10:16:48Z</time></trkpt><trkpt lat="45.859120272241896" lon="9.524391586620697"><ele>1069.0</ele><time>2026-04-09T10:16:49Z</time></trkpt><trkpt lat="45.85905424247788" lon="9.524436704370038"><ele>1068.0</ele><time>2026-04-09T10:16:50Z</time></trkpt><trkpt lat="45.85897313335274" lon="9.524495268076583"><ele>1067.0</ele><time>2026-04-09T10:16:51Z</time></trkpt><trkpt lat="45.858905672241995" lon="9.524611175379809"><ele>1066.0</ele><time>2026-04-09T10:16:52Z</time></trkpt><trkpt lat="45.858831400234756" lon="9.524710108979804"><ele>1065.0</ele><time>2026-04-09T10:16:53Z</time></trkpt><trkpt lat="45.85873549655471" lon="9.524792118257057"><ele>1064.0</ele><time>2026-04-09T10:16:54Z</time></trkpt><trkpt lat="45.858646633718585" lon="9.524871624826842"><ele>1064.0</ele><time>2026-04-09T10:16:55Z</time></trkpt><trkpt lat="45.85854650178054" lon="9.524937027688718"><ele>1064.0</ele><time>2026-04-09T10:16:56Z</time></trkpt><trkpt lat="45.858438877262344" lon="9.52499982206846"><ele>1064.0</ele><time>2026-04-09T10:16:57Z</time></trkpt><trkpt lat="45.85832911756778" lon="9.525046925509402"><ele>1064.0</ele><time>2026-04-09T10:16:58Z</time></trkpt><trkpt lat="45.85821653101288" lon="9.52509851044533"><ele>1058.75</ele><time>2026-04-09T10:16:59Z</time></trkpt><trkpt lat="45.858107150752204" lon="9.525149059554389"><ele>1053.5</ele><time>2026-04-09T10:17:00Z</time></trkpt><trkpt lat="45.8579955324611" lon="9.52520050102894"><ele>1048.25</ele><time>2026-04-09T10:17:01Z</time></trkpt><trkpt lat="45.85788527684937" lon="9.525254211807201"><ele>1043.0</ele><time>2026-04-09T10:17:02Z</time></trkpt><trkpt lat="45.85778807315869" lon="9.525308139268937"><ele>1043.0</ele><time>2026-04-09T10:17:03Z</time></trkpt><trkpt lat="45.85770055488157" lon="9.525351100990886"><ele>1043.0</ele><time>2026-04-09T10:17:04Z</time></trkpt><trkpt lat="45.85762041792866" lon="9.525388538179772"><ele>1043.0</ele><time>2026-04-09T10:17:05Z</time></trkpt><trkpt lat="45.8575396945205" lon="9.525424747592258"><ele>1043.0</ele><time>2026-04-09T10:17:06Z</time></trkpt><trkpt lat="45.8574595686005" lon="9.525461228761774"><ele>1043.0</ele><time>2026-04-09T10:17:07Z</time></trkpt><trkpt lat="45.857387882463364" lon="9.525483947336268"><ele>1043.0</ele><time>2026-04-09T10:17:08Z</time></trkpt><trkpt lat="45.8572982844946" lon="9.525527854699885"><ele>1043.4</ele><time>2026-04-09T10:17:10Z</time></trkpt><trkpt lat="45.857168495979856" lon="9.525587138653464"><ele>1043.8</ele><time>2026-04-09T10:25:26.001Z</time></trkpt><trkpt lat="45.857065771288774" lon="9.525644606495003"><ele>1044.2</ele><time>2026-04-09T10:25:28.001Z</time></trkpt><trkpt lat="45.85700588364727" lon="9.525683187833975"><ele>1044.6</ele><time>2026-04-09T10:25:29.001Z</time></trkpt><trkpt lat="45.85691944792877" lon="9.525764788949592"><ele>1045.0</ele><time>2026-04-09T10:25:31.001Z</time></trkpt><trkpt lat="45.856838220882004" lon="9.525873342932382"><ele>1045.0</ele><time>2026-04-09T10:25:33.001Z</time></trkpt><trkpt lat="45.856750537478426" lon="9.52600259605238"><ele>1045.0</ele><time>2026-04-09T10:25:35.001Z</time></trkpt><trkpt lat="45.8567031936433" lon="9.526064234668036"><ele>1045.0</ele><time>2026-04-09T10:25:36.001Z</time></trkpt><trkpt lat="45.856656355861425" lon="9.52612731735483"><ele>1045.0</ele><time>2026-04-09T10:25:37.001Z</time></trkpt><trkpt lat="45.856605865343234" lon="9.526192043790314"><ele>1045.0</ele><time>2026-04-09T10:25:38.001Z</time></trkpt><trkpt lat="45.856553087802425" lon="9.5262558763841"><ele>1045.0</ele><time>2026-04-09T10:25:39.001Z</time></trkpt><trkpt lat="45.856500720688054" lon="9.526324043346698"><ele>1046.5714285714284</ele><time>2026-04-09T10:25:40.001Z</time></trkpt><trkpt lat="45.856448929934984" lon="9.52638969901427"><ele>1048.142857142857</ele><time>2026-04-09T10:25:41.001Z</time></trkpt><trkpt lat="45.85640054875499" lon="9.526451406772491"><ele>1049.7142857142858</ele><time>2026-04-09T10:25:42.001Z</time></trkpt><trkpt lat="45.85635016762368" lon="9.526527245376396"><ele>1051.2857142857142</ele><time>2026-04-09T10:25:43.001Z</time></trkpt><trkpt lat="45.85630483665712" lon="9.52659725423303"><ele>1052.857142857143</ele><time>2026-04-09T10:25:44.001Z</time></trkpt><trkpt lat="45.85624874603749" lon="9.526659825777813"><ele>1054.4285714285713</ele><time>2026-04-09T10:25:45.001Z</time></trkpt><trkpt lat="45.856193162233" lon="9.526727710991889"><ele>1056.0</ele><time>2026-04-09T10:25:46.001Z</time></trkpt><trkpt lat="45.856138505757265" lon="9.52679415895603"><ele>1056.0</ele><time>2026-04-09T10:25:47.001Z</time></trkpt><trkpt lat="45.856082976105036" lon="9.526856179442479"><ele>1056.0</ele><time>2026-04-09T10:25:48.001Z</time></trkpt><trkpt lat="45.85602821726709" lon="9.526920786720176"><ele>1056.0</ele><time>2026-04-09T10:25:49.001Z</time></trkpt><trkpt lat="45.85597108607553" lon="9.52698129414303"><ele>1056.0</ele><time>2026-04-09T10:25:50.001Z</time></trkpt><trkpt lat="45.85590980568944" lon="9.527053659864423"><ele>1056.0</ele><time>2026-04-09T10:25:51.001Z</time></trkpt><trkpt lat="45.85587181608489" lon="9.527128482721109"><ele>1056.0</ele><time>2026-04-09T10:25:52.001Z</time></trkpt><trkpt lat="45.85582306677488" lon="9.52719074521295"><ele>1056.0</ele><time>2026-04-09T10:25:53.001Z</time></trkpt><trkpt lat="45.85574930149835" lon="9.52725206063393"><ele>1056.6666666666667</ele><time>2026-04-09T10:25:54.001Z</time></trkpt><trkpt lat="45.855704453745766" lon="9.527329916540285"><ele>1057.3333333333333</ele><time>2026-04-09T10:25:55.001Z</time></trkpt><trkpt lat="45.85561383514857" lon="9.527445502831359"><ele>1058.0</ele><time>2026-04-09T10:25:57.001Z</time></trkpt><trkpt lat="45.8555603345074" lon="9.527518790120043"><ele>1058.6666666666665</ele><time>2026-04-09T10:25:58.001Z</time></trkpt><trkpt lat="45.855510092869324" lon="9.527600641130643"><ele>1059.3333333333333</ele><time>2026-04-09T10:25:59.001Z</time></trkpt><trkpt lat="45.85547452734678" lon="9.527697499545562"><ele>1060.0</ele><time>2026-04-09T10:26:00.001Z</time></trkpt><trkpt lat="45.85545024544078" lon="9.527799482180237"><ele>1062.5</ele><time>2026-04-09T10:26:01.001Z</time></trkpt><trkpt lat="45.85542462370245" lon="9.52789795127906"><ele>1065.0</ele><time>2026-04-09T10:26:02.001Z</time></trkpt><trkpt lat="45.85538875389097" lon="9.527998651872233"><ele>1067.5</ele><time>2026-04-09T10:26:03.001Z</time></trkpt><trkpt lat="45.85535096314721" lon="9.528090502197406"><ele>1070.0</ele><time>2026-04-09T10:26:04.001Z</time></trkpt><trkpt lat="45.85528602424544" lon="9.528207053805556"><ele>1072.5</ele><time>2026-04-09T10:26:06.001Z</time></trkpt><trkpt lat="45.85522645511831" lon="9.528306167418869"><ele>1075.0</ele><time>2026-04-09T10:26:30.002Z</time></trkpt><trkpt lat="45.855133145644714" lon="9.52843406233861"><ele>1074.8</ele><time>2026-04-09T10:26:32.002Z</time></trkpt><trkpt lat="45.85503720239668" lon="9.52855599667666"><ele>1074.6</ele><time>2026-04-09T10:26:34.002Z</time></trkpt><trkpt lat="45.85497574170447" lon="9.528627962564162"><ele>1074.4</ele><time>2026-04-09T10:26:35.002Z</time></trkpt><trkpt lat="45.854908146710656" lon="9.52871218599161"><ele>1074.2</ele><time>2026-04-09T10:26:36.002Z</time></trkpt><trkpt lat="45.85483188329731" lon="9.528798392917222"><ele>1074.0</ele><time>2026-04-09T10:26:37.002Z</time></trkpt><trkpt lat="45.854764783813" lon="9.528864268008324"><ele>1074.0</ele><time>2026-04-09T10:26:38.002Z</time></trkpt><trkpt lat="45.8547001930773" lon="9.528894993666205"><ele>1074.0</ele><time>2026-04-09T10:26:39.002Z</time></trkpt><trkpt lat="45.854625102395445" lon="9.52889703422814"><ele>1074.0</ele><time>2026-04-09T10:26:40.002Z</time></trkpt><trkpt lat="45.85454207578001" lon="9.52886923590392"><ele>1074.0</ele><time>2026-04-09T10:26:41.002Z</time></trkpt><trkpt lat="45.854443619410056" lon="9.52884544786892"><ele>1074.0</ele><time>2026-04-09T10:26:42.002Z</time></trkpt><trkpt lat="45.85434382324951" lon="9.528829857938664"><ele>1074.0</ele><time>2026-04-09T10:26:43.002Z</time></trkpt><trkpt lat="45.85425334865577" lon="9.528821093720511"><ele>1072.5</ele><time>2026-04-09T10:26:44.002Z</time></trkpt><trkpt lat="45.85417141459038" lon="9.528764062263402"><ele>1071.0</ele><time>2026-04-09T10:26:45.002Z</time></trkpt><trkpt lat="45.8540995089609" lon="9.528717381087858"><ele>1069.5</ele><time>2026-04-09T10:26:46.002Z</time></trkpt><trkpt lat="45.8540279300142" lon="9.52865335015183"><ele>1068.0</ele><time>2026-04-09T10:26:47.002Z</time></trkpt><trkpt lat="45.85394881614829" lon="9.528580123128876"><ele>1066.5</ele><time>2026-04-09T10:26:48.002Z</time></trkpt><trkpt lat="45.85386652881183" lon="9.528516360284929"><ele>1065.0</ele><time>2026-04-09T10:26:49.002Z</time></trkpt><trkpt lat="45.85378360302901" lon="9.528484804582982"><ele>1063.3333333333333</ele><time>2026-04-09T10:26:50.002Z</time></trkpt><trkpt lat="45.85371574866532" lon="9.52845666071174"><ele>1061.6666666666667</ele><time>2026-04-09T10:26:51.002Z</time></trkpt><trkpt lat="45.85363538115428" lon="9.528463331574311"><ele>1060.0</ele><time>2026-04-09T10:26:52.002Z</time></trkpt><trkpt lat="45.853551068638176" lon="9.528497236872948"><ele>1058.3333333333335</ele><time>2026-04-09T10:26:53.002Z</time></trkpt><trkpt lat="45.8534584764123" lon="9.528530963918763"><ele>1056.6666666666667</ele><time>2026-04-09T10:26:54.002Z</time></trkpt><trkpt lat="45.853360179977045" lon="9.528542762062623"><ele>1055.0</ele><time>2026-04-09T10:26:55.002Z</time></trkpt><trkpt lat="45.85327575496482" lon="9.528552403824655"><ele>1054.0</ele><time>2026-04-09T10:26:56.002Z</time></trkpt><trkpt lat="45.8532026697857" lon="9.528521060726934"><ele>1053.0</ele><time>2026-04-09T10:26:57.002Z</time></trkpt><trkpt lat="45.853137570605625" lon="9.528513488182954"><ele>1052.0</ele><time>2026-04-09T10:26:58.002Z</time></trkpt><trkpt lat="45.85306657157281" lon="9.52845515940905"><ele>1051.0</ele><time>2026-04-09T10:26:59.002Z</time></trkpt><trkpt lat="45.85298148315244" lon="9.528400350482007"><ele>1050.0</ele><time>2026-04-09T10:27:00.002Z</time></trkpt><trkpt lat="45.85291236624477" lon="9.528334148607593"><ele>1049.0</ele><time>2026-04-09T10:27:01.002Z</time></trkpt><trkpt lat="45.85284920688778" lon="9.528274752384865"><ele>1049.0</ele><time>2026-04-09T10:27:02.003Z</time></trkpt><trkpt lat="45.852788387966314" lon="9.52822663892659"><ele>1049.0</ele><time>2026-04-09T10:27:03.003Z</time></trkpt><trkpt lat="45.85272311512074" lon="9.528210337904277"><ele>1049.0</ele><time>2026-04-09T10:27:04.003Z</time></trkpt><trkpt lat="45.85261517414233" lon="9.52811715661452"><ele>1049.0</ele><time>2026-04-09T10:27:06.003Z</time></trkpt><trkpt lat="45.852550262975775" lon="9.527992709373718"><ele>1049.0</ele><time>2026-04-09T10:27:08.003Z</time></trkpt><trkpt lat="45.85255160445046" lon="9.527847579171468"><ele>1047.6666666666667</ele><time>2026-04-09T10:27:10.003Z</time></trkpt><trkpt lat="45.85260786180532" lon="9.52778514322453"><ele>1046.3333333333335</ele><time>2026-04-09T10:27:11.003Z</time></trkpt><trkpt lat="45.85261799132844" lon="9.52769331536034"><ele>1045.0</ele><time>2026-04-09T10:27:12.003Z</time></trkpt><trkpt lat="45.85262763997296" lon="9.527594442492223"><ele>1043.6666666666667</ele><time>2026-04-09T10:27:13.003Z</time></trkpt><trkpt lat="45.85263067149984" lon="9.527484995832797"><ele>1042.3333333333333</ele><time>2026-04-09T10:27:14.003Z</time></trkpt><trkpt lat="45.85256969234183" lon="9.52739677757933"><ele>1041.0</ele><time>2026-04-09T10:27:15.003Z</time></trkpt><trkpt lat="45.85251994577867" lon="9.527288795535046"><ele>1040.3999999999999</ele><time>2026-04-09T10:27:16.003Z</time></trkpt><trkpt lat="45.85245357946522" lon="9.527180138528772"><ele>1039.8</ele><time>2026-04-09T10:27:17Z</time></trkpt><trkpt lat="45.852383372311856" lon="9.527069197988805"><ele>1039.1999999999998</ele><time>2026-04-09T10:27:18Z</time></trkpt><trkpt lat="45.852318332269235" lon="9.52696191630379"><ele>1038.6</ele><time>2026-04-09T10:27:19Z</time></trkpt><trkpt lat="45.85223863348016" lon="9.526880460685994"><ele>1038.0</ele><time>2026-04-09T10:27:20Z</time></trkpt><trkpt lat="45.852168772980406" lon="9.52680396609306"><ele>1036.0</ele><time>2026-04-09T10:27:21Z</time></trkpt><trkpt lat="45.852089803082045" lon="9.52676323254587"><ele>1034.0</ele><time>2026-04-09T10:27:22Z</time></trkpt><trkpt lat="45.85199176785139" lon="9.52675621496238"><ele>1032.0</ele><time>2026-04-09T10:27:23Z</time></trkpt><trkpt lat="45.85188438012764" lon="9.526778153454211"><ele>1030.0</ele><time>2026-04-09T10:27:24Z</time></trkpt><trkpt lat="45.85176719405835" lon="9.526809811572758"><ele>1028.0</ele><time>2026-04-09T10:27:25Z</time></trkpt><trkpt lat="45.851647523769394" lon="9.526824543925631"><ele>1027.4</ele><time>2026-04-09T10:27:26Z</time></trkpt><trkpt lat="45.85153401553052" lon="9.52683628751244"><ele>1026.8</ele><time>2026-04-09T10:27:27Z</time></trkpt><trkpt lat="45.85143302574312" lon="9.52682951922827"><ele>1026.2</ele><time>2026-04-09T10:27:28Z</time></trkpt><trkpt lat="45.8513527908647" lon="9.526799299379102"><ele>1025.6</ele><time>2026-04-09T10:27:29Z</time></trkpt><trkpt lat="45.851282070037485" lon="9.526707948126655"><ele>1025.0</ele><time>2026-04-09T10:27:30Z</time></trkpt><trkpt lat="45.85120612258926" lon="9.526681435703734"><ele>1025.0</ele><time>2026-04-09T10:27:31Z</time></trkpt><trkpt lat="45.85111746233984" lon="9.52665667143093"><ele>1025.0</ele><time>2026-04-09T10:27:32Z</time></trkpt><trkpt lat="45.85102918888662" lon="9.526650913675038"><ele>1025.0</ele><time>2026-04-09T10:27:33Z</time></trkpt><trkpt lat="45.85094749781907" lon="9.526588974808414"><ele>1025.0</ele><time>2026-04-09T10:27:34Z</time></trkpt><trkpt lat="45.85087771915508" lon="9.526520874504412"><ele>1025.0</ele><time>2026-04-09T10:27:35Z</time></trkpt><trkpt lat="45.85082011006778" lon="9.526428657788644"><ele>1025.0</ele><time>2026-04-09T10:27:36Z</time></trkpt><trkpt lat="45.850776079756876" lon="9.52631523671897"><ele>1023.0</ele><time>2026-04-09T10:27:37Z</time></trkpt><trkpt lat="45.85071242756947" lon="9.526191691201747"><ele>1021.0</ele><time>2026-04-09T10:27:38Z</time></trkpt><trkpt lat="45.85064080593797" lon="9.526096826379794"><ele>1019.0</ele><time>2026-04-09T10:27:39Z</time></trkpt><trkpt lat="45.85055818708208" lon="9.526000692969983"><ele>1017.0</ele><time>2026-04-09T10:27:40Z</time></trkpt><trkpt lat="45.85045005432256" lon="9.5259365382444"><ele>1015.0</ele><time>2026-04-09T10:27:41Z</time></trkpt><trkpt lat="45.85032624662481" lon="9.52588865170366"><ele>1015.0</ele><time>2026-04-09T10:27:42Z</time></trkpt><trkpt lat="45.85020641024708" lon="9.525812393513613"><ele>1015.0</ele><time>2026-04-09T10:27:43Z</time></trkpt><trkpt lat="45.85007963127909" lon="9.52576349814291"><ele>1015.0</ele><time>2026-04-09T10:27:44Z</time></trkpt><trkpt lat="45.849947929118535" lon="9.525730430589876"><ele>1015.0</ele><time>2026-04-09T10:27:45Z</time></trkpt><trkpt lat="45.84982187836011" lon="9.525690494484868"><ele>1011.5</ele><time>2026-04-09T10:27:46Z</time></trkpt><trkpt lat="45.8496994795088" lon="9.525680564305587"><ele>1008.0</ele><time>2026-04-09T10:27:47Z</time></trkpt><trkpt lat="45.849577240333176" lon="9.525685126732936"><ele>1004.5</ele><time>2026-04-09T10:27:48Z</time></trkpt><trkpt lat="45.84944739584532" lon="9.525707218728119"><ele>1001.0</ele><time>2026-04-09T10:27:49.001Z</time></trkpt><trkpt lat="45.84931248956235" lon="9.525730250791174"><ele>999.25</ele><time>2026-04-09T10:27:50.001Z</time></trkpt><trkpt lat="45.849186578809885" lon="9.525778054177652"><ele>997.5</ele><time>2026-04-09T10:27:51.001Z</time></trkpt><trkpt lat="45.8490602181488" lon="9.52582301852918"><ele>995.75</ele><time>2026-04-09T10:27:52.001Z</time></trkpt><trkpt lat="45.84894278340777" lon="9.525861181501048"><ele>994.0</ele><time>2026-04-09T10:27:53.001Z</time></trkpt><trkpt lat="45.84883624776266" lon="9.525922405124497"><ele>993.9999999999999</ele><time>2026-04-09T10:27:54.001Z</time></trkpt><trkpt lat="45.84873898744231" lon="9.52598047134435"><ele>994.0</ele><time>2026-04-09T10:27:55.001Z</time></trkpt><trkpt lat="45.8486622978631" lon="9.526037370410402"><ele>994.0</ele><time>2026-04-09T10:27:56.001Z</time></trkpt><trkpt lat="45.848596581945195" lon="9.526074527765754"><ele>994.0</ele><time>2026-04-09T10:27:57.001Z</time></trkpt><trkpt lat="45.848514557850784" lon="9.525988278145421"><ele>993.9999999999999</ele><time>2026-04-09T10:27:59.001Z</time></trkpt><trkpt lat="45.84851627166707" lon="9.525889125059152"><ele>994.0</ele><time>2026-04-09T10:28:00.001Z</time></trkpt><trkpt lat="45.84855807110134" lon="9.525762245331407"><ele>994.0</ele><time>2026-04-09T10:28:01.001Z</time></trkpt><trkpt lat="45.84857119775081" lon="9.52561187878589"><ele>994.0000000000001</ele><time>2026-04-09T10:28:02.001Z</time></trkpt><trkpt lat="45.84857809842009" lon="9.525443105127401"><ele>994.0000000000001</ele><time>2026-04-09T10:28:03.001Z</time></trkpt><trkpt lat="45.84858285747088" lon="9.525277188450342"><ele>994.0</ele><time>2026-04-09T10:28:04.001Z</time></trkpt><trkpt lat="45.848598298418445" lon="9.525124054410346"><ele>994.0</ele><time>2026-04-09T10:28:05.001Z</time></trkpt><trkpt lat="45.848623104809064" lon="9.524982133147816"><ele>993.8000000000001</ele><time>2026-04-09T10:28:06.001Z</time></trkpt><trkpt lat="45.84865592686326" lon="9.524863272688073"><ele>993.6000000000001</ele><time>2026-04-09T10:28:07.001Z</time></trkpt><trkpt lat="45.8486086673761" lon="9.524704079479946"><ele>993.4</ele><time>2026-04-09T10:28:09.001Z</time></trkpt><trkpt lat="45.84849259204417" lon="9.52466134002148"><ele>993.2</ele><time>2026-04-09T10:28:11.001Z</time></trkpt><trkpt lat="45.84844155842584" lon="9.524767432649195"><ele>993.0</ele><time>2026-04-09T10:28:12.001Z</time></trkpt><trkpt lat="45.84841765896791" lon="9.524873650037764"><ele>988.5999999999999</ele><time>2026-04-09T10:28:13.001Z</time></trkpt><trkpt lat="45.84842446194557" lon="9.525004265876492"><ele>984.1999999999999</ele><time>2026-04-09T10:28:14.001Z</time></trkpt><trkpt lat="45.848428476736395" lon="9.525147896640831"><ele>979.8</ele><time>2026-04-09T10:28:15.001Z</time></trkpt><trkpt lat="45.84841686429669" lon="9.525309063667063"><ele>975.4</ele><time>2026-04-09T10:28:16.001Z</time></trkpt><trkpt lat="45.84838707590599" lon="9.525475417476848"><ele>971.0</ele><time>2026-04-09T10:28:17.001Z</time></trkpt><trkpt lat="45.848348536733006" lon="9.525627288622822"><ele>971.0</ele><time>2026-04-09T10:28:18.001Z</time></trkpt><trkpt lat="45.848309318072445" lon="9.525759964652918"><ele>970.9999999999999</ele><time>2026-04-09T10:28:19.001Z</time></trkpt><trkpt lat="45.84826643528814" lon="9.525877715285775"><ele>970.9999999999999</ele><time>2026-04-09T10:28:20.001Z</time></trkpt><trkpt lat="45.848219978644174" lon="9.52598919777333"><ele>971.0</ele><time>2026-04-09T10:28:21.001Z</time></trkpt><trkpt lat="45.848171636761386" lon="9.526117999684274"><ele>971.0</ele><time>2026-04-09T10:28:22.001Z</time></trkpt><trkpt lat="45.848144369160565" lon="9.526251705234179"><ele>971.0</ele><time>2026-04-09T10:28:23.001Z</time></trkpt><trkpt lat="45.848123894215995" lon="9.526360798476235"><ele>970.9999999999999</ele><time>2026-04-09T10:28:24.001Z</time></trkpt><trkpt lat="45.848050688451586" lon="9.52646568444037"><ele>970.9999999999999</ele><time>2026-04-09T10:28:26.001Z</time></trkpt><trkpt lat="45.84797296965037" lon="9.526383860582348"><ele>971.0</ele><time>2026-04-09T10:28:28.001Z</time></trkpt><trkpt lat="45.84801395358696" lon="9.52622808361176"><ele>971.0</ele><time>2026-04-09T10:28:30.001Z</time></trkpt><trkpt lat="45.84805664132781" lon="9.526121846420265"><ele>971.0</ele><time>2026-04-09T10:28:31.001Z</time></trkpt><trkpt lat="45.84809832609712" lon="9.525998075085784"><ele>970.9999999999999</ele><time>2026-04-09T10:28:32.001Z</time></trkpt><trkpt lat="45.84812786301085" lon="9.525868436796026"><ele>970.9999999999999</ele><time>2026-04-09T10:28:33.001Z</time></trkpt><trkpt lat="45.84815408852634" lon="9.52573334733057"><ele>971.0</ele><time>2026-04-09T10:28:34.001Z</time></trkpt><trkpt lat="45.84817906795253" lon="9.525573811849277"><ele>971.0</ele><time>2026-04-09T10:28:35.001Z</time></trkpt><trkpt lat="45.84821038871622" lon="9.52540250606143"><ele>969.25</ele><time>2026-04-09T10:28:36.001Z</time></trkpt><trkpt lat="45.84823075013202" lon="9.525221233756664"><ele>967.5</ele><time>2026-04-09T10:28:37.001Z</time></trkpt><trkpt lat="45.84824431371756" lon="9.52504873225648"><ele>965.75</ele><time>2026-04-09T10:28:38.001Z</time></trkpt><trkpt lat="45.84824243747838" lon="9.524879069163532"><ele>964.0</ele><time>2026-04-09T10:28:39.001Z</time></trkpt><trkpt lat="45.848224051308385" lon="9.524711954168886"><ele>962.25</ele><time>2026-04-09T10:28:40.001Z</time></trkpt><trkpt lat="45.848197940643736" lon="9.52454251644638"><ele>960.5</ele><time>2026-04-09T10:28:41.001Z</time></trkpt><trkpt lat="45.84817309123597" lon="9.524386747659806"><ele>958.75</ele><time>2026-04-09T10:28:42.002Z</time></trkpt><trkpt lat="45.848148326820116" lon="9.524222303168754"><ele>957.0</ele><time>2026-04-09T10:28:43.002Z</time></trkpt><trkpt lat="45.84814104907428" lon="9.524057377602706"><ele>957.0</ele><time>2026-04-09T10:28:44.002Z</time></trkpt><trkpt lat="45.84814602773956" lon="9.523893908644032"><ele>957.0</ele><time>2026-04-09T10:28:45.002Z</time></trkpt><trkpt lat="45.84815982284637" lon="9.523735392721669"><ele>957.0</ele><time>2026-04-09T10:28:46.002Z</time></trkpt><trkpt lat="45.8481844200374" lon="9.523581242428463"><ele>957.0</ele><time>2026-04-09T10:28:47.002Z</time></trkpt><trkpt lat="45.84822719073594" lon="9.523446241333778"><ele>957.0</ele><time>2026-04-09T10:28:48.002Z</time></trkpt><trkpt lat="45.84825694757514" lon="9.523326279173668"><ele>957.6</ele><time>2026-04-09T10:28:49.002Z</time></trkpt><trkpt lat="45.84831603103255" lon="9.523241164791363"><ele>958.2</ele><time>2026-04-09T10:28:50.002Z</time></trkpt><trkpt lat="45.848400276645634" lon="9.523184176532368"><ele>958.8</ele><time>2026-04-09T10:28:51.002Z</time></trkpt><trkpt lat="45.84850539124556" lon="9.523136690378362"><ele>959.4</ele><time>2026-04-09T10:28:52.002Z</time></trkpt><trkpt lat="45.848620893922686" lon="9.523087135330611"><ele>960.0</ele><time>2026-04-09T10:28:53.002Z</time></trkpt><trkpt lat="45.848730755525054" lon="9.523038030635123"><ele>960.0</ele><time>2026-04-09T10:28:54.002Z</time></trkpt><trkpt lat="45.84883596248034" lon="9.522997480767666"><ele>960.0</ele><time>2026-04-09T10:28:55.002Z</time></trkpt><trkpt lat="45.84892794348365" lon="9.522963840082184"><ele>960.0</ele><time>2026-04-09T10:28:56.002Z</time></trkpt><trkpt lat="45.848994890684196" lon="9.522916120472882"><ele>960.0</ele><time>2026-04-09T10:28:57.002Z</time></trkpt><trkpt lat="45.84903129378082" lon="9.522768730428673"><ele>960.0</ele><time>2026-04-09T10:28:59.002Z</time></trkpt><trkpt lat="45.84897695359057" lon="9.522689161065069"><ele>954.2</ele><time>2026-04-09T10:29:00.002Z</time></trkpt><trkpt lat="45.84884047364187" lon="9.522694606548427"><ele>948.4</ele><time>2026-04-09T10:29:02.002Z</time></trkpt><trkpt lat="45.84875454240407" lon="9.522739111380789"><ele>942.5999999999999</ele><time>2026-04-09T10:29:03.002Z</time></trkpt><trkpt lat="45.84865735181495" lon="9.522809233195959"><ele>936.8</ele><time>2026-04-09T10:29:05.002Z</time></trkpt><trkpt lat="45.8485670265435" lon="9.52282642540265"><ele>931.0</ele><time>2026-04-09T10:29:36Z</time></trkpt><trkpt lat="45.84846994219409" lon="9.522870879209787"><ele>932.8</ele><time>2026-04-09T10:29:39Z</time></trkpt><trkpt lat="45.84840419011791" lon="9.522902059774431"><ele>934.5999999999999</ele><time>2026-04-09T10:29:40Z</time></trkpt><trkpt lat="45.84831520103253" lon="9.522952108290749"><ele>936.4</ele><time>2026-04-09T10:29:41Z</time></trkpt><trkpt lat="45.848218845266054" lon="9.523036458403306"><ele>938.2</ele><time>2026-04-09T10:29:42Z</time></trkpt><trkpt lat="45.848142338756745" lon="9.523129474797855"><ele>940.0</ele><time>2026-04-09T10:29:43Z</time></trkpt><trkpt lat="45.8480664262026" lon="9.52324640141237"><ele>940.0</ele><time>2026-04-09T10:29:44Z</time></trkpt><trkpt lat="45.84799883156438" lon="9.523391555792195"><ele>940.0</ele><time>2026-04-09T10:29:45Z</time></trkpt><trkpt lat="45.847959569297686" lon="9.523575908484014"><ele>940.0</ele><time>2026-04-09T10:29:46Z</time></trkpt><trkpt lat="45.847890573529625" lon="9.52376668308145"><ele>940.0</ele><time>2026-04-09T10:29:47Z</time></trkpt><trkpt lat="45.847834725126816" lon="9.523952484365028"><ele>944.25</ele><time>2026-04-09T10:29:48Z</time></trkpt><trkpt lat="45.84778945231313" lon="9.524133332828171"><ele>948.5</ele><time>2026-04-09T10:29:49Z</time></trkpt><trkpt lat="45.84775409367508" lon="9.524313225073186"><ele>952.75</ele><time>2026-04-09T10:29:50Z</time></trkpt><trkpt lat="45.84772660717129" lon="9.524493738883676"><ele>957.0</ele><time>2026-04-09T10:29:51Z</time></trkpt><trkpt lat="45.84769386772085" lon="9.524668540769083"><ele>958.75</ele><time>2026-04-09T10:29:52Z</time></trkpt><trkpt lat="45.84765138261422" lon="9.524842819571635"><ele>960.5</ele><time>2026-04-09T10:29:53Z</time></trkpt><trkpt lat="45.8475992358919" lon="9.525013608218432"><ele>962.25</ele><time>2026-04-09T10:29:54Z</time></trkpt><trkpt lat="45.84753358832675" lon="9.525202505064767"><ele>964.0</ele><time>2026-04-09T10:29:55Z</time></trkpt><trkpt lat="45.8474708064246" lon="9.525393363787552"><ele>954.5</ele><time>2026-04-09T10:29:56Z</time></trkpt><trkpt lat="45.84738903625052" lon="9.52556656513936"><ele>945.0</ele><time>2026-04-09T10:29:57Z</time></trkpt><trkpt lat="45.84732317279293" lon="9.525729343371003"><ele>935.5</ele><time>2026-04-09T10:29:58Z</time></trkpt><trkpt lat="45.84724430534193" lon="9.52589464245781"><ele>926.0</ele><time>2026-04-09T10:29:59Z</time></trkpt><trkpt lat="45.84719497619809" lon="9.526068944221619"><ele>929.75</ele><time>2026-04-09T10:30:00Z</time></trkpt><trkpt lat="45.84712687826905" lon="9.526234494859208"><ele>933.5</ele><time>2026-04-09T10:30:01Z</time></trkpt><trkpt lat="45.84706810590653" lon="9.526405197394775"><ele>937.25</ele><time>2026-04-09T10:30:02Z</time></trkpt><trkpt lat="45.847025710110934" lon="9.52656802210006"><ele>941.0</ele><time>2026-04-09T10:30:03Z</time></trkpt><trkpt lat="45.84700175531542" lon="9.526718004233754"><ele>941.0</ele><time>2026-04-09T10:30:04.001Z</time></trkpt><trkpt lat="45.84699486749952" lon="9.526856857889998"><ele>940.9999999999999</ele><time>2026-04-09T10:30:05.001Z</time></trkpt><trkpt lat="45.846962836095294" lon="9.526976734813115"><ele>940.9999999999999</ele><time>2026-04-09T10:30:06.001Z</time></trkpt><trkpt lat="45.84692950186454" lon="9.527064250867037"><ele>941.0</ele><time>2026-04-09T10:30:07.001Z</time></trkpt><trkpt lat="45.846873878590664" lon="9.527108538958101"><ele>941.0</ele><time>2026-04-09T10:30:09.001Z</time></trkpt><trkpt lat="45.846818797597614" lon="9.526916348088461"><ele>941.0</ele><time>2026-04-09T10:30:11.001Z</time></trkpt><trkpt lat="45.84683965028216" lon="9.526799926766525"><ele>941.0</ele><time>2026-04-09T10:30:12.001Z</time></trkpt><trkpt lat="45.84688307724472" lon="9.526658779530475"><ele>941.0</ele><time>2026-04-09T10:30:13.001Z</time></trkpt><trkpt lat="45.84692631371807" lon="9.52648874298961"><ele>941.0</ele><time>2026-04-09T10:30:14.001Z</time></trkpt><trkpt lat="45.84697717166267" lon="9.52629689330199"><ele>937.25</ele><time>2026-04-09T10:30:15.001Z</time></trkpt><trkpt lat="45.84699994856942" lon="9.526101170667436"><ele>933.5</ele><time>2026-04-09T10:30:16.001Z</time></trkpt><trkpt lat="45.84702935412052" lon="9.52590367515453"><ele>929.75</ele><time>2026-04-09T10:30:17.001Z</time></trkpt><trkpt lat="45.84705133456552" lon="9.525681395428553"><ele>926.0</ele><time>2026-04-09T10:30:18.001Z</time></trkpt><trkpt lat="45.847079039917425" lon="9.525456479080338"><ele>922.0</ele><time>2026-04-09T10:30:19.001Z</time></trkpt><trkpt lat="45.847116246932856" lon="9.525227080048728"><ele>918.0</ele><time>2026-04-09T10:30:20.001Z</time></trkpt><trkpt lat="45.84713233129699" lon="9.52499606031176"><ele>914.0</ele><time>2026-04-09T10:30:21.001Z</time></trkpt><trkpt lat="45.84715863365537" lon="9.524771319171371"><ele>911.3333333333334</ele><time>2026-04-09T10:30:22.001Z</time></trkpt><trkpt lat="45.84719033267145" lon="9.524550973915414"><ele>908.6666666666667</ele><time>2026-04-09T10:30:23.001Z</time></trkpt><trkpt lat="45.847227842842074" lon="9.524338523616287"><ele>906.0</ele><time>2026-04-09T10:30:24.001Z</time></trkpt><trkpt lat="45.8472647357685" lon="9.524135352504913"><ele>906.0</ele><time>2026-04-09T10:30:25.001Z</time></trkpt><trkpt lat="45.847306543376426" lon="9.5239317130941"><ele>906.0</ele><time>2026-04-09T10:30:26.001Z</time></trkpt><trkpt lat="45.84734697605308" lon="9.523716596971022"><ele>906.0</ele><time>2026-04-09T10:30:27.001Z</time></trkpt><trkpt lat="45.84739348759871" lon="9.523489145214905"><ele>902.0</ele><time>2026-04-09T10:30:28.001Z</time></trkpt><trkpt lat="45.84744816546153" lon="9.523267557595654"><ele>898.0</ele><time>2026-04-09T10:30:29.001Z</time></trkpt><trkpt lat="45.84750762194855" lon="9.523058426086887"><ele>894.0</ele><time>2026-04-09T10:30:30.001Z</time></trkpt><trkpt lat="45.84756921106243" lon="9.522849458026997"><ele>901.0</ele><time>2026-04-09T10:30:31.001Z</time></trkpt><trkpt lat="45.84762892035368" lon="9.522653042729502"><ele>908.0</ele><time>2026-04-09T10:30:32.001Z</time></trkpt><trkpt lat="45.84769935336257" lon="9.522463999478488"><ele>915.0</ele><time>2026-04-09T10:30:33.001Z</time></trkpt><trkpt lat="45.84778632660819" lon="9.522277136112853"><ele>915.0</ele><time>2026-04-09T10:30:34.001Z</time></trkpt><trkpt lat="45.847880095086836" lon="9.522104731488133"><ele>915.0</ele><time>2026-04-09T10:30:35.001Z</time></trkpt><trkpt lat="45.84796454404944" lon="9.52195148976946"><ele>915.0</ele><time>2026-04-09T10:30:36.001Z</time></trkpt><trkpt lat="45.84805841412083" lon="9.52182059701917"><ele>915.0</ele><time>2026-04-09T10:30:37.001Z</time></trkpt><trkpt lat="45.84817442734675" lon="9.521699804328092"><ele>904.3333333333333</ele><time>2026-04-09T10:30:38.001Z</time></trkpt><trkpt lat="45.848293347521135" lon="9.521543473932466"><ele>893.6666666666666</ele><time>2026-04-09T10:30:39.001Z</time></trkpt><trkpt lat="45.84841967026194" lon="9.521390726069392"><ele>883.0</ele><time>2026-04-09T10:30:40.001Z</time></trkpt><trkpt lat="45.84855867809689" lon="9.521210504230115"><ele>881.3333333333333</ele><time>2026-04-09T10:30:41.001Z</time></trkpt><trkpt lat="45.848696070831494" lon="9.521016491845584"><ele>879.6666666666667</ele><time>2026-04-09T10:30:42.001Z</time></trkpt><trkpt lat="45.84884021330224" lon="9.520844159720045"><ele>878.0</ele><time>2026-04-09T10:30:43.001Z</time></trkpt><trkpt lat="45.84896313164764" lon="9.520665487459501"><ele>878.0</ele><time>2026-04-09T10:30:44.001Z</time></trkpt><trkpt lat="45.84907223536867" lon="9.520513433464064"><ele>878.0</ele><time>2026-04-09T10:30:45.001Z</time></trkpt><trkpt lat="45.8491702580518" lon="9.52038397439386"><ele>878.0</ele><time>2026-04-09T10:30:46.001Z</time></trkpt><trkpt lat="45.84926669527774" lon="9.520272515234788"><ele>878.0</ele><time>2026-04-09T10:30:47.001Z</time></trkpt><trkpt lat="45.84938052643764" lon="9.520196065094169"><ele>877.8</ele><time>2026-04-09T10:30:48.001Z</time></trkpt><trkpt lat="45.84948404876007" lon="9.520137666784363"><ele>877.5999999999999</ele><time>2026-04-09T10:30:49.001Z</time></trkpt><trkpt lat="45.849560229775975" lon="9.52008353472766"><ele>877.4000000000001</ele><time>2026-04-09T10:30:50.001Z</time></trkpt><trkpt lat="45.84958937791548" lon="9.519923356763789"><ele>877.2</ele><time>2026-04-09T10:30:52.001Z</time></trkpt><trkpt lat="45.84950813137949" lon="9.519789634675464"><ele>877.0</ele><time>2026-04-09T10:30:54.002Z</time></trkpt><trkpt lat="45.84942105889078" lon="9.519784725969297"><ele>877.0</ele><time>2026-04-09T10:30:55.002Z</time></trkpt><trkpt lat="45.84932921128103" lon="9.519818885507625"><ele>877.0</ele><time>2026-04-09T10:30:56.002Z</time></trkpt><trkpt lat="45.849211038536225" lon="9.519857908130454"><ele>877.0</ele><time>2026-04-09T10:30:57.002Z</time></trkpt><trkpt lat="45.84907720171921" lon="9.519927404019478"><ele>877.0</ele><time>2026-04-09T10:30:58.002Z</time></trkpt><trkpt lat="45.84896845757909" lon="9.520032049909517"><ele>877.25</ele><time>2026-04-09T10:30:59.002Z</time></trkpt><trkpt lat="45.84886478017543" lon="9.520157981666065"><ele>877.5</ele><time>2026-04-09T10:31:00.002Z</time></trkpt><trkpt lat="45.84875620584416" lon="9.520299499060249"><ele>877.75</ele><time>2026-04-09T10:31:01.002Z</time></trkpt><trkpt lat="45.848641274675245" lon="9.520435106792812"><ele>878.0</ele><time>2026-04-09T10:31:02.002Z</time></trkpt><trkpt lat="45.84852727675447" lon="9.520542026110256"><ele>871.0</ele><time>2026-04-09T10:31:03.002Z</time></trkpt><trkpt lat="45.84839581724683" lon="9.520630235621315"><ele>864.0</ele><time>2026-04-09T10:31:04.002Z</time></trkpt><trkpt lat="45.848272225038215" lon="9.5207074747954"><ele>857.0</ele><time>2026-04-09T10:31:05.002Z</time></trkpt><trkpt lat="45.84815170961823" lon="9.520783471842893"><ele>850.0</ele><time>2026-04-09T10:31:06.002Z</time></trkpt><trkpt lat="45.84802835552499" lon="9.520883844772671"><ele>850.0</ele><time>2026-04-09T10:31:07.002Z</time></trkpt><trkpt lat="45.84790260948733" lon="9.520960737385579"><ele>850.0</ele><time>2026-04-09T10:31:08.002Z</time></trkpt><trkpt lat="45.84777189493772" lon="9.521083111874287"><ele>850.0</ele><time>2026-04-09T10:31:09.002Z</time></trkpt><trkpt lat="45.847654604912904" lon="9.521205870385185"><ele>850.0</ele><time>2026-04-09T10:31:10.002Z</time></trkpt><trkpt lat="45.84754312980621" lon="9.521329931068363"><ele>849.25</ele><time>2026-04-09T10:31:11.002Z</time></trkpt><trkpt lat="45.847431408126404" lon="9.521457525201415"><ele>848.5</ele><time>2026-04-09T10:31:12.002Z</time></trkpt><trkpt lat="45.84735471214313" lon="9.52154813945452"><ele>847.75</ele><time>2026-04-09T10:31:13.002Z</time></trkpt><trkpt lat="45.8472367013874" lon="9.521692975001484"><ele>847.0</ele><time>2026-04-09T10:31:14.002Z</time></trkpt><trkpt lat="45.84713570768406" lon="9.521820628430218"><ele>847.0</ele><time>2026-04-09T10:31:15.002Z</time></trkpt><trkpt lat="45.84703626280793" lon="9.521950956565261"><ele>847.0</ele><time>2026-04-09T10:31:16.002Z</time></trkpt><trkpt lat="45.84693710653756" lon="9.522065401856993"><ele>847.0</ele><time>2026-04-09T10:31:17.002Z</time></trkpt><trkpt lat="45.846837377131486" lon="9.522209644159858"><ele>847.0</ele><time>2026-04-09T10:31:18.002Z</time></trkpt><trkpt lat="45.846735447046875" lon="9.522396618764274"><ele>847.3333333333333</ele><time>2026-04-09T10:31:19.002Z</time></trkpt><trkpt lat="45.84665072528646" lon="9.52259851813323"><ele>847.6666666666667</ele><time>2026-04-09T10:31:20.002Z</time></trkpt><trkpt lat="45.8465604067823" lon="9.522797261363511"><ele>848.0</ele><time>2026-04-09T10:31:21.002Z</time></trkpt><trkpt lat="45.846472038064995" lon="9.522981432957895"><ele>848.0</ele><time>2026-04-09T10:31:22.002Z</time></trkpt><trkpt lat="45.84638037567429" lon="9.523159854433452"><ele>848.0</ele><time>2026-04-09T10:31:23.002Z</time></trkpt><trkpt lat="45.84629222865455" lon="9.523328710680321"><ele>848.0</ele><time>2026-04-09T10:31:24.002Z</time></trkpt><trkpt lat="45.84619450269431" lon="9.523480873968033"><ele>848.0</ele><time>2026-04-09T10:31:25.002Z</time></trkpt><trkpt lat="45.846072357668525" lon="9.523585698035166"><ele>838.25</ele><time>2026-04-09T10:31:26.002Z</time></trkpt><trkpt lat="45.84596014192477" lon="9.523710228675046"><ele>828.5</ele><time>2026-04-09T10:31:27.002Z</time></trkpt><trkpt lat="45.84584600589909" lon="9.52379796959434"><ele>818.75</ele><time>2026-04-09T10:31:28.002Z</time></trkpt><trkpt lat="45.84576432761887" lon="9.523889326708723"><ele>809.0</ele><time>2026-04-09T10:31:28.998Z</time></trkpt><trkpt lat="45.84571904344023" lon="9.523998539496867"><ele>809.0</ele><time>2026-04-09T10:31:29.998Z</time></trkpt><trkpt lat="45.845689853685265" lon="9.524124310642463"><ele>809.0</ele><time>2026-04-09T10:31:30.998Z</time></trkpt><trkpt lat="45.845679463813184" lon="9.524265423408794"><ele>809.0</ele><time>2026-04-09T10:31:31.998Z</time></trkpt><trkpt lat="45.84568020617886" lon="9.52440287521196"><ele>809.0</ele><time>2026-04-09T10:31:32.998Z</time></trkpt><trkpt lat="45.84568672936678" lon="9.524536917379004"><ele>809.0</ele><time>2026-04-09T10:31:33.998Z</time></trkpt><trkpt lat="45.84568634425621" lon="9.52467976937801"><ele>813.25</ele><time>2026-04-09T10:31:34.998Z</time></trkpt><trkpt lat="45.84564647213553" lon="9.524794912928504"><ele>817.5</ele><time>2026-04-09T10:31:35.998Z</time></trkpt><trkpt lat="45.84558549043467" lon="9.524922587986481"><ele>821.75</ele><time>2026-04-09T10:31:36.998Z</time></trkpt><trkpt lat="45.84549136910947" lon="9.525047320738103"><ele>826.0</ele><time>2026-04-09T10:31:37.998Z</time></trkpt><trkpt lat="45.84539830216834" lon="9.5251674085282"><ele>826.0</ele><time>2026-04-09T10:31:38.998Z</time></trkpt><trkpt lat="45.84531804857752" lon="9.525307424609595"><ele>826.0</ele><time>2026-04-09T10:31:39.998Z</time></trkpt><trkpt lat="45.8452204282367" lon="9.525408212642109"><ele>826.0</ele><time>2026-04-09T10:31:40.998Z</time></trkpt><trkpt lat="45.84514187370195" lon="9.52552558928933"><ele>826.0</ele><time>2026-04-09T10:31:41.998Z</time></trkpt><trkpt lat="45.84506158936077" lon="9.525612360852483"><ele>830.1999999999999</ele><time>2026-04-09T10:31:42.999Z</time></trkpt><trkpt lat="45.84502252242761" lon="9.525800782099765"><ele>834.4</ele><time>2026-04-09T10:31:44.999Z</time></trkpt><trkpt lat="45.84504700249023" lon="9.525912585293248"><ele>838.6</ele><time>2026-04-09T10:31:45.999Z</time></trkpt><trkpt lat="45.84509474395796" lon="9.52605086924652"><ele>842.8</ele><time>2026-04-09T10:31:46.999Z</time></trkpt><trkpt lat="45.84510453294814" lon="9.526221221995236"><ele>847.0</ele><time>2026-04-09T10:31:47.999Z</time></trkpt><trkpt lat="45.845137409568935" lon="9.526408230637884"><ele>847.0</ele><time>2026-04-09T10:31:48.999Z</time></trkpt><trkpt lat="45.845129699050844" lon="9.526617245952897"><ele>847.0</ele><time>2026-04-09T10:31:49.999Z</time></trkpt><trkpt lat="45.84514482370926" lon="9.526827191354206"><ele>847.0</ele><time>2026-04-09T10:31:50.999Z</time></trkpt><trkpt lat="45.84514565727761" lon="9.527006854483156"><ele>847.0</ele><time>2026-04-09T10:31:51.999Z</time></trkpt><trkpt lat="45.845154245195474" lon="9.527174555933243"><ele>846.0</ele><time>2026-04-09T10:31:52.999Z</time></trkpt><trkpt lat="45.84516576888438" lon="9.527314667653089"><ele>845.0</ele><time>2026-04-09T10:31:53.999Z</time></trkpt><trkpt lat="45.84517935649671" lon="9.5274726214576"><ele>844.0</ele><time>2026-04-09T10:31:54.999Z</time></trkpt><trkpt lat="45.84520228355452" lon="9.527599921276199"><ele>843.0</ele><time>2026-04-09T10:31:55.999Z</time></trkpt><trkpt lat="45.84525961216871" lon="9.52772203693898"><ele>842.0</ele><time>2026-04-09T10:31:56.999Z</time></trkpt><trkpt lat="45.84536450353683" lon="9.527873164106042"><ele>837.75</ele><time>2026-04-09T10:31:57.999Z</time></trkpt><trkpt lat="45.8453953940433" lon="9.528030128561296"><ele>833.5</ele><time>2026-04-09T10:31:58.999Z</time></trkpt><trkpt lat="45.84542304305033" lon="9.528181475691293"><ele>829.25</ele><time>2026-04-09T10:31:59.999Z</time></trkpt><trkpt lat="45.845432106181526" lon="9.52833881139059"><ele>825.0</ele><time>2026-04-09T10:32:00.999Z</time></trkpt><trkpt lat="45.845458644474775" lon="9.528518331068017"><ele>825.0</ele><time>2026-04-09T10:32:02Z</time></trkpt><trkpt lat="45.84546215887218" lon="9.528700619422061"><ele>825.0</ele><time>2026-04-09T10:32:03Z</time></trkpt><trkpt lat="45.84549874199374" lon="9.528862837908813"><ele>825.0</ele><time>2026-04-09T10:32:04Z</time></trkpt><trkpt lat="45.845553406258134" lon="9.529027894163898"><ele>825.0</ele><time>2026-04-09T10:32:05Z</time></trkpt><trkpt lat="45.84561465384212" lon="9.529147193803837"><ele>820.5</ele><time>2026-04-09T10:32:06Z</time></trkpt><trkpt lat="45.84567815014777" lon="9.529259061742838"><ele>816.0</ele><time>2026-04-09T10:32:07Z</time></trkpt><trkpt lat="45.845745568202915" lon="9.529332815219636"><ele>811.5</ele><time>2026-04-09T10:32:08Z</time></trkpt><trkpt lat="45.8457872098773" lon="9.529414929319122"><ele>807.0</ele><time>2026-04-09T10:32:10Z</time></trkpt><trkpt lat="45.84568161329824" lon="9.529387721602417"><ele>802.5</ele><time>2026-04-09T10:32:13Z</time></trkpt><trkpt lat="45.84562780015586" lon="9.529306560637426"><ele>798.0</ele><time>2026-04-09T10:32:14Z</time></trkpt><trkpt lat="45.84556343881104" lon="9.529197590211162"><ele>798.0</ele><time>2026-04-09T10:32:15Z</time></trkpt><trkpt lat="45.84549880830988" lon="9.529097262801724"><ele>798.0</ele><time>2026-04-09T10:32:16Z</time></trkpt><trkpt lat="45.84543580597366" lon="9.528995305637558"><ele>798.0</ele><time>2026-04-09T10:32:17Z</time></trkpt><trkpt lat="45.84537508134236" lon="9.528862645076266"><ele>798.0</ele><time>2026-04-09T10:32:18Z</time></trkpt><trkpt lat="45.84532951235212" lon="9.528712118580719"><ele>798.0</ele><time>2026-04-09T10:32:19Z</time></trkpt><trkpt lat="45.84530523115677" lon="9.528540377269273"><ele>803.4</ele><time>2026-04-09T10:32:20Z</time></trkpt><trkpt lat="45.84528978809129" lon="9.528373310409451"><ele>808.8</ele><time>2026-04-09T10:32:21Z</time></trkpt><trkpt lat="45.84524947739538" lon="9.528230973383035"><ele>814.2</ele><time>2026-04-09T10:32:22Z</time></trkpt><trkpt lat="45.84517831880054" lon="9.528117007493146"><ele>819.6</ele><time>2026-04-09T10:32:23Z</time></trkpt><trkpt lat="45.84508581695879" lon="9.528018511553903"><ele>825.0</ele><time>2026-04-09T10:32:24Z</time></trkpt><trkpt lat="45.844992021977966" lon="9.527926859646769"><ele>815.8</ele><time>2026-04-09T10:32:25Z</time></trkpt><trkpt lat="45.84490990958291" lon="9.52782439101016"><ele>806.6</ele><time>2026-04-09T10:32:26Z</time></trkpt><trkpt lat="45.844843485870626" lon="9.527713731760361"><ele>797.4000000000001</ele><time>2026-04-09T10:32:27Z</time></trkpt><trkpt lat="45.844804169058634" lon="9.527587971280152"><ele>788.2</ele><time>2026-04-09T10:32:28Z</time></trkpt><trkpt lat="45.844820524449666" lon="9.527457611469822"><ele>779.0</ele><time>2026-04-09T10:32:29Z</time></trkpt><trkpt lat="45.84482049331161" lon="9.527326865476098"><ele>779.0</ele><time>2026-04-09T10:32:30Z</time></trkpt><trkpt lat="45.84480359883096" lon="9.527194625804643"><ele>779.0</ele><time>2026-04-09T10:32:31Z</time></trkpt><trkpt lat="45.84479770110278" lon="9.527041629363259"><ele>779.0</ele><time>2026-04-09T10:32:32Z</time></trkpt><trkpt lat="45.84478991074901" lon="9.5268953497914"><ele>779.0</ele><time>2026-04-09T10:32:33Z</time></trkpt><trkpt lat="45.84476645932575" lon="9.52672528272568"><ele>779.0</ele><time>2026-04-09T10:32:34Z</time></trkpt><trkpt lat="45.84473863618997" lon="9.526568174612706"><ele>780.6</ele><time>2026-04-09T10:32:35.001Z</time></trkpt><trkpt lat="45.84470841022073" lon="9.526421288390704"><ele>782.2</ele><time>2026-04-09T10:32:36.001Z</time></trkpt><trkpt lat="45.84467391246237" lon="9.526281331911088"><ele>783.8000000000001</ele><time>2026-04-09T10:32:37.001Z</time></trkpt><trkpt lat="45.844621192257755" lon="9.52615360787895"><ele>785.4000000000001</ele><time>2026-04-09T10:32:38.001Z</time></trkpt><trkpt lat="45.844540697475786" lon="9.526008701761544"><ele>787.0</ele><time>2026-04-09T10:32:39.001Z</time></trkpt><trkpt lat="45.84445569364671" lon="9.525875632416144"><ele>787.4000000000001</ele><time>2026-04-09T10:32:40.001Z</time></trkpt><trkpt lat="45.844368369407846" lon="9.525767129333943"><ele>787.8000000000001</ele><time>2026-04-09T10:32:41.001Z</time></trkpt><trkpt lat="45.84430649333104" lon="9.525668805584765"><ele>788.2</ele><time>2026-04-09T10:32:42.001Z</time></trkpt><trkpt lat="45.84428546077548" lon="9.525532207878403"><ele>788.6</ele><time>2026-04-09T10:32:44.001Z</time></trkpt><trkpt lat="45.84431167774719" lon="9.525437458180459"><ele>789.0</ele><time>2026-04-09T10:32:45.001Z</time></trkpt><trkpt lat="45.844337912779416" lon="9.525296597217642"><ele>786.25</ele><time>2026-04-09T10:32:46.001Z</time></trkpt><trkpt lat="45.84442275366185" lon="9.525162744734294"><ele>783.5</ele><time>2026-04-09T10:32:47.001Z</time></trkpt><trkpt lat="45.84451323804656" lon="9.525001582355271"><ele>780.75</ele><time>2026-04-09T10:32:48.001Z</time></trkpt><trkpt lat="45.844606505331264" lon="9.524845531883884"><ele>778.0</ele><time>2026-04-09T10:32:49.001Z</time></trkpt><trkpt lat="45.844692636205664" lon="9.524701912320385"><ele>775.3333333333333</ele><time>2026-04-09T10:32:50.001Z</time></trkpt><trkpt lat="45.84475661177512" lon="9.524561468352642"><ele>772.6666666666666</ele><time>2026-04-09T10:32:51.001Z</time></trkpt><trkpt lat="45.84481384488967" lon="9.524451757765666"><ele>770.0</ele><time>2026-04-09T10:32:52.001Z</time></trkpt><trkpt lat="45.844854416997364" lon="9.5243556113291"><ele>767.3333333333333</ele><time>2026-04-09T10:32:53.001Z</time></trkpt><trkpt lat="45.84485543297238" lon="9.524248128890664"><ele>764.6666666666666</ele><time>2026-04-09T10:32:54.001Z</time></trkpt><trkpt lat="45.84483781616978" lon="9.52413365796702"><ele>762.0</ele><time>2026-04-09T10:32:55.001Z</time></trkpt><trkpt lat="45.84479848283703" lon="9.523969336598954"><ele>762.0</ele><time>2026-04-09T10:32:56.001Z</time></trkpt><trkpt lat="45.84476206118551" lon="9.52381709651047"><ele>762.0</ele><time>2026-04-09T10:32:57.001Z</time></trkpt><trkpt lat="45.84473476131334" lon="9.52366468975877"><ele>762.0</ele><time>2026-04-09T10:32:58.001Z</time></trkpt><trkpt lat="45.844729842504215" lon="9.5235298974349"><ele>762.0</ele><time>2026-04-09T10:32:59.001Z</time></trkpt><trkpt lat="45.84475657543151" lon="9.523412241247481"><ele>762.0</ele><time>2026-04-09T10:33:00.001Z</time></trkpt><trkpt lat="45.84479978520285" lon="9.523288262330668"><ele>763.25</ele><time>2026-04-09T10:33:01.001Z</time></trkpt><trkpt lat="45.844855599316524" lon="9.523122803684753"><ele>764.5</ele><time>2026-04-09T10:33:02.001Z</time></trkpt><trkpt lat="45.84494798800291" lon="9.522958270677924"><ele>765.75</ele><time>2026-04-09T10:33:03.001Z</time></trkpt><trkpt lat="45.84503980788309" lon="9.522777879473425"><ele>767.0</ele><time>2026-04-09T10:33:04.001Z</time></trkpt><trkpt lat="45.845137200275495" lon="9.522614953103618"><ele>767.0</ele><time>2026-04-09T10:33:05.001Z</time></trkpt><trkpt lat="45.84520033282259" lon="9.52247615970948"><ele>767.0</ele><time>2026-04-09T10:33:06.001Z</time></trkpt><trkpt lat="45.84527465506252" lon="9.522387552740227"><ele>767.0</ele><time>2026-04-09T10:33:07.001Z</time></trkpt><trkpt lat="45.845342823968174" lon="9.52233585231882"><ele>767.0</ele><time>2026-04-09T10:33:08.001Z</time></trkpt><trkpt lat="45.84535839062736" lon="9.522208242930489"><ele>767.0</ele><time>2026-04-09T10:33:10.001Z</time></trkpt><trkpt lat="45.84525200995241" lon="9.522109412289575"><ele>767.0</ele><time>2026-04-09T10:33:12.001Z</time></trkpt><trkpt lat="45.84516173156857" lon="9.522197388235384"><ele>767.0</ele><time>2026-04-09T10:33:13.001Z</time></trkpt><trkpt lat="45.84511907240004" lon="9.522358773404024"><ele>767.0</ele><time>2026-04-09T10:33:14.002Z</time></trkpt><trkpt lat="45.845047875315586" lon="9.522509479526093"><ele>767.0</ele><time>2026-04-09T10:33:15.002Z</time></trkpt><trkpt lat="45.844943832832314" lon="9.522635961721312"><ele>761.0</ele><time>2026-04-09T10:33:16.002Z</time></trkpt><trkpt lat="45.84483778556785" lon="9.522782652778336"><ele>755.0</ele><time>2026-04-09T10:33:17.002Z</time></trkpt><trkpt lat="45.844743658581045" lon="9.522933927569888"><ele>749.0</ele><time>2026-04-09T10:33:18.002Z</time></trkpt><trkpt lat="45.84463650032715" lon="9.52304402758164"><ele>743.0</ele><time>2026-04-09T10:33:19.002Z</time></trkpt><trkpt lat="45.84454159529216" lon="9.523157359761218"><ele>743.0</ele><time>2026-04-09T10:33:20.002Z</time></trkpt><trkpt lat="45.84445522394194" lon="9.523262632616316"><ele>743.0</ele><time>2026-04-09T10:33:21.002Z</time></trkpt><trkpt lat="45.84440421692545" lon="9.523358503326271"><ele>743.0</ele><time>2026-04-09T10:33:22.002Z</time></trkpt><trkpt lat="45.84438726663109" lon="9.523461558462861"><ele>743.0</ele><time>2026-04-09T10:33:23.002Z</time></trkpt><trkpt lat="45.8443842355994" lon="9.523584395861372"><ele>743.0</ele><time>2026-04-09T10:33:24.002Z</time></trkpt><trkpt lat="45.84438178720007" lon="9.523754694991696"><ele>746.8</ele><time>2026-04-09T10:33:25.002Z</time></trkpt><trkpt lat="45.84439233939543" lon="9.523904165002113"><ele>750.5999999999999</ele><time>2026-04-09T10:33:26.002Z</time></trkpt><trkpt lat="45.84441528837142" lon="9.524049882508102"><ele>754.4000000000001</ele><time>2026-04-09T10:33:27.002Z</time></trkpt><trkpt lat="45.844420708152725" lon="9.524165035467103"><ele>758.2</ele><time>2026-04-09T10:33:28.002Z</time></trkpt><trkpt lat="45.84430869479472" lon="9.524323278012755"><ele>762.0</ele><time>2026-04-09T10:33:30.002Z</time></trkpt><trkpt lat="45.84422174331633" lon="9.524388125026153"><ele>755.25</ele><time>2026-04-09T10:33:31.002Z</time></trkpt><trkpt lat="45.844105708556064" lon="9.524484626895172"><ele>748.5</ele><time>2026-04-09T10:33:32.002Z</time></trkpt><trkpt lat="45.843987234626965" lon="9.524592853511663"><ele>741.75</ele><time>2026-04-09T10:33:33.002Z</time></trkpt><trkpt lat="45.84388913227012" lon="9.524701782264184"><ele>735.0</ele><time>2026-04-09T10:33:34.002Z</time></trkpt><trkpt lat="45.84380797071459" lon="9.52482098805909"><ele>735.0</ele><time>2026-04-09T10:33:34.998Z</time></trkpt><trkpt lat="45.843709485284684" lon="9.524923723857412"><ele>735.0</ele><time>2026-04-09T10:33:35.998Z</time></trkpt><trkpt lat="45.84362014825853" lon="9.525048591982257"><ele>735.0</ele><time>2026-04-09T10:33:36.998Z</time></trkpt><trkpt lat="45.84355442058726" lon="9.525162114706989"><ele>735.0</ele><time>2026-04-09T10:33:37.998Z</time></trkpt><trkpt lat="45.843530060360195" lon="9.525258333624475"><ele>735.0</ele><time>2026-04-09T10:33:38.998Z</time></trkpt><trkpt lat="45.843537489981635" lon="9.525369779306516"><ele>734.2</ele><time>2026-04-09T10:33:39.998Z</time></trkpt><trkpt lat="45.843567850967744" lon="9.52548148493176"><ele>733.4</ele><time>2026-04-09T10:33:40.998Z</time></trkpt><trkpt lat="45.84361511773163" lon="9.52558691669371"><ele>732.5999999999999</ele><time>2026-04-09T10:33:41.998Z</time></trkpt><trkpt lat="45.84367290260246" lon="9.525705542519226"><ele>731.8</ele><time>2026-04-09T10:33:42.998Z</time></trkpt><trkpt lat="45.843740448290625" lon="9.525855934778614"><ele>731.0</ele><time>2026-04-09T10:33:43.998Z</time></trkpt><trkpt lat="45.84377882648632" lon="9.525999214718249"><ele>731.0</ele><time>2026-04-09T10:33:44.998Z</time></trkpt><trkpt lat="45.84381592909298" lon="9.52614089746405"><ele>731.0</ele><time>2026-04-09T10:33:45.998Z</time></trkpt><trkpt lat="45.84389625474249" lon="9.52628800317864"><ele>731.0</ele><time>2026-04-09T10:33:46.998Z</time></trkpt><trkpt lat="45.843973719348185" lon="9.52641209590182"><ele>731.0</ele><time>2026-04-09T10:33:47.999Z</time></trkpt><trkpt lat="45.84402843871408" lon="9.52653508616725"><ele>727.5999999999999</ele><time>2026-04-09T10:33:48.999Z</time></trkpt><trkpt lat="45.84406057650171" lon="9.526626663349337"><ele>724.2</ele><time>2026-04-09T10:33:49.999Z</time></trkpt><trkpt lat="45.84400326591443" lon="9.526813557102185"><ele>720.8</ele><time>2026-04-09T10:33:51.999Z</time></trkpt><trkpt lat="45.84399249681505" lon="9.52692704285571"><ele>717.4000000000001</ele><time>2026-04-09T10:33:52.999Z</time></trkpt><trkpt lat="45.84398471321467" lon="9.527036640525617"><ele>714.0</ele><time>2026-04-09T10:33:53.999Z</time></trkpt><trkpt lat="45.84402343621227" lon="9.527153235090612"><ele>711.8000000000001</ele><time>2026-04-09T10:33:54.999Z</time></trkpt><trkpt lat="45.84407289458424" lon="9.527267064396263"><ele>709.6</ele><time>2026-04-09T10:33:55.999Z</time></trkpt><trkpt lat="45.844094570006256" lon="9.5273691816498"><ele>707.4</ele><time>2026-04-09T10:33:56.999Z</time></trkpt><trkpt lat="45.84405114147652" lon="9.527480774380388"><ele>705.2</ele><time>2026-04-09T10:33:57.999Z</time></trkpt><trkpt lat="45.84397185304624" lon="9.527570602417704"><ele>703.0</ele><time>2026-04-09T10:33:58.999Z</time></trkpt><trkpt lat="45.84391954417855" lon="9.527693848119997"><ele>703.0</ele><time>2026-04-09T10:33:59.999Z</time></trkpt><trkpt lat="45.84389450087334" lon="9.527831704149769"><ele>703.0</ele><time>2026-04-09T10:34:00.999Z</time></trkpt><trkpt lat="45.843876597066995" lon="9.527971052878412"><ele>703.0</ele><time>2026-04-09T10:34:01.999Z</time></trkpt><trkpt lat="45.84390757734049" lon="9.528144431746673"><ele>703.0</ele><time>2026-04-09T10:34:02.999Z</time></trkpt><trkpt lat="45.843945152171884" lon="9.528334171905183"><ele>702.0</ele><time>2026-04-09T10:34:03.999Z</time></trkpt><trkpt lat="45.8439904505988" lon="9.528539174513979"><ele>701.0</ele><time>2026-04-09T10:34:05Z</time></trkpt><trkpt lat="45.844036160088976" lon="9.528727764953224"><ele>700.0</ele><time>2026-04-09T10:34:06Z</time></trkpt><trkpt lat="45.84407550449425" lon="9.52890700335222"><ele>699.0</ele><time>2026-04-09T10:34:07Z</time></trkpt><trkpt lat="45.84407674514001" lon="9.529094353583979"><ele>696.25</ele><time>2026-04-09T10:34:08Z</time></trkpt><trkpt lat="45.84409715289735" lon="9.529290683023106"><ele>693.5</ele><time>2026-04-09T10:34:09Z</time></trkpt><trkpt lat="45.84410310024031" lon="9.529481820297349"><ele>690.75</ele><time>2026-04-09T10:34:10Z</time></trkpt><trkpt lat="45.84412219952716" lon="9.529649372510768"><ele>688.0</ele><time>2026-04-09T10:34:11Z</time></trkpt><trkpt lat="45.84415040098945" lon="9.529780578238665"><ele>683.25</ele><time>2026-04-09T10:34:12Z</time></trkpt><trkpt lat="45.844200795681395" lon="9.529902601741956"><ele>678.5</ele><time>2026-04-09T10:34:13Z</time></trkpt><trkpt lat="45.84428671001085" lon="9.530014941953054"><ele>673.75</ele><time>2026-04-09T10:34:14Z</time></trkpt><trkpt lat="45.84440162685512" lon="9.530126840029531"><ele>669.0</ele><time>2026-04-09T10:34:15Z</time></trkpt><trkpt lat="45.844535225195656" lon="9.530237275979989"><ele>672.0</ele><time>2026-04-09T10:34:16Z</time></trkpt><trkpt lat="45.84466562982562" lon="9.530343971497393"><ele>675.0</ele><time>2026-04-09T10:34:17Z</time></trkpt><trkpt lat="45.84477996177409" lon="9.530450431033344"><ele>678.0</ele><time>2026-04-09T10:34:18Z</time></trkpt><trkpt lat="45.84487602243692" lon="9.530544406914233"><ele>681.0</ele><time>2026-04-09T10:34:19Z</time></trkpt><trkpt lat="45.84495669811572" lon="9.530639324089881"><ele>681.0</ele><time>2026-04-09T10:34:20Z</time></trkpt><trkpt lat="45.84499987653598" lon="9.530778040679383"><ele>681.0</ele><time>2026-04-09T10:34:21Z</time></trkpt><trkpt lat="45.84502387360084" lon="9.530917269698561"><ele>681.0</ele><time>2026-04-09T10:34:22Z</time></trkpt><trkpt lat="45.84499238807482" lon="9.531097302306835"><ele>681.0</ele><time>2026-04-09T10:34:24Z</time></trkpt><trkpt lat="45.84493072614898" lon="9.531164301441935"><ele>681.0</ele><time>2026-04-09T10:34:25Z</time></trkpt><trkpt lat="45.8448438477814" lon="9.531138551498968"><ele>681.0</ele><time>2026-04-09T10:34:26Z</time></trkpt><trkpt lat="45.844758178797726" lon="9.53113957779737"><ele>681.0</ele><time>2026-04-09T10:34:27Z</time></trkpt><trkpt lat="45.84464070243953" lon="9.531098055001241"><ele>681.0</ele><time>2026-04-09T10:34:28Z</time></trkpt><trkpt lat="45.84449747270174" lon="9.531079681086794"><ele>681.0</ele><time>2026-04-09T10:34:29Z</time></trkpt><trkpt lat="45.84434551668904" lon="9.531066983805912"><ele>674.6666666666666</ele><time>2026-04-09T10:34:30Z</time></trkpt><trkpt lat="45.84418306847391" lon="9.531042990368706"><ele>668.3333333333333</ele><time>2026-04-09T10:34:31Z</time></trkpt><trkpt lat="45.84400690682418" lon="9.531015310477269"><ele>662.0</ele><time>2026-04-09T10:34:32.001Z</time></trkpt><trkpt lat="45.8438383614212" lon="9.530991317540044"><ele>662.0</ele><time>2026-04-09T10:34:33.001Z</time></trkpt><trkpt lat="45.84368173180054" lon="9.530959907701419"><ele>662.0</ele><time>2026-04-09T10:34:34.001Z</time></trkpt><trkpt lat="45.84353013562967" lon="9.530929483725881"><ele>662.0</ele><time>2026-04-09T10:34:35.001Z</time></trkpt><trkpt lat="45.84339246820643" lon="9.530902965007929"><ele>664.25</ele><time>2026-04-09T10:34:36.001Z</time></trkpt><trkpt lat="45.84328970850941" lon="9.530853823850887"><ele>666.5</ele><time>2026-04-09T10:34:37.001Z</time></trkpt><trkpt lat="45.84320033448686" lon="9.530788371845667"><ele>668.75</ele><time>2026-04-09T10:34:38.001Z</time></trkpt><trkpt lat="45.84310756470674" lon="9.530689431308769"><ele>671.0</ele><time>2026-04-09T10:34:39.001Z</time></trkpt><trkpt lat="45.84299536624504" lon="9.53056676003247"><ele>671.0</ele><time>2026-04-09T10:34:40.001Z</time></trkpt><trkpt lat="45.84287721307371" lon="9.530439347979065"><ele>671.0</ele><time>2026-04-09T10:34:41.001Z</time></trkpt><trkpt lat="45.842756857830715" lon="9.53032537730639"><ele>671.0</ele><time>2026-04-09T10:34:42.001Z</time></trkpt><trkpt lat="45.84263690044423" lon="9.53019514743136"><ele>671.0</ele><time>2026-04-09T10:34:43.001Z</time></trkpt><trkpt lat="45.842510993297935" lon="9.53007599082217"><ele>667.5999999999999</ele><time>2026-04-09T10:34:44.001Z</time></trkpt><trkpt lat="45.84241088014822" lon="9.5299460557339"><ele>664.2</ele><time>2026-04-09T10:34:45.001Z</time></trkpt><trkpt lat="45.84231686823412" lon="9.529879894972968"><ele>660.8</ele><time>2026-04-09T10:34:46.001Z</time></trkpt><trkpt lat="45.8422331960504" lon="9.529845436396956"><ele>657.4000000000001</ele><time>2026-04-09T10:34:47.001Z</time></trkpt><trkpt lat="45.842155346238336" lon="9.529846257070101"><ele>654.0</ele><time>2026-04-09T10:34:48.001Z</time></trkpt><trkpt lat="45.84208988533822" lon="9.529902788563655"><ele>654.0</ele><time>2026-04-09T10:34:49.001Z</time></trkpt><trkpt lat="45.84199867434409" lon="9.529965183219486"><ele>654.0</ele><time>2026-04-09T10:34:50.001Z</time></trkpt><trkpt lat="45.84188787684892" lon="9.530047845948808"><ele>654.0</ele><time>2026-04-09T10:34:51.001Z</time></trkpt><trkpt lat="45.84177554124516" lon="9.530132515436199"><ele>654.0</ele><time>2026-04-09T10:34:52.001Z</time></trkpt><trkpt lat="45.841669952183075" lon="9.530211368567521"><ele>654.6666666666666</ele><time>2026-04-09T10:34:53.001Z</time></trkpt><trkpt lat="45.841581134415186" lon="9.530269334389699"><ele>655.3333333333334</ele><time>2026-04-09T10:34:54.001Z</time></trkpt><trkpt lat="45.84150416515378" lon="9.530307065044653"><ele>656.0</ele><time>2026-04-09T10:34:55.001Z</time></trkpt><trkpt lat="45.84143404831518" lon="9.530316022610375"><ele>656.6666666666667</ele><time>2026-04-09T10:34:56.001Z</time></trkpt><trkpt lat="45.841394103471345" lon="9.530244399739468"><ele>657.3333333333334</ele><time>2026-04-09T10:34:57.001Z</time></trkpt><trkpt lat="45.841358420998034" lon="9.530064781244418"><ele>658.0</ele><time>2026-04-09T10:34:59.001Z</time></trkpt><trkpt lat="45.84133478644857" lon="9.529911264042791"><ele>658.0</ele><time>2026-04-09T10:35:00.001Z</time></trkpt><trkpt lat="45.84130770295223" lon="9.529729919177225"><ele>658.0</ele><time>2026-04-09T10:35:01.001Z</time></trkpt><trkpt lat="45.84127780835719" lon="9.529540711571999"><ele>658.0</ele><time>2026-04-09T10:35:02.001Z</time></trkpt><trkpt lat="45.841252361498846" lon="9.52937590900165"><ele>658.0</ele><time>2026-04-09T10:35:03.001Z</time></trkpt><trkpt lat="45.84121883493533" lon="9.529213730990293"><ele>656.5</ele><time>2026-04-09T10:35:04.002Z</time></trkpt><trkpt lat="45.84114470792849" lon="9.529091774497322"><ele>655.0</ele><time>2026-04-09T10:35:05.002Z</time></trkpt><trkpt lat="45.8410732960618" lon="9.528978343913598"><ele>653.5</ele><time>2026-04-09T10:35:06.002Z</time></trkpt><trkpt lat="45.84097609278414" lon="9.528878632365231"><ele>652.0</ele><time>2026-04-09T10:35:07.002Z</time></trkpt><trkpt lat="45.840875887690544" lon="9.528765383503442"><ele>648.75</ele><time>2026-04-09T10:35:08.002Z</time></trkpt><trkpt lat="45.84076746640079" lon="9.528621258662842"><ele>645.5</ele><time>2026-04-09T10:35:09.002Z</time></trkpt><trkpt lat="45.840668614566255" lon="9.528504629705363"><ele>642.25</ele><time>2026-04-09T10:35:10.002Z</time></trkpt><trkpt lat="45.840566113394694" lon="9.528407603297856"><ele>639.0</ele><time>2026-04-09T10:35:11.002Z</time></trkpt><trkpt lat="45.84048556699421" lon="9.528296836971288"><ele>639.0</ele><time>2026-04-09T10:35:12.002Z</time></trkpt><trkpt lat="45.840393259421454" lon="9.528230490115895"><ele>639.0</ele><time>2026-04-09T10:35:13.002Z</time></trkpt><trkpt lat="45.84031545177868" lon="9.528198438511135"><ele>639.0</ele><time>2026-04-09T10:35:14.002Z</time></trkpt><trkpt lat="45.8402338055992" lon="9.528218886123621"><ele>639.0</ele><time>2026-04-09T10:35:15.002Z</time></trkpt><trkpt lat="45.840153015084844" lon="9.52827337853341"><ele>639.0</ele><time>2026-04-09T10:35:16.002Z</time></trkpt><trkpt lat="45.840070356166166" lon="9.528355646886306"><ele>638.0</ele><time>2026-04-09T10:35:17.002Z</time></trkpt><trkpt lat="45.83997073483107" lon="9.528461891184865"><ele>637.0</ele><time>2026-04-09T10:35:18.002Z</time></trkpt><trkpt lat="45.839845518480374" lon="9.528548136615976"><ele>636.0</ele><time>2026-04-09T10:35:19.002Z</time></trkpt><trkpt lat="45.83972241163924" lon="9.52863729510148"><ele>635.0</ele><time>2026-04-09T10:35:20.002Z</time></trkpt><trkpt lat="45.83958896769058" lon="9.528667879217354"><ele>635.0</ele><time>2026-04-09T10:35:21.002Z</time></trkpt><trkpt lat="45.8394355099002" lon="9.528719512885035"><ele>635.0</ele><time>2026-04-09T10:35:22.002Z</time></trkpt><trkpt lat="45.839294690857095" lon="9.528795949095116"><ele>635.0</ele><time>2026-04-09T10:35:23.002Z</time></trkpt><trkpt lat="45.83915304783243" lon="9.52881979200782"><ele>635.0</ele><time>2026-04-09T10:35:24.002Z</time></trkpt><trkpt lat="45.83902474787604" lon="9.528866555000425"><ele>635.0</ele><time>2026-04-09T10:35:25.002Z</time></trkpt><trkpt lat="45.83890120180323" lon="9.528928174836372"><ele>635.0</ele><time>2026-04-09T10:35:26.002Z</time></trkpt><trkpt lat="45.83879929504477" lon="9.529027947368892"><ele>635.0</ele><time>2026-04-09T10:35:27.002Z</time></trkpt><trkpt lat="45.83868765460133" lon="9.52911670664866"><ele>635.0</ele><time>2026-04-09T10:35:28.002Z</time></trkpt><trkpt lat="45.83858967146814" lon="9.529223914555367"><ele>635.0</ele><time>2026-04-09T10:35:29.002Z</time></trkpt><trkpt lat="45.83849033232834" lon="9.52930576518859"><ele>635.0</ele><time>2026-04-09T10:35:30.002Z</time></trkpt><trkpt lat="45.83842031275145" lon="9.529425426022994"><ele>635.0</ele><time>2026-04-09T10:35:31.002Z</time></trkpt><trkpt lat="45.83836206042567" lon="9.529536398503538"><ele>635.0</ele><time>2026-04-09T10:35:32.002Z</time></trkpt><trkpt lat="45.83833977242325" lon="9.529664260526562"><ele>630.6</ele><time>2026-04-09T10:35:33.002Z</time></trkpt><trkpt lat="45.83835091280936" lon="9.529800528000779"><ele>626.2</ele><time>2026-04-09T10:35:34.002Z</time></trkpt><trkpt lat="45.83839100150548" lon="9.529933869985003"><ele>621.8</ele><time>2026-04-09T10:35:35.002Z</time></trkpt><trkpt lat="45.83841827547974" lon="9.530077660462071"><ele>617.4</ele><time>2026-04-09T10:35:36.002Z</time></trkpt><trkpt lat="45.8383961924612" lon="9.530193185348779"><ele>613.0</ele><time>2026-04-09T10:35:37.002Z</time></trkpt><trkpt lat="45.83834256454837" lon="9.530310038100305"><ele>613.0</ele><time>2026-04-09T10:35:38.003Z</time></trkpt><trkpt lat="45.83825135706357" lon="9.530354798369467"><ele>613.0</ele><time>2026-04-09T10:35:39.003Z</time></trkpt><trkpt lat="45.838191857152296" lon="9.53043348663514"><ele>613.0</ele><time>2026-04-09T10:35:40.003Z</time></trkpt><trkpt lat="45.83810410549029" lon="9.530483317403275"><ele>613.0</ele><time>2026-04-09T10:35:40.999Z</time></trkpt><trkpt lat="45.83806310743237" lon="9.530641534301344"><ele>613.0</ele><time>2026-04-09T10:35:41.999Z</time></trkpt><trkpt lat="45.83801751549258" lon="9.530814903679442"><ele>617.25</ele><time>2026-04-09T10:35:42.999Z</time></trkpt><trkpt lat="45.83795670131361" lon="9.530988011246345"><ele>621.5</ele><time>2026-04-09T10:35:43.999Z</time></trkpt><trkpt lat="45.837887356544066" lon="9.531157139938873"><ele>625.75</ele><time>2026-04-09T10:35:44.999Z</time></trkpt><trkpt lat="45.83782746160418" lon="9.53133945281377"><ele>630.0</ele><time>2026-04-09T10:35:45.999Z</time></trkpt><trkpt lat="45.837784883169384" lon="9.531514151878852"><ele>633.75</ele><time>2026-04-09T10:35:46.999Z</time></trkpt><trkpt lat="45.837758517233375" lon="9.531702150337608"><ele>637.5</ele><time>2026-04-09T10:35:47.999Z</time></trkpt><trkpt lat="45.83772581172626" lon="9.531905261741779"><ele>641.25</ele><time>2026-04-09T10:35:48.999Z</time></trkpt><trkpt lat="45.83767912233356" lon="9.53209735081451"><ele>645.0</ele><time>2026-04-09T10:35:49.999Z</time></trkpt><trkpt lat="45.83763592609719" lon="9.532288067815866"><ele>633.75</ele><time>2026-04-09T10:35:50.999Z</time></trkpt><trkpt lat="45.837596112700076" lon="9.532457830086592"><ele>622.5</ele><time>2026-04-09T10:35:51.999Z</time></trkpt><trkpt lat="45.83756746355171" lon="9.532650562237801"><ele>611.25</ele><time>2026-04-09T10:35:52.999Z</time></trkpt><trkpt lat="45.837556146922765" lon="9.532852321893905"><ele>600.0</ele><time>2026-04-09T10:35:53.999Z</time></trkpt><trkpt lat="45.83755637619817" lon="9.533087736471009"><ele>599.6666666666666</ele><time>2026-04-09T10:35:54.999Z</time></trkpt><trkpt lat="45.83755711785415" lon="9.533328868818357"><ele>599.3333333333333</ele><time>2026-04-09T10:35:55.999Z</time></trkpt><trkpt lat="45.83755811008885" lon="9.533561770930076"><ele>599.0</ele><time>2026-04-09T10:35:56.999Z</time></trkpt><trkpt lat="45.8375511535832" lon="9.533784950302811"><ele>599.0</ele><time>2026-04-09T10:35:58Z</time></trkpt><trkpt lat="45.83754480923048" lon="9.534001607371042"><ele>599.0</ele><time>2026-04-09T10:35:59Z</time></trkpt><trkpt lat="45.83754131501282" lon="9.534210556749112"><ele>599.0</ele><time>2026-04-09T10:36:00Z</time></trkpt><trkpt lat="45.83754583975607" lon="9.534447572265874"><ele>598.0</ele><time>2026-04-09T10:36:01Z</time></trkpt><trkpt lat="45.8375556230356" lon="9.534686991921903"><ele>597.0</ele><time>2026-04-09T10:36:02Z</time></trkpt><trkpt lat="45.83757037565948" lon="9.534927302041195"><ele>596.0</ele><time>2026-04-09T10:36:03Z</time></trkpt><trkpt lat="45.83758419470079" lon="9.535138695643392"><ele>596.0</ele><time>2026-04-09T10:36:04Z</time></trkpt><trkpt lat="45.83757577844055" lon="9.535337530927606"><ele>596.0</ele><time>2026-04-09T10:36:05Z</time></trkpt><trkpt lat="45.83758225527872" lon="9.535499493792319"><ele>596.0</ele><time>2026-04-09T10:36:06Z</time></trkpt><trkpt lat="45.837596479074634" lon="9.535656993890695"><ele>596.0</ele><time>2026-04-09T10:36:07Z</time></trkpt><trkpt lat="45.83756970589289" lon="9.535792498048918"><ele>595.5</ele><time>2026-04-09T10:36:08Z</time></trkpt><trkpt lat="45.83754095376749" lon="9.535896091419009"><ele>595.0</ele><time>2026-04-09T10:36:09Z</time></trkpt><trkpt lat="45.837497003757555" lon="9.535992797470952"><ele>594.5</ele><time>2026-04-09T10:36:10Z</time></trkpt><trkpt lat="45.83741409112518" lon="9.536040129128892"><ele>594.0</ele><time>2026-04-09T10:36:11Z</time></trkpt><trkpt lat="45.83732711706032" lon="9.53607814395026"><ele>593.5</ele><time>2026-04-09T10:36:12Z</time></trkpt><trkpt lat="45.83723293594428" lon="9.536107793634484"><ele>593.0</ele><time>2026-04-09T10:36:13Z</time></trkpt><trkpt lat="45.83713841359018" lon="9.53609094098498"><ele>593.0</ele><time>2026-04-09T10:36:14Z</time></trkpt><trkpt lat="45.8370485691847" lon="9.536053064259969"><ele>593.0</ele><time>2026-04-09T10:36:15Z</time></trkpt><trkpt lat="45.83693914768638" lon="9.535999222968004"><ele>593.0</ele><time>2026-04-09T10:36:16Z</time></trkpt><trkpt lat="45.83681235026826" lon="9.535932264908045"><ele>593.0</ele><time>2026-04-09T10:36:17Z</time></trkpt><trkpt lat="45.8366823355268" lon="9.535865963746774"><ele>589.25</ele><time>2026-04-09T10:36:18Z</time></trkpt><trkpt lat="45.83655145358029" lon="9.535813083981465"><ele>585.5</ele><time>2026-04-09T10:36:19Z</time></trkpt><trkpt lat="45.83643282722535" lon="9.535750421659857"><ele>581.75</ele><time>2026-04-09T10:36:20Z</time></trkpt><trkpt lat="45.83631682900898" lon="9.535688100168738"><ele>578.0</ele><time>2026-04-09T10:36:21Z</time></trkpt><trkpt lat="45.83620339712526" lon="9.535617207626029"><ele>578.0</ele><time>2026-04-09T10:36:22.001Z</time></trkpt><trkpt lat="45.83607772851845" lon="9.535559062801262"><ele>578.0</ele><time>2026-04-09T10:36:23.001Z</time></trkpt><trkpt lat="45.83596278715596" lon="9.535497966176552"><ele>578.0</ele><time>2026-04-09T10:36:24.001Z</time></trkpt><trkpt lat="45.835856735427676" lon="9.535434627664182"><ele>578.0</ele><time>2026-04-09T10:36:25.001Z</time></trkpt><trkpt lat="45.835767940553566" lon="9.535348495862715"><ele>576.6666666666666</ele><time>2026-04-09T10:36:26.001Z</time></trkpt><trkpt lat="45.83569318138986" lon="9.535271735364844"><ele>575.3333333333333</ele><time>2026-04-09T10:36:27.001Z</time></trkpt><trkpt lat="45.835630668450825" lon="9.535177012914076"><ele>574.0</ele><time>2026-04-09T10:36:28.001Z</time></trkpt><trkpt lat="45.835598595537775" lon="9.53507054967796"><ele>572.6666666666666</ele><time>2026-04-09T10:36:29.001Z</time></trkpt><trkpt lat="45.83560162181954" lon="9.53494953872366"><ele>571.3333333333334</ele><time>2026-04-09T10:36:30.001Z</time></trkpt><trkpt lat="45.83562641124478" lon="9.534820719360921"><ele>570.0</ele><time>2026-04-09T10:36:31.001Z</time></trkpt><trkpt lat="45.83565398883304" lon="9.534662755672448"><ele>569.2</ele><time>2026-04-09T10:36:32.001Z</time></trkpt><trkpt lat="45.83568602808481" lon="9.53450435275721"><ele>568.4</ele><time>2026-04-09T10:36:33.001Z</time></trkpt><trkpt lat="45.83568432758545" lon="9.534352081187034"><ele>567.6</ele><time>2026-04-09T10:36:34.001Z</time></trkpt><trkpt lat="45.835678607015886" lon="9.534215583379861"><ele>566.8</ele><time>2026-04-09T10:36:35.001Z</time></trkpt><trkpt lat="45.835661169529075" lon="9.534070126084051"><ele>566.0</ele><time>2026-04-09T10:36:36.001Z</time></trkpt><trkpt lat="45.83559323201057" lon="9.533957471001882"><ele>566.0</ele><time>2026-04-09T10:36:37.001Z</time></trkpt><trkpt lat="45.83553970730766" lon="9.53383208482394"><ele>566.0</ele><time>2026-04-09T10:36:38.001Z</time></trkpt><trkpt lat="45.83543392410906" lon="9.533788952666603"><ele>566.0</ele><time>2026-04-09T10:36:39.001Z</time></trkpt><trkpt lat="45.835355018864895" lon="9.53377577439424"><ele>566.0</ele><time>2026-04-09T10:36:40.001Z</time></trkpt><trkpt lat="45.83527852608052" lon="9.53376915357372"><ele>566.0</ele><time>2026-04-09T10:36:41.001Z</time></trkpt><trkpt lat="45.83522397572185" lon="9.533894086099513"><ele>566.0</ele><time>2026-04-09T10:36:42.001Z</time></trkpt><trkpt lat="45.8351600310682" lon="9.533996740418289"><ele>566.0</ele><time>2026-04-09T10:36:43.001Z</time></trkpt><trkpt lat="45.83509757685257" lon="9.534111969417344"><ele>566.0</ele><time>2026-04-09T10:36:44.001Z</time></trkpt><trkpt lat="45.83503081940778" lon="9.534196873924579"><ele>566.0</ele><time>2026-04-09T10:36:45.001Z</time></trkpt><trkpt lat="45.83496391704936" lon="9.534238824732254"><ele>566.0</ele><time>2026-04-09T10:36:46.001Z</time></trkpt><trkpt lat="45.83489268105755" lon="9.53426612253603"><ele>566.0</ele><time>2026-04-09T10:36:47.001Z</time></trkpt><trkpt lat="45.83482212059145" lon="9.534119464216053"><ele>563.5</ele><time>2026-04-09T10:36:48.001Z</time></trkpt><trkpt lat="45.83472542832461" lon="9.534025480130639"><ele>561.0</ele><time>2026-04-09T10:36:49.001Z</time></trkpt><trkpt lat="45.834612131262176" lon="9.533908934622088"><ele>558.5</ele><time>2026-04-09T10:36:50.001Z</time></trkpt><trkpt lat="45.83449401084012" lon="9.533805456347041"><ele>556.0</ele><time>2026-04-09T10:36:51.001Z</time></trkpt><trkpt lat="45.83438718065423" lon="9.533699452464893"><ele>553.75</ele><time>2026-04-09T10:36:52.001Z</time></trkpt><trkpt lat="45.83429111144817" lon="9.533599850774566"><ele>551.5</ele><time>2026-04-09T10:36:53.001Z</time></trkpt><trkpt lat="45.83420720627141" lon="9.533493554220922"><ele>549.25</ele><time>2026-04-09T10:36:54.002Z</time></trkpt><trkpt lat="45.8341368066266" lon="9.53337467282415"><ele>547.0</ele><time>2026-04-09T10:36:55.002Z</time></trkpt><trkpt lat="45.83405257390381" lon="9.533270476505324"><ele>547.0</ele><time>2026-04-09T10:36:56.002Z</time></trkpt><trkpt lat="45.83395741910269" lon="9.533162458577625"><ele>547.0</ele><time>2026-04-09T10:36:57.002Z</time></trkpt><trkpt lat="45.83384163582245" lon="9.533048208488335"><ele>547.0</ele><time>2026-04-09T10:36:58.002Z</time></trkpt><trkpt lat="45.83373793318295" lon="9.53290906225077"><ele>547.0</ele><time>2026-04-09T10:36:59.002Z</time></trkpt><trkpt lat="45.83363403016526" lon="9.53279899178067"><ele>546.6</ele><time>2026-04-09T10:37:00.002Z</time></trkpt><trkpt lat="45.83352463570692" lon="9.53272640731425"><ele>546.2</ele><time>2026-04-09T10:37:01.002Z</time></trkpt><trkpt lat="45.83343571006175" lon="9.532622037839113"><ele>545.8</ele><time>2026-04-09T10:37:02.002Z</time></trkpt><trkpt lat="45.833363054677605" lon="9.532524617608505"><ele>545.4</ele><time>2026-04-09T10:37:03.002Z</time></trkpt><trkpt lat="45.833295258011" lon="9.53240956887365"><ele>545.0</ele><time>2026-04-09T10:37:04.002Z</time></trkpt><trkpt lat="45.833245928366765" lon="9.532266377030346"><ele>545.0</ele><time>2026-04-09T10:37:05.002Z</time></trkpt><trkpt lat="45.83317257401739" lon="9.532180318779828"><ele>545.0</ele><time>2026-04-09T10:37:06.002Z</time></trkpt><trkpt lat="45.83310263566499" lon="9.532108500879861"><ele>545.0</ele><time>2026-04-09T10:37:07.002Z</time></trkpt><trkpt lat="45.83303286736775" lon="9.532051194438052"><ele>545.0</ele><time>2026-04-09T10:37:08.002Z</time></trkpt><trkpt lat="45.832952189422336" lon="9.532020704875722"><ele>545.0</ele><time>2026-04-09T10:37:09.002Z</time></trkpt><trkpt lat="45.83284664018413" lon="9.531990317564622"><ele>542.25</ele><time>2026-04-09T10:37:10.002Z</time></trkpt><trkpt lat="45.8327299502473" lon="9.531944311785354"><ele>539.5</ele><time>2026-04-09T10:37:11.002Z</time></trkpt><trkpt lat="45.83259696603174" lon="9.531945127635364"><ele>536.75</ele><time>2026-04-09T10:37:12.002Z</time></trkpt><trkpt lat="45.8324594845604" lon="9.531970446274398"><ele>534.0</ele><time>2026-04-09T10:37:13.002Z</time></trkpt><trkpt lat="45.83231559295129" lon="9.532003854995578"><ele>532.25</ele><time>2026-04-09T10:37:14.002Z</time></trkpt><trkpt lat="45.832160283288864" lon="9.53204303088693"><ele>530.5</ele><time>2026-04-09T10:37:15.002Z</time></trkpt><trkpt lat="45.83201066393418" lon="9.53208302474604"><ele>528.75</ele><time>2026-04-09T10:37:16.002Z</time></trkpt><trkpt lat="45.8318752651391" lon="9.532129292248266"><ele>527.0</ele><time>2026-04-09T10:37:17.002Z</time></trkpt><trkpt lat="45.83175778175544" lon="9.532183878949347"><ele>526.2</ele><time>2026-04-09T10:37:18.002Z</time></trkpt><trkpt lat="45.83166101110132" lon="9.532238605269084"><ele>525.4000000000001</ele><time>2026-04-09T10:37:19.002Z</time></trkpt><trkpt lat="45.83157049690548" lon="9.532300805574993"><ele>524.5999999999999</ele><time>2026-04-09T10:37:20.002Z</time></trkpt><trkpt lat="45.83149964610108" lon="9.532377875043192"><ele>523.8</ele><time>2026-04-09T10:37:21.002Z</time></trkpt><trkpt lat="45.83144832723604" lon="9.532484222522124"><ele>523.0</ele><time>2026-04-09T10:37:22.002Z</time></trkpt><trkpt lat="45.83143806572968" lon="9.532607260592656"><ele>523.0</ele><time>2026-04-09T10:37:23.002Z</time></trkpt><trkpt lat="45.83146614810233" lon="9.532721440899179"><ele>523.0</ele><time>2026-04-09T10:37:24.002Z</time></trkpt><trkpt lat="45.83152331102167" lon="9.532830509507388"><ele>523.0</ele><time>2026-04-09T10:37:25.002Z</time></trkpt><trkpt lat="45.83159854556191" lon="9.532959347142452"><ele>523.0</ele><time>2026-04-09T10:37:26.002Z</time></trkpt><trkpt lat="45.83171472797852" lon="9.533119322849558"><ele>525.75</ele><time>2026-04-09T10:37:27.003Z</time></trkpt><trkpt lat="45.83182367691721" lon="9.533278146184418"><ele>528.5</ele><time>2026-04-09T10:37:28.003Z</time></trkpt><trkpt lat="45.83191226138825" lon="9.53340606107689"><ele>531.25</ele><time>2026-04-09T10:37:29.003Z</time></trkpt><trkpt lat="45.831982260231996" lon="9.533513181797002"><ele>534.0</ele><time>2026-04-09T10:37:30.003Z</time></trkpt><trkpt lat="45.83204297395524" lon="9.533613008704087"><ele>534.0</ele><time>2026-04-09T10:37:32.003Z</time></trkpt><trkpt lat="45.83194538113648" lon="9.533670899749227"><ele>534.0</ele><time>2026-04-09T10:37:34.003Z</time></trkpt><trkpt lat="45.831881583823595" lon="9.533616389394325"><ele>534.0</ele><time>2026-04-09T10:37:35.003Z</time></trkpt><trkpt lat="45.83184680902646" lon="9.533501915580644"><ele>534.0</ele><time>2026-04-09T10:37:36.003Z</time></trkpt><trkpt lat="45.83178577967642" lon="9.533390638197812"><ele>534.0</ele><time>2026-04-09T10:37:37.003Z</time></trkpt><trkpt lat="45.83171149148193" lon="9.533271516013333"><ele>528.0</ele><time>2026-04-09T10:37:38.003Z</time></trkpt><trkpt lat="45.831625969840225" lon="9.533178630698762"><ele>522.0</ele><time>2026-04-09T10:37:39.003Z</time></trkpt><trkpt lat="45.831525584049345" lon="9.533088754916733"><ele>516.0</ele><time>2026-04-09T10:37:40.003Z</time></trkpt><trkpt lat="45.83140853242877" lon="9.532996718539373"><ele>510.0</ele><time>2026-04-09T10:37:41.003Z</time></trkpt><trkpt lat="45.831283801681366" lon="9.532896209623168"><ele>512.6</ele><time>2026-04-09T10:37:42.003Z</time></trkpt><trkpt lat="45.83116359913623" lon="9.532795860880508"><ele>515.2</ele><time>2026-04-09T10:37:43.003Z</time></trkpt><trkpt lat="45.83105791813703" lon="9.532707137488314"><ele>517.8</ele><time>2026-04-09T10:37:44.003Z</time></trkpt><trkpt lat="45.8309767355606" lon="9.532629947398888"><ele>520.4</ele><time>2026-04-09T10:37:45.003Z</time></trkpt><trkpt lat="45.83091630172588" lon="9.53253495332605"><ele>523.0</ele><time>2026-04-09T10:37:46.003Z</time></trkpt><trkpt lat="45.830889451033805" lon="9.532424046149847"><ele>523.0</ele><time>2026-04-09T10:37:46.999Z</time></trkpt><trkpt lat="45.83089758434446" lon="9.532303911714166"><ele>523.0</ele><time>2026-04-09T10:37:47.999Z</time></trkpt><trkpt lat="45.83093428346558" lon="9.532191960547328"><ele>523.0</ele><time>2026-04-09T10:37:48.999Z</time></trkpt><trkpt lat="45.831010142922544" lon="9.532094446274176"><ele>523.0</ele><time>2026-04-09T10:37:49.999Z</time></trkpt><trkpt lat="45.831093554043825" lon="9.53194651728302"><ele>523.0</ele><time>2026-04-09T10:37:50.999Z</time></trkpt><trkpt lat="45.83117962208751" lon="9.53179762422585"><ele>519.5</ele><time>2026-04-09T10:37:52Z</time></trkpt><trkpt lat="45.83125629693542" lon="9.531667000157116"><ele>516.0</ele><time>2026-04-09T10:37:53Z</time></trkpt><trkpt lat="45.83136771174416" lon="9.531591925561967"><ele>512.5</ele><time>2026-04-09T10:37:54Z</time></trkpt><trkpt lat="45.83145871755827" lon="9.531456569711386"><ele>509.0</ele><time>2026-04-09T10:37:55Z</time></trkpt><trkpt lat="45.83158228508899" lon="9.531343579063297"><ele>507.5</ele><time>2026-04-09T10:37:56Z</time></trkpt><trkpt lat="45.83167795623632" lon="9.531189045266215"><ele>506.0</ele><time>2026-04-09T10:37:57Z</time></trkpt><trkpt lat="45.83176606842901" lon="9.531050500389739"><ele>504.5</ele><time>2026-04-09T10:37:58Z</time></trkpt><trkpt lat="45.83187119839028" lon="9.530952099414812"><ele>503.0</ele><time>2026-04-09T10:37:59Z</time></trkpt><trkpt lat="45.8319719972338" lon="9.530876692909695"><ele>503.0</ele><time>2026-04-09T10:38:00Z</time></trkpt><trkpt lat="45.83206521169934" lon="9.530849160788224"><ele>502.99999999999994</ele><time>2026-04-09T10:38:01Z</time></trkpt><trkpt lat="45.832141260936154" lon="9.530805629473631"><ele>502.99999999999994</ele><time>2026-04-09T10:38:02Z</time></trkpt><trkpt lat="45.83223501450487" lon="9.530730067578235"><ele>503.0</ele><time>2026-04-09T10:38:04Z</time></trkpt><trkpt lat="45.832231382704805" lon="9.530591826279247"><ele>503.0</ele><time>2026-04-09T10:38:06Z</time></trkpt><trkpt lat="45.83216686984946" lon="9.53047995213442"><ele>503.0</ele><time>2026-04-09T10:38:08Z</time></trkpt><trkpt lat="45.8320849172895" lon="9.53048909178005"><ele>503.0</ele><time>2026-04-09T10:38:09Z</time></trkpt><trkpt lat="45.831997850323255" lon="9.53055452311837"><ele>503.0</ele><time>2026-04-09T10:38:10Z</time></trkpt><trkpt lat="45.83188297601274" lon="9.530627837177907"><ele>503.0</ele><time>2026-04-09T10:38:11Z</time></trkpt><trkpt lat="45.83173823091966" lon="9.530712836164223"><ele>497.5</ele><time>2026-04-09T10:38:12Z</time></trkpt><trkpt lat="45.83158527803751" lon="9.530794392902388"><ele>492.0</ele><time>2026-04-09T10:38:13Z</time></trkpt><trkpt lat="45.83145464230219" lon="9.530886090590856"><ele>486.5</ele><time>2026-04-09T10:38:14Z</time></trkpt><trkpt lat="45.83133542001032" lon="9.530972720060978"><ele>481.0</ele><time>2026-04-09T10:38:15Z</time></trkpt><trkpt lat="45.83121492048681" lon="9.531067955810425"><ele>481.0</ele><time>2026-04-09T10:38:16Z</time></trkpt><trkpt lat="45.83108301241705" lon="9.531081042248845"><ele>481.0</ele><time>2026-04-09T10:38:17Z</time></trkpt><trkpt lat="45.83093654085106" lon="9.531094080679344"><ele>481.0</ele><time>2026-04-09T10:38:18Z</time></trkpt><trkpt lat="45.830778395904325" lon="9.531112579967223"><ele>481.0</ele><time>2026-04-09T10:38:19.001Z</time></trkpt><trkpt lat="45.830625120634565" lon="9.531174735212211"><ele>482.75</ele><time>2026-04-09T10:38:20.001Z</time></trkpt><trkpt lat="45.83048413174487" lon="9.531236424985734"><ele>484.5</ele><time>2026-04-09T10:38:21.001Z</time></trkpt><trkpt lat="45.83034766193616" lon="9.531321156489533"><ele>486.25</ele><time>2026-04-09T10:38:22.001Z</time></trkpt><trkpt lat="45.83020096090495" lon="9.531354935752331"><ele>488.0</ele><time>2026-04-09T10:38:23.001Z</time></trkpt><trkpt lat="45.830036397449" lon="9.531393808845815"><ele>481.0</ele><time>2026-04-09T10:38:24.001Z</time></trkpt><trkpt lat="45.82988096501574" lon="9.531431999988792"><ele>474.0</ele><time>2026-04-09T10:38:25.001Z</time></trkpt><trkpt lat="45.82972356823819" lon="9.531485820089932"><ele>467.0</ele><time>2026-04-09T10:38:26.001Z</time></trkpt><trkpt lat="45.82957175511593" lon="9.531523032607128"><ele>467.0</ele><time>2026-04-09T10:38:27.001Z</time></trkpt><trkpt lat="45.82942123111347" lon="9.531567927838823"><ele>467.0</ele><time>2026-04-09T10:38:28.001Z</time></trkpt><trkpt lat="45.82927433664222" lon="9.53160947851024"><ele>467.0</ele><time>2026-04-09T10:38:29.001Z</time></trkpt><trkpt lat="45.829133421381464" lon="9.531637083297845"><ele>467.0</ele><time>2026-04-09T10:38:30.001Z</time></trkpt><trkpt lat="45.82898367150214" lon="9.531645309546889"><ele>464.5</ele><time>2026-04-09T10:38:31.001Z</time></trkpt><trkpt lat="45.82883973457777" lon="9.531609729266647"><ele>462.0</ele><time>2026-04-09T10:38:32.001Z</time></trkpt><trkpt lat="45.82869314891251" lon="9.531564543544809"><ele>459.5</ele><time>2026-04-09T10:38:33.001Z</time></trkpt><trkpt lat="45.8285500687738" lon="9.53152348879246"><ele>457.0</ele><time>2026-04-09T10:38:34.001Z</time></trkpt><trkpt lat="45.82840549269586" lon="9.53149566827473"><ele>454.0</ele><time>2026-04-09T10:38:35.001Z</time></trkpt><trkpt lat="45.82826717928774" lon="9.531484933174038"><ele>451.0</ele><time>2026-04-09T10:38:36.001Z</time></trkpt><trkpt lat="45.82813797755531" lon="9.531479201135326"><ele>448.0</ele><time>2026-04-09T10:38:37.001Z</time></trkpt><trkpt lat="45.82803196438743" lon="9.531483082399586"><ele>445.0</ele><time>2026-04-09T10:38:38.001Z</time></trkpt><trkpt lat="45.82793981618672" lon="9.531520527581268"><ele>445.0</ele><time>2026-04-09T10:38:39.001Z</time></trkpt><trkpt lat="45.827845461653126" lon="9.531600946469634"><ele>445.0</ele><time>2026-04-09T10:38:40.001Z</time></trkpt><trkpt lat="45.82776450827073" lon="9.531702510838876"><ele>445.0</ele><time>2026-04-09T10:38:41.001Z</time></trkpt><trkpt lat="45.82768224570794" lon="9.531784085190294"><ele>445.0</ele><time>2026-04-09T10:38:42.001Z</time></trkpt><trkpt lat="45.82759190728873" lon="9.531824060467548"><ele>445.0</ele><time>2026-04-09T10:38:43.001Z</time></trkpt><trkpt lat="45.82750273298234" lon="9.531771183480284"><ele>443.5</ele><time>2026-04-09T10:38:44.001Z</time></trkpt><trkpt lat="45.82739592287854" lon="9.53170948681371"><ele>442.0</ele><time>2026-04-09T10:38:45.001Z</time></trkpt><trkpt lat="45.827261853973475" lon="9.531652563162638"><ele>440.5</ele><time>2026-04-09T10:38:46.001Z</time></trkpt><trkpt lat="45.8271298759634" lon="9.531557966691825"><ele>439.0</ele><time>2026-04-09T10:38:47.001Z</time></trkpt><trkpt lat="45.82700223472113" lon="9.531496017129076"><ele>439.0</ele><time>2026-04-09T10:38:48.001Z</time></trkpt><trkpt lat="45.82689218065014" lon="9.531457970558387"><ele>439.0</ele><time>2026-04-09T10:38:49.001Z</time></trkpt><trkpt lat="45.826808405906206" lon="9.531466155160155"><ele>439.0</ele><time>2026-04-09T10:38:50.002Z</time></trkpt><trkpt lat="45.82672592501292" lon="9.53152930468687"><ele>439.0</ele><time>2026-04-09T10:38:51.002Z</time></trkpt><trkpt lat="45.82664391340491" lon="9.53163343774898"><ele>439.0</ele><time>2026-04-09T10:38:52.002Z</time></trkpt><trkpt lat="45.82653499198225" lon="9.53176997541712"><ele>438.6666666666667</ele><time>2026-04-09T10:38:53.002Z</time></trkpt><trkpt lat="45.8264242372018" lon="9.531911706422413"><ele>438.33333333333337</ele><time>2026-04-09T10:38:54.002Z</time></trkpt><trkpt lat="45.82629416863143" lon="9.53204546857147"><ele>438.0</ele><time>2026-04-09T10:38:55.002Z</time></trkpt><trkpt lat="45.82617040041593" lon="9.532179769920232"><ele>439.25</ele><time>2026-04-09T10:38:56.002Z</time></trkpt><trkpt lat="45.826066573031156" lon="9.532297826408984"><ele>440.5</ele><time>2026-04-09T10:38:57.002Z</time></trkpt><trkpt lat="45.82596135089354" lon="9.532410688657789"><ele>441.75</ele><time>2026-04-09T10:38:58.002Z</time></trkpt><trkpt lat="45.82584869592365" lon="9.532507810693273"><ele>443.0</ele><time>2026-04-09T10:38:59.002Z</time></trkpt><trkpt lat="45.82571731310397" lon="9.53252934599236"><ele>443.0</ele><time>2026-04-09T10:39:00.002Z</time></trkpt><trkpt lat="45.825583983777946" lon="9.532567838500906"><ele>443.0</ele><time>2026-04-09T10:39:01.002Z</time></trkpt><trkpt lat="45.82545533815624" lon="9.532626601305635"><ele>443.0</ele><time>2026-04-09T10:39:02.002Z</time></trkpt><trkpt lat="45.82534336945587" lon="9.532657490343853"><ele>443.0</ele><time>2026-04-09T10:39:03.002Z</time></trkpt><trkpt lat="45.82520440309172" lon="9.532659133192324"><ele>441.3333333333333</ele><time>2026-04-09T10:39:04.002Z</time></trkpt><trkpt lat="45.82506339360044" lon="9.53266424238558"><ele>439.66666666666663</ele><time>2026-04-09T10:39:05.002Z</time></trkpt><trkpt lat="45.82490383994292" lon="9.53266346637933"><ele>438.0</ele><time>2026-04-09T10:39:06.002Z</time></trkpt><trkpt lat="45.82473468883388" lon="9.532653674186834"><ele>438.0</ele><time>2026-04-09T10:39:07.002Z</time></trkpt><trkpt lat="45.82456828865186" lon="9.532656691067615"><ele>438.0</ele><time>2026-04-09T10:39:08.002Z</time></trkpt><trkpt lat="45.82441871905935" lon="9.53268798960934"><ele>438.0</ele><time>2026-04-09T10:39:09.002Z</time></trkpt><trkpt lat="45.82428583455099" lon="9.532696321583858"><ele>437.0</ele><time>2026-04-09T10:39:10.002Z</time></trkpt><trkpt lat="45.82417382379665" lon="9.532703985185753"><ele>435.99999999999994</ele><time>2026-04-09T10:39:11.002Z</time></trkpt><trkpt lat="45.82403781257784" lon="9.53273072098956"><ele>434.99999999999994</ele><time>2026-04-09T10:39:12.002Z</time></trkpt><trkpt lat="45.82396424841732" lon="9.53274690107235"><ele>434.0</ele><time>2026-04-09T10:39:13.002Z</time></trkpt><trkpt lat="45.82386296693489" lon="9.532769177474785"><ele>433.0</ele><time>2026-04-09T10:39:14.002Z</time></trkpt><trkpt lat="45.82375261940961" lon="9.53279104840721"><ele>433.0</ele><time>2026-04-09T10:39:15.002Z</time></trkpt><trkpt lat="45.82364029128453" lon="9.532810934797233"><ele>432.99999999999994</ele><time>2026-04-09T10:39:16.002Z</time></trkpt><trkpt lat="45.823535418518766" lon="9.532827604269713"><ele>432.99999999999994</ele><time>2026-04-09T10:39:17.002Z</time></trkpt><trkpt lat="45.82343655244725" lon="9.53284836199778"><ele>433.0</ele><time>2026-04-09T10:39:18.002Z</time></trkpt><trkpt lat="45.823347583482274" lon="9.532894749916244"><ele>433.0</ele><time>2026-04-09T10:39:19.002Z</time></trkpt><trkpt lat="45.82326897676994" lon="9.532842171305418"><ele>433.1666666666667</ele><time>2026-04-09T10:39:20.002Z</time></trkpt><trkpt lat="45.82319245427062" lon="9.532811671982516"><ele>433.33333333333337</ele><time>2026-04-09T10:39:21.002Z</time></trkpt><trkpt lat="45.82311837343234" lon="9.532811888302959"><ele>433.5</ele><time>2026-04-09T10:39:22.002Z</time></trkpt><trkpt lat="45.82305064541172" lon="9.532805484823"><ele>433.66666666666663</ele><time>2026-04-09T10:39:23.002Z</time></trkpt><trkpt lat="45.82298633120908" lon="9.532872510090167"><ele>433.8333333333333</ele><time>2026-04-09T10:39:24.003Z</time></trkpt><trkpt lat="45.8229024815822" lon="9.532967323617092"><ele>434.0</ele><time>2026-04-09T10:39:25.003Z</time></trkpt><trkpt lat="45.822802195220866" lon="9.533064033256212"><ele>434.0</ele><time>2026-04-09T10:39:26.003Z</time></trkpt><trkpt lat="45.82272098000014" lon="9.533189644499128"><ele>434.0</ele><time>2026-04-09T10:39:27.003Z</time></trkpt><trkpt lat="45.822636798403785" lon="9.533297785012559"><ele>434.0</ele><time>2026-04-09T10:39:28.003Z</time></trkpt><trkpt lat="45.82257036622013" lon="9.533417298043622"><ele>434.0</ele><time>2026-04-09T10:39:29.003Z</time></trkpt><trkpt lat="45.822514130765015" lon="9.533523280234858"><ele>434.0</ele><time>2026-04-09T10:39:30.003Z</time></trkpt><trkpt lat="45.82244996538073" lon="9.533599240022255"><ele>432.4</ele><time>2026-04-09T10:39:31.003Z</time></trkpt><trkpt lat="45.82236708192016" lon="9.533601703587427"><ele>430.79999999999995</ele><time>2026-04-09T10:39:32.003Z</time></trkpt><trkpt lat="45.82229157038087" lon="9.533546231744651"><ele>429.20000000000005</ele><time>2026-04-09T10:39:33.003Z</time></trkpt><trkpt lat="45.82220100495529" lon="9.533489412127174"><ele>427.6</ele><time>2026-04-09T10:39:34.003Z</time></trkpt><trkpt lat="45.822091486896255" lon="9.533424594586954"><ele>426.0</ele><time>2026-04-09T10:39:35.003Z</time></trkpt><trkpt lat="45.82198307855066" lon="9.533354238818827"><ele>426.0</ele><time>2026-04-09T10:39:36.003Z</time></trkpt><trkpt lat="45.821865164579876" lon="9.533283567066027"><ele>426.0</ele><time>2026-04-09T10:39:37.003Z</time></trkpt><trkpt lat="45.821742217790415" lon="9.533233547726338"><ele>426.0</ele><time>2026-04-09T10:39:38.003Z</time></trkpt><trkpt lat="45.821630039741926" lon="9.533182395935679"><ele>426.0</ele><time>2026-04-09T10:39:39.003Z</time></trkpt><trkpt lat="45.82151932449744" lon="9.533158646729188"><ele>425.75</ele><time>2026-04-09T10:39:40.003Z</time></trkpt><trkpt lat="45.82141578700309" lon="9.53315268852159"><ele>425.5</ele><time>2026-04-09T10:39:41.003Z</time></trkpt><trkpt lat="45.82130814392378" lon="9.533166436605566"><ele>425.25</ele><time>2026-04-09T10:39:42.003Z</time></trkpt><trkpt lat="45.82118767265096" lon="9.533212405179592"><ele>425.0</ele><time>2026-04-09T10:39:43.003Z</time></trkpt><trkpt lat="45.82106124334772" lon="9.53327959154648"><ele>425.75</ele><time>2026-04-09T10:39:44.003Z</time></trkpt><trkpt lat="45.82094138446675" lon="9.533350895210832"><ele>426.5</ele><time>2026-04-09T10:39:45.003Z</time></trkpt><trkpt lat="45.82082254146256" lon="9.533401469709162"><ele>427.25</ele><time>2026-04-09T10:39:46.003Z</time></trkpt><trkpt lat="45.820712022927005" lon="9.533413676203612"><ele>428.0</ele><time>2026-04-09T10:39:47.003Z</time></trkpt><trkpt lat="45.820622117602134" lon="9.53337352794755"><ele>428.0</ele><time>2026-04-09T10:39:48.003Z</time></trkpt><trkpt lat="45.820525091645194" lon="9.533370757745004"><ele>428.0</ele><time>2026-04-09T10:39:49.003Z</time></trkpt><trkpt lat="45.820418127798625" lon="9.533312955584872"><ele>428.0</ele><time>2026-04-09T10:39:50.003Z</time></trkpt><trkpt lat="45.82030494808439" lon="9.533256315591148"><ele>428.0</ele><time>2026-04-09T10:39:51.003Z</time></trkpt><trkpt lat="45.82018411893929" lon="9.533205141335754"><ele>427.79999999999995</ele><time>2026-04-09T10:39:52.003Z</time></trkpt><trkpt lat="45.82007185618698" lon="9.533168275998017"><ele>427.59999999999997</ele><time>2026-04-09T10:39:53Z</time></trkpt><trkpt lat="45.819975914033634" lon="9.533127746278542"><ele>427.40000000000003</ele><time>2026-04-09T10:39:54Z</time></trkpt><trkpt lat="45.819881822323936" lon="9.533105630527677"><ele>427.20000000000005</ele><time>2026-04-09T10:39:55Z</time></trkpt><trkpt lat="45.81978787755585" lon="9.53311680404065"><ele>427.0</ele><time>2026-04-09T10:39:56Z</time></trkpt><trkpt lat="45.819695276158086" lon="9.533166417430879"><ele>427.0</ele><time>2026-04-09T10:39:57Z</time></trkpt><trkpt lat="45.819596444140906" lon="9.533264088011057"><ele>427.0</ele><time>2026-04-09T10:39:58Z</time></trkpt><trkpt lat="45.81948956894066" lon="9.533386463878383"><ele>427.0</ele><time>2026-04-09T10:39:59Z</time></trkpt><trkpt lat="45.81937383679924" lon="9.533511497323094"><ele>427.0</ele><time>2026-04-09T10:40:00Z</time></trkpt><trkpt lat="45.81925216898932" lon="9.533630132817212"><ele>428.5</ele><time>2026-04-09T10:40:01Z</time></trkpt><trkpt lat="45.81913288702783" lon="9.533726642155905"><ele>430.0</ele><time>2026-04-09T10:40:02Z</time></trkpt><trkpt lat="45.81901877292136" lon="9.533789914693726"><ele>431.5</ele><time>2026-04-09T10:40:03Z</time></trkpt><trkpt lat="45.818898363050856" lon="9.533771195730505"><ele>433.0</ele><time>2026-04-09T10:40:04Z</time></trkpt><trkpt lat="45.81876707703251" lon="9.533762623464487"><ele>433.0</ele><time>2026-04-09T10:40:05Z</time></trkpt><trkpt lat="45.81862278732954" lon="9.53377972231331"><ele>433.0</ele><time>2026-04-09T10:40:06Z</time></trkpt><trkpt lat="45.818476484291246" lon="9.533780292190047"><ele>433.0</ele><time>2026-04-09T10:40:07Z</time></trkpt><trkpt lat="45.81832840133485" lon="9.533768913643442"><ele>433.0</ele><time>2026-04-09T10:40:08Z</time></trkpt><trkpt lat="45.818168624876066" lon="9.533752374649065"><ele>432.25</ele><time>2026-04-09T10:40:09Z</time></trkpt><trkpt lat="45.818012073552474" lon="9.533759237161442"><ele>431.5</ele><time>2026-04-09T10:40:10Z</time></trkpt><trkpt lat="45.817863744434916" lon="9.533735845101162"><ele>430.75</ele><time>2026-04-09T10:40:11Z</time></trkpt><trkpt lat="45.81772069539649" lon="9.53372460408739"><ele>430.0</ele><time>2026-04-09T10:40:12Z</time></trkpt><trkpt lat="45.81758733581412" lon="9.533707901097726"><ele>428.5</ele><time>2026-04-09T10:40:13Z</time></trkpt><trkpt lat="45.81745935490617" lon="9.533693896837674"><ele>427.0</ele><time>2026-04-09T10:40:14Z</time></trkpt><trkpt lat="45.81733814523303" lon="9.533692852544233"><ele>425.5</ele><time>2026-04-09T10:40:15Z</time></trkpt><trkpt lat="45.81722804723929" lon="9.533695374751105"><ele>424.0</ele><time>2026-04-09T10:40:16Z</time></trkpt><trkpt lat="45.81712800975408" lon="9.533745738861537"><ele>424.0</ele><time>2026-04-09T10:40:17Z</time></trkpt><trkpt lat="45.81704265744449" lon="9.53382934559455"><ele>424.0</ele><time>2026-04-09T10:40:18Z</time></trkpt><trkpt lat="45.81695725642654" lon="9.533910066043932"><ele>424.0</ele><time>2026-04-09T10:40:19Z</time></trkpt><trkpt lat="45.816880002193436" lon="9.533962653113155"><ele>424.0</ele><time>2026-04-09T10:40:20Z</time></trkpt><trkpt lat="45.81678134464597" lon="9.53387947813171"><ele>424.0</ele><time>2026-04-09T10:40:22.001Z</time></trkpt><trkpt lat="45.81671978558212" lon="9.533799190212672"><ele>423.2</ele><time>2026-04-09T10:40:23.001Z</time></trkpt><trkpt lat="45.81665477849775" lon="9.533735567089035"><ele>422.4</ele><time>2026-04-09T10:40:24.001Z</time></trkpt><trkpt lat="45.816587586989" lon="9.533643153145265"><ele>421.6</ele><time>2026-04-09T10:40:25.001Z</time></trkpt><trkpt lat="45.81650463913151" lon="9.533542120201078"><ele>420.8</ele><time>2026-04-09T10:40:26.001Z</time></trkpt><trkpt lat="45.81641599872745" lon="9.533429876373118"><ele>420.0</ele><time>2026-04-09T10:40:27.001Z</time></trkpt><trkpt lat="45.81632170270747" lon="9.533307290511493"><ele>418.5</ele><time>2026-04-09T10:40:28.001Z</time></trkpt><trkpt lat="45.81621931652621" lon="9.533186652351825"><ele>417.0</ele><time>2026-04-09T10:40:29.001Z</time></trkpt><trkpt lat="45.816112581502416" lon="9.533088199488311"><ele>415.5</ele><time>2026-04-09T10:40:30.001Z</time></trkpt><trkpt lat="45.816001829865094" lon="9.533016908937967"><ele>414.0</ele><time>2026-04-09T10:40:31.001Z</time></trkpt><trkpt lat="45.81587986855255" lon="9.532959622146805"><ele>413.25</ele><time>2026-04-09T10:40:32.001Z</time></trkpt><trkpt lat="45.8157556986647" lon="9.532913348917054"><ele>412.5</ele><time>2026-04-09T10:40:33.001Z</time></trkpt><trkpt lat="45.81562695173207" lon="9.532873493451351"><ele>411.75</ele><time>2026-04-09T10:40:34.001Z</time></trkpt><trkpt lat="45.81549418926938" lon="9.532842025966831"><ele>411.0</ele><time>2026-04-09T10:40:35.001Z</time></trkpt><trkpt lat="45.81536829130414" lon="9.532825871857252"><ele>410.4</ele><time>2026-04-09T10:40:36.001Z</time></trkpt><trkpt lat="45.81525877543306" lon="9.5328320705246"><ele>409.8</ele><time>2026-04-09T10:40:37.001Z</time></trkpt><trkpt lat="45.81515949487684" lon="9.532836378684104"><ele>409.2</ele><time>2026-04-09T10:40:38.001Z</time></trkpt><trkpt lat="45.81506760483789" lon="9.53282230825329"><ele>408.59999999999997</ele><time>2026-04-09T10:40:39.001Z</time></trkpt><trkpt lat="45.81500128260646" lon="9.5328157039533"><ele>408.0</ele><time>2026-04-09T10:40:40.001Z</time></trkpt><trkpt lat="45.81491493125688" lon="9.532778834948385"><ele>408.0</ele><time>2026-04-09T10:40:42.001Z</time></trkpt><trkpt lat="45.81492651625565" lon="9.532640013536126"><ele>408.0</ele><time>2026-04-09T10:40:45.001Z</time></trkpt><trkpt lat="45.81494525898027" lon="9.532515090029298"><ele>408.0</ele><time>2026-04-09T10:40:46.001Z</time></trkpt><trkpt lat="45.81498295511429" lon="9.532375481372037"><ele>408.0</ele><time>2026-04-09T10:40:47.001Z</time></trkpt><trkpt lat="45.81501938351597" lon="9.53220519432831"><ele>408.0</ele><time>2026-04-09T10:40:48.001Z</time></trkpt><trkpt lat="45.815056008965456" lon="9.532054768168361"><ele>408.0</ele><time>2026-04-09T10:40:49.001Z</time></trkpt><trkpt lat="45.81508886816372" lon="9.531927194383561"><ele>408.0</ele><time>2026-04-09T10:40:50.001Z</time></trkpt><trkpt lat="45.81512041479754" lon="9.531798706978938"><ele>408.0</ele><time>2026-04-09T10:40:51.001Z</time></trkpt><trkpt lat="45.8151508055068" lon="9.531669077362936"><ele>408.0</ele><time>2026-04-09T10:40:52.001Z</time></trkpt><trkpt lat="45.81517558621375" lon="9.53153826519357"><ele>408.0</ele><time>2026-04-09T10:40:53.001Z</time></trkpt><trkpt lat="45.81520270283814" lon="9.531415110312757"><ele>408.0</ele><time>2026-04-09T10:40:54.001Z</time></trkpt><trkpt lat="45.81523492362806" lon="9.531307034354864"><ele>408.0</ele><time>2026-04-09T10:40:55.001Z</time></trkpt><trkpt lat="45.81525887254309" lon="9.531199483939462"><ele>408.0</ele><time>2026-04-09T10:40:56.001Z</time></trkpt><trkpt lat="45.81528001829931" lon="9.531090654677044"><ele>408.0</ele><time>2026-04-09T10:40:57.001Z</time></trkpt><trkpt lat="45.815301645028285" lon="9.530972046462256"><ele>408.0</ele><time>2026-04-09T10:40:58.002Z</time></trkpt><trkpt lat="45.81533007848758" lon="9.530863431357059"><ele>408.0</ele><time>2026-04-09T10:40:59.002Z</time></trkpt><trkpt lat="45.81538202107315" lon="9.530765078829814"><ele>408.6666666666667</ele><time>2026-04-09T10:41:00.002Z</time></trkpt><trkpt lat="45.8154054939183" lon="9.53066431300536"><ele>409.33333333333337</ele><time>2026-04-09T10:41:01.002Z</time></trkpt><trkpt lat="45.81542375253222" lon="9.5305699014629"><ele>410.0</ele><time>2026-04-09T10:41:02.002Z</time></trkpt><trkpt lat="45.81543492938033" lon="9.530474765652109"><ele>410.6666666666667</ele><time>2026-04-09T10:41:03.002Z</time></trkpt><trkpt lat="45.81544149643802" lon="9.530305258212607"><ele>411.33333333333337</ele><time>2026-04-09T10:41:05.002Z</time></trkpt><trkpt lat="45.81545190045915" lon="9.530201268008257"><ele>412.0</ele><time>2026-04-09T10:41:06.002Z</time></trkpt><trkpt lat="45.815476495426864" lon="9.530088774762472"><ele>412.6</ele><time>2026-04-09T10:41:07.002Z</time></trkpt><trkpt lat="45.81550361659599" lon="9.529977274055556"><ele>413.20000000000005</ele><time>2026-04-09T10:41:08.002Z</time></trkpt><trkpt lat="45.81553862976676" lon="9.52986530150512"><ele>413.8</ele><time>2026-04-09T10:41:09.002Z</time></trkpt><trkpt lat="45.815575370672796" lon="9.529746590898508"><ele>414.4</ele><time>2026-04-09T10:41:10.002Z</time></trkpt><trkpt lat="45.81561868527822" lon="9.529612818227664"><ele>415.0</ele><time>2026-04-09T10:41:11.002Z</time></trkpt><trkpt lat="45.81566610733282" lon="9.529469992523243"><ele>415.0</ele><time>2026-04-09T10:41:12.002Z</time></trkpt><trkpt lat="45.81571755638483" lon="9.529315409262686"><ele>415.0</ele><time>2026-04-09T10:41:13.002Z</time></trkpt><trkpt lat="45.815772096202444" lon="9.52914968337854"><ele>415.0</ele><time>2026-04-09T10:41:14.002Z</time></trkpt><trkpt lat="45.81582682356422" lon="9.528979219124643"><ele>415.0</ele><time>2026-04-09T10:41:15.002Z</time></trkpt><trkpt lat="45.81587752488899" lon="9.528820790038948"><ele>415.5</ele><time>2026-04-09T10:41:16.002Z</time></trkpt><trkpt lat="45.815914274706095" lon="9.528653984978646"><ele>416.0</ele><time>2026-04-09T10:41:17.002Z</time></trkpt><trkpt lat="45.815977847720404" lon="9.528492929950374"><ele>416.5</ele><time>2026-04-09T10:41:18.002Z</time></trkpt><trkpt lat="45.81603645685133" lon="9.528319673520638"><ele>417.0</ele><time>2026-04-09T10:41:19.002Z</time></trkpt><trkpt lat="45.816094889738274" lon="9.528147187355602"><ele>420.0</ele><time>2026-04-09T10:41:20.002Z</time></trkpt><trkpt lat="45.81615302442284" lon="9.527960935582588"><ele>423.0</ele><time>2026-04-09T10:41:21.002Z</time></trkpt><trkpt lat="45.81621087919313" lon="9.527766160164251"><ele>426.0</ele><time>2026-04-09T10:41:22.002Z</time></trkpt><trkpt lat="45.816277396843944" lon="9.527567496912843"><ele>429.0</ele><time>2026-04-09T10:41:23.002Z</time></trkpt><trkpt lat="45.81634508792508" lon="9.527355696163564"><ele>429.0</ele><time>2026-04-09T10:41:24.002Z</time></trkpt><trkpt lat="45.81641516176731" lon="9.527138258330336"><ele>429.0</ele><time>2026-04-09T10:41:25.002Z</time></trkpt><trkpt lat="45.81647923812357" lon="9.526928706760629"><ele>429.0</ele><time>2026-04-09T10:41:26.002Z</time></trkpt><trkpt lat="45.8165507009984" lon="9.526741676319203"><ele>428.25</ele><time>2026-04-09T10:41:27.002Z</time></trkpt><trkpt lat="45.81662374429918" lon="9.526569702291196"><ele>427.5</ele><time>2026-04-09T10:41:28.002Z</time></trkpt><trkpt lat="45.81671565423297" lon="9.526416002935484"><ele>426.75</ele><time>2026-04-09T10:41:29.002Z</time></trkpt><trkpt lat="45.81682810248989" lon="9.52627309046442"><ele>426.0</ele><time>2026-04-09T10:41:30.002Z</time></trkpt><trkpt lat="45.81693433481751" lon="9.52613263693128"><ele>431.0</ele><time>2026-04-09T10:41:31.002Z</time></trkpt><trkpt lat="45.8170092419608" lon="9.525970872376746"><ele>436.0</ele><time>2026-04-09T10:41:32.002Z</time></trkpt><trkpt lat="45.817066099201966" lon="9.52577062107239"><ele>441.0</ele><time>2026-04-09T10:41:33.002Z</time></trkpt><trkpt lat="45.81711492746872" lon="9.52554660579205"><ele>439.0</ele><time>2026-04-09T10:41:34.003Z</time></trkpt><trkpt lat="45.81716696371922" lon="9.525302896207425"><ele>437.0</ele><time>2026-04-09T10:41:35.003Z</time></trkpt><trkpt lat="45.817220026991265" lon="9.525060937352603"><ele>435.0</ele><time>2026-04-09T10:41:36.003Z</time></trkpt><trkpt lat="45.81727266513157" lon="9.524824725494168"><ele>435.0</ele><time>2026-04-09T10:41:37.003Z</time></trkpt><trkpt lat="45.817324150784664" lon="9.524585263249076"><ele>435.0</ele><time>2026-04-09T10:41:38.003Z</time></trkpt><trkpt lat="45.81737803805901" lon="9.524350714550101"><ele>435.0</ele><time>2026-04-09T10:41:39.003Z</time></trkpt><trkpt lat="45.81743686180855" lon="9.524138902854688"><ele>434.66666666666663</ele><time>2026-04-09T10:41:40.003Z</time></trkpt><trkpt lat="45.817513140622275" lon="9.523930860346729"><ele>434.3333333333333</ele><time>2026-04-09T10:41:41.003Z</time></trkpt><trkpt lat="45.81762583355194" lon="9.52373172544898"><ele>434.0</ele><time>2026-04-09T10:41:42.003Z</time></trkpt><trkpt lat="45.81771262540358" lon="9.523488336291855"><ele>436.3333333333333</ele><time>2026-04-09T10:41:43.003Z</time></trkpt><trkpt lat="45.817806192137056" lon="9.523239727843206"><ele>438.66666666666663</ele><time>2026-04-09T10:41:44.003Z</time></trkpt><trkpt lat="45.81789366736743" lon="9.522977669938397"><ele>441.0</ele><time>2026-04-09T10:41:45.003Z</time></trkpt><trkpt lat="45.81797817085844" lon="9.52271155505786"><ele>441.0</ele><time>2026-04-09T10:41:46.003Z</time></trkpt><trkpt lat="45.81806688741524" lon="9.522443870424187"><ele>441.0</ele><time>2026-04-09T10:41:47.003Z</time></trkpt><trkpt lat="45.818158545389785" lon="9.522171440741952"><ele>441.0</ele><time>2026-04-09T10:41:48.003Z</time></trkpt><trkpt lat="45.81824600566798" lon="9.521906704176684"><ele>439.33333333333337</ele><time>2026-04-09T10:41:49.003Z</time></trkpt><trkpt lat="45.81832640744545" lon="9.521647234112132"><ele>437.6666666666667</ele><time>2026-04-09T10:41:50.003Z</time></trkpt><trkpt lat="45.8183993578616" lon="9.521413129803136"><ele>436.0</ele><time>2026-04-09T10:41:51.003Z</time></trkpt><trkpt lat="45.81847770209673" lon="9.52120664504337"><ele>442.0</ele><time>2026-04-09T10:41:52.003Z</time></trkpt><trkpt lat="45.81854525462886" lon="9.520986950697367"><ele>448.0</ele><time>2026-04-09T10:41:53.003Z</time></trkpt><trkpt lat="45.81860904769851" lon="9.520788904581481"><ele>454.0</ele><time>2026-04-09T10:41:54.003Z</time></trkpt><trkpt lat="45.81866361472799" lon="9.520593284540702"><ele>452.0</ele><time>2026-04-09T10:41:55.003Z</time></trkpt><trkpt lat="45.8187113462014" lon="9.520386908966053"><ele>450.0</ele><time>2026-04-09T10:41:56.003Z</time></trkpt><trkpt lat="45.81875214619513" lon="9.520169956000078"><ele>448.0</ele><time>2026-04-09T10:41:57.003Z</time></trkpt><trkpt lat="45.818766699549286" lon="9.519946493217635"><ele>448.0</ele><time>2026-04-09T10:41:58.003Z</time></trkpt><trkpt lat="45.818780606388806" lon="9.519726726071411"><ele>448.0</ele><time>2026-04-09T10:41:58.999Z</time></trkpt><trkpt lat="45.81879927082452" lon="9.519511650835941"><ele>448.0</ele><time>2026-04-09T10:41:59.999Z</time></trkpt><trkpt lat="45.818826670101444" lon="9.519317585556113"><ele>448.0</ele><time>2026-04-09T10:42:00.999Z</time></trkpt><trkpt lat="45.818869609010335" lon="9.519125141538378"><ele>446.6666666666667</ele><time>2026-04-09T10:42:01.999Z</time></trkpt><trkpt lat="45.818934369271176" lon="9.518927929919954"><ele>445.33333333333337</ele><time>2026-04-09T10:42:02.999Z</time></trkpt><trkpt lat="45.81901209158209" lon="9.51871415860214"><ele>444.0</ele><time>2026-04-09T10:42:03.999Z</time></trkpt><trkpt lat="45.819089615869686" lon="9.51848502778739"><ele>442.33333333333337</ele><time>2026-04-09T10:42:04.999Z</time></trkpt><trkpt lat="45.81916765281704" lon="9.51826158681628"><ele>440.6666666666667</ele><time>2026-04-09T10:42:05.999Z</time></trkpt><trkpt lat="45.81925066324924" lon="9.518038342538235"><ele>439.0</ele><time>2026-04-09T10:42:07Z</time></trkpt><trkpt lat="45.819336402094464" lon="9.517800783982203"><ele>446.33333333333337</ele><time>2026-04-09T10:42:08Z</time></trkpt><trkpt lat="45.81941168150683" lon="9.517569658946286"><ele>453.66666666666663</ele><time>2026-04-09T10:42:09Z</time></trkpt><trkpt lat="45.81948934668723" lon="9.517344930530898"><ele>461.0</ele><time>2026-04-09T10:42:10Z</time></trkpt><trkpt lat="45.81956166634151" lon="9.51712400945705"><ele>459.0</ele><time>2026-04-09T10:42:11Z</time></trkpt><trkpt lat="45.81963304290423" lon="9.516897995387934"><ele>457.0</ele><time>2026-04-09T10:42:12Z</time></trkpt><trkpt lat="45.81969260761485" lon="9.516661553040482"><ele>455.0</ele><time>2026-04-09T10:42:13Z</time></trkpt><trkpt lat="45.81973920266756" lon="9.51641109455513"><ele>452.0</ele><time>2026-04-09T10:42:14Z</time></trkpt><trkpt lat="45.819781093751835" lon="9.516149101645007"><ele>449.0</ele><time>2026-04-09T10:42:15Z</time></trkpt><trkpt lat="45.81982733326099" lon="9.515884586100364"><ele>446.0</ele><time>2026-04-09T10:42:16Z</time></trkpt><trkpt lat="45.8198808695551" lon="9.515626726747879"><ele>445.0</ele><time>2026-04-09T10:42:17Z</time></trkpt><trkpt lat="45.81992457921254" lon="9.515388540504308"><ele>444.0</ele><time>2026-04-09T10:42:18Z</time></trkpt><trkpt lat="45.81996136850443" lon="9.515158562177712"><ele>443.0</ele><time>2026-04-09T10:42:19Z</time></trkpt><trkpt lat="45.81999952027648" lon="9.514935306967393"><ele>443.0</ele><time>2026-04-09T10:42:20Z</time></trkpt><trkpt lat="45.82003870436532" lon="9.514723746269174"><ele>443.0</ele><time>2026-04-09T10:42:21Z</time></trkpt><trkpt lat="45.820072491827474" lon="9.514529272314297"><ele>443.0</ele><time>2026-04-09T10:42:22Z</time></trkpt><trkpt lat="45.82010134424848" lon="9.514352760904568"><ele>443.0</ele><time>2026-04-09T10:42:23Z</time></trkpt><trkpt lat="45.8201409060012" lon="9.514178754836498"><ele>445.25</ele><time>2026-04-09T10:42:24Z</time></trkpt><trkpt lat="45.8201947143302" lon="9.514007077993462"><ele>447.5</ele><time>2026-04-09T10:42:25Z</time></trkpt><trkpt lat="45.8202631479008" lon="9.51384606282784"><ele>449.75</ele><time>2026-04-09T10:42:26Z</time></trkpt><trkpt lat="45.82035310467599" lon="9.513709589417418"><ele>452.0</ele><time>2026-04-09T10:42:27Z</time></trkpt><trkpt lat="45.820481187318364" lon="9.513613653097037"><ele>452.0</ele><time>2026-04-09T10:42:28Z</time></trkpt><trkpt lat="45.82057981419098" lon="9.513484437244244"><ele>452.0</ele><time>2026-04-09T10:42:29Z</time></trkpt><trkpt lat="45.82065466471354" lon="9.51336669547919"><ele>452.0</ele><time>2026-04-09T10:42:30Z</time></trkpt><trkpt lat="45.82070281225003" lon="9.513216232598268"><ele>452.0</ele><time>2026-04-09T10:42:31Z</time></trkpt><trkpt lat="45.82072808896263" lon="9.513026248629187"><ele>454.5</ele><time>2026-04-09T10:42:32Z</time></trkpt><trkpt lat="45.82073528952671" lon="9.512818828491973"><ele>457.0</ele><time>2026-04-09T10:42:33Z</time></trkpt><trkpt lat="45.82076734461643" lon="9.51264636014759"><ele>459.5</ele><time>2026-04-09T10:42:34Z</time></trkpt><trkpt lat="45.82081895948914" lon="9.512504231773182"><ele>462.0</ele><time>2026-04-09T10:42:35.001Z</time></trkpt><trkpt lat="45.820898415074424" lon="9.512390106507207"><ele>461.0</ele><time>2026-04-09T10:42:36.001Z</time></trkpt><trkpt lat="45.82102215745654" lon="9.512322857882847"><ele>460.0</ele><time>2026-04-09T10:42:37.001Z</time></trkpt><trkpt lat="45.821156047072485" lon="9.512235812434039"><ele>459.0</ele><time>2026-04-09T10:42:38.001Z</time></trkpt><trkpt lat="45.82127760997519" lon="9.512123294418275"><ele>458.0</ele><time>2026-04-09T10:42:39.001Z</time></trkpt><trkpt lat="45.82140624290802" lon="9.511992073214534"><ele>457.66666666666663</ele><time>2026-04-09T10:42:40.001Z</time></trkpt><trkpt lat="45.8215340950727" lon="9.511845677572191"><ele>457.33333333333337</ele><time>2026-04-09T10:42:41.001Z</time></trkpt><trkpt lat="45.82166735735932" lon="9.511696120277477"><ele>457.0</ele><time>2026-04-09T10:42:42.001Z</time></trkpt><trkpt lat="45.82179588548859" lon="9.511531842737254"><ele>459.0</ele><time>2026-04-09T10:42:43.001Z</time></trkpt><trkpt lat="45.82192946839476" lon="9.511357802697786"><ele>461.0</ele><time>2026-04-09T10:42:44.001Z</time></trkpt><trkpt lat="45.8220617750446" lon="9.511176525119186"><ele>463.0</ele><time>2026-04-09T10:42:45.001Z</time></trkpt><trkpt lat="45.82218679192873" lon="9.511012377793552"><ele>463.0</ele><time>2026-04-09T10:42:46.001Z</time></trkpt><trkpt lat="45.822317485302655" lon="9.510874598042511"><ele>463.0</ele><time>2026-04-09T10:42:47.001Z</time></trkpt><trkpt lat="45.82242848323882" lon="9.510738607888317"><ele>463.0</ele><time>2026-04-09T10:42:48.001Z</time></trkpt><trkpt lat="45.82252245199935" lon="9.510587746223862"><ele>463.0</ele><time>2026-04-09T10:42:49.001Z</time></trkpt><trkpt lat="45.82262602680778" lon="9.510469162084561"><ele>464.0</ele><time>2026-04-09T10:42:50.001Z</time></trkpt><trkpt lat="45.822721897509076" lon="9.51036365511903"><ele>464.99999999999994</ele><time>2026-04-09T10:42:51.001Z</time></trkpt><trkpt lat="45.82280625647803" lon="9.510250591021729"><ele>465.99999999999994</ele><time>2026-04-09T10:42:52.001Z</time></trkpt><trkpt lat="45.82287908644909" lon="9.51013091109783"><ele>467.0</ele><time>2026-04-09T10:42:53.001Z</time></trkpt><trkpt lat="45.82293034209771" lon="9.510009237087141"><ele>468.0</ele><time>2026-04-09T10:42:54.001Z</time></trkpt><trkpt lat="45.82296156203844" lon="9.509853043883956"><ele>468.0</ele><time>2026-04-09T10:42:55.001Z</time></trkpt><trkpt lat="45.82299399559732" lon="9.509695251418425"><ele>467.99999999999994</ele><time>2026-04-09T10:42:56.001Z</time></trkpt><trkpt lat="45.82304976477988" lon="9.509575944976008"><ele>467.99999999999994</ele><time>2026-04-09T10:42:57.001Z</time></trkpt><trkpt lat="45.823105997156915" lon="9.5094863201518"><ele>468.0</ele><time>2026-04-09T10:42:58.001Z</time></trkpt><trkpt lat="45.823181166497534" lon="9.509394774171176"><ele>468.0</ele><time>2026-04-09T10:42:59.001Z</time></trkpt><trkpt lat="45.823292783555075" lon="9.509339330512683"><ele>470.2</ele><time>2026-04-09T10:43:00.001Z</time></trkpt><trkpt lat="45.82340075435808" lon="9.509293419347154"><ele>472.4</ele><time>2026-04-09T10:43:01.001Z</time></trkpt><trkpt lat="45.82347579368885" lon="9.509241889892442"><ele>474.59999999999997</ele><time>2026-04-09T10:43:02.001Z</time></trkpt><trkpt lat="45.823512106280646" lon="9.509104876981075"><ele>476.79999999999995</ele><time>2026-04-09T10:43:04.001Z</time></trkpt><trkpt lat="45.8234290186999" lon="9.50901929775971"><ele>479.0</ele><time>2026-04-09T10:43:06.002Z</time></trkpt><trkpt lat="45.82335925539323" lon="9.509030745013177"><ele>479.6</ele><time>2026-04-09T10:43:07.002Z</time></trkpt><trkpt lat="45.82327315487573" lon="9.509071744955563"><ele>480.2</ele><time>2026-04-09T10:43:08.002Z</time></trkpt><trkpt lat="45.82318099578114" lon="9.50910297505373"><ele>480.80000000000007</ele><time>2026-04-09T10:43:09.002Z</time></trkpt><trkpt lat="45.823082868351605" lon="9.509138475318753"><ele>481.40000000000003</ele><time>2026-04-09T10:43:10.002Z</time></trkpt><trkpt lat="45.822993251657465" lon="9.50919784935771"><ele>482.0</ele><time>2026-04-09T10:43:11.002Z</time></trkpt><trkpt lat="45.82292239340859" lon="9.509279304878529"><ele>481.99999999999994</ele><time>2026-04-09T10:43:12.002Z</time></trkpt><trkpt lat="45.82286908774383" lon="9.509388932147399"><ele>482.0</ele><time>2026-04-09T10:43:13.002Z</time></trkpt><trkpt lat="45.82282877057957" lon="9.509486485260556"><ele>482.0</ele><time>2026-04-09T10:43:14.002Z</time></trkpt><trkpt lat="45.82278989283727" lon="9.509557868522752"><ele>482.0</ele><time>2026-04-09T10:43:15.002Z</time></trkpt><trkpt lat="45.822703073078394" lon="9.509600584092654"><ele>481.99999999999994</ele><time>2026-04-09T10:43:17.002Z</time></trkpt><trkpt lat="45.82266648450578" lon="9.509507040529101"><ele>482.0</ele><time>2026-04-09T10:43:19.002Z</time></trkpt><trkpt lat="45.82275194531045" lon="9.509412204764258"><ele>482.0</ele><time>2026-04-09T10:43:21.002Z</time></trkpt><trkpt lat="45.82279960165094" lon="9.509328360018923"><ele>482.00000000000006</ele><time>2026-04-09T10:43:22.002Z</time></trkpt><trkpt lat="45.82284824962818" lon="9.509200096745271"><ele>482.00000000000006</ele><time>2026-04-09T10:43:23.002Z</time></trkpt><trkpt lat="45.82292135261145" lon="9.509076093009401"><ele>482.0</ele><time>2026-04-09T10:43:24.002Z</time></trkpt><trkpt lat="45.82301471382566" lon="9.508993860807404"><ele>482.0</ele><time>2026-04-09T10:43:25.002Z</time></trkpt><trkpt lat="45.82310318742445" lon="9.508911106581104"><ele>482.0</ele><time>2026-04-09T10:43:26.002Z</time></trkpt><trkpt lat="45.82318243589532" lon="9.5087762598235"><ele>482.0</ele><time>2026-04-09T10:43:27.002Z</time></trkpt><trkpt lat="45.82326415457561" lon="9.508633546984596"><ele>482.0</ele><time>2026-04-09T10:43:28.002Z</time></trkpt><trkpt lat="45.8233612150862" lon="9.508481929633463"><ele>482.0</ele><time>2026-04-09T10:43:29.002Z</time></trkpt><trkpt lat="45.82344857937006" lon="9.508324352132345"><ele>482.0</ele><time>2026-04-09T10:43:30.002Z</time></trkpt><trkpt lat="45.82354039427331" lon="9.508187130927052"><ele>482.0</ele><time>2026-04-09T10:43:31.002Z</time></trkpt><trkpt lat="45.82363658431388" lon="9.508064124003964"><ele>482.0</ele><time>2026-04-09T10:43:32.002Z</time></trkpt><trkpt lat="45.82373647209428" lon="9.507943863235305"><ele>482.0</ele><time>2026-04-09T10:43:33.002Z</time></trkpt><trkpt lat="45.82385888021152" lon="9.507857122926925"><ele>486.25</ele><time>2026-04-09T10:43:34.002Z</time></trkpt><trkpt lat="45.82395833244371" lon="9.507783716141548"><ele>490.5</ele><time>2026-04-09T10:43:35.002Z</time></trkpt><trkpt lat="45.82404478219655" lon="9.507716865612327"><ele>494.75</ele><time>2026-04-09T10:43:36.002Z</time></trkpt><trkpt lat="45.824102316687956" lon="9.507562186250503"><ele>499.0</ele><time>2026-04-09T10:43:37.002Z</time></trkpt><trkpt lat="45.824157828653256" lon="9.50740791161467"><ele>499.0</ele><time>2026-04-09T10:43:38.002Z</time></trkpt><trkpt lat="45.82422640116566" lon="9.507274898814385"><ele>499.0</ele><time>2026-04-09T10:43:39.002Z</time></trkpt><trkpt lat="45.824324778924215" lon="9.507216281097094"><ele>499.0</ele><time>2026-04-09T10:43:40.003Z</time></trkpt><trkpt lat="45.82443907172625" lon="9.507200954054401"><ele>499.0</ele><time>2026-04-09T10:43:41.003Z</time></trkpt><trkpt lat="45.824572654741736" lon="9.507164963464211"><ele>500.75</ele><time>2026-04-09T10:43:42.003Z</time></trkpt><trkpt lat="45.82469222764689" lon="9.50710296728295"><ele>502.5</ele><time>2026-04-09T10:43:43.003Z</time></trkpt><trkpt lat="45.82481553559994" lon="9.507075787969622"><ele>504.25</ele><time>2026-04-09T10:43:44.003Z</time></trkpt><trkpt lat="45.82491528102391" lon="9.506968710705104"><ele>506.0</ele><time>2026-04-09T10:43:45.003Z</time></trkpt><trkpt lat="45.82500474150969" lon="9.50685258354463"><ele>506.0</ele><time>2026-04-09T10:43:46.003Z</time></trkpt><trkpt lat="45.82507803447528" lon="9.506728433939042"><ele>506.0</ele><time>2026-04-09T10:43:47.003Z</time></trkpt><trkpt lat="45.82515718967192" lon="9.506633996795852"><ele>506.0</ele><time>2026-04-09T10:43:48.003Z</time></trkpt><trkpt lat="45.82523695904844" lon="9.506566195778248"><ele>506.0</ele><time>2026-04-09T10:43:49.003Z</time></trkpt><trkpt lat="45.8253173361052" lon="9.506498234714991"><ele>506.0</ele><time>2026-04-09T10:43:50.003Z</time></trkpt><trkpt lat="45.82538928286831" lon="9.506408848657104"><ele>507.6</ele><time>2026-04-09T10:43:51.003Z</time></trkpt><trkpt lat="45.82545641469087" lon="9.506297108852785"><ele>509.20000000000005</ele><time>2026-04-09T10:43:52.003Z</time></trkpt><trkpt lat="45.82551910956345" lon="9.506170842294113"><ele>510.79999999999995</ele><time>2026-04-09T10:43:53.003Z</time></trkpt><trkpt lat="45.825586431125345" lon="9.5060446396473"><ele>512.4</ele><time>2026-04-09T10:43:54.003Z</time></trkpt><trkpt lat="45.825650557562604" lon="9.505932773275"><ele>514.0</ele><time>2026-04-09T10:43:55.003Z</time></trkpt><trkpt lat="45.82571187648304" lon="9.505807274780377"><ele>514.0</ele><time>2026-04-09T10:43:56.003Z</time></trkpt><trkpt lat="45.825784310496935" lon="9.505696983102826"><ele>514.0</ele><time>2026-04-09T10:43:57.003Z</time></trkpt><trkpt lat="45.825835365047936" lon="9.50557119568081"><ele>514.0</ele><time>2026-04-09T10:43:58.003Z</time></trkpt><trkpt lat="45.82586770320108" lon="9.505429650595309"><ele>514.0</ele><time>2026-04-09T10:43:59.003Z</time></trkpt><trkpt lat="45.82588348608929" lon="9.50527627816522"><ele>514.0</ele><time>2026-04-09T10:44:00.003Z</time></trkpt><trkpt lat="45.825914374902325" lon="9.505134757017164"><ele>516.2</ele><time>2026-04-09T10:44:01.003Z</time></trkpt><trkpt lat="45.82593976848542" lon="9.504981628534885"><ele>518.4</ele><time>2026-04-09T10:44:02.003Z</time></trkpt><trkpt lat="45.825958719423696" lon="9.50482912356112"><ele>520.6</ele><time>2026-04-09T10:44:03.003Z</time></trkpt><trkpt lat="45.82593964449323" lon="9.5046782986607"><ele>522.8</ele><time>2026-04-09T10:44:04.003Z</time></trkpt><trkpt lat="45.82592176274921" lon="9.504521251533083"><ele>525.0</ele><time>2026-04-09T10:44:05Z</time></trkpt><trkpt lat="45.825906082445336" lon="9.504370091812627"><ele>526.3333333333334</ele><time>2026-04-09T10:44:06Z</time></trkpt><trkpt lat="45.82592591163463" lon="9.504231921407978"><ele>527.6666666666666</ele><time>2026-04-09T10:44:07Z</time></trkpt><trkpt lat="45.82591820853968" lon="9.504101588535855"><ele>529.0</ele><time>2026-04-09T10:44:08Z</time></trkpt><trkpt lat="45.825909925541445" lon="9.503988194321199"><ele>530.3333333333333</ele><time>2026-04-09T10:44:09Z</time></trkpt><trkpt lat="45.825882825839344" lon="9.503888036158997"><ele>531.6666666666666</ele><time>2026-04-09T10:44:10Z</time></trkpt><trkpt lat="45.825833919985016" lon="9.503791429768414"><ele>533.0</ele><time>2026-04-09T10:44:11Z</time></trkpt><trkpt lat="45.825760418041575" lon="9.503678336390792"><ele>532.8</ele><time>2026-04-09T10:44:13Z</time></trkpt><trkpt lat="45.825735327786816" lon="9.503568654677077"><ele>532.5999999999999</ele><time>2026-04-09T10:44:15Z</time></trkpt><trkpt lat="45.82577053311723" lon="9.503453039671092"><ele>532.4000000000001</ele><time>2026-04-09T10:44:17Z</time></trkpt><trkpt lat="45.82587782298454" lon="9.503472139050738"><ele>532.2</ele><time>2026-04-09T10:44:19Z</time></trkpt><trkpt lat="45.825954307529905" lon="9.503526219396285"><ele>532.0</ele><time>2026-04-09T10:44:20Z</time></trkpt><trkpt lat="45.82604055479841" lon="9.503589039896328"><ele>532.0</ele><time>2026-04-09T10:44:21Z</time></trkpt><trkpt lat="45.82613407578658" lon="9.503633654329223"><ele>532.0</ele><time>2026-04-09T10:44:22Z</time></trkpt><trkpt lat="45.826218532077036" lon="9.503637186829037"><ele>532.0</ele><time>2026-04-09T10:44:23Z</time></trkpt><trkpt lat="45.826301050275276" lon="9.503611212108552"><ele>532.0</ele><time>2026-04-09T10:44:24Z</time></trkpt><trkpt lat="45.82637444341881" lon="9.503556571146666"><ele>532.0</ele><time>2026-04-09T10:44:25Z</time></trkpt><trkpt lat="45.8264399995814" lon="9.503474540920212"><ele>532.0</ele><time>2026-04-09T10:44:26Z</time></trkpt><trkpt lat="45.82648617738259" lon="9.503372895009155"><ele>532.0</ele><time>2026-04-09T10:44:27Z</time></trkpt><trkpt lat="45.826527631398534" lon="9.503273425084744"><ele>532.0</ele><time>2026-04-09T10:44:28Z</time></trkpt><trkpt lat="45.826586271951456" lon="9.503217806843034"><ele>532.0</ele><time>2026-04-09T10:44:29Z</time></trkpt><trkpt lat="45.82669142128548" lon="9.503147316002071"><ele>532.0</ele><time>2026-04-09T10:44:31Z</time></trkpt><trkpt lat="45.82675493893079" lon="9.503218874893061"><ele>532.0</ele><time>2026-04-09T10:44:32Z</time></trkpt><trkpt lat="45.826825846347674" lon="9.503253934421174"><ele>532.0</ele><time>2026-04-09T10:44:33Z</time></trkpt><trkpt lat="45.826866339080496" lon="9.503356065035366"><ele>533.3333333333334</ele><time>2026-04-09T10:44:34Z</time></trkpt><trkpt lat="45.82689632960197" lon="9.50346860857941"><ele>534.6666666666667</ele><time>2026-04-09T10:44:35.001Z</time></trkpt><trkpt lat="45.82693097744486" lon="9.50355025523754"><ele>536.0</ele><time>2026-04-09T10:44:36.001Z</time></trkpt><trkpt lat="45.8270220560677" lon="9.503595007971152"><ele>537.3333333333334</ele><time>2026-04-09T10:44:37.001Z</time></trkpt><trkpt lat="45.82710646077676" lon="9.503602499961405"><ele>538.6666666666666</ele><time>2026-04-09T10:44:38.001Z</time></trkpt><trkpt lat="45.82719564505108" lon="9.503602601622772"><ele>540.0</ele><time>2026-04-09T10:44:39.001Z</time></trkpt><trkpt lat="45.82729122960862" lon="9.503598692289739"><ele>540.0</ele><time>2026-04-09T10:44:40.001Z</time></trkpt><trkpt lat="45.82738979503177" lon="9.50360572313769"><ele>540.0</ele><time>2026-04-09T10:44:41.001Z</time></trkpt><trkpt lat="45.82748605362223" lon="9.503623665241765"><ele>540.0</ele><time>2026-04-09T10:44:42.001Z</time></trkpt><trkpt lat="45.827564129155824" lon="9.50363896806825"><ele>540.0</ele><time>2026-04-09T10:44:43.001Z</time></trkpt><trkpt lat="45.827628347924104" lon="9.503662903189637"><ele>540.0</ele><time>2026-04-09T10:44:44.001Z</time></trkpt><trkpt lat="45.827735057902515" lon="9.503738805256262"><ele>540.0</ele><time>2026-04-09T10:44:46.001Z</time></trkpt><trkpt lat="45.82781042765056" lon="9.503658492169597"><ele>540.0</ele><time>2026-04-09T10:44:48.001Z</time></trkpt><trkpt lat="45.827770087172865" lon="9.503503927528516"><ele>540.0</ele><time>2026-04-09T10:44:50.001Z</time></trkpt><trkpt lat="45.82769422916696" lon="9.50347153158793"><ele>540.0</ele><time>2026-04-09T10:44:51.001Z</time></trkpt><trkpt lat="45.82761429831145" lon="9.503467124580514"><ele>540.0</ele><time>2026-04-09T10:44:52.001Z</time></trkpt><trkpt lat="45.82752890104152" lon="9.503437718572409"><ele>540.0</ele><time>2026-04-09T10:44:53.001Z</time></trkpt><trkpt lat="45.82747057613817" lon="9.503336805056085"><ele>540.0</ele><time>2026-04-09T10:44:54.001Z</time></trkpt><trkpt lat="45.82739594761142" lon="9.503250459239656"><ele>540.0</ele><time>2026-04-09T10:44:55.001Z</time></trkpt><trkpt lat="45.827320653321024" lon="9.50316918438385"><ele>540.0</ele><time>2026-04-09T10:44:56.001Z</time></trkpt><trkpt lat="45.82725678660979" lon="9.503097027172053"><ele>540.0</ele><time>2026-04-09T10:44:57.001Z</time></trkpt><trkpt lat="45.82720914394784" lon="9.503023570488494"><ele>540.0</ele><time>2026-04-09T10:44:58.001Z</time></trkpt><trkpt lat="45.82716882816737" lon="9.502902170706065"><ele>540.0</ele><time>2026-04-09T10:45:00.001Z</time></trkpt><trkpt lat="45.82721353384023" lon="9.502828866656932"><ele>540.0</ele><time>2026-04-09T10:45:02.001Z</time></trkpt><trkpt lat="45.827330219213756" lon="9.502882944499865"><ele>540.0</ele><time>2026-04-09T10:45:04.001Z</time></trkpt><trkpt lat="45.827394911820825" lon="9.502917574123286"><ele>540.0</ele><time>2026-04-09T10:45:05.001Z</time></trkpt><trkpt lat="45.82745746153807" lon="9.50290643656372"><ele>540.0</ele><time>2026-04-09T10:45:06.002Z</time></trkpt><trkpt lat="45.82751422330562" lon="9.502832696753215"><ele>540.0</ele><time>2026-04-09T10:45:07.002Z</time></trkpt><trkpt lat="45.82754189675177" lon="9.502738333304551"><ele>540.6</ele><time>2026-04-09T10:45:08.002Z</time></trkpt><trkpt lat="45.82755373381493" lon="9.5026039216492"><ele>541.2</ele><time>2026-04-09T10:45:09.002Z</time></trkpt><trkpt lat="45.827562171832604" lon="9.50247811493185"><ele>541.8</ele><time>2026-04-09T10:45:10.002Z</time></trkpt><trkpt lat="45.827594178254934" lon="9.502341910986859"><ele>542.4</ele><time>2026-04-09T10:45:11.002Z</time></trkpt><trkpt lat="45.827652536727925" lon="9.502219911181841"><ele>543.0</ele><time>2026-04-09T10:45:12.002Z</time></trkpt><trkpt lat="45.827719510900415" lon="9.502107247806519"><ele>544.5</ele><time>2026-04-09T10:45:13.002Z</time></trkpt><trkpt lat="45.827792770364105" lon="9.50203110918786"><ele>546.0</ele><time>2026-04-09T10:45:14.002Z</time></trkpt><trkpt lat="45.82783201078278" lon="9.501960198472927"><ele>547.5</ele><time>2026-04-09T10:45:15.002Z</time></trkpt><trkpt lat="45.82785246889691" lon="9.501854805272618"><ele>549.0</ele><time>2026-04-09T10:45:16.002Z</time></trkpt><trkpt lat="45.82783849152406" lon="9.50171239219415"><ele>550.5</ele><time>2026-04-09T10:45:17.002Z</time></trkpt><trkpt lat="45.82785017198476" lon="9.501564744174098"><ele>552.0</ele><time>2026-04-09T10:45:18.002Z</time></trkpt><trkpt lat="45.827837180419266" lon="9.501405165483794"><ele>552.0</ele><time>2026-04-09T10:45:19.002Z</time></trkpt><trkpt lat="45.827852921082034" lon="9.501258178552908"><ele>552.0</ele><time>2026-04-09T10:45:20.002Z</time></trkpt><trkpt lat="45.827854621161336" lon="9.501128153412369"><ele>552.0</ele><time>2026-04-09T10:45:21.002Z</time></trkpt><trkpt lat="45.82786041449445" lon="9.501002964417577"><ele>552.0</ele><time>2026-04-09T10:45:22.002Z</time></trkpt><trkpt lat="45.82787460399724" lon="9.500884830798615"><ele>552.0</ele><time>2026-04-09T10:45:23.002Z</time></trkpt><trkpt lat="45.82790593560014" lon="9.500786167533317"><ele>552.0</ele><time>2026-04-09T10:45:24.002Z</time></trkpt><trkpt lat="45.827968549649796" lon="9.500719209557058"><ele>554.3333333333334</ele><time>2026-04-09T10:45:25.002Z</time></trkpt><trkpt lat="45.82803598174124" lon="9.500672727733727"><ele>556.6666666666666</ele><time>2026-04-09T10:45:26.002Z</time></trkpt><trkpt lat="45.82811181118962" lon="9.50058013334409"><ele>559.0</ele><time>2026-04-09T10:45:28.002Z</time></trkpt><trkpt lat="45.82808025351537" lon="9.500436778473405"><ele>561.3333333333333</ele><time>2026-04-09T10:45:30.002Z</time></trkpt><trkpt lat="45.828014898598546" lon="9.500407446427564"><ele>563.6666666666666</ele><time>2026-04-09T10:45:31.002Z</time></trkpt><trkpt lat="45.827945769430094" lon="9.50047320031856"><ele>566.0</ele><time>2026-04-09T10:45:32.002Z</time></trkpt><trkpt lat="45.82784192454068" lon="9.500519882415784"><ele>566.0</ele><time>2026-04-09T10:45:34.002Z</time></trkpt><trkpt lat="45.82779144495409" lon="9.500465298735808"><ele>566.0</ele><time>2026-04-09T10:45:35.002Z</time></trkpt><trkpt lat="45.82774593627383" lon="9.500375588292203"><ele>566.0</ele><time>2026-04-09T10:45:36.002Z</time></trkpt><trkpt lat="45.827698662381316" lon="9.500262210405825"><ele>566.0</ele><time>2026-04-09T10:45:37.002Z</time></trkpt><trkpt lat="45.82764250722802" lon="9.500153222114324"><ele>566.0</ele><time>2026-04-09T10:45:38.002Z</time></trkpt><trkpt lat="45.82757745990171" lon="9.500049117774381"><ele>566.0</ele><time>2026-04-09T10:45:39.003Z</time></trkpt><trkpt lat="45.827499708194374" lon="9.499960116289747"><ele>569.0</ele><time>2026-04-09T10:45:40.003Z</time></trkpt><trkpt lat="45.827409577099075" lon="9.499907607663742"><ele>572.0</ele><time>2026-04-09T10:45:41.003Z</time></trkpt><trkpt lat="45.82731998347747" lon="9.499904639514991"><ele>575.0</ele><time>2026-04-09T10:45:42.003Z</time></trkpt><trkpt lat="45.82724383675301" lon="9.499917490219246"><ele>578.0</ele><time>2026-04-09T10:45:43.003Z</time></trkpt><trkpt lat="45.827159176493375" lon="9.49989195810481"><ele>581.0</ele><time>2026-04-09T10:45:45.003Z</time></trkpt><trkpt lat="45.82718674478729" lon="9.49975880025221"><ele>584.0</ele><time>2026-04-09T10:45:47.003Z</time></trkpt><trkpt lat="45.82730411031699" lon="9.499731644286962"><ele>584.0</ele><time>2026-04-09T10:45:49.003Z</time></trkpt><trkpt lat="45.827383870458455" lon="9.499743475981244"><ele>584.0</ele><time>2026-04-09T10:45:50.003Z</time></trkpt><trkpt lat="45.827475024466274" lon="9.499741589082484"><ele>584.0</ele><time>2026-04-09T10:45:51.003Z</time></trkpt><trkpt lat="45.82757100039815" lon="9.49972833509266"><ele>584.0</ele><time>2026-04-09T10:45:52.003Z</time></trkpt><trkpt lat="45.8276665813361" lon="9.49971510575922"><ele>584.0</ele><time>2026-04-09T10:45:53.003Z</time></trkpt><trkpt lat="45.82775098216239" lon="9.499697218797692"><ele>584.0</ele><time>2026-04-09T10:45:54.003Z</time></trkpt><trkpt lat="45.82781079521473" lon="9.499649858111654"><ele>585.4</ele><time>2026-04-09T10:45:55.003Z</time></trkpt><trkpt lat="45.82786080473757" lon="9.499562792856398"><ele>586.8</ele><time>2026-04-09T10:45:56.003Z</time></trkpt><trkpt lat="45.8279067740168" lon="9.499437622012838"><ele>588.2</ele><time>2026-04-09T10:45:57.003Z</time></trkpt><trkpt lat="45.82795387509475" lon="9.499320793048236"><ele>589.6</ele><time>2026-04-09T10:45:58.003Z</time></trkpt><trkpt lat="45.82798830218588" lon="9.499223526108786"><ele>591.0</ele><time>2026-04-09T10:45:59.003Z</time></trkpt><trkpt lat="45.82797182874904" lon="9.499074704032756"><ele>591.0</ele><time>2026-04-09T10:46:01.003Z</time></trkpt><trkpt lat="45.827850776382675" lon="9.499021030767265"><ele>591.0</ele><time>2026-04-09T10:46:03.003Z</time></trkpt><trkpt lat="45.82776371315938" lon="9.499046823911442"><ele>591.0</ele><time>2026-04-09T10:46:04.003Z</time></trkpt><trkpt lat="45.827680461450655" lon="9.499074226222827"><ele>591.0</ele><time>2026-04-09T10:46:05.003Z</time></trkpt><trkpt lat="45.827606001317584" lon="9.49907575474871"><ele>591.0</ele><time>2026-04-09T10:46:06.003Z</time></trkpt><trkpt lat="45.82753575828887" lon="9.499037440386461"><ele>591.5</ele><time>2026-04-09T10:46:07.003Z</time></trkpt><trkpt lat="45.827479271019506" lon="9.4989756329057"><ele>592.0</ele><time>2026-04-09T10:46:08.003Z</time></trkpt><trkpt lat="45.82746248569675" lon="9.498863315175296"><ele>592.5</ele><time>2026-04-09T10:46:09.003Z</time></trkpt><trkpt lat="45.82743504008604" lon="9.498760059440592"><ele>593.0</ele><time>2026-04-09T10:46:10.003Z</time></trkpt><trkpt lat="45.82741268819207" lon="9.49863488383541"><ele>593.5</ele><time>2026-04-09T10:46:11Z</time></trkpt><trkpt lat="45.8273833439188" lon="9.498497826258037"><ele>594.0</ele><time>2026-04-09T10:46:12Z</time></trkpt><trkpt lat="45.82736982755987" lon="9.49834718638292"><ele>596.0</ele><time>2026-04-09T10:46:13Z</time></trkpt><trkpt lat="45.82736195388233" lon="9.49818302055331"><ele>598.0</ele><time>2026-04-09T10:46:14Z</time></trkpt><trkpt lat="45.82733511542525" lon="9.498028958143866"><ele>600.0</ele><time>2026-04-09T10:46:15Z</time></trkpt><trkpt lat="45.82730361910528" lon="9.497895119650185"><ele>602.0</ele><time>2026-04-09T10:46:16Z</time></trkpt><trkpt lat="45.8272847766744" lon="9.49779562366586"><ele>604.0</ele><time>2026-04-09T10:46:17Z</time></trkpt><trkpt lat="45.82733092099077" lon="9.49763552906311"><ele>605.6666666666667</ele><time>2026-04-09T10:46:19Z</time></trkpt><trkpt lat="45.82739039011209" lon="9.497565053168168"><ele>607.3333333333334</ele><time>2026-04-09T10:46:20Z</time></trkpt><trkpt lat="45.82746422182216" lon="9.49749937739132"><ele>609.0</ele><time>2026-04-09T10:46:21Z</time></trkpt><trkpt lat="45.82754097505853" lon="9.497428933049502"><ele>610.6666666666666</ele><time>2026-04-09T10:46:22Z</time></trkpt><trkpt lat="45.827609516600134" lon="9.497355292181714"><ele>612.3333333333333</ele><time>2026-04-09T10:46:23Z</time></trkpt><trkpt lat="45.82767443794775" lon="9.497293558049583"><ele>614.0</ele><time>2026-04-09T10:46:24Z</time></trkpt><trkpt lat="45.82773857872154" lon="9.497155661660997"><ele>614.0</ele><time>2026-04-09T10:46:26Z</time></trkpt><trkpt lat="45.82767574001019" lon="9.497031785281907"><ele>614.0</ele><time>2026-04-09T10:46:28Z</time></trkpt><trkpt lat="45.82760855151739" lon="9.497035577968767"><ele>614.0</ele><time>2026-04-09T10:46:29Z</time></trkpt><trkpt lat="45.82753528652656" lon="9.497071467747553"><ele>614.0</ele><time>2026-04-09T10:46:30Z</time></trkpt><trkpt lat="45.82746867543512" lon="9.497098100668167"><ele>614.0</ele><time>2026-04-09T10:46:31Z</time></trkpt><trkpt lat="45.827359479517156" lon="9.49711571130717"><ele>614.0</ele><time>2026-04-09T10:46:32Z</time></trkpt><trkpt lat="45.827255031742254" lon="9.49712325011948"><ele>617.0</ele><time>2026-04-09T10:46:33Z</time></trkpt><trkpt lat="45.82716003572476" lon="9.497073313763483"><ele>620.0</ele><time>2026-04-09T10:46:34Z</time></trkpt><trkpt lat="45.82704986446659" lon="9.497040941230363"><ele>623.0</ele><time>2026-04-09T10:46:35Z</time></trkpt><trkpt lat="45.82693571481428" lon="9.496990053784446"><ele>626.0</ele><time>2026-04-09T10:46:36Z</time></trkpt><trkpt lat="45.82682790934744" lon="9.496949025237077"><ele>629.0</ele><time>2026-04-09T10:46:37Z</time></trkpt><trkpt lat="45.82673621280274" lon="9.496914412940408"><ele>629.5714285714286</ele><time>2026-04-09T10:46:38Z</time></trkpt><trkpt lat="45.82665887252287" lon="9.496888499829254"><ele>630.1428571428572</ele><time>2026-04-09T10:46:39Z</time></trkpt><trkpt lat="45.826584739751404" lon="9.496861213695594"><ele>630.7142857142858</ele><time>2026-04-09T10:46:40Z</time></trkpt><trkpt lat="45.82651702484351" lon="9.496827457381094"><ele>631.2857142857142</ele><time>2026-04-09T10:46:41Z</time></trkpt><trkpt lat="45.826457310343194" lon="9.496784071341041"><ele>631.8571428571429</ele><time>2026-04-09T10:46:42Z</time></trkpt><trkpt lat="45.82641314715359" lon="9.496712665044113"><ele>632.4285714285714</ele><time>2026-04-09T10:46:43Z</time></trkpt><trkpt lat="45.8264308808255" lon="9.496616427217829"><ele>633.0</ele><time>2026-04-09T10:46:44.001Z</time></trkpt><trkpt lat="45.82643051036788" lon="9.496522908431315"><ele>633.0</ele><time>2026-04-09T10:46:45.001Z</time></trkpt><trkpt lat="45.826431246786285" lon="9.496414589378801"><ele>633.0</ele><time>2026-04-09T10:46:46.001Z</time></trkpt><trkpt lat="45.826421587993025" lon="9.496297622174593"><ele>633.0</ele><time>2026-04-09T10:46:47.001Z</time></trkpt><trkpt lat="45.8264281525691" lon="9.496169090801086"><ele>633.0</ele><time>2026-04-09T10:46:48.001Z</time></trkpt><trkpt lat="45.82644601448491" lon="9.496031592766341"><ele>633.0</ele><time>2026-04-09T10:46:49.001Z</time></trkpt><trkpt lat="45.82647493315427" lon="9.49589378076154"><ele>633.0</ele><time>2026-04-09T10:46:50.001Z</time></trkpt><trkpt lat="45.826511755732554" lon="9.495771228812949"><ele>634.4</ele><time>2026-04-09T10:46:51.001Z</time></trkpt><trkpt lat="45.82656424318711" lon="9.495674712864062"><ele>635.8</ele><time>2026-04-09T10:46:52.001Z</time></trkpt><trkpt lat="45.82663966668204" lon="9.495610387276415"><ele>637.2</ele><time>2026-04-09T10:46:53.001Z</time></trkpt><trkpt lat="45.826728424189376" lon="9.495577616289632"><ele>638.6</ele><time>2026-04-09T10:46:54.001Z</time></trkpt><trkpt lat="45.826839872890375" lon="9.49557178978671"><ele>640.0</ele><time>2026-04-09T10:46:55.001Z</time></trkpt><trkpt lat="45.82695631053973" lon="9.495562090516339"><ele>640.75</ele><time>2026-04-09T10:46:56.001Z</time></trkpt><trkpt lat="45.82707936899833" lon="9.49552469805056"><ele>641.5</ele><time>2026-04-09T10:46:57.001Z</time></trkpt><trkpt lat="45.82719118987289" lon="9.49555496582257"><ele>642.25</ele><time>2026-04-09T10:46:58.001Z</time></trkpt><trkpt lat="45.82730032488591" lon="9.495584698963016"><ele>643.0</ele><time>2026-04-09T10:46:59.001Z</time></trkpt><trkpt lat="45.82741771674079" lon="9.49561352422901"><ele>643.0</ele><time>2026-04-09T10:47:00.001Z</time></trkpt><trkpt lat="45.82753539199508" lon="9.495668855174346"><ele>643.0</ele><time>2026-04-09T10:47:01.001Z</time></trkpt><trkpt lat="45.827662319377055" lon="9.495708436369902"><ele>643.0</ele><time>2026-04-09T10:47:02.001Z</time></trkpt><trkpt lat="45.82777915567464" lon="9.495747720236954"><ele>643.0</ele><time>2026-04-09T10:47:03.001Z</time></trkpt><trkpt lat="45.82788691203676" lon="9.495813303601256"><ele>644.2</ele><time>2026-04-09T10:47:04.001Z</time></trkpt><trkpt lat="45.82797060078507" lon="9.495825517959577"><ele>645.4</ele><time>2026-04-09T10:47:05.001Z</time></trkpt><trkpt lat="45.828055465157384" lon="9.495844270006366"><ele>646.6</ele><time>2026-04-09T10:47:06.001Z</time></trkpt><trkpt lat="45.82814428765798" lon="9.49583680662944"><ele>647.8000000000001</ele><time>2026-04-09T10:47:07.001Z</time></trkpt><trkpt lat="45.8282311775005" lon="9.495782298364844"><ele>649.0</ele><time>2026-04-09T10:47:08.001Z</time></trkpt><trkpt lat="45.828308961375406" lon="9.495681901553777"><ele>649.0</ele><time>2026-04-09T10:47:09.001Z</time></trkpt><trkpt lat="45.82838102536716" lon="9.495560270362207"><ele>649.0</ele><time>2026-04-09T10:47:10.001Z</time></trkpt><trkpt lat="45.82845225946773" lon="9.495431751142371"><ele>649.0</ele><time>2026-04-09T10:47:11.001Z</time></trkpt><trkpt lat="45.82853762913986" lon="9.49533422257421"><ele>649.0</ele><time>2026-04-09T10:47:12.001Z</time></trkpt><trkpt lat="45.82859898751847" lon="9.49521029872019"><ele>649.0</ele><time>2026-04-09T10:47:13.001Z</time></trkpt><trkpt lat="45.82866189327815" lon="9.495111287886413"><ele>649.4000000000001</ele><time>2026-04-09T10:47:14.001Z</time></trkpt><trkpt lat="45.82869371439496" lon="9.494996400420197"><ele>649.8</ele><time>2026-04-09T10:47:15.002Z</time></trkpt><trkpt lat="45.828693556573505" lon="9.494862792567874"><ele>650.2</ele><time>2026-04-09T10:47:16.002Z</time></trkpt><trkpt lat="45.828667992774584" lon="9.494717703593434"><ele>650.5999999999999</ele><time>2026-04-09T10:47:17.002Z</time></trkpt><trkpt lat="45.828622371804954" lon="9.494569902307049"><ele>651.0</ele><time>2026-04-09T10:47:18.002Z</time></trkpt><trkpt lat="45.828600395331435" lon="9.49440324639205"><ele>651.0</ele><time>2026-04-09T10:47:19.002Z</time></trkpt><trkpt lat="45.8285708515928" lon="9.494259233519601"><ele>651.0</ele><time>2026-04-09T10:47:20.002Z</time></trkpt><trkpt lat="45.82855981913008" lon="9.494137749296112"><ele>651.0</ele><time>2026-04-09T10:47:21.002Z</time></trkpt><trkpt lat="45.82856996349074" lon="9.494023905647238"><ele>651.0</ele><time>2026-04-09T10:47:22.002Z</time></trkpt><trkpt lat="45.828595593215624" lon="9.49390688893396"><ele>651.0</ele><time>2026-04-09T10:47:23.002Z</time></trkpt><trkpt lat="45.8286865062757" lon="9.493832908473758"><ele>654.25</ele><time>2026-04-09T10:47:24.002Z</time></trkpt><trkpt lat="45.82877830884607" lon="9.493723471963946"><ele>657.5</ele><time>2026-04-09T10:47:25.002Z</time></trkpt><trkpt lat="45.82886914870313" lon="9.493607315938823"><ele>660.75</ele><time>2026-04-09T10:47:26.002Z</time></trkpt><trkpt lat="45.82896028169352" lon="9.493489625588964"><ele>664.0</ele><time>2026-04-09T10:47:27.002Z</time></trkpt><trkpt lat="45.829048456916404" lon="9.493371612959798"><ele>664.0</ele><time>2026-04-09T10:47:28.002Z</time></trkpt><trkpt lat="45.82913797726999" lon="9.493247133915148"><ele>664.0</ele><time>2026-04-09T10:47:29.002Z</time></trkpt><trkpt lat="45.82921029892165" lon="9.493110787949071"><ele>664.0</ele><time>2026-04-09T10:47:30.002Z</time></trkpt><trkpt lat="45.82928487661455" lon="9.492991779539494"><ele>664.0</ele><time>2026-04-09T10:47:31.002Z</time></trkpt><trkpt lat="45.82935825104948" lon="9.49287127447357"><ele>665.5</ele><time>2026-04-09T10:47:32.002Z</time></trkpt><trkpt lat="45.829379369138536" lon="9.492678497487852"><ele>667.0</ele><time>2026-04-09T10:47:33.002Z</time></trkpt><trkpt lat="45.829412887869" lon="9.492482026667474"><ele>668.5</ele><time>2026-04-09T10:47:34.002Z</time></trkpt><trkpt lat="45.82946560747876" lon="9.492289882385212"><ele>670.0</ele><time>2026-04-09T10:47:35.002Z</time></trkpt><trkpt lat="45.82951471146883" lon="9.492089214181474"><ele>670.0</ele><time>2026-04-09T10:47:36.002Z</time></trkpt><trkpt lat="45.82957295374285" lon="9.491907472201913"><ele>670.0</ele><time>2026-04-09T10:47:37.002Z</time></trkpt><trkpt lat="45.82962831132882" lon="9.491749445718884"><ele>670.0</ele><time>2026-04-09T10:47:38.002Z</time></trkpt><trkpt lat="45.82967833649709" lon="9.491585391582483"><ele>670.0</ele><time>2026-04-09T10:47:39.002Z</time></trkpt><trkpt lat="45.82971485266562" lon="9.491411570484107"><ele>671.0</ele><time>2026-04-09T10:47:40.002Z</time></trkpt><trkpt lat="45.82972274024054" lon="9.49123428113047"><ele>672.0</ele><time>2026-04-09T10:47:41.002Z</time></trkpt><trkpt lat="45.829732864639624" lon="9.491083791870615"><ele>673.0</ele><time>2026-04-09T10:47:42.002Z</time></trkpt><trkpt lat="45.82973323734196" lon="9.49094703009353"><ele>674.0</ele><time>2026-04-09T10:47:43.002Z</time></trkpt><trkpt lat="45.82970910238836" lon="9.490805843016739"><ele>675.0</ele><time>2026-04-09T10:47:44.002Z</time></trkpt><trkpt lat="45.829656650414854" lon="9.490664748349658"><ele>675.0</ele><time>2026-04-09T10:47:45.002Z</time></trkpt><trkpt lat="45.82958728510968" lon="9.490542622959422"><ele>675.0</ele><time>2026-04-09T10:47:46.002Z</time></trkpt><trkpt lat="45.8295334899065" lon="9.49040788338992"><ele>675.0</ele><time>2026-04-09T10:47:47.002Z</time></trkpt><trkpt lat="45.8295012310027" lon="9.49025960810175"><ele>675.0</ele><time>2026-04-09T10:47:48.003Z</time></trkpt><trkpt lat="45.82952724980744" lon="9.490103221660883"><ele>675.0</ele><time>2026-04-09T10:47:49.003Z</time></trkpt><trkpt lat="45.829520861357494" lon="9.489930393930722"><ele>675.5</ele><time>2026-04-09T10:47:50.003Z</time></trkpt><trkpt lat="45.829536259387005" lon="9.489761954266745"><ele>676.0</ele><time>2026-04-09T10:47:51.003Z</time></trkpt><trkpt lat="45.8295483507865" lon="9.489586598296427"><ele>676.5</ele><time>2026-04-09T10:47:52.003Z</time></trkpt><trkpt lat="45.82955785054471" lon="9.489408664107673"><ele>677.0</ele><time>2026-04-09T10:47:53.003Z</time></trkpt><trkpt lat="45.82958503643936" lon="9.48924145644171"><ele>678.4000000000001</ele><time>2026-04-09T10:47:54.003Z</time></trkpt><trkpt lat="45.82959521787369" lon="9.489093483672422"><ele>679.8000000000001</ele><time>2026-04-09T10:47:55.003Z</time></trkpt><trkpt lat="45.82958768743453" lon="9.488956303401919"><ele>681.2</ele><time>2026-04-09T10:47:56.003Z</time></trkpt><trkpt lat="45.829603623114615" lon="9.488841582761589"><ele>682.6</ele><time>2026-04-09T10:47:57.003Z</time></trkpt><trkpt lat="45.82960111448722" lon="9.488740984189059"><ele>684.0</ele><time>2026-04-09T10:47:58.003Z</time></trkpt><trkpt lat="45.82954517886734" lon="9.48859769490958"><ele>684.0</ele><time>2026-04-09T10:48:00.003Z</time></trkpt><trkpt lat="45.82948352728501" lon="9.488565983543324"><ele>684.0</ele><time>2026-04-09T10:48:01.003Z</time></trkpt><trkpt lat="45.82939598487106" lon="9.48863492159174"><ele>684.0</ele><time>2026-04-09T10:48:02.003Z</time></trkpt><trkpt lat="45.82936741990055" lon="9.48875975445781"><ele>684.0</ele><time>2026-04-09T10:48:03.003Z</time></trkpt><trkpt lat="45.82936264505262" lon="9.488869561217768"><ele>684.0</ele><time>2026-04-09T10:48:04.003Z</time></trkpt><trkpt lat="45.829380016515934" lon="9.488988747968286"><ele>684.0</ele><time>2026-04-09T10:48:05.003Z</time></trkpt><trkpt lat="45.82939676403745" lon="9.489133975550136"><ele>684.0</ele><time>2026-04-09T10:48:06.003Z</time></trkpt><trkpt lat="45.829394429877084" lon="9.489289694488454"><ele>684.0</ele><time>2026-04-09T10:48:07.003Z</time></trkpt><trkpt lat="45.82936015730319" lon="9.489453262243543"><ele>684.0</ele><time>2026-04-09T10:48:08.003Z</time></trkpt><trkpt lat="45.82931162781267" lon="9.489619400614972"><ele>684.0</ele><time>2026-04-09T10:48:09.003Z</time></trkpt><trkpt lat="45.82926535925765" lon="9.489795079514353"><ele>688.5</ele><time>2026-04-09T10:48:10.003Z</time></trkpt><trkpt lat="45.82922217913458" lon="9.489993254667702"><ele>693.0</ele><time>2026-04-09T10:48:11.003Z</time></trkpt><trkpt lat="45.82916065745358" lon="9.490191642241934"><ele>697.5</ele><time>2026-04-09T10:48:12.003Z</time></trkpt><trkpt lat="45.82909237476694" lon="9.490362369626546"><ele>702.0</ele><time>2026-04-09T10:48:13.003Z</time></trkpt><trkpt lat="45.829028859269734" lon="9.49051891589991"><ele>702.0</ele><time>2026-04-09T10:48:14.003Z</time></trkpt><trkpt lat="45.82896506316473" lon="9.490677297441104"><ele>702.0</ele><time>2026-04-09T10:48:15.003Z</time></trkpt><trkpt lat="45.828904341822195" lon="9.49085878111565"><ele>702.0</ele><time>2026-04-09T10:48:16.003Z</time></trkpt><trkpt lat="45.82885819999641" lon="9.491033345433104"><ele>702.0</ele><time>2026-04-09T10:48:16.999Z</time></trkpt><trkpt lat="45.8288111731517" lon="9.491174985209494"><ele>699.0</ele><time>2026-04-09T10:48:17.999Z</time></trkpt><trkpt lat="45.82876323368383" lon="9.491369272164352"><ele>696.0</ele><time>2026-04-09T10:48:18.999Z</time></trkpt><trkpt lat="45.82868643944126" lon="9.491534753434422"><ele>693.0</ele><time>2026-04-09T10:48:19.999Z</time></trkpt><trkpt lat="45.82860083292069" lon="9.491677476516987"><ele>690.0</ele><time>2026-04-09T10:48:20.999Z</time></trkpt><trkpt lat="45.828473714529245" lon="9.491774619427755"><ele>693.6666666666666</ele><time>2026-04-09T10:48:21.999Z</time></trkpt><trkpt lat="45.82835634716987" lon="9.49191185184943"><ele>697.3333333333333</ele><time>2026-04-09T10:48:23Z</time></trkpt><trkpt lat="45.82822535851951" lon="9.492025269948591"><ele>701.0</ele><time>2026-04-09T10:48:24Z</time></trkpt><trkpt lat="45.828097377933304" lon="9.492140460254397"><ele>701.0</ele><time>2026-04-09T10:48:25Z</time></trkpt><trkpt lat="45.82798755952777" lon="9.492253709282263"><ele>701.0</ele><time>2026-04-09T10:48:26Z</time></trkpt><trkpt lat="45.82788338178334" lon="9.492334895362193"><ele>701.0</ele><time>2026-04-09T10:48:27Z</time></trkpt><trkpt lat="45.827784248048935" lon="9.49237179408293"><ele>701.0</ele><time>2026-04-09T10:48:28Z</time></trkpt><trkpt lat="45.82766115926231" lon="9.492360025920902"><ele>704.75</ele><time>2026-04-09T10:48:29Z</time></trkpt><trkpt lat="45.82754651839581" lon="9.492342074550653"><ele>708.5</ele><time>2026-04-09T10:48:30Z</time></trkpt><trkpt lat="45.827402347835466" lon="9.492330117316602"><ele>712.25</ele><time>2026-04-09T10:48:31Z</time></trkpt><trkpt lat="45.82727597994908" lon="9.492299844169876"><ele>716.0</ele><time>2026-04-09T10:48:32Z</time></trkpt><trkpt lat="45.82715300420912" lon="9.492284627023176"><ele>716.0</ele><time>2026-04-09T10:48:33Z</time></trkpt><trkpt lat="45.82704134288585" lon="9.492222380971839"><ele>716.0</ele><time>2026-04-09T10:48:34Z</time></trkpt><trkpt lat="45.82693194642934" lon="9.492149424299692"><ele>716.0</ele><time>2026-04-09T10:48:35Z</time></trkpt><trkpt lat="45.826833511902855" lon="9.492046254693333"><ele>716.0</ele><time>2026-04-09T10:48:36Z</time></trkpt><trkpt lat="45.826737832719914" lon="9.491931761001185"><ele>719.25</ele><time>2026-04-09T10:48:37Z</time></trkpt><trkpt lat="45.826650435087004" lon="9.491808388122244"><ele>722.5</ele><time>2026-04-09T10:48:38Z</time></trkpt><trkpt lat="45.826579876142745" lon="9.491665647366135"><ele>725.75</ele><time>2026-04-09T10:48:39Z</time></trkpt><trkpt lat="45.82652496593912" lon="9.491517791732466"><ele>729.0</ele><time>2026-04-09T10:48:40Z</time></trkpt><trkpt lat="45.82650776280403" lon="9.491341332210547"><ele>732.0</ele><time>2026-04-09T10:48:41Z</time></trkpt><trkpt lat="45.82644962219401" lon="9.491179236439573"><ele>735.0</ele><time>2026-04-09T10:48:42Z</time></trkpt><trkpt lat="45.82639034560885" lon="9.491021782667648"><ele>738.0</ele><time>2026-04-09T10:48:43Z</time></trkpt><trkpt lat="45.82630702086133" lon="9.490896913885456"><ele>741.0</ele><time>2026-04-09T10:48:44Z</time></trkpt><trkpt lat="45.82620131184386" lon="9.490790602385118"><ele>741.0</ele><time>2026-04-09T10:48:45Z</time></trkpt><trkpt lat="45.82608948738675" lon="9.490685764070738"><ele>741.0</ele><time>2026-04-09T10:48:46Z</time></trkpt><trkpt lat="45.82599557467007" lon="9.490548674439696"><ele>741.0</ele><time>2026-04-09T10:48:47Z</time></trkpt><trkpt lat="45.82589326160589" lon="9.490434302673998"><ele>741.0</ele><time>2026-04-09T10:48:48Z</time></trkpt><trkpt lat="45.825794477137464" lon="9.49032435558306"><ele>741.0</ele><time>2026-04-09T10:48:49Z</time></trkpt><trkpt lat="45.82568960052407" lon="9.490236190636184"><ele>741.0</ele><time>2026-04-09T10:48:50.001Z</time></trkpt><trkpt lat="45.825624807597684" lon="9.490108521695419"><ele>741.0</ele><time>2026-04-09T10:48:51.001Z</time></trkpt><trkpt lat="45.82557016305631" lon="9.489983891397943"><ele>741.0</ele><time>2026-04-09T10:48:52.001Z</time></trkpt><trkpt lat="45.82552549872763" lon="9.48984807548298"><ele>741.0</ele><time>2026-04-09T10:48:53.001Z</time></trkpt><trkpt lat="45.82548942568436" lon="9.489696387421018"><ele>743.25</ele><time>2026-04-09T10:48:54.001Z</time></trkpt><trkpt lat="45.82546864434989" lon="9.489536640879841"><ele>745.5</ele><time>2026-04-09T10:48:55.001Z</time></trkpt><trkpt lat="45.8254337373328" lon="9.489378411522283"><ele>747.75</ele><time>2026-04-09T10:48:56.001Z</time></trkpt><trkpt lat="45.82537332002649" lon="9.489245859596174"><ele>750.0</ele><time>2026-04-09T10:48:57.001Z</time></trkpt><trkpt lat="45.82526054329186" lon="9.489164216880411"><ele>749.25</ele><time>2026-04-09T10:48:58.001Z</time></trkpt><trkpt lat="45.825142537942" lon="9.489092982464953"><ele>748.5</ele><time>2026-04-09T10:48:59.001Z</time></trkpt><trkpt lat="45.82501565813717" lon="9.48903069167665"><ele>747.75</ele><time>2026-04-09T10:49:00.001Z</time></trkpt><trkpt lat="45.82488320341161" lon="9.488971154925459"><ele>747.0</ele><time>2026-04-09T10:49:01.001Z</time></trkpt><trkpt lat="45.82476414141971" lon="9.488874204027368"><ele>747.0</ele><time>2026-04-09T10:49:02.001Z</time></trkpt><trkpt lat="45.82462174099792" lon="9.488799053634965"><ele>747.0</ele><time>2026-04-09T10:49:03.001Z</time></trkpt><trkpt lat="45.82449144948106" lon="9.488699859171795"><ele>747.0</ele><time>2026-04-09T10:49:04.001Z</time></trkpt><trkpt lat="45.82435843450406" lon="9.48860180914585"><ele>747.0</ele><time>2026-04-09T10:49:05.001Z</time></trkpt><trkpt lat="45.82422175454855" lon="9.488505858743627"><ele>749.3333333333334</ele><time>2026-04-09T10:49:06.001Z</time></trkpt><trkpt lat="45.82408340119809" lon="9.488408127627084"><ele>751.6666666666667</ele><time>2026-04-09T10:49:07.001Z</time></trkpt><trkpt lat="45.823946095492616" lon="9.488309723936274"><ele>754.0</ele><time>2026-04-09T10:49:08.001Z</time></trkpt><trkpt lat="45.8238079500423" lon="9.488215361640986"><ele>754.0</ele><time>2026-04-09T10:49:09.001Z</time></trkpt><trkpt lat="45.82367641434933" lon="9.48813512801426"><ele>754.0</ele><time>2026-04-09T10:49:10.001Z</time></trkpt><trkpt lat="45.82354341601765" lon="9.488066460499"><ele>754.0</ele><time>2026-04-09T10:49:11.001Z</time></trkpt><trkpt lat="45.82340104243014" lon="9.48801450981569"><ele>754.0</ele><time>2026-04-09T10:49:12.001Z</time></trkpt><trkpt lat="45.82326241764707" lon="9.487973123584892"><ele>754.75</ele><time>2026-04-09T10:49:13.001Z</time></trkpt><trkpt lat="45.82312394925266" lon="9.487941404012616"><ele>755.5</ele><time>2026-04-09T10:49:14.001Z</time></trkpt><trkpt lat="45.82297830375766" lon="9.48790930351846"><ele>756.25</ele><time>2026-04-09T10:49:15.001Z</time></trkpt><trkpt lat="45.822860045618384" lon="9.487869732411317"><ele>757.0</ele><time>2026-04-09T10:49:16.001Z</time></trkpt><trkpt lat="45.82277704672391" lon="9.487790229529086"><ele>759.0</ele><time>2026-04-09T10:49:17.001Z</time></trkpt><trkpt lat="45.822706018277096" lon="9.487724409642498"><ele>761.0</ele><time>2026-04-09T10:49:18.001Z</time></trkpt><trkpt lat="45.82265018286193" lon="9.487620198036234"><ele>763.0</ele><time>2026-04-09T10:49:19.001Z</time></trkpt><trkpt lat="45.822603254738105" lon="9.487495421694318"><ele>765.0</ele><time>2026-04-09T10:49:20.001Z</time></trkpt><trkpt lat="45.82254711326874" lon="9.48735748624195"><ele>767.0</ele><time>2026-04-09T10:49:21.002Z</time></trkpt><trkpt lat="45.82247250561964" lon="9.48723658263874"><ele>767.0</ele><time>2026-04-09T10:49:22.002Z</time></trkpt><trkpt lat="45.82239787768268" lon="9.4871344972799"><ele>767.0</ele><time>2026-04-09T10:49:23.002Z</time></trkpt><trkpt lat="45.82231660791262" lon="9.487076800355045"><ele>767.0</ele><time>2026-04-09T10:49:24.002Z</time></trkpt><trkpt lat="45.8222183651294" lon="9.487096254303031"><ele>767.0</ele><time>2026-04-09T10:49:25.002Z</time></trkpt><trkpt lat="45.82211362682349" lon="9.487141365224602"><ele>767.0</ele><time>2026-04-09T10:49:26.002Z</time></trkpt><trkpt lat="45.822001308984106" lon="9.487218712085266"><ele>767.0</ele><time>2026-04-09T10:49:27.002Z</time></trkpt><trkpt lat="45.821884942141956" lon="9.487293874507605"><ele>767.0</ele><time>2026-04-09T10:49:28.002Z</time></trkpt><trkpt lat="45.82177375909158" lon="9.487351981474431"><ele>767.0</ele><time>2026-04-09T10:49:29.002Z</time></trkpt><trkpt lat="45.821671829380946" lon="9.48735811776122"><ele>767.0</ele><time>2026-04-09T10:49:30.002Z</time></trkpt><trkpt lat="45.821580607227254" lon="9.48736571929242"><ele>767.0</ele><time>2026-04-09T10:49:31.002Z</time></trkpt><trkpt lat="45.82149571202769" lon="9.487263634120783"><ele>768.2</ele><time>2026-04-09T10:49:32.002Z</time></trkpt><trkpt lat="45.821397749693695" lon="9.487192838906422"><ele>769.4000000000001</ele><time>2026-04-09T10:49:33.002Z</time></trkpt><trkpt lat="45.821297173736" lon="9.487142011080746"><ele>770.5999999999999</ele><time>2026-04-09T10:49:34.002Z</time></trkpt><trkpt lat="45.82119886009622" lon="9.487131546058459"><ele>771.8</ele><time>2026-04-09T10:49:35.002Z</time></trkpt><trkpt lat="45.82110420887674" lon="9.487144369045216"><ele>773.0</ele><time>2026-04-09T10:49:36.002Z</time></trkpt><trkpt lat="45.82101439220491" lon="9.48722746633922"><ele>776.25</ele><time>2026-04-09T10:49:37.002Z</time></trkpt><trkpt lat="45.820934511591005" lon="9.487328344622513"><ele>779.5</ele><time>2026-04-09T10:49:38.002Z</time></trkpt><trkpt lat="45.82084262106501" lon="9.487452409306027"><ele>782.75</ele><time>2026-04-09T10:49:39.002Z</time></trkpt><trkpt lat="45.820738697683936" lon="9.487518261616382"><ele>786.0</ele><time>2026-04-09T10:49:40.002Z</time></trkpt><trkpt lat="45.82063064010689" lon="9.48760017428748"><ele>786.0</ele><time>2026-04-09T10:49:41.002Z</time></trkpt><trkpt lat="45.820537528695574" lon="9.487639103531617"><ele>786.0</ele><time>2026-04-09T10:49:42.002Z</time></trkpt><trkpt lat="45.82043274843727" lon="9.487661224454603"><ele>786.0</ele><time>2026-04-09T10:49:43.002Z</time></trkpt><trkpt lat="45.82033694581902" lon="9.487678311382016"><ele>786.0</ele><time>2026-04-09T10:49:44.002Z</time></trkpt><trkpt lat="45.820258548157945" lon="9.487684693109477"><ele>786.0</ele><time>2026-04-09T10:49:45.002Z</time></trkpt><trkpt lat="45.82019011691368" lon="9.487673421435424"><ele>786.0</ele><time>2026-04-09T10:49:46.002Z</time></trkpt><trkpt lat="45.82013293646794" lon="9.48762946403431"><ele>786.0</ele><time>2026-04-09T10:49:47.002Z</time></trkpt><trkpt lat="45.82013577049002" lon="9.487503899073939"><ele>786.0</ele><time>2026-04-09T10:49:48.002Z</time></trkpt><trkpt lat="45.82012375217069" lon="9.487412542436804"><ele>786.0</ele><time>2026-04-09T10:49:49.002Z</time></trkpt><trkpt lat="45.82017118955394" lon="9.487282162361106"><ele>786.0</ele><time>2026-04-09T10:49:50.002Z</time></trkpt><trkpt lat="45.820241981435274" lon="9.487150689083057"><ele>786.0</ele><time>2026-04-09T10:49:51.002Z</time></trkpt><trkpt lat="45.82031320856899" lon="9.487023905874896"><ele>789.0</ele><time>2026-04-09T10:49:52.002Z</time></trkpt><trkpt lat="45.82041691748451" lon="9.486937162498574"><ele>792.0</ele><time>2026-04-09T10:49:53.002Z</time></trkpt><trkpt lat="45.82051508342037" lon="9.486842326136898"><ele>795.0</ele><time>2026-04-09T10:49:54.003Z</time></trkpt><trkpt lat="45.82060326255801" lon="9.486733442293016"><ele>798.0</ele><time>2026-04-09T10:49:55.003Z</time></trkpt><trkpt lat="45.82070169046691" lon="9.486646251179573"><ele>798.0</ele><time>2026-04-09T10:49:56.003Z</time></trkpt><trkpt lat="45.82078984121485" lon="9.48654617573872"><ele>798.0</ele><time>2026-04-09T10:49:57.003Z</time></trkpt><trkpt lat="45.82086461019396" lon="9.486430482788863"><ele>798.0</ele><time>2026-04-09T10:49:58.003Z</time></trkpt><trkpt lat="45.82091160389304" lon="9.486293146752987"><ele>798.0</ele><time>2026-04-09T10:49:59.003Z</time></trkpt><trkpt lat="45.82093551466994" lon="9.486147653474319"><ele>798.0</ele><time>2026-04-09T10:50:00.003Z</time></trkpt><trkpt lat="45.82094143870528" lon="9.486000863187922"><ele>800.5</ele><time>2026-04-09T10:50:01.003Z</time></trkpt><trkpt lat="45.82095597613842" lon="9.485849113148417"><ele>803.0</ele><time>2026-04-09T10:50:02.003Z</time></trkpt><trkpt lat="45.82095363295257" lon="9.485676863428283"><ele>805.5</ele><time>2026-04-09T10:50:03.003Z</time></trkpt><trkpt lat="45.82094200129754" lon="9.485502102340204"><ele>808.0</ele><time>2026-04-09T10:50:04.003Z</time></trkpt><trkpt lat="45.82090878559038" lon="9.48532517584247"><ele>809.25</ele><time>2026-04-09T10:50:05.003Z</time></trkpt><trkpt lat="45.820907771485345" lon="9.485140967235044"><ele>810.5</ele><time>2026-04-09T10:50:06.003Z</time></trkpt><trkpt lat="45.82090086256762" lon="9.484956965900835"><ele>811.75</ele><time>2026-04-09T10:50:07.003Z</time></trkpt><trkpt lat="45.82090361808519" lon="9.48478606588651"><ele>813.0</ele><time>2026-04-09T10:50:08.003Z</time></trkpt><trkpt lat="45.82093749406088" lon="9.484653245953083"><ele>814.75</ele><time>2026-04-09T10:50:09.003Z</time></trkpt><trkpt lat="45.821002401883646" lon="9.484547401279249"><ele>816.5</ele><time>2026-04-09T10:50:10.003Z</time></trkpt><trkpt lat="45.82110256288049" lon="9.484505900989069"><ele>818.25</ele><time>2026-04-09T10:50:11.003Z</time></trkpt><trkpt lat="45.821207240847166" lon="9.484412713201028"><ele>820.0</ele><time>2026-04-09T10:50:12.003Z</time></trkpt><trkpt lat="45.82133322142364" lon="9.484361902324004"><ele>820.0</ele><time>2026-04-09T10:50:13.003Z</time></trkpt><trkpt lat="45.82147509485606" lon="9.484291513792881"><ele>820.0</ele><time>2026-04-09T10:50:14.003Z</time></trkpt><trkpt lat="45.821628976828826" lon="9.48424462488906"><ele>820.0</ele><time>2026-04-09T10:50:15.003Z</time></trkpt><trkpt lat="45.82177809731374" lon="9.484177217332332"><ele>819.75</ele><time>2026-04-09T10:50:16.003Z</time></trkpt><trkpt lat="45.821920245155106" lon="9.484097417118832"><ele>819.5</ele><time>2026-04-09T10:50:17.003Z</time></trkpt><trkpt lat="45.82204217051551" lon="9.484015989459419"><ele>819.25</ele><time>2026-04-09T10:50:18.003Z</time></trkpt><trkpt lat="45.82213341001832" lon="9.48395408497548"><ele>819.0</ele><time>2026-04-09T10:50:19.003Z</time></trkpt><trkpt lat="45.82221869352747" lon="9.483835811472778"><ele>820.75</ele><time>2026-04-09T10:50:20.003Z</time></trkpt><trkpt lat="45.822262858917576" lon="9.483719229235794"><ele>822.5</ele><time>2026-04-09T10:50:21.003Z</time></trkpt><trkpt lat="45.82228218761267" lon="9.483565026670773"><ele>824.25</ele><time>2026-04-09T10:50:22.003Z</time></trkpt><trkpt lat="45.8222792665092" lon="9.4833806206418"><ele>826.0</ele><time>2026-04-09T10:50:23Z</time></trkpt><trkpt lat="45.822292247190134" lon="9.483184992106509"><ele>826.0</ele><time>2026-04-09T10:50:24Z</time></trkpt><trkpt lat="45.82229339653875" lon="9.48298330430449"><ele>826.0</ele><time>2026-04-09T10:50:25Z</time></trkpt><trkpt lat="45.822301663002676" lon="9.482778347670024"><ele>826.0</ele><time>2026-04-09T10:50:26Z</time></trkpt><trkpt lat="45.82232079302904" lon="9.482600356216007"><ele>826.0</ele><time>2026-04-09T10:50:27Z</time></trkpt><trkpt lat="45.8223541318553" lon="9.482455015320207"><ele>827.0</ele><time>2026-04-09T10:50:28Z</time></trkpt><trkpt lat="45.8224249782684" lon="9.48235972608175"><ele>828.0</ele><time>2026-04-09T10:50:29Z</time></trkpt><trkpt lat="45.82250726677707" lon="9.482265378310707"><ele>829.0</ele><time>2026-04-09T10:50:30Z</time></trkpt><trkpt lat="45.822610445283125" lon="9.482222589161816"><ele>830.0</ele><time>2026-04-09T10:50:31Z</time></trkpt><trkpt lat="45.82272919465891" lon="9.482180157556458"><ele>831.0</ele><time>2026-04-09T10:50:32Z</time></trkpt><trkpt lat="45.822854660778944" lon="9.48213992123512"><ele>831.0</ele><time>2026-04-09T10:50:33Z</time></trkpt><trkpt lat="45.8229604777245" lon="9.482107294356513"><ele>831.0</ele><time>2026-04-09T10:50:34Z</time></trkpt><trkpt lat="45.82303531243914" lon="9.48203336216803"><ele>831.0</ele><time>2026-04-09T10:50:35Z</time></trkpt><trkpt lat="45.823093648942184" lon="9.481982885368748"><ele>831.0</ele><time>2026-04-09T10:50:36Z</time></trkpt><trkpt lat="45.823119553826984" lon="9.481885118813388"><ele>831.0</ele><time>2026-04-09T10:50:37Z</time></trkpt><trkpt lat="45.82306319272594" lon="9.481771775052657"><ele>831.0</ele><time>2026-04-09T10:50:38Z</time></trkpt><trkpt lat="45.82300675866419" lon="9.481721154198189"><ele>836.4</ele><time>2026-04-09T10:50:39Z</time></trkpt><trkpt lat="45.82292841197382" lon="9.481700823602656"><ele>841.8</ele><time>2026-04-09T10:50:40Z</time></trkpt><trkpt lat="45.82283051603254" lon="9.481719802242086"><ele>847.1999999999999</ele><time>2026-04-09T10:50:41Z</time></trkpt><trkpt lat="45.82272441261311" lon="9.48177478111603"><ele>852.5999999999999</ele><time>2026-04-09T10:50:42Z</time></trkpt><trkpt lat="45.822600452162256" lon="9.481828886882571"><ele>858.0</ele><time>2026-04-09T10:50:43Z</time></trkpt><trkpt lat="45.82246600292331" lon="9.481849065949946"><ele>858.0</ele><time>2026-04-09T10:50:44Z</time></trkpt><trkpt lat="45.82231806188028" lon="9.481879140938274"><ele>858.0</ele><time>2026-04-09T10:50:45Z</time></trkpt><trkpt lat="45.822160195408976" lon="9.481920789142157"><ele>858.0</ele><time>2026-04-09T10:50:46Z</time></trkpt><trkpt lat="45.822003250380746" lon="9.48196513033452"><ele>858.0</ele><time>2026-04-09T10:50:47Z</time></trkpt><trkpt lat="45.8218709476556" lon="9.482014227107738"><ele>858.0</ele><time>2026-04-09T10:50:48Z</time></trkpt><trkpt lat="45.821743252287156" lon="9.482027519934626"><ele>858.0</ele><time>2026-04-09T10:50:49Z</time></trkpt><trkpt lat="45.82160215278654" lon="9.48209081926072"><ele>858.0</ele><time>2026-04-09T10:50:50Z</time></trkpt><trkpt lat="45.821448926306694" lon="9.482151445765313"><ele>855.6666666666667</ele><time>2026-04-09T10:50:51Z</time></trkpt><trkpt lat="45.82129024629902" lon="9.482231827830516"><ele>853.3333333333334</ele><time>2026-04-09T10:50:52Z</time></trkpt><trkpt lat="45.82114012885417" lon="9.482289235053237"><ele>851.0</ele><time>2026-04-09T10:50:53.001Z</time></trkpt><trkpt lat="45.820984597052245" lon="9.48232239531783"><ele>854.25</ele><time>2026-04-09T10:50:54.001Z</time></trkpt><trkpt lat="45.82083427221614" lon="9.482399637927765"><ele>857.5</ele><time>2026-04-09T10:50:55.001Z</time></trkpt><trkpt lat="45.82069796460262" lon="9.482449018093076"><ele>860.75</ele><time>2026-04-09T10:50:56.001Z</time></trkpt><trkpt lat="45.820579704188454" lon="9.48252339970226"><ele>864.0</ele><time>2026-04-09T10:50:57.001Z</time></trkpt><trkpt lat="45.82046959030991" lon="9.48261790808542"><ele>864.0</ele><time>2026-04-09T10:50:58.001Z</time></trkpt><trkpt lat="45.82038602323505" lon="9.482773247668586"><ele>864.0</ele><time>2026-04-09T10:50:59.001Z</time></trkpt><trkpt lat="45.820267284647905" lon="9.482927604277682"><ele>864.0</ele><time>2026-04-09T10:51:00.001Z</time></trkpt><trkpt lat="45.820159097640094" lon="9.483044335796574"><ele>864.0</ele><time>2026-04-09T10:51:01.001Z</time></trkpt><trkpt lat="45.82005661965885" lon="9.483141724792945"><ele>865.5</ele><time>2026-04-09T10:51:02.001Z</time></trkpt><trkpt lat="45.8199354240867" lon="9.48322654941968"><ele>867.0</ele><time>2026-04-09T10:51:03.001Z</time></trkpt><trkpt lat="45.81980073554162" lon="9.483286503167292"><ele>868.5</ele><time>2026-04-09T10:51:04.001Z</time></trkpt><trkpt lat="45.819664912529454" lon="9.483327843180694"><ele>870.0</ele><time>2026-04-09T10:51:05.001Z</time></trkpt><trkpt lat="45.81952954024339" lon="9.48336702276686"><ele>870.0</ele><time>2026-04-09T10:51:06.001Z</time></trkpt><trkpt lat="45.81938296428969" lon="9.483417069644627"><ele>870.0</ele><time>2026-04-09T10:51:07.001Z</time></trkpt><trkpt lat="45.81923996297212" lon="9.483488847384375"><ele>870.0</ele><time>2026-04-09T10:51:08.001Z</time></trkpt><trkpt lat="45.81912077739651" lon="9.483591250470816"><ele>870.0</ele><time>2026-04-09T10:51:09.001Z</time></trkpt><trkpt lat="45.81896656128" lon="9.483684584501074"><ele>872.0</ele><time>2026-04-09T10:51:10.001Z</time></trkpt><trkpt lat="45.8188307882304" lon="9.483800134260463"><ele>874.0</ele><time>2026-04-09T10:51:11.001Z</time></trkpt><trkpt lat="45.818685256668196" lon="9.483904264331985"><ele>876.0</ele><time>2026-04-09T10:51:12.001Z</time></trkpt><trkpt lat="45.81855095884944" lon="9.484036449953921"><ele>886.3333333333333</ele><time>2026-04-09T10:51:13.001Z</time></trkpt><trkpt lat="45.8184393136038" lon="9.484196949229425"><ele>896.6666666666666</ele><time>2026-04-09T10:51:14.001Z</time></trkpt><trkpt lat="45.8183260110974" lon="9.48434943657726"><ele>907.0</ele><time>2026-04-09T10:51:15.001Z</time></trkpt><trkpt lat="45.8182105405565" lon="9.48448645873806"><ele>902.75</ele><time>2026-04-09T10:51:16.001Z</time></trkpt><trkpt lat="45.81812662071905" lon="9.484660112603363"><ele>898.5</ele><time>2026-04-09T10:51:17.001Z</time></trkpt><trkpt lat="45.81802056708662" lon="9.484794409344344"><ele>894.25</ele><time>2026-04-09T10:51:18.001Z</time></trkpt><trkpt lat="45.81792430208751" lon="9.484906519384493"><ele>890.0</ele><time>2026-04-09T10:51:19.001Z</time></trkpt><trkpt lat="45.81783217180268" lon="9.484975962461672"><ele>890.0</ele><time>2026-04-09T10:51:20.001Z</time></trkpt><trkpt lat="45.817729095236594" lon="9.485034758645902"><ele>890.0</ele><time>2026-04-09T10:51:21.001Z</time></trkpt><trkpt lat="45.81759867581438" lon="9.485096184380094"><ele>890.0</ele><time>2026-04-09T10:51:22.001Z</time></trkpt><trkpt lat="45.81746479337564" lon="9.485158155702113"><ele>890.0</ele><time>2026-04-09T10:51:23.001Z</time></trkpt><trkpt lat="45.81732312733089" lon="9.48522305573717"><ele>895.25</ele><time>2026-04-09T10:51:24.001Z</time></trkpt><trkpt lat="45.817187038724356" lon="9.485276483641387"><ele>900.5</ele><time>2026-04-09T10:51:25.002Z</time></trkpt><trkpt lat="45.81705323575789" lon="9.485352307461218"><ele>905.75</ele><time>2026-04-09T10:51:26.002Z</time></trkpt><trkpt lat="45.81692807015434" lon="9.485408294680182"><ele>911.0</ele><time>2026-04-09T10:51:27.002Z</time></trkpt><trkpt lat="45.816800751991806" lon="9.485482235790169"><ele>912.25</ele><time>2026-04-09T10:51:28.002Z</time></trkpt><trkpt lat="45.816690795532" lon="9.48560202507027"><ele>913.5</ele><time>2026-04-09T10:51:29.002Z</time></trkpt><trkpt lat="45.816602833706234" lon="9.485730608199775"><ele>914.75</ele><time>2026-04-09T10:51:30.002Z</time></trkpt><trkpt lat="45.8165286733975" lon="9.48589902541064"><ele>916.0</ele><time>2026-04-09T10:51:31.002Z</time></trkpt><trkpt lat="45.81645723328177" lon="9.486080238981044"><ele>916.0</ele><time>2026-04-09T10:51:32.002Z</time></trkpt><trkpt lat="45.81636890984817" lon="9.486257440419438"><ele>916.0</ele><time>2026-04-09T10:51:33.002Z</time></trkpt><trkpt lat="45.816290000042976" lon="9.486425439289828"><ele>916.0</ele><time>2026-04-09T10:51:34.002Z</time></trkpt><trkpt lat="45.81621015679475" lon="9.486586392306412"><ele>916.0</ele><time>2026-04-09T10:51:35.002Z</time></trkpt><trkpt lat="45.816129579963" lon="9.486757608697323"><ele>913.75</ele><time>2026-04-09T10:51:36.002Z</time></trkpt><trkpt lat="45.816050301633865" lon="9.486922466227645"><ele>911.5</ele><time>2026-04-09T10:51:37.002Z</time></trkpt><trkpt lat="45.81597084771939" lon="9.487102854865146"><ele>909.25</ele><time>2026-04-09T10:51:38.002Z</time></trkpt><trkpt lat="45.81589786434139" lon="9.487297974596887"><ele>907.0</ele><time>2026-04-09T10:51:39.002Z</time></trkpt><trkpt lat="45.815832088485095" lon="9.487495060516357"><ele>912.0</ele><time>2026-04-09T10:51:40.002Z</time></trkpt><trkpt lat="45.81578375884062" lon="9.487698448485938"><ele>917.0</ele><time>2026-04-09T10:51:41.002Z</time></trkpt><trkpt lat="45.815726146633764" lon="9.487896960446504"><ele>922.0</ele><time>2026-04-09T10:51:42.002Z</time></trkpt><trkpt lat="45.81566979409255" lon="9.488070579924221"><ele>927.0</ele><time>2026-04-09T10:51:43.002Z</time></trkpt><trkpt lat="45.81562565750723" lon="9.488236818169854"><ele>927.0</ele><time>2026-04-09T10:51:44.002Z</time></trkpt><trkpt lat="45.815583107179364" lon="9.488408658726607"><ele>927.0</ele><time>2026-04-09T10:51:45.002Z</time></trkpt><trkpt lat="45.815505341026174" lon="9.488534495476928"><ele>927.0</ele><time>2026-04-09T10:51:46.002Z</time></trkpt><trkpt lat="45.8154382037851" lon="9.488669680301957"><ele>927.0</ele><time>2026-04-09T10:51:47.002Z</time></trkpt><trkpt lat="45.815330636510254" lon="9.488770487877138"><ele>929.5</ele><time>2026-04-09T10:51:48.002Z</time></trkpt><trkpt lat="45.815206156278045" lon="9.488869021088599"><ele>932.0</ele><time>2026-04-09T10:51:49.002Z</time></trkpt><trkpt lat="45.81507655749934" lon="9.488958750123274"><ele>934.5</ele><time>2026-04-09T10:51:50.002Z</time></trkpt><trkpt lat="45.814930610554455" lon="9.488996995579228"><ele>937.0</ele><time>2026-04-09T10:51:51.002Z</time></trkpt><trkpt lat="45.814827382079784" lon="9.489137200188168"><ele>937.0</ele><time>2026-04-09T10:51:52.002Z</time></trkpt><trkpt lat="45.81471481923114" lon="9.48926779438993"><ele>937.0</ele><time>2026-04-09T10:51:53.002Z</time></trkpt><trkpt lat="45.81462259393552" lon="9.489418609185664"><ele>937.0</ele><time>2026-04-09T10:51:54.002Z</time></trkpt><trkpt lat="45.814544900635894" lon="9.489591253508184"><ele>937.0</ele><time>2026-04-09T10:51:55.002Z</time></trkpt><trkpt lat="45.81446866069669" lon="9.489742608657512"><ele>933.5</ele><time>2026-04-09T10:51:56.002Z</time></trkpt><trkpt lat="45.81437952424267" lon="9.489870824002454"><ele>930.0</ele><time>2026-04-09T10:51:57.002Z</time></trkpt><trkpt lat="45.81429130896609" lon="9.489979287734812"><ele>926.5</ele><time>2026-04-09T10:51:58.003Z</time></trkpt><trkpt lat="45.81418754339696" lon="9.490088968085493"><ele>923.0</ele><time>2026-04-09T10:51:59.003Z</time></trkpt><trkpt lat="45.814073652115056" lon="9.490213692597235"><ele>929.5</ele><time>2026-04-09T10:52:00.003Z</time></trkpt><trkpt lat="45.81396009805972" lon="9.490332549597706"><ele>936.0</ele><time>2026-04-09T10:52:01.003Z</time></trkpt><trkpt lat="45.813855237450866" lon="9.490448764502432"><ele>942.5</ele><time>2026-04-09T10:52:02.003Z</time></trkpt><trkpt lat="45.8137671805459" lon="9.490572514124317"><ele>949.0</ele><time>2026-04-09T10:52:03.003Z</time></trkpt><trkpt lat="45.813702620424046" lon="9.490713069865613"><ele>949.0</ele><time>2026-04-09T10:52:04.003Z</time></trkpt><trkpt lat="45.81366417688719" lon="9.490877946506469"><ele>949.0</ele><time>2026-04-09T10:52:05.003Z</time></trkpt><trkpt lat="45.81363741120643" lon="9.49106837716699"><ele>949.0</ele><time>2026-04-09T10:52:06.003Z</time></trkpt><trkpt lat="45.81360362366746" lon="9.491260731191238"><ele>949.0</ele><time>2026-04-09T10:52:07.003Z</time></trkpt><trkpt lat="45.81356866409494" lon="9.491468419958146"><ele>947.5</ele><time>2026-04-09T10:52:08.003Z</time></trkpt><trkpt lat="45.8134963445399" lon="9.491650800560453"><ele>946.0</ele><time>2026-04-09T10:52:09.003Z</time></trkpt><trkpt lat="45.81345567940568" lon="9.491831436182204"><ele>944.5</ele><time>2026-04-09T10:52:10.003Z</time></trkpt><trkpt lat="45.81341164033889" lon="9.492065745097491"><ele>943.0</ele><time>2026-04-09T10:52:11.003Z</time></trkpt><trkpt lat="45.8133857645497" lon="9.492263629540053"><ele>950.0</ele><time>2026-04-09T10:52:12.003Z</time></trkpt><trkpt lat="45.81335209906428" lon="9.492445886970984"><ele>957.0</ele><time>2026-04-09T10:52:13.003Z</time></trkpt><trkpt lat="45.81332203869787" lon="9.492603542227725"><ele>964.0</ele><time>2026-04-09T10:52:14.003Z</time></trkpt><trkpt lat="45.8133048890492" lon="9.492744337675123"><ele>971.0</ele><time>2026-04-09T10:52:15.003Z</time></trkpt><trkpt lat="45.813301100102116" lon="9.492896379987066"><ele>971.0</ele><time>2026-04-09T10:52:16.003Z</time></trkpt><trkpt lat="45.81327952389499" lon="9.493023597339656"><ele>970.9999999999999</ele><time>2026-04-09T10:52:17.003Z</time></trkpt><trkpt lat="45.81323946696655" lon="9.493096688570054"><ele>970.9999999999999</ele><time>2026-04-09T10:52:18.003Z</time></trkpt><trkpt lat="45.8131276953757" lon="9.493094377616591"><ele>971.0</ele><time>2026-04-09T10:52:20.003Z</time></trkpt><trkpt lat="45.81310338709035" lon="9.493003756850225"><ele>971.0</ele><time>2026-04-09T10:52:21.003Z</time></trkpt><trkpt lat="45.81311667984928" lon="9.49282733719346"><ele>971.0</ele><time>2026-04-09T10:52:23.003Z</time></trkpt><trkpt lat="45.813169346560464" lon="9.492660171599649"><ele>971.0</ele><time>2026-04-09T10:52:24.003Z</time></trkpt><trkpt lat="45.813188512637744" lon="9.4924838110466"><ele>971.0</ele><time>2026-04-09T10:52:25.003Z</time></trkpt><trkpt lat="45.81319183923151" lon="9.492294851350817"><ele>971.0</ele><time>2026-04-09T10:52:26.003Z</time></trkpt><trkpt lat="45.81317874385373" lon="9.492092606747452"><ele>972.5</ele><time>2026-04-09T10:52:27.003Z</time></trkpt><trkpt lat="45.81317511779391" lon="9.491887843778793"><ele>974.0</ele><time>2026-04-09T10:52:28.003Z</time></trkpt><trkpt lat="45.81316099320256" lon="9.491697849242827"><ele>975.5</ele><time>2026-04-09T10:52:29Z</time></trkpt><trkpt lat="45.813168541860456" lon="9.491526821814906"><ele>977.0</ele><time>2026-04-09T10:52:30Z</time></trkpt><trkpt lat="45.8131884422425" lon="9.491367454853183"><ele>979.0</ele><time>2026-04-09T10:52:31Z</time></trkpt><trkpt lat="45.813215784675535" lon="9.49122188708624"><ele>981.0</ele><time>2026-04-09T10:52:32Z</time></trkpt><trkpt lat="45.813235218653205" lon="9.491084166559048"><ele>983.0</ele><time>2026-04-09T10:52:33Z</time></trkpt><trkpt lat="45.81323605723763" lon="9.490973707243663"><ele>985.0</ele><time>2026-04-09T10:52:34Z</time></trkpt><trkpt lat="45.813140132225165" lon="9.490896876816498"><ele>987.0</ele><time>2026-04-09T10:52:36Z</time></trkpt><trkpt lat="45.81306528600449" lon="9.490915354983603"><ele>987.0</ele><time>2026-04-09T10:52:37Z</time></trkpt><trkpt lat="45.813009187263454" lon="9.490966988326823"><ele>987.0</ele><time>2026-04-09T10:52:38Z</time></trkpt><trkpt lat="45.812952055490676" lon="9.491091904478557"><ele>987.0</ele><time>2026-04-09T10:52:39Z</time></trkpt><trkpt lat="45.812920827704204" lon="9.491256234879415"><ele>987.0</ele><time>2026-04-09T10:52:40Z</time></trkpt><trkpt lat="45.81287725649743" lon="9.49144444073709"><ele>987.0</ele><time>2026-04-09T10:52:41Z</time></trkpt><trkpt lat="45.81282999294963" lon="9.491654884463516"><ele>984.5</ele><time>2026-04-09T10:52:42Z</time></trkpt><trkpt lat="45.812791183892934" lon="9.491833064446162"><ele>982.0</ele><time>2026-04-09T10:52:43Z</time></trkpt><trkpt lat="45.81272852466395" lon="9.492030325312918"><ele>979.5</ele><time>2026-04-09T10:52:44Z</time></trkpt><trkpt lat="45.81268169438375" lon="9.492245083442338"><ele>977.0</ele><time>2026-04-09T10:52:45Z</time></trkpt><trkpt lat="45.81263367776614" lon="9.492443553505918"><ele>982.5</ele><time>2026-04-09T10:52:46Z</time></trkpt><trkpt lat="45.812607925102974" lon="9.49263615100226"><ele>988.0</ele><time>2026-04-09T10:52:47Z</time></trkpt><trkpt lat="45.81259475340738" lon="9.49284391727399"><ele>993.5</ele><time>2026-04-09T10:52:48Z</time></trkpt><trkpt lat="45.812586597361324" lon="9.49304123914783"><ele>999.0</ele><time>2026-04-09T10:52:49Z</time></trkpt><trkpt lat="45.812576489450386" lon="9.493242391233798"><ele>999.75</ele><time>2026-04-09T10:52:50Z</time></trkpt><trkpt lat="45.81258330801271" lon="9.493439951706554"><ele>1000.5</ele><time>2026-04-09T10:52:51Z</time></trkpt><trkpt lat="45.81260977166427" lon="9.493620490609429"><ele>1001.25</ele><time>2026-04-09T10:52:52Z</time></trkpt><trkpt lat="45.812656951379154" lon="9.49379369100343"><ele>1002.0</ele><time>2026-04-09T10:52:53Z</time></trkpt><trkpt lat="45.81269707617669" lon="9.493951501305448"><ele>1003.25</ele><time>2026-04-09T10:52:54Z</time></trkpt><trkpt lat="45.81271811629435" lon="9.49411032100131"><ele>1004.5</ele><time>2026-04-09T10:52:55Z</time></trkpt><trkpt lat="45.812700444835635" lon="9.494283502007088"><ele>1005.75</ele><time>2026-04-09T10:52:56Z</time></trkpt><trkpt lat="45.81265879046811" lon="9.4944556326613"><ele>1007.0</ele><time>2026-04-09T10:52:57Z</time></trkpt><trkpt lat="45.812603536263545" lon="9.494636291515022"><ele>1007.0</ele><time>2026-04-09T10:52:58Z</time></trkpt><trkpt lat="45.812545168789505" lon="9.4948190163045"><ele>1007.0</ele><time>2026-04-09T10:52:59Z</time></trkpt><trkpt lat="45.81248712153097" lon="9.49501622622907"><ele>1007.0</ele><time>2026-04-09T10:53:00Z</time></trkpt><trkpt lat="45.812431042290484" lon="9.495214980197021"><ele>1007.0</ele><time>2026-04-09T10:53:01Z</time></trkpt><trkpt lat="45.81237411374294" lon="9.495415998113968"><ele>1005.5</ele><time>2026-04-09T10:53:02Z</time></trkpt><trkpt lat="45.81232455302293" lon="9.495611227278868"><ele>1004.0</ele><time>2026-04-09T10:53:03Z</time></trkpt><trkpt lat="45.81227463038281" lon="9.495778585551253"><ele>1002.5</ele><time>2026-04-09T10:53:04Z</time></trkpt><trkpt lat="45.81221699393314" lon="9.495945418042549"><ele>1001.0</ele><time>2026-04-09T10:53:05Z</time></trkpt><trkpt lat="45.812144829940856" lon="9.496114661266757"><ele>999.6666666666667</ele><time>2026-04-09T10:53:06Z</time></trkpt><trkpt lat="45.81205894698816" lon="9.49629910102459"><ele>998.3333333333333</ele><time>2026-04-09T10:53:07Z</time></trkpt><trkpt lat="45.811969846741405" lon="9.49648945398314"><ele>997.0</ele><time>2026-04-09T10:53:08Z</time></trkpt><trkpt lat="45.81188690745714" lon="9.496674226511495"><ele>1002.5</ele><time>2026-04-09T10:53:09Z</time></trkpt><trkpt lat="45.811812063092745" lon="9.496856668749205"><ele>1008.0</ele><time>2026-04-09T10:53:10Z</time></trkpt><trkpt lat="45.811748013089286" lon="9.4970450034579"><ele>1013.5</ele><time>2026-04-09T10:53:11Z</time></trkpt><trkpt lat="45.81169216783551" lon="9.497245396902676"><ele>1019.0</ele><time>2026-04-09T10:53:12Z</time></trkpt><trkpt lat="45.81164548593975" lon="9.49744567602685"><ele>1019.0</ele><time>2026-04-09T10:53:13Z</time></trkpt><trkpt lat="45.811597329349866" lon="9.49763984987538"><ele>1019.0</ele><time>2026-04-09T10:53:14Z</time></trkpt><trkpt lat="45.81154224552478" lon="9.497829728023799"><ele>1019.0</ele><time>2026-04-09T10:53:15Z</time></trkpt><trkpt lat="45.81147610548012" lon="9.497998577244902"><ele>1019.0</ele><time>2026-04-09T10:53:16Z</time></trkpt><trkpt lat="45.811389700526036" lon="9.498159952655515"><ele>1017.75</ele><time>2026-04-09T10:53:17Z</time></trkpt><trkpt lat="45.81129289911852" lon="9.498298422633798"><ele>1016.5</ele><time>2026-04-09T10:53:18Z</time></trkpt><trkpt lat="45.81120538077155" lon="9.4984463824301"><ele>1015.25</ele><time>2026-04-09T10:53:19Z</time></trkpt><trkpt lat="45.81111922950857" lon="9.498587201435525"><ele>1014.0</ele><time>2026-04-09T10:53:20Z</time></trkpt><trkpt lat="45.811036108960586" lon="9.498718433209717"><ele>1017.75</ele><time>2026-04-09T10:53:21Z</time></trkpt><trkpt lat="45.81095198094427" lon="9.498834119167215"><ele>1021.5</ele><time>2026-04-09T10:53:22Z</time></trkpt><trkpt lat="45.81085444461566" lon="9.498949296346014"><ele>1025.25</ele><time>2026-04-09T10:53:23Z</time></trkpt><trkpt lat="45.810738238384985" lon="9.49905812971702"><ele>1029.0</ele><time>2026-04-09T10:53:24Z</time></trkpt><trkpt lat="45.81061887359039" lon="9.499169195842175"><ele>1029.0</ele><time>2026-04-09T10:53:25Z</time></trkpt><trkpt lat="45.81049811556923" lon="9.499289957692406"><ele>1029.0</ele><time>2026-04-09T10:53:26Z</time></trkpt><trkpt lat="45.810404225263284" lon="9.499395289470035"><ele>1029.0</ele><time>2026-04-09T10:53:27Z</time></trkpt><trkpt lat="45.81029925096782" lon="9.499501161440001"><ele>1029.0</ele><time>2026-04-09T10:53:28Z</time></trkpt><trkpt lat="45.810195959426494" lon="9.499612125134805"><ele>1029.2</ele><time>2026-04-09T10:53:29Z</time></trkpt><trkpt lat="45.810103188187846" lon="9.499696692916308"><ele>1029.4</ele><time>2026-04-09T10:53:30Z</time></trkpt><trkpt lat="45.810003237535525" lon="9.49976610589722"><ele>1029.6</ele><time>2026-04-09T10:53:31Z</time></trkpt><trkpt lat="45.80990085724407" lon="9.499810369626283"><ele>1029.8</ele><time>2026-04-09T10:53:32Z</time></trkpt><trkpt lat="45.80978508447598" lon="9.49983097030138"><ele>1030.0</ele><time>2026-04-09T10:53:33Z</time></trkpt><trkpt lat="45.809672408853594" lon="9.499822175704237"><ele>1030.0</ele><time>2026-04-09T10:53:34Z</time></trkpt><trkpt lat="45.809563637668816" lon="9.499810904660924"><ele>1030.0</ele><time>2026-04-09T10:53:35Z</time></trkpt><trkpt lat="45.809464537320785" lon="9.499829139459539"><ele>1030.0</ele><time>2026-04-09T10:53:36Z</time></trkpt><trkpt lat="45.80938045890037" lon="9.499894207085672"><ele>1030.0</ele><time>2026-04-09T10:53:37Z</time></trkpt><trkpt lat="45.80930779742263" lon="9.499988075833285"><ele>1030.0</ele><time>2026-04-09T10:53:38Z</time></trkpt><trkpt lat="45.80923934918377" lon="9.500103264221934"><ele>1030.4</ele><time>2026-04-09T10:53:39Z</time></trkpt><trkpt lat="45.80918102186121" lon="9.50022687236684"><ele>1030.8</ele><time>2026-04-09T10:53:40Z</time></trkpt><trkpt lat="45.80912754078609" lon="9.500338956759396"><ele>1031.2</ele><time>2026-04-09T10:53:41Z</time></trkpt><trkpt lat="45.809075504043626" lon="9.5004161381039"><ele>1031.6</ele><time>2026-04-09T10:53:42Z</time></trkpt><trkpt lat="45.80897300980861" lon="9.500417554120578"><ele>1032.0</ele><time>2026-04-09T10:53:44Z</time></trkpt><trkpt lat="45.808945786310474" lon="9.500270152536974"><ele>1033.2</ele><time>2026-04-09T10:53:46Z</time></trkpt><trkpt lat="45.80897522356214" lon="9.500163929282435"><ele>1034.4</ele><time>2026-04-09T10:53:47Z</time></trkpt><trkpt lat="45.809036768219244" lon="9.500060699214727"><ele>1035.6</ele><time>2026-04-09T10:53:48Z</time></trkpt><trkpt lat="45.80907437575205" lon="9.49989997046269"><ele>1036.8</ele><time>2026-04-09T10:53:49Z</time></trkpt><trkpt lat="45.8091296846784" lon="9.499746433565276"><ele>1038.0</ele><time>2026-04-09T10:53:50Z</time></trkpt><trkpt lat="45.80921658910712" lon="9.499653253773033"><ele>1039.2</ele><time>2026-04-09T10:53:51Z</time></trkpt><trkpt lat="45.809306504116144" lon="9.499575757417949"><ele>1040.4</ele><time>2026-04-09T10:53:52Z</time></trkpt><trkpt lat="45.80941054613761" lon="9.499522384821713"><ele>1041.6000000000001</ele><time>2026-04-09T10:53:53Z</time></trkpt><trkpt lat="45.809515196268876" lon="9.499500760800577"><ele>1042.8</ele><time>2026-04-09T10:53:54.001Z</time></trkpt><trkpt lat="45.80963540743687" lon="9.499494732457437"><ele>1044.0</ele><time>2026-04-09T10:53:55.001Z</time></trkpt><trkpt lat="45.80973911775487" lon="9.499501680834273"><ele>1044.0</ele><time>2026-04-09T10:53:56.001Z</time></trkpt><trkpt lat="45.80981492265296" lon="9.499481039647035"><ele>1044.0</ele><time>2026-04-09T10:53:57.001Z</time></trkpt><trkpt lat="45.80989263606555" lon="9.49935702259889"><ele>1044.0</ele><time>2026-04-09T10:53:59.001Z</time></trkpt><trkpt lat="45.809869437067775" lon="9.499257149552706"><ele>1044.0</ele><time>2026-04-09T10:54:00.001Z</time></trkpt><trkpt lat="45.809802470710125" lon="9.499192374196934"><ele>1044.0</ele><time>2026-04-09T10:54:01.001Z</time></trkpt><trkpt lat="45.809705121515634" lon="9.499193343950244"><ele>1044.0</ele><time>2026-04-09T10:54:02.001Z</time></trkpt><trkpt lat="45.809602945781585" lon="9.499207374575315"><ele>1044.0</ele><time>2026-04-09T10:54:03.001Z</time></trkpt><trkpt lat="45.80948902056844" lon="9.499247151150769"><ele>1044.0</ele><time>2026-04-09T10:54:04.001Z</time></trkpt><trkpt lat="45.809350905391426" lon="9.49929305674252"><ele>1044.0</ele><time>2026-04-09T10:54:05.001Z</time></trkpt><trkpt lat="45.809201382690404" lon="9.499340019363334"><ele>1044.0</ele><time>2026-04-09T10:54:06.001Z</time></trkpt><trkpt lat="45.80904160814825" lon="9.499403196256829"><ele>1042.0</ele><time>2026-04-09T10:54:07.001Z</time></trkpt><trkpt lat="45.808881241102924" lon="9.499489246183213"><ele>1040.0</ele><time>2026-04-09T10:54:08.001Z</time></trkpt><trkpt lat="45.80872517373851" lon="9.49954243521553"><ele>1038.0</ele><time>2026-04-09T10:54:09.001Z</time></trkpt><trkpt lat="45.80857554037921" lon="9.49960487039908"><ele>1041.6666666666667</ele><time>2026-04-09T10:54:10.001Z</time></trkpt><trkpt lat="45.8084235726722" lon="9.499657547269361"><ele>1045.3333333333335</ele><time>2026-04-09T10:54:11.001Z</time></trkpt><trkpt lat="45.80826476279933" lon="9.49969183940228"><ele>1049.0</ele><time>2026-04-09T10:54:12.001Z</time></trkpt><trkpt lat="45.80809487867352" lon="9.49970398344569"><ele>1049.0</ele><time>2026-04-09T10:54:13.001Z</time></trkpt><trkpt lat="45.80792276864881" lon="9.49970671979231"><ele>1049.0</ele><time>2026-04-09T10:54:14.001Z</time></trkpt><trkpt lat="45.807768713590384" lon="9.499702099779299"><ele>1049.0</ele><time>2026-04-09T10:54:15.001Z</time></trkpt><trkpt lat="45.807629774843704" lon="9.49967957188907"><ele>1050.3333333333335</ele><time>2026-04-09T10:54:16.001Z</time></trkpt><trkpt lat="45.80749796123251" lon="9.499619954053891"><ele>1051.6666666666667</ele><time>2026-04-09T10:54:17.001Z</time></trkpt><trkpt lat="45.80735545428613" lon="9.499547365463235"><ele>1053.0</ele><time>2026-04-09T10:54:18.001Z</time></trkpt><trkpt lat="45.807199536174224" lon="9.499462962021536"><ele>1062.0</ele><time>2026-04-09T10:54:19.001Z</time></trkpt><trkpt lat="45.80704214133153" lon="9.499380036027942"><ele>1071.0</ele><time>2026-04-09T10:54:20.001Z</time></trkpt><trkpt lat="45.806878363789096" lon="9.499315247099373"><ele>1080.0</ele><time>2026-04-09T10:54:21.001Z</time></trkpt><trkpt lat="45.806717901435256" lon="9.49932247392462"><ele>1082.0</ele><time>2026-04-09T10:54:22.001Z</time></trkpt><trkpt lat="45.806560778687285" lon="9.499323362789497"><ele>1084.0</ele><time>2026-04-09T10:54:23.001Z</time></trkpt><trkpt lat="45.80640048721544" lon="9.499354663291053"><ele>1086.0</ele><time>2026-04-09T10:54:24.001Z</time></trkpt><trkpt lat="45.80622703128759" lon="9.499358349343229"><ele>1086.0</ele><time>2026-04-09T10:54:25.001Z</time></trkpt><trkpt lat="45.806059135999014" lon="9.499390656153569"><ele>1086.0</ele><time>2026-04-09T10:54:26.001Z</time></trkpt><trkpt lat="45.80588350690724" lon="9.499433093454146"><ele>1086.0</ele><time>2026-04-09T10:54:27.001Z</time></trkpt><trkpt lat="45.805711556069" lon="9.499508355495202"><ele>1090.3333333333333</ele><time>2026-04-09T10:54:28.001Z</time></trkpt><trkpt lat="45.80553682701897" lon="9.49953703640765"><ele>1094.6666666666665</ele><time>2026-04-09T10:54:29.001Z</time></trkpt><trkpt lat="45.80537306838941" lon="9.499596891794617"><ele>1099.0</ele><time>2026-04-09T10:54:30.001Z</time></trkpt><trkpt lat="45.805230150969926" lon="9.499632333851856"><ele>1093.25</ele><time>2026-04-09T10:54:31.001Z</time></trkpt><trkpt lat="45.80510213704155" lon="9.499648105171746"><ele>1087.5</ele><time>2026-04-09T10:54:32.002Z</time></trkpt><trkpt lat="45.80498644670127" lon="9.499653012125822"><ele>1081.75</ele><time>2026-04-09T10:54:33.002Z</time></trkpt><trkpt lat="45.80487243678091" lon="9.499652079475599"><ele>1076.0</ele><time>2026-04-09T10:54:34.002Z</time></trkpt><trkpt lat="45.80474879373807" lon="9.499638463112909"><ele>1076.0</ele><time>2026-04-09T10:54:34.998Z</time></trkpt><trkpt lat="45.80461243404175" lon="9.49962888128864"><ele>1076.0</ele><time>2026-04-09T10:54:35.998Z</time></trkpt><trkpt lat="45.80447109587944" lon="9.499595542467372"><ele>1076.0</ele><time>2026-04-09T10:54:36.998Z</time></trkpt><trkpt lat="45.80432429440101" lon="9.4995970036612"><ele>1076.0</ele><time>2026-04-09T10:54:37.998Z</time></trkpt><trkpt lat="45.80415036540022" lon="9.499614885730917"><ele>1079.0</ele><time>2026-04-09T10:54:38.998Z</time></trkpt><trkpt lat="45.80396403671296" lon="9.499640031174717"><ele>1082.0</ele><time>2026-04-09T10:54:39.998Z</time></trkpt><trkpt lat="45.80377667973256" lon="9.499669387762376"><ele>1085.0</ele><time>2026-04-09T10:54:40.999Z</time></trkpt><trkpt lat="45.80359435850665" lon="9.499698983875081"><ele>1089.6666666666667</ele><time>2026-04-09T10:54:41.999Z</time></trkpt><trkpt lat="45.8034253027867" lon="9.499742248675059"><ele>1094.3333333333333</ele><time>2026-04-09T10:54:42.999Z</time></trkpt><trkpt lat="45.80326925767382" lon="9.499732538811724"><ele>1099.0</ele><time>2026-04-09T10:54:43.999Z</time></trkpt><trkpt lat="45.80310438808346" lon="9.499745706832798"><ele>1099.0</ele><time>2026-04-09T10:54:44.999Z</time></trkpt><trkpt lat="45.802922032250414" lon="9.499800004940306"><ele>1099.0</ele><time>2026-04-09T10:54:45.999Z</time></trkpt><trkpt lat="45.80273140878437" lon="9.499877256580586"><ele>1099.0</ele><time>2026-04-09T10:54:46.999Z</time></trkpt><trkpt lat="45.802544248933906" lon="9.499948262539652"><ele>1103.0</ele><time>2026-04-09T10:54:47.999Z</time></trkpt><trkpt lat="45.80236804533892" lon="9.499989836161319"><ele>1107.0</ele><time>2026-04-09T10:54:48.999Z</time></trkpt><trkpt lat="45.802218750992864" lon="9.49998836286407"><ele>1111.0</ele><time>2026-04-09T10:54:49.999Z</time></trkpt><trkpt lat="45.802089513795124" lon="9.499977078282548"><ele>1111.0</ele><time>2026-04-09T10:54:50.999Z</time></trkpt><trkpt lat="45.80193751805912" lon="9.499954418869557"><ele>1111.0</ele><time>2026-04-09T10:54:51.999Z</time></trkpt><trkpt lat="45.80176464107588" lon="9.49992559848779"><ele>1111.0</ele><time>2026-04-09T10:54:52.999Z</time></trkpt><trkpt lat="45.801584327548724" lon="9.499900128979078"><ele>1113.3333333333333</ele><time>2026-04-09T10:54:53.999Z</time></trkpt><trkpt lat="45.8014015452626" lon="9.499889120129358"><ele>1115.6666666666667</ele><time>2026-04-09T10:54:55Z</time></trkpt><trkpt lat="45.801212952595534" lon="9.499880156835951"><ele>1118.0</ele><time>2026-04-09T10:54:56Z</time></trkpt><trkpt lat="45.80101331393033" lon="9.499881568945323"><ele>1120.3333333333335</ele><time>2026-04-09T10:54:57Z</time></trkpt><trkpt lat="45.8008208495011" lon="9.499897811083397"><ele>1122.6666666666667</ele><time>2026-04-09T10:54:58Z</time></trkpt><trkpt lat="45.80065751482942" lon="9.499935186946583"><ele>1125.0</ele><time>2026-04-09T10:54:59Z</time></trkpt><trkpt lat="45.80051934145956" lon="9.499983316453045"><ele>1125.0</ele><time>2026-04-09T10:55:00Z</time></trkpt><trkpt lat="45.800378626786724" lon="9.500066022071483"><ele>1125.0</ele><time>2026-04-09T10:55:01Z</time></trkpt><trkpt lat="45.80023324973541" lon="9.500131074227792"><ele>1125.0</ele><time>2026-04-09T10:55:02Z</time></trkpt><trkpt lat="45.800065522718675" lon="9.500211909809698"><ele>1121.3333333333333</ele><time>2026-04-09T10:55:03Z</time></trkpt><trkpt lat="45.79989217309526" lon="9.50034071443507"><ele>1117.6666666666665</ele><time>2026-04-09T10:55:04Z</time></trkpt><trkpt lat="45.799750568807646" lon="9.500451882132582"><ele>1114.0</ele><time>2026-04-09T10:55:05Z</time></trkpt><trkpt lat="45.79962667783686" lon="9.50052243415836"><ele>1114.0</ele><time>2026-04-09T10:55:06Z</time></trkpt><trkpt lat="45.79950642933347" lon="9.500557997901465"><ele>1114.0</ele><time>2026-04-09T10:55:07Z</time></trkpt><trkpt lat="45.79936792031779" lon="9.50056994514174"><ele>1114.0</ele><time>2026-04-09T10:55:08Z</time></trkpt><trkpt lat="45.799206473203874" lon="9.500578511452352"><ele>1114.0</ele><time>2026-04-09T10:55:09Z</time></trkpt><trkpt lat="45.79904679557588" lon="9.500598116477324"><ele>1120.3333333333333</ele><time>2026-04-09T10:55:10Z</time></trkpt><trkpt lat="45.798877828787404" lon="9.500651587180887"><ele>1126.6666666666667</ele><time>2026-04-09T10:55:11Z</time></trkpt><trkpt lat="45.79871294031401" lon="9.500720136840483"><ele>1133.0</ele><time>2026-04-09T10:55:12Z</time></trkpt><trkpt lat="45.798541728151086" lon="9.500805583715742"><ele>1141.3333333333335</ele><time>2026-04-09T10:55:13.001Z</time></trkpt><trkpt lat="45.798380413796615" lon="9.500909887189323"><ele>1149.6666666666667</ele><time>2026-04-09T10:55:14.001Z</time></trkpt><trkpt lat="45.79821427555542" lon="9.501051499679434"><ele>1158.0</ele><time>2026-04-09T10:55:15.001Z</time></trkpt><trkpt lat="45.798075747979915" lon="9.501218573983033"><ele>1152.3333333333333</ele><time>2026-04-09T10:55:16.001Z</time></trkpt><trkpt lat="45.79794267635369" lon="9.501412448825189"><ele>1146.6666666666665</ele><time>2026-04-09T10:55:17.001Z</time></trkpt><trkpt lat="45.79785274816631" lon="9.501564827166758"><ele>1141.0</ele><time>2026-04-09T10:55:18.001Z</time></trkpt><trkpt lat="45.79778710662927" lon="9.50172378155416"><ele>1141.0</ele><time>2026-04-09T10:55:19.001Z</time></trkpt><trkpt lat="45.79772376072074" lon="9.501855274144544"><ele>1141.0</ele><time>2026-04-09T10:55:20.001Z</time></trkpt><trkpt lat="45.79769658511607" lon="9.501972479061058"><ele>1141.0</ele><time>2026-04-09T10:55:21.001Z</time></trkpt><trkpt lat="45.79770496254072" lon="9.502097605068132"><ele>1141.0</ele><time>2026-04-09T10:55:22.001Z</time></trkpt><trkpt lat="45.797747604046606" lon="9.502203932159128"><ele>1141.0</ele><time>2026-04-09T10:55:23.001Z</time></trkpt><trkpt lat="45.79778886871835" lon="9.502332755547537"><ele>1141.0</ele><time>2026-04-09T10:55:24.001Z</time></trkpt><trkpt lat="45.79782314056189" lon="9.502477668259175"><ele>1141.0</ele><time>2026-04-09T10:55:25.001Z</time></trkpt><trkpt lat="45.79784415067483" lon="9.50261472269361"><ele>1141.0</ele><time>2026-04-09T10:55:26.001Z</time></trkpt><trkpt lat="45.79785369001356" lon="9.502720678129577"><ele>1141.0</ele><time>2026-04-09T10:55:27.001Z</time></trkpt><trkpt lat="45.79785691094585" lon="9.502830367340382"><ele>1141.0</ele><time>2026-04-09T10:55:28.001Z</time></trkpt><trkpt lat="45.797839045488914" lon="9.502939560883476"><ele>1141.0</ele><time>2026-04-09T10:55:29.001Z</time></trkpt><trkpt lat="45.797799746192176" lon="9.503050346317247"><ele>1137.5</ele><time>2026-04-09T10:55:30.001Z</time></trkpt><trkpt lat="45.79772291645388" lon="9.503134414864082"><ele>1134.0</ele><time>2026-04-09T10:55:31.001Z</time></trkpt><trkpt lat="45.79762181148083" lon="9.503221541796961"><ele>1130.5</ele><time>2026-04-09T10:55:32.001Z</time></trkpt><trkpt lat="45.797510809720016" lon="9.503303447545782"><ele>1127.0</ele><time>2026-04-09T10:55:33.001Z</time></trkpt><trkpt lat="45.79738372670805" lon="9.503412337443807"><ele>1128.3333333333335</ele><time>2026-04-09T10:55:34.001Z</time></trkpt><trkpt lat="45.79725128535678" lon="9.503549526346108"><ele>1129.6666666666667</ele><time>2026-04-09T10:55:35.001Z</time></trkpt><trkpt lat="45.797103117297084" lon="9.503667953829966"><ele>1131.0</ele><time>2026-04-09T10:55:36.001Z</time></trkpt><trkpt lat="45.7969602486802" lon="9.503809607417269"><ele>1141.6666666666667</ele><time>2026-04-09T10:55:37.001Z</time></trkpt><trkpt lat="45.79681575590071" lon="9.503944256382603"><ele>1152.3333333333335</ele><time>2026-04-09T10:55:38.001Z</time></trkpt><trkpt lat="45.79667362023886" lon="9.50406377108486"><ele>1163.0</ele><time>2026-04-09T10:55:39.001Z</time></trkpt><trkpt lat="45.79655188583343" lon="9.504190509777965"><ele>1163.0</ele><time>2026-04-09T10:55:40.001Z</time></trkpt><trkpt lat="45.79643569344773" lon="9.50424649816587"><ele>1163.0</ele><time>2026-04-09T10:55:41.001Z</time></trkpt><trkpt lat="45.796328404758974" lon="9.504324284446621"><ele>1163.0</ele><time>2026-04-09T10:55:42.002Z</time></trkpt><trkpt lat="45.79619205599383" lon="9.504305611134102"><ele>1163.0</ele><time>2026-04-09T10:55:43.002Z</time></trkpt><trkpt lat="45.79607752268437" lon="9.504330176737904"><ele>1164.6</ele><time>2026-04-09T10:55:44.002Z</time></trkpt><trkpt lat="45.79599356972767" lon="9.504368924201001"><ele>1166.1999999999998</ele><time>2026-04-09T10:55:45.002Z</time></trkpt><trkpt lat="45.7959237188163" lon="9.50442167089997"><ele>1167.8</ele><time>2026-04-09T10:55:46.002Z</time></trkpt><trkpt lat="45.79586055626646" lon="9.504487705605833"><ele>1169.3999999999999</ele><time>2026-04-09T10:55:47.002Z</time></trkpt><trkpt lat="45.79577261453042" lon="9.50460886237034"><ele>1171.0</ele><time>2026-04-09T10:55:49.002Z</time></trkpt><trkpt lat="45.79569562385281" lon="9.50469882327517"><ele>1171.0</ele><time>2026-04-09T10:55:51.002Z</time></trkpt><trkpt lat="45.79566145115752" lon="9.504780108141459"><ele>1171.0</ele><time>2026-04-09T10:55:53.002Z</time></trkpt><trkpt lat="45.79558989076358" lon="9.504864224318206"><ele>1171.0</ele><time>2026-04-09T10:59:28.001Z</time></trkpt><trkpt lat="45.7955471072254" lon="9.504946823389695"><ele>1171.0</ele><time>2026-04-09T10:59:29.001Z</time></trkpt><trkpt lat="45.79550515773936" lon="9.505048917411765"><ele>1171.0</ele><time>2026-04-09T10:59:30.001Z</time></trkpt><trkpt lat="45.79547373797732" lon="9.505139691621187"><ele>1171.0</ele><time>2026-04-09T10:59:31.001Z</time></trkpt><trkpt lat="45.79543354355278" lon="9.505263215792432"><ele>1171.0</ele><time>2026-04-09T10:59:32.001Z</time></trkpt><trkpt lat="45.795384252088205" lon="9.505400866362812"><ele>1171.0</ele><time>2026-04-09T10:59:33.001Z</time></trkpt><trkpt lat="45.795329791226976" lon="9.505511564193222"><ele>1171.0</ele><time>2026-04-09T10:59:34.002Z</time></trkpt><trkpt lat="45.7952716051353" lon="9.505603587053871"><ele>1171.0</ele><time>2026-04-09T10:59:35.002Z</time></trkpt><trkpt lat="45.795215129158045" lon="9.505671408612915"><ele>1171.0</ele><time>2026-04-09T10:59:36.002Z</time></trkpt><trkpt lat="45.795154778847404" lon="9.50573311736878"><ele>1171.0</ele><time>2026-04-09T10:59:37.002Z</time></trkpt><trkpt lat="45.79509618630614" lon="9.50578277168404"><ele>1173.0</ele><time>2026-04-09T10:59:38.002Z</time></trkpt><trkpt lat="45.79502006240521" lon="9.505845222795765"><ele>1175.0</ele><time>2026-04-09T10:59:39.002Z</time></trkpt><trkpt lat="45.79493114947061" lon="9.505844198006669"><ele>1177.0</ele><time>2026-04-09T10:59:40.002Z</time></trkpt><trkpt lat="45.79485175956646" lon="9.505855744975758"><ele>1179.0</ele><time>2026-04-09T10:59:41.002Z</time></trkpt><trkpt lat="45.79476214004023" lon="9.505905131361953"><ele>1181.0</ele><time>2026-04-09T10:59:42.002Z</time></trkpt><trkpt lat="45.794677710581034" lon="9.505996092590673"><ele>1181.0</ele><time>2026-04-09T10:59:43.002Z</time></trkpt><trkpt lat="45.794577256811" lon="9.506123466306228"><ele>1181.0</ele><time>2026-04-09T10:59:44.002Z</time></trkpt><trkpt lat="45.79449650867648" lon="9.50629143780972"><ele>1181.0</ele><time>2026-04-09T10:59:45.002Z</time></trkpt><trkpt lat="45.79440257996331" lon="9.506441538934903"><ele>1181.0</ele><time>2026-04-09T10:59:46.002Z</time></trkpt><trkpt lat="45.79429297058597" lon="9.506553991049442"><ele>1181.75</ele><time>2026-04-09T10:59:47.002Z</time></trkpt><trkpt lat="45.79420723131471" lon="9.506713167167039"><ele>1182.5</ele><time>2026-04-09T10:59:48.002Z</time></trkpt><trkpt lat="45.79411793653133" lon="9.506872419065198"><ele>1183.25</ele><time>2026-04-09T10:59:49.002Z</time></trkpt><trkpt lat="45.79401419397669" lon="9.50702654002083"><ele>1184.0</ele><time>2026-04-09T10:59:50.002Z</time></trkpt><trkpt lat="45.793900693845785" lon="9.507160980825503"><ele>1181.0</ele><time>2026-04-09T10:59:51.002Z</time></trkpt><trkpt lat="45.793786830712456" lon="9.507293467086216"><ele>1178.0</ele><time>2026-04-09T10:59:52.002Z</time></trkpt><trkpt lat="45.79367095971476" lon="9.507429297268004"><ele>1175.0</ele><time>2026-04-09T10:59:53.002Z</time></trkpt><trkpt lat="45.793556961171824" lon="9.507563627097777"><ele>1172.0</ele><time>2026-04-09T10:59:54.002Z</time></trkpt><trkpt lat="45.793444145433796" lon="9.507701934474722"><ele>1175.6666666666667</ele><time>2026-04-09T10:59:55.002Z</time></trkpt><trkpt lat="45.79332944563737" lon="9.507857208206882"><ele>1179.3333333333333</ele><time>2026-04-09T10:59:56.002Z</time></trkpt><trkpt lat="45.79321001996657" lon="9.508020079282193"><ele>1183.0</ele><time>2026-04-09T10:59:57.002Z</time></trkpt><trkpt lat="45.793103475825795" lon="9.508176569471535"><ele>1183.0</ele><time>2026-04-09T10:59:58.002Z</time></trkpt><trkpt lat="45.79301251995162" lon="9.508333193732538"><ele>1183.0</ele><time>2026-04-09T10:59:59.002Z</time></trkpt><trkpt lat="45.792928674586214" lon="9.508507680127"><ele>1183.0</ele><time>2026-04-09T11:00:00.002Z</time></trkpt><trkpt lat="45.792850843649056" lon="9.508679437586844"><ele>1183.0</ele><time>2026-04-09T11:00:01.002Z</time></trkpt><trkpt lat="45.792782441259476" lon="9.508870305016831"><ele>1179.6666666666665</ele><time>2026-04-09T11:00:02.002Z</time></trkpt><trkpt lat="45.79273171488354" lon="9.509070037789483"><ele>1176.3333333333333</ele><time>2026-04-09T11:00:03.002Z</time></trkpt><trkpt lat="45.79270680687002" lon="9.509287253568859"><ele>1173.0</ele><time>2026-04-09T11:00:04.002Z</time></trkpt><trkpt lat="45.79269638381427" lon="9.50953457556884"><ele>1174.3333333333333</ele><time>2026-04-09T11:00:05.002Z</time></trkpt><trkpt lat="45.792685036974696" lon="9.509779060383664"><ele>1175.6666666666665</ele><time>2026-04-09T11:00:06.002Z</time></trkpt><trkpt lat="45.79266933740652" lon="9.510024556306853"><ele>1177.0</ele><time>2026-04-09T11:00:07.002Z</time></trkpt><trkpt lat="45.79264485503655" lon="9.510257489200859"><ele>1183.25</ele><time>2026-04-09T11:00:08.002Z</time></trkpt><trkpt lat="45.7926159283366" lon="9.510473127803454"><ele>1189.5</ele><time>2026-04-09T11:00:09.002Z</time></trkpt><trkpt lat="45.7925946574031" lon="9.510672435931152"><ele>1195.75</ele><time>2026-04-09T11:00:10.002Z</time></trkpt><trkpt lat="45.79257577276342" lon="9.51084368408624"><ele>1202.0</ele><time>2026-04-09T11:00:11.002Z</time></trkpt><trkpt lat="45.79254937583731" lon="9.511013978491555"><ele>1202.0</ele><time>2026-04-09T11:00:12.002Z</time></trkpt><trkpt lat="45.79249903708791" lon="9.511164743777861"><ele>1202.0</ele><time>2026-04-09T11:00:13.002Z</time></trkpt><trkpt lat="45.79242060837309" lon="9.511309727735004"><ele>1202.0</ele><time>2026-04-09T11:00:14.002Z</time></trkpt><trkpt lat="45.79231988369317" lon="9.511448466622314"><ele>1202.0</ele><time>2026-04-09T11:00:15.002Z</time></trkpt><trkpt lat="45.79221717073243" lon="9.511585116355112"><ele>1201.75</ele><time>2026-04-09T11:00:16.002Z</time></trkpt><trkpt lat="45.79214993811138" lon="9.511730153138032"><ele>1201.5</ele><time>2026-04-09T11:00:17.002Z</time></trkpt><trkpt lat="45.79211481719058" lon="9.511896137707778"><ele>1201.25</ele><time>2026-04-09T11:00:18.003Z</time></trkpt><trkpt lat="45.79210469128338" lon="9.512082480857734"><ele>1201.0</ele><time>2026-04-09T11:00:19.003Z</time></trkpt><trkpt lat="45.79212629354365" lon="9.51228190321655"><ele>1202.5</ele><time>2026-04-09T11:00:20.003Z</time></trkpt><trkpt lat="45.79215914916513" lon="9.51248152212545"><ele>1204.0</ele><time>2026-04-09T11:00:21.003Z</time></trkpt><trkpt lat="45.79221686525642" lon="9.51266838623926"><ele>1205.5</ele><time>2026-04-09T11:00:22.003Z</time></trkpt><trkpt lat="45.79228429042071" lon="9.512844763555227"><ele>1207.0</ele><time>2026-04-09T11:00:23.003Z</time></trkpt><trkpt lat="45.79233781600529" lon="9.513005881083838"><ele>1207.0</ele><time>2026-04-09T11:00:24.003Z</time></trkpt><trkpt lat="45.79235958370693" lon="9.513160733900841"><ele>1207.0</ele><time>2026-04-09T11:00:25.003Z</time></trkpt><trkpt lat="45.79234275264935" lon="9.513298023437358"><ele>1207.0</ele><time>2026-04-09T11:00:26.003Z</time></trkpt><trkpt lat="45.79229433439318" lon="9.513392943921227"><ele>1207.0</ele><time>2026-04-09T11:00:27.003Z</time></trkpt><trkpt lat="45.79222852037165" lon="9.51342870991972"><ele>1207.0</ele><time>2026-04-09T11:00:28.003Z</time></trkpt><trkpt lat="45.79214426710634" lon="9.513431966404017"><ele>1207.0</ele><time>2026-04-09T11:00:29.003Z</time></trkpt><trkpt lat="45.7920478183956" lon="9.51341560256755"><ele>1207.0</ele><time>2026-04-09T11:00:30.003Z</time></trkpt><trkpt lat="45.791937901500575" lon="9.513402410153432"><ele>1207.0</ele><time>2026-04-09T11:00:31.003Z</time></trkpt><trkpt lat="45.79181803012795" lon="9.513399570241486"><ele>1207.0</ele><time>2026-04-09T11:00:32.003Z</time></trkpt><trkpt lat="45.7916986499385" lon="9.51340837967793"><ele>1207.0</ele><time>2026-04-09T11:00:33.003Z</time></trkpt><trkpt lat="45.791596821583255" lon="9.513441348162106"><ele>1208.0</ele><time>2026-04-09T11:00:34.003Z</time></trkpt><trkpt lat="45.791505191397" lon="9.513519469037089"><ele>1209.0</ele><time>2026-04-09T11:00:35.003Z</time></trkpt><trkpt lat="45.791427455451945" lon="9.513632174665737"><ele>1210.0</ele><time>2026-04-09T11:00:36.003Z</time></trkpt><trkpt lat="45.791352528035155" lon="9.51378593555344"><ele>1211.0</ele><time>2026-04-09T11:00:37.003Z</time></trkpt><trkpt lat="45.7912814730376" lon="9.513966146860778"><ele>1211.0</ele><time>2026-04-09T11:00:38.003Z</time></trkpt><trkpt lat="45.79120451617111" lon="9.514165917470528"><ele>1211.0</ele><time>2026-04-09T11:00:39.003Z</time></trkpt><trkpt lat="45.79111506614774" lon="9.514359600108966"><ele>1211.0</ele><time>2026-04-09T11:00:40.003Z</time></trkpt><trkpt lat="45.7910138781989" lon="9.51457819821036"><ele>1216.0</ele><time>2026-04-09T11:00:41.003Z</time></trkpt><trkpt lat="45.79091640150472" lon="9.51479604337823"><ele>1221.0</ele><time>2026-04-09T11:00:42.003Z</time></trkpt><trkpt lat="45.79081804450432" lon="9.515018604566478"><ele>1226.0</ele><time>2026-04-09T11:00:43.003Z</time></trkpt><trkpt lat="45.79074070654086" lon="9.515220356124093"><ele>1226.0</ele><time>2026-04-09T11:00:44.003Z</time></trkpt><trkpt lat="45.79067389749207" lon="9.515395108207207"><ele>1226.0</ele><time>2026-04-09T11:00:45.003Z</time></trkpt><trkpt lat="45.79059616102145" lon="9.51554832586677"><ele>1226.0</ele><time>2026-04-09T11:00:46.003Z</time></trkpt><trkpt lat="45.790509271801376" lon="9.51569640880941"><ele>1226.0</ele><time>2026-04-09T11:00:47.003Z</time></trkpt><trkpt lat="45.79039849638539" lon="9.515855481232995"><ele>1228.0</ele><time>2026-04-09T11:00:48.003Z</time></trkpt><trkpt lat="45.79027505009958" lon="9.516015752692683"><ele>1230.0</ele><time>2026-04-09T11:00:49.003Z</time></trkpt><trkpt lat="45.79015037089103" lon="9.51620023992543"><ele>1232.0</ele><time>2026-04-09T11:00:50.003Z</time></trkpt><trkpt lat="45.790056190583215" lon="9.516389948945179"><ele>1232.0</ele><time>2026-04-09T11:00:51.003Z</time></trkpt><trkpt lat="45.789957366552756" lon="9.516600340099796"><ele>1232.0</ele><time>2026-04-09T11:00:52.003Z</time></trkpt><trkpt lat="45.78989023921213" lon="9.516780846695918"><ele>1232.0</ele><time>2026-04-09T11:00:53.002Z</time></trkpt><trkpt lat="45.78982226532534" lon="9.516956596988457"><ele>1227.3333333333335</ele><time>2026-04-09T11:00:54.002Z</time></trkpt><trkpt lat="45.78973021334079" lon="9.51713714989053"><ele>1222.6666666666667</ele><time>2026-04-09T11:00:55.002Z</time></trkpt><trkpt lat="45.789607475712" lon="9.517308572989727"><ele>1218.0</ele><time>2026-04-09T11:00:56.002Z</time></trkpt><trkpt lat="45.78947477139042" lon="9.5174872970018"><ele>1218.0</ele><time>2026-04-09T11:00:57.002Z</time></trkpt><trkpt lat="45.78934455596076" lon="9.517675960290068"><ele>1218.0</ele><time>2026-04-09T11:00:58.002Z</time></trkpt><trkpt lat="45.78921693066272" lon="9.51787852935242"><ele>1218.0</ele><time>2026-04-09T11:00:59.002Z</time></trkpt><trkpt lat="45.7891063671798" lon="9.51808913680986"><ele>1223.25</ele><time>2026-04-09T11:01:00.002Z</time></trkpt><trkpt lat="45.78901601570044" lon="9.518281325799993"><ele>1228.5</ele><time>2026-04-09T11:01:01.002Z</time></trkpt><trkpt lat="45.78893072548242" lon="9.518438271400862"><ele>1233.75</ele><time>2026-04-09T11:01:02.002Z</time></trkpt><trkpt lat="45.78886300728099" lon="9.518573855808459"><ele>1239.0</ele><time>2026-04-09T11:01:03.001Z</time></trkpt><trkpt lat="45.78880868211955" lon="9.51867730274697"><ele>1239.0</ele><time>2026-04-09T11:01:04.001Z</time></trkpt><trkpt lat="45.78871378523879" lon="9.51870586119716"><ele>1239.0</ele><time>2026-04-09T11:01:06.001Z</time></trkpt><trkpt lat="45.788686399425885" lon="9.518571617819632"><ele>1239.0</ele><time>2026-04-09T11:01:08.001Z</time></trkpt><trkpt lat="45.78872985133005" lon="9.518489827590049"><ele>1239.0</ele><time>2026-04-09T11:01:09.001Z</time></trkpt><trkpt lat="45.78880590742111" lon="9.518444681980428"><ele>1239.0</ele><time>2026-04-09T11:01:10.001Z</time></trkpt><trkpt lat="45.78887013887131" lon="9.518326010995144"><ele>1239.0</ele><time>2026-04-09T11:01:11.001Z</time></trkpt><trkpt lat="45.78893784073124" lon="9.518187865414356"><ele>1239.0</ele><time>2026-04-09T11:01:12.001Z</time></trkpt><trkpt lat="45.78900599161298" lon="9.518031189589461"><ele>1239.0</ele><time>2026-04-09T11:01:13.001Z</time></trkpt><trkpt lat="45.7890338310844" lon="9.517871903584908"><ele>1239.0</ele><time>2026-04-09T11:01:14.001Z</time></trkpt><trkpt lat="45.789086726930314" lon="9.517697060953727"><ele>1243.25</ele><time>2026-04-09T11:01:15.001Z</time></trkpt><trkpt lat="45.78916014708213" lon="9.517536943033807"><ele>1247.5</ele><time>2026-04-09T11:01:16.001Z</time></trkpt><trkpt lat="45.789210179062806" lon="9.517347218259333"><ele>1251.75</ele><time>2026-04-09T11:01:17.001Z</time></trkpt><trkpt lat="45.78928022954397" lon="9.517185056258315"><ele>1256.0</ele><time>2026-04-09T11:01:18.001Z</time></trkpt><trkpt lat="45.78933373932552" lon="9.517035887443466"><ele>1250.0</ele><time>2026-04-09T11:01:19.001Z</time></trkpt><trkpt lat="45.78937182946817" lon="9.516878834902458"><ele>1244.0</ele><time>2026-04-09T11:01:20.001Z</time></trkpt><trkpt lat="45.78940578492305" lon="9.516701630958718"><ele>1238.0</ele><time>2026-04-09T11:01:21.001Z</time></trkpt><trkpt lat="45.789413115426115" lon="9.516497162025294"><ele>1232.0</ele><time>2026-04-09T11:01:22.001Z</time></trkpt><trkpt lat="45.78940971052525" lon="9.516266206993647"><ele>1235.75</ele><time>2026-04-09T11:01:23.001Z</time></trkpt><trkpt lat="45.78945469381003" lon="9.516067608155415"><ele>1239.5</ele><time>2026-04-09T11:01:24.001Z</time></trkpt><trkpt lat="45.789518031684295" lon="9.515930450922085"><ele>1243.25</ele><time>2026-04-09T11:01:25.001Z</time></trkpt><trkpt lat="45.7895837349893" lon="9.515762066009236"><ele>1247.0</ele><time>2026-04-09T11:01:26.001Z</time></trkpt><trkpt lat="45.789651545048194" lon="9.515584090800342"><ele>1251.75</ele><time>2026-04-09T11:01:27.001Z</time></trkpt><trkpt lat="45.78968801500465" lon="9.515370933846025"><ele>1256.5</ele><time>2026-04-09T11:01:28.001Z</time></trkpt><trkpt lat="45.78972948146961" lon="9.515161517690245"><ele>1261.25</ele><time>2026-04-09T11:01:29.001Z</time></trkpt><trkpt lat="45.789757524305905" lon="9.51496223004989"><ele>1266.0</ele><time>2026-04-09T11:01:30.001Z</time></trkpt><trkpt lat="45.789768978615754" lon="9.514824935452348"><ele>1266.0</ele><time>2026-04-09T11:01:31.001Z</time></trkpt><trkpt lat="45.78981846756311" lon="9.514676458634902"><ele>1266.0</ele><time>2026-04-09T11:01:32.001Z</time></trkpt><trkpt lat="45.78987125217586" lon="9.514472709847828"><ele>1266.0</ele><time>2026-04-09T11:01:33.001Z</time></trkpt><trkpt lat="45.78992791960252" lon="9.514253507322003"><ele>1266.0</ele><time>2026-04-09T11:01:34.001Z</time></trkpt><trkpt lat="45.78998084795427" lon="9.514032241338297"><ele>1270.0</ele><time>2026-04-09T11:01:35.001Z</time></trkpt><trkpt lat="45.79002158559576" lon="9.513798237481964"><ele>1274.0</ele><time>2026-04-09T11:01:36.001Z</time></trkpt><trkpt lat="45.790081570185805" lon="9.513580858135807"><ele>1278.0</ele><time>2026-04-09T11:01:37.001Z</time></trkpt><trkpt lat="45.79013830646672" lon="9.513383933341428"><ele>1271.3333333333333</ele><time>2026-04-09T11:01:38.001Z</time></trkpt><trkpt lat="45.79019902773608" lon="9.513167772795617"><ele>1264.6666666666665</ele><time>2026-04-09T11:01:39.001Z</time></trkpt><trkpt lat="45.7902301369712" lon="9.51289697056915"><ele>1258.0</ele><time>2026-04-09T11:01:40.001Z</time></trkpt><trkpt lat="45.790260656075894" lon="9.512642323063025"><ele>1258.0</ele><time>2026-04-09T11:01:41.001Z</time></trkpt><trkpt lat="45.79028269449326" lon="9.512367398516314"><ele>1258.0</ele><time>2026-04-09T11:01:42.001Z</time></trkpt><trkpt lat="45.790306211154835" lon="9.512094530781225"><ele>1258.0</ele><time>2026-04-09T11:01:43.001Z</time></trkpt><trkpt lat="45.79032399713808" lon="9.511814051200435"><ele>1262.0</ele><time>2026-04-09T11:01:44.001Z</time></trkpt><trkpt lat="45.79033996535143" lon="9.511555761023633"><ele>1266.0</ele><time>2026-04-09T11:01:45.001Z</time></trkpt><trkpt lat="45.790353374781425" lon="9.511329417039851"><ele>1270.0</ele><time>2026-04-09T11:01:46.001Z</time></trkpt><trkpt lat="45.79036812350729" lon="9.511128376493078"><ele>1271.6</ele><time>2026-04-09T11:01:47.001Z</time></trkpt><trkpt lat="45.79037400299677" lon="9.510937250612455"><ele>1273.2</ele><time>2026-04-09T11:01:48.001Z</time></trkpt><trkpt lat="45.79039891087592" lon="9.510790236629772"><ele>1274.8</ele><time>2026-04-09T11:01:49.002Z</time></trkpt><trkpt lat="45.79041204617285" lon="9.510631886082516"><ele>1276.4</ele><time>2026-04-09T11:01:50.002Z</time></trkpt><trkpt lat="45.79042337040262" lon="9.51051650905578"><ele>1278.0</ele><time>2026-04-09T11:01:51.002Z</time></trkpt><trkpt lat="45.79043581101518" lon="9.51040211844459"><ele>1279.2</ele><time>2026-04-09T11:01:52.002Z</time></trkpt><trkpt lat="45.79045052960379" lon="9.510287395716746"><ele>1280.4</ele><time>2026-04-09T11:01:53.002Z</time></trkpt><trkpt lat="45.79047144999546" lon="9.510139278326971"><ele>1281.6000000000001</ele><time>2026-04-09T11:01:54.002Z</time></trkpt><trkpt lat="45.79050350637764" lon="9.509978980671947"><ele>1282.8</ele><time>2026-04-09T11:01:55.002Z</time></trkpt><trkpt lat="45.790541184468815" lon="9.509811925577754"><ele>1284.0</ele><time>2026-04-09T11:01:56.002Z</time></trkpt><trkpt lat="45.79056360465295" lon="9.509646076541285"><ele>1287.0</ele><time>2026-04-09T11:01:57.002Z</time></trkpt><trkpt lat="45.7906110095627" lon="9.50950332466723"><ele>1290.0</ele><time>2026-04-09T11:01:58.002Z</time></trkpt><trkpt lat="45.79064135740188" lon="9.50936222316802"><ele>1293.0</ele><time>2026-04-09T11:01:59.002Z</time></trkpt><trkpt lat="45.79068831426865" lon="9.509225886403216"><ele>1296.0</ele><time>2026-04-09T11:02:00.002Z</time></trkpt><trkpt lat="45.790715380739655" lon="9.509120399212208"><ele>1299.0</ele><time>2026-04-09T11:02:01.002Z</time></trkpt><trkpt lat="45.790737717661735" lon="9.509028783875456"><ele>1299.0</ele><time>2026-04-09T11:02:02.002Z</time></trkpt><trkpt lat="45.79069277748323" lon="9.508922403132836"><ele>1299.0</ele><time>2026-04-09T11:02:04.002Z</time></trkpt><trkpt lat="45.7905910557096" lon="9.508944877809403"><ele>1299.0</ele><time>2026-04-09T11:02:06.002Z</time></trkpt><trkpt lat="45.79054073960059" lon="9.509005279198817"><ele>1299.0</ele><time>2026-04-09T11:02:07.002Z</time></trkpt><trkpt lat="45.79049999493528" lon="9.509109656520858"><ele>1299.0</ele><time>2026-04-09T11:02:08.002Z</time></trkpt><trkpt lat="45.790464415626246" lon="9.509241553698693"><ele>1299.0</ele><time>2026-04-09T11:02:09.002Z</time></trkpt><trkpt lat="45.79043368698795" lon="9.509397632841607"><ele>1299.0</ele><time>2026-04-09T11:02:10.002Z</time></trkpt><trkpt lat="45.79036309830734" lon="9.509564092176428"><ele>1299.0</ele><time>2026-04-09T11:02:11.002Z</time></trkpt><trkpt lat="45.790297421680144" lon="9.509746942183163"><ele>1299.0</ele><time>2026-04-09T11:02:12.002Z</time></trkpt><trkpt lat="45.79022499833772" lon="9.509945711699626"><ele>1299.0</ele><time>2026-04-09T11:02:13.002Z</time></trkpt><trkpt lat="45.79015277488551" lon="9.510139029898824"><ele>1305.6666666666667</ele><time>2026-04-09T11:02:14.002Z</time></trkpt><trkpt lat="45.79008663948634" lon="9.510331567684904"><ele>1312.3333333333335</ele><time>2026-04-09T11:02:15.002Z</time></trkpt><trkpt lat="45.79001406569112" lon="9.510540951561433"><ele>1319.0</ele><time>2026-04-09T11:02:16.002Z</time></trkpt><trkpt lat="45.789936209101015" lon="9.510762540061025"><ele>1319.0</ele><time>2026-04-09T11:02:17.002Z</time></trkpt><trkpt lat="45.789857843047955" lon="9.510980123660183"><ele>1319.0</ele><time>2026-04-09T11:02:18.002Z</time></trkpt><trkpt lat="45.78978110676194" lon="9.511201898922666"><ele>1319.0</ele><time>2026-04-09T11:02:19.002Z</time></trkpt><trkpt lat="45.78970310387328" lon="9.511427440808367"><ele>1314.6666666666667</ele><time>2026-04-09T11:02:20.002Z</time></trkpt><trkpt lat="45.78962786383223" lon="9.51165089165854"><ele>1310.3333333333333</ele><time>2026-04-09T11:02:21.002Z</time></trkpt><trkpt lat="45.78955556023324" lon="9.511852537036162"><ele>1306.0</ele><time>2026-04-09T11:02:22.002Z</time></trkpt><trkpt lat="45.78948705583203" lon="9.512045890836255"><ele>1302.3333333333333</ele><time>2026-04-09T11:02:23.002Z</time></trkpt><trkpt lat="45.78941278837056" lon="9.512219895139944"><ele>1298.6666666666667</ele><time>2026-04-09T11:02:24.002Z</time></trkpt><trkpt lat="45.789327147838506" lon="9.512402184296365"><ele>1295.0</ele><time>2026-04-09T11:02:25.002Z</time></trkpt><trkpt lat="45.789220444645835" lon="9.512583676085823"><ele>1303.0</ele><time>2026-04-09T11:02:26.002Z</time></trkpt><trkpt lat="45.789099838222754" lon="9.512777913282157"><ele>1311.0</ele><time>2026-04-09T11:02:27.002Z</time></trkpt><trkpt lat="45.78896875585352" lon="9.512980411197818"><ele>1319.0</ele><time>2026-04-09T11:02:28.002Z</time></trkpt><trkpt lat="45.78885554309765" lon="9.513185776851456"><ele>1319.0</ele><time>2026-04-09T11:02:29.002Z</time></trkpt><trkpt lat="45.78875308318801" lon="9.513364822624148"><ele>1319.0</ele><time>2026-04-09T11:02:30.002Z</time></trkpt><trkpt lat="45.78866022035483" lon="9.513545308738728"><ele>1319.0</ele><time>2026-04-09T11:02:31.002Z</time></trkpt><trkpt lat="45.78858128139248" lon="9.513715836021097"><ele>1316.2</ele><time>2026-04-09T11:02:32.002Z</time></trkpt><trkpt lat="45.78852049182691" lon="9.51387433310055"><ele>1313.4</ele><time>2026-04-09T11:02:33.002Z</time></trkpt><trkpt lat="45.788451527198035" lon="9.514004907798812"><ele>1310.6</ele><time>2026-04-09T11:02:34.002Z</time></trkpt><trkpt lat="45.78839765360491" lon="9.514130349432557"><ele>1307.8</ele><time>2026-04-09T11:02:35.002Z</time></trkpt><trkpt lat="45.788341786210026" lon="9.514217986355403"><ele>1305.0</ele><time>2026-04-09T11:02:36.002Z</time></trkpt><trkpt lat="45.78823589199462" lon="9.514232655101292"><ele>1312.75</ele><time>2026-04-09T11:02:38.002Z</time></trkpt><trkpt lat="45.78820049487257" lon="9.514155490699217"><ele>1320.5</ele><time>2026-04-09T11:02:41.002Z</time></trkpt><trkpt lat="45.78809079686387" lon="9.514291001934382"><ele>1328.25</ele><time>2026-04-09T11:02:50.003Z</time></trkpt><trkpt lat="45.78818451839965" lon="9.514082760441141"><ele>1336.0</ele><time>2026-04-09T11:02:53.003Z</time></trkpt><trkpt lat="45.788225219631045" lon="9.514190133984053"><ele>1336.0</ele><time>2026-04-09T11:08:48.002Z</time></trkpt><trkpt lat="45.78822972937466" lon="9.514087490596385"><ele>1336.0</ele><time>2026-04-09T11:08:50.002Z</time></trkpt><trkpt lat="45.788246049727285" lon="9.51399977137532"><ele>1336.0</ele><time>2026-04-09T11:08:51.002Z</time></trkpt><trkpt lat="45.78828195234776" lon="9.513842985254026"><ele>1336.0</ele><time>2026-04-09T11:08:53.002Z</time></trkpt><trkpt lat="45.78829262346689" lon="9.51374722245477"><ele>1336.0</ele><time>2026-04-09T11:08:54.002Z</time></trkpt><trkpt lat="45.78828496212836" lon="9.513630863415724"><ele>1336.0</ele><time>2026-04-09T11:08:55.002Z</time></trkpt><trkpt lat="45.78826779210425" lon="9.513507266586458"><ele>1335.8333333333333</ele><time>2026-04-09T11:08:56.002Z</time></trkpt><trkpt lat="45.78824140390096" lon="9.513383055928784"><ele>1335.6666666666665</ele><time>2026-04-09T11:08:57.002Z</time></trkpt><trkpt lat="45.78822057607268" lon="9.513251784783863"><ele>1335.5</ele><time>2026-04-09T11:08:58.002Z</time></trkpt><trkpt lat="45.788204364412955" lon="9.513131340057916"><ele>1335.3333333333333</ele><time>2026-04-09T11:08:59.002Z</time></trkpt><trkpt lat="45.78819470660339" lon="9.513012083048416"><ele>1335.1666666666667</ele><time>2026-04-09T11:09:00.002Z</time></trkpt><trkpt lat="45.78820050149476" lon="9.512890840121255"><ele>1335.0</ele><time>2026-04-09T11:09:01.002Z</time></trkpt><trkpt lat="45.78822043114268" lon="9.512747926268842"><ele>1334.2</ele><time>2026-04-09T11:09:02.002Z</time></trkpt><trkpt lat="45.78825286631486" lon="9.512597628477316"><ele>1333.4</ele><time>2026-04-09T11:09:03.002Z</time></trkpt><trkpt lat="45.788284761140254" lon="9.512434752403239"><ele>1332.6</ele><time>2026-04-09T11:09:04.002Z</time></trkpt><trkpt lat="45.78830942133118" lon="9.512268521219474"><ele>1331.8</ele><time>2026-04-09T11:09:05.002Z</time></trkpt><trkpt lat="45.78832425886177" lon="9.512121889726735"><ele>1331.0</ele><time>2026-04-09T11:09:06.002Z</time></trkpt><trkpt lat="45.78831756136162" lon="9.511976247358497"><ele>1330.5</ele><time>2026-04-09T11:09:07.002Z</time></trkpt><trkpt lat="45.78832086201341" lon="9.511842595534183"><ele>1330.0</ele><time>2026-04-09T11:09:08.002Z</time></trkpt><trkpt lat="45.78831143240421" lon="9.511704537638034"><ele>1329.5</ele><time>2026-04-09T11:09:09.002Z</time></trkpt><trkpt lat="45.78829424411374" lon="9.511582683930438"><ele>1329.0</ele><time>2026-04-09T11:09:10.002Z</time></trkpt><trkpt lat="45.78828233127898" lon="9.511464230485345"><ele>1328.5</ele><time>2026-04-09T11:09:11.002Z</time></trkpt><trkpt lat="45.78827222765429" lon="9.511343549615939"><ele>1328.0</ele><time>2026-04-09T11:09:12.002Z</time></trkpt><trkpt lat="45.78826229909942" lon="9.511222347543946"><ele>1328.0</ele><time>2026-04-09T11:09:13.002Z</time></trkpt><trkpt lat="45.78824867351634" lon="9.511067178328682"><ele>1328.0</ele><time>2026-04-09T11:09:14.002Z</time></trkpt><trkpt lat="45.78823707615035" lon="9.510903314343725"><ele>1328.0</ele><time>2026-04-09T11:09:15.002Z</time></trkpt><trkpt lat="45.78822047571092" lon="9.510722034379548"><ele>1328.0</ele><time>2026-04-09T11:09:16.002Z</time></trkpt><trkpt lat="45.78819964571959" lon="9.510533432838406"><ele>1328.5</ele><time>2026-04-09T11:09:16.999Z</time></trkpt><trkpt lat="45.78817935614684" lon="9.51034840290886"><ele>1329.0</ele><time>2026-04-09T11:09:17.999Z</time></trkpt><trkpt lat="45.78814168125667" lon="9.5101845102484"><ele>1329.5</ele><time>2026-04-09T11:09:18.999Z</time></trkpt><trkpt lat="45.78809597136957" lon="9.510021404478113"><ele>1330.0</ele><time>2026-04-09T11:09:19.999Z</time></trkpt><trkpt lat="45.78803969538175" lon="9.509861851373227"><ele>1330.0</ele><time>2026-04-09T11:09:20.999Z</time></trkpt><trkpt lat="45.78798344157444" lon="9.509706433951377"><ele>1330.0</ele><time>2026-04-09T11:09:21.999Z</time></trkpt><trkpt lat="45.787921835518524" lon="9.509571347215761"><ele>1330.0</ele><time>2026-04-09T11:09:22.999Z</time></trkpt><trkpt lat="45.78785534931256" lon="9.509449480464776"><ele>1330.0</ele><time>2026-04-09T11:09:23.999Z</time></trkpt><trkpt lat="45.787777589916786" lon="9.509335606237949"><ele>1329.6</ele><time>2026-04-09T11:09:24.999Z</time></trkpt><trkpt lat="45.78770855413725" lon="9.509233921701092"><ele>1329.2</ele><time>2026-04-09T11:09:25.999Z</time></trkpt><trkpt lat="45.787657590777584" lon="9.509143704060333"><ele>1328.8000000000002</ele><time>2026-04-09T11:09:26.999Z</time></trkpt><trkpt lat="45.787637336375624" lon="9.509039845827784"><ele>1328.4</ele><time>2026-04-09T11:09:27.999Z</time></trkpt><trkpt lat="45.78762846260219" lon="9.508904812440859"><ele>1328.0</ele><time>2026-04-09T11:09:28.999Z</time></trkpt><trkpt lat="45.78761965833669" lon="9.508749541946276"><ele>1321.0</ele><time>2026-04-09T11:09:29.999Z</time></trkpt><trkpt lat="45.78761485118512" lon="9.508575617898506"><ele>1314.0</ele><time>2026-04-09T11:09:30.999Z</time></trkpt><trkpt lat="45.78761955719015" lon="9.508389904889109"><ele>1307.0</ele><time>2026-04-09T11:09:31.999Z</time></trkpt><trkpt lat="45.78762954079643" lon="9.50819478541991"><ele>1300.0</ele><time>2026-04-09T11:09:32.999Z</time></trkpt><trkpt lat="45.78764761147854" lon="9.508009497774594"><ele>1298.25</ele><time>2026-04-09T11:09:33.999Z</time></trkpt><trkpt lat="45.78767555635071" lon="9.507828949561327"><ele>1296.5</ele><time>2026-04-09T11:09:35Z</time></trkpt><trkpt lat="45.787714812720175" lon="9.507654628223476"><ele>1294.75</ele><time>2026-04-09T11:09:36Z</time></trkpt><trkpt lat="45.78774785231742" lon="9.507482252688801"><ele>1293.0</ele><time>2026-04-09T11:09:37Z</time></trkpt><trkpt lat="45.787784888595105" lon="9.507314179133775"><ele>1292.2</ele><time>2026-04-09T11:09:38Z</time></trkpt><trkpt lat="45.787791909327396" lon="9.507165233732046"><ele>1291.4</ele><time>2026-04-09T11:09:39Z</time></trkpt><trkpt lat="45.787777378707766" lon="9.50702461478333"><ele>1290.6000000000001</ele><time>2026-04-09T11:09:40Z</time></trkpt><trkpt lat="45.78774125191553" lon="9.506860215408818"><ele>1289.8000000000002</ele><time>2026-04-09T11:09:41Z</time></trkpt><trkpt lat="45.787699953685355" lon="9.50669339650993"><ele>1289.0</ele><time>2026-04-09T11:09:42Z</time></trkpt><trkpt lat="45.78766649283638" lon="9.506535967527174"><ele>1289.0</ele><time>2026-04-09T11:09:43Z</time></trkpt><trkpt lat="45.78764460173925" lon="9.506388288632234"><ele>1289.0</ele><time>2026-04-09T11:09:44Z</time></trkpt><trkpt lat="45.787637196525424" lon="9.506270682783391"><ele>1289.0</ele><time>2026-04-09T11:09:45Z</time></trkpt><trkpt lat="45.787658307620106" lon="9.50615343227298"><ele>1289.0</ele><time>2026-04-09T11:09:46Z</time></trkpt><trkpt lat="45.78769490115962" lon="9.50605482013142"><ele>1289.0</ele><time>2026-04-09T11:09:47Z</time></trkpt><trkpt lat="45.78779938152224" lon="9.505996068444095"><ele>1292.0</ele><time>2026-04-09T11:09:48Z</time></trkpt><trkpt lat="45.787897957306875" lon="9.505886268154681"><ele>1295.0</ele><time>2026-04-09T11:09:49Z</time></trkpt><trkpt lat="45.787988813726784" lon="9.505787662010787"><ele>1298.0</ele><time>2026-04-09T11:09:50Z</time></trkpt><trkpt lat="45.78807838109069" lon="9.505657354679224"><ele>1301.0</ele><time>2026-04-09T11:09:51Z</time></trkpt><trkpt lat="45.78812148443514" lon="9.50549672785186"><ele>1298.6</ele><time>2026-04-09T11:09:52Z</time></trkpt><trkpt lat="45.78815402274471" lon="9.505367322239964"><ele>1296.1999999999998</ele><time>2026-04-09T11:09:53Z</time></trkpt><trkpt lat="45.78815801481951" lon="9.505230075419647"><ele>1293.8000000000002</ele><time>2026-04-09T11:09:54Z</time></trkpt><trkpt lat="45.78813397213668" lon="9.505072380351665"><ele>1291.4</ele><time>2026-04-09T11:09:55Z</time></trkpt><trkpt lat="45.78810936545422" lon="9.50490972084003"><ele>1289.0</ele><time>2026-04-09T11:09:56Z</time></trkpt><trkpt lat="45.78809704266586" lon="9.504746254841622"><ele>1289.0</ele><time>2026-04-09T11:09:57Z</time></trkpt><trkpt lat="45.7881209191766" lon="9.50459584616581"><ele>1289.0</ele><time>2026-04-09T11:09:58Z</time></trkpt><trkpt lat="45.788131308492666" lon="9.504452673059825"><ele>1289.0</ele><time>2026-04-09T11:09:59Z</time></trkpt><trkpt lat="45.788145582200926" lon="9.504323743895826"><ele>1289.0</ele><time>2026-04-09T11:10:00Z</time></trkpt><trkpt lat="45.78820898784534" lon="9.504232889397919"><ele>1289.0</ele><time>2026-04-09T11:10:01Z</time></trkpt><trkpt lat="45.788309249291025" lon="9.50419918409711"><ele>1291.0</ele><time>2026-04-09T11:10:02Z</time></trkpt><trkpt lat="45.788421909767415" lon="9.50415803557127"><ele>1293.0</ele><time>2026-04-09T11:10:03Z</time></trkpt><trkpt lat="45.78853077848393" lon="9.50407449170714"><ele>1295.0</ele><time>2026-04-09T11:10:04Z</time></trkpt><trkpt lat="45.788632714682535" lon="9.504018828493248"><ele>1297.0</ele><time>2026-04-09T11:10:05Z</time></trkpt><trkpt lat="45.7887425789276" lon="9.50392190302736"><ele>1297.0</ele><time>2026-04-09T11:10:06Z</time></trkpt><trkpt lat="45.78884958817265" lon="9.503789240975403"><ele>1297.0</ele><time>2026-04-09T11:10:07Z</time></trkpt><trkpt lat="45.78895998170237" lon="9.503684265764731"><ele>1297.0</ele><time>2026-04-09T11:10:08Z</time></trkpt><trkpt lat="45.78906191627637" lon="9.50355035901678"><ele>1297.0</ele><time>2026-04-09T11:10:09Z</time></trkpt><trkpt lat="45.78914926496312" lon="9.503409172207592"><ele>1298.5</ele><time>2026-04-09T11:10:10Z</time></trkpt><trkpt lat="45.78925832488563" lon="9.503281821494786"><ele>1300.0</ele><time>2026-04-09T11:10:11Z</time></trkpt><trkpt lat="45.789366210566556" lon="9.503128939478273"><ele>1301.5</ele><time>2026-04-09T11:10:12Z</time></trkpt><trkpt lat="45.78946704381486" lon="9.502967646519865"><ele>1303.0</ele><time>2026-04-09T11:10:13Z</time></trkpt><trkpt lat="45.789554270803905" lon="9.502796518080052"><ele>1295.25</ele><time>2026-04-09T11:10:14Z</time></trkpt><trkpt lat="45.7896402593571" lon="9.502637892851409"><ele>1287.5</ele><time>2026-04-09T11:10:15Z</time></trkpt><trkpt lat="45.7897200521023" lon="9.502480850289228"><ele>1279.75</ele><time>2026-04-09T11:10:16Z</time></trkpt><trkpt lat="45.789799020916966" lon="9.502327594987447"><ele>1272.0</ele><time>2026-04-09T11:10:17Z</time></trkpt><trkpt lat="45.78989339405877" lon="9.50218318828103"><ele>1270.25</ele><time>2026-04-09T11:10:18Z</time></trkpt><trkpt lat="45.78999344493216" lon="9.502056798335747"><ele>1268.5</ele><time>2026-04-09T11:10:19Z</time></trkpt><trkpt lat="45.79010430634432" lon="9.501938206801382"><ele>1266.75</ele><time>2026-04-09T11:10:20Z</time></trkpt><trkpt lat="45.79023359765511" lon="9.501832572035685"><ele>1265.0</ele><time>2026-04-09T11:10:21Z</time></trkpt><trkpt lat="45.79036388635313" lon="9.501726478097048"><ele>1265.0</ele><time>2026-04-09T11:10:22Z</time></trkpt><trkpt lat="45.79049229410502" lon="9.501619143147986"><ele>1265.0</ele><time>2026-04-09T11:10:23Z</time></trkpt><trkpt lat="45.79062465571547" lon="9.501497017571856"><ele>1265.0</ele><time>2026-04-09T11:10:24Z</time></trkpt><trkpt lat="45.79073547289878" lon="9.501383355808775"><ele>1265.0</ele><time>2026-04-09T11:10:25Z</time></trkpt><trkpt lat="45.790838887040536" lon="9.501247450396118"><ele>1260.6666666666667</ele><time>2026-04-09T11:10:26Z</time></trkpt><trkpt lat="45.7909410258954" lon="9.501098034943306"><ele>1256.3333333333333</ele><time>2026-04-09T11:10:27.001Z</time></trkpt><trkpt lat="45.79105793327471" lon="9.500947353184705"><ele>1252.0</ele><time>2026-04-09T11:10:28.001Z</time></trkpt><trkpt lat="45.79118233809822" lon="9.500807252651406"><ele>1252.0</ele><time>2026-04-09T11:10:29.001Z</time></trkpt><trkpt lat="45.79131481882969" lon="9.500699614316977"><ele>1252.0</ele><time>2026-04-09T11:10:30.001Z</time></trkpt><trkpt lat="45.79143472604865" lon="9.500616610999321"><ele>1252.0</ele><time>2026-04-09T11:10:31.001Z</time></trkpt><trkpt lat="45.79155329897035" lon="9.500551781449149"><ele>1252.0</ele><time>2026-04-09T11:10:32.001Z</time></trkpt><trkpt lat="45.7916468941435" lon="9.500509748593828"><ele>1252.0</ele><time>2026-04-09T11:10:33.001Z</time></trkpt><trkpt lat="45.7917261451606" lon="9.500455672619998"><ele>1252.0</ele><time>2026-04-09T11:10:34.001Z</time></trkpt><trkpt lat="45.791768505882935" lon="9.500382605597036"><ele>1252.0</ele><time>2026-04-09T11:10:35.001Z</time></trkpt><trkpt lat="45.79173191250002" lon="9.50023558667108"><ele>1252.0</ele><time>2026-04-09T11:10:37.001Z</time></trkpt><trkpt lat="45.79160625741211" lon="9.500211815751666"><ele>1252.0</ele><time>2026-04-09T11:10:39.001Z</time></trkpt><trkpt lat="45.791514565862755" lon="9.500227589354923"><ele>1247.75</ele><time>2026-04-09T11:10:40.001Z</time></trkpt><trkpt lat="45.791406364415906" lon="9.500270361589552"><ele>1243.5</ele><time>2026-04-09T11:10:41.001Z</time></trkpt><trkpt lat="45.79126460928063" lon="9.500278627607397"><ele>1239.25</ele><time>2026-04-09T11:10:42.001Z</time></trkpt><trkpt lat="45.79111445583741" lon="9.500321656129282"><ele>1235.0</ele><time>2026-04-09T11:10:43.001Z</time></trkpt><trkpt lat="45.79096466627096" lon="9.500339600449308"><ele>1236.5</ele><time>2026-04-09T11:10:44.001Z</time></trkpt><trkpt lat="45.79082045893153" lon="9.500343892892376"><ele>1238.0</ele><time>2026-04-09T11:10:45.001Z</time></trkpt><trkpt lat="45.79068324897303" lon="9.50040812203993"><ele>1239.5</ele><time>2026-04-09T11:10:46.001Z</time></trkpt><trkpt lat="45.79055358094901" lon="9.500456343926253"><ele>1241.0</ele><time>2026-04-09T11:10:47.001Z</time></trkpt><trkpt lat="45.790431786658736" lon="9.500458713529058"><ele>1241.0</ele><time>2026-04-09T11:10:48.001Z</time></trkpt><trkpt lat="45.79031313485512" lon="9.500446012496461"><ele>1241.0</ele><time>2026-04-09T11:10:49.001Z</time></trkpt><trkpt lat="45.79019795498022" lon="9.500471555872668"><ele>1241.0</ele><time>2026-04-09T11:10:50.001Z</time></trkpt><trkpt lat="45.79007868685111" lon="9.500488094574216"><ele>1241.0</ele><time>2026-04-09T11:10:51.001Z</time></trkpt><trkpt lat="45.789955277680605" lon="9.500515421720065"><ele>1236.0</ele><time>2026-04-09T11:10:52.001Z</time></trkpt><trkpt lat="45.78984103889792" lon="9.500568079801388"><ele>1231.0</ele><time>2026-04-09T11:10:53.001Z</time></trkpt><trkpt lat="45.789723505467926" lon="9.50061896444961"><ele>1226.0</ele><time>2026-04-09T11:10:54.001Z</time></trkpt><trkpt lat="45.789608906010365" lon="9.500685934317175"><ele>1221.0</ele><time>2026-04-09T11:10:55.001Z</time></trkpt><trkpt lat="45.78949451603678" lon="9.500777290129928"><ele>1221.0</ele><time>2026-04-09T11:10:56.001Z</time></trkpt><trkpt lat="45.78937803842233" lon="9.500898633201771"><ele>1221.0</ele><time>2026-04-09T11:10:57.001Z</time></trkpt><trkpt lat="45.78927082277008" lon="9.501046667294863"><ele>1221.0</ele><time>2026-04-09T11:10:58.001Z</time></trkpt><trkpt lat="45.789163860963136" lon="9.501191246671128"><ele>1221.0</ele><time>2026-04-09T11:10:59.001Z</time></trkpt><trkpt lat="45.789056963187576" lon="9.50131022195173"><ele>1220.25</ele><time>2026-04-09T11:11:00.001Z</time></trkpt><trkpt lat="45.78894421186793" lon="9.501401133499918"><ele>1219.5</ele><time>2026-04-09T11:11:01.001Z</time></trkpt><trkpt lat="45.78881475940922" lon="9.501436498595899"><ele>1218.75</ele><time>2026-04-09T11:11:02.001Z</time></trkpt><trkpt lat="45.78867553715893" lon="9.501475313389951"><ele>1218.0</ele><time>2026-04-09T11:11:03.001Z</time></trkpt><trkpt lat="45.78851111049565" lon="9.501506601647195"><ele>1210.3333333333333</ele><time>2026-04-09T11:11:04.001Z</time></trkpt><trkpt lat="45.78834086776484" lon="9.501547967088543"><ele>1202.6666666666665</ele><time>2026-04-09T11:11:05.001Z</time></trkpt><trkpt lat="45.78817510842734" lon="9.501568737516614"><ele>1195.0</ele><time>2026-04-09T11:11:06.001Z</time></trkpt><trkpt lat="45.7880086352957" lon="9.50158105101653"><ele>1195.0</ele><time>2026-04-09T11:11:07.001Z</time></trkpt><trkpt lat="45.78784587770455" lon="9.501590885134394"><ele>1195.0</ele><time>2026-04-09T11:11:08.001Z</time></trkpt><trkpt lat="45.78768872234252" lon="9.50161410010687"><ele>1195.0</ele><time>2026-04-09T11:11:09.001Z</time></trkpt><trkpt lat="45.78753457209996" lon="9.501633022448983"><ele>1193.25</ele><time>2026-04-09T11:11:10.001Z</time></trkpt><trkpt lat="45.787381832595884" lon="9.50165445432408"><ele>1191.5</ele><time>2026-04-09T11:11:11.001Z</time></trkpt><trkpt lat="45.78724596747196" lon="9.501644178614095"><ele>1189.75</ele><time>2026-04-09T11:11:12.001Z</time></trkpt><trkpt lat="45.78712822171296" lon="9.501600914019383"><ele>1188.0</ele><time>2026-04-09T11:11:13.001Z</time></trkpt><trkpt lat="45.787007691985856" lon="9.501566785760986"><ele>1188.0</ele><time>2026-04-09T11:11:14.001Z</time></trkpt><trkpt lat="45.78687838250831" lon="9.50151372445303"><ele>1188.0</ele><time>2026-04-09T11:11:15.001Z</time></trkpt><trkpt lat="45.786761176589394" lon="9.501467905419466"><ele>1188.0</ele><time>2026-04-09T11:11:16.001Z</time></trkpt><trkpt lat="45.786623535747005" lon="9.501432742106187"><ele>1188.0</ele><time>2026-04-09T11:11:17.001Z</time></trkpt><trkpt lat="45.78649753135933" lon="9.501409046518148"><ele>1187.0</ele><time>2026-04-09T11:11:18.001Z</time></trkpt><trkpt lat="45.78638534102877" lon="9.501418346669842"><ele>1186.0</ele><time>2026-04-09T11:11:19.001Z</time></trkpt><trkpt lat="45.78630692846364" lon="9.501428899116805"><ele>1185.0</ele><time>2026-04-09T11:11:20.001Z</time></trkpt><trkpt lat="45.78623904584531" lon="9.501477172311937"><ele>1184.0</ele><time>2026-04-09T11:11:21.001Z</time></trkpt><trkpt lat="45.78617821078139" lon="9.501582224478847"><ele>1183.0</ele><time>2026-04-09T11:11:22.001Z</time></trkpt><trkpt lat="45.786130969997195" lon="9.501709918433932"><ele>1183.0</ele><time>2026-04-09T11:11:22.999Z</time></trkpt><trkpt lat="45.78606791371816" lon="9.501856778147411"><ele>1183.0</ele><time>2026-04-09T11:11:23.999Z</time></trkpt><trkpt lat="45.78597033164912" lon="9.501975803965978"><ele>1183.0</ele><time>2026-04-09T11:11:24.999Z</time></trkpt><trkpt lat="45.785882976976836" lon="9.502094775359009"><ele>1183.0</ele><time>2026-04-09T11:11:25.999Z</time></trkpt><trkpt lat="45.785813688885305" lon="9.502223991592425"><ele>1177.75</ele><time>2026-04-09T11:11:26.999Z</time></trkpt><trkpt lat="45.7857429648056" lon="9.50235873639298"><ele>1172.5</ele><time>2026-04-09T11:11:27.999Z</time></trkpt><trkpt lat="45.78570497307301" lon="9.502506763058875"><ele>1167.25</ele><time>2026-04-09T11:11:28.999Z</time></trkpt><trkpt lat="45.78566511645828" lon="9.502671555936747"><ele>1162.0</ele><time>2026-04-09T11:11:29.999Z</time></trkpt><trkpt lat="45.78558333515715" lon="9.50279011873645"><ele>1164.5</ele><time>2026-04-09T11:11:30.999Z</time></trkpt><trkpt lat="45.78548565393744" lon="9.50291690372269"><ele>1167.0</ele><time>2026-04-09T11:11:31.999Z</time></trkpt><trkpt lat="45.78537873707456" lon="9.503045132768143"><ele>1169.5</ele><time>2026-04-09T11:11:32.999Z</time></trkpt><trkpt lat="45.78525668072799" lon="9.503131306278187"><ele>1172.0</ele><time>2026-04-09T11:11:33.999Z</time></trkpt><trkpt lat="45.785159999654134" lon="9.503242380190708"><ele>1166.8</ele><time>2026-04-09T11:11:34.999Z</time></trkpt><trkpt lat="45.785079703207515" lon="9.503339859474483"><ele>1161.6</ele><time>2026-04-09T11:11:35.999Z</time></trkpt><trkpt lat="45.78502625261591" lon="9.503472088778254"><ele>1156.3999999999999</ele><time>2026-04-09T11:11:36.999Z</time></trkpt><trkpt lat="45.78499524274663" lon="9.503624928389353"><ele>1151.2</ele><time>2026-04-09T11:11:37.999Z</time></trkpt><trkpt lat="45.7849640857265" lon="9.503772095240901"><ele>1146.0</ele><time>2026-04-09T11:11:38.999Z</time></trkpt><trkpt lat="45.78491380902096" lon="9.503829316633384"><ele>1146.0</ele><time>2026-04-09T11:11:39.999Z</time></trkpt><trkpt lat="45.784827989749864" lon="9.503850679164172"><ele>1146.0</ele><time>2026-04-09T11:11:41.999Z</time></trkpt><trkpt lat="45.784788600270005" lon="9.503780072912004"><ele>1146.0</ele><time>2026-04-09T11:11:43Z</time></trkpt><trkpt lat="45.784783676798924" lon="9.503668490616448"><ele>1146.0</ele><time>2026-04-09T11:11:44Z</time></trkpt><trkpt lat="45.78482625107402" lon="9.503535447012007"><ele>1146.0</ele><time>2026-04-09T11:11:45Z</time></trkpt><trkpt lat="45.78484167613182" lon="9.50336970475153"><ele>1146.0</ele><time>2026-04-09T11:11:46Z</time></trkpt><trkpt lat="45.78488186773814" lon="9.503185229078028"><ele>1144.25</ele><time>2026-04-09T11:11:47Z</time></trkpt><trkpt lat="45.78494905208963" lon="9.503012928204107"><ele>1142.5</ele><time>2026-04-09T11:11:48Z</time></trkpt><trkpt lat="45.78500242387836" lon="9.502844659455498"><ele>1140.75</ele><time>2026-04-09T11:11:49Z</time></trkpt><trkpt lat="45.78508371552549" lon="9.502696809963325"><ele>1139.0</ele><time>2026-04-09T11:11:50Z</time></trkpt><trkpt lat="45.78514350063505" lon="9.502547334298987"><ele>1140.4</ele><time>2026-04-09T11:11:51Z</time></trkpt><trkpt lat="45.78516882615054" lon="9.502402228449712"><ele>1141.8000000000002</ele><time>2026-04-09T11:11:52Z</time></trkpt><trkpt lat="45.785170133642616" lon="9.502254405190866"><ele>1143.1999999999998</ele><time>2026-04-09T11:11:53Z</time></trkpt><trkpt lat="45.785147381488365" lon="9.50209338675516"><ele>1144.6</ele><time>2026-04-09T11:11:54Z</time></trkpt><trkpt lat="45.78516143245531" lon="9.501942506209852"><ele>1146.0</ele><time>2026-04-09T11:11:55Z</time></trkpt><trkpt lat="45.78523626917504" lon="9.50181073666937"><ele>1146.0</ele><time>2026-04-09T11:11:56Z</time></trkpt><trkpt lat="45.78529735428619" lon="9.501636002448109"><ele>1146.0</ele><time>2026-04-09T11:11:57Z</time></trkpt><trkpt lat="45.7853546163219" lon="9.501467687179536"><ele>1146.0</ele><time>2026-04-09T11:11:58Z</time></trkpt><trkpt lat="45.785377265422454" lon="9.501285791601067"><ele>1146.0</ele><time>2026-04-09T11:11:59Z</time></trkpt><trkpt lat="45.78537848711102" lon="9.501117580038906"><ele>1141.75</ele><time>2026-04-09T11:12:00Z</time></trkpt><trkpt lat="45.78535947858684" lon="9.500917768728739"><ele>1137.5</ele><time>2026-04-09T11:12:01Z</time></trkpt><trkpt lat="45.78536234170601" lon="9.50071275745424"><ele>1133.25</ele><time>2026-04-09T11:12:02Z</time></trkpt><trkpt lat="45.78536850201464" lon="9.500504396885193"><ele>1129.0</ele><time>2026-04-09T11:12:03Z</time></trkpt><trkpt lat="45.78538083848977" lon="9.500298914487942"><ele>1123.6000000000001</ele><time>2026-04-09T11:12:04Z</time></trkpt><trkpt lat="45.785396668381196" lon="9.500133394956721"><ele>1118.2</ele><time>2026-04-09T11:12:05Z</time></trkpt><trkpt lat="45.78541031710487" lon="9.499985476943946"><ele>1112.8000000000002</ele><time>2026-04-09T11:12:06Z</time></trkpt><trkpt lat="45.78546582544334" lon="9.499860171332552"><ele>1107.4</ele><time>2026-04-09T11:12:07Z</time></trkpt><trkpt lat="45.785533471319916" lon="9.499789171679769"><ele>1102.0</ele><time>2026-04-09T11:12:08Z</time></trkpt><trkpt lat="45.785619971825525" lon="9.499761116499013"><ele>1102.0</ele><time>2026-04-09T11:12:09Z</time></trkpt><trkpt lat="45.785726061189436" lon="9.499761151773608"><ele>1102.0</ele><time>2026-04-09T11:12:10Z</time></trkpt><trkpt lat="45.78585310893549" lon="9.499715832236555"><ele>1102.0</ele><time>2026-04-09T11:12:11Z</time></trkpt><trkpt lat="45.78600441199027" lon="9.499655410059933"><ele>1102.0</ele><time>2026-04-09T11:12:12Z</time></trkpt><trkpt lat="45.78617239891057" lon="9.499581127857523"><ele>1093.3333333333333</ele><time>2026-04-09T11:12:13Z</time></trkpt><trkpt lat="45.78633664780426" lon="9.499496843783955"><ele>1084.6666666666667</ele><time>2026-04-09T11:12:14Z</time></trkpt><trkpt lat="45.786487923995104" lon="9.499435331764783"><ele>1076.0</ele><time>2026-04-09T11:12:15Z</time></trkpt><trkpt lat="45.786634355796956" lon="9.499361506382161"><ele>1076.0</ele><time>2026-04-09T11:12:16Z</time></trkpt><trkpt lat="45.78676692919439" lon="9.499271796941258"><ele>1076.0</ele><time>2026-04-09T11:12:17Z</time></trkpt><trkpt lat="45.78689066304796" lon="9.499200430330802"><ele>1076.0</ele><time>2026-04-09T11:12:18Z</time></trkpt><trkpt lat="45.787014893202624" lon="9.499173420875213"><ele>1076.0</ele><time>2026-04-09T11:12:19Z</time></trkpt><trkpt lat="45.787134817781464" lon="9.499172486669647"><ele>1078.8333333333335</ele><time>2026-04-09T11:12:20Z</time></trkpt><trkpt lat="45.787248790038" lon="9.499173915440974"><ele>1081.6666666666667</ele><time>2026-04-09T11:12:21Z</time></trkpt><trkpt lat="45.7873367445558" lon="9.4991907638353"><ele>1084.5</ele><time>2026-04-09T11:12:22Z</time></trkpt><trkpt lat="45.787407873877754" lon="9.499166684971643"><ele>1087.3333333333333</ele><time>2026-04-09T11:12:23Z</time></trkpt><trkpt lat="45.78746864774928" lon="9.499098342499256"><ele>1090.1666666666665</ele><time>2026-04-09T11:12:24Z</time></trkpt><trkpt lat="45.78753571858953" lon="9.499012292075683"><ele>1093.0</ele><time>2026-04-09T11:12:25Z</time></trkpt><trkpt lat="45.78760864643166" lon="9.498875707405594"><ele>1090.75</ele><time>2026-04-09T11:12:26Z</time></trkpt><trkpt lat="45.78767620965882" lon="9.498720047464086"><ele>1088.5</ele><time>2026-04-09T11:12:27.001Z</time></trkpt><trkpt lat="45.78775170588671" lon="9.49859261565991"><ele>1086.25</ele><time>2026-04-09T11:12:28.001Z</time></trkpt><trkpt lat="45.78786634268876" lon="9.498522486012105"><ele>1084.0</ele><time>2026-04-09T11:12:29.001Z</time></trkpt><trkpt lat="45.78796477879226" lon="9.49839404666052"><ele>1084.0</ele><time>2026-04-09T11:12:30.001Z</time></trkpt><trkpt lat="45.788067516241405" lon="9.49828438806096"><ele>1084.0</ele><time>2026-04-09T11:12:31.001Z</time></trkpt><trkpt lat="45.788154417772304" lon="9.498157277012968"><ele>1084.0</ele><time>2026-04-09T11:12:32.001Z</time></trkpt><trkpt lat="45.788220935189315" lon="9.497994747678266"><ele>1084.0</ele><time>2026-04-09T11:12:33.001Z</time></trkpt><trkpt lat="45.78828479389393" lon="9.497816740913063"><ele>1079.6000000000001</ele><time>2026-04-09T11:12:34.001Z</time></trkpt><trkpt lat="45.788341258608554" lon="9.497652664496941"><ele>1075.2</ele><time>2026-04-09T11:12:35.001Z</time></trkpt><trkpt lat="45.788393251440695" lon="9.497515232047583"><ele>1070.8000000000002</ele><time>2026-04-09T11:12:36.001Z</time></trkpt><trkpt lat="45.78843072381985" lon="9.497403685653103"><ele>1066.4</ele><time>2026-04-09T11:12:37.001Z</time></trkpt><trkpt lat="45.788450171001" lon="9.497304403658095"><ele>1062.0</ele><time>2026-04-09T11:12:38.001Z</time></trkpt><trkpt lat="45.788375093482664" lon="9.497170486780957"><ele>1062.0</ele><time>2026-04-09T11:12:40.001Z</time></trkpt><trkpt lat="45.788312384880484" lon="9.497218225595804"><ele>1062.0</ele><time>2026-04-09T11:12:41.001Z</time></trkpt><trkpt lat="45.78824051328714" lon="9.497343573196915"><ele>1062.0</ele><time>2026-04-09T11:12:43.001Z</time></trkpt><trkpt lat="45.7882029813939" lon="9.497437898925854"><ele>1062.0</ele><time>2026-04-09T11:12:44.001Z</time></trkpt><trkpt lat="45.78814352135056" lon="9.49757418846509"><ele>1062.0</ele><time>2026-04-09T11:12:45.001Z</time></trkpt><trkpt lat="45.788046848392526" lon="9.497665158183693"><ele>1062.0</ele><time>2026-04-09T11:12:46.001Z</time></trkpt><trkpt lat="45.787954859931546" lon="9.497750223998471"><ele>1062.0</ele><time>2026-04-09T11:12:47.001Z</time></trkpt><trkpt lat="45.787842955799775" lon="9.497830496327953"><ele>1062.0</ele><time>2026-04-09T11:12:48.001Z</time></trkpt><trkpt lat="45.787704393535165" lon="9.497901957987047"><ele>1062.0</ele><time>2026-04-09T11:12:49.001Z</time></trkpt><trkpt lat="45.787571389512664" lon="9.497972794931837"><ele>1062.0</ele><time>2026-04-09T11:12:50.001Z</time></trkpt><trkpt lat="45.78743949542514" lon="9.498047580206054"><ele>1062.0</ele><time>2026-04-09T11:12:51.001Z</time></trkpt><trkpt lat="45.78732107057949" lon="9.498141616271509"><ele>1062.0</ele><time>2026-04-09T11:12:52.001Z</time></trkpt><trkpt lat="45.7872114957326" lon="9.498217770428209"><ele>1062.0</ele><time>2026-04-09T11:12:53.001Z</time></trkpt><trkpt lat="45.78711282975383" lon="9.498200719167789"><ele>1062.0</ele><time>2026-04-09T11:12:54.001Z</time></trkpt><trkpt lat="45.78702941640398" lon="9.498171518522971"><ele>1062.0</ele><time>2026-04-09T11:12:55.001Z</time></trkpt><trkpt lat="45.786923774062394" lon="9.498142592019068"><ele>1062.0</ele><time>2026-04-09T11:12:56.001Z</time></trkpt><trkpt lat="45.78680498533241" lon="9.498082732301517"><ele>1062.0</ele><time>2026-04-09T11:12:57.001Z</time></trkpt><trkpt lat="45.78668258727073" lon="9.498025880891284"><ele>1062.0</ele><time>2026-04-09T11:12:58.001Z</time></trkpt><trkpt lat="45.786577285068724" lon="9.497955191607764"><ele>1057.5</ele><time>2026-04-09T11:12:59.001Z</time></trkpt><trkpt lat="45.78647877659779" lon="9.497919879230626"><ele>1053.0</ele><time>2026-04-09T11:13:00.001Z</time></trkpt><trkpt lat="45.78639636800454" lon="9.497942545544731"><ele>1048.5</ele><time>2026-04-09T11:13:01.001Z</time></trkpt><trkpt lat="45.7862703806135" lon="9.497941125671236"><ele>1044.0</ele><time>2026-04-09T11:13:02.001Z</time></trkpt><trkpt lat="45.78612532763578" lon="9.498011740128465"><ele>1040.75</ele><time>2026-04-09T11:13:03.001Z</time></trkpt><trkpt lat="45.78598944540096" lon="9.498038146983637"><ele>1037.5</ele><time>2026-04-09T11:13:04.001Z</time></trkpt><trkpt lat="45.7858536692236" lon="9.498046500522099"><ele>1034.25</ele><time>2026-04-09T11:13:05.001Z</time></trkpt><trkpt lat="45.78576030179649" lon="9.498055304523339"><ele>1031.0</ele><time>2026-04-09T11:13:06.001Z</time></trkpt><trkpt lat="45.785668117763535" lon="9.498068259390427"><ele>1031.0</ele><time>2026-04-09T11:13:07.001Z</time></trkpt><trkpt lat="45.785717562270825" lon="9.497977498283275"><ele>1031.0</ele><time>2026-04-09T11:13:12.001Z</time></trkpt><trkpt lat="45.78581815331573" lon="9.497963227132427"><ele>1031.0</ele><time>2026-04-09T11:13:13.001Z</time></trkpt><trkpt lat="45.78588293430032" lon="9.497943565257973"><ele>1031.0</ele><time>2026-04-09T11:13:14.001Z</time></trkpt><trkpt lat="45.78606410433469" lon="9.497852316067737"><ele>1031.0</ele><time>2026-04-09T11:13:16.001Z</time></trkpt><trkpt lat="45.786163005789824" lon="9.497735185843503"><ele>1025.0</ele><time>2026-04-09T11:13:17.001Z</time></trkpt><trkpt lat="45.78628360459391" lon="9.497654535997064"><ele>1019.0</ele><time>2026-04-09T11:13:18.001Z</time></trkpt><trkpt lat="45.78639187634453" lon="9.497560598524451"><ele>1013.0</ele><time>2026-04-09T11:13:19.001Z</time></trkpt><trkpt lat="45.786499582491444" lon="9.497516545476387"><ele>1007.0</ele><time>2026-04-09T11:13:20.001Z</time></trkpt><trkpt lat="45.786619986845906" lon="9.497499526820665"><ele>1007.0</ele><time>2026-04-09T11:13:21.001Z</time></trkpt><trkpt lat="45.78674024569154" lon="9.497514437345052"><ele>1007.0</ele><time>2026-04-09T11:13:22.001Z</time></trkpt><trkpt lat="45.78684727736547" lon="9.497501827737121"><ele>1007.0</ele><time>2026-04-09T11:13:23.002Z</time></trkpt><trkpt lat="45.78694663979676" lon="9.497462489093337"><ele>1007.0</ele><time>2026-04-09T11:13:24.002Z</time></trkpt><trkpt lat="45.78704525053209" lon="9.497377057696877"><ele>1007.0</ele><time>2026-04-09T11:13:25.002Z</time></trkpt><trkpt lat="45.787122827182785" lon="9.497264314430826"><ele>1007.4000000000001</ele><time>2026-04-09T11:13:26.002Z</time></trkpt><trkpt lat="45.78719288249481" lon="9.497151748193662"><ele>1007.8000000000001</ele><time>2026-04-09T11:13:27.002Z</time></trkpt><trkpt lat="45.787241213524275" lon="9.497066941791093"><ele>1008.2</ele><time>2026-04-09T11:13:28.002Z</time></trkpt><trkpt lat="45.787272814282204" lon="9.496918540712878"><ele>1008.6</ele><time>2026-04-09T11:13:30Z</time></trkpt><trkpt lat="45.78719595329036" lon="9.496835941401654"><ele>1009.0</ele><time>2026-04-09T11:13:31Z</time></trkpt><trkpt lat="45.78710759347641" lon="9.49685049692532"><ele>1009.0</ele><time>2026-04-09T11:13:32Z</time></trkpt><trkpt lat="45.787055167836684" lon="9.497005171011178"><ele>1009.0000000000001</ele><time>2026-04-09T11:13:33Z</time></trkpt><trkpt lat="45.78699829317329" lon="9.497110443171918"><ele>1009.0000000000001</ele><time>2026-04-09T11:13:34Z</time></trkpt><trkpt lat="45.786906257843036" lon="9.497146735448341"><ele>1009.0</ele><time>2026-04-09T11:13:35Z</time></trkpt><trkpt lat="45.7868344106952" lon="9.49710841954459"><ele>1009.0</ele><time>2026-04-09T11:13:36Z</time></trkpt><trkpt lat="45.78676872564414" lon="9.497087883222934"><ele>1002.6</ele><time>2026-04-09T11:13:37Z</time></trkpt><trkpt lat="45.78666787412418" lon="9.497064543283797"><ele>996.2</ele><time>2026-04-09T11:13:38Z</time></trkpt><trkpt lat="45.78657338060291" lon="9.497047763863412"><ele>989.8000000000001</ele><time>2026-04-09T11:13:39Z</time></trkpt><trkpt lat="45.78648306643679" lon="9.497049912979111"><ele>983.4000000000001</ele><time>2026-04-09T11:13:40Z</time></trkpt><trkpt lat="45.786360106074525" lon="9.49704030134508"><ele>977.0</ele><time>2026-04-09T11:13:41Z</time></trkpt><trkpt lat="45.78623206724687" lon="9.497058680774057"><ele>973.25</ele><time>2026-04-09T11:13:42Z</time></trkpt><trkpt lat="45.78608976467998" lon="9.497091230937876"><ele>969.5</ele><time>2026-04-09T11:13:43Z</time></trkpt><trkpt lat="45.785950765855354" lon="9.497081621119385"><ele>965.75</ele><time>2026-04-09T11:13:44Z</time></trkpt><trkpt lat="45.78581406863928" lon="9.497074833384117"><ele>962.0</ele><time>2026-04-09T11:13:45Z</time></trkpt><trkpt lat="45.785658745348904" lon="9.497089839756393"><ele>962.0</ele><time>2026-04-09T11:13:46Z</time></trkpt><trkpt lat="45.78551201456152" lon="9.497080802851247"><ele>962.0</ele><time>2026-04-09T11:13:47Z</time></trkpt><trkpt lat="45.78537061484001" lon="9.497045414299194"><ele>962.0</ele><time>2026-04-09T11:13:48Z</time></trkpt><trkpt lat="45.785224610581814" lon="9.497020962409723"><ele>962.0</ele><time>2026-04-09T11:13:49Z</time></trkpt><trkpt lat="45.78510163069608" lon="9.496947835380583"><ele>961.5</ele><time>2026-04-09T11:13:50Z</time></trkpt><trkpt lat="45.78497265609564" lon="9.496874346682235"><ele>961.0</ele><time>2026-04-09T11:13:51Z</time></trkpt><trkpt lat="45.78485256126199" lon="9.496793500163657"><ele>960.5</ele><time>2026-04-09T11:13:52Z</time></trkpt><trkpt lat="45.784736466347674" lon="9.496681724758623"><ele>960.0</ele><time>2026-04-09T11:13:53Z</time></trkpt><trkpt lat="45.78461858437086" lon="9.496556970613716"><ele>960.0</ele><time>2026-04-09T11:13:54Z</time></trkpt><trkpt lat="45.78452016592028" lon="9.496390191947057"><ele>960.0</ele><time>2026-04-09T11:13:55Z</time></trkpt><trkpt lat="45.784423614043355" lon="9.496239631775058"><ele>960.0</ele><time>2026-04-09T11:13:56Z</time></trkpt><trkpt lat="45.78433223147352" lon="9.496067484907076"><ele>960.0</ele><time>2026-04-09T11:13:57Z</time></trkpt><trkpt lat="45.78422467996684" lon="9.495911062258726"><ele>955.0</ele><time>2026-04-09T11:13:58Z</time></trkpt><trkpt lat="45.784126862791005" lon="9.495745852026413"><ele>950.0</ele><time>2026-04-09T11:13:59Z</time></trkpt><trkpt lat="45.7840194054508" lon="9.49560434687658"><ele>945.0</ele><time>2026-04-09T11:14:00Z</time></trkpt><trkpt lat="45.78391491753767" lon="9.495454766852118"><ele>940.0</ele><time>2026-04-09T11:14:01Z</time></trkpt><trkpt lat="45.78379572437556" lon="9.495298897217967"><ele>933.5</ele><time>2026-04-09T11:14:02Z</time></trkpt><trkpt lat="45.78365952224035" lon="9.495209100740427"><ele>927.0</ele><time>2026-04-09T11:14:03Z</time></trkpt><trkpt lat="45.78352362289955" lon="9.495126428558434"><ele>920.5</ele><time>2026-04-09T11:14:04Z</time></trkpt><trkpt lat="45.78339414066607" lon="9.495049783672446"><ele>914.0</ele><time>2026-04-09T11:14:05Z</time></trkpt><trkpt lat="45.78329476127168" lon="9.49496467878742"><ele>914.0</ele><time>2026-04-09T11:14:06Z</time></trkpt><trkpt lat="45.783211760537554" lon="9.494868247983357"><ele>914.0000000000001</ele><time>2026-04-09T11:14:07Z</time></trkpt><trkpt lat="45.783139812724706" lon="9.49481323027333"><ele>914.0000000000001</ele><time>2026-04-09T11:14:08Z</time></trkpt><trkpt lat="45.78303779327128" lon="9.494885830824073"><ele>914.0</ele><time>2026-04-09T11:14:10Z</time></trkpt><trkpt lat="45.78301047155314" lon="9.494982311789904"><ele>914.0</ele><time>2026-04-09T11:14:11Z</time></trkpt><trkpt lat="45.78299109378078" lon="9.495106801624598"><ele>914.0</ele><time>2026-04-09T11:14:12Z</time></trkpt><trkpt lat="45.782963488522356" lon="9.495267037234045"><ele>914.0</ele><time>2026-04-09T11:14:13Z</time></trkpt><trkpt lat="45.78294223363784" lon="9.495438146835532"><ele>914.0</ele><time>2026-04-09T11:14:14.001Z</time></trkpt><trkpt lat="45.782938308709745" lon="9.495636701261095"><ele>914.0</ele><time>2026-04-09T11:14:15.001Z</time></trkpt><trkpt lat="45.78295030751036" lon="9.495843469928795"><ele>917.75</ele><time>2026-04-09T11:14:16.001Z</time></trkpt><trkpt lat="45.78297173058488" lon="9.496039316298777"><ele>921.5</ele><time>2026-04-09T11:14:17.001Z</time></trkpt><trkpt lat="45.78298368379674" lon="9.496245231821717"><ele>925.25</ele><time>2026-04-09T11:14:18.001Z</time></trkpt><trkpt lat="45.782987256061915" lon="9.496449410416904"><ele>929.0</ele><time>2026-04-09T11:14:19.001Z</time></trkpt><trkpt lat="45.78299195174658" lon="9.49665589537881"><ele>929.0</ele><time>2026-04-09T11:14:20.001Z</time></trkpt><trkpt lat="45.78297665776739" lon="9.496844860492374"><ele>929.0</ele><time>2026-04-09T11:14:21.001Z</time></trkpt><trkpt lat="45.78299466397966" lon="9.4970295899807"><ele>929.0</ele><time>2026-04-09T11:14:22.001Z</time></trkpt><trkpt lat="45.78296145772016" lon="9.49720478110405"><ele>929.0</ele><time>2026-04-09T11:14:23.001Z</time></trkpt><trkpt lat="45.782906098947244" lon="9.497351108813747"><ele>929.5</ele><time>2026-04-09T11:14:24.001Z</time></trkpt><trkpt lat="45.78284238850209" lon="9.49752881234804"><ele>930.0</ele><time>2026-04-09T11:14:25.001Z</time></trkpt><trkpt lat="45.78276620808877" lon="9.49771524920627"><ele>930.5</ele><time>2026-04-09T11:14:26.001Z</time></trkpt><trkpt lat="45.782697026907265" lon="9.497886563554447"><ele>931.0</ele><time>2026-04-09T11:14:27.001Z</time></trkpt><trkpt lat="45.78262982852031" lon="9.498052967880588"><ele>923.25</ele><time>2026-04-09T11:14:28.001Z</time></trkpt><trkpt lat="45.782574716540275" lon="9.498222377232935"><ele>915.5</ele><time>2026-04-09T11:14:29.001Z</time></trkpt><trkpt lat="45.78248125230626" lon="9.498369659239307"><ele>907.75</ele><time>2026-04-09T11:14:30.001Z</time></trkpt><trkpt lat="45.782358100561105" lon="9.498485457304191"><ele>900.0</ele><time>2026-04-09T11:14:31.001Z</time></trkpt><trkpt lat="45.78221501854838" lon="9.49859759008844"><ele>900.0</ele><time>2026-04-09T11:14:32.001Z</time></trkpt><trkpt lat="45.7820683115566" lon="9.498720217353007"><ele>900.0</ele><time>2026-04-09T11:14:33.001Z</time></trkpt><trkpt lat="45.78191735333676" lon="9.498845589609918"><ele>900.0</ele><time>2026-04-09T11:14:34.001Z</time></trkpt><trkpt lat="45.78178040096386" lon="9.498969467397835"><ele>896.3333333333333</ele><time>2026-04-09T11:14:35.001Z</time></trkpt><trkpt lat="45.7816464672069" lon="9.499084958995084"><ele>892.6666666666666</ele><time>2026-04-09T11:14:36.001Z</time></trkpt><trkpt lat="45.78151356607769" lon="9.499199134577083"><ele>889.0</ele><time>2026-04-09T11:14:37.001Z</time></trkpt><trkpt lat="45.781381559156614" lon="9.499299306547153"><ele>889.0</ele><time>2026-04-09T11:14:38.001Z</time></trkpt><trkpt lat="45.781246709339506" lon="9.499375784945467"><ele>889.0</ele><time>2026-04-09T11:14:39.001Z</time></trkpt><trkpt lat="45.781103210254926" lon="9.499440425342229"><ele>889.0</ele><time>2026-04-09T11:14:40.001Z</time></trkpt><trkpt lat="45.78098210815779" lon="9.49952567452007"><ele>889.0</ele><time>2026-04-09T11:14:41.001Z</time></trkpt><trkpt lat="45.780858856500984" lon="9.49963206916058"><ele>887.75</ele><time>2026-04-09T11:14:42.001Z</time></trkpt><trkpt lat="45.780739353157735" lon="9.499766109434816"><ele>886.5</ele><time>2026-04-09T11:14:43.001Z</time></trkpt><trkpt lat="45.78062144024139" lon="9.499900782269314"><ele>885.25</ele><time>2026-04-09T11:14:44.001Z</time></trkpt><trkpt lat="45.78053325323415" lon="9.500018769437771"><ele>884.0</ele><time>2026-04-09T11:14:45.001Z</time></trkpt><trkpt lat="45.78045572155934" lon="9.50011159240001"><ele>884.0</ele><time>2026-04-09T11:14:46.001Z</time></trkpt><trkpt lat="45.78034264157468" lon="9.500160560461282"><ele>884.0000000000001</ele><time>2026-04-09T11:14:48.001Z</time></trkpt><trkpt lat="45.780291513986505" lon="9.500013286936483"><ele>884.0000000000001</ele><time>2026-04-09T11:14:50.001Z</time></trkpt><trkpt lat="45.78032065058981" lon="9.499924864267276"><ele>884.0</ele><time>2026-04-09T11:14:51.001Z</time></trkpt><trkpt lat="45.78038637972301" lon="9.499845137688029"><ele>884.0</ele><time>2026-04-09T11:14:52.001Z</time></trkpt><trkpt lat="45.780477768721234" lon="9.499762104062011"><ele>884.0</ele><time>2026-04-09T11:14:53.001Z</time></trkpt><trkpt lat="45.780570396941954" lon="9.499655996206561"><ele>884.0</ele><time>2026-04-09T11:14:54.001Z</time></trkpt><trkpt lat="45.78066423285393" lon="9.499497747593763"><ele>884.0</ele><time>2026-04-09T11:14:55.001Z</time></trkpt><trkpt lat="45.780757472273955" lon="9.499326226005252"><ele>884.0</ele><time>2026-04-09T11:14:56.001Z</time></trkpt><trkpt lat="45.78085456606618" lon="9.4991514192091"><ele>885.25</ele><time>2026-04-09T11:14:57.001Z</time></trkpt><trkpt lat="45.78095611775643" lon="9.498998431715302"><ele>886.5</ele><time>2026-04-09T11:14:58.001Z</time></trkpt><trkpt lat="45.78104824800361" lon="9.498855277099235"><ele>887.75</ele><time>2026-04-09T11:14:59.001Z</time></trkpt><trkpt lat="45.78113280478446" lon="9.498701332552764"><ele>889.0</ele><time>2026-04-09T11:15:00.001Z</time></trkpt><trkpt lat="45.78119401058846" lon="9.498541747135949"><ele>884.0</ele><time>2026-04-09T11:15:01.001Z</time></trkpt><trkpt lat="45.78125017888817" lon="9.498382236078285"><ele>879.0</ele><time>2026-04-09T11:15:02.001Z</time></trkpt><trkpt lat="45.78131091784638" lon="9.49824068444442"><ele>874.0</ele><time>2026-04-09T11:15:03.001Z</time></trkpt><trkpt lat="45.78138316313492" lon="9.49811455302914"><ele>869.0</ele><time>2026-04-09T11:15:04.001Z</time></trkpt><trkpt lat="45.78147070473809" lon="9.498001364537043"><ele>872.0</ele><time>2026-04-09T11:15:05.001Z</time></trkpt><trkpt lat="45.78157802192069" lon="9.497891050013903"><ele>875.0</ele><time>2026-04-09T11:15:06.001Z</time></trkpt><trkpt lat="45.78170011554714" lon="9.497771564058631"><ele>878.0</ele><time>2026-04-09T11:15:07.001Z</time></trkpt><trkpt lat="45.78182605131249" lon="9.497659732836622"><ele>881.0</ele><time>2026-04-09T11:15:08.001Z</time></trkpt><trkpt lat="45.78193796735643" lon="9.497546259843453"><ele>881.0</ele><time>2026-04-09T11:15:09.002Z</time></trkpt><trkpt lat="45.7820334589687" lon="9.497425155312923"><ele>880.9999999999999</ele><time>2026-04-09T11:15:10.002Z</time></trkpt><trkpt lat="45.7821022944067" lon="9.497309572690162"><ele>880.9999999999999</ele><time>2026-04-09T11:15:11.002Z</time></trkpt><trkpt lat="45.7821446692975" lon="9.497192533102567"><ele>881.0</ele><time>2026-04-09T11:15:12.002Z</time></trkpt><trkpt lat="45.78215726980096" lon="9.497058527686596"><ele>881.0</ele><time>2026-04-09T11:15:13.002Z</time></trkpt><trkpt lat="45.782145274832345" lon="9.496904862056764"><ele>880.5</ele><time>2026-04-09T11:15:14.002Z</time></trkpt><trkpt lat="45.782133752438625" lon="9.496720069393854"><ele>880.0</ele><time>2026-04-09T11:15:15.002Z</time></trkpt><trkpt lat="45.78211318559654" lon="9.496508044749113"><ele>879.5</ele><time>2026-04-09T11:15:16.002Z</time></trkpt><trkpt lat="45.78208729359832" lon="9.496310529140082"><ele>879.0</ele><time>2026-04-09T11:15:17.002Z</time></trkpt><trkpt lat="45.782050515116794" lon="9.496134569944207"><ele>879.0</ele><time>2026-04-09T11:15:18.002Z</time></trkpt><trkpt lat="45.78198884328162" lon="9.495956307768605"><ele>879.0</ele><time>2026-04-09T11:15:19.002Z</time></trkpt><trkpt lat="45.78191672952449" lon="9.495781562545709"><ele>879.0</ele><time>2026-04-09T11:15:20.002Z</time></trkpt><trkpt lat="45.781848960020405" lon="9.49562147977901"><ele>879.0</ele><time>2026-04-09T11:15:21.002Z</time></trkpt><trkpt lat="45.781793156607215" lon="9.495474262469793"><ele>870.6</ele><time>2026-04-09T11:15:22.002Z</time></trkpt><trkpt lat="45.78174178960111" lon="9.495318820928198"><ele>862.2</ele><time>2026-04-09T11:15:23.002Z</time></trkpt><trkpt lat="45.78170658473129" lon="9.495173458972502"><ele>853.8000000000001</ele><time>2026-04-09T11:15:24.002Z</time></trkpt><trkpt lat="45.78168656929226" lon="9.495029697802254"><ele>845.4000000000001</ele><time>2026-04-09T11:15:25.002Z</time></trkpt><trkpt lat="45.78169179648382" lon="9.4948753260744"><ele>837.0</ele><time>2026-04-09T11:15:26.002Z</time></trkpt><trkpt lat="45.781713490482055" lon="9.49472086068947"><ele>834.5</ele><time>2026-04-09T11:15:27.002Z</time></trkpt><trkpt lat="45.78174768852138" lon="9.494561699612529"><ele>832.0</ele><time>2026-04-09T11:15:28.002Z</time></trkpt><trkpt lat="45.78178823823077" lon="9.49439116153741"><ele>829.5</ele><time>2026-04-09T11:15:29.002Z</time></trkpt><trkpt lat="45.78183404230607" lon="9.494204318602316"><ele>827.0</ele><time>2026-04-09T11:15:30.002Z</time></trkpt><trkpt lat="45.781868464742445" lon="9.494017795175223"><ele>833.0</ele><time>2026-04-09T11:15:31.002Z</time></trkpt><trkpt lat="45.781887316616455" lon="9.493844534527486"><ele>839.0</ele><time>2026-04-09T11:15:32.002Z</time></trkpt><trkpt lat="45.78189938831002" lon="9.493660679263622"><ele>845.0</ele><time>2026-04-09T11:15:33.002Z</time></trkpt><trkpt lat="45.78191592356195" lon="9.493445625121153"><ele>851.0</ele><time>2026-04-09T11:15:34.002Z</time></trkpt><trkpt lat="45.78193003415822" lon="9.493266807587734"><ele>851.0000000000001</ele><time>2026-04-09T11:15:35Z</time></trkpt><trkpt lat="45.781941937038745" lon="9.493105850592439"><ele>851.0</ele><time>2026-04-09T11:15:36Z</time></trkpt><trkpt lat="45.78196452412371" lon="9.492981051080264"><ele>851.0</ele><time>2026-04-09T11:15:37Z</time></trkpt><trkpt lat="45.782003652444345" lon="9.492876464639423"><ele>851.0</ele><time>2026-04-09T11:15:38Z</time></trkpt><trkpt lat="45.78198142681039" lon="9.492756621312257"><ele>851.0000000000001</ele><time>2026-04-09T11:15:40Z</time></trkpt><trkpt lat="45.7819096627105" lon="9.49274959874437"><ele>851.0</ele><time>2026-04-09T11:15:41Z</time></trkpt><trkpt lat="45.78181798677848" lon="9.492878497389551"><ele>844.1999999999999</ele><time>2026-04-09T11:15:43Z</time></trkpt><trkpt lat="45.781799797801355" lon="9.492992261406064"><ele>837.4</ele><time>2026-04-09T11:15:44Z</time></trkpt><trkpt lat="45.78178898321664" lon="9.49314952067925"><ele>830.6</ele><time>2026-04-09T11:15:45Z</time></trkpt><trkpt lat="45.7817672883844" lon="9.493317370391669"><ele>823.8</ele><time>2026-04-09T11:15:46Z</time></trkpt><trkpt lat="45.78174884977304" lon="9.493491133264197"><ele>817.0</ele><time>2026-04-09T11:15:47Z</time></trkpt><trkpt lat="45.781721921433146" lon="9.49365593382796"><ele>819.5</ele><time>2026-04-09T11:15:48Z</time></trkpt><trkpt lat="45.78165744572218" lon="9.493813825998014"><ele>822.0</ele><time>2026-04-09T11:15:49Z</time></trkpt><trkpt lat="45.78158897818062" lon="9.493970780936772"><ele>824.5</ele><time>2026-04-09T11:15:50Z</time></trkpt><trkpt lat="45.781523953837166" lon="9.494141219502866"><ele>827.0</ele><time>2026-04-09T11:15:51Z</time></trkpt><trkpt lat="45.7814456517141" lon="9.494293066195935"><ele>827.0</ele><time>2026-04-09T11:15:52Z</time></trkpt><trkpt lat="45.78136056454682" lon="9.494454943781546"><ele>827.0</ele><time>2026-04-09T11:15:53Z</time></trkpt><trkpt lat="45.78128965448033" lon="9.494585039407415"><ele>827.0</ele><time>2026-04-09T11:15:54Z</time></trkpt><trkpt lat="45.781228570162305" lon="9.494732388349842"><ele>827.0</ele><time>2026-04-09T11:15:55Z</time></trkpt><trkpt lat="45.781170054428095" lon="9.494872904897957"><ele>828.0</ele><time>2026-04-09T11:15:56Z</time></trkpt><trkpt lat="45.78113832108623" lon="9.495015372285668"><ele>829.0</ele><time>2026-04-09T11:15:57Z</time></trkpt><trkpt lat="45.78112351641363" lon="9.495150769188584"><ele>830.0</ele><time>2026-04-09T11:15:58Z</time></trkpt><trkpt lat="45.78114447093107" lon="9.495321021244127"><ele>831.0</ele><time>2026-04-09T11:15:59Z</time></trkpt><trkpt lat="45.781173632857126" lon="9.495473702616186"><ele>832.0</ele><time>2026-04-09T11:16:00Z</time></trkpt><trkpt lat="45.78124564187293" lon="9.495622305137362"><ele>832.0</ele><time>2026-04-09T11:16:01Z</time></trkpt><trkpt lat="45.78129311720619" lon="9.495791728565903"><ele>832.0</ele><time>2026-04-09T11:16:02Z</time></trkpt><trkpt lat="45.78131718720224" lon="9.495925957479711"><ele>832.0</ele><time>2026-04-09T11:16:03Z</time></trkpt><trkpt lat="45.781335809577065" lon="9.496055794673092"><ele>832.0</ele><time>2026-04-09T11:16:04Z</time></trkpt><trkpt lat="45.781325172083974" lon="9.496180594262043"><ele>832.0</ele><time>2026-04-09T11:16:05Z</time></trkpt><trkpt lat="45.78130167054041" lon="9.496291174601932"><ele>831.5</ele><time>2026-04-09T11:16:06Z</time></trkpt><trkpt lat="45.781235636326336" lon="9.496389568036559"><ele>831.0</ele><time>2026-04-09T11:16:07Z</time></trkpt><trkpt lat="45.78114441705802" lon="9.496465376051926"><ele>830.5</ele><time>2026-04-09T11:16:08Z</time></trkpt><trkpt lat="45.781033556125685" lon="9.49653832789649"><ele>830.0</ele><time>2026-04-09T11:16:09Z</time></trkpt><trkpt lat="45.780904698174496" lon="9.496633009194074"><ele>823.25</ele><time>2026-04-09T11:16:10.001Z</time></trkpt><trkpt lat="45.78078616453423" lon="9.4967624571438"><ele>816.5</ele><time>2026-04-09T11:16:11.001Z</time></trkpt><trkpt lat="45.780657575631984" lon="9.496869388861644"><ele>809.75</ele><time>2026-04-09T11:16:12.001Z</time></trkpt><trkpt lat="45.78052535857302" lon="9.496968154667622"><ele>803.0</ele><time>2026-04-09T11:16:13.001Z</time></trkpt><trkpt lat="45.780402650224694" lon="9.497062363788263"><ele>802.75</ele><time>2026-04-09T11:16:14.001Z</time></trkpt><trkpt lat="45.780284919598266" lon="9.49716745133424"><ele>802.5</ele><time>2026-04-09T11:16:15.001Z</time></trkpt><trkpt lat="45.78017859363654" lon="9.49726961999595"><ele>802.25</ele><time>2026-04-09T11:16:16.001Z</time></trkpt><trkpt lat="45.780092026775925" lon="9.497376788945855"><ele>802.0</ele><time>2026-04-09T11:16:17.001Z</time></trkpt><trkpt lat="45.780004645179645" lon="9.497463936058391"><ele>802.0</ele><time>2026-04-09T11:16:18.001Z</time></trkpt><trkpt lat="45.77990844521677" lon="9.497523093109367"><ele>802.0</ele><time>2026-04-09T11:16:19.001Z</time></trkpt><trkpt lat="45.77978379777493" lon="9.497546471776618"><ele>802.0</ele><time>2026-04-09T11:16:20.001Z</time></trkpt><trkpt lat="45.7796467815052" lon="9.497551901031729"><ele>802.0</ele><time>2026-04-09T11:16:21.001Z</time></trkpt><trkpt lat="45.779520387459606" lon="9.497521155700639"><ele>802.0</ele><time>2026-04-09T11:16:22.001Z</time></trkpt><trkpt lat="45.77940016740384" lon="9.49752140930821"><ele>802.0</ele><time>2026-04-09T11:16:23.001Z</time></trkpt><trkpt lat="45.77930089590112" lon="9.497538181817124"><ele>802.0</ele><time>2026-04-09T11:16:24.001Z</time></trkpt><trkpt lat="45.779226302125366" lon="9.497554719371664"><ele>802.0</ele><time>2026-04-09T11:16:25.001Z</time></trkpt><trkpt lat="45.7791597365612" lon="9.497474969214595"><ele>802.0</ele><time>2026-04-09T11:16:27.001Z</time></trkpt><trkpt lat="45.7792210823087" lon="9.49731905254427"><ele>802.0</ele><time>2026-04-09T11:16:29.001Z</time></trkpt><trkpt lat="45.77929492739307" lon="9.497273513815136"><ele>802.0</ele><time>2026-04-09T11:16:30.001Z</time></trkpt><trkpt lat="45.77939940698802" lon="9.497256319742025"><ele>802.0</ele><time>2026-04-09T11:16:31.001Z</time></trkpt><trkpt lat="45.77952194211557" lon="9.497245411677138"><ele>802.0</ele><time>2026-04-09T11:16:32.001Z</time></trkpt><trkpt lat="45.77962160396055" lon="9.497211289322438"><ele>802.0</ele><time>2026-04-09T11:16:33.001Z</time></trkpt><trkpt lat="45.77970919008173" lon="9.497111205460063"><ele>797.6</ele><time>2026-04-09T11:16:34.001Z</time></trkpt><trkpt lat="45.779771705918186" lon="9.496997275319826"><ele>793.2</ele><time>2026-04-09T11:16:35.001Z</time></trkpt><trkpt lat="45.77982097837901" lon="9.496873291807265"><ele>788.8</ele><time>2026-04-09T11:16:36.001Z</time></trkpt><trkpt lat="45.77989350025541" lon="9.496752826014909"><ele>784.4</ele><time>2026-04-09T11:16:37.001Z</time></trkpt><trkpt lat="45.77999030602412" lon="9.496643513675695"><ele>780.0</ele><time>2026-04-09T11:16:38.001Z</time></trkpt><trkpt lat="45.78009614852357" lon="9.496516810199157"><ele>782.25</ele><time>2026-04-09T11:16:39.001Z</time></trkpt><trkpt lat="45.78019515267612" lon="9.496394732558485"><ele>784.5</ele><time>2026-04-09T11:16:40.001Z</time></trkpt><trkpt lat="45.78028905056946" lon="9.496280042430742"><ele>786.75</ele><time>2026-04-09T11:16:41.001Z</time></trkpt><trkpt lat="45.78037795556776" lon="9.49617843490978"><ele>789.0</ele><time>2026-04-09T11:16:42.001Z</time></trkpt><trkpt lat="45.78045445618312" lon="9.496072387285297"><ele>789.0</ele><time>2026-04-09T11:16:43.001Z</time></trkpt><trkpt lat="45.780510157537556" lon="9.495934903718522"><ele>789.0</ele><time>2026-04-09T11:16:44.001Z</time></trkpt><trkpt lat="45.78053896518892" lon="9.495794022652051"><ele>789.0</ele><time>2026-04-09T11:16:45.001Z</time></trkpt><trkpt lat="45.78054096210575" lon="9.49565895500242"><ele>789.0</ele><time>2026-04-09T11:16:46.001Z</time></trkpt><trkpt lat="45.780502971026415" lon="9.495547265808996"><ele>789.0</ele><time>2026-04-09T11:16:47.001Z</time></trkpt><trkpt lat="45.780438822233485" lon="9.495467721924772"><ele>789.6666666666666</ele><time>2026-04-09T11:16:48.001Z</time></trkpt><trkpt lat="45.78035631917834" lon="9.495406611656284"><ele>790.3333333333333</ele><time>2026-04-09T11:16:49.001Z</time></trkpt><trkpt lat="45.78029115200493" lon="9.495336787517452"><ele>791.0</ele><time>2026-04-09T11:16:50.001Z</time></trkpt><trkpt lat="45.78024194437191" lon="9.495255824588046"><ele>791.6666666666666</ele><time>2026-04-09T11:16:51.001Z</time></trkpt><trkpt lat="45.780207473095416" lon="9.49513532985554"><ele>792.3333333333333</ele><time>2026-04-09T11:16:52.001Z</time></trkpt><trkpt lat="45.78020096839103" lon="9.494987129520222"><ele>793.0</ele><time>2026-04-09T11:16:53.001Z</time></trkpt><trkpt lat="45.78021413077536" lon="9.494833780643097"><ele>793.0</ele><time>2026-04-09T11:16:54.001Z</time></trkpt><trkpt lat="45.78025148792227" lon="9.494699220731782"><ele>793.0</ele><time>2026-04-09T11:16:55.001Z</time></trkpt><trkpt lat="45.78031017074751" lon="9.494550245588753"><ele>793.0</ele><time>2026-04-09T11:16:56.001Z</time></trkpt><trkpt lat="45.78039610336131" lon="9.494383140536168"><ele>793.0</ele><time>2026-04-09T11:16:57.001Z</time></trkpt><trkpt lat="45.78048616815837" lon="9.494190057022088"><ele>788.3333333333333</ele><time>2026-04-09T11:16:58.001Z</time></trkpt><trkpt lat="45.78058094780042" lon="9.493991620556146"><ele>783.6666666666667</ele><time>2026-04-09T11:16:59.001Z</time></trkpt><trkpt lat="45.780664074187" lon="9.493811394920359"><ele>779.0</ele><time>2026-04-09T11:17:00.001Z</time></trkpt><trkpt lat="45.78073332660552" lon="9.493643136169062"><ele>776.4000000000001</ele><time>2026-04-09T11:17:01.001Z</time></trkpt><trkpt lat="45.780782761744646" lon="9.493504858389322"><ele>773.8</ele><time>2026-04-09T11:17:02.001Z</time></trkpt><trkpt lat="45.78080361359429" lon="9.493384363953474"><ele>771.2</ele><time>2026-04-09T11:17:03.001Z</time></trkpt><trkpt lat="45.780776194793766" lon="9.49327108026175"><ele>768.5999999999999</ele><time>2026-04-09T11:17:04.001Z</time></trkpt><trkpt lat="45.78072765851633" lon="9.493180580332588"><ele>766.0</ele><time>2026-04-09T11:17:05.001Z</time></trkpt><trkpt lat="45.780651500779015" lon="9.493078661702437"><ele>766.0</ele><time>2026-04-09T11:17:06.001Z</time></trkpt><trkpt lat="45.78056954365871" lon="9.492956482355034"><ele>766.0</ele><time>2026-04-09T11:17:07.001Z</time></trkpt><trkpt lat="45.780479120032616" lon="9.492821823325595"><ele>766.0</ele><time>2026-04-09T11:17:08.001Z</time></trkpt><trkpt lat="45.78041060171516" lon="9.492673760897837"><ele>766.0</ele><time>2026-04-09T11:17:09.001Z</time></trkpt><trkpt lat="45.78036311389702" lon="9.492520738814937"><ele>767.5999999999999</ele><time>2026-04-09T11:17:10.002Z</time></trkpt><trkpt lat="45.78032055122393" lon="9.492370028532948"><ele>769.2</ele><time>2026-04-09T11:17:11.002Z</time></trkpt><trkpt lat="45.78029123430451" lon="9.492229277844732"><ele>770.8</ele><time>2026-04-09T11:17:12.002Z</time></trkpt><trkpt lat="45.78027353028601" lon="9.49207639612713"><ele>772.4000000000001</ele><time>2026-04-09T11:17:13.002Z</time></trkpt><trkpt lat="45.78026873278754" lon="9.491902006434257"><ele>774.0</ele><time>2026-04-09T11:17:14.002Z</time></trkpt><trkpt lat="45.780260194775636" lon="9.491719572319653"><ele>775.0</ele><time>2026-04-09T11:17:15.002Z</time></trkpt><trkpt lat="45.780228842981245" lon="9.491539643144042"><ele>776.0</ele><time>2026-04-09T11:17:16.002Z</time></trkpt><trkpt lat="45.78017666059095" lon="9.49135287787151"><ele>777.0</ele><time>2026-04-09T11:17:17.002Z</time></trkpt><trkpt lat="45.78010828600907" lon="9.491183062495752"><ele>778.0</ele><time>2026-04-09T11:17:18.002Z</time></trkpt><trkpt lat="45.7800478284324" lon="9.491031326376172"><ele>768.8</ele><time>2026-04-09T11:17:19.002Z</time></trkpt><trkpt lat="45.77997057769693" lon="9.490887595086622"><ele>759.5999999999999</ele><time>2026-04-09T11:17:20.002Z</time></trkpt><trkpt lat="45.77989972909376" lon="9.490742536696052"><ele>750.4000000000001</ele><time>2026-04-09T11:17:21.002Z</time></trkpt><trkpt lat="45.779843152941325" lon="9.49062911063161"><ele>741.2</ele><time>2026-04-09T11:17:22.002Z</time></trkpt><trkpt lat="45.779816550402394" lon="9.490528808197459"><ele>732.0</ele><time>2026-04-09T11:17:23.002Z</time></trkpt><trkpt lat="45.77980524568049" lon="9.49040349789436"><ele>731.5</ele><time>2026-04-09T11:17:24.002Z</time></trkpt><trkpt lat="45.77979968938417" lon="9.49020403983569"><ele>731.0</ele><time>2026-04-09T11:17:25.002Z</time></trkpt><trkpt lat="45.77979708330475" lon="9.490014324968088"><ele>730.5</ele><time>2026-04-09T11:17:26.002Z</time></trkpt><trkpt lat="45.779791450267474" lon="9.489847452303811"><ele>730.0</ele><time>2026-04-09T11:17:27.002Z</time></trkpt><trkpt lat="45.77977665154899" lon="9.489725374798232"><ele>730.0</ele><time>2026-04-09T11:17:28.002Z</time></trkpt><trkpt lat="45.77973622733655" lon="9.489642101907517"><ele>730.0</ele><time>2026-04-09T11:17:29.002Z</time></trkpt><trkpt lat="45.7796218272714" lon="9.489654532773367"><ele>730.0</ele><time>2026-04-09T11:17:31.002Z</time></trkpt><trkpt lat="45.77958936859514" lon="9.489816866964777"><ele>730.0</ele><time>2026-04-09T11:17:33.002Z</time></trkpt><trkpt lat="45.77961542608052" lon="9.489922508289723"><ele>730.0</ele><time>2026-04-09T11:17:34.002Z</time></trkpt><trkpt lat="45.779665892546014" lon="9.49006326408488"><ele>730.0</ele><time>2026-04-09T11:17:35.002Z</time></trkpt><trkpt lat="45.779677664534546" lon="9.490217396513563"><ele>730.0</ele><time>2026-04-09T11:17:36.002Z</time></trkpt><trkpt lat="45.77966738869828" lon="9.49039428874219"><ele>730.0</ele><time>2026-04-09T11:17:37.002Z</time></trkpt><trkpt lat="45.77965137400561" lon="9.490560891582145"><ele>730.0</ele><time>2026-04-09T11:17:38.002Z</time></trkpt><trkpt lat="45.779647634945896" lon="9.490717292425826"><ele>729.75</ele><time>2026-04-09T11:17:39.002Z</time></trkpt><trkpt lat="45.779664907903644" lon="9.490869548272599"><ele>729.5</ele><time>2026-04-09T11:17:40.002Z</time></trkpt><trkpt lat="45.779712718571226" lon="9.491023717722111"><ele>729.25</ele><time>2026-04-09T11:17:41Z</time></trkpt><trkpt lat="45.77977743136668" lon="9.491182640032044"><ele>729.0</ele><time>2026-04-09T11:17:42Z</time></trkpt><trkpt lat="45.77982248911069" lon="9.491356494057992"><ele>729.0</ele><time>2026-04-09T11:17:43Z</time></trkpt><trkpt lat="45.77984758089668" lon="9.491518146841178"><ele>729.0</ele><time>2026-04-09T11:17:44Z</time></trkpt><trkpt lat="45.77986794604758" lon="9.49170112289149"><ele>729.0</ele><time>2026-04-09T11:17:45Z</time></trkpt><trkpt lat="45.779889378251674" lon="9.491873785709073"><ele>729.0</ele><time>2026-04-09T11:17:46Z</time></trkpt><trkpt lat="45.779893553634544" lon="9.49202024556623"><ele>728.25</ele><time>2026-04-09T11:17:47Z</time></trkpt><trkpt lat="45.77988112790876" lon="9.492183639442498"><ele>727.5</ele><time>2026-04-09T11:17:48Z</time></trkpt><trkpt lat="45.77986366973277" lon="9.492345483581827"><ele>726.75</ele><time>2026-04-09T11:17:49Z</time></trkpt><trkpt lat="45.77986085393062" lon="9.492507449824934"><ele>726.0</ele><time>2026-04-09T11:17:50Z</time></trkpt><trkpt lat="45.779878968916954" lon="9.492695147020903"><ele>726.0</ele><time>2026-04-09T11:17:51Z</time></trkpt><trkpt lat="45.77990477306211" lon="9.492865226225756"><ele>726.0</ele><time>2026-04-09T11:17:52Z</time></trkpt><trkpt lat="45.77991319674559" lon="9.493027388028862"><ele>726.0</ele><time>2026-04-09T11:17:53Z</time></trkpt><trkpt lat="45.779908968582646" lon="9.4931746755791"><ele>726.0</ele><time>2026-04-09T11:17:54Z</time></trkpt><trkpt lat="45.77987832859417" lon="9.49327769499142"><ele>726.0</ele><time>2026-04-09T11:17:55Z</time></trkpt><trkpt lat="45.779808662839145" lon="9.493360073641899"><ele>725.5</ele><time>2026-04-09T11:17:56Z</time></trkpt><trkpt lat="45.7797158411289" lon="9.493388167296303"><ele>725.0</ele><time>2026-04-09T11:17:57Z</time></trkpt><trkpt lat="45.77959927521976" lon="9.493416582874678"><ele>724.5</ele><time>2026-04-09T11:17:58Z</time></trkpt><trkpt lat="45.779458887400985" lon="9.493460474035642"><ele>724.0</ele><time>2026-04-09T11:17:59Z</time></trkpt><trkpt lat="45.77930998058759" lon="9.49353392916207"><ele>719.0</ele><time>2026-04-09T11:18:00Z</time></trkpt><trkpt lat="45.77916116764333" lon="9.493610210833241"><ele>714.0</ele><time>2026-04-09T11:18:01Z</time></trkpt><trkpt lat="45.779021145767004" lon="9.493689889366536"><ele>709.0</ele><time>2026-04-09T11:18:02Z</time></trkpt><trkpt lat="45.77887797290396" lon="9.493770170013681"><ele>709.0</ele><time>2026-04-09T11:18:03Z</time></trkpt><trkpt lat="45.77873119456108" lon="9.493848498955757"><ele>709.0</ele><time>2026-04-09T11:18:04Z</time></trkpt><trkpt lat="45.77858834738663" lon="9.493935768545493"><ele>709.0</ele><time>2026-04-09T11:18:05Z</time></trkpt><trkpt lat="45.77845707717612" lon="9.494008073090354"><ele>705.25</ele><time>2026-04-09T11:18:06Z</time></trkpt><trkpt lat="45.77832743954135" lon="9.494074840853324"><ele>701.5</ele><time>2026-04-09T11:18:07Z</time></trkpt><trkpt lat="45.77819376873892" lon="9.494137858167319"><ele>697.75</ele><time>2026-04-09T11:18:08.001Z</time></trkpt><trkpt lat="45.77806617020486" lon="9.494190266199473"><ele>694.0</ele><time>2026-04-09T11:18:09.001Z</time></trkpt><trkpt lat="45.77793059267264" lon="9.494230606432572"><ele>694.0</ele><time>2026-04-09T11:18:10.001Z</time></trkpt><trkpt lat="45.777795941360054" lon="9.49424540111217"><ele>694.0</ele><time>2026-04-09T11:18:11.001Z</time></trkpt><trkpt lat="45.7776671308731" lon="9.494251571333756"><ele>694.0</ele><time>2026-04-09T11:18:12.001Z</time></trkpt><trkpt lat="45.777562374134995" lon="9.494251547258129"><ele>694.0</ele><time>2026-04-09T11:18:13.001Z</time></trkpt><trkpt lat="45.77748008843338" lon="9.494248051522808"><ele>694.0</ele><time>2026-04-09T11:18:14.001Z</time></trkpt><trkpt lat="45.777481203604154" lon="9.494087784595287"><ele>694.0</ele><time>2026-04-09T11:18:16.001Z</time></trkpt><trkpt lat="45.77752313045425" lon="9.494018371581944"><ele>694.0</ele><time>2026-04-09T11:18:17.001Z</time></trkpt><trkpt lat="45.77759098163074" lon="9.49398354860385"><ele>694.0</ele><time>2026-04-09T11:18:18.001Z</time></trkpt><trkpt lat="45.77768461403392" lon="9.493975108213286"><ele>694.0</ele><time>2026-04-09T11:18:19.001Z</time></trkpt><trkpt lat="45.77779289600416" lon="9.493967478926592"><ele>694.0</ele><time>2026-04-09T11:18:20.001Z</time></trkpt><trkpt lat="45.77790653730109" lon="9.493932919530899"><ele>694.0</ele><time>2026-04-09T11:18:21.001Z</time></trkpt><trkpt lat="45.77800023411922" lon="9.49386196080727"><ele>694.0</ele><time>2026-04-09T11:18:22.001Z</time></trkpt><trkpt lat="45.77807725481824" lon="9.49376941632647"><ele>694.0</ele><time>2026-04-09T11:18:23.001Z</time></trkpt><trkpt lat="45.778142201238936" lon="9.493658361588459"><ele>694.0</ele><time>2026-04-09T11:18:24.001Z</time></trkpt><trkpt lat="45.77821258497504" lon="9.49351980528344"><ele>691.0</ele><time>2026-04-09T11:18:25.001Z</time></trkpt><trkpt lat="45.77826168733404" lon="9.493375266342461"><ele>688.0</ele><time>2026-04-09T11:18:26.001Z</time></trkpt><trkpt lat="45.77829168016055" lon="9.493238540249514"><ele>685.0</ele><time>2026-04-09T11:18:27.001Z</time></trkpt><trkpt lat="45.77831073228026" lon="9.493085246801671"><ele>682.0</ele><time>2026-04-09T11:18:28.001Z</time></trkpt><trkpt lat="45.7783196688192" lon="9.492931581910915"><ele>679.0</ele><time>2026-04-09T11:18:29.001Z</time></trkpt><trkpt lat="45.77833420963467" lon="9.492783956058215"><ele>679.8000000000001</ele><time>2026-04-09T11:18:30.001Z</time></trkpt><trkpt lat="45.77836864299169" lon="9.49265204506258"><ele>680.6</ele><time>2026-04-09T11:18:31.001Z</time></trkpt><trkpt lat="45.77842439695331" lon="9.492528197762866"><ele>681.4</ele><time>2026-04-09T11:18:32.001Z</time></trkpt><trkpt lat="45.7784954111563" lon="9.49242013424914"><ele>682.2</ele><time>2026-04-09T11:18:33.001Z</time></trkpt><trkpt lat="45.77858950591221" lon="9.492334399100608"><ele>683.0</ele><time>2026-04-09T11:18:34.001Z</time></trkpt><trkpt lat="45.77868710049506" lon="9.49227521857389"><ele>683.0</ele><time>2026-04-09T11:18:35.001Z</time></trkpt><trkpt lat="45.77878971070891" lon="9.492260744780914"><ele>683.0</ele><time>2026-04-09T11:18:36.001Z</time></trkpt><trkpt lat="45.778887512954064" lon="9.492270497060593"><ele>683.0</ele><time>2026-04-09T11:18:37.001Z</time></trkpt><trkpt lat="45.778961153205145" lon="9.49227070413191"><ele>683.0</ele><time>2026-04-09T11:18:38.001Z</time></trkpt><trkpt lat="45.77901130677109" lon="9.492106930464706"><ele>683.0</ele><time>2026-04-09T11:18:40.001Z</time></trkpt><trkpt lat="45.77898444808769" lon="9.49201049289081"><ele>682.0</ele><time>2026-04-09T11:18:41.001Z</time></trkpt><trkpt lat="45.77893646920083" lon="9.491899554865737"><ele>681.0</ele><time>2026-04-09T11:18:42.001Z</time></trkpt><trkpt lat="45.77888241417635" lon="9.491759700996663"><ele>680.0</ele><time>2026-04-09T11:18:43.001Z</time></trkpt><trkpt lat="45.778828418172814" lon="9.491608542815726"><ele>679.0</ele><time>2026-04-09T11:18:44.001Z</time></trkpt><trkpt lat="45.77876379421302" lon="9.491449343914667"><ele>678.0</ele><time>2026-04-09T11:18:45.001Z</time></trkpt><trkpt lat="45.77870841232466" lon="9.491309849361437"><ele>679.4</ele><time>2026-04-09T11:18:46.001Z</time></trkpt><trkpt lat="45.77867131970766" lon="9.4911716563177"><ele>680.8</ele><time>2026-04-09T11:18:47.001Z</time></trkpt><trkpt lat="45.778656329987584" lon="9.491018168257453"><ele>682.2</ele><time>2026-04-09T11:18:48.001Z</time></trkpt><trkpt lat="45.778657572400675" lon="9.490847760201927"><ele>683.6</ele><time>2026-04-09T11:18:49.001Z</time></trkpt><trkpt lat="45.77865706253246" lon="9.4906871301998"><ele>685.0</ele><time>2026-04-09T11:18:50.001Z</time></trkpt><trkpt lat="45.778644133734886" lon="9.490562359570253"><ele>685.0</ele><time>2026-04-09T11:18:51.001Z</time></trkpt><trkpt lat="45.778608719296386" lon="9.490458587583603"><ele>685.0</ele><time>2026-04-09T11:18:52.001Z</time></trkpt><trkpt lat="45.77854718239402" lon="9.490341124844198"><ele>685.0</ele><time>2026-04-09T11:18:53.001Z</time></trkpt><trkpt lat="45.778476099764575" lon="9.490191552872519"><ele>685.0</ele><time>2026-04-09T11:18:54.001Z</time></trkpt><trkpt lat="45.778412661297416" lon="9.490026115563131"><ele>685.0</ele><time>2026-04-09T11:18:55.001Z</time></trkpt><trkpt lat="45.778348310627344" lon="9.489858807326133"><ele>678.2</ele><time>2026-04-09T11:18:56.001Z</time></trkpt><trkpt lat="45.77829256690993" lon="9.48971255918895"><ele>671.4</ele><time>2026-04-09T11:18:57.001Z</time></trkpt><trkpt lat="45.77824676976974" lon="9.489569825556435"><ele>664.5999999999999</ele><time>2026-04-09T11:18:58.001Z</time></trkpt><trkpt lat="45.77822700048475" lon="9.489459741070522"><ele>657.8</ele><time>2026-04-09T11:18:59.001Z</time></trkpt><trkpt lat="45.77821073189852" lon="9.489339308697138"><ele>651.0</ele><time>2026-04-09T11:19:00.001Z</time></trkpt><trkpt lat="45.77822035695289" lon="9.489238304470867"><ele>651.0</ele><time>2026-04-09T11:19:01.001Z</time></trkpt><trkpt lat="45.77822943204425" lon="9.489051530997061"><ele>651.0</ele><time>2026-04-09T11:19:02.001Z</time></trkpt><trkpt lat="45.77824148797495" lon="9.488866037774027"><ele>651.0</ele><time>2026-04-09T11:19:03.001Z</time></trkpt><trkpt lat="45.778262398030336" lon="9.488692620283551"><ele>651.0</ele><time>2026-04-09T11:19:04.001Z</time></trkpt><trkpt lat="45.77827298585511" lon="9.488531680877276"><ele>650.5999999999999</ele><time>2026-04-09T11:19:05.001Z</time></trkpt><trkpt lat="45.77825821840547" lon="9.488376917024594"><ele>650.2</ele><time>2026-04-09T11:19:06.001Z</time></trkpt><trkpt lat="45.778211743426134" lon="9.48823655073878"><ele>649.8</ele><time>2026-04-09T11:19:07.001Z</time></trkpt><trkpt lat="45.77816793382532" lon="9.488107676089175"><ele>649.4000000000001</ele><time>2026-04-09T11:19:08.001Z</time></trkpt><trkpt lat="45.77812887874885" lon="9.487976002962755"><ele>649.0</ele><time>2026-04-09T11:19:09.001Z</time></trkpt><trkpt lat="45.77809411630656" lon="9.487848085947919"><ele>647.3333333333334</ele><time>2026-04-09T11:19:10.001Z</time></trkpt><trkpt lat="45.77806573759472" lon="9.487721541201028"><ele>645.6666666666667</ele><time>2026-04-09T11:19:11.001Z</time></trkpt><trkpt lat="45.778053438949826" lon="9.487590306541202"><ele>644.0</ele><time>2026-04-09T11:19:12.001Z</time></trkpt><trkpt lat="45.77806400939066" lon="9.487459116899362"><ele>642.3333333333334</ele><time>2026-04-09T11:19:13.001Z</time></trkpt><trkpt lat="45.778092369740634" lon="9.487346806875111"><ele>640.6666666666666</ele><time>2026-04-09T11:19:14.002Z</time></trkpt><trkpt lat="45.778091999051846" lon="9.487223690076252"><ele>639.0</ele><time>2026-04-09T11:19:16.002Z</time></trkpt><trkpt lat="45.77798883033995" lon="9.487255822770324"><ele>639.0</ele><time>2026-04-09T11:19:18.002Z</time></trkpt><trkpt lat="45.77792186374777" lon="9.487417956301165"><ele>639.0</ele><time>2026-04-09T11:19:20.002Z</time></trkpt><trkpt lat="45.77790759946119" lon="9.487560015002142"><ele>639.0</ele><time>2026-04-09T11:19:21.002Z</time></trkpt><trkpt lat="45.777896110786415" lon="9.487726846219987"><ele>639.0</ele><time>2026-04-09T11:19:22.002Z</time></trkpt><trkpt lat="45.77789455264519" lon="9.487906244749317"><ele>641.0</ele><time>2026-04-09T11:19:23.002Z</time></trkpt><trkpt lat="45.77791302152769" lon="9.488069976324503"><ele>643.0</ele><time>2026-04-09T11:19:24.002Z</time></trkpt><trkpt lat="45.777949848502956" lon="9.488225730736"><ele>645.0</ele><time>2026-04-09T11:19:25.002Z</time></trkpt><trkpt lat="45.77797476718155" lon="9.488387497787128"><ele>647.0</ele><time>2026-04-09T11:19:26.002Z</time></trkpt><trkpt lat="45.77798809380737" lon="9.48852988868962"><ele>649.0</ele><time>2026-04-09T11:19:27.002Z</time></trkpt><trkpt lat="45.77796190217944" lon="9.488668678425872"><ele>649.4000000000001</ele><time>2026-04-09T11:19:28.002Z</time></trkpt><trkpt lat="45.77790843532258" lon="9.488790253445018"><ele>649.8</ele><time>2026-04-09T11:19:29.002Z</time></trkpt><trkpt lat="45.7778365429571" lon="9.488893927223554"><ele>650.2</ele><time>2026-04-09T11:19:30.002Z</time></trkpt><trkpt lat="45.777807602880316" lon="9.489025147001678"><ele>650.5999999999999</ele><time>2026-04-09T11:19:31.002Z</time></trkpt><trkpt lat="45.777831644345675" lon="9.489180435209137"><ele>651.0</ele><time>2026-04-09T11:19:32.002Z</time></trkpt><trkpt lat="45.77784615133941" lon="9.489358758489075"><ele>651.0</ele><time>2026-04-09T11:19:33.002Z</time></trkpt><trkpt lat="45.77786263233482" lon="9.48955516677939"><ele>651.0</ele><time>2026-04-09T11:19:34.002Z</time></trkpt><trkpt lat="45.777875825990925" lon="9.489722187783144"><ele>651.0</ele><time>2026-04-09T11:19:35.002Z</time></trkpt><trkpt lat="45.777896486698936" lon="9.48988471716594"><ele>651.0</ele><time>2026-04-09T11:19:36.002Z</time></trkpt><trkpt lat="45.777934040135996" lon="9.490031700101348"><ele>649.1999999999999</ele><time>2026-04-09T11:19:37.002Z</time></trkpt><trkpt lat="45.7779787964384" lon="9.490144642472583"><ele>647.4</ele><time>2026-04-09T11:19:38.002Z</time></trkpt><trkpt lat="45.77797954435194" lon="9.490263600868694"><ele>645.6</ele><time>2026-04-09T11:19:40.002Z</time></trkpt><trkpt lat="45.777881065224435" lon="9.490234381146916"><ele>643.8</ele><time>2026-04-09T11:19:42.002Z</time></trkpt><trkpt lat="45.77784208934728" lon="9.49004241280563"><ele>642.0</ele><time>2026-04-09T11:19:44.002Z</time></trkpt><trkpt lat="45.77785611300125" lon="9.48988766488358"><ele>642.0</ele><time>2026-04-09T11:19:45.002Z</time></trkpt><trkpt lat="45.77782691870115" lon="9.48971823120706"><ele>642.0</ele><time>2026-04-09T11:19:46.002Z</time></trkpt><trkpt lat="45.77779017441188" lon="9.489532719218534"><ele>642.0</ele><time>2026-04-09T11:19:47Z</time></trkpt><trkpt lat="45.77775334802887" lon="9.48935797620913"><ele>642.0</ele><time>2026-04-09T11:19:48Z</time></trkpt><trkpt lat="45.7776962075903" lon="9.489209667615972"><ele>634.2</ele><time>2026-04-09T11:19:49Z</time></trkpt><trkpt lat="45.77763879819432" lon="9.489081460849018"><ele>626.4000000000001</ele><time>2026-04-09T11:19:50Z</time></trkpt><trkpt lat="45.77757729567778" lon="9.488962640602157"><ele>618.5999999999999</ele><time>2026-04-09T11:19:51Z</time></trkpt><trkpt lat="45.77753985566708" lon="9.48884960397655"><ele>610.8</ele><time>2026-04-09T11:19:52Z</time></trkpt><trkpt lat="45.77752989595423" lon="9.488725047903559"><ele>603.0</ele><time>2026-04-09T11:19:53Z</time></trkpt><trkpt lat="45.77755603207325" lon="9.488607175747434"><ele>602.8</ele><time>2026-04-09T11:19:54Z</time></trkpt><trkpt lat="45.77761118486137" lon="9.488513375507837"><ele>602.5999999999999</ele><time>2026-04-09T11:19:55Z</time></trkpt><trkpt lat="45.77763919477239" lon="9.488400843694869"><ele>602.4000000000001</ele><time>2026-04-09T11:19:56Z</time></trkpt><trkpt lat="45.777627093074976" lon="9.488258879484034"><ele>602.2</ele><time>2026-04-09T11:19:57Z</time></trkpt><trkpt lat="45.77753323347005" lon="9.488125896322908"><ele>602.0</ele><time>2026-04-09T11:19:58Z</time></trkpt><trkpt lat="45.77749474504385" lon="9.487981789189472"><ele>600.8000000000001</ele><time>2026-04-09T11:19:59Z</time></trkpt><trkpt lat="45.777486462424555" lon="9.487857493649518"><ele>599.6</ele><time>2026-04-09T11:20:00Z</time></trkpt><trkpt lat="45.777484781701055" lon="9.487713173984671"><ele>598.4000000000001</ele><time>2026-04-09T11:20:01Z</time></trkpt><trkpt lat="45.77748170610258" lon="9.487540535551561"><ele>597.2</ele><time>2026-04-09T11:20:02Z</time></trkpt><trkpt lat="45.77748334996189" lon="9.487377825793462"><ele>596.0</ele><time>2026-04-09T11:20:03Z</time></trkpt><trkpt lat="45.77747980982338" lon="9.48715025833328"><ele>595.25</ele><time>2026-04-09T11:20:04Z</time></trkpt><trkpt lat="45.77748642436593" lon="9.486931773886278"><ele>594.5</ele><time>2026-04-09T11:20:05Z</time></trkpt><trkpt lat="45.77748364405949" lon="9.48674324041599"><ele>593.75</ele><time>2026-04-09T11:20:06Z</time></trkpt><trkpt lat="45.77746620219132" lon="9.486565345463285"><ele>593.0</ele><time>2026-04-09T11:20:07Z</time></trkpt><trkpt lat="45.77747553142234" lon="9.486391430186767"><ele>592.6</ele><time>2026-04-09T11:20:08Z</time></trkpt><trkpt lat="45.777486269132204" lon="9.486227514687243"><ele>592.1999999999999</ele><time>2026-04-09T11:20:09Z</time></trkpt><trkpt lat="45.777488868237675" lon="9.48608212158771"><ele>591.8</ele><time>2026-04-09T11:20:10Z</time></trkpt><trkpt lat="45.777457445710574" lon="9.485968302322652"><ele>591.4</ele><time>2026-04-09T11:20:11Z</time></trkpt><trkpt lat="45.77739362815942" lon="9.485886720804515"><ele>591.0</ele><time>2026-04-09T11:20:12Z</time></trkpt><trkpt lat="45.77733002107072" lon="9.485813103353276"><ele>591.0</ele><time>2026-04-09T11:20:13Z</time></trkpt><trkpt lat="45.777228322089485" lon="9.485812389977282"><ele>591.0</ele><time>2026-04-09T11:20:14Z</time></trkpt><trkpt lat="45.77714414257398" lon="9.485764404446343"><ele>591.0</ele><time>2026-04-09T11:20:15Z</time></trkpt><trkpt lat="45.77706592436566" lon="9.485653257308911"><ele>591.0</ele><time>2026-04-09T11:20:16Z</time></trkpt><trkpt lat="45.77698320943111" lon="9.485565717528546"><ele>591.0</ele><time>2026-04-09T11:20:17Z</time></trkpt><trkpt lat="45.77691349594191" lon="9.485484139132579"><ele>588.1428571428571</ele><time>2026-04-09T11:20:18Z</time></trkpt><trkpt lat="45.776853061341086" lon="9.485408012925348"><ele>585.2857142857143</ele><time>2026-04-09T11:20:19Z</time></trkpt><trkpt lat="45.776812260158835" lon="9.485326958895966"><ele>582.4285714285714</ele><time>2026-04-09T11:20:20Z</time></trkpt><trkpt lat="45.776783079252944" lon="9.485241607491085"><ele>579.5714285714286</ele><time>2026-04-09T11:20:21Z</time></trkpt><trkpt lat="45.776770210177645" lon="9.48514046455676"><ele>576.7142857142857</ele><time>2026-04-09T11:20:22Z</time></trkpt><trkpt lat="45.77676280493388" lon="9.485041592788956"><ele>573.8571428571429</ele><time>2026-04-09T11:20:23Z</time></trkpt><trkpt lat="45.776751706177365" lon="9.48495115558172"><ele>571.0</ele><time>2026-04-09T11:20:24Z</time></trkpt><trkpt lat="45.77676608621381" lon="9.484841022711041"><ele>571.0</ele><time>2026-04-09T11:20:26Z</time></trkpt><trkpt lat="45.776873301243484" lon="9.484792751535812"><ele>571.0</ele><time>2026-04-09T11:20:28Z</time></trkpt><trkpt lat="45.776963136781745" lon="9.484813590684777"><ele>571.0</ele><time>2026-04-09T11:20:29Z</time></trkpt><trkpt lat="45.77706454154442" lon="9.484862942665098"><ele>571.0</ele><time>2026-04-09T11:20:30Z</time></trkpt><trkpt lat="45.777627093074976" lon="9.488258879484034"><ele>576.0</ele><time>2026-04-09T11:19:57Z</time></trkpt><trkpt lat="45.77753323347005" lon="9.488125896322908"><ele>581.0</ele><time>2026-04-09T11:19:58Z</time></trkpt><trkpt lat="45.77749474504385" lon="9.487981789189472"><ele>586.0</ele><time>2026-04-09T11:19:59Z</time></trkpt><trkpt lat="45.777486462424555" lon="9.487857493649518"><ele>591.0</ele><time>2026-04-09T11:20:00Z</time></trkpt><trkpt lat="45.777484781701055" lon="9.487713173984671"><ele>596.0</ele><time>2026-04-09T11:20:01Z</time></trkpt><trkpt lat="45.77748170610258" lon="9.487540535551561"><ele>596.0</ele><time>2026-04-09T11:20:02Z</time></trkpt><trkpt lat="45.77748334996189" lon="9.487377825793462"><ele>596.0</ele><time>2026-04-09T11:20:03Z</time></trkpt><trkpt lat="45.77747980982338" lon="9.48715025833328"><ele>596.0</ele><time>2026-04-09T11:20:04Z</time></trkpt><trkpt lat="45.77748642436593" lon="9.486931773886278"><ele>596.0</ele><time>2026-04-09T11:20:05Z</time></trkpt><trkpt lat="45.77748364405949" lon="9.48674324041599"><ele>595.25</ele><time>2026-04-09T11:20:06Z</time></trkpt><trkpt lat="45.77746620219132" lon="9.486565345463285"><ele>594.5</ele><time>2026-04-09T11:20:07Z</time></trkpt><trkpt lat="45.77747553142234" lon="9.486391430186767"><ele>593.75</ele><time>2026-04-09T11:20:08Z</time></trkpt><trkpt lat="45.777486269132204" lon="9.486227514687243"><ele>593.0</ele><time>2026-04-09T11:20:09Z</time></trkpt><trkpt lat="45.777488868237675" lon="9.48608212158771"><ele>592.6666666666666</ele><time>2026-04-09T11:20:10Z</time></trkpt><trkpt lat="45.777457445710574" lon="9.485968302322652"><ele>592.3333333333333</ele><time>2026-04-09T11:20:11Z</time></trkpt><trkpt lat="45.77739362815942" lon="9.485886720804515"><ele>592.0</ele><time>2026-04-09T11:20:12Z</time></trkpt><trkpt lat="45.77733002107072" lon="9.485813103353276"><ele>591.6666666666666</ele><time>2026-04-09T11:20:13Z</time></trkpt><trkpt lat="45.777228322089485" lon="9.485812389977282"><ele>591.3333333333334</ele><time>2026-04-09T11:20:14Z</time></trkpt><trkpt lat="45.77714414257398" lon="9.485764404446343"><ele>591.0</ele><time>2026-04-09T11:20:15Z</time></trkpt><trkpt lat="45.77706592436566" lon="9.485653257308911"><ele>591.0</ele><time>2026-04-09T11:20:16Z</time></trkpt><trkpt lat="45.77698320943111" lon="9.485565717528546"><ele>591.0</ele><time>2026-04-09T11:20:17Z</time></trkpt><trkpt lat="45.77691349594191" lon="9.485484139132579"><ele>591.0</ele><time>2026-04-09T11:20:18Z</time></trkpt><trkpt lat="45.776853061341086" lon="9.485408012925348"><ele>591.0</ele><time>2026-04-09T11:20:19Z</time></trkpt><trkpt lat="45.776812260158835" lon="9.485326958895966"><ele>591.0</ele><time>2026-04-09T11:20:20Z</time></trkpt><trkpt lat="45.776783079252944" lon="9.485241607491085"><ele>591.0</ele><time>2026-04-09T11:20:21Z</time></trkpt><trkpt lat="45.776770210177645" lon="9.48514046455676"><ele>587.6666666666666</ele><time>2026-04-09T11:20:22Z</time></trkpt><trkpt lat="45.77676280493388" lon="9.485041592788956"><ele>584.3333333333334</ele><time>2026-04-09T11:20:23Z</time></trkpt><trkpt lat="45.776751706177365" lon="9.48495115558172"><ele>581.0</ele><time>2026-04-09T11:20:24Z</time></trkpt><trkpt lat="45.77676608621381" lon="9.484841022711041"><ele>577.6666666666667</ele><time>2026-04-09T11:20:26Z</time></trkpt><trkpt lat="45.776873301243484" lon="9.484792751535812"><ele>574.3333333333334</ele><time>2026-04-09T11:20:28Z</time></trkpt><trkpt lat="45.776963136781745" lon="9.484813590684777"><ele>571.0</ele><time>2026-04-09T11:20:29Z</time></trkpt><trkpt lat="45.77706454154442" lon="9.484862942665098"><ele>571.0</ele><time>2026-04-09T11:20:30Z</time></trkpt><trkpt lat="45.77718195739817" lon="9.484894059067528"><ele>571.0</ele><time>2026-04-09T11:20:31Z</time></trkpt><trkpt lat="45.77733650554723" lon="9.484963770189884"><ele>571.0</ele><time>2026-04-09T11:20:32Z</time></trkpt><trkpt lat="45.777512249334826" lon="9.485017851087617"><ele>571.0</ele><time>2026-04-09T11:20:33Z</time></trkpt><trkpt lat="45.77765656827747" lon="9.485063172056027"><ele>571.0</ele><time>2026-04-09T11:20:34Z</time></trkpt><trkpt lat="45.77778760650523" lon="9.485097126228933"><ele>571.0</ele><time>2026-04-09T11:20:35Z</time></trkpt><trkpt lat="45.77787831967245" lon="9.485125912042736"><ele>571.0</ele><time>2026-04-09T11:20:36Z</time></trkpt><trkpt lat="45.77794598448191" lon="9.485195395009296"><ele>573.8</ele><time>2026-04-09T11:20:37Z</time></trkpt><trkpt lat="45.77799560364597" lon="9.485308122418326"><ele>576.6</ele><time>2026-04-09T11:20:38Z</time></trkpt><trkpt lat="45.7780522915346" lon="9.485445785342035"><ele>579.4</ele><time>2026-04-09T11:20:39.001Z</time></trkpt><trkpt lat="45.77810958845347" lon="9.48558550925898"><ele>582.2</ele><time>2026-04-09T11:20:40.001Z</time></trkpt><trkpt lat="45.77818176084452" lon="9.485677348784282"><ele>585.0</ele><time>2026-04-09T11:20:41.001Z</time></trkpt><trkpt lat="45.778282011698465" lon="9.485709716744278"><ele>585.0</ele><time>2026-04-09T11:20:42.001Z</time></trkpt><trkpt lat="45.778398772229856" lon="9.485700683157571"><ele>585.0</ele><time>2026-04-09T11:20:43.001Z</time></trkpt><trkpt lat="45.77853687374827" lon="9.485685694322346"><ele>585.0</ele><time>2026-04-09T11:20:44.001Z</time></trkpt><trkpt lat="45.778656782061375" lon="9.48572127658067"><ele>585.0</ele><time>2026-04-09T11:20:45.001Z</time></trkpt><trkpt lat="45.77875186272737" lon="9.485727794909513"><ele>581.2</ele><time>2026-04-09T11:20:46.001Z</time></trkpt><trkpt lat="45.778821551242096" lon="9.48575871866675"><ele>577.4</ele><time>2026-04-09T11:20:47.001Z</time></trkpt><trkpt lat="45.77890581999095" lon="9.485682395959728"><ele>573.6</ele><time>2026-04-09T11:20:49.001Z</time></trkpt><trkpt lat="45.77885058838316" lon="9.485531477169307"><ele>569.8</ele><time>2026-04-09T11:20:50.001Z</time></trkpt><trkpt lat="45.77877090959136" lon="9.485544390568124"><ele>566.0</ele><time>2026-04-09T11:20:51.001Z</time></trkpt><trkpt lat="45.77868702464312" lon="9.48553410635781"><ele>566.0</ele><time>2026-04-09T11:20:52.001Z</time></trkpt><trkpt lat="45.778573911585205" lon="9.485532875546934"><ele>566.0</ele><time>2026-04-09T11:20:53.001Z</time></trkpt><trkpt lat="45.778451350954896" lon="9.485526333349119"><ele>566.0</ele><time>2026-04-09T11:20:54.001Z</time></trkpt><trkpt lat="45.778353160082176" lon="9.485455821554442"><ele>566.0</ele><time>2026-04-09T11:20:55.001Z</time></trkpt><trkpt lat="45.778271603509225" lon="9.485395505920383"><ele>566.0</ele><time>2026-04-09T11:20:56.001Z</time></trkpt><trkpt lat="45.778222602441254" lon="9.485334552539141"><ele>562.0</ele><time>2026-04-09T11:20:57.001Z</time></trkpt><trkpt lat="45.77821096731506" lon="9.485228192601893"><ele>558.0</ele><time>2026-04-09T11:20:58.001Z</time></trkpt><trkpt lat="45.778162783058626" lon="9.485083932177053"><ele>554.0</ele><time>2026-04-09T11:20:59.001Z</time></trkpt><trkpt lat="45.77811220648324" lon="9.484934013794806"><ele>550.0</ele><time>2026-04-09T11:21:00.001Z</time></trkpt><trkpt lat="45.77805468288965" lon="9.48479538179206"><ele>546.0</ele><time>2026-04-09T11:21:01.001Z</time></trkpt><trkpt lat="45.77798652309494" lon="9.484697288918383"><ele>546.0</ele><time>2026-04-09T11:21:02.001Z</time></trkpt><trkpt lat="45.777892557890624" lon="9.484628870993811"><ele>546.0</ele><time>2026-04-09T11:21:03.001Z</time></trkpt><trkpt lat="45.777768188877786" lon="9.484602663183573"><ele>546.0</ele><time>2026-04-09T11:21:04.001Z</time></trkpt><trkpt lat="45.77763082469756" lon="9.484552647930363"><ele>546.0</ele><time>2026-04-09T11:21:05.001Z</time></trkpt><trkpt lat="45.77747280339208" lon="9.484523101101283"><ele>541.0</ele><time>2026-04-09T11:21:06.001Z</time></trkpt><trkpt lat="45.77733351433113" lon="9.484476329858463"><ele>536.0</ele><time>2026-04-09T11:21:07.001Z</time></trkpt><trkpt lat="45.777202038829884" lon="9.48443160439528"><ele>531.0</ele><time>2026-04-09T11:21:08.001Z</time></trkpt><trkpt lat="45.77709144793215" lon="9.484376472452377"><ele>526.0</ele><time>2026-04-09T11:21:09.001Z</time></trkpt><trkpt lat="45.77701233950865" lon="9.484247660424895"><ele>526.0</ele><time>2026-04-09T11:21:10.001Z</time></trkpt><trkpt lat="45.776953833534115" lon="9.484123423647878"><ele>526.0</ele><time>2026-04-09T11:21:11.001Z</time></trkpt><trkpt lat="45.776858670199765" lon="9.483966337352953"><ele>526.0</ele><time>2026-04-09T11:21:12.001Z</time></trkpt><trkpt lat="45.77678538544668" lon="9.483779556851328"><ele>526.0</ele><time>2026-04-09T11:21:13.001Z</time></trkpt><trkpt lat="45.77669436145919" lon="9.483639989555078"><ele>522.75</ele><time>2026-04-09T11:21:14.001Z</time></trkpt><trkpt lat="45.77658909962869" lon="9.48351403363181"><ele>519.5</ele><time>2026-04-09T11:21:15.001Z</time></trkpt><trkpt lat="45.77652869918543" lon="9.483377862120483"><ele>516.25</ele><time>2026-04-09T11:21:16.001Z</time></trkpt><trkpt lat="45.7764652237552" lon="9.48324199619271"><ele>513.0</ele><time>2026-04-09T11:21:17.001Z</time></trkpt><trkpt lat="45.776409645819214" lon="9.483122872558697"><ele>513.0</ele><time>2026-04-09T11:21:18.001Z</time></trkpt><trkpt lat="45.77634956282861" lon="9.483031454748769"><ele>513.0</ele><time>2026-04-09T11:21:19.001Z</time></trkpt><trkpt lat="45.77627081920657" lon="9.482981667788835"><ele>513.0</ele><time>2026-04-09T11:21:20.001Z</time></trkpt><trkpt lat="45.77619237906784" lon="9.482998302785996"><ele>513.0</ele><time>2026-04-09T11:21:21.001Z</time></trkpt><trkpt lat="45.776113068878544" lon="9.483059221378968"><ele>513.0</ele><time>2026-04-09T11:21:22.001Z</time></trkpt><trkpt lat="45.77605346632724" lon="9.483159944290405"><ele>513.0</ele><time>2026-04-09T11:21:23.001Z</time></trkpt><trkpt lat="45.77599753700096" lon="9.483302921165619"><ele>513.75</ele><time>2026-04-09T11:21:24.001Z</time></trkpt><trkpt lat="45.77594429619203" lon="9.483468197492982"><ele>514.5</ele><time>2026-04-09T11:21:25.001Z</time></trkpt><trkpt lat="45.77591023083649" lon="9.483666373072797"><ele>515.25</ele><time>2026-04-09T11:21:26.001Z</time></trkpt><trkpt lat="45.77590316112513" lon="9.483881804301086"><ele>516.0</ele><time>2026-04-09T11:21:27.001Z</time></trkpt><trkpt lat="45.77590172254077" lon="9.484076790782039"><ele>516.0</ele><time>2026-04-09T11:21:28.001Z</time></trkpt><trkpt lat="45.77588033066766" lon="9.484263634306147"><ele>516.0</ele><time>2026-04-09T11:21:29.001Z</time></trkpt><trkpt lat="45.775858227288495" lon="9.484428159905935"><ele>516.0</ele><time>2026-04-09T11:21:30.001Z</time></trkpt><trkpt lat="45.775844861639506" lon="9.484579958354411"><ele>516.0</ele><time>2026-04-09T11:21:31.001Z</time></trkpt><trkpt lat="45.77587143515666" lon="9.484741021026954"><ele>518.0</ele><time>2026-04-09T11:21:32.001Z</time></trkpt><trkpt lat="45.77592174004367" lon="9.484909055492032"><ele>520.0</ele><time>2026-04-09T11:21:33.001Z</time></trkpt><trkpt lat="45.77598925396502" lon="9.485093399621707"><ele>522.0</ele><time>2026-04-09T11:21:34.001Z</time></trkpt><trkpt lat="45.77604112088854" lon="9.485277228831386"><ele>524.0</ele><time>2026-04-09T11:21:35.001Z</time></trkpt><trkpt lat="45.77606127694586" lon="9.485454138249564"><ele>524.0</ele><time>2026-04-09T11:21:36.002Z</time></trkpt><trkpt lat="45.77608448270974" lon="9.485579574795862"><ele>524.0</ele><time>2026-04-09T11:21:37.002Z</time></trkpt><trkpt lat="45.776026911205264" lon="9.485656318063597"><ele>524.0</ele><time>2026-04-09T11:21:40.002Z</time></trkpt><trkpt lat="45.77596864969448" lon="9.485512130656035"><ele>524.0</ele><time>2026-04-09T11:21:42.002Z</time></trkpt><trkpt lat="45.775948529093334" lon="9.485392897884825"><ele>524.0</ele><time>2026-04-09T11:21:43.002Z</time></trkpt><trkpt lat="45.77593222794915" lon="9.485263774513713"><ele>524.0</ele><time>2026-04-09T11:21:44.002Z</time></trkpt><trkpt lat="45.7759137469303" lon="9.48514067381589"><ele>524.0</ele><time>2026-04-09T11:21:45.002Z</time></trkpt><trkpt lat="45.775877730503176" lon="9.485028651755782"><ele>524.0</ele><time>2026-04-09T11:21:46.002Z</time></trkpt><trkpt lat="45.77582796969863" lon="9.48493750127463"><ele>524.0</ele><time>2026-04-09T11:21:47.002Z</time></trkpt><trkpt lat="45.775772281916154" lon="9.48485341179743"><ele>524.0</ele><time>2026-04-09T11:21:48.002Z</time></trkpt><trkpt lat="45.775710557502734" lon="9.484784618062513"><ele>524.0</ele><time>2026-04-09T11:21:49.002Z</time></trkpt><trkpt lat="45.775678076343915" lon="9.484688682381325"><ele>522.4</ele><time>2026-04-09T11:21:50.002Z</time></trkpt><trkpt lat="45.775628487480645" lon="9.484594130142131"><ele>520.8</ele><time>2026-04-09T11:21:51.002Z</time></trkpt><trkpt lat="45.77562560888937" lon="9.48447668904693"><ele>519.2</ele><time>2026-04-09T11:21:52.002Z</time></trkpt><trkpt lat="45.775606095929994" lon="9.484349763343198"><ele>517.6</ele><time>2026-04-09T11:21:52.999Z</time></trkpt><trkpt lat="45.775587157916306" lon="9.484191871405578"><ele>516.0</ele><time>2026-04-09T11:21:53.999Z</time></trkpt><trkpt lat="45.775574471420356" lon="9.484024576349514"><ele>516.0</ele><time>2026-04-09T11:21:54.999Z</time></trkpt><trkpt lat="45.77556250660108" lon="9.483859259619908"><ele>516.0</ele><time>2026-04-09T11:21:55.999Z</time></trkpt><trkpt lat="45.775521239219884" lon="9.483715335690805"><ele>516.0</ele><time>2026-04-09T11:21:56.999Z</time></trkpt><trkpt lat="45.77550172103672" lon="9.483570362588848"><ele>516.0</ele><time>2026-04-09T11:21:57.999Z</time></trkpt><trkpt lat="45.775429639364845" lon="9.483460527981435"><ele>516.0</ele><time>2026-04-09T11:21:58.999Z</time></trkpt><trkpt lat="45.77535676507052" lon="9.48332272573144"><ele>513.75</ele><time>2026-04-09T11:21:59.999Z</time></trkpt><trkpt lat="45.775293881574676" lon="9.4831700269495"><ele>511.5</ele><time>2026-04-09T11:22:00.999Z</time></trkpt><trkpt lat="45.775235420746775" lon="9.483018862949935"><ele>509.25</ele><time>2026-04-09T11:22:01.999Z</time></trkpt><trkpt lat="45.7752092407661" lon="9.48286103316149"><ele>507.0</ele><time>2026-04-09T11:22:02.999Z</time></trkpt><trkpt lat="45.77515977517668" lon="9.482747123905117"><ele>503.0</ele><time>2026-04-09T11:22:03.999Z</time></trkpt><trkpt lat="45.775093456174595" lon="9.482691248993206"><ele>499.0</ele><time>2026-04-09T11:22:04.999Z</time></trkpt><trkpt lat="45.77502974105043" lon="9.48269014203136"><ele>495.0</ele><time>2026-04-09T11:22:05.999Z</time></trkpt><trkpt lat="45.77493609856692" lon="9.482799045196682"><ele>491.0</ele><time>2026-04-09T11:22:07.999Z</time></trkpt><trkpt lat="45.77491293906058" lon="9.482889996457855"><ele>487.0</ele><time>2026-04-09T11:22:09Z</time></trkpt><trkpt lat="45.77491211581875" lon="9.48300371303107"><ele>483.0</ele><time>2026-04-09T11:22:10Z</time></trkpt><trkpt lat="45.7749085936232" lon="9.483095871238813"><ele>483.0</ele><time>2026-04-09T11:22:11Z</time></trkpt><trkpt lat="45.77489774500302" lon="9.483191245139757"><ele>483.0</ele><time>2026-04-09T11:22:12Z</time></trkpt><trkpt lat="45.77486513539933" lon="9.483269066416916"><ele>483.0</ele><time>2026-04-09T11:22:13Z</time></trkpt><trkpt lat="45.77475109784715" lon="9.48331322864907"><ele>483.0</ele><time>2026-04-09T11:22:15Z</time></trkpt><trkpt lat="45.774682188511505" lon="9.483250252908473"><ele>483.0</ele><time>2026-04-09T11:22:16Z</time></trkpt><trkpt lat="45.77459776117253" lon="9.483206378255943"><ele>483.0</ele><time>2026-04-09T11:22:17Z</time></trkpt><trkpt lat="45.774539112322856" lon="9.483108864546814"><ele>483.0</ele><time>2026-04-09T11:22:18Z</time></trkpt><trkpt lat="45.7744906316674" lon="9.483016719305132"><ele>483.0</ele><time>2026-04-09T11:22:19Z</time></trkpt><trkpt lat="45.77446401480321" lon="9.482908411012692"><ele>483.0</ele><time>2026-04-09T11:22:20Z</time></trkpt><trkpt lat="45.77444126066578" lon="9.482783817947684"><ele>483.0</ele><time>2026-04-09T11:22:21Z</time></trkpt><trkpt lat="45.77441123948362" lon="9.482675329325584"><ele>483.0</ele><time>2026-04-09T11:22:22Z</time></trkpt><trkpt lat="45.77439082313576" lon="9.482557283879116"><ele>483.0</ele><time>2026-04-09T11:22:28Z</time></trkpt><trkpt lat="45.777627093074976" lon="9.488258879484034"><ele>505.59999999999997</ele><time>2026-04-09T11:19:57Z</time></trkpt><trkpt lat="45.77753323347005" lon="9.488125896322908"><ele>528.1999999999999</ele><time>2026-04-09T11:19:58Z</time></trkpt><trkpt lat="45.77749474504385" lon="9.487981789189472"><ele>550.8</ele><time>2026-04-09T11:19:59Z</time></trkpt><trkpt lat="45.777486462424555" lon="9.487857493649518"><ele>573.4</ele><time>2026-04-09T11:20:00Z</time></trkpt><trkpt lat="45.777484781701055" lon="9.487713173984671"><ele>596.0</ele><time>2026-04-09T11:20:01Z</time></trkpt><trkpt lat="45.77748170610258" lon="9.487540535551561"><ele>596.0</ele><time>2026-04-09T11:20:02Z</time></trkpt><trkpt lat="45.77748334996189" lon="9.487377825793462"><ele>596.0</ele><time>2026-04-09T11:20:03Z</time></trkpt><trkpt lat="45.77747980982338" lon="9.48715025833328"><ele>596.0</ele><time>2026-04-09T11:20:04Z</time></trkpt><trkpt lat="45.77748642436593" lon="9.486931773886278"><ele>596.0</ele><time>2026-04-09T11:20:05Z</time></trkpt><trkpt lat="45.77748364405949" lon="9.48674324041599"><ele>595.25</ele><time>2026-04-09T11:20:06Z</time></trkpt><trkpt lat="45.77746620219132" lon="9.486565345463285"><ele>594.5</ele><time>2026-04-09T11:20:07Z</time></trkpt><trkpt lat="45.77747553142234" lon="9.486391430186767"><ele>593.75</ele><time>2026-04-09T11:20:08Z</time></trkpt><trkpt lat="45.777486269132204" lon="9.486227514687243"><ele>593.0</ele><time>2026-04-09T11:20:09Z</time></trkpt><trkpt lat="45.777488868237675" lon="9.48608212158771"><ele>592.6666666666666</ele><time>2026-04-09T11:20:10Z</time></trkpt><trkpt lat="45.777457445710574" lon="9.485968302322652"><ele>592.3333333333333</ele><time>2026-04-09T11:20:11Z</time></trkpt><trkpt lat="45.77739362815942" lon="9.485886720804515"><ele>592.0</ele><time>2026-04-09T11:20:12Z</time></trkpt><trkpt lat="45.77733002107072" lon="9.485813103353276"><ele>591.6666666666666</ele><time>2026-04-09T11:20:13Z</time></trkpt><trkpt lat="45.777228322089485" lon="9.485812389977282"><ele>591.3333333333334</ele><time>2026-04-09T11:20:14Z</time></trkpt><trkpt lat="45.77714414257398" lon="9.485764404446343"><ele>591.0</ele><time>2026-04-09T11:20:15Z</time></trkpt><trkpt lat="45.77706592436566" lon="9.485653257308911"><ele>591.0</ele><time>2026-04-09T11:20:16Z</time></trkpt><trkpt lat="45.77698320943111" lon="9.485565717528546"><ele>591.0</ele><time>2026-04-09T11:20:17Z</time></trkpt><trkpt lat="45.77691349594191" lon="9.485484139132579"><ele>591.0</ele><time>2026-04-09T11:20:18Z</time></trkpt><trkpt lat="45.776853061341086" lon="9.485408012925348"><ele>591.0</ele><time>2026-04-09T11:20:19Z</time></trkpt><trkpt lat="45.776812260158835" lon="9.485326958895966"><ele>591.0</ele><time>2026-04-09T11:20:20Z</time></trkpt><trkpt lat="45.776783079252944" lon="9.485241607491085"><ele>591.0</ele><time>2026-04-09T11:20:21Z</time></trkpt><trkpt lat="45.776770210177645" lon="9.48514046455676"><ele>587.6666666666666</ele><time>2026-04-09T11:20:22Z</time></trkpt><trkpt lat="45.77676280493388" lon="9.485041592788956"><ele>584.3333333333334</ele><time>2026-04-09T11:20:23Z</time></trkpt><trkpt lat="45.776751706177365" lon="9.48495115558172"><ele>581.0</ele><time>2026-04-09T11:20:24Z</time></trkpt><trkpt lat="45.77676608621381" lon="9.484841022711041"><ele>577.6666666666667</ele><time>2026-04-09T11:20:26Z</time></trkpt><trkpt lat="45.776873301243484" lon="9.484792751535812"><ele>574.3333333333334</ele><time>2026-04-09T11:20:28Z</time></trkpt><trkpt lat="45.776963136781745" lon="9.484813590684777"><ele>571.0</ele><time>2026-04-09T11:20:29Z</time></trkpt><trkpt lat="45.77706454154442" lon="9.484862942665098"><ele>571.0</ele><time>2026-04-09T11:20:30Z</time></trkpt><trkpt lat="45.77718195739817" lon="9.484894059067528"><ele>571.0</ele><time>2026-04-09T11:20:31Z</time></trkpt><trkpt lat="45.77733650554723" lon="9.484963770189884"><ele>571.0</ele><time>2026-04-09T11:20:32Z</time></trkpt><trkpt lat="45.777512249334826" lon="9.485017851087617"><ele>571.0</ele><time>2026-04-09T11:20:33Z</time></trkpt><trkpt lat="45.77765656827747" lon="9.485063172056027"><ele>571.0</ele><time>2026-04-09T11:20:34Z</time></trkpt><trkpt lat="45.77778760650523" lon="9.485097126228933"><ele>571.0</ele><time>2026-04-09T11:20:35Z</time></trkpt><trkpt lat="45.77787831967245" lon="9.485125912042736"><ele>571.0</ele><time>2026-04-09T11:20:36Z</time></trkpt><trkpt lat="45.77794598448191" lon="9.485195395009296"><ele>573.8</ele><time>2026-04-09T11:20:37Z</time></trkpt><trkpt lat="45.77799560364597" lon="9.485308122418326"><ele>576.6</ele><time>2026-04-09T11:20:38Z</time></trkpt><trkpt lat="45.7780522915346" lon="9.485445785342035"><ele>579.4</ele><time>2026-04-09T11:20:39.001Z</time></trkpt><trkpt lat="45.77810958845347" lon="9.48558550925898"><ele>582.2</ele><time>2026-04-09T11:20:40.001Z</time></trkpt><trkpt lat="45.77818176084452" lon="9.485677348784282"><ele>585.0</ele><time>2026-04-09T11:20:41.001Z</time></trkpt><trkpt lat="45.778282011698465" lon="9.485709716744278"><ele>585.0</ele><time>2026-04-09T11:20:42.001Z</time></trkpt><trkpt lat="45.778398772229856" lon="9.485700683157571"><ele>585.0</ele><time>2026-04-09T11:20:43.001Z</time></trkpt><trkpt lat="45.77853687374827" lon="9.485685694322346"><ele>585.0</ele><time>2026-04-09T11:20:44.001Z</time></trkpt><trkpt lat="45.778656782061375" lon="9.48572127658067"><ele>585.0</ele><time>2026-04-09T11:20:45.001Z</time></trkpt><trkpt lat="45.77875186272737" lon="9.485727794909513"><ele>581.2</ele><time>2026-04-09T11:20:46.001Z</time></trkpt><trkpt lat="45.778821551242096" lon="9.48575871866675"><ele>577.4</ele><time>2026-04-09T11:20:47.001Z</time></trkpt><trkpt lat="45.77890581999095" lon="9.485682395959728"><ele>573.6</ele><time>2026-04-09T11:20:49.001Z</time></trkpt><trkpt lat="45.77885058838316" lon="9.485531477169307"><ele>569.8</ele><time>2026-04-09T11:20:50.001Z</time></trkpt><trkpt lat="45.77877090959136" lon="9.485544390568124"><ele>566.0</ele><time>2026-04-09T11:20:51.001Z</time></trkpt><trkpt lat="45.77868702464312" lon="9.48553410635781"><ele>566.0</ele><time>2026-04-09T11:20:52.001Z</time></trkpt><trkpt lat="45.778573911585205" lon="9.485532875546934"><ele>566.0</ele><time>2026-04-09T11:20:53.001Z</time></trkpt><trkpt lat="45.778451350954896" lon="9.485526333349119"><ele>566.0</ele><time>2026-04-09T11:20:54.001Z</time></trkpt><trkpt lat="45.778353160082176" lon="9.485455821554442"><ele>566.0</ele><time>2026-04-09T11:20:55.001Z</time></trkpt><trkpt lat="45.778271603509225" lon="9.485395505920383"><ele>566.0</ele><time>2026-04-09T11:20:56.001Z</time></trkpt><trkpt lat="45.778222602441254" lon="9.485334552539141"><ele>562.0</ele><time>2026-04-09T11:20:57.001Z</time></trkpt><trkpt lat="45.77821096731506" lon="9.485228192601893"><ele>558.0</ele><time>2026-04-09T11:20:58.001Z</time></trkpt><trkpt lat="45.778162783058626" lon="9.485083932177053"><ele>554.0</ele><time>2026-04-09T11:20:59.001Z</time></trkpt><trkpt lat="45.77811220648324" lon="9.484934013794806"><ele>550.0</ele><time>2026-04-09T11:21:00.001Z</time></trkpt><trkpt lat="45.77805468288965" lon="9.48479538179206"><ele>546.0</ele><time>2026-04-09T11:21:01.001Z</time></trkpt><trkpt lat="45.77798652309494" lon="9.484697288918383"><ele>546.0</ele><time>2026-04-09T11:21:02.001Z</time></trkpt><trkpt lat="45.777892557890624" lon="9.484628870993811"><ele>546.0</ele><time>2026-04-09T11:21:03.001Z</time></trkpt><trkpt lat="45.777768188877786" lon="9.484602663183573"><ele>546.0</ele><time>2026-04-09T11:21:04.001Z</time></trkpt><trkpt lat="45.77763082469756" lon="9.484552647930363"><ele>546.0</ele><time>2026-04-09T11:21:05.001Z</time></trkpt><trkpt lat="45.77747280339208" lon="9.484523101101283"><ele>541.0</ele><time>2026-04-09T11:21:06.001Z</time></trkpt><trkpt lat="45.77733351433113" lon="9.484476329858463"><ele>536.0</ele><time>2026-04-09T11:21:07.001Z</time></trkpt><trkpt lat="45.777202038829884" lon="9.48443160439528"><ele>531.0</ele><time>2026-04-09T11:21:08.001Z</time></trkpt><trkpt lat="45.77709144793215" lon="9.484376472452377"><ele>526.0</ele><time>2026-04-09T11:21:09.001Z</time></trkpt><trkpt lat="45.77701233950865" lon="9.484247660424895"><ele>526.0</ele><time>2026-04-09T11:21:10.001Z</time></trkpt><trkpt lat="45.776953833534115" lon="9.484123423647878"><ele>526.0</ele><time>2026-04-09T11:21:11.001Z</time></trkpt><trkpt lat="45.776858670199765" lon="9.483966337352953"><ele>526.0</ele><time>2026-04-09T11:21:12.001Z</time></trkpt><trkpt lat="45.77678538544668" lon="9.483779556851328"><ele>526.0</ele><time>2026-04-09T11:21:13.001Z</time></trkpt><trkpt lat="45.77669436145919" lon="9.483639989555078"><ele>522.75</ele><time>2026-04-09T11:21:14.001Z</time></trkpt><trkpt lat="45.77658909962869" lon="9.48351403363181"><ele>519.5</ele><time>2026-04-09T11:21:15.001Z</time></trkpt><trkpt lat="45.77652869918543" lon="9.483377862120483"><ele>516.25</ele><time>2026-04-09T11:21:16.001Z</time></trkpt><trkpt lat="45.7764652237552" lon="9.48324199619271"><ele>513.0</ele><time>2026-04-09T11:21:17.001Z</time></trkpt><trkpt lat="45.776409645819214" lon="9.483122872558697"><ele>513.0</ele><time>2026-04-09T11:21:18.001Z</time></trkpt><trkpt lat="45.77634956282861" lon="9.483031454748769"><ele>513.0</ele><time>2026-04-09T11:21:19.001Z</time></trkpt><trkpt lat="45.77627081920657" lon="9.482981667788835"><ele>513.0</ele><time>2026-04-09T11:21:20.001Z</time></trkpt><trkpt lat="45.77619237906784" lon="9.482998302785996"><ele>513.0</ele><time>2026-04-09T11:21:21.001Z</time></trkpt><trkpt lat="45.776113068878544" lon="9.483059221378968"><ele>513.0</ele><time>2026-04-09T11:21:22.001Z</time></trkpt><trkpt lat="45.77605346632724" lon="9.483159944290405"><ele>513.0</ele><time>2026-04-09T11:21:23.001Z</time></trkpt><trkpt lat="45.77599753700096" lon="9.483302921165619"><ele>513.75</ele><time>2026-04-09T11:21:24.001Z</time></trkpt><trkpt lat="45.77594429619203" lon="9.483468197492982"><ele>514.5</ele><time>2026-04-09T11:21:25.001Z</time></trkpt><trkpt lat="45.77591023083649" lon="9.483666373072797"><ele>515.25</ele><time>2026-04-09T11:21:26.001Z</time></trkpt><trkpt lat="45.77590316112513" lon="9.483881804301086"><ele>516.0</ele><time>2026-04-09T11:21:27.001Z</time></trkpt><trkpt lat="45.77590172254077" lon="9.484076790782039"><ele>516.0</ele><time>2026-04-09T11:21:28.001Z</time></trkpt><trkpt lat="45.77588033066766" lon="9.484263634306147"><ele>516.0</ele><time>2026-04-09T11:21:29.001Z</time></trkpt><trkpt lat="45.775858227288495" lon="9.484428159905935"><ele>516.0</ele><time>2026-04-09T11:21:30.001Z</time></trkpt><trkpt lat="45.775844861639506" lon="9.484579958354411"><ele>516.0</ele><time>2026-04-09T11:21:31.001Z</time></trkpt><trkpt lat="45.77587143515666" lon="9.484741021026954"><ele>518.0</ele><time>2026-04-09T11:21:32.001Z</time></trkpt><trkpt lat="45.77592174004367" lon="9.484909055492032"><ele>520.0</ele><time>2026-04-09T11:21:33.001Z</time></trkpt><trkpt lat="45.77598925396502" lon="9.485093399621707"><ele>522.0</ele><time>2026-04-09T11:21:34.001Z</time></trkpt><trkpt lat="45.77604112088854" lon="9.485277228831386"><ele>524.0</ele><time>2026-04-09T11:21:35.001Z</time></trkpt><trkpt lat="45.77606127694586" lon="9.485454138249564"><ele>524.0</ele><time>2026-04-09T11:21:36.002Z</time></trkpt><trkpt lat="45.77608448270974" lon="9.485579574795862"><ele>524.0</ele><time>2026-04-09T11:21:37.002Z</time></trkpt><trkpt lat="45.776026911205264" lon="9.485656318063597"><ele>524.0</ele><time>2026-04-09T11:21:40.002Z</time></trkpt><trkpt lat="45.77596864969448" lon="9.485512130656035"><ele>524.0</ele><time>2026-04-09T11:21:42.002Z</time></trkpt><trkpt lat="45.775948529093334" lon="9.485392897884825"><ele>524.0</ele><time>2026-04-09T11:21:43.002Z</time></trkpt><trkpt lat="45.77593222794915" lon="9.485263774513713"><ele>524.0</ele><time>2026-04-09T11:21:44.002Z</time></trkpt><trkpt lat="45.7759137469303" lon="9.48514067381589"><ele>524.0</ele><time>2026-04-09T11:21:45.002Z</time></trkpt><trkpt lat="45.775877730503176" lon="9.485028651755782"><ele>524.0</ele><time>2026-04-09T11:21:46.002Z</time></trkpt><trkpt lat="45.77582796969863" lon="9.48493750127463"><ele>524.0</ele><time>2026-04-09T11:21:47.002Z</time></trkpt><trkpt lat="45.775772281916154" lon="9.48485341179743"><ele>524.0</ele><time>2026-04-09T11:21:48.002Z</time></trkpt><trkpt lat="45.775710557502734" lon="9.484784618062513"><ele>524.0</ele><time>2026-04-09T11:21:49.002Z</time></trkpt><trkpt lat="45.775678076343915" lon="9.484688682381325"><ele>522.4</ele><time>2026-04-09T11:21:50.002Z</time></trkpt><trkpt lat="45.775628487480645" lon="9.484594130142131"><ele>520.8</ele><time>2026-04-09T11:21:51.002Z</time></trkpt><trkpt lat="45.77562560888937" lon="9.48447668904693"><ele>519.2</ele><time>2026-04-09T11:21:52.002Z</time></trkpt><trkpt lat="45.775606095929994" lon="9.484349763343198"><ele>517.6</ele><time>2026-04-09T11:21:52.999Z</time></trkpt><trkpt lat="45.775587157916306" lon="9.484191871405578"><ele>516.0</ele><time>2026-04-09T11:21:53.999Z</time></trkpt><trkpt lat="45.775574471420356" lon="9.484024576349514"><ele>516.0</ele><time>2026-04-09T11:21:54.999Z</time></trkpt><trkpt lat="45.77556250660108" lon="9.483859259619908"><ele>516.0</ele><time>2026-04-09T11:21:55.999Z</time></trkpt><trkpt lat="45.775521239219884" lon="9.483715335690805"><ele>516.0</ele><time>2026-04-09T11:21:56.999Z</time></trkpt><trkpt lat="45.77550172103672" lon="9.483570362588848"><ele>516.0</ele><time>2026-04-09T11:21:57.999Z</time></trkpt><trkpt lat="45.775429639364845" lon="9.483460527981435"><ele>516.0</ele><time>2026-04-09T11:21:58.999Z</time></trkpt><trkpt lat="45.77535676507052" lon="9.48332272573144"><ele>513.75</ele><time>2026-04-09T11:21:59.999Z</time></trkpt><trkpt lat="45.775293881574676" lon="9.4831700269495"><ele>511.5</ele><time>2026-04-09T11:22:00.999Z</time></trkpt><trkpt lat="45.775235420746775" lon="9.483018862949935"><ele>509.25</ele><time>2026-04-09T11:22:01.999Z</time></trkpt><trkpt lat="45.7752092407661" lon="9.48286103316149"><ele>507.0</ele><time>2026-04-09T11:22:02.999Z</time></trkpt><trkpt lat="45.77515977517668" lon="9.482747123905117"><ele>503.0</ele><time>2026-04-09T11:22:03.999Z</time></trkpt><trkpt lat="45.775093456174595" lon="9.482691248993206"><ele>499.0</ele><time>2026-04-09T11:22:04.999Z</time></trkpt><trkpt lat="45.77502974105043" lon="9.48269014203136"><ele>495.0</ele><time>2026-04-09T11:22:05.999Z</time></trkpt><trkpt lat="45.77493609856692" lon="9.482799045196682"><ele>491.0</ele><time>2026-04-09T11:22:07.999Z</time></trkpt><trkpt lat="45.77491293906058" lon="9.482889996457855"><ele>487.0</ele><time>2026-04-09T11:22:09Z</time></trkpt><trkpt lat="45.77491211581875" lon="9.48300371303107"><ele>483.0</ele><time>2026-04-09T11:22:10Z</time></trkpt><trkpt lat="45.7749085936232" lon="9.483095871238813"><ele>483.0</ele><time>2026-04-09T11:22:11Z</time></trkpt><trkpt lat="45.77489774500302" lon="9.483191245139757"><ele>483.0</ele><time>2026-04-09T11:22:12Z</time></trkpt><trkpt lat="45.77486513539933" lon="9.483269066416916"><ele>483.0</ele><time>2026-04-09T11:22:13Z</time></trkpt><trkpt lat="45.77475109784715" lon="9.48331322864907"><ele>483.0</ele><time>2026-04-09T11:22:15Z</time></trkpt><trkpt lat="45.774682188511505" lon="9.483250252908473"><ele>483.0</ele><time>2026-04-09T11:22:16Z</time></trkpt><trkpt lat="45.77459776117253" lon="9.483206378255943"><ele>483.0</ele><time>2026-04-09T11:22:17Z</time></trkpt><trkpt lat="45.774539112322856" lon="9.483108864546814"><ele>483.0</ele><time>2026-04-09T11:22:18Z</time></trkpt><trkpt lat="45.7744906316674" lon="9.483016719305132"><ele>483.0</ele><time>2026-04-09T11:22:19Z</time></trkpt><trkpt lat="45.77446401480321" lon="9.482908411012692"><ele>483.0</ele><time>2026-04-09T11:22:20Z</time></trkpt><trkpt lat="45.77444126066578" lon="9.482783817947684"><ele>483.0</ele><time>2026-04-09T11:22:21Z</time></trkpt><trkpt lat="45.77441123948362" lon="9.482675329325584"><ele>483.0</ele><time>2026-04-09T11:22:22Z</time></trkpt><trkpt lat="45.77439082313576" lon="9.482557283879116"><ele>483.0</ele><time>2026-04-09T11:22:28Z</time></trkpt><trkpt lat="45.774369092234245" lon="9.48245012065451"><ele>482.0</ele><time>2026-04-09T11:22:31Z</time></trkpt><trkpt lat="45.77435793286849" lon="9.482350645941384"><ele>481.0</ele><time>2026-04-09T11:22:33Z</time></trkpt><trkpt lat="45.77436276167437" lon="9.48222676962005"><ele>480.0</ele><time>2026-04-09T11:22:35Z</time></trkpt><trkpt lat="45.7743975573578" lon="9.48207628475747"><ele>479.0</ele><time>2026-04-09T11:22:37Z</time></trkpt><trkpt lat="45.77442790556834" lon="9.481927523780115"><ele>478.0</ele><time>2026-04-09T11:22:39Z</time></trkpt><trkpt lat="45.77446745292018" lon="9.481853526771589"><ele>477.0</ele><time>2026-04-09T11:22:40Z</time></trkpt><trkpt lat="45.774517556439406" lon="9.481697578371932"><ele>475.20000000000005</ele><time>2026-04-09T11:22:42Z</time></trkpt><trkpt lat="45.77451413608805" lon="9.481514470047403"><ele>473.40000000000003</ele><time>2026-04-09T11:22:44Z</time></trkpt><trkpt lat="45.77448970931799" lon="9.481398695618138"><ele>471.59999999999997</ele><time>2026-04-09T11:22:45.001Z</time></trkpt><trkpt lat="45.77442015570454" lon="9.481330460498839"><ele>469.79999999999995</ele><time>2026-04-09T11:22:46.001Z</time></trkpt><trkpt lat="45.774373073257294" lon="9.481237816317943"><ele>468.0</ele><time>2026-04-09T11:22:47.001Z</time></trkpt><trkpt lat="45.774311021461976" lon="9.48116547588052"><ele>465.5</ele><time>2026-04-09T11:22:48.001Z</time></trkpt><trkpt lat="45.77425227072068" lon="9.48109193100118"><ele>463.0</ele><time>2026-04-09T11:22:49.001Z</time></trkpt><trkpt lat="45.77419582387538" lon="9.481018725520666"><ele>460.5</ele><time>2026-04-09T11:22:50.001Z</time></trkpt><trkpt lat="45.77414313624882" lon="9.480945843080828"><ele>458.0</ele><time>2026-04-09T11:22:51.001Z</time></trkpt><trkpt lat="45.774095722998275" lon="9.48086982594467"><ele>455.5</ele><time>2026-04-09T11:22:52.001Z</time></trkpt><trkpt lat="45.77406163187569" lon="9.480792655145146"><ele>453.0</ele><time>2026-04-09T11:22:53.001Z</time></trkpt><trkpt lat="45.77400802889038" lon="9.480655892079236"><ele>453.0</ele><time>2026-04-09T11:22:55.001Z</time></trkpt><trkpt lat="45.774011843991325" lon="9.48050996693908"><ele>453.0</ele><time>2026-04-09T11:22:57.001Z</time></trkpt><trkpt lat="45.7740721793656" lon="9.480400044839438"><ele>453.0</ele><time>2026-04-09T11:22:59.001Z</time></trkpt><trkpt lat="45.77413415991468" lon="9.480382317683267"><ele>453.0</ele><time>2026-04-09T11:23:00.001Z</time></trkpt><trkpt lat="45.77419851458568" lon="9.480369340077807"><ele>453.0</ele><time>2026-04-09T11:23:01.001Z</time></trkpt><trkpt lat="45.77427212490178" lon="9.480365804709638"><ele>453.0</ele><time>2026-04-09T11:23:02.001Z</time></trkpt><trkpt lat="45.77434340156847" lon="9.480365047726677"><ele>450.2</ele><time>2026-04-09T11:23:03.001Z</time></trkpt><trkpt lat="45.77440668822008" lon="9.480369809908485"><ele>447.4</ele><time>2026-04-09T11:23:04.001Z</time></trkpt><trkpt lat="45.77452749767797" lon="9.480393385560683"><ele>444.59999999999997</ele><time>2026-04-09T11:23:06.001Z</time></trkpt><trkpt lat="45.77463006219886" lon="9.480394363692383"><ele>441.79999999999995</ele><time>2026-04-09T11:23:08.001Z</time></trkpt><trkpt lat="45.7746955875192" lon="9.480389759659255"><ele>439.0</ele><time>2026-04-09T11:23:09.001Z</time></trkpt><trkpt lat="45.774811986156244" lon="9.480370613299963"><ele>439.0</ele><time>2026-04-09T11:23:11.001Z</time></trkpt><trkpt lat="45.77491826937429" lon="9.4803952953843"><ele>439.0</ele><time>2026-04-09T11:23:13.001Z</time></trkpt><trkpt lat="45.77500819073657" lon="9.480507779790289"><ele>439.0</ele><time>2026-04-09T11:23:15.001Z</time></trkpt><trkpt lat="45.775075302281024" lon="9.48053774487167"><ele>439.0</ele><time>2026-04-09T11:23:16.001Z</time></trkpt><trkpt lat="45.77519695442192" lon="9.480570368044093"><ele>439.0</ele><time>2026-04-09T11:23:18.001Z</time></trkpt><trkpt lat="45.775268301603944" lon="9.480561563375966"><ele>440.0</ele><time>2026-04-09T11:23:19.001Z</time></trkpt><trkpt lat="45.775339959811376" lon="9.480535755451951"><ele>441.0</ele><time>2026-04-09T11:23:20.001Z</time></trkpt><trkpt lat="45.77540365251812" lon="9.48051338156174"><ele>442.0</ele><time>2026-04-09T11:23:21.001Z</time></trkpt><trkpt lat="45.77547457968584" lon="9.480483852650659"><ele>443.0</ele><time>2026-04-09T11:23:22.001Z</time></trkpt><trkpt lat="45.7755534627159" lon="9.480472635493228"><ele>444.0</ele><time>2026-04-09T11:23:23.001Z</time></trkpt><trkpt lat="45.775629692761946" lon="9.480497039965973"><ele>445.0</ele><time>2026-04-09T11:23:24.001Z</time></trkpt><trkpt lat="45.77569984651485" lon="9.48051948998454"><ele>446.0</ele><time>2026-04-09T11:23:25.001Z</time></trkpt><trkpt lat="45.77576291477341" lon="9.48053171832607"><ele>446.0</ele><time>2026-04-09T11:23:26.001Z</time></trkpt><trkpt lat="45.775824710461414" lon="9.480557344318083"><ele>446.0</ele><time>2026-04-09T11:23:27.001Z</time></trkpt><trkpt lat="45.77592192158721" lon="9.480598852892241"><ele>446.0</ele><time>2026-04-09T11:23:29.001Z</time></trkpt><trkpt lat="45.775994097486745" lon="9.480493745765854"><ele>446.0</ele><time>2026-04-09T11:23:31.001Z</time></trkpt><trkpt lat="45.77588286761934" lon="9.48039649732271"><ele>446.0</ele><time>2026-04-09T11:23:33.001Z</time></trkpt><trkpt lat="45.775804124081226" lon="9.480388848242246"><ele>444.49999999999994</ele><time>2026-04-09T11:23:34.001Z</time></trkpt><trkpt lat="45.775727480322175" lon="9.48035765772267"><ele>443.0</ele><time>2026-04-09T11:23:35.001Z</time></trkpt><trkpt lat="45.77565500780004" lon="9.48032031224872"><ele>441.5</ele><time>2026-04-09T11:23:36.002Z</time></trkpt><trkpt lat="45.77558600772007" lon="9.480278215156982"><ele>440.0</ele><time>2026-04-09T11:23:37.002Z</time></trkpt><trkpt lat="45.77552861326373" lon="9.480175594591447"><ele>438.49999999999994</ele><time>2026-04-09T11:23:38.002Z</time></trkpt><trkpt lat="45.77549301274362" lon="9.480054522433008"><ele>437.0</ele><time>2026-04-09T11:23:39.002Z</time></trkpt><trkpt lat="45.775511581403016" lon="9.479916924953235"><ele>437.0</ele><time>2026-04-09T11:23:40.002Z</time></trkpt><trkpt lat="45.775484268303536" lon="9.479787040229901"><ele>437.00000000000006</ele><time>2026-04-09T11:23:41.002Z</time></trkpt><trkpt lat="45.775471418851716" lon="9.479653786211548"><ele>437.00000000000006</ele><time>2026-04-09T11:23:42.002Z</time></trkpt><trkpt lat="45.775446643290984" lon="9.479524369424585"><ele>437.0</ele><time>2026-04-09T11:23:43.002Z</time></trkpt><trkpt lat="45.7754065460763" lon="9.47939625284132"><ele>437.0</ele><time>2026-04-09T11:23:44.002Z</time></trkpt><trkpt lat="45.775353572049006" lon="9.479278481129294"><ele>436.0</ele><time>2026-04-09T11:23:45.002Z</time></trkpt><trkpt lat="45.77529172362616" lon="9.479171640854734"><ele>435.00000000000006</ele><time>2026-04-09T11:23:46.002Z</time></trkpt><trkpt lat="45.775229722808085" lon="9.479075685221538"><ele>434.00000000000006</ele><time>2026-04-09T11:23:47.002Z</time></trkpt><trkpt lat="45.77517692827732" lon="9.478963277885722"><ele>433.0</ele><time>2026-04-09T11:23:48.002Z</time></trkpt><trkpt lat="45.77511441799604" lon="9.47885879641465"><ele>432.0</ele><time>2026-04-09T11:23:49.002Z</time></trkpt><trkpt lat="45.77505033840732" lon="9.478751691955555"><ele>434.0</ele><time>2026-04-09T11:23:50.002Z</time></trkpt><trkpt lat="45.77497924808722" lon="9.478655939696687"><ele>436.00000000000006</ele><time>2026-04-09T11:23:51.002Z</time></trkpt><trkpt lat="45.77491650798322" lon="9.4785400853469"><ele>438.00000000000006</ele><time>2026-04-09T11:23:52.002Z</time></trkpt><trkpt lat="45.77484476185667" lon="9.478423764281398"><ele>440.0</ele><time>2026-04-09T11:23:53.002Z</time></trkpt><trkpt lat="45.77477632771658" lon="9.478301330195134"><ele>442.0</ele><time>2026-04-09T11:23:54.002Z</time></trkpt><trkpt lat="45.774700132098715" lon="9.478187963653172"><ele>442.0</ele><time>2026-04-09T11:23:55.002Z</time></trkpt><trkpt lat="45.77462158954222" lon="9.478071887520388"><ele>442.00000000000006</ele><time>2026-04-09T11:23:56.002Z</time></trkpt><trkpt lat="45.774524175625146" lon="9.477991000056358"><ele>442.00000000000006</ele><time>2026-04-09T11:23:57.002Z</time></trkpt><trkpt lat="45.77443645966442" lon="9.477910833210766"><ele>442.0</ele><time>2026-04-09T11:23:58.002Z</time></trkpt><trkpt lat="45.77436089721742" lon="9.47783832969483"><ele>442.0</ele><time>2026-04-09T11:23:58.999Z</time></trkpt><trkpt lat="45.77429469504851" lon="9.477779101803756"><ele>442.20000000000005</ele><time>2026-04-09T11:23:59.999Z</time></trkpt><trkpt lat="45.77422413168019" lon="9.477722375152917"><ele>442.40000000000003</ele><time>2026-04-09T11:24:00.999Z</time></trkpt><trkpt lat="45.77414291578483" lon="9.477658960172919"><ele>442.59999999999997</ele><time>2026-04-09T11:24:01.999Z</time></trkpt><trkpt lat="45.77405499971887" lon="9.47759656360807"><ele>442.79999999999995</ele><time>2026-04-09T11:24:02.999Z</time></trkpt><trkpt lat="45.77397729317791" lon="9.477516306875495"><ele>443.0</ele><time>2026-04-09T11:24:03.999Z</time></trkpt><trkpt lat="45.77391214677702" lon="9.477430230183147"><ele>442.99999999999994</ele><time>2026-04-09T11:24:04.999Z</time></trkpt><trkpt lat="45.77383867284" lon="9.47734213029025"><ele>443.0</ele><time>2026-04-09T11:24:05.999Z</time></trkpt><trkpt lat="45.773789676094125" lon="9.477226356644234"><ele>443.0</ele><time>2026-04-09T11:24:06.999Z</time></trkpt><trkpt lat="45.773738633567184" lon="9.477131974426158"><ele>443.0</ele><time>2026-04-09T11:24:07.999Z</time></trkpt><trkpt lat="45.77369160962458" lon="9.47704722436668"><ele>442.99999999999994</ele><time>2026-04-09T11:24:08.999Z</time></trkpt><trkpt lat="45.77363080612984" lon="9.476952428775084"><ele>443.0</ele><time>2026-04-09T11:24:09.999Z</time></trkpt><trkpt lat="45.773567034919175" lon="9.476878415813966"><ele>440.16666666666663</ele><time>2026-04-09T11:24:10.999Z</time></trkpt><trkpt lat="45.77351531364549" lon="9.47679244937175"><ele>437.3333333333333</ele><time>2026-04-09T11:24:11.999Z</time></trkpt><trkpt lat="45.77348714893343" lon="9.476695558066227"><ele>434.5</ele><time>2026-04-09T11:24:12.999Z</time></trkpt><trkpt lat="45.7734817965361" lon="9.476600055484411"><ele>431.66666666666663</ele><time>2026-04-09T11:24:13.999Z</time></trkpt><trkpt lat="45.773494993136424" lon="9.476492474433625"><ele>428.8333333333333</ele><time>2026-04-09T11:24:14.999Z</time></trkpt><trkpt lat="45.773500361306176" lon="9.476352140322888"><ele>426.0</ele><time>2026-04-09T11:24:15.999Z</time></trkpt><trkpt lat="45.77352582729568" lon="9.476197091678616"><ele>437.75</ele><time>2026-04-09T11:24:16.999Z</time></trkpt><trkpt lat="45.77355311334102" lon="9.476017243279564"><ele>449.5</ele><time>2026-04-09T11:24:17.999Z</time></trkpt><trkpt lat="45.773595651833695" lon="9.475850158945272"><ele>461.25</ele><time>2026-04-09T11:24:18.999Z</time></trkpt><trkpt lat="45.77361988298938" lon="9.475678988689328"><ele>473.0</ele><time>2026-04-09T11:24:19.999Z</time></trkpt><trkpt lat="45.77364233537189" lon="9.475506840705561"><ele>469.5</ele><time>2026-04-09T11:24:20.999Z</time></trkpt><trkpt lat="45.77366434768075" lon="9.475336359427635"><ele>466.0</ele><time>2026-04-09T11:24:21.999Z</time></trkpt><trkpt lat="45.77368587723144" lon="9.475169713244535"><ele>462.5</ele><time>2026-04-09T11:24:22.999Z</time></trkpt><trkpt lat="45.77370687832531" lon="9.475009890804163"><ele>459.0</ele><time>2026-04-09T11:24:23.999Z</time></trkpt><trkpt lat="45.77372713819746" lon="9.474855709166015"><ele>459.0</ele><time>2026-04-09T11:24:24.999Z</time></trkpt><trkpt lat="45.77374769633353" lon="9.474699641730242"><ele>459.0</ele><time>2026-04-09T11:24:25.999Z</time></trkpt><trkpt lat="45.7737704581178" lon="9.474538045481362"><ele>459.0</ele><time>2026-04-09T11:24:27Z</time></trkpt><trkpt lat="45.77380062641398" lon="9.474381439519034"><ele>459.0</ele><time>2026-04-09T11:24:28Z</time></trkpt><trkpt lat="45.77383531876804" lon="9.47424609822696"><ele>459.0</ele><time>2026-04-09T11:24:29Z</time></trkpt><trkpt lat="45.773862287815845" lon="9.474116080048553"><ele>454.2</ele><time>2026-04-09T11:24:30Z</time></trkpt><trkpt lat="45.77391837828154" lon="9.474009758965098"><ele>449.4</ele><time>2026-04-09T11:24:31Z</time></trkpt><trkpt lat="45.7739874253241" lon="9.473917832577474"><ele>444.6</ele><time>2026-04-09T11:24:32Z</time></trkpt><trkpt lat="45.77407217415439" lon="9.473825286952065"><ele>439.8</ele><time>2026-04-09T11:24:33Z</time></trkpt><trkpt lat="45.77414536495114" lon="9.473737369026713"><ele>435.0</ele><time>2026-04-09T11:24:34Z</time></trkpt><trkpt lat="45.77422262309561" lon="9.473654563687221"><ele>432.2</ele><time>2026-04-09T11:24:35Z</time></trkpt><trkpt lat="45.774300593212786" lon="9.47357165697748"><ele>429.4</ele><time>2026-04-09T11:24:36Z</time></trkpt><trkpt lat="45.77438545530006" lon="9.473478099873004"><ele>426.6</ele><time>2026-04-09T11:24:37Z</time></trkpt><trkpt lat="45.77444546827959" lon="9.473344253005587"><ele>423.8</ele><time>2026-04-09T11:24:38Z</time></trkpt><trkpt lat="45.774504815044864" lon="9.473229028542097"><ele>421.0</ele><time>2026-04-09T11:24:39Z</time></trkpt><trkpt lat="45.77456687251834" lon="9.473142611540883"><ele>421.20000000000005</ele><time>2026-04-09T11:24:40Z</time></trkpt><trkpt lat="45.774654400921285" lon="9.473070671021432"><ele>421.40000000000003</ele><time>2026-04-09T11:24:41Z</time></trkpt><trkpt lat="45.774758115827574" lon="9.473025027685031"><ele>421.6</ele><time>2026-04-09T11:24:42Z</time></trkpt><trkpt lat="45.77487054684776" lon="9.473004758531657"><ele>421.8</ele><time>2026-04-09T11:24:43Z</time></trkpt><trkpt lat="45.774976152961486" lon="9.472959602615493"><ele>422.0</ele><time>2026-04-09T11:24:44Z</time></trkpt><trkpt lat="45.775061273023844" lon="9.472853576446841"><ele>422.0</ele><time>2026-04-09T11:24:45Z</time></trkpt><trkpt lat="45.77513080223673" lon="9.472704389367436"><ele>422.0</ele><time>2026-04-09T11:24:46Z</time></trkpt><trkpt lat="45.775200055778754" lon="9.472547861567277"><ele>422.0</ele><time>2026-04-09T11:24:47Z</time></trkpt><trkpt lat="45.775277145473275" lon="9.47239866726455"><ele>422.0</ele><time>2026-04-09T11:24:48Z</time></trkpt><trkpt lat="45.775361558019405" lon="9.472278671303046"><ele>425.0</ele><time>2026-04-09T11:24:49Z</time></trkpt><trkpt lat="45.77542686020924" lon="9.472149008956908"><ele>428.0</ele><time>2026-04-09T11:24:50Z</time></trkpt><trkpt lat="45.775489180992544" lon="9.472027260093782"><ele>431.00000000000006</ele><time>2026-04-09T11:24:51Z</time></trkpt><trkpt lat="45.77554942159501" lon="9.471901932286706"><ele>434.0</ele><time>2026-04-09T11:24:52Z</time></trkpt><trkpt lat="45.77560210043781" lon="9.471771204840222"><ele>437.0</ele><time>2026-04-09T11:24:53Z</time></trkpt><trkpt lat="45.775645769070536" lon="9.47164274403428"><ele>437.0</ele><time>2026-04-09T11:24:54Z</time></trkpt><trkpt lat="45.77568686380353" lon="9.471510245516114"><ele>437.00000000000006</ele><time>2026-04-09T11:24:55Z</time></trkpt><trkpt lat="45.77573414124248" lon="9.471392892117528"><ele>437.00000000000006</ele><time>2026-04-09T11:24:56Z</time></trkpt><trkpt lat="45.77577719797319" lon="9.471263230100828"><ele>437.0</ele><time>2026-04-09T11:24:57Z</time></trkpt><trkpt lat="45.77580902524794" lon="9.471120604929828"><ele>437.0</ele><time>2026-04-09T11:24:58Z</time></trkpt><trkpt lat="45.775834689454314" lon="9.470967524936908"><ele>432.0</ele><time>2026-04-09T11:24:59Z</time></trkpt><trkpt lat="45.7758616156427" lon="9.470809431662074"><ele>427.0</ele><time>2026-04-09T11:25:00Z</time></trkpt><trkpt lat="45.77588791407136" lon="9.470651584117457"><ele>422.0</ele><time>2026-04-09T11:25:01Z</time></trkpt><trkpt lat="45.77590588270649" lon="9.470451077106217"><ele>417.0</ele><time>2026-04-09T11:25:02Z</time></trkpt><trkpt lat="45.7759303495998" lon="9.470233303246012"><ele>415.33333333333337</ele><time>2026-04-09T11:25:03.001Z</time></trkpt><trkpt lat="45.775967512428956" lon="9.469999124245243"><ele>413.6666666666667</ele><time>2026-04-09T11:25:04.001Z</time></trkpt><trkpt lat="45.77599807711621" lon="9.46974385685144"><ele>412.0</ele><time>2026-04-09T11:25:05.001Z</time></trkpt><trkpt lat="45.77603917205907" lon="9.469518158953163"><ele>415.33333333333337</ele><time>2026-04-09T11:25:06.001Z</time></trkpt><trkpt lat="45.776063738485085" lon="9.469290837225413"><ele>418.66666666666663</ele><time>2026-04-09T11:25:07.001Z</time></trkpt><trkpt lat="45.776097517429086" lon="9.469050037600862"><ele>422.0</ele><time>2026-04-09T11:25:08.001Z</time></trkpt><trkpt lat="45.77614376455451" lon="9.468773602494448"><ele>422.0</ele><time>2026-04-09T11:25:09.001Z</time></trkpt><trkpt lat="45.7761874629788" lon="9.468512893229075"><ele>422.0</ele><time>2026-04-09T11:25:10.001Z</time></trkpt><trkpt lat="45.77622578017251" lon="9.468272255593504"><ele>422.0</ele><time>2026-04-09T11:25:11.001Z</time></trkpt><trkpt lat="45.776264082339566" lon="9.468047261077167"><ele>419.75</ele><time>2026-04-09T11:25:12.001Z</time></trkpt><trkpt lat="45.776293866746606" lon="9.46783308462042"><ele>417.5</ele><time>2026-04-09T11:25:13.001Z</time></trkpt><trkpt lat="45.776327394630215" lon="9.467623555372054"><ele>415.25</ele><time>2026-04-09T11:25:14.001Z</time></trkpt><trkpt lat="45.77634887265617" lon="9.467442214761519"><ele>413.0</ele><time>2026-04-09T11:25:15.001Z</time></trkpt><trkpt lat="45.77637098697503" lon="9.467258480893236"><ele>411.75</ele><time>2026-04-09T11:25:16.001Z</time></trkpt><trkpt lat="45.77639004416399" lon="9.467080470007657"><ele>410.5</ele><time>2026-04-09T11:25:17.001Z</time></trkpt><trkpt lat="45.776395135528766" lon="9.466915073653325"><ele>409.25</ele><time>2026-04-09T11:25:18.001Z</time></trkpt><trkpt lat="45.77638463023198" lon="9.466755078796707"><ele>408.0</ele><time>2026-04-09T11:25:19.001Z</time></trkpt><trkpt lat="45.776349932739514" lon="9.466618564275732"><ele>408.0</ele><time>2026-04-09T11:25:20.001Z</time></trkpt><trkpt lat="45.7763071791069" lon="9.466510585755895"><ele>408.0</ele><time>2026-04-09T11:25:21.001Z</time></trkpt><trkpt lat="45.776240659896196" lon="9.466464825788849"><ele>408.0</ele><time>2026-04-09T11:25:22.001Z</time></trkpt><trkpt lat="45.776191565750636" lon="9.466378313318916"><ele>408.0</ele><time>2026-04-09T11:25:24.001Z</time></trkpt><trkpt lat="45.77631626489069" lon="9.466196837116286"><ele>408.0</ele><time>2026-04-09T11:25:25.001Z</time></trkpt><trkpt lat="45.7763768925563" lon="9.466085438482308"><ele>407.75</ele><time>2026-04-09T11:25:26.001Z</time></trkpt><trkpt lat="45.776453609188806" lon="9.46594147964126"><ele>407.5</ele><time>2026-04-09T11:25:27.001Z</time></trkpt><trkpt lat="45.776526013872456" lon="9.46579299407679"><ele>407.25</ele><time>2026-04-09T11:25:28.001Z</time></trkpt><trkpt lat="45.77659200924196" lon="9.465652839374927"><ele>407.0</ele><time>2026-04-09T11:25:29.001Z</time></trkpt><trkpt lat="45.776662359894125" lon="9.465510065919982"><ele>407.0</ele><time>2026-04-09T11:25:30.001Z</time></trkpt><trkpt lat="45.77673234189077" lon="9.465362164199323"><ele>407.0</ele><time>2026-04-09T11:25:31.001Z</time></trkpt><trkpt lat="45.776800633212915" lon="9.465187638060543"><ele>407.0</ele><time>2026-04-09T11:25:32.001Z</time></trkpt><trkpt lat="45.77685926473196" lon="9.465012246415858"><ele>407.0</ele><time>2026-04-09T11:25:33.001Z</time></trkpt><trkpt lat="45.776919126332494" lon="9.464852144488658"><ele>406.5</ele><time>2026-04-09T11:25:34.001Z</time></trkpt><trkpt lat="45.77698200633165" lon="9.464713760395448"><ele>406.0</ele><time>2026-04-09T11:25:35.001Z</time></trkpt><trkpt lat="45.77707013360222" lon="9.464563661507272"><ele>405.5</ele><time>2026-04-09T11:25:36.001Z</time></trkpt><trkpt lat="45.777179449020906" lon="9.46440521851489"><ele>405.0</ele><time>2026-04-09T11:25:37.001Z</time></trkpt><trkpt lat="45.7772784779349" lon="9.46425812286392"><ele>405.0</ele><time>2026-04-09T11:25:38.001Z</time></trkpt><trkpt lat="45.77736704366784" lon="9.464112838969369"><ele>405.0</ele><time>2026-04-09T11:25:39.001Z</time></trkpt><trkpt lat="45.77745527355886" lon="9.463958759560915"><ele>405.0</ele><time>2026-04-09T11:25:40.001Z</time></trkpt><trkpt lat="45.77754573597354" lon="9.463799575200369"><ele>405.0</ele><time>2026-04-09T11:25:41.001Z</time></trkpt><trkpt lat="45.77763179395899" lon="9.46363549331556"><ele>406.25</ele><time>2026-04-09T11:25:42.001Z</time></trkpt><trkpt lat="45.77770637068281" lon="9.463463145878924"><ele>407.5</ele><time>2026-04-09T11:25:43.001Z</time></trkpt><trkpt lat="45.77777491255834" lon="9.463275830216515"><ele>408.75</ele><time>2026-04-09T11:25:44.001Z</time></trkpt><trkpt lat="45.77783508204414" lon="9.463083741225995"><ele>410.0</ele><time>2026-04-09T11:25:45.002Z</time></trkpt><trkpt lat="45.77788759990158" lon="9.462882993257404"><ele>410.0</ele><time>2026-04-09T11:25:46.002Z</time></trkpt><trkpt lat="45.777939991351424" lon="9.462681078365605"><ele>410.0</ele><time>2026-04-09T11:25:47.002Z</time></trkpt><trkpt lat="45.77798573113536" lon="9.462494101021658"><ele>410.0</ele><time>2026-04-09T11:25:48.002Z</time></trkpt><trkpt lat="45.77803395916673" lon="9.462318425821762"><ele>410.0</ele><time>2026-04-09T11:25:49.002Z</time></trkpt><trkpt lat="45.778099349763416" lon="9.462176354485663"><ele>408.5</ele><time>2026-04-09T11:25:50.002Z</time></trkpt><trkpt lat="45.778158705027174" lon="9.462023546503113"><ele>407.0</ele><time>2026-04-09T11:25:51.002Z</time></trkpt><trkpt lat="45.77820930943206" lon="9.461863291397197"><ele>405.5</ele><time>2026-04-09T11:25:52.002Z</time></trkpt><trkpt lat="45.778269556885824" lon="9.461685645774322"><ele>404.0</ele><time>2026-04-09T11:25:53.002Z</time></trkpt><trkpt lat="45.7783268841184" lon="9.46149017045547"><ele>402.0</ele><time>2026-04-09T11:25:54.002Z</time></trkpt><trkpt lat="45.77836573466038" lon="9.46126800008764"><ele>400.0</ele><time>2026-04-09T11:25:55.002Z</time></trkpt><trkpt lat="45.77840790923875" lon="9.461037248786367"><ele>398.0</ele><time>2026-04-09T11:25:56.002Z</time></trkpt><trkpt lat="45.77845343780464" lon="9.460803456146296"><ele>398.0</ele><time>2026-04-09T11:25:57.002Z</time></trkpt><trkpt lat="45.778490600145425" lon="9.460581172930885"><ele>398.0</ele><time>2026-04-09T11:25:58.002Z</time></trkpt><trkpt lat="45.778526767589256" lon="9.460362256249224"><ele>398.0</ele><time>2026-04-09T11:25:59.002Z</time></trkpt><trkpt lat="45.77856711176037" lon="9.460151265899832"><ele>395.75</ele><time>2026-04-09T11:26:00.002Z</time></trkpt><trkpt lat="45.77860966096027" lon="9.45995312904811"><ele>393.5</ele><time>2026-04-09T11:26:01.002Z</time></trkpt><trkpt lat="45.77867788791324" lon="9.459788909874208"><ele>391.25</ele><time>2026-04-09T11:26:02.002Z</time></trkpt><trkpt lat="45.77875620170899" lon="9.45964277855664"><ele>389.0</ele><time>2026-04-09T11:26:03.002Z</time></trkpt><trkpt lat="45.7788492844815" lon="9.459532703483362"><ele>388.25</ele><time>2026-04-09T11:26:04.002Z</time></trkpt><trkpt lat="45.77896368351586" lon="9.459410365019894"><ele>387.5</ele><time>2026-04-09T11:26:04.998Z</time></trkpt><trkpt lat="45.77908634276329" lon="9.459280670518606"><ele>386.75</ele><time>2026-04-09T11:26:05.998Z</time></trkpt><trkpt lat="45.77919927166684" lon="9.459130272991974"><ele>386.0</ele><time>2026-04-09T11:26:06.998Z</time></trkpt><trkpt lat="45.779313051321395" lon="9.458985376125803"><ele>387.0</ele><time>2026-04-09T11:26:07.998Z</time></trkpt><trkpt lat="45.77940443191224" lon="9.458837661042297"><ele>388.0</ele><time>2026-04-09T11:26:08.998Z</time></trkpt><trkpt lat="45.77950742200594" lon="9.45869512099942"><ele>389.0</ele><time>2026-04-09T11:26:09.998Z</time></trkpt><trkpt lat="45.7795749876951" lon="9.458520658034761"><ele>390.0</ele><time>2026-04-09T11:26:10.998Z</time></trkpt><trkpt lat="45.77964924796807" lon="9.458365730520375"><ele>386.75</ele><time>2026-04-09T11:26:11.998Z</time></trkpt><trkpt lat="45.77972881204997" lon="9.458196499002048"><ele>383.5</ele><time>2026-04-09T11:26:12.998Z</time></trkpt><trkpt lat="45.77980504100852" lon="9.458033722795186"><ele>380.25</ele><time>2026-04-09T11:26:13.998Z</time></trkpt><trkpt lat="45.77988044814563" lon="9.457872004686456"><ele>377.0</ele><time>2026-04-09T11:26:14.998Z</time></trkpt><trkpt lat="45.77995725320415" lon="9.457711840022515"><ele>376.0</ele><time>2026-04-09T11:26:15.998Z</time></trkpt><trkpt lat="45.78003297666398" lon="9.457563287908393"><ele>375.0</ele><time>2026-04-09T11:26:16.999Z</time></trkpt><trkpt lat="45.780101269592095" lon="9.4574186510195"><ele>374.0</ele><time>2026-04-09T11:26:17.999Z</time></trkpt><trkpt lat="45.78016799489828" lon="9.457272775242327"><ele>373.0</ele><time>2026-04-09T11:26:18.999Z</time></trkpt><trkpt lat="45.78022370590487" lon="9.45710786624671"><ele>373.0</ele><time>2026-04-09T11:26:19.999Z</time></trkpt><trkpt lat="45.780268224105555" lon="9.4569219729229"><ele>373.0</ele><time>2026-04-09T11:26:20.999Z</time></trkpt><trkpt lat="45.78028801197127" lon="9.456725363244583"><ele>373.0</ele><time>2026-04-09T11:26:21.999Z</time></trkpt><trkpt lat="45.78029210092564" lon="9.456529995665662"><ele>373.0</ele><time>2026-04-09T11:26:22.999Z</time></trkpt><trkpt lat="45.78029836228974" lon="9.456336795532685"><ele>372.0</ele><time>2026-04-09T11:26:23.999Z</time></trkpt><trkpt lat="45.78031020265593" lon="9.456156260906056"><ele>371.0</ele><time>2026-04-09T11:26:24.999Z</time></trkpt><trkpt lat="45.78032543356376" lon="9.455999362822507"><ele>370.0</ele><time>2026-04-09T11:26:25.999Z</time></trkpt><trkpt lat="45.78034032244759" lon="9.455870842480865"><ele>369.0</ele><time>2026-04-09T11:26:26.999Z</time></trkpt><trkpt lat="45.78035461207279" lon="9.455742659768616"><ele>368.0</ele><time>2026-04-09T11:26:27.999Z</time></trkpt><trkpt lat="45.78036878191652" lon="9.455647002914764"><ele>368.0</ele><time>2026-04-09T11:26:28.999Z</time></trkpt><trkpt lat="45.780407309268384" lon="9.45554209734711"><ele>368.0</ele><time>2026-04-09T11:26:31.999Z</time></trkpt><trkpt lat="45.7804278189801" lon="9.455448646645413"><ele>368.0</ele><time>2026-04-09T11:26:32.999Z</time></trkpt><trkpt lat="45.78045084351747" lon="9.455322585087323"><ele>368.0</ele><time>2026-04-09T11:26:33.999Z</time></trkpt><trkpt lat="45.78048190770306" lon="9.455209570947915"><ele>368.0</ele><time>2026-04-09T11:26:35Z</time></trkpt><trkpt lat="45.78053552374186" lon="9.455081312326213"><ele>368.0</ele><time>2026-04-09T11:26:36Z</time></trkpt><trkpt lat="45.780612073705605" lon="9.45493950818168"><ele>365.75</ele><time>2026-04-09T11:26:37Z</time></trkpt><trkpt lat="45.780704542413574" lon="9.45481560478193"><ele>363.5</ele><time>2026-04-09T11:26:38Z</time></trkpt><trkpt lat="45.78079978753354" lon="9.454696972399644"><ele>361.25</ele><time>2026-04-09T11:26:39Z</time></trkpt><trkpt lat="45.78090145527104" lon="9.454566246768673"><ele>359.0</ele><time>2026-04-09T11:26:40Z</time></trkpt><trkpt lat="45.781007836497345" lon="9.454413754339868"><ele>359.0</ele><time>2026-04-09T11:26:41Z</time></trkpt><trkpt lat="45.78110644500883" lon="9.454236498365221"><ele>359.0</ele><time>2026-04-09T11:26:42Z</time></trkpt><trkpt lat="45.78119998645571" lon="9.454047003662405"><ele>359.0</ele><time>2026-04-09T11:26:43Z</time></trkpt><trkpt lat="45.78129593696479" lon="9.45386751651594"><ele>355.25</ele><time>2026-04-09T11:26:44Z</time></trkpt><trkpt lat="45.78136742805416" lon="9.453688378212206"><ele>351.5</ele><time>2026-04-09T11:26:45Z</time></trkpt><trkpt lat="45.78145236425732" lon="9.453509709118478"><ele>347.75</ele><time>2026-04-09T11:26:46Z</time></trkpt><trkpt lat="45.78153044552314" lon="9.453342523099156"><ele>344.0</ele><time>2026-04-09T11:26:47Z</time></trkpt><trkpt lat="45.78159686912954" lon="9.453187121698955"><ele>344.0</ele><time>2026-04-09T11:26:48Z</time></trkpt><trkpt lat="45.78163909405138" lon="9.453018746814548"><ele>344.0</ele><time>2026-04-09T11:26:49Z</time></trkpt><trkpt lat="45.781654860103195" lon="9.452847562302695"><ele>344.0</ele><time>2026-04-09T11:26:50Z</time></trkpt><trkpt lat="45.78163940947279" lon="9.452666541005918"><ele>344.0</ele><time>2026-04-09T11:26:51Z</time></trkpt><trkpt lat="45.781614014302235" lon="9.45247127457181"><ele>340.6666666666667</ele><time>2026-04-09T11:26:52Z</time></trkpt><trkpt lat="45.78159071274014" lon="9.45225451089795"><ele>337.3333333333333</ele><time>2026-04-09T11:26:53Z</time></trkpt><trkpt lat="45.781573219116865" lon="9.452022051505736"><ele>334.0</ele><time>2026-04-09T11:26:54Z</time></trkpt><trkpt lat="45.78156258849698" lon="9.451804963733696"><ele>332.5</ele><time>2026-04-09T11:26:55Z</time></trkpt><trkpt lat="45.78156558293183" lon="9.451596061724027"><ele>331.0</ele><time>2026-04-09T11:26:56Z</time></trkpt><trkpt lat="45.7815770723151" lon="9.451400584348583"><ele>329.5</ele><time>2026-04-09T11:26:57Z</time></trkpt><trkpt lat="45.78159056230917" lon="9.451235439061564"><ele>328.0</ele><time>2026-04-09T11:26:58Z</time></trkpt><trkpt lat="45.78161551893471" lon="9.45110332457603"><ele>327.59999999999997</ele><time>2026-04-09T11:26:59Z</time></trkpt><trkpt lat="45.781663223515544" lon="9.45100905432222"><ele>327.2</ele><time>2026-04-09T11:27:00Z</time></trkpt><trkpt lat="45.781745848737444" lon="9.45097813810233"><ele>326.8</ele><time>2026-04-09T11:27:01Z</time></trkpt><trkpt lat="45.78183730234348" lon="9.450916847352724"><ele>326.4</ele><time>2026-04-09T11:27:02Z</time></trkpt><trkpt lat="45.781957136223966" lon="9.450871510049108"><ele>326.0</ele><time>2026-04-09T11:27:03.001Z</time></trkpt><trkpt lat="45.782095720326" lon="9.45079963447092"><ele>326.0</ele><time>2026-04-09T11:27:04.001Z</time></trkpt><trkpt lat="45.78222591738389" lon="9.450696331331846"><ele>326.0</ele><time>2026-04-09T11:27:05.001Z</time></trkpt><trkpt lat="45.782341235758466" lon="9.450581459274295"><ele>326.0</ele><time>2026-04-09T11:27:06.001Z</time></trkpt><trkpt lat="45.78244007654336" lon="9.45046334297087"><ele>326.0</ele><time>2026-04-09T11:27:07.001Z</time></trkpt><trkpt lat="45.78253012746086" lon="9.45035302277282"><ele>320.5</ele><time>2026-04-09T11:27:08.001Z</time></trkpt><trkpt lat="45.782645901553494" lon="9.450313791212722"><ele>315.0</ele><time>2026-04-09T11:27:09.001Z</time></trkpt><trkpt lat="45.78276177277832" lon="9.45033504486716"><ele>309.5</ele><time>2026-04-09T11:27:10.001Z</time></trkpt><trkpt lat="45.782897463282815" lon="9.450357089537611"><ele>304.0</ele><time>2026-04-09T11:27:11.001Z</time></trkpt><trkpt lat="45.78305137434369" lon="9.450372198629015"><ele>304.0</ele><time>2026-04-09T11:27:12.001Z</time></trkpt><trkpt lat="45.78321128913228" lon="9.45039757197818"><ele>304.0</ele><time>2026-04-09T11:27:13.001Z</time></trkpt><trkpt lat="45.78339907303632" lon="9.450424688792852"><ele>304.0</ele><time>2026-04-09T11:27:14.001Z</time></trkpt><trkpt lat="45.78356943310521" lon="9.45045548898622"><ele>310.66666666666663</ele><time>2026-04-09T11:27:15.001Z</time></trkpt><trkpt lat="45.783736761957286" lon="9.450472226248621"><ele>317.3333333333333</ele><time>2026-04-09T11:27:16.001Z</time></trkpt><trkpt lat="45.78389204119507" lon="9.450493436308248"><ele>324.0</ele><time>2026-04-09T11:27:17.001Z</time></trkpt><trkpt lat="45.78405820755586" lon="9.450507014868151"><ele>324.0</ele><time>2026-04-09T11:27:18.001Z</time></trkpt><trkpt lat="45.784225569902546" lon="9.450507669388431"><ele>324.0</ele><time>2026-04-09T11:27:19.001Z</time></trkpt><trkpt lat="45.7844037285435" lon="9.450497845699074"><ele>324.0</ele><time>2026-04-09T11:27:20.001Z</time></trkpt><trkpt lat="45.78458860593928" lon="9.450470360988835"><ele>312.6666666666667</ele><time>2026-04-09T11:27:21.001Z</time></trkpt><trkpt lat="45.78476612229779" lon="9.450426968223157"><ele>301.33333333333337</ele><time>2026-04-09T11:27:22.001Z</time></trkpt><trkpt lat="45.78494406815931" lon="9.450384389674952"><ele>290.0</ele><time>2026-04-09T11:27:23.001Z</time></trkpt><trkpt lat="45.785105305827535" lon="9.450332623467874"><ele>289.0</ele><time>2026-04-09T11:27:24.001Z</time></trkpt><trkpt lat="45.78526597775221" lon="9.450292799794498"><ele>288.0</ele><time>2026-04-09T11:27:25.001Z</time></trkpt><trkpt lat="45.785397312169934" lon="9.450282875165513"><ele>287.0</ele><time>2026-04-09T11:27:26.001Z</time></trkpt><trkpt lat="45.785523227180796" lon="9.450321859899525"><ele>286.0</ele><time>2026-04-09T11:27:27.001Z</time></trkpt><trkpt lat="45.78563594505576" lon="9.450377132266055"><ele>286.0</ele><time>2026-04-09T11:27:28.001Z</time></trkpt><trkpt lat="45.78575679583699" lon="9.450439120991316"><ele>286.0</ele><time>2026-04-09T11:27:29.001Z</time></trkpt><trkpt lat="45.785853173838305" lon="9.450508494962582"><ele>286.0</ele><time>2026-04-09T11:27:30.001Z</time></trkpt><trkpt lat="45.78594385697968" lon="9.45052367363528"><ele>286.0</ele><time>2026-04-09T11:27:31.001Z</time></trkpt><trkpt lat="45.78602709001832" lon="9.450521988515641"><ele>286.0</ele><time>2026-04-09T11:27:32.001Z</time></trkpt><trkpt lat="45.78609086090092" lon="9.45038583376372"><ele>288.40000000000003</ele><time>2026-04-09T11:27:33.001Z</time></trkpt><trkpt lat="45.78613993843535" lon="9.450260224736493"><ele>290.8</ele><time>2026-04-09T11:27:34.001Z</time></trkpt><trkpt lat="45.786177507089796" lon="9.450121269733353"><ele>293.20000000000005</ele><time>2026-04-09T11:27:35.001Z</time></trkpt><trkpt lat="45.78625390727676" lon="9.450022356784288"><ele>295.6</ele><time>2026-04-09T11:27:36.001Z</time></trkpt><trkpt lat="45.78633431197105" lon="9.449913055112596"><ele>298.0</ele><time>2026-04-09T11:27:37.002Z</time></trkpt><trkpt lat="45.786429679166616" lon="9.44980818859092"><ele>298.0</ele><time>2026-04-09T11:27:38.002Z</time></trkpt><trkpt lat="45.78651132925645" lon="9.449680425443775"><ele>298.0</ele><time>2026-04-09T11:27:39.002Z</time></trkpt><trkpt lat="45.7865834926486" lon="9.449552275574804"><ele>298.0</ele><time>2026-04-09T11:27:40.002Z</time></trkpt><trkpt lat="45.786651642172586" lon="9.44942015995341"><ele>298.0</ele><time>2026-04-09T11:27:41.002Z</time></trkpt><trkpt lat="45.78670594748382" lon="9.449281252427589"><ele>294.8</ele><time>2026-04-09T11:27:42.002Z</time></trkpt><trkpt lat="45.7867977323448" lon="9.449187136221655"><ele>291.6</ele><time>2026-04-09T11:27:43.002Z</time></trkpt><trkpt lat="45.78688842584423" lon="9.449100457386015"><ele>288.4</ele><time>2026-04-09T11:27:44.002Z</time></trkpt><trkpt lat="45.78698621111054" lon="9.449030818300058"><ele>285.2</ele><time>2026-04-09T11:27:45.002Z</time></trkpt><trkpt lat="45.78708641296558" lon="9.449007513521947"><ele>282.0</ele><time>2026-04-09T11:27:46.002Z</time></trkpt><trkpt lat="45.78720139688429" lon="9.448982295114217"><ele>282.0</ele><time>2026-04-09T11:27:47.002Z</time></trkpt><trkpt lat="45.78731082555274" lon="9.448914862121413"><ele>282.0</ele><time>2026-04-09T11:27:48.002Z</time></trkpt><trkpt lat="45.78742377683936" lon="9.448841428494799"><ele>282.0</ele><time>2026-04-09T11:27:49.002Z</time></trkpt><trkpt lat="45.78753375251296" lon="9.448747983385163"><ele>282.0</ele><time>2026-04-09T11:27:50.002Z</time></trkpt><trkpt lat="45.7876322524324" lon="9.44863993805347"><ele>280.0</ele><time>2026-04-09T11:27:51.002Z</time></trkpt><trkpt lat="45.787723492606" lon="9.44851875936569"><ele>278.0</ele><time>2026-04-09T11:27:52.002Z</time></trkpt><trkpt lat="45.78781559006293" lon="9.448378541150626"><ele>276.0</ele><time>2026-04-09T11:27:53.002Z</time></trkpt><trkpt lat="45.787902554851776" lon="9.448242748223137"><ele>274.0</ele><time>2026-04-09T11:27:54.002Z</time></trkpt><trkpt lat="45.78799222600984" lon="9.448107496170334"><ele>274.0</ele><time>2026-04-09T11:27:55.002Z</time></trkpt><trkpt lat="45.788086080952695" lon="9.447977917296946"><ele>274.0</ele><time>2026-04-09T11:27:56.002Z</time></trkpt><trkpt lat="45.78818361044515" lon="9.447841476471817"><ele>274.0</ele><time>2026-04-09T11:27:57.002Z</time></trkpt><trkpt lat="45.78829609616072" lon="9.447714013407495"><ele>274.0</ele><time>2026-04-09T11:27:58.002Z</time></trkpt><trkpt lat="45.78840892348113" lon="9.447588758008829"><ele>274.5</ele><time>2026-04-09T11:27:59.002Z</time></trkpt><trkpt lat="45.78852482520087" lon="9.447464769487125"><ele>275.0</ele><time>2026-04-09T11:28:00.002Z</time></trkpt><trkpt lat="45.78864408116834" lon="9.447345039781874"><ele>275.5</ele><time>2026-04-09T11:28:01.002Z</time></trkpt><trkpt lat="45.78876163431372" lon="9.447225450275818"><ele>276.0</ele><time>2026-04-09T11:28:02.002Z</time></trkpt><trkpt lat="45.788871790032054" lon="9.447108647884237"><ele>271.0</ele><time>2026-04-09T11:28:03.002Z</time></trkpt><trkpt lat="45.788978191289864" lon="9.446987846709025"><ele>266.0</ele><time>2026-04-09T11:28:04.002Z</time></trkpt><trkpt lat="45.789081987411315" lon="9.446852855819692"><ele>261.0</ele><time>2026-04-09T11:28:05.002Z</time></trkpt><trkpt lat="45.78918599055938" lon="9.44671389350796"><ele>256.0</ele><time>2026-04-09T11:28:06.002Z</time></trkpt><trkpt lat="45.78928524125247" lon="9.446588364262585"><ele>255.25</ele><time>2026-04-09T11:28:07.002Z</time></trkpt><trkpt lat="45.789379426454225" lon="9.446466041287472"><ele>254.5</ele><time>2026-04-09T11:28:08.002Z</time></trkpt><trkpt lat="45.78946886558235" lon="9.446347098077513"><ele>253.75</ele><time>2026-04-09T11:28:09.002Z</time></trkpt><trkpt lat="45.78955793805453" lon="9.446242202662443"><ele>253.0</ele><time>2026-04-09T11:28:10.002Z</time></trkpt><trkpt lat="45.789633879292886" lon="9.446117637057986"><ele>253.0</ele><time>2026-04-09T11:28:10.998Z</time></trkpt><trkpt lat="45.78971347075953" lon="9.445987189244358"><ele>253.0</ele><time>2026-04-09T11:28:11.998Z</time></trkpt><trkpt lat="45.78980388294131" lon="9.445858488045689"><ele>253.0</ele><time>2026-04-09T11:28:12.998Z</time></trkpt><trkpt lat="45.78990594276305" lon="9.445720364873067"><ele>253.0</ele><time>2026-04-09T11:28:13.998Z</time></trkpt><trkpt lat="45.79001530654321" lon="9.44560160022868"><ele>253.0</ele><time>2026-04-09T11:28:14.998Z</time></trkpt><trkpt lat="45.79012631835751" lon="9.445526693328292"><ele>253.0</ele><time>2026-04-09T11:28:15.998Z</time></trkpt><trkpt lat="45.79024713913331" lon="9.445426519382778"><ele>253.0</ele><time>2026-04-09T11:28:16.998Z</time></trkpt><trkpt lat="45.79036993734216" lon="9.445366128757618"><ele>253.0</ele><time>2026-04-09T11:28:17.998Z</time></trkpt><trkpt lat="45.79050499864356" lon="9.445292335813203"><ele>248.33333333333331</ele><time>2026-04-09T11:28:18.998Z</time></trkpt><trkpt lat="45.790641278902825" lon="9.445201253837665"><ele>243.66666666666669</ele><time>2026-04-09T11:28:19.998Z</time></trkpt><trkpt lat="45.79077332684225" lon="9.44509500423319"><ele>239.0</ele><time>2026-04-09T11:28:20.998Z</time></trkpt><trkpt lat="45.79089669271815" lon="9.444970910806552"><ele>238.0</ele><time>2026-04-09T11:28:21.998Z</time></trkpt><trkpt lat="45.79101518167975" lon="9.444843838782386"><ele>237.0</ele><time>2026-04-09T11:28:22.998Z</time></trkpt><trkpt lat="45.79113171999979" lon="9.444729086662463"><ele>236.0</ele><time>2026-04-09T11:28:23.998Z</time></trkpt><trkpt lat="45.79125785774391" lon="9.444625128126694"><ele>235.0</ele><time>2026-04-09T11:28:24.999Z</time></trkpt><trkpt lat="45.79139198855122" lon="9.44453000632007"><ele>235.0</ele><time>2026-04-09T11:28:25.999Z</time></trkpt><trkpt lat="45.79153619753567" lon="9.44445471649871"><ele>235.0</ele><time>2026-04-09T11:28:26.999Z</time></trkpt><trkpt lat="45.7916845065007" lon="9.444399642034776"><ele>235.0</ele><time>2026-04-09T11:28:27.999Z</time></trkpt><trkpt lat="45.79183081715403" lon="9.444362866917707"><ele>237.33333333333331</ele><time>2026-04-09T11:28:28.999Z</time></trkpt><trkpt lat="45.79198047750402" lon="9.444325631540513"><ele>239.66666666666669</ele><time>2026-04-09T11:28:29.999Z</time></trkpt><trkpt lat="45.792125141529255" lon="9.444264444129146"><ele>242.0</ele><time>2026-04-09T11:28:30.999Z</time></trkpt><trkpt lat="45.79226280630561" lon="9.444191137603404"><ele>242.0</ele><time>2026-04-09T11:28:31.999Z</time></trkpt><trkpt lat="45.79240658150878" lon="9.44409998920656"><ele>242.0</ele><time>2026-04-09T11:28:32.999Z</time></trkpt><trkpt lat="45.79253919366671" lon="9.444004865376058"><ele>242.0</ele><time>2026-04-09T11:28:33.999Z</time></trkpt><trkpt lat="45.792673085890335" lon="9.443914745264042"><ele>241.25</ele><time>2026-04-09T11:28:34.999Z</time></trkpt><trkpt lat="45.792799994075125" lon="9.4438318635189"><ele>240.5</ele><time>2026-04-09T11:28:35.999Z</time></trkpt><trkpt lat="45.79291907045126" lon="9.443757130253447"><ele>239.75</ele><time>2026-04-09T11:28:36.999Z</time></trkpt><trkpt lat="45.793036069195544" lon="9.443681103483609"><ele>239.0</ele><time>2026-04-09T11:28:37.999Z</time></trkpt><trkpt lat="45.79315019685914" lon="9.443604637120972"><ele>239.0</ele><time>2026-04-09T11:28:38.999Z</time></trkpt><trkpt lat="45.793260416915615" lon="9.443523316765368"><ele>239.0</ele><time>2026-04-09T11:28:39.999Z</time></trkpt><trkpt lat="45.79335290699115" lon="9.44342745903302"><ele>239.0</ele><time>2026-04-09T11:28:41Z</time></trkpt><trkpt lat="45.79342966545668" lon="9.443320037683021"><ele>239.0</ele><time>2026-04-09T11:28:42Z</time></trkpt><trkpt lat="45.793495251770814" lon="9.443201650298107"><ele>238.79999999999998</ele><time>2026-04-09T11:28:43Z</time></trkpt><trkpt lat="45.79355306334709" lon="9.443079755975013"><ele>238.59999999999997</ele><time>2026-04-09T11:28:44Z</time></trkpt><trkpt lat="45.79361460329646" lon="9.44294454447706"><ele>238.4</ele><time>2026-04-09T11:28:45Z</time></trkpt><trkpt lat="45.793660580090794" lon="9.442809349208842"><ele>238.2</ele><time>2026-04-09T11:28:46Z</time></trkpt><trkpt lat="45.793695665089864" lon="9.442660131909834"><ele>238.0</ele><time>2026-04-09T11:28:47Z</time></trkpt><trkpt lat="45.79372226088124" lon="9.442509459836863"><ele>238.0</ele><time>2026-04-09T11:28:48Z</time></trkpt><trkpt lat="45.793748689665335" lon="9.442366277094669"><ele>238.0</ele><time>2026-04-09T11:28:49Z</time></trkpt><trkpt lat="45.79377773179136" lon="9.442230160279856"><ele>238.0</ele><time>2026-04-09T11:28:50Z</time></trkpt><trkpt lat="45.79380624441298" lon="9.44209487746643"><ele>238.0</ele><time>2026-04-09T11:28:51Z</time></trkpt><trkpt lat="45.793826307962995" lon="9.441987494098498"><ele>238.0</ele><time>2026-04-09T11:28:52Z</time></trkpt><trkpt lat="45.793845128781484" lon="9.441883344252933"><ele>237.16666666666666</ele><time>2026-04-09T11:28:54Z</time></trkpt><trkpt lat="45.793857810391785" lon="9.441789060583869"><ele>236.33333333333331</ele><time>2026-04-09T11:28:56Z</time></trkpt><trkpt lat="45.79385885798369" lon="9.441665625888563"><ele>235.5</ele><time>2026-04-09T11:28:58Z</time></trkpt><trkpt lat="45.79383352329935" lon="9.441538276907297"><ele>234.66666666666669</ele><time>2026-04-09T11:29:00Z</time></trkpt><trkpt lat="45.793740569090744" lon="9.441515977106567"><ele>233.83333333333334</ele><time>2026-04-09T11:29:02Z</time></trkpt><trkpt lat="45.793667390432226" lon="9.441533153131369"><ele>233.0</ele><time>2026-04-09T11:29:03Z</time></trkpt><trkpt lat="45.793596854275485" lon="9.44154597609484"><ele>233.0</ele><time>2026-04-09T11:29:04Z</time></trkpt><trkpt lat="45.79351539424131" lon="9.44155856376595"><ele>233.0</ele><time>2026-04-09T11:29:05Z</time></trkpt><trkpt lat="45.79341459756209" lon="9.441561110872264"><ele>233.0</ele><time>2026-04-09T11:29:06Z</time></trkpt><trkpt lat="45.79329893712988" lon="9.441570592012503"><ele>233.0</ele><time>2026-04-09T11:29:07Z</time></trkpt><trkpt lat="45.79318905863668" lon="9.44158790687564"><ele>233.0</ele><time>2026-04-09T11:29:08.001Z</time></trkpt><trkpt lat="45.79308467718526" lon="9.44160560727777"><ele>232.0</ele><time>2026-04-09T11:29:09.001Z</time></trkpt><trkpt lat="45.792970134402" lon="9.441639300289838"><ele>231.0</ele><time>2026-04-09T11:29:10.001Z</time></trkpt><trkpt lat="45.792865746075336" lon="9.441659348069669"><ele>230.0</ele><time>2026-04-09T11:29:11.001Z</time></trkpt><trkpt lat="45.792755794862785" lon="9.441666146528561"><ele>229.0</ele><time>2026-04-09T11:29:12.001Z</time></trkpt><trkpt lat="45.79264156045882" lon="9.441683717408631"><ele>228.0</ele><time>2026-04-09T11:29:13.001Z</time></trkpt><trkpt lat="45.79251712272837" lon="9.441728285594724"><ele>226.75</ele><time>2026-04-09T11:29:14.001Z</time></trkpt><trkpt lat="45.79238318665801" lon="9.441789485997289"><ele>225.5</ele><time>2026-04-09T11:29:15.001Z</time></trkpt><trkpt lat="45.79226466715141" lon="9.441835645686515"><ele>224.25</ele><time>2026-04-09T11:29:16.001Z</time></trkpt><trkpt lat="45.792150653430966" lon="9.441887249250636"><ele>223.0</ele><time>2026-04-09T11:29:17.001Z</time></trkpt><trkpt lat="45.79203346205117" lon="9.441938581448344"><ele>223.0</ele><time>2026-04-09T11:29:18.001Z</time></trkpt><trkpt lat="45.7919132485767" lon="9.441998818257384"><ele>223.0</ele><time>2026-04-09T11:29:19.001Z</time></trkpt><trkpt lat="45.79180023796884" lon="9.442051203232474"><ele>223.0</ele><time>2026-04-09T11:29:20.001Z</time></trkpt><trkpt lat="45.791690503886535" lon="9.44210130698157"><ele>223.0</ele><time>2026-04-09T11:29:21.001Z</time></trkpt><trkpt lat="45.79159213633555" lon="9.442134895725786"><ele>222.4</ele><time>2026-04-09T11:29:22.001Z</time></trkpt><trkpt lat="45.791491081139895" lon="9.442154341487857"><ele>221.8</ele><time>2026-04-09T11:29:23.001Z</time></trkpt><trkpt lat="45.7913993747787" lon="9.442178715941607"><ele>221.2</ele><time>2026-04-09T11:29:24.001Z</time></trkpt><trkpt lat="45.79130848496357" lon="9.44221766101722"><ele>220.6</ele><time>2026-04-09T11:29:25.001Z</time></trkpt><trkpt lat="45.79123084197529" lon="9.442274518100252"><ele>220.0</ele><time>2026-04-09T11:29:26.001Z</time></trkpt><trkpt lat="45.79115383277276" lon="9.442285035245249"><ele>219.6</ele><time>2026-04-09T11:29:27.001Z</time></trkpt><trkpt lat="45.791131556808075" lon="9.442115094553767"><ele>219.2</ele><time>2026-04-09T11:29:30.001Z</time></trkpt><trkpt lat="45.791115504914046" lon="9.441998923615909"><ele>218.8</ele><time>2026-04-09T11:29:31.001Z</time></trkpt><trkpt lat="45.79109593147549" lon="9.441855582113922"><ele>218.4</ele><time>2026-04-09T11:29:32.001Z</time></trkpt><trkpt lat="45.79107285196702" lon="9.4417025697297"><ele>218.0</ele><time>2026-04-09T11:29:33.001Z</time></trkpt><trkpt lat="45.791031342854694" lon="9.441521691812602"><ele>217.75</ele><time>2026-04-09T11:29:34.001Z</time></trkpt><trkpt lat="45.79098335217156" lon="9.441330965286342"><ele>217.5</ele><time>2026-04-09T11:29:35.001Z</time></trkpt><trkpt lat="45.790919137368185" lon="9.441143238349543"><ele>217.25</ele><time>2026-04-09T11:29:36.001Z</time></trkpt><trkpt lat="45.79087041934728" lon="9.440946430245324"><ele>217.0</ele><time>2026-04-09T11:29:37.001Z</time></trkpt><trkpt lat="45.79082496648084" lon="9.440767641122502"><ele>217.0</ele><time>2026-04-09T11:29:38.001Z</time></trkpt><trkpt lat="45.79078449349326" lon="9.440598617610817"><ele>217.0</ele><time>2026-04-09T11:29:39.001Z</time></trkpt><trkpt lat="45.79074981192367" lon="9.440439496475092"><ele>217.0</ele><time>2026-04-09T11:29:40.002Z</time></trkpt><trkpt lat="45.790711024106415" lon="9.440298099592113"><ele>217.0</ele><time>2026-04-09T11:29:41.002Z</time></trkpt><trkpt lat="45.79067530731332" lon="9.44015791277209"><ele>216.8</ele><time>2026-04-09T11:29:42.002Z</time></trkpt><trkpt lat="45.79065467529347" lon="9.440017563960218"><ele>216.6</ele><time>2026-04-09T11:29:43.002Z</time></trkpt><trkpt lat="45.79060187139957" lon="9.439914886848545"><ele>216.40000000000003</ele><time>2026-04-09T11:29:44.002Z</time></trkpt><trkpt lat="45.79057030584411" lon="9.43983503776003"><ele>216.20000000000002</ele><time>2026-04-09T11:29:45.002Z</time></trkpt><trkpt lat="45.79050663023409" lon="9.439672451218906"><ele>216.0</ele><time>2026-04-09T11:29:47.002Z</time></trkpt><trkpt lat="45.790473836906024" lon="9.439580039672588"><ele>215.60000000000002</ele><time>2026-04-09T11:29:48.002Z</time></trkpt><trkpt lat="45.79037652468945" lon="9.439486552019217"><ele>215.20000000000002</ele><time>2026-04-09T11:29:50.002Z</time></trkpt><trkpt lat="45.79030975968901" lon="9.439503944024347"><ele>214.79999999999998</ele><time>2026-04-09T11:29:51.002Z</time></trkpt><trkpt lat="45.79022497564422" lon="9.439536641904882"><ele>214.39999999999998</ele><time>2026-04-09T11:29:52.002Z</time></trkpt><trkpt lat="45.79012478518519" lon="9.439568544327386"><ele>214.0</ele><time>2026-04-09T11:29:53.002Z</time></trkpt><trkpt lat="45.790010138723474" lon="9.439599276323236"><ele>213.25</ele><time>2026-04-09T11:29:54.002Z</time></trkpt><trkpt lat="45.789898298107026" lon="9.439632329118833"><ele>212.5</ele><time>2026-04-09T11:29:55.002Z</time></trkpt><trkpt lat="45.78979574938105" lon="9.439675896107978"><ele>211.75</ele><time>2026-04-09T11:29:56.002Z</time></trkpt><trkpt lat="45.78969332394258" lon="9.439732538045112"><ele>211.0</ele><time>2026-04-09T11:29:57.002Z</time></trkpt><trkpt lat="45.78957886014237" lon="9.439793969069614"><ele>210.5</ele><time>2026-04-09T11:29:58.002Z</time></trkpt><trkpt lat="45.789447400969536" lon="9.439867541095712"><ele>210.0</ele><time>2026-04-09T11:29:59.002Z</time></trkpt><trkpt lat="45.789307704851474" lon="9.439944342722837"><ele>209.5</ele><time>2026-04-09T11:30:00.002Z</time></trkpt><trkpt lat="45.78917112251134" lon="9.440014875521324"><ele>209.0</ele><time>2026-04-09T11:30:01.002Z</time></trkpt><trkpt lat="45.78904400919797" lon="9.44007608347694"><ele>208.75</ele><time>2026-04-09T11:30:02.002Z</time></trkpt><trkpt lat="45.78891966472906" lon="9.440141952002019"><ele>208.5</ele><time>2026-04-09T11:30:03.002Z</time></trkpt><trkpt lat="45.7887978558971" lon="9.440198978711795"><ele>208.25</ele><time>2026-04-09T11:30:04.002Z</time></trkpt><trkpt lat="45.78868344264091" lon="9.440256753600732"><ele>208.0</ele><time>2026-04-09T11:30:05.002Z</time></trkpt><trkpt lat="45.78857950485594" lon="9.440313026089624"><ele>207.66666666666666</ele><time>2026-04-09T11:30:06.002Z</time></trkpt><trkpt lat="45.788485104822705" lon="9.44036692725753"><ele>207.33333333333331</ele><time>2026-04-09T11:30:07.002Z</time></trkpt><trkpt lat="45.788410720042606" lon="9.440413991882508"><ele>207.0</ele><time>2026-04-09T11:30:08.002Z</time></trkpt><trkpt lat="45.78834739707251" lon="9.440435829325414"><ele>206.66666666666669</ele><time>2026-04-09T11:30:09.002Z</time></trkpt><trkpt lat="45.78827628300641" lon="9.440472103068432"><ele>206.33333333333334</ele><time>2026-04-09T11:30:10.002Z</time></trkpt><trkpt lat="45.788212499313445" lon="9.440501240037717"><ele>206.0</ele><time>2026-04-09T11:30:11.002Z</time></trkpt><trkpt lat="45.78810486850901" lon="9.440545767367356"><ele>206.00000000000003</ele><time>2026-04-09T11:30:13.003Z</time></trkpt><trkpt lat="45.78802406782631" lon="9.440578977787435"><ele>206.0</ele><time>2026-04-09T11:30:15.003Z</time></trkpt><trkpt lat="45.78796039397631" lon="9.440576673539844"><ele>206.0</ele><time>2026-04-09T11:30:17.998Z</time></trkpt><trkpt lat="45.78784508844637" lon="9.440602784219275"><ele>206.0</ele><time>2026-04-09T11:30:19.998Z</time></trkpt><trkpt lat="45.787755819425776" lon="9.440670939911666"><ele>206.00000000000003</ele><time>2026-04-09T11:30:21.998Z</time></trkpt><trkpt lat="45.78769177217858" lon="9.440744859752378"><ele>206.0</ele><time>2026-04-09T11:30:22.998Z</time></trkpt><trkpt lat="45.78761751672634" lon="9.440801244433173"><ele>205.60000000000002</ele><time>2026-04-09T11:30:23.999Z</time></trkpt><trkpt lat="45.787523730352" lon="9.440836622430131"><ele>205.2</ele><time>2026-04-09T11:30:24.999Z</time></trkpt><trkpt lat="45.78743672226872" lon="9.44086496667571"><ele>204.8</ele><time>2026-04-09T11:30:25.999Z</time></trkpt><trkpt lat="45.78733069780304" lon="9.440867875559354"><ele>204.39999999999998</ele><time>2026-04-09T11:30:26.999Z</time></trkpt><trkpt lat="45.78721724852955" lon="9.440871240272296"><ele>204.0</ele><time>2026-04-09T11:30:27.999Z</time></trkpt><trkpt lat="45.78710447383781" lon="9.44086929819667"><ele>204.0</ele><time>2026-04-09T11:30:28.999Z</time></trkpt><trkpt lat="45.786975555616145" lon="9.440882780107986"><ele>204.0</ele><time>2026-04-09T11:30:29.999Z</time></trkpt><trkpt lat="45.78684580174045" lon="9.440883903411764"><ele>204.0</ele><time>2026-04-09T11:30:30.999Z</time></trkpt><trkpt lat="45.78672084344373" lon="9.440896970995302"><ele>204.0</ele><time>2026-04-09T11:30:31.999Z</time></trkpt><trkpt lat="45.786589367635585" lon="9.440877435588881"><ele>204.5</ele><time>2026-04-09T11:30:32.999Z</time></trkpt><trkpt lat="45.78645702051642" lon="9.440882312822437"><ele>205.0</ele><time>2026-04-09T11:30:33.999Z</time></trkpt><trkpt lat="45.78630612977824" lon="9.440901825543142"><ele>205.5</ele><time>2026-04-09T11:30:34.999Z</time></trkpt><trkpt lat="45.78618418880598" lon="9.440942447879449"><ele>206.0</ele><time>2026-04-09T11:30:35.999Z</time></trkpt><trkpt lat="45.786069439171875" lon="9.44101796454429"><ele>206.0</ele><time>2026-04-09T11:30:37Z</time></trkpt><trkpt lat="45.78595362563235" lon="9.441119325117503"><ele>206.0</ele><time>2026-04-09T11:30:38Z</time></trkpt><trkpt lat="45.78584101088519" lon="9.441213882575733"><ele>206.0</ele><time>2026-04-09T11:30:39Z</time></trkpt><trkpt lat="45.78571728921344" lon="9.441266872562133"><ele>206.0</ele><time>2026-04-09T11:30:40Z</time></trkpt><trkpt lat="45.78558766971561" lon="9.44130894117729"><ele>206.0</ele><time>2026-04-09T11:30:41Z</time></trkpt><trkpt lat="45.78545450334022" lon="9.441328919435684"><ele>206.0</ele><time>2026-04-09T11:30:42Z</time></trkpt><trkpt lat="45.78532610165316" lon="9.441337604650277"><ele>206.0</ele><time>2026-04-09T11:30:43Z</time></trkpt><trkpt lat="45.78519719944805" lon="9.441341758004386"><ele>206.0</ele><time>2026-04-09T11:30:44Z</time></trkpt><trkpt lat="45.78506636130076" lon="9.44134612499849"><ele>206.25</ele><time>2026-04-09T11:30:45Z</time></trkpt><trkpt lat="45.78493409831258" lon="9.441346516520069"><ele>206.5</ele><time>2026-04-09T11:30:46Z</time></trkpt><trkpt lat="45.78479755793216" lon="9.441355403405037"><ele>206.75</ele><time>2026-04-09T11:30:47Z</time></trkpt><trkpt lat="45.78467247339348" lon="9.441351384018626"><ele>207.0</ele><time>2026-04-09T11:30:48Z</time></trkpt><trkpt lat="45.78455951948034" lon="9.441336224392211"><ele>207.0</ele><time>2026-04-09T11:30:49Z</time></trkpt><trkpt lat="45.78445158509809" lon="9.441317145964618"><ele>207.0</ele><time>2026-04-09T11:30:50Z</time></trkpt><trkpt lat="45.784352024758256" lon="9.441285646536798"><ele>207.0</ele><time>2026-04-09T11:30:51Z</time></trkpt><trkpt lat="45.78426219683558" lon="9.441247048848679"><ele>207.0</ele><time>2026-04-09T11:30:52Z</time></trkpt><trkpt lat="45.78418930316168" lon="9.4412029411605"><ele>207.0</ele><time>2026-04-09T11:30:53Z</time></trkpt><trkpt lat="45.78412493943755" lon="9.44114149346727"><ele>206.8</ele><time>2026-04-09T11:30:54Z</time></trkpt><trkpt lat="45.78406871830046" lon="9.441058747616488"><ele>206.6</ele><time>2026-04-09T11:30:55.001Z</time></trkpt><trkpt lat="45.784026780799756" lon="9.440941345175059"><ele>206.4</ele><time>2026-04-09T11:30:56.001Z</time></trkpt><trkpt lat="45.783992743731545" lon="9.440794121621437"><ele>206.20000000000002</ele><time>2026-04-09T11:30:57.001Z</time></trkpt><trkpt lat="45.78397767233948" lon="9.440619030818624"><ele>206.0</ele><time>2026-04-09T11:30:58.001Z</time></trkpt><trkpt lat="45.783975001516865" lon="9.440406359241726"><ele>205.66666666666669</ele><time>2026-04-09T11:30:59.001Z</time></trkpt><trkpt lat="45.78397806700246" lon="9.44018237510253"><ele>205.33333333333331</ele><time>2026-04-09T11:31:00.001Z</time></trkpt><trkpt lat="45.783977251967585" lon="9.43994429744062"><ele>205.0</ele><time>2026-04-09T11:31:01.001Z</time></trkpt><trkpt lat="45.78397633753586" lon="9.439693641482402"><ele>203.33333333333331</ele><time>2026-04-09T11:31:02.001Z</time></trkpt><trkpt lat="45.78397764029956" lon="9.43945609433493"><ele>201.66666666666669</ele><time>2026-04-09T11:31:03.001Z</time></trkpt><trkpt lat="45.783979740982794" lon="9.439206304517553"><ele>200.0</ele><time>2026-04-09T11:31:04.001Z</time></trkpt><trkpt lat="45.78397817483909" lon="9.438955457016574"><ele>198.33333333333334</ele><time>2026-04-09T11:31:05.001Z</time></trkpt><trkpt lat="45.78397586763443" lon="9.438673545444452"><ele>196.66666666666669</ele><time>2026-04-09T11:31:06.001Z</time></trkpt><trkpt lat="45.78397544770069" lon="9.438400367959016"><ele>195.0</ele><time>2026-04-09T11:31:07.001Z</time></trkpt><trkpt lat="45.78397467295627" lon="9.438144698546365"><ele>196.0</ele><time>2026-04-09T11:31:08.001Z</time></trkpt><trkpt lat="45.783971666599214" lon="9.437893859392668"><ele>197.0</ele><time>2026-04-09T11:31:09.001Z</time></trkpt><trkpt lat="45.78397878394138" lon="9.437629757584878"><ele>198.0</ele><time>2026-04-09T11:31:10.001Z</time></trkpt><trkpt lat="45.78397255338787" lon="9.437369698292327"><ele>198.33333333333331</ele><time>2026-04-09T11:31:11.001Z</time></trkpt><trkpt lat="45.783971543043194" lon="9.437103560201724"><ele>198.66666666666666</ele><time>2026-04-09T11:31:12.001Z</time></trkpt><trkpt lat="45.78396930161808" lon="9.436836878219108"><ele>199.0</ele><time>2026-04-09T11:31:13.001Z</time></trkpt><trkpt lat="45.78396589017047" lon="9.436569659286864"><ele>198.66666666666666</ele><time>2026-04-09T11:31:14.001Z</time></trkpt><trkpt lat="45.78396720014037" lon="9.436303061833309"><ele>198.33333333333331</ele><time>2026-04-09T11:31:15.001Z</time></trkpt><trkpt lat="45.78396236993199" lon="9.436046403813952"><ele>198.0</ele><time>2026-04-09T11:31:16.001Z</time></trkpt><trkpt lat="45.78396287051426" lon="9.435783082161043"><ele>198.0</ele><time>2026-04-09T11:31:17.001Z</time></trkpt><trkpt lat="45.78396766798774" lon="9.435521451027208"><ele>198.0</ele><time>2026-04-09T11:31:18.001Z</time></trkpt><trkpt lat="45.7839621605313" lon="9.435271988475659"><ele>198.0</ele><time>2026-04-09T11:31:19.001Z</time></trkpt><trkpt lat="45.78396528590698" lon="9.435035735482973"><ele>198.0</ele><time>2026-04-09T11:31:20.001Z</time></trkpt><trkpt lat="45.78396713110755" lon="9.434761062318556"><ele>198.0</ele><time>2026-04-09T11:31:21.001Z</time></trkpt><trkpt lat="45.78396308685779" lon="9.434507764896448"><ele>198.0</ele><time>2026-04-09T11:31:22.001Z</time></trkpt><trkpt lat="45.78396775915584" lon="9.43425649084309"><ele>198.0</ele><time>2026-04-09T11:31:23.002Z</time></trkpt><trkpt lat="45.78396415961814" lon="9.433993169314194"><ele>198.0</ele><time>2026-04-09T11:31:24.002Z</time></trkpt><trkpt lat="45.78396734000403" lon="9.433731292752874"><ele>198.0</ele><time>2026-04-09T11:31:25.002Z</time></trkpt><trkpt lat="45.78396111449098" lon="9.433480757077158"><ele>198.0</ele><time>2026-04-09T11:31:26.002Z</time></trkpt><trkpt lat="45.78395425325533" lon="9.433247164740672"><ele>198.0</ele><time>2026-04-09T11:31:27.002Z</time></trkpt><trkpt lat="45.783925178636395" lon="9.433023420274521"><ele>198.0</ele><time>2026-04-09T11:31:28.002Z</time></trkpt><trkpt lat="45.78387570909909" lon="9.432792734282376"><ele>198.0</ele><time>2026-04-09T11:31:29.002Z</time></trkpt><trkpt lat="45.78382366458828" lon="9.432545349148008"><ele>198.0</ele><time>2026-04-09T11:31:30.002Z</time></trkpt><trkpt lat="45.783750076246044" lon="9.432311891539921"><ele>198.0</ele><time>2026-04-09T11:31:31.002Z</time></trkpt><trkpt lat="45.78366577921052" lon="9.43207989712466"><ele>199.66666666666669</ele><time>2026-04-09T11:31:32.002Z</time></trkpt><trkpt lat="45.78356485081898" lon="9.431857842965213"><ele>201.33333333333334</ele><time>2026-04-09T11:31:33.002Z</time></trkpt><trkpt lat="45.783442063744936" lon="9.43164142467462"><ele>203.0</ele><time>2026-04-09T11:31:34.002Z</time></trkpt><trkpt lat="45.78330121587746" lon="9.431435795264125"><ele>204.66666666666669</ele><time>2026-04-09T11:31:35.002Z</time></trkpt><trkpt lat="45.78314337114204" lon="9.431242176289526"><ele>206.33333333333331</ele><time>2026-04-09T11:31:36.002Z</time></trkpt><trkpt lat="45.78297981158686" lon="9.431070729487269"><ele>208.0</ele><time>2026-04-09T11:31:37.002Z</time></trkpt><trkpt lat="45.78281288064918" lon="9.430926990149592"><ele>208.0</ele><time>2026-04-09T11:31:38.002Z</time></trkpt><trkpt lat="45.78265310674954" lon="9.430806435902197"><ele>208.0</ele><time>2026-04-09T11:31:39.002Z</time></trkpt><trkpt lat="45.78250580138496" lon="9.430712380270577"><ele>208.0</ele><time>2026-04-09T11:31:40.002Z</time></trkpt><trkpt lat="45.782375644715444" lon="9.430635167527907"><ele>207.99999999999997</ele><time>2026-04-09T11:31:41.002Z</time></trkpt><trkpt lat="45.782283550651655" lon="9.430572617221193"><ele>208.0</ele><time>2026-04-09T11:31:42.002Z</time></trkpt><trkpt lat="45.78221798815732" lon="9.430501539039554"><ele>208.0</ele><time>2026-04-09T11:31:43.002Z</time></trkpt><trkpt lat="45.78217039392253" lon="9.430426886119303"><ele>208.0</ele><time>2026-04-09T11:31:44.002Z</time></trkpt><trkpt lat="45.78210986297916" lon="9.430356549899"><ele>207.99999999999997</ele><time>2026-04-09T11:31:45.002Z</time></trkpt><trkpt lat="45.78201535847506" lon="9.430326229096693"><ele>208.0</ele><time>2026-04-09T11:31:46.002Z</time></trkpt><trkpt lat="45.78190381097393" lon="9.430330496319874"><ele>208.0</ele><time>2026-04-09T11:31:47.002Z</time></trkpt><trkpt lat="45.781773546348205" lon="9.430341030405112"><ele>208.0</ele><time>2026-04-09T11:31:48.002Z</time></trkpt><trkpt lat="45.78163205816024" lon="9.430315922419396"><ele>208.0</ele><time>2026-04-09T11:31:49.002Z</time></trkpt><trkpt lat="45.7814814326226" lon="9.430245545760025"><ele>208.0</ele><time>2026-04-09T11:31:50.002Z</time></trkpt><trkpt lat="45.781314238872795" lon="9.430164449290848"><ele>208.0</ele><time>2026-04-09T11:31:51.002Z</time></trkpt><trkpt lat="45.78114217305067" lon="9.430096826437778"><ele>208.0</ele><time>2026-04-09T11:31:52.002Z</time></trkpt><trkpt lat="45.78095483967105" lon="9.430025121054134"><ele>208.0</ele><time>2026-04-09T11:31:53.002Z</time></trkpt><trkpt lat="45.78077023794381" lon="9.429953230083614"><ele>206.66666666666666</ele><time>2026-04-09T11:31:54.002Z</time></trkpt><trkpt lat="45.780594849267914" lon="9.429885522705028"><ele>205.33333333333331</ele><time>2026-04-09T11:31:55.003Z</time></trkpt><trkpt lat="45.780411324006145" lon="9.429819446471042"><ele>204.0</ele><time>2026-04-09T11:31:56.003Z</time></trkpt><trkpt lat="45.78021885749952" lon="9.429748098800617"><ele>204.33333333333331</ele><time>2026-04-09T11:31:57.003Z</time></trkpt><trkpt lat="45.780023566416446" lon="9.429673278951705"><ele>204.66666666666666</ele><time>2026-04-09T11:31:58.003Z</time></trkpt><trkpt lat="45.77983006488139" lon="9.429595036600007"><ele>205.0</ele><time>2026-04-09T11:31:59.003Z</time></trkpt><trkpt lat="45.779626980951896" lon="9.429512591079156"><ele>205.66666666666666</ele><time>2026-04-09T11:32:00.003Z</time></trkpt><trkpt lat="45.77942438193566" lon="9.429440493853015"><ele>206.33333333333331</ele><time>2026-04-09T11:32:01.003Z</time></trkpt><trkpt lat="45.77921741199538" lon="9.429363464817909"><ele>207.0</ele><time>2026-04-09T11:32:02.003Z</time></trkpt><trkpt lat="45.77901614280548" lon="9.429280911909851"><ele>207.33333333333331</ele><time>2026-04-09T11:32:03.003Z</time></trkpt><trkpt lat="45.77882774357142" lon="9.429208820509198"><ele>207.66666666666666</ele><time>2026-04-09T11:32:04.003Z</time></trkpt><trkpt lat="45.77864283971807" lon="9.429135213957627"><ele>208.0</ele><time>2026-04-09T11:32:05.003Z</time></trkpt><trkpt lat="45.7784541325355" lon="9.429060610424623"><ele>208.0</ele><time>2026-04-09T11:32:06.003Z</time></trkpt><trkpt lat="45.778273083140114" lon="9.428987687750421"><ele>208.0</ele><time>2026-04-09T11:32:07.003Z</time></trkpt><trkpt lat="45.77809657268048" lon="9.428922575683266"><ele>208.0</ele><time>2026-04-09T11:32:08.003Z</time></trkpt><trkpt lat="45.777922277573715" lon="9.428858690083477"><ele>208.0</ele><time>2026-04-09T11:32:09.003Z</time></trkpt><trkpt lat="45.777757496286426" lon="9.428799021346853"><ele>208.0</ele><time>2026-04-09T11:32:10.003Z</time></trkpt><trkpt lat="45.77760556698093" lon="9.428744169682659"><ele>208.0</ele><time>2026-04-09T11:32:11.003Z</time></trkpt><trkpt lat="45.77746547633658" lon="9.428694516992316"><ele>207.8</ele><time>2026-04-09T11:32:12.003Z</time></trkpt><trkpt lat="45.77734017202482" lon="9.42864009803914"><ele>207.60000000000002</ele><time>2026-04-09T11:32:13.003Z</time></trkpt><trkpt lat="45.77723349268624" lon="9.428574501364746"><ele>207.39999999999998</ele><time>2026-04-09T11:32:14.003Z</time></trkpt><trkpt lat="45.77714436107522" lon="9.428497271924238"><ele>207.2</ele><time>2026-04-09T11:32:15.003Z</time></trkpt><trkpt lat="45.77706730100803" lon="9.428449645210605"><ele>207.0</ele><time>2026-04-09T11:32:16.003Z</time></trkpt><trkpt lat="45.77698179356961" lon="9.428456561575933"><ele>207.0</ele><time>2026-04-09T11:32:17.003Z</time></trkpt><trkpt lat="45.776889760675566" lon="9.4284864163849"><ele>207.0</ele><time>2026-04-09T11:32:18.003Z</time></trkpt><trkpt lat="45.77679728280858" lon="9.428480087654941"><ele>207.0</ele><time>2026-04-09T11:32:19.003Z</time></trkpt><trkpt lat="45.776698075690604" lon="9.428415028306432"><ele>207.0</ele><time>2026-04-09T11:32:20.003Z</time></trkpt><trkpt lat="45.776605332597335" lon="9.42830609432273"><ele>207.0</ele><time>2026-04-09T11:32:21.003Z</time></trkpt><trkpt lat="45.77652493183422" lon="9.42814833447651"><ele>206.0</ele><time>2026-04-09T11:32:22.003Z</time></trkpt><trkpt lat="45.77645623655952" lon="9.427950497994162"><ele>205.0</ele><time>2026-04-09T11:32:22.999Z</time></trkpt><trkpt lat="45.7763852438001" lon="9.427727804256712"><ele>204.0</ele><time>2026-04-09T11:32:23.999Z</time></trkpt><trkpt lat="45.77630382605959" lon="9.427488455838423"><ele>204.0</ele><time>2026-04-09T11:32:24.999Z</time></trkpt><trkpt lat="45.776215752959224" lon="9.427257384789662"><ele>204.0</ele><time>2026-04-09T11:32:25.999Z</time></trkpt><trkpt lat="45.77613931924738" lon="9.427049438072178"><ele>204.0</ele><time>2026-04-09T11:32:26.999Z</time></trkpt><trkpt lat="45.776064303990886" lon="9.426840031512391"><ele>204.0</ele><time>2026-04-09T11:32:27.999Z</time></trkpt><trkpt lat="45.77598765400739" lon="9.426633975131514"><ele>204.0</ele><time>2026-04-09T11:32:28.999Z</time></trkpt><trkpt lat="45.775924294452544" lon="9.42644972068918"><ele>204.0</ele><time>2026-04-09T11:32:29.999Z</time></trkpt><trkpt lat="45.77586736808885" lon="9.426277072972773"><ele>204.0</ele><time>2026-04-09T11:32:30.999Z</time></trkpt><trkpt lat="45.7758445084871" lon="9.426124440395359"><ele>204.16666666666666</ele><time>2026-04-09T11:32:31.999Z</time></trkpt><trkpt lat="45.77585064352988" lon="9.4259986322907"><ele>204.33333333333331</ele><time>2026-04-09T11:32:32.999Z</time></trkpt><trkpt lat="45.775879098036015" lon="9.42588354928401"><ele>204.5</ele><time>2026-04-09T11:32:34Z</time></trkpt><trkpt lat="45.775916693793796" lon="9.425793248790667"><ele>204.66666666666666</ele><time>2026-04-09T11:32:35Z</time></trkpt><trkpt lat="45.77596209997331" lon="9.425705361039869"><ele>204.83333333333331</ele><time>2026-04-09T11:32:36Z</time></trkpt><trkpt lat="45.77599295985225" lon="9.425611107047844"><ele>205.0</ele><time>2026-04-09T11:32:37Z</time></trkpt><trkpt lat="45.775985247877216" lon="9.425499981485428"><ele>205.99999999999997</ele><time>2026-04-09T11:32:38Z</time></trkpt><trkpt lat="45.77594119598257" lon="9.425419324803165"><ele>207.0</ele><time>2026-04-09T11:32:39Z</time></trkpt><trkpt lat="45.77586683523769" lon="9.425386416693973"><ele>208.0</ele><time>2026-04-09T11:32:40Z</time></trkpt><trkpt lat="45.77578325777595" lon="9.425389261489373"><ele>209.0</ele><time>2026-04-09T11:32:41Z</time></trkpt><trkpt lat="45.77568029705107" lon="9.425418751813925"><ele>209.99999999999997</ele><time>2026-04-09T11:32:42Z</time></trkpt><trkpt lat="45.775574028277845" lon="9.425427239562598"><ele>211.0</ele><time>2026-04-09T11:32:43Z</time></trkpt><trkpt lat="45.77545493633136" lon="9.425395067809795"><ele>211.0</ele><time>2026-04-09T11:32:44Z</time></trkpt><trkpt lat="45.7753240886714" lon="9.425343624633127"><ele>211.0</ele><time>2026-04-09T11:32:45Z</time></trkpt><trkpt lat="45.77517985260789" lon="9.42529988297824"><ele>211.0</ele><time>2026-04-09T11:32:46Z</time></trkpt><trkpt lat="45.775030161832866" lon="9.425270407088545"><ele>211.0</ele><time>2026-04-09T11:32:47Z</time></trkpt><trkpt lat="45.77486833530306" lon="9.425248788559918"><ele>210.33333333333331</ele><time>2026-04-09T11:32:48Z</time></trkpt><trkpt lat="45.77469733586907" lon="9.425241499750992"><ele>209.66666666666669</ele><time>2026-04-09T11:32:49Z</time></trkpt><trkpt lat="45.77452536659581" lon="9.425229349542892"><ele>209.0</ele><time>2026-04-09T11:32:50Z</time></trkpt><trkpt lat="45.77436541035128" lon="9.425218287171056"><ele>208.66666666666669</ele><time>2026-04-09T11:32:51Z</time></trkpt><trkpt lat="45.77421314063919" lon="9.425205046125265"><ele>208.33333333333331</ele><time>2026-04-09T11:32:52Z</time></trkpt><trkpt lat="45.77405308267025" lon="9.425193151052483"><ele>208.0</ele><time>2026-04-09T11:32:53Z</time></trkpt><trkpt lat="45.77388886426634" lon="9.425178895708386"><ele>208.0</ele><time>2026-04-09T11:32:54Z</time></trkpt><trkpt lat="45.77371788762792" lon="9.425163050088186"><ele>208.0</ele><time>2026-04-09T11:32:55Z</time></trkpt><trkpt lat="45.77354742410763" lon="9.425149478995728"><ele>208.0</ele><time>2026-04-09T11:32:56.001Z</time></trkpt><trkpt lat="45.773372013958436" lon="9.42513537849171"><ele>207.0</ele><time>2026-04-09T11:32:57.001Z</time></trkpt><trkpt lat="45.77319566843428" lon="9.425121550364292"><ele>206.0</ele><time>2026-04-09T11:32:58.001Z</time></trkpt><trkpt lat="45.77302199797701" lon="9.425106900143486"><ele>205.0</ele><time>2026-04-09T11:32:59.001Z</time></trkpt><trkpt lat="45.772857103127016" lon="9.4250879449508"><ele>205.0</ele><time>2026-04-09T11:33:00.001Z</time></trkpt><trkpt lat="45.77269026816426" lon="9.425070858458568"><ele>205.0</ele><time>2026-04-09T11:33:01.001Z</time></trkpt><trkpt lat="45.7725274547614" lon="9.425057925694686"><ele>205.0</ele><time>2026-04-09T11:33:02.001Z</time></trkpt><trkpt lat="45.77236756335419" lon="9.425048421631782"><ele>205.0</ele><time>2026-04-09T11:33:03.001Z</time></trkpt><trkpt lat="45.7722104310643" lon="9.425041219533725"><ele>205.0</ele><time>2026-04-09T11:33:04.001Z</time></trkpt><trkpt lat="45.77205604018877" lon="9.425026692233818"><ele>205.0</ele><time>2026-04-09T11:33:05.001Z</time></trkpt><trkpt lat="45.77190082592103" lon="9.425015114807872"><ele>204.0</ele><time>2026-04-09T11:33:06.001Z</time></trkpt><trkpt lat="45.77174926085096" lon="9.425007151634293"><ele>203.0</ele><time>2026-04-09T11:33:07.001Z</time></trkpt><trkpt lat="45.77159057876644" lon="9.425003222951037"><ele>202.0</ele><time>2026-04-09T11:33:08.001Z</time></trkpt><trkpt lat="45.7714353261597" lon="9.42498937742494"><ele>202.0</ele><time>2026-04-09T11:33:09.001Z</time></trkpt><trkpt lat="45.771279478700144" lon="9.424980991289372"><ele>202.0</ele><time>2026-04-09T11:33:10.001Z</time></trkpt><trkpt lat="45.77112878566595" lon="9.424969454434082"><ele>202.0</ele><time>2026-04-09T11:33:11.001Z</time></trkpt><trkpt lat="45.77097041092845" lon="9.424957532890467"><ele>201.33333333333331</ele><time>2026-04-09T11:33:12.001Z</time></trkpt><trkpt lat="45.77081513106404" lon="9.424948510704505"><ele>200.66666666666669</ele><time>2026-04-09T11:33:13.001Z</time></trkpt><trkpt lat="45.77066306238708" lon="9.424937315877079"><ele>200.0</ele><time>2026-04-09T11:33:14.001Z</time></trkpt><trkpt lat="45.770515429501536" lon="9.424922678666961"><ele>200.0</ele><time>2026-04-09T11:33:15.001Z</time></trkpt><trkpt lat="45.7703676676338" lon="9.424907468201992"><ele>200.0</ele><time>2026-04-09T11:33:16.001Z</time></trkpt><trkpt lat="45.77022032009907" lon="9.4248937518816"><ele>200.0</ele><time>2026-04-09T11:33:17.001Z</time></trkpt><trkpt lat="45.77006893731838" lon="9.424883761037378"><ele>200.0</ele><time>2026-04-09T11:33:18.001Z</time></trkpt><trkpt lat="45.7699242153186" lon="9.424876885372308"><ele>201.0</ele><time>2026-04-09T11:33:19.001Z</time></trkpt><trkpt lat="45.76977646581248" lon="9.424870113733288"><ele>202.0</ele><time>2026-04-09T11:33:20.001Z</time></trkpt><trkpt lat="45.76963029370878" lon="9.424861754378325"><ele>203.0</ele><time>2026-04-09T11:33:21.001Z</time></trkpt><trkpt lat="45.7694653037068" lon="9.42485061724494"><ele>202.66666666666669</ele><time>2026-04-09T11:33:22.001Z</time></trkpt><trkpt lat="45.76930110595631" lon="9.424841475869867"><ele>202.33333333333331</ele><time>2026-04-09T11:33:23.001Z</time></trkpt><trkpt lat="45.76913603863148" lon="9.42482603395621"><ele>202.0</ele><time>2026-04-09T11:33:24.001Z</time></trkpt><trkpt lat="45.76899143247652" lon="9.424808525179705"><ele>202.0</ele><time>2026-04-09T11:33:25.002Z</time></trkpt><trkpt lat="45.768846536086166" lon="9.424789378161732"><ele>202.0</ele><time>2026-04-09T11:33:26.002Z</time></trkpt><trkpt lat="45.768693270375884" lon="9.424774614280967"><ele>202.0</ele><time>2026-04-09T11:33:27.002Z</time></trkpt><trkpt lat="45.7685328786287" lon="9.42476353519128"><ele>201.66666666666666</ele><time>2026-04-09T11:33:28.002Z</time></trkpt><trkpt lat="45.76837199986848" lon="9.424750807010184"><ele>201.33333333333331</ele><time>2026-04-09T11:33:29.002Z</time></trkpt><trkpt lat="45.768208021208174" lon="9.424742413361336"><ele>201.0</ele><time>2026-04-09T11:33:30.002Z</time></trkpt><trkpt lat="45.768044123162944" lon="9.42473404625718"><ele>201.0</ele><time>2026-04-09T11:33:31.002Z</time></trkpt><trkpt lat="45.76788000787727" lon="9.424724885483466"><ele>201.0</ele><time>2026-04-09T11:33:32.002Z</time></trkpt><trkpt lat="45.7677164581584" lon="9.424726648721773"><ele>201.0</ele><time>2026-04-09T11:33:33.002Z</time></trkpt><trkpt lat="45.76755976469114" lon="9.424724091915447"><ele>201.66666666666669</ele><time>2026-04-09T11:33:34.002Z</time></trkpt><trkpt lat="45.767400115725025" lon="9.424737752860981"><ele>202.33333333333334</ele><time>2026-04-09T11:33:35.002Z</time></trkpt><trkpt lat="45.76723983230379" lon="9.424758959454953"><ele>203.0</ele><time>2026-04-09T11:33:36.002Z</time></trkpt><trkpt lat="45.76708261342373" lon="9.4247940249092"><ele>203.0</ele><time>2026-04-09T11:33:37.002Z</time></trkpt><trkpt lat="45.76693702232405" lon="9.42483017812823"><ele>203.0</ele><time>2026-04-09T11:33:38.002Z</time></trkpt><trkpt lat="45.76679636325658" lon="9.424874978288518"><ele>203.0</ele><time>2026-04-09T11:33:39.002Z</time></trkpt><trkpt lat="45.766659365500935" lon="9.42493342273874"><ele>203.0</ele><time>2026-04-09T11:33:40.002Z</time></trkpt><trkpt lat="45.76652018471273" lon="9.42499560399229"><ele>203.75</ele><time>2026-04-09T11:33:41.002Z</time></trkpt><trkpt lat="45.766390732324744" lon="9.42505359297493"><ele>204.5</ele><time>2026-04-09T11:33:42.002Z</time></trkpt><trkpt lat="45.76626721018233" lon="9.425096922353173"><ele>205.25</ele><time>2026-04-09T11:33:43.002Z</time></trkpt><trkpt lat="45.76614003269483" lon="9.425156298385454"><ele>206.0</ele><time>2026-04-09T11:33:44.002Z</time></trkpt><trkpt lat="45.76601888827578" lon="9.425192390598953"><ele>208.0</ele><time>2026-04-09T11:33:45.002Z</time></trkpt><trkpt lat="45.765899136610166" lon="9.425214023688492"><ele>210.0</ele><time>2026-04-09T11:33:46.002Z</time></trkpt><trkpt lat="45.76576863204024" lon="9.425276011113949"><ele>212.0</ele><time>2026-04-09T11:33:47.002Z</time></trkpt><trkpt lat="45.76563559014815" lon="9.425342842183868"><ele>214.0</ele><time>2026-04-09T11:33:48.002Z</time></trkpt><trkpt lat="45.76550713494923" lon="9.425399863207737"><ele>214.0</ele><time>2026-04-09T11:33:49.002Z</time></trkpt><trkpt lat="45.76537245787487" lon="9.425464096623736"><ele>214.0</ele><time>2026-04-09T11:33:50.002Z</time></trkpt><trkpt lat="45.76524095847218" lon="9.425519379640294"><ele>214.0</ele><time>2026-04-09T11:33:51.002Z</time></trkpt><trkpt lat="45.76511231859283" lon="9.42556626645486"><ele>214.0</ele><time>2026-04-09T11:33:52.002Z</time></trkpt><trkpt lat="45.76498435400562" lon="9.425621212972658"><ele>211.25</ele><time>2026-04-09T11:33:53.002Z</time></trkpt><trkpt lat="45.76485632902243" lon="9.425670007045596"><ele>208.5</ele><time>2026-04-09T11:33:54.002Z</time></trkpt><trkpt lat="45.76472680863049" lon="9.42572895895999"><ele>205.75</ele><time>2026-04-09T11:33:55.002Z</time></trkpt><trkpt lat="45.764588088731465" lon="9.425789493262034"><ele>203.0</ele><time>2026-04-09T11:33:56.002Z</time></trkpt><trkpt lat="45.764456088084636" lon="9.425849395826294"><ele>205.5</ele><time>2026-04-09T11:33:57.002Z</time></trkpt><trkpt lat="45.76432076722458" lon="9.425907812877616"><ele>208.0</ele><time>2026-04-09T11:33:58.003Z</time></trkpt><trkpt lat="45.76417840464921" lon="9.42596753940049"><ele>210.5</ele><time>2026-04-09T11:33:59.003Z</time></trkpt><trkpt lat="45.7640403805903" lon="9.426017523081928"><ele>213.0</ele><time>2026-04-09T11:34:00.003Z</time></trkpt><trkpt lat="45.76390833195775" lon="9.426084798169112"><ele>213.0</ele><time>2026-04-09T11:34:01.003Z</time></trkpt><trkpt lat="45.76377968002305" lon="9.42613542773335"><ele>213.0</ele><time>2026-04-09T11:34:02.003Z</time></trkpt><trkpt lat="45.76364593013179" lon="9.426188315573645"><ele>213.0</ele><time>2026-04-09T11:34:03.003Z</time></trkpt><trkpt lat="45.76351426853043" lon="9.426228799449092"><ele>213.0</ele><time>2026-04-09T11:34:04.003Z</time></trkpt><trkpt lat="45.76337614267329" lon="9.426281424487394"><ele>211.0</ele><time>2026-04-09T11:34:05.003Z</time></trkpt><trkpt lat="45.76322992856414" lon="9.4263356124931"><ele>209.0</ele><time>2026-04-09T11:34:06.003Z</time></trkpt><trkpt lat="45.76309315390375" lon="9.426393598919278"><ele>207.0</ele><time>2026-04-09T11:34:07.003Z</time></trkpt><trkpt lat="45.76294086082091" lon="9.42643818657547"><ele>205.0</ele><time>2026-04-09T11:34:08.003Z</time></trkpt><trkpt lat="45.76278689340684" lon="9.426473692824656"><ele>208.33333333333331</ele><time>2026-04-09T11:34:09.003Z</time></trkpt><trkpt lat="45.76263092923003" lon="9.426496711123864"><ele>211.66666666666669</ele><time>2026-04-09T11:34:10.003Z</time></trkpt><trkpt lat="45.76247576806518" lon="9.426519633815003"><ele>215.0</ele><time>2026-04-09T11:34:11.003Z</time></trkpt><trkpt lat="45.76232568039868" lon="9.426531708396187"><ele>215.0</ele><time>2026-04-09T11:34:12.003Z</time></trkpt><trkpt lat="45.76218002737473" lon="9.426537780890692"><ele>215.0</ele><time>2026-04-09T11:34:13.003Z</time></trkpt><trkpt lat="45.76203531575838" lon="9.42655486005467"><ele>215.0</ele><time>2026-04-09T11:34:14.003Z</time></trkpt><trkpt lat="45.761882684708766" lon="9.426572948281322"><ele>215.0</ele><time>2026-04-09T11:34:15.003Z</time></trkpt><trkpt lat="45.76172265412046" lon="9.426570284720219"><ele>213.66666666666669</ele><time>2026-04-09T11:34:16.003Z</time></trkpt><trkpt lat="45.76156665424303" lon="9.42660434216166"><ele>212.33333333333331</ele><time>2026-04-09T11:34:17.003Z</time></trkpt><trkpt lat="45.76141397138804" lon="9.426617070619578"><ele>211.0</ele><time>2026-04-09T11:34:18.003Z</time></trkpt><trkpt lat="45.76126497986188" lon="9.426607499894233"><ele>211.0</ele><time>2026-04-09T11:34:19.003Z</time></trkpt><trkpt lat="45.76111645939146" lon="9.426619576646527"><ele>211.0</ele><time>2026-04-09T11:34:20.003Z</time></trkpt><trkpt lat="45.7609807663996" lon="9.426643662628447"><ele>211.0</ele><time>2026-04-09T11:34:21.003Z</time></trkpt><trkpt lat="45.76083929100446" lon="9.42665913302171"><ele>211.0</ele><time>2026-04-09T11:34:22.003Z</time></trkpt><trkpt lat="45.76070538946986" lon="9.426668069207766"><ele>210.75</ele><time>2026-04-09T11:34:23.003Z</time></trkpt><trkpt lat="45.76057969896783" lon="9.426675713378092"><ele>210.5</ele><time>2026-04-09T11:34:24.003Z</time></trkpt><trkpt lat="45.76043936561911" lon="9.42668896324629"><ele>210.25</ele><time>2026-04-09T11:34:25.003Z</time></trkpt><trkpt lat="45.76031550654933" lon="9.426700532957868"><ele>210.0</ele><time>2026-04-09T11:34:26.003Z</time></trkpt><trkpt lat="45.7602095093494" lon="9.42670734331477"><ele>210.8</ele><time>2026-04-09T11:34:27.003Z</time></trkpt><trkpt lat="45.760122590890624" lon="9.426714135785842"><ele>211.6</ele><time>2026-04-09T11:34:28.003Z</time></trkpt><trkpt lat="45.76001947074817" lon="9.426727141461672"><ele>212.39999999999998</ele><time>2026-04-09T11:34:29Z</time></trkpt><trkpt lat="45.75991626820204" lon="9.426729917517788"><ele>213.2</ele><time>2026-04-09T11:34:30Z</time></trkpt><trkpt lat="45.75980247500693" lon="9.426734408244412"><ele>214.0</ele><time>2026-04-09T11:34:31Z</time></trkpt><trkpt lat="45.759695071452974" lon="9.42673241963061"><ele>214.0</ele><time>2026-04-09T11:34:32Z</time></trkpt><trkpt lat="45.75958619258896" lon="9.42673440206031"><ele>214.0</ele><time>2026-04-09T11:34:33Z</time></trkpt><trkpt lat="45.759466684390695" lon="9.426728605281522"><ele>214.0</ele><time>2026-04-09T11:34:34Z</time></trkpt><trkpt lat="45.75933275541239" lon="9.426734006056964"><ele>214.0</ele><time>2026-04-09T11:34:35Z</time></trkpt><trkpt lat="45.75918669406556" lon="9.426741702982058"><ele>216.66666666666666</ele><time>2026-04-09T11:34:36Z</time></trkpt><trkpt lat="45.75902528570166" lon="9.426753257455992"><ele>219.33333333333331</ele><time>2026-04-09T11:34:37Z</time></trkpt><trkpt lat="45.75885441337161" lon="9.426759370501657"><ele>222.0</ele><time>2026-04-09T11:34:38Z</time></trkpt><trkpt lat="45.75867660262746" lon="9.426763272627321"><ele>218.66666666666669</ele><time>2026-04-09T11:34:39Z</time></trkpt><trkpt lat="45.758487739025085" lon="9.426759847709981"><ele>215.33333333333334</ele><time>2026-04-09T11:34:40Z</time></trkpt><trkpt lat="45.75829923999041" lon="9.426755550455473"><ele>212.0</ele><time>2026-04-09T11:34:41Z</time></trkpt><trkpt lat="45.758115336924654" lon="9.426751546920228"><ele>212.0</ele><time>2026-04-09T11:34:42Z</time></trkpt><trkpt lat="45.75794155551921" lon="9.42674610418868"><ele>212.0</ele><time>2026-04-09T11:34:43Z</time></trkpt><trkpt lat="45.75776121144641" lon="9.426738375603685"><ele>212.0</ele><time>2026-04-09T11:34:44Z</time></trkpt><trkpt lat="45.75757798217457" lon="9.426730400071808"><ele>212.0</ele><time>2026-04-09T11:34:45Z</time></trkpt><trkpt lat="45.75739651134721" lon="9.426716457444803"><ele>212.0</ele><time>2026-04-09T11:34:46Z</time></trkpt><trkpt lat="45.75721705006524" lon="9.426710828590863"><ele>212.0</ele><time>2026-04-09T11:34:47Z</time></trkpt><trkpt lat="45.75705097525281" lon="9.426703021149875"><ele>212.0</ele><time>2026-04-09T11:34:48Z</time></trkpt><trkpt lat="45.75690102272746" lon="9.426694725891112"><ele>212.0</ele><time>2026-04-09T11:34:49Z</time></trkpt><trkpt lat="45.756747751360386" lon="9.426692247798385"><ele>212.0</ele><time>2026-04-09T11:34:50Z</time></trkpt><trkpt lat="45.75659740508432" lon="9.426716025998685"><ele>213.2</ele><time>2026-04-09T11:34:51Z</time></trkpt><trkpt lat="45.75649207583799" lon="9.426705094813723"><ele>214.39999999999998</ele><time>2026-04-09T11:34:52Z</time></trkpt><trkpt lat="45.756369613064315" lon="9.426699217883192"><ele>215.60000000000002</ele><time>2026-04-09T11:34:53Z</time></trkpt><trkpt lat="45.75626656613289" lon="9.426700433121715"><ele>216.8</ele><time>2026-04-09T11:34:54Z</time></trkpt><trkpt lat="45.75617810365839" lon="9.426708627034417"><ele>218.0</ele><time>2026-04-09T11:34:55Z</time></trkpt><trkpt lat="45.756102464946714" lon="9.426713827127392"><ele>218.0</ele><time>2026-04-09T11:34:56Z</time></trkpt><trkpt lat="45.75600298994235" lon="9.426707486213969"><ele>218.0</ele><time>2026-04-09T11:34:58.001Z</time></trkpt><trkpt lat="45.75588516206296" lon="9.426666389579594"><ele>218.0</ele><time>2026-04-09T11:35:00.001Z</time></trkpt><trkpt lat="45.7557952248422" lon="9.426647826274978"><ele>218.0</ele><time>2026-04-09T11:35:01.001Z</time></trkpt><trkpt lat="45.75571782018886" lon="9.426652292362318"><ele>218.0</ele><time>2026-04-09T11:35:02.001Z</time></trkpt><trkpt lat="45.75562085612264" lon="9.426660222708023"><ele>218.0</ele><time>2026-04-09T11:35:03.001Z</time></trkpt><trkpt lat="45.75551745964211" lon="9.426654493703136"><ele>218.0</ele><time>2026-04-09T11:35:04.001Z</time></trkpt><trkpt lat="45.75540521265562" lon="9.426635828863626"><ele>218.0</ele><time>2026-04-09T11:35:05.001Z</time></trkpt><trkpt lat="45.755296524712996" lon="9.426630018938958"><ele>218.0</ele><time>2026-04-09T11:35:06.001Z</time></trkpt><trkpt lat="45.75519012174108" lon="9.426625359767655"><ele>218.0</ele><time>2026-04-09T11:35:07.001Z</time></trkpt><trkpt lat="45.755114682355284" lon="9.426614836438326"><ele>218.4</ele><time>2026-04-09T11:35:08.001Z</time></trkpt><trkpt lat="45.75505014719892" lon="9.426604410775038"><ele>218.8</ele><time>2026-04-09T11:35:09.001Z</time></trkpt><trkpt lat="45.754977704798534" lon="9.426591728272419"><ele>219.2</ele><time>2026-04-09T11:35:10.001Z</time></trkpt><trkpt lat="45.7548784567743" lon="9.426599405865502"><ele>219.6</ele><time>2026-04-09T11:35:11.001Z</time></trkpt><trkpt lat="45.75476216493782" lon="9.426604313007449"><ele>220.0</ele><time>2026-04-09T11:35:12.001Z</time></trkpt><trkpt lat="45.75465376326179" lon="9.426605532559828"><ele>220.0</ele><time>2026-04-09T11:35:13.001Z</time></trkpt><trkpt lat="45.754547538207355" lon="9.426608889140375"><ele>220.0</ele><time>2026-04-09T11:35:14.001Z</time></trkpt><trkpt lat="45.754427359039006" lon="9.42661070262773"><ele>220.0</ele><time>2026-04-09T11:35:15.001Z</time></trkpt><trkpt lat="45.75430316892472" lon="9.426604636120551"><ele>220.0</ele><time>2026-04-09T11:35:16.001Z</time></trkpt><trkpt lat="45.754166341866416" lon="9.426601142820957"><ele>219.5</ele><time>2026-04-09T11:35:17.001Z</time></trkpt><trkpt lat="45.75402590218243" lon="9.426591797426255"><ele>219.0</ele><time>2026-04-09T11:35:18.001Z</time></trkpt><trkpt lat="45.753883994941184" lon="9.426589590332618"><ele>218.5</ele><time>2026-04-09T11:35:19.001Z</time></trkpt><trkpt lat="45.7537592780341" lon="9.426578227363011"><ele>218.0</ele><time>2026-04-09T11:35:20.001Z</time></trkpt><trkpt lat="45.75363166157912" lon="9.426580965791471"><ele>217.5</ele><time>2026-04-09T11:35:21.001Z</time></trkpt><trkpt lat="45.75350403403364" lon="9.426571698621663"><ele>217.0</ele><time>2026-04-09T11:35:22.001Z</time></trkpt><trkpt lat="45.75337602184389" lon="9.426566288147445"><ele>216.5</ele><time>2026-04-09T11:35:23.001Z</time></trkpt><trkpt lat="45.75324516006857" lon="9.426559967066972"><ele>216.0</ele><time>2026-04-09T11:35:24.001Z</time></trkpt><trkpt lat="45.75311418609322" lon="9.426553390941107"><ele>216.0</ele><time>2026-04-09T11:35:25.001Z</time></trkpt><trkpt lat="45.75297834688375" lon="9.426545637262894"><ele>216.0</ele><time>2026-04-09T11:35:26.001Z</time></trkpt><trkpt lat="45.75284330432731" lon="9.426544775571468"><ele>216.0</ele><time>2026-04-09T11:35:27.001Z</time></trkpt><trkpt lat="45.7527031419384" lon="9.426543606977127"><ele>216.0</ele><time>2026-04-09T11:35:28.001Z</time></trkpt><trkpt lat="45.7525573079065" lon="9.426540909820309"><ele>215.33333333333331</ele><time>2026-04-09T11:35:29.001Z</time></trkpt><trkpt lat="45.752411250247505" lon="9.426539406750617"><ele>214.66666666666666</ele><time>2026-04-09T11:35:30.001Z</time></trkpt><trkpt lat="45.75225493966553" lon="9.426535368084844"><ele>214.0</ele><time>2026-04-09T11:35:31.002Z</time></trkpt><trkpt lat="45.752103116759024" lon="9.426531420357858"><ele>214.0</ele><time>2026-04-09T11:35:32.002Z</time></trkpt><trkpt lat="45.75194988487691" lon="9.426528279429414"><ele>214.0</ele><time>2026-04-09T11:35:33.002Z</time></trkpt><trkpt lat="45.751796491114696" lon="9.426523490719688"><ele>214.0</ele><time>2026-04-09T11:35:34.002Z</time></trkpt><trkpt lat="45.7516428308827" lon="9.426511317141285"><ele>212.66666666666666</ele><time>2026-04-09T11:35:35.002Z</time></trkpt><trkpt lat="45.7514867413602" lon="9.426499232589098"><ele>211.33333333333331</ele><time>2026-04-09T11:35:36.002Z</time></trkpt><trkpt lat="45.751330505704935" lon="9.426484774464672"><ele>210.0</ele><time>2026-04-09T11:35:37.002Z</time></trkpt><trkpt lat="45.75117452984842" lon="9.426469891757664"><ele>209.5</ele><time>2026-04-09T11:35:38.002Z</time></trkpt><trkpt lat="45.75102111974544" lon="9.426451995969328"><ele>209.0</ele><time>2026-04-09T11:35:39.002Z</time></trkpt><trkpt lat="45.75087164332582" lon="9.426446189280789"><ele>208.5</ele><time>2026-04-09T11:35:40.002Z</time></trkpt><trkpt lat="45.7507292428929" lon="9.426433051900371"><ele>208.0</ele><time>2026-04-09T11:35:41.002Z</time></trkpt><trkpt lat="45.75059773509675" lon="9.42641387777099"><ele>208.0</ele><time>2026-04-09T11:35:42.002Z</time></trkpt><trkpt lat="45.750458975147" lon="9.426388179757915"><ele>208.0</ele><time>2026-04-09T11:35:43.002Z</time></trkpt><trkpt lat="45.750317463383574" lon="9.42637799925823"><ele>208.0</ele><time>2026-04-09T11:35:44.002Z</time></trkpt><trkpt lat="45.75016343265567" lon="9.426385595637386"><ele>208.0</ele><time>2026-04-09T11:35:45.002Z</time></trkpt><trkpt lat="45.75000075245417" lon="9.426394984386201"><ele>208.33333333333331</ele><time>2026-04-09T11:35:46.002Z</time></trkpt><trkpt lat="45.74983511596526" lon="9.426398831314463"><ele>208.66666666666669</ele><time>2026-04-09T11:35:47.002Z</time></trkpt><trkpt lat="45.74966900834657" lon="9.426388663010107"><ele>209.0</ele><time>2026-04-09T11:35:48.002Z</time></trkpt><trkpt lat="45.74950426225605" lon="9.426370242298745"><ele>209.33333333333334</ele><time>2026-04-09T11:35:49.002Z</time></trkpt><trkpt lat="45.749334243935685" lon="9.426347838717813"><ele>209.66666666666669</ele><time>2026-04-09T11:35:50.002Z</time></trkpt><trkpt lat="45.7491685686819" lon="9.426327829445851"><ele>210.0</ele><time>2026-04-09T11:35:51.002Z</time></trkpt><trkpt lat="45.74902065967912" lon="9.426312191999887"><ele>211.0</ele><time>2026-04-09T11:35:52.002Z</time></trkpt><trkpt lat="45.74887076379745" lon="9.426299928856572"><ele>212.0</ele><time>2026-04-09T11:35:53.002Z</time></trkpt><trkpt lat="45.74872545075452" lon="9.426284930105167"><ele>213.0</ele><time>2026-04-09T11:35:54.002Z</time></trkpt><trkpt lat="45.74857259682792" lon="9.426270887323582"><ele>214.0</ele><time>2026-04-09T11:35:55.002Z</time></trkpt><trkpt lat="45.748413637398315" lon="9.42625742111394"><ele>214.33333333333331</ele><time>2026-04-09T11:35:56.002Z</time></trkpt><trkpt lat="45.74825132738556" lon="9.426241500147162"><ele>214.66666666666669</ele><time>2026-04-09T11:35:57.002Z</time></trkpt><trkpt lat="45.74808243431387" lon="9.426222282942291"><ele>215.0</ele><time>2026-04-09T11:35:58.002Z</time></trkpt><trkpt lat="45.74791340294447" lon="9.426202812921609"><ele>215.0</ele><time>2026-04-09T11:35:59.002Z</time></trkpt><trkpt lat="45.747747336229786" lon="9.426182434209082"><ele>215.0</ele><time>2026-04-09T11:36:00.002Z</time></trkpt><trkpt lat="45.74758043942247" lon="9.426160566199604"><ele>215.0</ele><time>2026-04-09T11:36:01.002Z</time></trkpt><trkpt lat="45.74741388633076" lon="9.426146814364634"><ele>216.0</ele><time>2026-04-09T11:36:02.002Z</time></trkpt><trkpt lat="45.74724782859814" lon="9.426132848049003"><ele>217.0</ele><time>2026-04-09T11:36:03.002Z</time></trkpt><trkpt lat="45.747079571152135" lon="9.42611420162363"><ele>218.0</ele><time>2026-04-09T11:36:04.002Z</time></trkpt><trkpt lat="45.74691423292276" lon="9.426093074506724"><ele>217.33333333333334</ele><time>2026-04-09T11:36:05.003Z</time></trkpt><trkpt lat="45.74674464388076" lon="9.426074057293677"><ele>216.66666666666669</ele><time>2026-04-09T11:36:06.003Z</time></trkpt><trkpt lat="45.74658378019838" lon="9.426055378173013"><ele>216.0</ele><time>2026-04-09T11:36:07.003Z</time></trkpt><trkpt lat="45.746420617538625" lon="9.426041142455464"><ele>216.0</ele><time>2026-04-09T11:36:08.003Z</time></trkpt><trkpt lat="45.74625995204899" lon="9.42601876553903"><ele>216.0</ele><time>2026-04-09T11:36:09.003Z</time></trkpt><trkpt lat="45.74609777099969" lon="9.425990185681298"><ele>216.0</ele><time>2026-04-09T11:36:10.003Z</time></trkpt><trkpt lat="45.74594263873152" lon="9.425944530084935"><ele>216.0</ele><time>2026-04-09T11:36:11.003Z</time></trkpt><trkpt lat="45.74578929499758" lon="9.425893516799137"><ele>216.0</ele><time>2026-04-09T11:36:12.003Z</time></trkpt><trkpt lat="45.745635571514214" lon="9.425834325803187"><ele>216.0</ele><time>2026-04-09T11:36:13.003Z</time></trkpt><trkpt lat="45.74549107579544" lon="9.425754156857735"><ele>216.0</ele><time>2026-04-09T11:36:14.003Z</time></trkpt><trkpt lat="45.745351387636624" lon="9.425671325655683"><ele>216.0</ele><time>2026-04-09T11:36:15.003Z</time></trkpt><trkpt lat="45.74521116217934" lon="9.42559701614264"><ele>216.0</ele><time>2026-04-09T11:36:16.003Z</time></trkpt><trkpt lat="45.74507588245996" lon="9.425519929567244"><ele>216.0</ele><time>2026-04-09T11:36:17.003Z</time></trkpt><trkpt lat="45.744949777079704" lon="9.425450451761177"><ele>217.5</ele><time>2026-04-09T11:36:18.003Z</time></trkpt><trkpt lat="45.744825909647226" lon="9.425386330075279"><ele>219.0</ele><time>2026-04-09T11:36:19.003Z</time></trkpt><trkpt lat="45.74469808155688" lon="9.425318994647554"><ele>220.5</ele><time>2026-04-09T11:36:20.003Z</time></trkpt><trkpt lat="45.744577909216204" lon="9.4252519106824"><ele>222.0</ele><time>2026-04-09T11:36:21.003Z</time></trkpt><trkpt lat="45.74445759558231" lon="9.425182936621653"><ele>221.0</ele><time>2026-04-09T11:36:22.003Z</time></trkpt><trkpt lat="45.744329499405296" lon="9.42511310109966"><ele>220.0</ele><time>2026-04-09T11:36:23.003Z</time></trkpt><trkpt lat="45.74420208515382" lon="9.425046051851375"><ele>219.0</ele><time>2026-04-09T11:36:24.003Z</time></trkpt><trkpt lat="45.744076915697164" lon="9.424975971821397"><ele>218.0</ele><time>2026-04-09T11:36:25.003Z</time></trkpt><trkpt lat="45.74395541863097" lon="9.42491062149378"><ele>218.0</ele><time>2026-04-09T11:36:26.003Z</time></trkpt><trkpt lat="45.743836958139944" lon="9.42484346142377"><ele>218.0</ele><time>2026-04-09T11:36:27.003Z</time></trkpt><trkpt lat="45.74372516978662" lon="9.424775494044857"><ele>218.0</ele><time>2026-04-09T11:36:28.003Z</time></trkpt><trkpt lat="45.74361289458286" lon="9.424711949545838"><ele>218.0</ele><time>2026-04-09T11:36:29.003Z</time></trkpt><trkpt lat="45.743508115557276" lon="9.424651608320326"><ele>219.4</ele><time>2026-04-09T11:36:30.003Z</time></trkpt><trkpt lat="45.743403543696644" lon="9.424590210414065"><ele>220.8</ele><time>2026-04-09T11:36:31.003Z</time></trkpt><trkpt lat="45.74330010181515" lon="9.424534953338442"><ele>222.2</ele><time>2026-04-09T11:36:32.003Z</time></trkpt><trkpt lat="45.74319505420411" lon="9.424463601461305"><ele>223.6</ele><time>2026-04-09T11:36:33.003Z</time></trkpt><trkpt lat="45.74309038239668" lon="9.424418833598384"><ele>225.0</ele><time>2026-04-09T11:36:34.003Z</time></trkpt><trkpt lat="45.74298436359614" lon="9.424358917263888"><ele>225.0</ele><time>2026-04-09T11:36:35Z</time></trkpt><trkpt lat="45.742879367616204" lon="9.424297395106532"><ele>225.0</ele><time>2026-04-09T11:36:36Z</time></trkpt><trkpt lat="45.74277952301365" lon="9.42423641691399"><ele>225.0</ele><time>2026-04-09T11:36:37Z</time></trkpt><trkpt lat="45.7426778568729" lon="9.424180413617698"><ele>225.0</ele><time>2026-04-09T11:36:38Z</time></trkpt><trkpt lat="45.74257510604905" lon="9.424127451761912"><ele>225.0</ele><time>2026-04-09T11:36:39Z</time></trkpt><trkpt lat="45.74246966467628" lon="9.424069838665984"><ele>222.75</ele><time>2026-04-09T11:36:40Z</time></trkpt><trkpt lat="45.74236263068482" lon="9.424012728831872"><ele>220.5</ele><time>2026-04-09T11:36:41Z</time></trkpt><trkpt lat="45.742252127965706" lon="9.423948073988226"><ele>218.25</ele><time>2026-04-09T11:36:42Z</time></trkpt><trkpt lat="45.74214137055671" lon="9.423886915064521"><ele>216.0</ele><time>2026-04-09T11:36:43Z</time></trkpt><trkpt lat="45.742031104300935" lon="9.423821581881315"><ele>216.75</ele><time>2026-04-09T11:36:44Z</time></trkpt><trkpt lat="45.741923973013364" lon="9.423755430898623"><ele>217.5</ele><time>2026-04-09T11:36:45Z</time></trkpt><trkpt lat="45.74182574625636" lon="9.423693747544965"><ele>218.25</ele><time>2026-04-09T11:36:46Z</time></trkpt><trkpt lat="45.74172721476335" lon="9.423622804239065"><ele>219.0</ele><time>2026-04-09T11:36:47Z</time></trkpt><trkpt lat="45.741625061983825" lon="9.42354505461141"><ele>219.0</ele><time>2026-04-09T11:36:48Z</time></trkpt><trkpt lat="45.741521466646276" lon="9.423469940233163"><ele>219.0</ele><time>2026-04-09T11:36:49Z</time></trkpt><trkpt lat="45.741419937271274" lon="9.423393518333363"><ele>219.0</ele><time>2026-04-09T11:36:50Z</time></trkpt><trkpt lat="45.74132161543679" lon="9.423317268813147"><ele>219.0</ele><time>2026-04-09T11:36:51Z</time></trkpt><trkpt lat="45.741223427219545" lon="9.423241252877718"><ele>219.0</ele><time>2026-04-09T11:36:52Z</time></trkpt><trkpt lat="45.741118858771564" lon="9.423163865380735"><ele>219.0</ele><time>2026-04-09T11:36:53Z</time></trkpt><trkpt lat="45.741010138587974" lon="9.423087409299406"><ele>219.0</ele><time>2026-04-09T11:36:54Z</time></trkpt><trkpt lat="45.74090236676312" lon="9.423006214387044"><ele>219.0</ele><time>2026-04-09T11:36:55Z</time></trkpt><trkpt lat="45.740791170876356" lon="9.422919062507539"><ele>219.75</ele><time>2026-04-09T11:36:56Z</time></trkpt><trkpt lat="45.740685460991145" lon="9.422829386331953"><ele>220.5</ele><time>2026-04-09T11:36:57Z</time></trkpt><trkpt lat="45.7405813200167" lon="9.422745928074217"><ele>221.25</ele><time>2026-04-09T11:36:58Z</time></trkpt><trkpt lat="45.740476311291545" lon="9.422670326470861"><ele>222.0</ele><time>2026-04-09T11:36:59Z</time></trkpt><trkpt lat="45.74037856518573" lon="9.422593993330462"><ele>222.0</ele><time>2026-04-09T11:37:00Z</time></trkpt><trkpt lat="45.74028550947397" lon="9.4225189502796"><ele>222.0</ele><time>2026-04-09T11:37:01Z</time></trkpt><trkpt lat="45.74019563050348" lon="9.422448070246201"><ele>222.0</ele><time>2026-04-09T11:37:02Z</time></trkpt><trkpt lat="45.740101874797055" lon="9.422376377592586"><ele>222.0</ele><time>2026-04-09T11:37:03.001Z</time></trkpt><trkpt lat="45.74001194699258" lon="9.422303716885565"><ele>222.0</ele><time>2026-04-09T11:37:04.001Z</time></trkpt><trkpt lat="45.739919943420794" lon="9.422230571577035"><ele>221.6</ele><time>2026-04-09T11:37:05.001Z</time></trkpt><trkpt lat="45.73982694263964" lon="9.422164944749442"><ele>221.2</ele><time>2026-04-09T11:37:06.001Z</time></trkpt><trkpt lat="45.739744557603785" lon="9.422103550521076"><ele>220.8</ele><time>2026-04-09T11:37:07.001Z</time></trkpt><trkpt lat="45.73966237742237" lon="9.422044203269685"><ele>220.4</ele><time>2026-04-09T11:37:08.001Z</time></trkpt><trkpt lat="45.7395837693693" lon="9.421976253178821"><ele>220.0</ele><time>2026-04-09T11:37:09.001Z</time></trkpt><trkpt lat="45.739489702479666" lon="9.421908397454498"><ele>220.0</ele><time>2026-04-09T11:37:10.001Z</time></trkpt><trkpt lat="45.73940582543831" lon="9.421841851131695"><ele>220.0</ele><time>2026-04-09T11:37:11.001Z</time></trkpt><trkpt lat="45.73933134084463" lon="9.42178496401192"><ele>220.0</ele><time>2026-04-09T11:37:12.001Z</time></trkpt><trkpt lat="45.739255140916995" lon="9.42172388556527"><ele>220.0</ele><time>2026-04-09T11:37:13.001Z</time></trkpt><trkpt lat="45.73917620697074" lon="9.421655598134688"><ele>220.0</ele><time>2026-04-09T11:37:14.001Z</time></trkpt><trkpt lat="45.739092509277185" lon="9.421587966145612"><ele>220.0</ele><time>2026-04-09T11:37:15.001Z</time></trkpt><trkpt lat="45.739007779331935" lon="9.421521713217473"><ele>220.0</ele><time>2026-04-09T11:37:16.001Z</time></trkpt><trkpt lat="45.738923106408926" lon="9.421454326513368"><ele>220.0</ele><time>2026-04-09T11:37:17.001Z</time></trkpt><trkpt lat="45.73881936613184" lon="9.421380210701486"><ele>220.0</ele><time>2026-04-09T11:37:18.001Z</time></trkpt><trkpt lat="45.73871424259118" lon="9.421306891280505"><ele>220.0</ele><time>2026-04-09T11:37:19.001Z</time></trkpt><trkpt lat="45.73860866473527" lon="9.42122799372497"><ele>219.75</ele><time>2026-04-09T11:37:20.001Z</time></trkpt><trkpt lat="45.73850695915673" lon="9.421147689203147"><ele>219.5</ele><time>2026-04-09T11:37:21.001Z</time></trkpt><trkpt lat="45.738408252695926" lon="9.421067771208824"><ele>219.25</ele><time>2026-04-09T11:37:22.001Z</time></trkpt><trkpt lat="45.7383092508824" lon="9.42098952741792"><ele>219.0</ele><time>2026-04-09T11:37:23.001Z</time></trkpt><trkpt lat="45.738211540207715" lon="9.420912857233802"><ele>219.0</ele><time>2026-04-09T11:37:24.001Z</time></trkpt><trkpt lat="45.73810900669276" lon="9.42083227961189"><ele>219.0</ele><time>2026-04-09T11:37:25.001Z</time></trkpt><trkpt lat="45.738006156643245" lon="9.420748776921904"><ele>219.0</ele><time>2026-04-09T11:37:26.001Z</time></trkpt><trkpt lat="45.7379003169889" lon="9.42066447768308"><ele>219.0</ele><time>2026-04-09T11:37:27.001Z</time></trkpt><trkpt lat="45.73779329331168" lon="9.420577925308669"><ele>218.75</ele><time>2026-04-09T11:37:28.001Z</time></trkpt><trkpt lat="45.73768007559989" lon="9.420489259380277"><ele>218.5</ele><time>2026-04-09T11:37:29.001Z</time></trkpt><trkpt lat="45.73756435537672" lon="9.420398126203269"><ele>218.25</ele><time>2026-04-09T11:37:30.001Z</time></trkpt><trkpt lat="45.73744257897683" lon="9.420305675830726"><ele>218.0</ele><time>2026-04-09T11:37:31.001Z</time></trkpt><trkpt lat="45.737323778924406" lon="9.42021329543942"><ele>218.5</ele><time>2026-04-09T11:37:32.001Z</time></trkpt><trkpt lat="45.73719939150169" lon="9.420118600129525"><ele>219.0</ele><time>2026-04-09T11:37:33.001Z</time></trkpt><trkpt lat="45.73707467676211" lon="9.420023226922137"><ele>219.5</ele><time>2026-04-09T11:37:34.001Z</time></trkpt><trkpt lat="45.73695032801672" lon="9.419927958109412"><ele>220.0</ele><time>2026-04-09T11:37:35.001Z</time></trkpt><trkpt lat="45.73683025778059" lon="9.419836594916566"><ele>220.0</ele><time>2026-04-09T11:37:36.001Z</time></trkpt><trkpt lat="45.736718375617926" lon="9.419753025046962"><ele>220.0</ele><time>2026-04-09T11:37:37.001Z</time></trkpt><trkpt lat="45.736618509254285" lon="9.419677375543378"><ele>220.0</ele><time>2026-04-09T11:37:38.001Z</time></trkpt><trkpt lat="45.73650808091767" lon="9.419587574249366"><ele>220.0</ele><time>2026-04-09T11:37:39.002Z</time></trkpt><trkpt lat="45.73637818538296" lon="9.419482421604457"><ele>220.0</ele><time>2026-04-09T11:37:40.002Z</time></trkpt><trkpt lat="45.73623899666186" lon="9.419364066064094"><ele>220.0</ele><time>2026-04-09T11:37:41.002Z</time></trkpt><trkpt lat="45.736095446966374" lon="9.419257259555053"><ele>220.0</ele><time>2026-04-09T11:37:42.002Z</time></trkpt><trkpt lat="45.735967304891716" lon="9.419159318936977"><ele>220.0</ele><time>2026-04-09T11:37:43.002Z</time></trkpt><trkpt lat="45.73584961659188" lon="9.419071784745139"><ele>220.0</ele><time>2026-04-09T11:37:44.002Z</time></trkpt><trkpt lat="45.735744348457935" lon="9.418986975068325"><ele>220.0</ele><time>2026-04-09T11:37:45.002Z</time></trkpt><trkpt lat="45.73565010867097" lon="9.418906974499368"><ele>220.0</ele><time>2026-04-09T11:37:46.002Z</time></trkpt><trkpt lat="45.735561086471556" lon="9.418830157885761"><ele>219.99999999999997</ele><time>2026-04-09T11:37:47.002Z</time></trkpt><trkpt lat="45.735480600266726" lon="9.418765254414945"><ele>220.0</ele><time>2026-04-09T11:37:48.002Z</time></trkpt><trkpt lat="45.73540917591991" lon="9.418712892514787"><ele>220.0</ele><time>2026-04-09T11:37:49.002Z</time></trkpt><trkpt lat="45.735344301715955" lon="9.41866194407457"><ele>220.0</ele><time>2026-04-09T11:37:50.002Z</time></trkpt><trkpt lat="45.735284020221684" lon="9.418614379790055"><ele>219.99999999999997</ele><time>2026-04-09T11:37:51.002Z</time></trkpt><trkpt lat="45.73520917537328" lon="9.418532846263426"><ele>220.0</ele><time>2026-04-09T11:37:53.002Z</time></trkpt><trkpt lat="45.73512652083711" lon="9.418470268825157"><ele>220.8</ele><time>2026-04-09T11:37:56.002Z</time></trkpt><trkpt lat="45.735070140288" lon="9.418421809946077"><ele>221.6</ele><time>2026-04-09T11:37:57.002Z</time></trkpt><trkpt lat="45.73499428380149" lon="9.4183249642519"><ele>222.39999999999998</ele><time>2026-04-09T11:37:59.002Z</time></trkpt><trkpt lat="45.73494333403998" lon="9.418246525636102"><ele>223.2</ele><time>2026-04-09T11:38:02.002Z</time></trkpt><trkpt lat="45.734863323720624" lon="9.418093470829534"><ele>224.0</ele><time>2026-04-09T11:38:04.002Z</time></trkpt><trkpt lat="45.7347930884344" lon="9.417990252052748"><ele>223.79999999999998</ele><time>2026-04-09T11:38:05.002Z</time></trkpt><trkpt lat="45.73471528832843" lon="9.417935192373998"><ele>223.59999999999997</ele><time>2026-04-09T11:38:06.002Z</time></trkpt><trkpt lat="45.73461734311943" lon="9.417874749704033"><ele>223.4</ele><time>2026-04-09T11:38:07.002Z</time></trkpt><trkpt lat="45.734521893783736" lon="9.417770454583287"><ele>223.2</ele><time>2026-04-09T11:38:08.002Z</time></trkpt><trkpt lat="45.73442419412634" lon="9.417638173315122"><ele>223.0</ele><time>2026-04-09T11:38:09.002Z</time></trkpt><trkpt lat="45.734340330336735" lon="9.417522981103087"><ele>224.75</ele><time>2026-04-09T11:38:10.002Z</time></trkpt><trkpt lat="45.73425351328193" lon="9.41741753226727"><ele>226.5</ele><time>2026-04-09T11:38:11.002Z</time></trkpt><trkpt lat="45.734156190322594" lon="9.417314847134566"><ele>228.25</ele><time>2026-04-09T11:38:12.002Z</time></trkpt><trkpt lat="45.73404740383767" lon="9.417210428781795"><ele>230.0</ele><time>2026-04-09T11:38:13.002Z</time></trkpt><trkpt lat="45.733928922713396" lon="9.41711927079981"><ele>230.0</ele><time>2026-04-09T11:38:14.002Z</time></trkpt><trkpt lat="45.733802986300745" lon="9.41705271117074"><ele>230.0</ele><time>2026-04-09T11:38:15.003Z</time></trkpt><trkpt lat="45.73367374265738" lon="9.417016947395892"><ele>230.0</ele><time>2026-04-09T11:38:16.003Z</time></trkpt><trkpt lat="45.73354574122249" lon="9.417013081514858"><ele>230.0</ele><time>2026-04-09T11:38:17.003Z</time></trkpt><trkpt lat="45.733418218393126" lon="9.417034350964737"><ele>231.0</ele><time>2026-04-09T11:38:18.003Z</time></trkpt><trkpt lat="45.73329493864371" lon="9.417075886394418"><ele>232.0</ele><time>2026-04-09T11:38:19.003Z</time></trkpt><trkpt lat="45.733180178057395" lon="9.417135905788625"><ele>233.0</ele><time>2026-04-09T11:38:20.003Z</time></trkpt><trkpt lat="45.73307027074702" lon="9.417229586112006"><ele>234.0</ele><time>2026-04-09T11:38:21.003Z</time></trkpt><trkpt lat="45.73297249680878" lon="9.417337169647801"><ele>236.5</ele><time>2026-04-09T11:38:22.003Z</time></trkpt><trkpt lat="45.732886668523555" lon="9.41745977996129"><ele>239.0</ele><time>2026-04-09T11:38:23.003Z</time></trkpt><trkpt lat="45.73281413343105" lon="9.417592927529444"><ele>241.5</ele><time>2026-04-09T11:38:24.003Z</time></trkpt><trkpt lat="45.73275709024633" lon="9.417732103993606"><ele>244.0</ele><time>2026-04-09T11:38:25.003Z</time></trkpt><trkpt lat="45.73271960872463" lon="9.417882039320283"><ele>245.2</ele><time>2026-04-09T11:38:26.003Z</time></trkpt><trkpt lat="45.732701880878345" lon="9.418027267923046"><ele>246.39999999999998</ele><time>2026-04-09T11:38:27.003Z</time></trkpt><trkpt lat="45.7326921664591" lon="9.41817685085259"><ele>247.6</ele><time>2026-04-09T11:38:28.003Z</time></trkpt><trkpt lat="45.73268371893979" lon="9.4183179601878"><ele>248.8</ele><time>2026-04-09T11:38:29.003Z</time></trkpt><trkpt lat="45.73267610469827" lon="9.418438265176919"><ele>250.0</ele><time>2026-04-09T11:38:30.003Z</time></trkpt><trkpt lat="45.73266685321896" lon="9.418558153659449"><ele>249.99999999999997</ele><time>2026-04-09T11:38:31.003Z</time></trkpt><trkpt lat="45.73265651391034" lon="9.41867521476655"><ele>250.0</ele><time>2026-04-09T11:38:32.003Z</time></trkpt><trkpt lat="45.73263997266481" lon="9.41878331459565"><ele>250.0</ele><time>2026-04-09T11:38:33.003Z</time></trkpt><trkpt lat="45.73261999434269" lon="9.418889585189408"><ele>250.0</ele><time>2026-04-09T11:38:34.003Z</time></trkpt><trkpt lat="45.73259585249161" lon="9.4189956110793"><ele>249.99999999999997</ele><time>2026-04-09T11:38:35.003Z</time></trkpt><trkpt lat="45.73257150806829" lon="9.419102502396008"><ele>250.0</ele><time>2026-04-09T11:38:36.003Z</time></trkpt><trkpt lat="45.73254118471656" lon="9.419209351597965"><ele>250.49999999999997</ele><time>2026-04-09T11:38:37.003Z</time></trkpt><trkpt lat="45.7325047245635" lon="9.419318755852368"><ele>251.0</ele><time>2026-04-09T11:38:38.003Z</time></trkpt><trkpt lat="45.73246294973589" lon="9.419421491320518"><ele>251.5</ele><time>2026-04-09T11:38:39.003Z</time></trkpt><trkpt lat="45.73241205559966" lon="9.419524936795074"><ele>252.0</ele><time>2026-04-09T11:38:40.003Z</time></trkpt><trkpt lat="45.73235761807437" lon="9.419620398604316"><ele>252.49999999999997</ele><time>2026-04-09T11:38:41Z</time></trkpt><trkpt lat="45.7322953213862" lon="9.419704260818124"><ele>253.0</ele><time>2026-04-09T11:38:42Z</time></trkpt><trkpt lat="45.732220058846" lon="9.419775775184974"><ele>253.2</ele><time>2026-04-09T11:38:43Z</time></trkpt><trkpt lat="45.73212928982649" lon="9.419829250233828"><ele>253.4</ele><time>2026-04-09T11:38:44Z</time></trkpt><trkpt lat="45.73202763408387" lon="9.41985888585718"><ele>253.59999999999997</ele><time>2026-04-09T11:38:45Z</time></trkpt><trkpt lat="45.73192249323876" lon="9.419868330980865"><ele>253.79999999999998</ele><time>2026-04-09T11:38:46Z</time></trkpt><trkpt lat="45.73181826762232" lon="9.419854570393737"><ele>254.0</ele><time>2026-04-09T11:38:47Z</time></trkpt><trkpt lat="45.73171022164306" lon="9.4198236216408"><ele>253.5</ele><time>2026-04-09T11:38:48Z</time></trkpt><trkpt lat="45.73159882052293" lon="9.419774944043047"><ele>253.0</ele><time>2026-04-09T11:38:49Z</time></trkpt><trkpt lat="45.73147754902557" lon="9.419695423170381"><ele>252.5</ele><time>2026-04-09T11:38:50Z</time></trkpt><trkpt lat="45.73134777533097" lon="9.419577399639483"><ele>252.0</ele><time>2026-04-09T11:38:51Z</time></trkpt><trkpt lat="45.73121196069265" lon="9.419429424175448"><ele>252.0</ele><time>2026-04-09T11:38:52Z</time></trkpt><trkpt lat="45.73107670056284" lon="9.419273171699297"><ele>252.0</ele><time>2026-04-09T11:38:53Z</time></trkpt><trkpt lat="45.73094908019204" lon="9.419143725377369"><ele>252.0</ele><time>2026-04-09T11:38:54Z</time></trkpt><trkpt lat="45.73081079597457" lon="9.419009420764205"><ele>253.66666666666669</ele><time>2026-04-09T11:38:55Z</time></trkpt><trkpt lat="45.73066885874548" lon="9.418864307414927"><ele>255.33333333333334</ele><time>2026-04-09T11:38:56Z</time></trkpt><trkpt lat="45.730519611501514" lon="9.41871066412114"><ele>257.0</ele><time>2026-04-09T11:38:57Z</time></trkpt><trkpt lat="45.7303669807108" lon="9.418562604378746"><ele>259.0</ele><time>2026-04-09T11:38:58Z</time></trkpt><trkpt lat="45.730208932338996" lon="9.418417883881762"><ele>261.0</ele><time>2026-04-09T11:38:59Z</time></trkpt><trkpt lat="45.73006140638804" lon="9.418283566447563"><ele>263.0</ele><time>2026-04-09T11:39:00Z</time></trkpt><trkpt lat="45.72991296181419" lon="9.418156664990386"><ele>263.0</ele><time>2026-04-09T11:39:01Z</time></trkpt><trkpt lat="45.72975788682237" lon="9.418031273298826"><ele>263.0</ele><time>2026-04-09T11:39:02Z</time></trkpt><trkpt lat="45.72960882250441" lon="9.417877797842186"><ele>263.0</ele><time>2026-04-09T11:39:03Z</time></trkpt><trkpt lat="45.7294475739582" lon="9.417745587913407"><ele>264.0</ele><time>2026-04-09T11:39:04Z</time></trkpt><trkpt lat="45.72930116131218" lon="9.41756386994683"><ele>265.0</ele><time>2026-04-09T11:39:05Z</time></trkpt><trkpt lat="45.72916392968847" lon="9.417372688436672"><ele>266.0</ele><time>2026-04-09T11:39:06Z</time></trkpt><trkpt lat="45.72903758617562" lon="9.417170400338913"><ele>265.0</ele><time>2026-04-09T11:39:07Z</time></trkpt><trkpt lat="45.72891545091539" lon="9.416958523491122"><ele>264.0</ele><time>2026-04-09T11:39:08Z</time></trkpt><trkpt lat="45.72879140270662" lon="9.41674902852376"><ele>263.0</ele><time>2026-04-09T11:39:09Z</time></trkpt><trkpt lat="45.72865908747152" lon="9.416545416746157"><ele>264.33333333333337</ele><time>2026-04-09T11:39:10Z</time></trkpt><trkpt lat="45.72851585320646" lon="9.416366078927698"><ele>265.6666666666667</ele><time>2026-04-09T11:39:11Z</time></trkpt><trkpt lat="45.7283567786869" lon="9.416205542236868"><ele>267.0</ele><time>2026-04-09T11:39:12Z</time></trkpt><trkpt lat="45.72819194118018" lon="9.416064494934387"><ele>267.0</ele><time>2026-04-09T11:39:13Z</time></trkpt><trkpt lat="45.72802446310696" lon="9.41593847433456"><ele>267.0</ele><time>2026-04-09T11:39:14Z</time></trkpt><trkpt lat="45.72785885796539" lon="9.415827973294805"><ele>267.0</ele><time>2026-04-09T11:39:15.001Z</time></trkpt><trkpt lat="45.72770268438828" lon="9.415737008622731"><ele>268.5</ele><time>2026-04-09T11:39:16.001Z</time></trkpt><trkpt lat="45.72754686140168" lon="9.41566760324816"><ele>270.0</ele><time>2026-04-09T11:39:17.001Z</time></trkpt><trkpt lat="45.72740191073454" lon="9.415619918119685"><ele>271.5</ele><time>2026-04-09T11:39:18.001Z</time></trkpt><trkpt lat="45.727267921604195" lon="9.415586098434579"><ele>273.0</ele><time>2026-04-09T11:39:19.001Z</time></trkpt><trkpt lat="45.7271408624509" lon="9.415554162031823"><ele>273.0</ele><time>2026-04-09T11:39:20.001Z</time></trkpt><trkpt lat="45.72701133619026" lon="9.415527356404882"><ele>273.0</ele><time>2026-04-09T11:39:21.001Z</time></trkpt><trkpt lat="45.72689138885382" lon="9.415505480198778"><ele>273.0</ele><time>2026-04-09T11:39:22.001Z</time></trkpt><trkpt lat="45.726770169944594" lon="9.41549054923864"><ele>273.0</ele><time>2026-04-09T11:39:23.001Z</time></trkpt><trkpt lat="45.72664449982464" lon="9.415481313530503"><ele>274.5</ele><time>2026-04-09T11:39:24.001Z</time></trkpt><trkpt lat="45.72652077715701" lon="9.415469880715113"><ele>276.0</ele><time>2026-04-09T11:39:25.001Z</time></trkpt><trkpt lat="45.726392134745545" lon="9.415460950977025"><ele>277.5</ele><time>2026-04-09T11:39:26.001Z</time></trkpt><trkpt lat="45.7262652199602" lon="9.415466037000721"><ele>279.0</ele><time>2026-04-09T11:39:27.001Z</time></trkpt><trkpt lat="45.72614020738283" lon="9.415482736118074"><ele>279.25</ele><time>2026-04-09T11:39:28.001Z</time></trkpt><trkpt lat="45.72601924395399" lon="9.415500680754407"><ele>279.5</ele><time>2026-04-09T11:39:29.001Z</time></trkpt><trkpt lat="45.7259015333169" lon="9.415520992762971"><ele>279.75</ele><time>2026-04-09T11:39:30.001Z</time></trkpt><trkpt lat="45.72578773039774" lon="9.415552541001547"><ele>280.0</ele><time>2026-04-09T11:39:31.001Z</time></trkpt><trkpt lat="45.725689333475174" lon="9.415582691205843"><ele>280.0</ele><time>2026-04-09T11:39:32.001Z</time></trkpt><trkpt lat="45.72559530305824" lon="9.41561707438716"><ele>280.0</ele><time>2026-04-09T11:39:33.001Z</time></trkpt><trkpt lat="45.72550297197659" lon="9.415651371014146"><ele>280.0</ele><time>2026-04-09T11:39:34.001Z</time></trkpt><trkpt lat="45.725423175993676" lon="9.415689891386819"><ele>280.0</ele><time>2026-04-09T11:39:35.001Z</time></trkpt><trkpt lat="45.725350937801174" lon="9.41572211626918"><ele>280.0</ele><time>2026-04-09T11:39:36.001Z</time></trkpt><trkpt lat="45.72527719446749" lon="9.415754019849608"><ele>280.0</ele><time>2026-04-09T11:39:37.001Z</time></trkpt><trkpt lat="45.725209063350896" lon="9.415785171516006"><ele>280.66666666666663</ele><time>2026-04-09T11:39:38.001Z</time></trkpt><trkpt lat="45.725112715484606" lon="9.41583022306643"><ele>281.3333333333333</ele><time>2026-04-09T11:39:40.001Z</time></trkpt><trkpt lat="45.72501749946515" lon="9.415855988073433"><ele>282.0</ele><time>2026-04-09T11:39:43.001Z</time></trkpt><trkpt lat="45.72493855331706" lon="9.415856569735686"><ele>282.6666666666667</ele><time>2026-04-09T11:39:46.001Z</time></trkpt><trkpt lat="45.72484658211388" lon="9.415827459367515"><ele>283.33333333333337</ele><time>2026-04-09T11:39:49.002Z</time></trkpt><trkpt lat="45.72478002039255" lon="9.415849579136738"><ele>284.0</ele><time>2026-04-09T11:39:51.002Z</time></trkpt><trkpt lat="45.724669857240706" lon="9.415863020203075"><ele>284.0</ele><time>2026-04-09T11:39:53.002Z</time></trkpt><trkpt lat="45.72460909638235" lon="9.415837683582652"><ele>284.0</ele><time>2026-04-09T11:39:54.002Z</time></trkpt><trkpt lat="45.724550750693496" lon="9.415788302008673"><ele>284.0</ele><time>2026-04-09T11:39:55.002Z</time></trkpt><trkpt lat="45.72448321163024" lon="9.415738122768479"><ele>284.0</ele><time>2026-04-09T11:39:56.002Z</time></trkpt><trkpt lat="45.724429685269634" lon="9.415687433981528"><ele>284.0</ele><time>2026-04-09T11:39:57.002Z</time></trkpt><trkpt lat="45.72437218919342" lon="9.415630856447384"><ele>284.0</ele><time>2026-04-09T11:39:58.002Z</time></trkpt><trkpt lat="45.72431876009641" lon="9.41558065226175"><ele>284.0</ele><time>2026-04-09T11:39:59.002Z</time></trkpt><trkpt lat="45.72425349843133" lon="9.415519064214395"><ele>284.0</ele><time>2026-04-09T11:40:00.002Z</time></trkpt><trkpt lat="45.72418137871923" lon="9.415445904925932"><ele>284.0</ele><time>2026-04-09T11:40:01.002Z</time></trkpt><trkpt lat="45.72410250618829" lon="9.415367802343495"><ele>284.0</ele><time>2026-04-09T11:40:02.002Z</time></trkpt><trkpt lat="45.72401893019926" lon="9.415281516653396"><ele>284.0</ele><time>2026-04-09T11:40:03.002Z</time></trkpt><trkpt lat="45.72393694257851" lon="9.415199623580381"><ele>284.0</ele><time>2026-04-09T11:40:04.002Z</time></trkpt><trkpt lat="45.72386125127879" lon="9.415124620634817"><ele>284.0</ele><time>2026-04-09T11:40:05.002Z</time></trkpt><trkpt lat="45.7237894056467" lon="9.415051155331762"><ele>284.0</ele><time>2026-04-09T11:40:06.002Z</time></trkpt><trkpt lat="45.72371397893017" lon="9.41497325010044"><ele>284.0</ele><time>2026-04-09T11:40:07.002Z</time></trkpt><trkpt lat="45.72363627895696" lon="9.414894269651302"><ele>284.0</ele><time>2026-04-09T11:40:08.002Z</time></trkpt><trkpt lat="45.72355571687786" lon="9.414809809208908"><ele>284.0</ele><time>2026-04-09T11:40:09.002Z</time></trkpt><trkpt lat="45.72347307098586" lon="9.414724886502917"><ele>284.4</ele><time>2026-04-09T11:40:10.002Z</time></trkpt><trkpt lat="45.723387751690595" lon="9.414640817237002"><ele>284.79999999999995</ele><time>2026-04-09T11:40:11.002Z</time></trkpt><trkpt lat="45.72330804519322" lon="9.414556502966954"><ele>285.20000000000005</ele><time>2026-04-09T11:40:12.002Z</time></trkpt><trkpt lat="45.72322907824743" lon="9.414474670304381"><ele>285.6</ele><time>2026-04-09T11:40:13.002Z</time></trkpt><trkpt lat="45.723150983564516" lon="9.414390507947907"><ele>286.0</ele><time>2026-04-09T11:40:14.002Z</time></trkpt><trkpt lat="45.72306918653437" lon="9.414304408926473"><ele>286.0</ele><time>2026-04-09T11:40:15.002Z</time></trkpt><trkpt lat="45.7229902023905" lon="9.414220384636783"><ele>286.0</ele><time>2026-04-09T11:40:16.002Z</time></trkpt><trkpt lat="45.72291083707907" lon="9.414133508661601"><ele>286.0</ele><time>2026-04-09T11:40:17.002Z</time></trkpt><trkpt lat="45.72283400012378" lon="9.414051026636951"><ele>286.0</ele><time>2026-04-09T11:40:18.002Z</time></trkpt><trkpt lat="45.72276097036588" lon="9.413972329898877"><ele>286.0</ele><time>2026-04-09T11:40:19.002Z</time></trkpt><trkpt lat="45.7226908886955" lon="9.413895698319484"><ele>286.3333333333333</ele><time>2026-04-09T11:40:20.002Z</time></trkpt><trkpt lat="45.72262413602888" lon="9.413823973665156"><ele>286.66666666666663</ele><time>2026-04-09T11:40:21.002Z</time></trkpt><trkpt lat="45.722567906870104" lon="9.413763009295334"><ele>287.0</ele><time>2026-04-09T11:40:22.002Z</time></trkpt><trkpt lat="45.722515076734794" lon="9.413703905054252"><ele>287.3333333333333</ele><time>2026-04-09T11:40:23.002Z</time></trkpt><trkpt lat="45.722463978202754" lon="9.413650394566975"><ele>287.6666666666667</ele><time>2026-04-09T11:40:24.003Z</time></trkpt><trkpt lat="45.7223664270617" lon="9.413545091071546"><ele>288.0</ele><time>2026-04-09T11:40:26.003Z</time></trkpt><trkpt lat="45.72231601329354" lon="9.413490602143247"><ele>288.0</ele><time>2026-04-09T11:40:27.003Z</time></trkpt><trkpt lat="45.72222589970537" lon="9.41339599842672"><ele>288.0</ele><time>2026-04-09T11:40:29.003Z</time></trkpt><trkpt lat="45.722148505644384" lon="9.413318211032829"><ele>288.0</ele><time>2026-04-09T11:40:31.003Z</time></trkpt><trkpt lat="45.72204401273113" lon="9.413213856901358"><ele>288.0</ele><time>2026-04-09T11:40:33.003Z</time></trkpt><trkpt lat="45.721987501613604" lon="9.413162483443635"><ele>288.0</ele><time>2026-04-09T11:40:34.003Z</time></trkpt><trkpt lat="45.72192816813984" lon="9.41311235400337"><ele>288.4</ele><time>2026-04-09T11:40:35.003Z</time></trkpt><trkpt lat="45.721861341627786" lon="9.413051131660259"><ele>288.8</ele><time>2026-04-09T11:40:36.003Z</time></trkpt><trkpt lat="45.721784460276936" lon="9.412970563462544"><ele>289.2</ele><time>2026-04-09T11:40:37.003Z</time></trkpt><trkpt lat="45.721701895718404" lon="9.412870495073923"><ele>289.6</ele><time>2026-04-09T11:40:38.003Z</time></trkpt><trkpt lat="45.72162243438308" lon="9.412777308235862"><ele>290.0</ele><time>2026-04-09T11:40:39.003Z</time></trkpt><trkpt lat="45.721544074944205" lon="9.412687075022497"><ele>290.0</ele><time>2026-04-09T11:40:40.003Z</time></trkpt><trkpt lat="45.721462187359464" lon="9.412591085258546"><ele>290.0</ele><time>2026-04-09T11:40:41.003Z</time></trkpt><trkpt lat="45.72137277441309" lon="9.412496281492643"><ele>290.0</ele><time>2026-04-09T11:40:42.003Z</time></trkpt><trkpt lat="45.7212772382651" lon="9.412399581026559"><ele>290.0</ele><time>2026-04-09T11:40:43.003Z</time></trkpt><trkpt lat="45.72118520176691" lon="9.41230765975556"><ele>290.0</ele><time>2026-04-09T11:40:44.003Z</time></trkpt><trkpt lat="45.721092196809" lon="9.41221099642623"><ele>291.5</ele><time>2026-04-09T11:40:45.003Z</time></trkpt><trkpt lat="45.72100217757061" lon="9.41210950638458"><ele>293.0</ele><time>2026-04-09T11:40:46.003Z</time></trkpt><trkpt lat="45.720912979169555" lon="9.412013254470763"><ele>294.5</ele><time>2026-04-09T11:40:46.999Z</time></trkpt><trkpt lat="45.72082129890859" lon="9.411918795193962"><ele>296.0</ele><time>2026-04-09T11:40:47.999Z</time></trkpt><trkpt lat="45.72072796411237" lon="9.411823602293305"><ele>296.0</ele><time>2026-04-09T11:40:48.999Z</time></trkpt><trkpt lat="45.7206339365276" lon="9.411726973709651"><ele>296.0</ele><time>2026-04-09T11:40:49.999Z</time></trkpt><trkpt lat="45.72053665177479" lon="9.411634455286753"><ele>296.0</ele><time>2026-04-09T11:40:50.999Z</time></trkpt><trkpt lat="45.72043951672659" lon="9.411529945212548"><ele>296.0</ele><time>2026-04-09T11:40:51.999Z</time></trkpt><trkpt lat="45.720343599112525" lon="9.411432167599493"><ele>296.0</ele><time>2026-04-09T11:40:52.999Z</time></trkpt><trkpt lat="45.7202562771652" lon="9.411333049924957"><ele>296.0</ele><time>2026-04-09T11:40:53.999Z</time></trkpt><trkpt lat="45.72017136037931" lon="9.41124484754262"><ele>296.0</ele><time>2026-04-09T11:40:54.999Z</time></trkpt><trkpt lat="45.72008524954684" lon="9.411151257693808"><ele>296.0</ele><time>2026-04-09T11:40:55.999Z</time></trkpt><trkpt lat="45.71999210163084" lon="9.411055224806136"><ele>296.0</ele><time>2026-04-09T11:40:56.999Z</time></trkpt><trkpt lat="45.719897250564806" lon="9.410957371810252"><ele>296.0</ele><time>2026-04-09T11:40:57.999Z</time></trkpt><trkpt lat="45.719802922009485" lon="9.410859288328059"><ele>296.0</ele><time>2026-04-09T11:40:58.999Z</time></trkpt><trkpt lat="45.71971363100409" lon="9.410766161918344"><ele>296.0</ele><time>2026-04-09T11:40:59.999Z</time></trkpt><trkpt lat="45.71962132087864" lon="9.410667999028078"><ele>296.0</ele><time>2026-04-09T11:41:01Z</time></trkpt><trkpt lat="45.71952471720556" lon="9.410562887395567"><ele>295.75</ele><time>2026-04-09T11:41:02Z</time></trkpt><trkpt lat="45.71942930089922" lon="9.410463775945711"><ele>295.5</ele><time>2026-04-09T11:41:03Z</time></trkpt><trkpt lat="45.71933682681033" lon="9.410367284797127"><ele>295.25</ele><time>2026-04-09T11:41:04Z</time></trkpt><trkpt lat="45.719248674643566" lon="9.410272125535407"><ele>295.0</ele><time>2026-04-09T11:41:05Z</time></trkpt><trkpt lat="45.71916034933135" lon="9.410178993220761"><ele>295.8</ele><time>2026-04-09T11:41:06Z</time></trkpt><trkpt lat="45.71907428643029" lon="9.410085031981986"><ele>296.6</ele><time>2026-04-09T11:41:07Z</time></trkpt><trkpt lat="45.71898826505025" lon="9.409989689856937"><ele>297.4</ele><time>2026-04-09T11:41:08Z</time></trkpt><trkpt lat="45.71889440019181" lon="9.409892397238156"><ele>298.2</ele><time>2026-04-09T11:41:09Z</time></trkpt><trkpt lat="45.718799096123874" lon="9.409798935621174"><ele>299.0</ele><time>2026-04-09T11:41:10Z</time></trkpt><trkpt lat="45.718707536969255" lon="9.40970767208438"><ele>298.8</ele><time>2026-04-09T11:41:11Z</time></trkpt><trkpt lat="45.718618355201556" lon="9.409614980646912"><ele>298.59999999999997</ele><time>2026-04-09T11:41:12Z</time></trkpt><trkpt lat="45.718530681197784" lon="9.409522739456968"><ele>298.4</ele><time>2026-04-09T11:41:13Z</time></trkpt><trkpt lat="45.718444325041006" lon="9.409431115794066"><ele>298.2</ele><time>2026-04-09T11:41:14Z</time></trkpt><trkpt lat="45.71836018038217" lon="9.409341615377418"><ele>298.0</ele><time>2026-04-09T11:41:15Z</time></trkpt><trkpt lat="45.718276550674986" lon="9.409255581783098"><ele>298.0</ele><time>2026-04-09T11:41:16Z</time></trkpt><trkpt lat="45.7181940342435" lon="9.409168293478468"><ele>298.0</ele><time>2026-04-09T11:41:17Z</time></trkpt><trkpt lat="45.71811831840439" lon="9.409089554515383"><ele>298.0</ele><time>2026-04-09T11:41:18Z</time></trkpt><trkpt lat="45.718048456938455" lon="9.40901669662611"><ele>298.0</ele><time>2026-04-09T11:41:19Z</time></trkpt><trkpt lat="45.717981210592185" lon="9.408945788638556"><ele>298.0</ele><time>2026-04-09T11:41:20Z</time></trkpt><trkpt lat="45.717921305458965" lon="9.40888090369978"><ele>298.0</ele><time>2026-04-09T11:41:21Z</time></trkpt><trkpt lat="45.71786817674016" lon="9.40882795763059"><ele>297.8</ele><time>2026-04-09T11:41:22Z</time></trkpt><trkpt lat="45.71777144840685" lon="9.408737390563122"><ele>297.6</ele><time>2026-04-09T11:41:24Z</time></trkpt><trkpt lat="45.717683298865076" lon="9.408646971371393"><ele>297.4</ele><time>2026-04-09T11:41:26Z</time></trkpt><trkpt lat="45.71761514530828" lon="9.408589196807585"><ele>297.2</ele><time>2026-04-09T11:41:28.001Z</time></trkpt><trkpt lat="45.71755254356522" lon="9.408523866190064"><ele>297.0</ele><time>2026-04-09T11:41:30.001Z</time></trkpt><trkpt lat="45.71750911783954" lon="9.408422209738369"><ele>297.0</ele><time>2026-04-09T11:41:32.001Z</time></trkpt><trkpt lat="45.71748811415909" lon="9.408310914257317"><ele>297.0</ele><time>2026-04-09T11:41:34.001Z</time></trkpt><trkpt lat="45.717461307721294" lon="9.408186257664266"><ele>297.0</ele><time>2026-04-09T11:41:36.001Z</time></trkpt><trkpt lat="45.71740537718075" lon="9.408093983224266"><ele>297.0</ele><time>2026-04-09T11:41:38.001Z</time></trkpt><trkpt lat="45.71732184759568" lon="9.408081966433704"><ele>297.0</ele><time>2026-04-09T11:41:40.001Z</time></trkpt><trkpt lat="45.71726014528305" lon="9.408119155236449"><ele>297.0</ele><time>2026-04-09T11:41:41.001Z</time></trkpt><trkpt lat="45.71719744273652" lon="9.408168058512334"><ele>297.0</ele><time>2026-04-09T11:41:42.001Z</time></trkpt><trkpt lat="45.71705349255745" lon="9.408185413338154"><ele>297.0</ele><time>2026-04-09T11:41:44.001Z</time></trkpt><trkpt lat="45.716955626338546" lon="9.40817225678242"><ele>297.0</ele><time>2026-04-09T11:41:45.001Z</time></trkpt><trkpt lat="45.71683815374192" lon="9.408136155240179"><ele>297.0</ele><time>2026-04-09T11:41:46.001Z</time></trkpt><trkpt lat="45.71670868075163" lon="9.40809054934667"><ele>297.25</ele><time>2026-04-09T11:41:47.001Z</time></trkpt><trkpt lat="45.716589161974014" lon="9.408051896945855"><ele>297.5</ele><time>2026-04-09T11:41:48.001Z</time></trkpt><trkpt lat="45.71648796399352" lon="9.408014819145595"><ele>297.75</ele><time>2026-04-09T11:41:49.001Z</time></trkpt><trkpt lat="45.716367079790366" lon="9.407975582139677"><ele>298.0</ele><time>2026-04-09T11:41:50.001Z</time></trkpt><trkpt lat="45.71623795010089" lon="9.407928802082912"><ele>298.0</ele><time>2026-04-09T11:41:51.001Z</time></trkpt><trkpt lat="45.71609864362523" lon="9.407880968325065"><ele>298.0</ele><time>2026-04-09T11:41:52.001Z</time></trkpt><trkpt lat="45.715951451593504" lon="9.407833537692982"><ele>298.0</ele><time>2026-04-09T11:41:53.001Z</time></trkpt><trkpt lat="45.71581277941353" lon="9.407785850160371"><ele>298.0</ele><time>2026-04-09T11:41:54.001Z</time></trkpt><trkpt lat="45.715681385070255" lon="9.40773511142649"><ele>298.4</ele><time>2026-04-09T11:41:55.001Z</time></trkpt><trkpt lat="45.715552111364666" lon="9.407683609361767"><ele>298.8</ele><time>2026-04-09T11:41:56.001Z</time></trkpt><trkpt lat="45.71543460266451" lon="9.407640106518876"><ele>299.2</ele><time>2026-04-09T11:41:57.001Z</time></trkpt><trkpt lat="45.71533416010095" lon="9.407601990674399"><ele>299.6</ele><time>2026-04-09T11:41:58.001Z</time></trkpt><trkpt lat="45.715252076835085" lon="9.407568087966082"><ele>300.0</ele><time>2026-04-09T11:41:59.001Z</time></trkpt><trkpt lat="45.71518876766449" lon="9.40753271763808"><ele>300.2</ele><time>2026-04-09T11:42:00.002Z</time></trkpt><trkpt lat="45.71508605552426" lon="9.40746345486549"><ele>300.4</ele><time>2026-04-09T11:42:02.002Z</time></trkpt><trkpt lat="45.714979038725254" lon="9.407416550414089"><ele>300.6</ele><time>2026-04-09T11:42:04.002Z</time></trkpt><trkpt lat="45.714866702569715" lon="9.40737716080198"><ele>300.8</ele><time>2026-04-09T11:42:06.002Z</time></trkpt><trkpt lat="45.714804894457124" lon="9.40735168658022"><ele>301.0</ele><time>2026-04-09T11:42:07.002Z</time></trkpt><trkpt lat="45.71474144745851" lon="9.407324151728583"><ele>301.0</ele><time>2026-04-09T11:42:08.002Z</time></trkpt><trkpt lat="45.71467834543452" lon="9.407295370017941"><ele>301.0</ele><time>2026-04-09T11:42:09.002Z</time></trkpt><trkpt lat="45.71456224960276" lon="9.407244541279514"><ele>301.0</ele><time>2026-04-09T11:42:11.002Z</time></trkpt><trkpt lat="45.714450406210474" lon="9.407182989768943"><ele>301.0</ele><time>2026-04-09T11:42:13.002Z</time></trkpt><trkpt lat="45.71434906603725" lon="9.407120266611969"><ele>301.0</ele><time>2026-04-09T11:42:15.002Z</time></trkpt><trkpt lat="45.714254433270085" lon="9.40706696182918"><ele>300.8333333333333</ele><time>2026-04-09T11:42:17.002Z</time></trkpt><trkpt lat="45.714131904228644" lon="9.407015315509236"><ele>300.66666666666663</ele><time>2026-04-09T11:42:19.002Z</time></trkpt><trkpt lat="45.714062936288045" lon="9.406982999651119"><ele>300.5</ele><time>2026-04-09T11:42:20.002Z</time></trkpt><trkpt lat="45.713992718428436" lon="9.406949226983121"><ele>300.3333333333333</ele><time>2026-04-09T11:42:21.002Z</time></trkpt><trkpt lat="45.71391378693466" lon="9.406910410017595"><ele>300.1666666666667</ele><time>2026-04-09T11:42:22.002Z</time></trkpt><trkpt lat="45.71383131936904" lon="9.406869405817623"><ele>300.0</ele><time>2026-04-09T11:42:23.002Z</time></trkpt><trkpt lat="45.7137517849534" lon="9.406830275416757"><ele>300.0</ele><time>2026-04-09T11:42:24.002Z</time></trkpt><trkpt lat="45.713669079636794" lon="9.406788201448677"><ele>300.0</ele><time>2026-04-09T11:42:25.002Z</time></trkpt><trkpt lat="45.713588202976624" lon="9.406750253310673"><ele>300.0</ele><time>2026-04-09T11:42:26.002Z</time></trkpt><trkpt lat="45.71350501841756" lon="9.406709406588313"><ele>300.0</ele><time>2026-04-09T11:42:27.002Z</time></trkpt><trkpt lat="45.71341596714585" lon="9.406660461998646"><ele>300.0</ele><time>2026-04-09T11:42:28.002Z</time></trkpt><trkpt lat="45.71332914723753" lon="9.406622391739809"><ele>300.0</ele><time>2026-04-09T11:42:29.002Z</time></trkpt><trkpt lat="45.71323695611526" lon="9.40657023207649"><ele>300.6</ele><time>2026-04-09T11:42:30.002Z</time></trkpt><trkpt lat="45.71313103052303" lon="9.40651248517524"><ele>301.2</ele><time>2026-04-09T11:42:31.002Z</time></trkpt><trkpt lat="45.71302179699086" lon="9.406458904831892"><ele>301.8</ele><time>2026-04-09T11:42:32.002Z</time></trkpt><trkpt lat="45.712919370479916" lon="9.406419278477555"><ele>302.4</ele><time>2026-04-09T11:42:33.003Z</time></trkpt><trkpt lat="45.71283260887037" lon="9.406378169907278"><ele>303.0</ele><time>2026-04-09T11:42:34.003Z</time></trkpt><trkpt lat="45.71275507253162" lon="9.406337366053073"><ele>302.6</ele><time>2026-04-09T11:42:35.003Z</time></trkpt><trkpt lat="45.71268459320844" lon="9.406301400530534"><ele>302.20000000000005</ele><time>2026-04-09T11:42:36.003Z</time></trkpt><trkpt lat="45.71255510241301" lon="9.406244893954373"><ele>301.8</ele><time>2026-04-09T11:42:38.003Z</time></trkpt><trkpt lat="45.71247548606736" lon="9.40621698826714"><ele>301.40000000000003</ele><time>2026-04-09T11:42:39.003Z</time></trkpt><trkpt lat="45.71238816688792" lon="9.406190343274359"><ele>301.0</ele><time>2026-04-09T11:42:40.003Z</time></trkpt><trkpt lat="45.712297931992914" lon="9.406160785870382"><ele>301.0</ele><time>2026-04-09T11:42:41.003Z</time></trkpt><trkpt lat="45.71219869815058" lon="9.406136728216062"><ele>301.0</ele><time>2026-04-09T11:42:42.003Z</time></trkpt><trkpt lat="45.71209904551404" lon="9.406126820096746"><ele>301.0</ele><time>2026-04-09T11:42:43.003Z</time></trkpt><trkpt lat="45.71200335896382" lon="9.406120837484323"><ele>301.0</ele><time>2026-04-09T11:42:44.003Z</time></trkpt><trkpt lat="45.71191779391724" lon="9.40611394885737"><ele>301.0</ele><time>2026-04-09T11:42:45.003Z</time></trkpt><trkpt lat="45.71183343642207" lon="9.406113300267917"><ele>301.5</ele><time>2026-04-09T11:42:46.003Z</time></trkpt><trkpt lat="45.71175245542511" lon="9.40611878739669"><ele>302.0</ele><time>2026-04-09T11:42:47.003Z</time></trkpt><trkpt lat="45.711674332264" lon="9.406130881946732"><ele>302.5</ele><time>2026-04-09T11:42:48.003Z</time></trkpt><trkpt lat="45.71159811973835" lon="9.406142220451995"><ele>303.0</ele><time>2026-04-09T11:42:49.003Z</time></trkpt><trkpt lat="45.71149234332201" lon="9.406152566335114"><ele>303.5</ele><time>2026-04-09T11:42:51.003Z</time></trkpt><trkpt lat="45.71142188696578" lon="9.406160199500444"><ele>304.0</ele><time>2026-04-09T11:42:53.999Z</time></trkpt><trkpt lat="45.71134882973731" lon="9.406150047378105"><ele>304.0</ele><time>2026-04-09T11:42:55Z</time></trkpt><trkpt lat="45.711267601780214" lon="9.40614975508544"><ele>304.0</ele><time>2026-04-09T11:42:56Z</time></trkpt><trkpt lat="45.71120394449259" lon="9.406141016097424"><ele>304.0</ele><time>2026-04-09T11:42:57Z</time></trkpt><trkpt lat="45.71113276652325" lon="9.4060885159461"><ele>304.0</ele><time>2026-04-09T11:42:58Z</time></trkpt><trkpt lat="45.71107295223047" lon="9.406120293726811"><ele>304.0</ele><time>2026-04-09T11:42:59Z</time></trkpt><trkpt lat="45.71099153096842" lon="9.406185173332538"><ele>304.0</ele><time>2026-04-09T11:43:00Z</time></trkpt><trkpt lat="45.71091500412429" lon="9.406257389511634"><ele>305.25</ele><time>2026-04-09T11:43:01Z</time></trkpt><trkpt lat="45.71082611321765" lon="9.406344764571607"><ele>306.5</ele><time>2026-04-09T11:43:02Z</time></trkpt><trkpt lat="45.71072162273016" lon="9.406441402226713"><ele>307.75</ele><time>2026-04-09T11:43:03Z</time></trkpt><trkpt lat="45.71061571385254" lon="9.406535551803326"><ele>309.0</ele><time>2026-04-09T11:43:04Z</time></trkpt><trkpt lat="45.7105203813419" lon="9.406613488063954"><ele>309.0</ele><time>2026-04-09T11:43:05Z</time></trkpt><trkpt lat="45.710415153282874" lon="9.406703218506069"><ele>309.0</ele><time>2026-04-09T11:43:06Z</time></trkpt><trkpt lat="45.71030898987637" lon="9.406784825742381"><ele>309.0</ele><time>2026-04-09T11:43:07Z</time></trkpt><trkpt lat="45.71020319885754" lon="9.406862791030276"><ele>309.0</ele><time>2026-04-09T11:43:08Z</time></trkpt><trkpt lat="45.71009844068044" lon="9.40693941643011"><ele>309.25</ele><time>2026-04-09T11:43:09Z</time></trkpt><trkpt lat="45.709987808915564" lon="9.407028926562859"><ele>309.5</ele><time>2026-04-09T11:43:10Z</time></trkpt><trkpt lat="45.709870423429436" lon="9.407117865983158"><ele>309.75</ele><time>2026-04-09T11:43:11Z</time></trkpt><trkpt lat="45.70975212204929" lon="9.407213744385205"><ele>310.0</ele><time>2026-04-09T11:43:12Z</time></trkpt><trkpt lat="45.70964120476802" lon="9.407303127332247"><ele>310.0</ele><time>2026-04-09T11:43:13Z</time></trkpt><trkpt lat="45.70952204964595" lon="9.40739242394756"><ele>310.0</ele><time>2026-04-09T11:43:14Z</time></trkpt><trkpt lat="45.70939768034312" lon="9.407487991815806"><ele>310.0</ele><time>2026-04-09T11:43:15Z</time></trkpt><trkpt lat="45.70927932691842" lon="9.40758467306935"><ele>310.0</ele><time>2026-04-09T11:43:16Z</time></trkpt><trkpt lat="45.709154976154466" lon="9.40768855011677"><ele>309.25</ele><time>2026-04-09T11:43:17Z</time></trkpt><trkpt lat="45.7090311016802" lon="9.407788690361437"><ele>308.5</ele><time>2026-04-09T11:43:18Z</time></trkpt><trkpt lat="45.70890429565217" lon="9.407890139312261"><ele>307.75</ele><time>2026-04-09T11:43:19Z</time></trkpt><trkpt lat="45.70878009844156" lon="9.407991225730242"><ele>307.0</ele><time>2026-04-09T11:43:20Z</time></trkpt><trkpt lat="45.70865633596956" lon="9.40809165682926"><ele>306.5</ele><time>2026-04-09T11:43:21Z</time></trkpt><trkpt lat="45.70852041430085" lon="9.408200908208457"><ele>306.0</ele><time>2026-04-09T11:43:22Z</time></trkpt><trkpt lat="45.708396454230275" lon="9.40830666952817"><ele>305.5</ele><time>2026-04-09T11:43:23Z</time></trkpt><trkpt lat="45.70827187962982" lon="9.40841141955796"><ele>305.0</ele><time>2026-04-09T11:43:24Z</time></trkpt><trkpt lat="45.708151264884364" lon="9.408508942511428"><ele>305.0</ele><time>2026-04-09T11:43:25Z</time></trkpt><trkpt lat="45.708028238935164" lon="9.408609035106918"><ele>305.0</ele><time>2026-04-09T11:43:26Z</time></trkpt><trkpt lat="45.7079151195973" lon="9.408703835090698"><ele>305.0</ele><time>2026-04-09T11:43:27.001Z</time></trkpt><trkpt lat="45.70780876115293" lon="9.408789352090107"><ele>305.0</ele><time>2026-04-09T11:43:28.001Z</time></trkpt><trkpt lat="45.70770099145424" lon="9.408875469211777"><ele>304.0</ele><time>2026-04-09T11:43:29.001Z</time></trkpt><trkpt lat="45.7075833578221" lon="9.408964021143495"><ele>303.0</ele><time>2026-04-09T11:43:30.001Z</time></trkpt><trkpt lat="45.707472412586526" lon="9.409047965250517"><ele>302.0</ele><time>2026-04-09T11:43:31.001Z</time></trkpt><trkpt lat="45.707371142333244" lon="9.409126490943795"><ele>301.0</ele><time>2026-04-09T11:43:32.001Z</time></trkpt><trkpt lat="45.70727593860517" lon="9.409195992605355"><ele>301.0</ele><time>2026-04-09T11:43:33.001Z</time></trkpt><trkpt lat="45.70718492846643" lon="9.40927114087485"><ele>301.0</ele><time>2026-04-09T11:43:34.001Z</time></trkpt><trkpt lat="45.707093136414706" lon="9.409356672694118"><ele>301.0</ele><time>2026-04-09T11:43:35.001Z</time></trkpt><trkpt lat="45.70700571473723" lon="9.409420901724815"><ele>301.0</ele><time>2026-04-09T11:43:36.001Z</time></trkpt><trkpt lat="45.70692306519286" lon="9.409492387263239"><ele>301.0</ele><time>2026-04-09T11:43:37.001Z</time></trkpt><trkpt lat="45.70684882664128" lon="9.409557155168462"><ele>300.66666666666663</ele><time>2026-04-09T11:43:38.001Z</time></trkpt><trkpt lat="45.70677408395635" lon="9.409620917597389"><ele>300.3333333333333</ele><time>2026-04-09T11:43:39.001Z</time></trkpt><trkpt lat="45.706706005042086" lon="9.409680231820264"><ele>300.0</ele><time>2026-04-09T11:43:40.001Z</time></trkpt><trkpt lat="45.70664264819479" lon="9.409736951662515"><ele>299.6666666666667</ele><time>2026-04-09T11:43:41.001Z</time></trkpt><trkpt lat="45.70658398799376" lon="9.409790983285285"><ele>299.33333333333337</ele><time>2026-04-09T11:43:42.001Z</time></trkpt><trkpt lat="45.70649606669981" lon="9.409858661564149"><ele>299.0</ele><time>2026-04-09T11:43:44.001Z</time></trkpt><trkpt lat="45.70637397639101" lon="9.409920095127337"><ele>299.0</ele><time>2026-04-09T11:43:46.001Z</time></trkpt><trkpt lat="45.706292154880416" lon="9.409973004103257"><ele>299.0</ele><time>2026-04-09T11:43:47.001Z</time></trkpt><trkpt lat="45.70619984246914" lon="9.410060880001936"><ele>299.0</ele><time>2026-04-09T11:43:48.001Z</time></trkpt><trkpt lat="45.70609964647749" lon="9.410152003545669"><ele>299.0</ele><time>2026-04-09T11:43:49.001Z</time></trkpt><trkpt lat="45.70598806488586" lon="9.410238201387855"><ele>299.0</ele><time>2026-04-09T11:43:50.001Z</time></trkpt><trkpt lat="45.70587747861509" lon="9.410333711840817"><ele>298.0</ele><time>2026-04-09T11:43:51.001Z</time></trkpt><trkpt lat="45.70577408599654" lon="9.410421285411681"><ele>297.0</ele><time>2026-04-09T11:43:52.001Z</time></trkpt><trkpt lat="45.70566684124734" lon="9.410508892955278"><ele>296.0</ele><time>2026-04-09T11:43:53.001Z</time></trkpt><trkpt lat="45.705563259165714" lon="9.410588814460292"><ele>295.0</ele><time>2026-04-09T11:43:54.001Z</time></trkpt><trkpt lat="45.70546060573325" lon="9.410669610556788"><ele>295.0</ele><time>2026-04-09T11:43:55.001Z</time></trkpt><trkpt lat="45.70535356879574" lon="9.41075903682699"><ele>295.0</ele><time>2026-04-09T11:43:56.001Z</time></trkpt><trkpt lat="45.70523998562999" lon="9.410849101556042"><ele>295.0</ele><time>2026-04-09T11:43:57.002Z</time></trkpt><trkpt lat="45.70513044354603" lon="9.410939748472673"><ele>295.0</ele><time>2026-04-09T11:43:58.002Z</time></trkpt><trkpt lat="45.705017004505876" lon="9.411033705880008"><ele>295.0</ele><time>2026-04-09T11:43:59.002Z</time></trkpt><trkpt lat="45.70490209778824" lon="9.411123524645909"><ele>295.0</ele><time>2026-04-09T11:44:00.002Z</time></trkpt><trkpt lat="45.704779429255524" lon="9.41120547060918"><ele>295.0</ele><time>2026-04-09T11:44:01.002Z</time></trkpt><trkpt lat="45.70465689805818" lon="9.411284624454266"><ele>295.0</ele><time>2026-04-09T11:44:02.002Z</time></trkpt><trkpt lat="45.704526176073" lon="9.411358879801483"><ele>293.0</ele><time>2026-04-09T11:44:03.002Z</time></trkpt><trkpt lat="45.70438936511291" lon="9.411423612668191"><ele>291.0</ele><time>2026-04-09T11:44:04.002Z</time></trkpt><trkpt lat="45.70425571706254" lon="9.411464840803937"><ele>289.0</ele><time>2026-04-09T11:44:05.002Z</time></trkpt><trkpt lat="45.704118651843444" lon="9.411492484992298"><ele>287.0</ele><time>2026-04-09T11:44:06.002Z</time></trkpt><trkpt lat="45.70398217965895" lon="9.411508473241382"><ele>287.0</ele><time>2026-04-09T11:44:07.002Z</time></trkpt><trkpt lat="45.70384605332962" lon="9.411513829777181"><ele>287.0</ele><time>2026-04-09T11:44:08.002Z</time></trkpt><trkpt lat="45.7037072433792" lon="9.411508366854752"><ele>287.0</ele><time>2026-04-09T11:44:09.002Z</time></trkpt><trkpt lat="45.703566683706136" lon="9.411492086167202"><ele>287.0</ele><time>2026-04-09T11:44:10.002Z</time></trkpt><trkpt lat="45.70342410798425" lon="9.411455894302376"><ele>287.75</ele><time>2026-04-09T11:44:11.002Z</time></trkpt><trkpt lat="45.70328613132643" lon="9.411416977884796"><ele>288.5</ele><time>2026-04-09T11:44:12.002Z</time></trkpt><trkpt lat="45.70314855466528" lon="9.411367752633128"><ele>289.25</ele><time>2026-04-09T11:44:13.002Z</time></trkpt><trkpt lat="45.70301137504467" lon="9.411308950737336"><ele>290.0</ele><time>2026-04-09T11:44:14.002Z</time></trkpt><trkpt lat="45.702880625607264" lon="9.411232506069135"><ele>289.5</ele><time>2026-04-09T11:44:15.002Z</time></trkpt><trkpt lat="45.70274429688359" lon="9.41117942030845"><ele>289.0</ele><time>2026-04-09T11:44:16.002Z</time></trkpt><trkpt lat="45.702613680553924" lon="9.411122285123822"><ele>288.5</ele><time>2026-04-09T11:44:17.002Z</time></trkpt><trkpt lat="45.70248364695238" lon="9.411064035935505"><ele>288.0</ele><time>2026-04-09T11:44:18.002Z</time></trkpt><trkpt lat="45.70235654060969" lon="9.411002285695629"><ele>288.0</ele><time>2026-04-09T11:44:19.002Z</time></trkpt><trkpt lat="45.7022318759311" lon="9.410937428437528"><ele>288.0</ele><time>2026-04-09T11:44:20.002Z</time></trkpt><trkpt lat="45.70210775649856" lon="9.410866000322379"><ele>288.0</ele><time>2026-04-09T11:44:21.002Z</time></trkpt><trkpt lat="45.70198184568719" lon="9.410786685995932"><ele>288.0</ele><time>2026-04-09T11:44:22.002Z</time></trkpt><trkpt lat="45.70186059574335" lon="9.410702583459278"><ele>288.25</ele><time>2026-04-09T11:44:23.002Z</time></trkpt><trkpt lat="45.70173931566125" lon="9.410607384231431"><ele>288.5</ele><time>2026-04-09T11:44:24.002Z</time></trkpt><trkpt lat="45.70163018160525" lon="9.410510211924809"><ele>288.75</ele><time>2026-04-09T11:44:25.002Z</time></trkpt><trkpt lat="45.701522688236125" lon="9.410399484291938"><ele>289.0</ele><time>2026-04-09T11:44:26.002Z</time></trkpt><trkpt lat="45.70142626554527" lon="9.410293739385017"><ele>289.0</ele><time>2026-04-09T11:44:27.002Z</time></trkpt><trkpt lat="45.70133451456099" lon="9.410194338212026"><ele>289.0</ele><time>2026-04-09T11:44:28.002Z</time></trkpt><trkpt lat="45.701241534244936" lon="9.410084156205954"><ele>289.0</ele><time>2026-04-09T11:44:29.002Z</time></trkpt><trkpt lat="45.701143689781546" lon="9.40997543130753"><ele>289.0</ele><time>2026-04-09T11:44:30.003Z</time></trkpt><trkpt lat="45.701043300520176" lon="9.409862681551672"><ele>289.0</ele><time>2026-04-09T11:44:31.003Z</time></trkpt><trkpt lat="45.700947074037636" lon="9.40974621370439"><ele>289.0</ele><time>2026-04-09T11:44:32.003Z</time></trkpt><trkpt lat="45.70085350444693" lon="9.409639675619122"><ele>289.0</ele><time>2026-04-09T11:44:33.003Z</time></trkpt><trkpt lat="45.700767727276876" lon="9.40953577181541"><ele>289.0</ele><time>2026-04-09T11:44:34.003Z</time></trkpt><trkpt lat="45.70067643856065" lon="9.40943654880581"><ele>288.2</ele><time>2026-04-09T11:44:35.003Z</time></trkpt><trkpt lat="45.70059079023639" lon="9.409337478626183"><ele>287.4</ele><time>2026-04-09T11:44:36.003Z</time></trkpt><trkpt lat="45.700510460073" lon="9.409237461852308"><ele>286.6</ele><time>2026-04-09T11:44:37.003Z</time></trkpt><trkpt lat="45.70043405913038" lon="9.40914993898811"><ele>285.8</ele><time>2026-04-09T11:44:38.003Z</time></trkpt><trkpt lat="45.70037891397464" lon="9.409077336870032"><ele>285.0</ele><time>2026-04-09T11:44:39.003Z</time></trkpt><trkpt lat="45.70028696957092" lon="9.408984875193658"><ele>285.4</ele><time>2026-04-09T11:44:41.003Z</time></trkpt><trkpt lat="45.70020346228635" lon="9.40887696339405"><ele>285.8</ele><time>2026-04-09T11:44:43.003Z</time></trkpt><trkpt lat="45.70010290103281" lon="9.408757633015494"><ele>286.2</ele><time>2026-04-09T11:44:45.003Z</time></trkpt><trkpt lat="45.70004595192994" lon="9.40868331888302"><ele>286.6</ele><time>2026-04-09T11:44:46.003Z</time></trkpt><trkpt lat="45.699985870223614" lon="9.408606746825697"><ele>287.0</ele><time>2026-04-09T11:44:47.003Z</time></trkpt><trkpt lat="45.699919223008195" lon="9.408520839290249"><ele>287.0</ele><time>2026-04-09T11:44:49.003Z</time></trkpt><trkpt lat="45.69984619330909" lon="9.408420154865327"><ele>287.0</ele><time>2026-04-09T11:44:51.003Z</time></trkpt><trkpt lat="45.699763667063586" lon="9.408313935541264"><ele>287.0</ele><time>2026-04-09T11:44:53.003Z</time></trkpt><trkpt lat="45.69970263015342" lon="9.408234932049817"><ele>287.0</ele><time>2026-04-09T11:44:54.003Z</time></trkpt><trkpt lat="45.69963716920133" lon="9.408153488372365"><ele>287.0</ele><time>2026-04-09T11:44:55.003Z</time></trkpt><trkpt lat="45.6995864772192" lon="9.408077584547655"><ele>286.5</ele><time>2026-04-09T11:44:56.003Z</time></trkpt><trkpt lat="45.699522710666365" lon="9.407969555741504"><ele>286.0</ele><time>2026-04-09T11:44:58.003Z</time></trkpt><trkpt lat="45.69947051790932" lon="9.407890172136861"><ele>285.5</ele><time>2026-04-09T11:44:59.999Z</time></trkpt><trkpt lat="45.699396771386425" lon="9.407788133554872"><ele>285.0</ele><time>2026-04-09T11:45:01.999Z</time></trkpt><trkpt lat="45.69934176759923" lon="9.407718425897851"><ele>284.5</ele><time>2026-04-09T11:45:02.999Z</time></trkpt><trkpt lat="45.69928458956408" lon="9.407639893794077"><ele>284.0</ele><time>2026-04-09T11:45:03.999Z</time></trkpt><trkpt lat="45.69922568759574" lon="9.40755696586635"><ele>284.0</ele><time>2026-04-09T11:45:05Z</time></trkpt><trkpt lat="45.69917066122931" lon="9.407488291214923"><ele>284.0</ele><time>2026-04-09T11:45:06Z</time></trkpt><trkpt lat="45.699120200176495" lon="9.407409161891753"><ele>284.0</ele><time>2026-04-09T11:45:07Z</time></trkpt><trkpt lat="45.69906964787021" lon="9.407338797128268"><ele>284.0</ele><time>2026-04-09T11:45:08Z</time></trkpt><trkpt lat="45.69901833598955" lon="9.407270150053124"><ele>284.0</ele><time>2026-04-09T11:45:09Z</time></trkpt><trkpt lat="45.69894489991099" lon="9.407165779149317"><ele>284.0</ele><time>2026-04-09T11:45:11Z</time></trkpt><trkpt lat="45.69887594958121" lon="9.407073570490663"><ele>283.57142857142856</ele><time>2026-04-09T11:45:13Z</time></trkpt><trkpt lat="45.698822766990624" lon="9.407008295765031"><ele>283.1428571428571</ele><time>2026-04-09T11:45:14Z</time></trkpt><trkpt lat="45.69875712762017" lon="9.406929100381062"><ele>282.7142857142857</ele><time>2026-04-09T11:45:15Z</time></trkpt><trkpt lat="45.69869925580713" lon="9.406847031134483"><ele>282.2857142857143</ele><time>2026-04-09T11:45:16Z</time></trkpt><trkpt lat="45.69865846021829" lon="9.406769223809466"><ele>281.8571428571429</ele><time>2026-04-09T11:45:17Z</time></trkpt><trkpt lat="45.6986204653143" lon="9.406694741134034"><ele>281.42857142857144</ele><time>2026-04-09T11:45:20Z</time></trkpt><trkpt lat="45.69856039662115" lon="9.40663423454506"><ele>281.0</ele><time>2026-04-09T11:45:23Z</time></trkpt><trkpt lat="45.698518907450996" lon="9.406561881230225"><ele>280.83333333333337</ele><time>2026-04-09T11:45:24Z</time></trkpt><trkpt lat="45.69846290173437" lon="9.406495673581517"><ele>280.6666666666667</ele><time>2026-04-09T11:45:25Z</time></trkpt><trkpt lat="45.69840401744138" lon="9.40645167055814"><ele>280.5</ele><time>2026-04-09T11:45:26Z</time></trkpt><trkpt lat="45.69831994163123" lon="9.406404191646175"><ele>280.3333333333333</ele><time>2026-04-09T11:45:27Z</time></trkpt><trkpt lat="45.69823167292191" lon="9.406348595116915"><ele>280.16666666666663</ele><time>2026-04-09T11:45:28Z</time></trkpt><trkpt lat="45.69813675895433" lon="9.406270015426454"><ele>280.0</ele><time>2026-04-09T11:45:29Z</time></trkpt><trkpt lat="45.6980507183047" lon="9.406188854928269"><ele>279.6</ele><time>2026-04-09T11:45:30Z</time></trkpt><trkpt lat="45.69796523959757" lon="9.406101149611311"><ele>279.2</ele><time>2026-04-09T11:45:31.001Z</time></trkpt><trkpt lat="45.69787718235265" lon="9.406008706904641"><ele>278.8</ele><time>2026-04-09T11:45:32.001Z</time></trkpt><trkpt lat="45.69779512722721" lon="9.405919507551825"><ele>278.4</ele><time>2026-04-09T11:45:33.001Z</time></trkpt><trkpt lat="45.697710042896155" lon="9.405838645567814"><ele>278.0</ele><time>2026-04-09T11:45:34.001Z</time></trkpt><trkpt lat="45.697624657847356" lon="9.405753530685756"><ele>277.75</ele><time>2026-04-09T11:45:35.001Z</time></trkpt><trkpt lat="45.69753473083498" lon="9.405663626716098"><ele>277.5</ele><time>2026-04-09T11:45:36.001Z</time></trkpt><trkpt lat="45.69744138962435" lon="9.405565875619178"><ele>277.25</ele><time>2026-04-09T11:45:37.001Z</time></trkpt><trkpt lat="45.697348232683574" lon="9.40546832077787"><ele>277.0</ele><time>2026-04-09T11:45:38.001Z</time></trkpt><trkpt lat="45.697251084554324" lon="9.405349474363788"><ele>277.0</ele><time>2026-04-09T11:45:39.001Z</time></trkpt><trkpt lat="45.69715369196886" lon="9.405243267835761"><ele>277.0</ele><time>2026-04-09T11:45:40.001Z</time></trkpt><trkpt lat="45.69705549562103" lon="9.40512791435338"><ele>277.0</ele><time>2026-04-09T11:45:41.001Z</time></trkpt><trkpt lat="45.69696148172929" lon="9.405021296904648"><ele>277.0</ele><time>2026-04-09T11:45:42.001Z</time></trkpt><trkpt lat="45.696868435217574" lon="9.404925966980963"><ele>277.0</ele><time>2026-04-09T11:45:43.001Z</time></trkpt><trkpt lat="45.69677400254122" lon="9.404837692459857"><ele>277.0</ele><time>2026-04-09T11:45:44.001Z</time></trkpt><trkpt lat="45.69666480011603" lon="9.404751687131457"><ele>277.0</ele><time>2026-04-09T11:45:45.001Z</time></trkpt><trkpt lat="45.69655004074482" lon="9.404654316025884"><ele>277.0</ele><time>2026-04-09T11:45:46.001Z</time></trkpt><trkpt lat="45.696428489657016" lon="9.404543970852147"><ele>276.75</ele><time>2026-04-09T11:45:47.001Z</time></trkpt><trkpt lat="45.69631071207075" lon="9.40442715355451"><ele>276.5</ele><time>2026-04-09T11:45:48.001Z</time></trkpt><trkpt lat="45.696206768789104" lon="9.404326779798678"><ele>276.25</ele><time>2026-04-09T11:45:49.001Z</time></trkpt><trkpt lat="45.69611376968035" lon="9.404229090259777"><ele>276.0</ele><time>2026-04-09T11:45:50.001Z</time></trkpt><trkpt lat="45.69602569429502" lon="9.404148560120777"><ele>275.6</ele><time>2026-04-09T11:45:51.001Z</time></trkpt><trkpt lat="45.695941791532555" lon="9.404069199995542"><ele>275.20000000000005</ele><time>2026-04-09T11:45:52.001Z</time></trkpt><trkpt lat="45.695873604814516" lon="9.403984256506693"><ele>274.79999999999995</ele><time>2026-04-09T11:45:53.001Z</time></trkpt><trkpt lat="45.695806927146705" lon="9.403931728512303"><ele>274.4</ele><time>2026-04-09T11:45:55.001Z</time></trkpt><trkpt lat="45.69572938925528" lon="9.403852368834512"><ele>274.0</ele><time>2026-04-09T11:46:00.001Z</time></trkpt><trkpt lat="45.69562087932083" lon="9.403742473804057"><ele>274.0</ele><time>2026-04-09T11:46:02.002Z</time></trkpt><trkpt lat="45.695567500099614" lon="9.403685320072055"><ele>274.0</ele><time>2026-04-09T11:46:03.002Z</time></trkpt><trkpt lat="45.69551213648578" lon="9.403622176853093"><ele>274.0</ele><time>2026-04-09T11:46:04.002Z</time></trkpt><trkpt lat="45.69545487520299" lon="9.403559089942846"><ele>274.0</ele><time>2026-04-09T11:46:05.002Z</time></trkpt><trkpt lat="45.69539930080684" lon="9.403506810358643"><ele>274.0</ele><time>2026-04-09T11:46:06.002Z</time></trkpt><trkpt lat="45.69530427776851" lon="9.403392489415955"><ele>274.0</ele><time>2026-04-09T11:46:08.002Z</time></trkpt><trkpt lat="45.69523669971513" lon="9.403323509021938"><ele>274.0</ele><time>2026-04-09T11:46:09.002Z</time></trkpt><trkpt lat="45.69515273722577" lon="9.403266681104924"><ele>274.0</ele><time>2026-04-09T11:46:10.002Z</time></trkpt><trkpt lat="45.69509110439087" lon="9.403198856836507"><ele>274.0</ele><time>2026-04-09T11:46:11.002Z</time></trkpt><trkpt lat="45.69503895373417" lon="9.403144369777289"><ele>274.0</ele><time>2026-04-09T11:46:12.002Z</time></trkpt><trkpt lat="45.69493577273671" lon="9.403042394624679"><ele>274.0</ele><time>2026-04-09T11:46:14.002Z</time></trkpt><trkpt lat="45.69487161750692" lon="9.402973017614396"><ele>274.0</ele><time>2026-04-09T11:46:15.002Z</time></trkpt><trkpt lat="45.69479535738895" lon="9.402890539337115"><ele>274.0</ele><time>2026-04-09T11:46:16.002Z</time></trkpt><trkpt lat="45.69470611982876" lon="9.402796681286041"><ele>274.0</ele><time>2026-04-09T11:46:17.002Z</time></trkpt><trkpt lat="45.694625220693396" lon="9.40270717036799"><ele>274.0</ele><time>2026-04-09T11:46:18.002Z</time></trkpt><trkpt lat="45.69453098235541" lon="9.402601688992267"><ele>274.0</ele><time>2026-04-09T11:46:19.002Z</time></trkpt><trkpt lat="45.694422469532675" lon="9.402495577160485"><ele>273.0</ele><time>2026-04-09T11:46:20.002Z</time></trkpt><trkpt lat="45.69431255302024" lon="9.4023840325064"><ele>272.0</ele><time>2026-04-09T11:46:21.002Z</time></trkpt><trkpt lat="45.69421227702849" lon="9.4022879666217"><ele>271.0</ele><time>2026-04-09T11:46:22.002Z</time></trkpt><trkpt lat="45.694118817665114" lon="9.402208582749186"><ele>270.0</ele><time>2026-04-09T11:46:23.002Z</time></trkpt><trkpt lat="45.69402528351519" lon="9.402147768857251"><ele>269.8</ele><time>2026-04-09T11:46:24.002Z</time></trkpt><trkpt lat="45.69393135040254" lon="9.402113920207604"><ele>269.6</ele><time>2026-04-09T11:46:25.002Z</time></trkpt><trkpt lat="45.69383060428882" lon="9.402099821445612"><ele>269.4</ele><time>2026-04-09T11:46:26.002Z</time></trkpt><trkpt lat="45.6937327437461" lon="9.402104143262317"><ele>269.2</ele><time>2026-04-09T11:46:27.002Z</time></trkpt><trkpt lat="45.693635478760314" lon="9.402114580607316"><ele>269.0</ele><time>2026-04-09T11:46:28.002Z</time></trkpt><trkpt lat="45.69354422906662" lon="9.402124830576932"><ele>269.0</ele><time>2026-04-09T11:46:29.002Z</time></trkpt><trkpt lat="45.69345873450127" lon="9.40213662443426"><ele>269.0</ele><time>2026-04-09T11:46:30.002Z</time></trkpt><trkpt lat="45.69337307471695" lon="9.402151892701283"><ele>269.0</ele><time>2026-04-09T11:46:31.002Z</time></trkpt><trkpt lat="45.693287680393006" lon="9.40216866479828"><ele>269.0</ele><time>2026-04-09T11:46:32.002Z</time></trkpt><trkpt lat="45.69320614299815" lon="9.402180397941022"><ele>269.0</ele><time>2026-04-09T11:46:33.002Z</time></trkpt><trkpt lat="45.693114937990266" lon="9.402182344451615"><ele>269.0</ele><time>2026-04-09T11:46:34.002Z</time></trkpt><trkpt lat="45.69302718892977" lon="9.402184003144079"><ele>269.0</ele><time>2026-04-09T11:46:35.003Z</time></trkpt><trkpt lat="45.69293785143532" lon="9.40216703330626"><ele>269.0</ele><time>2026-04-09T11:46:36.003Z</time></trkpt><trkpt lat="45.69284533104891" lon="9.402147715064773"><ele>269.0</ele><time>2026-04-09T11:46:37.003Z</time></trkpt><trkpt lat="45.69275108996001" lon="9.402121704863962"><ele>269.0</ele><time>2026-04-09T11:46:38.003Z</time></trkpt><trkpt lat="45.69265171095287" lon="9.402088088197901"><ele>269.0</ele><time>2026-04-09T11:46:39.003Z</time></trkpt><trkpt lat="45.692542427916244" lon="9.402048143538723"><ele>269.0</ele><time>2026-04-09T11:46:40.003Z</time></trkpt><trkpt lat="45.692438074353234" lon="9.40199433203759"><ele>269.0</ele><time>2026-04-09T11:46:41.003Z</time></trkpt><trkpt lat="45.692323507884296" lon="9.401936128539381"><ele>269.0</ele><time>2026-04-09T11:46:42.003Z</time></trkpt><trkpt lat="45.69221148556118" lon="9.401878479078666"><ele>269.0</ele><time>2026-04-09T11:46:43.003Z</time></trkpt><trkpt lat="45.692095510799675" lon="9.401820802907698"><ele>269.0</ele><time>2026-04-09T11:46:44.003Z</time></trkpt><trkpt lat="45.691979491571196" lon="9.401765466395009"><ele>269.0</ele><time>2026-04-09T11:46:45.003Z</time></trkpt><trkpt lat="45.69185837051282" lon="9.40170462292935"><ele>269.0</ele><time>2026-04-09T11:46:46.003Z</time></trkpt><trkpt lat="45.69173861057353" lon="9.40164628132473"><ele>269.0</ele><time>2026-04-09T11:46:47.003Z</time></trkpt><trkpt lat="45.691623399854386" lon="9.40158492939542"><ele>268.75</ele><time>2026-04-09T11:46:48.003Z</time></trkpt><trkpt lat="45.69150778589924" lon="9.401526886136462"><ele>268.5</ele><time>2026-04-09T11:46:49.003Z</time></trkpt><trkpt lat="45.69139164002824" lon="9.40146648236683"><ele>268.25</ele><time>2026-04-09T11:46:50.003Z</time></trkpt><trkpt lat="45.6912818221234" lon="9.401412643486434"><ele>268.0</ele><time>2026-04-09T11:46:51.003Z</time></trkpt><trkpt lat="45.69117120363333" lon="9.4013578007785"><ele>267.25</ele><time>2026-04-09T11:46:52.003Z</time></trkpt><trkpt lat="45.69105748726781" lon="9.401297845411973"><ele>266.5</ele><time>2026-04-09T11:46:53.003Z</time></trkpt><trkpt lat="45.690939410260036" lon="9.401238456870507"><ele>265.75</ele><time>2026-04-09T11:46:54.003Z</time></trkpt><trkpt lat="45.69081935653274" lon="9.401180809220692"><ele>265.0</ele><time>2026-04-09T11:46:55.003Z</time></trkpt><trkpt lat="45.690693905995936" lon="9.40112056948518"><ele>265.0</ele><time>2026-04-09T11:46:56.003Z</time></trkpt><trkpt lat="45.69056443416098" lon="9.401059270475509"><ele>265.0</ele><time>2026-04-09T11:46:57.003Z</time></trkpt><trkpt lat="45.690445200625575" lon="9.401001226553245"><ele>265.0</ele><time>2026-04-09T11:46:58.003Z</time></trkpt><trkpt lat="45.690331248669345" lon="9.400939938164441"><ele>265.0</ele><time>2026-04-09T11:46:59.003Z</time></trkpt><trkpt lat="45.69021932441338" lon="9.400885804052301"><ele>264.4</ele><time>2026-04-09T11:47:00.003Z</time></trkpt><trkpt lat="45.69011550467109" lon="9.400839057393188"><ele>263.8</ele><time>2026-04-09T11:47:01.003Z</time></trkpt><trkpt lat="45.69001569882863" lon="9.400794018957312"><ele>263.2</ele><time>2026-04-09T11:47:02.003Z</time></trkpt><trkpt lat="45.6899134390994" lon="9.400740897683663"><ele>262.6</ele><time>2026-04-09T11:47:03.003Z</time></trkpt><trkpt lat="45.68979993632418" lon="9.400692747430092"><ele>262.0</ele><time>2026-04-09T11:47:04.003Z</time></trkpt><trkpt lat="45.689680486665246" lon="9.400639346150733"><ele>262.0</ele><time>2026-04-09T11:47:05Z</time></trkpt><trkpt lat="45.68955687109517" lon="9.40058578754932"><ele>262.0</ele><time>2026-04-09T11:47:06Z</time></trkpt><trkpt lat="45.68943046767827" lon="9.400532076845975"><ele>262.0</ele><time>2026-04-09T11:47:07Z</time></trkpt><trkpt lat="45.689308745104164" lon="9.40047417693693"><ele>262.0</ele><time>2026-04-09T11:47:08Z</time></trkpt><trkpt lat="45.68919722408092" lon="9.400418078240293"><ele>262.2</ele><time>2026-04-09T11:47:09Z</time></trkpt><trkpt lat="45.68909117325566" lon="9.400362929908612"><ele>262.4</ele><time>2026-04-09T11:47:10Z</time></trkpt><trkpt lat="45.688996136933184" lon="9.400315042176643"><ele>262.6</ele><time>2026-04-09T11:47:11Z</time></trkpt><trkpt lat="45.68891788079023" lon="9.400273054963026"><ele>262.8</ele><time>2026-04-09T11:47:12Z</time></trkpt><trkpt lat="45.68884118868203" lon="9.400222265622947"><ele>263.0</ele><time>2026-04-09T11:47:14Z</time></trkpt><trkpt lat="45.68878067117923" lon="9.40016688622228"><ele>263.0</ele><time>2026-04-09T11:47:17Z</time></trkpt><trkpt lat="45.68872294096644" lon="9.400065261988264"><ele>263.0</ele><time>2026-04-09T11:47:18Z</time></trkpt><trkpt lat="45.688669104544395" lon="9.400003041560744"><ele>263.0</ele><time>2026-04-09T11:47:19Z</time></trkpt><trkpt lat="45.68859361375804" lon="9.399974331712475"><ele>263.0</ele><time>2026-04-09T11:47:20Z</time></trkpt><trkpt lat="45.68850015615546" lon="9.399983396071086"><ele>263.0</ele><time>2026-04-09T11:47:21Z</time></trkpt><trkpt lat="45.68839553570191" lon="9.400014043671964"><ele>263.0</ele><time>2026-04-09T11:47:22Z</time></trkpt><trkpt lat="45.68827437937398" lon="9.40002711906347"><ele>262.75</ele><time>2026-04-09T11:47:23Z</time></trkpt><trkpt lat="45.68815062010461" lon="9.400010617028713"><ele>262.5</ele><time>2026-04-09T11:47:24Z</time></trkpt><trkpt lat="45.68802424840456" lon="9.399970093157624"><ele>262.25</ele><time>2026-04-09T11:47:25Z</time></trkpt><trkpt lat="45.68788053994412" lon="9.39992273337188"><ele>262.0</ele><time>2026-04-09T11:47:26Z</time></trkpt><trkpt lat="45.687721704132635" lon="9.399878150311102"><ele>260.66666666666663</ele><time>2026-04-09T11:47:27Z</time></trkpt><trkpt lat="45.68755824804042" lon="9.399827289530482"><ele>259.3333333333333</ele><time>2026-04-09T11:47:28Z</time></trkpt><trkpt lat="45.68739980847998" lon="9.399773717629044"><ele>258.0</ele><time>2026-04-09T11:47:29Z</time></trkpt><trkpt lat="45.687246952711774" lon="9.39971869850465"><ele>258.0</ele><time>2026-04-09T11:47:30Z</time></trkpt><trkpt lat="45.68708065685484" lon="9.399660323887096"><ele>258.0</ele><time>2026-04-09T11:47:31Z</time></trkpt><trkpt lat="45.686905223008864" lon="9.39959793035252"><ele>258.0</ele><time>2026-04-09T11:47:32Z</time></trkpt><trkpt lat="45.68672747693013" lon="9.399536979654703"><ele>257.6666666666667</ele><time>2026-04-09T11:47:33Z</time></trkpt><trkpt lat="45.68654435134806" lon="9.399472747150545"><ele>257.33333333333337</ele><time>2026-04-09T11:47:34Z</time></trkpt><trkpt lat="45.6863746288579" lon="9.399409947254773"><ele>257.0</ele><time>2026-04-09T11:47:35.001Z</time></trkpt><trkpt lat="45.686196099842014" lon="9.399345427356957"><ele>255.66666666666669</ele><time>2026-04-09T11:47:36.001Z</time></trkpt><trkpt lat="45.686017068738984" lon="9.399281845769321"><ele>254.33333333333331</ele><time>2026-04-09T11:47:37.001Z</time></trkpt><trkpt lat="45.68583713395692" lon="9.399216802281407"><ele>253.0</ele><time>2026-04-09T11:47:38.001Z</time></trkpt><trkpt lat="45.68565090563943" lon="9.399147432496658"><ele>253.0</ele><time>2026-04-09T11:47:39.001Z</time></trkpt><trkpt lat="45.68546875209964" lon="9.399079823752711"><ele>253.0</ele><time>2026-04-09T11:47:40.001Z</time></trkpt><trkpt lat="45.68529325013486" lon="9.39901346189825"><ele>253.0</ele><time>2026-04-09T11:47:41.001Z</time></trkpt><trkpt lat="45.68512913270699" lon="9.398958475292696"><ele>253.33333333333331</ele><time>2026-04-09T11:47:42.001Z</time></trkpt><trkpt lat="45.6849705940426" lon="9.398899789250668"><ele>253.66666666666669</ele><time>2026-04-09T11:47:43.001Z</time></trkpt><trkpt lat="45.68480611823027" lon="9.398844326223077"><ele>254.0</ele><time>2026-04-09T11:47:44.001Z</time></trkpt><trkpt lat="45.68464555397008" lon="9.398783529937155"><ele>254.0</ele><time>2026-04-09T11:47:45.001Z</time></trkpt><trkpt lat="45.68448112709099" lon="9.398728955403037"><ele>254.0</ele><time>2026-04-09T11:47:46.001Z</time></trkpt><trkpt lat="45.68430993783688" lon="9.398668101112698"><ele>254.0</ele><time>2026-04-09T11:47:47.001Z</time></trkpt><trkpt lat="45.68414388519625" lon="9.39860514216919"><ele>253.66666666666669</ele><time>2026-04-09T11:47:48.001Z</time></trkpt><trkpt lat="45.68397669980923" lon="9.398544338221344"><ele>253.33333333333331</ele><time>2026-04-09T11:47:49.001Z</time></trkpt><trkpt lat="45.683805934614206" lon="9.398481751073307"><ele>253.0</ele><time>2026-04-09T11:47:50.001Z</time></trkpt><trkpt lat="45.68364375854705" lon="9.398422069259007"><ele>253.0</ele><time>2026-04-09T11:47:51.001Z</time></trkpt><trkpt lat="45.6834938067077" lon="9.398367753412696"><ele>253.0</ele><time>2026-04-09T11:47:52.001Z</time></trkpt><trkpt lat="45.68335415650555" lon="9.398322303544774"><ele>253.0</ele><time>2026-04-09T11:47:53.001Z</time></trkpt><trkpt lat="45.683220655743824" lon="9.398281462540561"><ele>253.0</ele><time>2026-04-09T11:47:54.001Z</time></trkpt><trkpt lat="45.68309632261259" lon="9.398247668720664"><ele>253.0</ele><time>2026-04-09T11:47:55.001Z</time></trkpt><trkpt lat="45.68297303877721" lon="9.398212921465113"><ele>253.0</ele><time>2026-04-09T11:47:56.001Z</time></trkpt><trkpt lat="45.68286342771382" lon="9.398172775270144"><ele>253.0</ele><time>2026-04-09T11:47:57.001Z</time></trkpt><trkpt lat="45.68275941427711" lon="9.398126249916468"><ele>253.0</ele><time>2026-04-09T11:47:58.001Z</time></trkpt><trkpt lat="45.68266686458127" lon="9.398079867533179"><ele>253.0</ele><time>2026-04-09T11:47:59.001Z</time></trkpt><trkpt lat="45.68256968147511" lon="9.398043896284499"><ele>253.60000000000002</ele><time>2026-04-09T11:48:00.001Z</time></trkpt><trkpt lat="45.68246809307331" lon="9.398014742438605"><ele>254.20000000000002</ele><time>2026-04-09T11:48:01.001Z</time></trkpt><trkpt lat="45.6823568082926" lon="9.397979019191144"><ele>254.8</ele><time>2026-04-09T11:48:02.001Z</time></trkpt><trkpt lat="45.68225091367396" lon="9.397937608450794"><ele>255.4</ele><time>2026-04-09T11:48:03.001Z</time></trkpt><trkpt lat="45.68214125312688" lon="9.397895429053078"><ele>256.0</ele><time>2026-04-09T11:48:04.001Z</time></trkpt><trkpt lat="45.68203681721367" lon="9.397862027811286"><ele>256.2</ele><time>2026-04-09T11:48:05.001Z</time></trkpt><trkpt lat="45.681933985547424" lon="9.397828003670016"><ele>256.40000000000003</ele><time>2026-04-09T11:48:06.001Z</time></trkpt><trkpt lat="45.68183502792896" lon="9.397789670705242"><ele>256.6</ele><time>2026-04-09T11:48:07.001Z</time></trkpt><trkpt lat="45.68173183093968" lon="9.397749087415203"><ele>256.8</ele><time>2026-04-09T11:48:08.002Z</time></trkpt><trkpt lat="45.681627434130775" lon="9.39771670159622"><ele>257.0</ele><time>2026-04-09T11:48:09.002Z</time></trkpt><trkpt lat="45.68152879122717" lon="9.397680722661134"><ele>256.6</ele><time>2026-04-09T11:48:10.002Z</time></trkpt><trkpt lat="45.68142924030295" lon="9.397645172942164"><ele>256.2</ele><time>2026-04-09T11:48:11.002Z</time></trkpt><trkpt lat="45.68133690345177" lon="9.397605875745937"><ele>255.8</ele><time>2026-04-09T11:48:12.002Z</time></trkpt><trkpt lat="45.68124004429234" lon="9.397570413477103"><ele>255.4</ele><time>2026-04-09T11:48:13.002Z</time></trkpt><trkpt lat="45.68114519158392" lon="9.397533559332258"><ele>255.0</ele><time>2026-04-09T11:48:14.002Z</time></trkpt><trkpt lat="45.68105223396544" lon="9.397497272151126"><ele>254.8</ele><time>2026-04-09T11:48:15.002Z</time></trkpt><trkpt lat="45.68095656637353" lon="9.397465976487878"><ele>254.6</ele><time>2026-04-09T11:48:16.002Z</time></trkpt><trkpt lat="45.68086033467874" lon="9.397432989931213"><ele>254.39999999999998</ele><time>2026-04-09T11:48:17.002Z</time></trkpt><trkpt lat="45.68076650233162" lon="9.39739909602266"><ele>254.2</ele><time>2026-04-09T11:48:18.002Z</time></trkpt><trkpt lat="45.68067296116715" lon="9.397365917220952"><ele>254.0</ele><time>2026-04-09T11:48:19.002Z</time></trkpt><trkpt lat="45.68058297560599" lon="9.397338186166627"><ele>254.0</ele><time>2026-04-09T11:48:20.002Z</time></trkpt><trkpt lat="45.680496063110795" lon="9.397305810881562"><ele>253.99999999999997</ele><time>2026-04-09T11:48:21.002Z</time></trkpt><trkpt lat="45.680401020201664" lon="9.397271218999638"><ele>253.99999999999997</ele><time>2026-04-09T11:48:22.002Z</time></trkpt><trkpt lat="45.68030799270259" lon="9.39722235234486"><ele>254.0</ele><time>2026-04-09T11:48:23.002Z</time></trkpt><trkpt lat="45.680220129821855" lon="9.397175912803164"><ele>254.0</ele><time>2026-04-09T11:48:24.002Z</time></trkpt><trkpt lat="45.680143818134255" lon="9.397128048400512"><ele>253.66666666666669</ele><time>2026-04-09T11:48:25.002Z</time></trkpt><trkpt lat="45.68006822038802" lon="9.397082768249758"><ele>253.33333333333334</ele><time>2026-04-09T11:48:26.002Z</time></trkpt><trkpt lat="45.67999149095242" lon="9.39705406253507"><ele>253.0</ele><time>2026-04-09T11:48:27.002Z</time></trkpt><trkpt lat="45.6799224569277" lon="9.397022565593886"><ele>252.66666666666669</ele><time>2026-04-09T11:48:28.002Z</time></trkpt><trkpt lat="45.67981810983376" lon="9.396958785061102"><ele>252.33333333333334</ele><time>2026-04-09T11:48:30.002Z</time></trkpt><trkpt lat="45.6797442665516" lon="9.396895165057877"><ele>252.0</ele><time>2026-04-09T11:48:32.002Z</time></trkpt><trkpt lat="45.67968043601528" lon="9.396820347007386"><ele>252.0</ele><time>2026-04-09T11:48:34.002Z</time></trkpt><trkpt lat="45.6796304580775" lon="9.396764780443073"><ele>252.0</ele><time>2026-04-09T11:48:35.002Z</time></trkpt><trkpt lat="45.67953672124987" lon="9.39669202168506"><ele>252.0</ele><time>2026-04-09T11:48:37.002Z</time></trkpt><trkpt lat="45.67943898795114" lon="9.39669405023308"><ele>252.0</ele><time>2026-04-09T11:48:39.002Z</time></trkpt><trkpt lat="45.6793758813671" lon="9.396723833925194"><ele>252.0</ele><time>2026-04-09T11:48:40.002Z</time></trkpt><trkpt lat="45.67929852962507" lon="9.396760336562567"><ele>252.0</ele><time>2026-04-09T11:48:41.002Z</time></trkpt><trkpt lat="45.67922387956702" lon="9.396780159073401"><ele>251.66666666666666</ele><time>2026-04-09T11:48:42.003Z</time></trkpt><trkpt lat="45.679139841064355" lon="9.396783979031284"><ele>251.33333333333331</ele><time>2026-04-09T11:48:43.003Z</time></trkpt><trkpt lat="45.67905764549455" lon="9.396767862670966"><ele>251.0</ele><time>2026-04-09T11:48:44.003Z</time></trkpt><trkpt lat="45.678976222297685" lon="9.396748892100563"><ele>250.66666666666666</ele><time>2026-04-09T11:48:45.003Z</time></trkpt><trkpt lat="45.67889417844672" lon="9.396721735488729"><ele>250.33333333333331</ele><time>2026-04-09T11:48:46.003Z</time></trkpt><trkpt lat="45.67880690863673" lon="9.396690371720213"><ele>250.0</ele><time>2026-04-09T11:48:47.003Z</time></trkpt><trkpt lat="45.67871584247385" lon="9.396658202568146"><ele>250.0</ele><time>2026-04-09T11:48:48.003Z</time></trkpt><trkpt lat="45.67862002425564" lon="9.396623774012479"><ele>250.0</ele><time>2026-04-09T11:48:49.003Z</time></trkpt><trkpt lat="45.67852436443666" lon="9.39658335800922"><ele>250.0</ele><time>2026-04-09T11:48:50.003Z</time></trkpt><trkpt lat="45.67842884036499" lon="9.396547906508996"><ele>250.0</ele><time>2026-04-09T11:48:51.003Z</time></trkpt><trkpt lat="45.67833692106152" lon="9.396512285630013"><ele>250.0</ele><time>2026-04-09T11:48:52.003Z</time></trkpt><trkpt lat="45.678241450873074" lon="9.396476890600164"><ele>249.8</ele><time>2026-04-09T11:48:53.003Z</time></trkpt><trkpt lat="45.678142930399225" lon="9.396439929118221"><ele>249.6</ele><time>2026-04-09T11:48:54.003Z</time></trkpt><trkpt lat="45.678043332459886" lon="9.396408335421091"><ele>249.39999999999998</ele><time>2026-04-09T11:48:55.003Z</time></trkpt><trkpt lat="45.67794164286046" lon="9.396372380631238"><ele>249.2</ele><time>2026-04-09T11:48:56.003Z</time></trkpt><trkpt lat="45.677839059302656" lon="9.39633646576039"><ele>249.0</ele><time>2026-04-09T11:48:57.003Z</time></trkpt><trkpt lat="45.6777334940862" lon="9.396299288193081"><ele>249.0</ele><time>2026-04-09T11:48:58.003Z</time></trkpt><trkpt lat="45.67762397273238" lon="9.396262556801194"><ele>249.0</ele><time>2026-04-09T11:48:59.003Z</time></trkpt><trkpt lat="45.677513853630906" lon="9.396222892265065"><ele>249.0</ele><time>2026-04-09T11:49:00.003Z</time></trkpt><trkpt lat="45.677403823099134" lon="9.396185023748492"><ele>249.0</ele><time>2026-04-09T11:49:01.003Z</time></trkpt><trkpt lat="45.67729209852642" lon="9.396146971490657"><ele>249.0</ele><time>2026-04-09T11:49:02.003Z</time></trkpt><trkpt lat="45.67718271375847" lon="9.39610774649149"><ele>248.99999999999997</ele><time>2026-04-09T11:49:03.003Z</time></trkpt><trkpt lat="45.677074226904466" lon="9.396068177279265"><ele>248.99999999999997</ele><time>2026-04-09T11:49:04.003Z</time></trkpt><trkpt lat="45.67696709671235" lon="9.39602966232806"><ele>249.0</ele><time>2026-04-09T11:49:05.003Z</time></trkpt><trkpt lat="45.67686729078695" lon="9.395992836591644"><ele>249.0</ele><time>2026-04-09T11:49:06.003Z</time></trkpt><trkpt lat="45.6767732109328" lon="9.395958974838406"><ele>249.0</ele><time>2026-04-09T11:49:07.003Z</time></trkpt><trkpt lat="45.676678245674175" lon="9.395924692798008"><ele>249.0</ele><time>2026-04-09T11:49:08.003Z</time></trkpt><trkpt lat="45.67658878683564" lon="9.39588876774324"><ele>249.0</ele><time>2026-04-09T11:49:09.003Z</time></trkpt><trkpt lat="45.67650450722735" lon="9.39585672585642"><ele>249.0</ele><time>2026-04-09T11:49:10.003Z</time></trkpt><trkpt lat="45.67641833609696" lon="9.395828326229084"><ele>249.0</ele><time>2026-04-09T11:49:11.001Z</time></trkpt><trkpt lat="45.67633893366725" lon="9.395801281371112"><ele>249.0</ele><time>2026-04-09T11:49:12Z</time></trkpt><trkpt lat="45.676259948688795" lon="9.395773888994942"><ele>249.0</ele><time>2026-04-09T11:49:13.001Z</time></trkpt><trkpt lat="45.67617958682769" lon="9.3957416922019"><ele>249.0</ele><time>2026-04-09T11:49:14Z</time></trkpt><trkpt lat="45.676094729767634" lon="9.395708815482797"><ele>249.0</ele><time>2026-04-09T11:49:15Z</time></trkpt><trkpt lat="45.676010504185996" lon="9.395669719453457"><ele>249.0</ele><time>2026-04-09T11:49:16Z</time></trkpt><trkpt lat="45.675920945234964" lon="9.395628622464598"><ele>249.0</ele><time>2026-04-09T11:49:17Z</time></trkpt><trkpt lat="45.67583425793846" lon="9.39558343413754"><ele>249.0</ele><time>2026-04-09T11:49:18Z</time></trkpt><trkpt lat="45.67574405455106" lon="9.395535296591481"><ele>248.6</ele><time>2026-04-09T11:49:19Z</time></trkpt><trkpt lat="45.6756586667411" lon="9.395491449895163"><ele>248.2</ele><time>2026-04-09T11:49:20Z</time></trkpt><trkpt lat="45.67558241797564" lon="9.395443683484228"><ele>247.79999999999998</ele><time>2026-04-09T11:49:21Z</time></trkpt><trkpt lat="45.67549920939172" lon="9.39539421732217"><ele>247.39999999999998</ele><time>2026-04-09T11:49:22Z</time></trkpt><trkpt lat="45.675409598664565" lon="9.395336949312705"><ele>247.0</ele><time>2026-04-09T11:49:23Z</time></trkpt><trkpt lat="45.67531882639531" lon="9.395277307213485"><ele>246.39999999999998</ele><time>2026-04-09T11:49:24Z</time></trkpt><trkpt lat="45.6752246617742" lon="9.395216016298587"><ele>245.79999999999998</ele><time>2026-04-09T11:49:25Z</time></trkpt><trkpt lat="45.67513643055954" lon="9.39515101228233"><ele>245.2</ele><time>2026-04-09T11:49:26Z</time></trkpt><trkpt lat="45.67504636934788" lon="9.395079231008014"><ele>244.6</ele><time>2026-04-09T11:49:27Z</time></trkpt><trkpt lat="45.67495870967576" lon="9.39501001006812"><ele>244.0</ele><time>2026-04-09T11:49:28Z</time></trkpt><trkpt lat="45.67487219415515" lon="9.394937408717071"><ele>244.0</ele><time>2026-04-09T11:49:29Z</time></trkpt><trkpt lat="45.674787952207424" lon="9.394865692897634"><ele>243.99999999999997</ele><time>2026-04-09T11:49:30Z</time></trkpt><trkpt lat="45.67469980557746" lon="9.394789568521649"><ele>243.99999999999997</ele><time>2026-04-09T11:49:31Z</time></trkpt><trkpt lat="45.6746160315222" lon="9.394713012398617"><ele>244.0</ele><time>2026-04-09T11:49:32Z</time></trkpt><trkpt lat="45.67453413317723" lon="9.394631817003766"><ele>244.0</ele><time>2026-04-09T11:49:33Z</time></trkpt><trkpt lat="45.67445034348022" lon="9.394548110654137"><ele>244.2</ele><time>2026-04-09T11:49:34Z</time></trkpt><trkpt lat="45.67437250499777" lon="9.39446184270999"><ele>244.39999999999998</ele><time>2026-04-09T11:49:35Z</time></trkpt><trkpt lat="45.67428665179598" lon="9.394372171183642"><ele>244.6</ele><time>2026-04-09T11:49:36Z</time></trkpt><trkpt lat="45.674207948425355" lon="9.394267376634225"><ele>244.8</ele><time>2026-04-09T11:49:37Z</time></trkpt><trkpt lat="45.674127849947304" lon="9.394181638426438"><ele>245.0</ele><time>2026-04-09T11:49:38Z</time></trkpt><trkpt lat="45.67404443493103" lon="9.394087305436704"><ele>245.0</ele><time>2026-04-09T11:49:39Z</time></trkpt><trkpt lat="45.673970791545976" lon="9.393987571879684"><ele>245.0</ele><time>2026-04-09T11:49:40Z</time></trkpt><trkpt lat="45.67389748529029" lon="9.393887286719234"><ele>245.0</ele><time>2026-04-09T11:49:41.001Z</time></trkpt><trkpt lat="45.67382484630385" lon="9.393788441554761"><ele>245.0</ele><time>2026-04-09T11:49:42.001Z</time></trkpt><trkpt lat="45.67375693318618" lon="9.393689197210747"><ele>245.0</ele><time>2026-04-09T11:49:43.001Z</time></trkpt><trkpt lat="45.67368146244052" lon="9.393582088365156"><ele>245.0</ele><time>2026-04-09T11:49:44.001Z</time></trkpt><trkpt lat="45.673607919731545" lon="9.393473956806393"><ele>245.0</ele><time>2026-04-09T11:49:45.001Z</time></trkpt><trkpt lat="45.673539279728125" lon="9.393366460657212"><ele>245.0</ele><time>2026-04-09T11:49:46.001Z</time></trkpt><trkpt lat="45.67347167158855" lon="9.393251729096097"><ele>245.0</ele><time>2026-04-09T11:49:47.001Z</time></trkpt><trkpt lat="45.673398111432874" lon="9.39313281027471"><ele>245.0</ele><time>2026-04-09T11:49:48.001Z</time></trkpt><trkpt lat="45.673321379126676" lon="9.393011817863162"><ele>244.8</ele><time>2026-04-09T11:49:49.001Z</time></trkpt><trkpt lat="45.67324679093913" lon="9.39289460542698"><ele>244.6</ele><time>2026-04-09T11:49:50.001Z</time></trkpt><trkpt lat="45.67317189448048" lon="9.39278156578774"><ele>244.39999999999998</ele><time>2026-04-09T11:49:51.001Z</time></trkpt><trkpt lat="45.67309793244885" lon="9.39267397034993"><ele>244.2</ele><time>2026-04-09T11:49:52.001Z</time></trkpt><trkpt lat="45.67302530219022" lon="9.392563714321852"><ele>244.0</ele><time>2026-04-09T11:49:53.001Z</time></trkpt><trkpt lat="45.672955582638835" lon="9.392455805419186"><ele>244.0</ele><time>2026-04-09T11:49:54.001Z</time></trkpt><trkpt lat="45.67288419179258" lon="9.392344672974549"><ele>243.99999999999997</ele><time>2026-04-09T11:49:55.001Z</time></trkpt><trkpt lat="45.67281529675263" lon="9.392230704342587"><ele>243.99999999999997</ele><time>2026-04-09T11:49:56.001Z</time></trkpt><trkpt lat="45.67274653779905" lon="9.392110978354115"><ele>244.0</ele><time>2026-04-09T11:49:57.001Z</time></trkpt><trkpt lat="45.67267802684709" lon="9.391987969660592"><ele>244.0</ele><time>2026-04-09T11:49:58.001Z</time></trkpt><trkpt lat="45.67261064103033" lon="9.391867251538715"><ele>243.39999999999998</ele><time>2026-04-09T11:49:59.001Z</time></trkpt><trkpt lat="45.67254919264846" lon="9.391742707272455"><ele>242.79999999999998</ele><time>2026-04-09T11:50:00.001Z</time></trkpt><trkpt lat="45.67248572238662" lon="9.39162107893634"><ele>242.20000000000002</ele><time>2026-04-09T11:50:01.001Z</time></trkpt><trkpt lat="45.672420607595" lon="9.391496809536063"><ele>241.60000000000002</ele><time>2026-04-09T11:50:02.001Z</time></trkpt><trkpt lat="45.672357465843604" lon="9.39137754137628"><ele>241.0</ele><time>2026-04-09T11:50:03.001Z</time></trkpt><trkpt lat="45.672293132530775" lon="9.391260693464263"><ele>241.0</ele><time>2026-04-09T11:50:04.001Z</time></trkpt><trkpt lat="45.6722299849778" lon="9.391145729079676"><ele>241.00000000000003</ele><time>2026-04-09T11:50:05.001Z</time></trkpt><trkpt lat="45.67216175212405" lon="9.391034220025553"><ele>241.00000000000003</ele><time>2026-04-09T11:50:06.001Z</time></trkpt><trkpt lat="45.67208751483637" lon="9.390926899083546"><ele>241.0</ele><time>2026-04-09T11:50:07.001Z</time></trkpt><trkpt lat="45.67201369206466" lon="9.390830312459409"><ele>241.0</ele><time>2026-04-09T11:50:08.001Z</time></trkpt><trkpt lat="45.67193730071782" lon="9.390739500120945"><ele>241.0</ele><time>2026-04-09T11:50:09.001Z</time></trkpt><trkpt lat="45.67186181568719" lon="9.39065310440379"><ele>241.00000000000003</ele><time>2026-04-09T11:50:10.001Z</time></trkpt><trkpt lat="45.671782300073794" lon="9.390567225079664"><ele>241.00000000000003</ele><time>2026-04-09T11:50:11.001Z</time></trkpt><trkpt lat="45.67169871566395" lon="9.390479626162193"><ele>241.0</ele><time>2026-04-09T11:50:12.001Z</time></trkpt><trkpt lat="45.67160937064785" lon="9.39039713777824"><ele>241.0</ele><time>2026-04-09T11:50:13.001Z</time></trkpt><trkpt lat="45.67151531902023" lon="9.390316394113384"><ele>240.8</ele><time>2026-04-09T11:50:14.001Z</time></trkpt><trkpt lat="45.671419205131734" lon="9.39023946424535"><ele>240.60000000000002</ele><time>2026-04-09T11:50:15.001Z</time></trkpt><trkpt lat="45.67132402492682" lon="9.390172634012284"><ele>240.4</ele><time>2026-04-09T11:50:16.001Z</time></trkpt><trkpt lat="45.67122875931023" lon="9.390106782038945"><ele>240.2</ele><time>2026-04-09T11:50:17.001Z</time></trkpt><trkpt lat="45.671131420515884" lon="9.390045307838534"><ele>240.0</ele><time>2026-04-09T11:50:18.001Z</time></trkpt><trkpt lat="45.671035621948235" lon="9.389984313139925"><ele>240.0</ele><time>2026-04-09T11:50:19.001Z</time></trkpt><trkpt lat="45.670939457210025" lon="9.389918908601352"><ele>240.0</ele><time>2026-04-09T11:50:20.001Z</time></trkpt><trkpt lat="45.67084338002175" lon="9.389855382976402"><ele>240.0</ele><time>2026-04-09T11:50:21.001Z</time></trkpt><trkpt lat="45.67074613982746" lon="9.389790034684285"><ele>240.0</ele><time>2026-04-09T11:50:22.002Z</time></trkpt><trkpt lat="45.670646458983875" lon="9.38972531347421"><ele>240.0</ele><time>2026-04-09T11:50:23.002Z</time></trkpt><trkpt lat="45.67054196181484" lon="9.389662565363592"><ele>240.0</ele><time>2026-04-09T11:50:24.002Z</time></trkpt><trkpt lat="45.67043787560928" lon="9.389599086363125"><ele>240.0</ele><time>2026-04-09T11:50:25.002Z</time></trkpt><trkpt lat="45.670332645541166" lon="9.389536526811176"><ele>240.0</ele><time>2026-04-09T11:50:26.002Z</time></trkpt><trkpt lat="45.67022643715275" lon="9.38946477533622"><ele>240.0</ele><time>2026-04-09T11:50:27.002Z</time></trkpt><trkpt lat="45.67012066825886" lon="9.389395934100083"><ele>239.75</ele><time>2026-04-09T11:50:28.002Z</time></trkpt><trkpt lat="45.670014290636836" lon="9.389327970620254"><ele>239.5</ele><time>2026-04-09T11:50:29.002Z</time></trkpt><trkpt lat="45.66990412670441" lon="9.389253505279491"><ele>239.25</ele><time>2026-04-09T11:50:30.002Z</time></trkpt><trkpt lat="45.66979190879364" lon="9.389186381847972"><ele>239.0</ele><time>2026-04-09T11:50:31.002Z</time></trkpt><trkpt lat="45.66968254497625" lon="9.389116978828653"><ele>239.0</ele><time>2026-04-09T11:50:32.002Z</time></trkpt><trkpt lat="45.6695716648836" lon="9.389052374751389"><ele>239.0</ele><time>2026-04-09T11:50:33.002Z</time></trkpt><trkpt lat="45.66945437022916" lon="9.388987052483142"><ele>239.0</ele><time>2026-04-09T11:50:34.002Z</time></trkpt><trkpt lat="45.669338472452445" lon="9.388923102622714"><ele>239.0</ele><time>2026-04-09T11:50:35.002Z</time></trkpt><trkpt lat="45.669217651646115" lon="9.388861383473225"><ele>238.0</ele><time>2026-04-09T11:50:36.002Z</time></trkpt><trkpt lat="45.66909373907648" lon="9.388801016598087"><ele>237.0</ele><time>2026-04-09T11:50:37.002Z</time></trkpt><trkpt lat="45.668970107848295" lon="9.388737119616424"><ele>236.0</ele><time>2026-04-09T11:50:38.002Z</time></trkpt><trkpt lat="45.668838819174546" lon="9.388666383434485"><ele>235.0</ele><time>2026-04-09T11:50:39.002Z</time></trkpt><trkpt lat="45.66870630149265" lon="9.388595985694586"><ele>235.25</ele><time>2026-04-09T11:50:40.002Z</time></trkpt><trkpt lat="45.668583452319595" lon="9.388524533006464"><ele>235.5</ele><time>2026-04-09T11:50:41.002Z</time></trkpt><trkpt lat="45.66847155877225" lon="9.388450985145214"><ele>235.75</ele><time>2026-04-09T11:50:42.002Z</time></trkpt><trkpt lat="45.66835716896961" lon="9.388374299140219"><ele>236.0</ele><time>2026-04-09T11:50:43.002Z</time></trkpt><trkpt lat="45.668241922764324" lon="9.388290503814941"><ele>236.0</ele><time>2026-04-09T11:50:44.002Z</time></trkpt><trkpt lat="45.66812356750536" lon="9.388210961671463"><ele>236.0</ele><time>2026-04-09T11:50:45.002Z</time></trkpt><trkpt lat="45.668005373900264" lon="9.38812829038682"><ele>236.0</ele><time>2026-04-09T11:50:46.002Z</time></trkpt><trkpt lat="45.66788726730434" lon="9.388042699266077"><ele>236.0</ele><time>2026-04-09T11:50:47.002Z</time></trkpt><trkpt lat="45.66777085406056" lon="9.387961342863237"><ele>235.5</ele><time>2026-04-09T11:50:48.002Z</time></trkpt><trkpt lat="45.667659499143575" lon="9.38788052928747"><ele>235.0</ele><time>2026-04-09T11:50:49.002Z</time></trkpt><trkpt lat="45.667552540496175" lon="9.387797297134465"><ele>234.5</ele><time>2026-04-09T11:50:50.002Z</time></trkpt><trkpt lat="45.667448803729" lon="9.387713130196827"><ele>234.0</ele><time>2026-04-09T11:50:51.002Z</time></trkpt><trkpt lat="45.667339018141924" lon="9.387623995975002"><ele>234.0</ele><time>2026-04-09T11:50:52.002Z</time></trkpt><trkpt lat="45.66722554702361" lon="9.38753452157549"><ele>234.0</ele><time>2026-04-09T11:50:53.002Z</time></trkpt><trkpt lat="45.66711540370677" lon="9.387443124906529"><ele>234.0</ele><time>2026-04-09T11:50:54.002Z</time></trkpt><trkpt lat="45.667004856996265" lon="9.387350357672467"><ele>234.0</ele><time>2026-04-09T11:50:55.002Z</time></trkpt><trkpt lat="45.666892898565806" lon="9.387257870531421"><ele>233.5</ele><time>2026-04-09T11:50:56.002Z</time></trkpt><trkpt lat="45.666776442782215" lon="9.387156474507291"><ele>233.0</ele><time>2026-04-09T11:50:57.002Z</time></trkpt><trkpt lat="45.66665250905283" lon="9.387059065657823"><ele>232.5</ele><time>2026-04-09T11:50:58.002Z</time></trkpt><trkpt lat="45.666531610264286" lon="9.386966228820196"><ele>232.0</ele><time>2026-04-09T11:50:59.002Z</time></trkpt><trkpt lat="45.666415533026274" lon="9.38687371306036"><ele>232.0</ele><time>2026-04-09T11:51:00.002Z</time></trkpt><trkpt lat="45.66630481147349" lon="9.386779973332803"><ele>232.0</ele><time>2026-04-09T11:51:01.003Z</time></trkpt><trkpt lat="45.66618991665392" lon="9.386682131438311"><ele>232.0</ele><time>2026-04-09T11:51:02.003Z</time></trkpt><trkpt lat="45.66607791443147" lon="9.386587959932891"><ele>232.0</ele><time>2026-04-09T11:51:03.003Z</time></trkpt><trkpt lat="45.665972808012825" lon="9.386500220323205"><ele>232.5</ele><time>2026-04-09T11:51:04.003Z</time></trkpt><trkpt lat="45.66586855149412" lon="9.386415533215473"><ele>233.0</ele><time>2026-04-09T11:51:05.003Z</time></trkpt><trkpt lat="45.66576082421436" lon="9.386325957587747"><ele>233.5</ele><time>2026-04-09T11:51:06.003Z</time></trkpt><trkpt lat="45.66565515033639" lon="9.386233479671604"><ele>234.0</ele><time>2026-04-09T11:51:07.003Z</time></trkpt><trkpt lat="45.665552491582694" lon="9.38614536046441"><ele>234.0</ele><time>2026-04-09T11:51:08.003Z</time></trkpt><trkpt lat="45.665451813775015" lon="9.386059797177108"><ele>234.0</ele><time>2026-04-09T11:51:09.003Z</time></trkpt><trkpt lat="45.66534753511068" lon="9.385976693577703"><ele>234.0</ele><time>2026-04-09T11:51:10.003Z</time></trkpt><trkpt lat="45.66524222378433" lon="9.385889293353383"><ele>234.0</ele><time>2026-04-09T11:51:11.003Z</time></trkpt><trkpt lat="45.66513685788215" lon="9.385804754361079"><ele>233.25</ele><time>2026-04-09T11:51:12.003Z</time></trkpt><trkpt lat="45.665033542035005" lon="9.385720764657135"><ele>232.5</ele><time>2026-04-09T11:51:13.003Z</time></trkpt><trkpt lat="45.66493329590962" lon="9.385629809029867"><ele>231.75</ele><time>2026-04-09T11:51:14.003Z</time></trkpt><trkpt lat="45.6648356720848" lon="9.385533224395623"><ele>231.0</ele><time>2026-04-09T11:51:15.003Z</time></trkpt><trkpt lat="45.66474474734953" lon="9.385435439487342"><ele>231.0</ele><time>2026-04-09T11:51:16.003Z</time></trkpt><trkpt lat="45.66465361344168" lon="9.385335817820886"><ele>231.00000000000003</ele><time>2026-04-09T11:51:17Z</time></trkpt><trkpt lat="45.66456446807931" lon="9.385239424975747"><ele>231.00000000000003</ele><time>2026-04-09T11:51:18Z</time></trkpt><trkpt lat="45.664480283204284" lon="9.385151556300212"><ele>231.0</ele><time>2026-04-09T11:51:19Z</time></trkpt><trkpt lat="45.664404506488715" lon="9.385072945151464"><ele>231.0</ele><time>2026-04-09T11:51:20Z</time></trkpt><trkpt lat="45.664344770390585" lon="9.385016053271"><ele>230.83333333333334</ele><time>2026-04-09T11:51:21Z</time></trkpt><trkpt lat="45.66425886273774" lon="9.384935854495346"><ele>230.66666666666669</ele><time>2026-04-09T11:51:23Z</time></trkpt><trkpt lat="45.664207369664936" lon="9.384857450328834"><ele>230.5</ele><time>2026-04-09T11:51:25Z</time></trkpt><trkpt lat="45.66417213170338" lon="9.384751569582516"><ele>230.33333333333334</ele><time>2026-04-09T11:51:27Z</time></trkpt><trkpt lat="45.664124609689296" lon="9.384668610627903"><ele>230.16666666666669</ele><time>2026-04-09T11:51:29Z</time></trkpt><trkpt lat="45.66405465080967" lon="9.384631754292315"><ele>230.0</ele><time>2026-04-09T11:51:31Z</time></trkpt><trkpt lat="45.66398714170284" lon="9.384692574541152"><ele>230.00000000000003</ele><time>2026-04-09T11:51:32Z</time></trkpt><trkpt lat="45.663889267893595" lon="9.384745549564538"><ele>230.0</ele><time>2026-04-09T11:51:34Z</time></trkpt><trkpt lat="45.663821562234006" lon="9.38470766634237"><ele>230.0</ele><time>2026-04-09T11:51:35Z</time></trkpt><trkpt lat="45.663758764009565" lon="9.38467423224026"><ele>230.0</ele><time>2026-04-09T11:51:36Z</time></trkpt><trkpt lat="45.663657112700626" lon="9.384598623827992"><ele>230.00000000000003</ele><time>2026-04-09T11:51:38Z</time></trkpt><trkpt lat="45.663600490908905" lon="9.384555832643153"><ele>230.0</ele><time>2026-04-09T11:51:39Z</time></trkpt><trkpt lat="45.66353603230747" lon="9.384504247114858"><ele>230.16666666666669</ele><time>2026-04-09T11:51:40Z</time></trkpt><trkpt lat="45.66347828950664" lon="9.384455356161489"><ele>230.33333333333334</ele><time>2026-04-09T11:51:41Z</time></trkpt><trkpt lat="45.663412486894494" lon="9.384399415197885"><ele>230.5</ele><time>2026-04-09T11:51:42Z</time></trkpt><trkpt lat="45.66333734104052" lon="9.384336156060813"><ele>230.66666666666669</ele><time>2026-04-09T11:51:43Z</time></trkpt><trkpt lat="45.663254894451654" lon="9.384265660730954"><ele>230.83333333333334</ele><time>2026-04-09T11:51:44Z</time></trkpt><trkpt lat="45.66316467551684" lon="9.384186588749703"><ele>231.0</ele><time>2026-04-09T11:51:45Z</time></trkpt><trkpt lat="45.6630735869881" lon="9.38410850380038"><ele>231.0</ele><time>2026-04-09T11:51:46Z</time></trkpt><trkpt lat="45.66298372456571" lon="9.38402995259242"><ele>231.00000000000003</ele><time>2026-04-09T11:51:47Z</time></trkpt><trkpt lat="45.66290185570641" lon="9.383956341866595"><ele>231.00000000000003</ele><time>2026-04-09T11:51:48.001Z</time></trkpt><trkpt lat="45.66282349020996" lon="9.383886319765816"><ele>231.0</ele><time>2026-04-09T11:51:49.001Z</time></trkpt><trkpt lat="45.66273644053684" lon="9.383809140728555"><ele>231.0</ele><time>2026-04-09T11:51:50.001Z</time></trkpt><trkpt lat="45.66264575610827" lon="9.383723739339151"><ele>230.5</ele><time>2026-04-09T11:51:51.001Z</time></trkpt><trkpt lat="45.662552462216084" lon="9.383641148560812"><ele>230.0</ele><time>2026-04-09T11:51:52.001Z</time></trkpt><trkpt lat="45.66245645062037" lon="9.383549704435604"><ele>229.5</ele><time>2026-04-09T11:51:53.001Z</time></trkpt><trkpt lat="45.66235842973021" lon="9.383451447168175"><ele>229.0</ele><time>2026-04-09T11:51:54.001Z</time></trkpt><trkpt lat="45.66225941596946" lon="9.383367338285893"><ele>229.0</ele><time>2026-04-09T11:51:55.001Z</time></trkpt><trkpt lat="45.662160921739115" lon="9.383278136613004"><ele>229.0</ele><time>2026-04-09T11:51:56.001Z</time></trkpt><trkpt lat="45.662065855093665" lon="9.383183103932916"><ele>229.0</ele><time>2026-04-09T11:51:57.001Z</time></trkpt><trkpt lat="45.661970199850984" lon="9.383081518742834"><ele>229.0</ele><time>2026-04-09T11:51:58.001Z</time></trkpt><trkpt lat="45.66187689314193" lon="9.382978744713705"><ele>229.0</ele><time>2026-04-09T11:51:59.001Z</time></trkpt><trkpt lat="45.66177803582724" lon="9.382872260428888"><ele>229.0</ele><time>2026-04-09T11:52:00.001Z</time></trkpt><trkpt lat="45.66167861317325" lon="9.382766320153435"><ele>229.0</ele><time>2026-04-09T11:52:01.001Z</time></trkpt><trkpt lat="45.66157834351746" lon="9.382660957536922"><ele>229.0</ele><time>2026-04-09T11:52:02.001Z</time></trkpt><trkpt lat="45.66147594304384" lon="9.382550304645775"><ele>229.0</ele><time>2026-04-09T11:52:03.001Z</time></trkpt><trkpt lat="45.66137609097248" lon="9.382437781552994"><ele>229.0</ele><time>2026-04-09T11:52:04.001Z</time></trkpt><trkpt lat="45.661275010236345" lon="9.382323574002326"><ele>229.0</ele><time>2026-04-09T11:52:05.001Z</time></trkpt><trkpt lat="45.66117333207061" lon="9.382208616602119"><ele>229.0</ele><time>2026-04-09T11:52:06.001Z</time></trkpt><trkpt lat="45.66107227498695" lon="9.382095113807678"><ele>230.75</ele><time>2026-04-09T11:52:07.001Z</time></trkpt><trkpt lat="45.66097124407412" lon="9.3819802432021"><ele>232.5</ele><time>2026-04-09T11:52:08.001Z</time></trkpt><trkpt lat="45.66087439178797" lon="9.38186444788982"><ele>234.25</ele><time>2026-04-09T11:52:09.001Z</time></trkpt><trkpt lat="45.66078104155305" lon="9.381751707178747"><ele>236.0</ele><time>2026-04-09T11:52:10.001Z</time></trkpt><trkpt lat="45.660687413256895" lon="9.381636585419868"><ele>236.0</ele><time>2026-04-09T11:52:11.001Z</time></trkpt><trkpt lat="45.6605870990575" lon="9.381513046353822"><ele>236.0</ele><time>2026-04-09T11:52:12.001Z</time></trkpt><trkpt lat="45.66048604680977" lon="9.3813897278854"><ele>236.0</ele><time>2026-04-09T11:52:13.001Z</time></trkpt><trkpt lat="45.660392350414284" lon="9.381268178547264"><ele>236.0</ele><time>2026-04-09T11:52:14.001Z</time></trkpt><trkpt lat="45.66029787678911" lon="9.381145047080151"><ele>235.25</ele><time>2026-04-09T11:52:15.001Z</time></trkpt><trkpt lat="45.660202903672904" lon="9.38102563557688"><ele>234.5</ele><time>2026-04-09T11:52:16.001Z</time></trkpt><trkpt lat="45.660106523922124" lon="9.380897112165481"><ele>233.75</ele><time>2026-04-09T11:52:17.001Z</time></trkpt><trkpt lat="45.66001251958439" lon="9.380764320680965"><ele>233.0</ele><time>2026-04-09T11:52:18.001Z</time></trkpt><trkpt lat="45.65992028376656" lon="9.380635161497585"><ele>234.75</ele><time>2026-04-09T11:52:19.001Z</time></trkpt><trkpt lat="45.65982765962584" lon="9.380509296377562"><ele>236.5</ele><time>2026-04-09T11:52:20.001Z</time></trkpt><trkpt lat="45.65973825273153" lon="9.380379962559221"><ele>238.25</ele><time>2026-04-09T11:52:21.001Z</time></trkpt><trkpt lat="45.6596486192731" lon="9.380254244545332"><ele>240.0</ele><time>2026-04-09T11:52:22.001Z</time></trkpt><trkpt lat="45.659556644471756" lon="9.380124594629452"><ele>240.0</ele><time>2026-04-09T11:52:23.001Z</time></trkpt><trkpt lat="45.65947302949153" lon="9.380005411767543"><ele>240.0</ele><time>2026-04-09T11:52:24.001Z</time></trkpt><trkpt lat="45.6593905138554" lon="9.37987740706391"><ele>240.0</ele><time>2026-04-09T11:52:25.001Z</time></trkpt><trkpt lat="45.65930459415584" lon="9.379753669408244"><ele>240.0</ele><time>2026-04-09T11:52:26.001Z</time></trkpt><trkpt lat="45.65921501279136" lon="9.379625268986834"><ele>238.75</ele><time>2026-04-09T11:52:27.001Z</time></trkpt><trkpt lat="45.65912852540879" lon="9.37948819891338"><ele>237.5</ele><time>2026-04-09T11:52:28.001Z</time></trkpt><trkpt lat="45.65903989013874" lon="9.379349386077694"><ele>236.25</ele><time>2026-04-09T11:52:29.001Z</time></trkpt><trkpt lat="45.658952160158876" lon="9.37922028929237"><ele>235.0</ele><time>2026-04-09T11:52:30.002Z</time></trkpt><trkpt lat="45.65887386804698" lon="9.379101924600906"><ele>235.0</ele><time>2026-04-09T11:52:31.002Z</time></trkpt><trkpt lat="45.658801124810736" lon="9.378993547605782"><ele>235.0</ele><time>2026-04-09T11:52:32.002Z</time></trkpt><trkpt lat="45.658733769026355" lon="9.378879968287377"><ele>235.0</ele><time>2026-04-09T11:52:33.002Z</time></trkpt><trkpt lat="45.65865570834334" lon="9.37876799084683"><ele>235.0</ele><time>2026-04-09T11:52:34.002Z</time></trkpt><trkpt lat="45.65857690651867" lon="9.3786430026038"><ele>235.0</ele><time>2026-04-09T11:52:35.002Z</time></trkpt><trkpt lat="45.65849849895493" lon="9.378521493353801"><ele>235.4</ele><time>2026-04-09T11:52:36.002Z</time></trkpt><trkpt lat="45.6584201306445" lon="9.378403742753417"><ele>235.8</ele><time>2026-04-09T11:52:37.002Z</time></trkpt><trkpt lat="45.65834902640202" lon="9.378293303517903"><ele>236.2</ele><time>2026-04-09T11:52:38.002Z</time></trkpt><trkpt lat="45.658278364920996" lon="9.378185892825112"><ele>236.6</ele><time>2026-04-09T11:52:39.002Z</time></trkpt><trkpt lat="45.65820505782712" lon="9.378073872168134"><ele>237.0</ele><time>2026-04-09T11:52:40.002Z</time></trkpt><trkpt lat="45.658131140606635" lon="9.377961092471764"><ele>237.0</ele><time>2026-04-09T11:52:41.002Z</time></trkpt><trkpt lat="45.6580579237962" lon="9.377849801846248"><ele>237.0</ele><time>2026-04-09T11:52:42.002Z</time></trkpt><trkpt lat="45.6579815101113" lon="9.377728002721312"><ele>237.0</ele><time>2026-04-09T11:52:43.002Z</time></trkpt><trkpt lat="45.65788462699929" lon="9.377567562808602"><ele>237.0</ele><time>2026-04-09T11:52:44.002Z</time></trkpt><trkpt lat="45.657767616078594" lon="9.377380715640973"><ele>233.33333333333331</ele><time>2026-04-09T11:52:45.002Z</time></trkpt><trkpt lat="45.657643970901134" lon="9.377172836096646"><ele>229.66666666666666</ele><time>2026-04-09T11:52:46.002Z</time></trkpt><trkpt lat="45.65753820080978" lon="9.376975184514697"><ele>226.0</ele><time>2026-04-09T11:52:47.002Z</time></trkpt><trkpt lat="45.65745364057297" lon="9.376812234344708"><ele>226.0</ele><time>2026-04-09T11:52:48.002Z</time></trkpt><trkpt lat="45.65737989764349" lon="9.37667534900915"><ele>226.0</ele><time>2026-04-09T11:52:49.002Z</time></trkpt><trkpt lat="45.65730042153268" lon="9.376542913363387"><ele>226.0</ele><time>2026-04-09T11:52:50.002Z</time></trkpt><trkpt lat="45.657210941564635" lon="9.37642376836117"><ele>226.0</ele><time>2026-04-09T11:52:51.002Z</time></trkpt><trkpt lat="45.65710566133797" lon="9.37629895651836"><ele>226.0</ele><time>2026-04-09T11:52:52.002Z</time></trkpt><trkpt lat="45.65697590152432" lon="9.37613929182665"><ele>226.0</ele><time>2026-04-09T11:52:53.002Z</time></trkpt><trkpt lat="45.656835074413934" lon="9.37594520066769"><ele>226.0</ele><time>2026-04-09T11:52:54.002Z</time></trkpt><trkpt lat="45.656692825694904" lon="9.375723207548743"><ele>228.5</ele><time>2026-04-09T11:52:55.002Z</time></trkpt><trkpt lat="45.656550913681876" lon="9.375468749138816"><ele>231.0</ele><time>2026-04-09T11:52:56.002Z</time></trkpt><trkpt lat="45.65641889428116" lon="9.375201041599496"><ele>231.0</ele><time>2026-04-09T11:52:57.002Z</time></trkpt><trkpt lat="45.65630218336946" lon="9.374926336860032"><ele>231.0</ele><time>2026-04-09T11:52:58.002Z</time></trkpt><trkpt lat="45.65618792295272" lon="9.374632616824936"><ele>227.5</ele><time>2026-04-09T11:52:59.002Z</time></trkpt><trkpt lat="45.656070197957916" lon="9.374316917529207"><ele>224.0</ele><time>2026-04-09T11:53:00.002Z</time></trkpt><trkpt lat="45.65596198558511" lon="9.374037761475137"><ele>225.0</ele><time>2026-04-09T11:53:01.002Z</time></trkpt><trkpt lat="45.65586454445335" lon="9.373782456971501"><ele>226.0</ele><time>2026-04-09T11:53:02.002Z</time></trkpt><trkpt lat="45.65577097458363" lon="9.37354432632105"><ele>227.0</ele><time>2026-04-09T11:53:03.002Z</time></trkpt><trkpt lat="45.65568806037613" lon="9.373319901828777"><ele>227.0</ele><time>2026-04-09T11:53:04.002Z</time></trkpt><trkpt lat="45.65560785755181" lon="9.373105186299275"><ele>227.0</ele><time>2026-04-09T11:53:05.002Z</time></trkpt><trkpt lat="45.65552839991839" lon="9.372893487161956"><ele>227.0</ele><time>2026-04-09T11:53:06.002Z</time></trkpt><trkpt lat="45.65544625025071" lon="9.372674749653939"><ele>228.33333333333334</ele><time>2026-04-09T11:53:07.002Z</time></trkpt><trkpt lat="45.65536015991999" lon="9.372444943942906"><ele>229.66666666666669</ele><time>2026-04-09T11:53:08.002Z</time></trkpt><trkpt lat="45.65527086087133" lon="9.372203802338976"><ele>231.0</ele><time>2026-04-09T11:53:09.002Z</time></trkpt><trkpt lat="45.65517740227456" lon="9.371955073825946"><ele>229.66666666666669</ele><time>2026-04-09T11:53:10.002Z</time></trkpt><trkpt lat="45.65507789961409" lon="9.37167357409443"><ele>228.33333333333334</ele><time>2026-04-09T11:53:11.003Z</time></trkpt><trkpt lat="45.65497572253964" lon="9.371396960043763"><ele>227.0</ele><time>2026-04-09T11:53:12.003Z</time></trkpt><trkpt lat="45.65488499238044" lon="9.371151858071585"><ele>227.0</ele><time>2026-04-09T11:53:13.003Z</time></trkpt><trkpt lat="45.65480002753772" lon="9.370923405764186"><ele>227.0</ele><time>2026-04-09T11:53:14.003Z</time></trkpt><trkpt lat="45.65470757904885" lon="9.370696832930514"><ele>227.0</ele><time>2026-04-09T11:53:15.003Z</time></trkpt><trkpt lat="45.654609872952726" lon="9.370472670109155"><ele>228.66666666666669</ele><time>2026-04-09T11:53:16.003Z</time></trkpt><trkpt lat="45.65450354327259" lon="9.370272568387142"><ele>230.33333333333331</ele><time>2026-04-09T11:53:17.003Z</time></trkpt><trkpt lat="45.65438054351182" lon="9.370106654109046"><ele>232.0</ele><time>2026-04-09T11:53:18.003Z</time></trkpt><trkpt lat="45.65424856636576" lon="9.369980468511432"><ele>228.0</ele><time>2026-04-09T11:53:19.003Z</time></trkpt><trkpt lat="45.65410599613831" lon="9.36988662630149"><ele>224.0</ele><time>2026-04-09T11:53:20.003Z</time></trkpt><trkpt lat="45.653960428930944" lon="9.369819194520549"><ele>220.0</ele><time>2026-04-09T11:53:21.003Z</time></trkpt><trkpt lat="45.653799014554934" lon="9.36975600521575"><ele>219.33333333333331</ele><time>2026-04-09T11:53:22.003Z</time></trkpt><trkpt lat="45.653622337978916" lon="9.369684128112395"><ele>218.66666666666669</ele><time>2026-04-09T11:53:23Z</time></trkpt><trkpt lat="45.65343726727893" lon="9.369602759761538"><ele>218.0</ele><time>2026-04-09T11:53:24Z</time></trkpt><trkpt lat="45.65327131928058" lon="9.36952580093884"><ele>218.0</ele><time>2026-04-09T11:53:25Z</time></trkpt><trkpt lat="45.65312377513967" lon="9.369454326687077"><ele>218.0</ele><time>2026-04-09T11:53:26Z</time></trkpt><trkpt lat="45.65296130758029" lon="9.369380474165661"><ele>218.0</ele><time>2026-04-09T11:53:27Z</time></trkpt><trkpt lat="45.652761279395826" lon="9.369286257804635"><ele>218.66666666666669</ele><time>2026-04-09T11:53:28Z</time></trkpt><trkpt lat="45.652579999290964" lon="9.36918361732683"><ele>219.33333333333331</ele><time>2026-04-09T11:53:29Z</time></trkpt><trkpt lat="45.652414586840735" lon="9.369097940016403"><ele>220.0</ele><time>2026-04-09T11:53:30Z</time></trkpt><trkpt lat="45.652246748649084" lon="9.369020770519624"><ele>220.0</ele><time>2026-04-09T11:53:31Z</time></trkpt><trkpt lat="45.65208905033213" lon="9.368957285862313"><ele>220.0</ele><time>2026-04-09T11:53:32Z</time></trkpt><trkpt lat="45.65193271226177" lon="9.368897794597357"><ele>220.0</ele><time>2026-04-09T11:53:33Z</time></trkpt><trkpt lat="45.65177663887734" lon="9.368848839185524"><ele>220.0</ele><time>2026-04-09T11:53:34Z</time></trkpt><trkpt lat="45.65162777055555" lon="9.368801632255737"><ele>220.0</ele><time>2026-04-09T11:53:35Z</time></trkpt><trkpt lat="45.651479265319814" lon="9.368751942456152"><ele>220.0</ele><time>2026-04-09T11:53:36Z</time></trkpt><trkpt lat="45.65133445252358" lon="9.368694898827057"><ele>220.0</ele><time>2026-04-09T11:53:37Z</time></trkpt><trkpt lat="45.65118992283311" lon="9.368639540512152"><ele>220.0</ele><time>2026-04-09T11:53:38Z</time></trkpt><trkpt lat="45.65104533826718" lon="9.368588118839813"><ele>220.0</ele><time>2026-04-09T11:53:39Z</time></trkpt><trkpt lat="45.65091102542643" lon="9.3685400681796"><ele>220.0</ele><time>2026-04-09T11:53:40Z</time></trkpt><trkpt lat="45.65077644784753" lon="9.368490748904227"><ele>220.0</ele><time>2026-04-09T11:53:41Z</time></trkpt><trkpt lat="45.65063492846302" lon="9.368441175548204"><ele>220.0</ele><time>2026-04-09T11:53:42Z</time></trkpt><trkpt lat="45.650489607960424" lon="9.36839241244501"><ele>220.0</ele><time>2026-04-09T11:53:43Z</time></trkpt><trkpt lat="45.650346186240625" lon="9.368340844317423"><ele>220.0</ele><time>2026-04-09T11:53:44Z</time></trkpt><trkpt lat="45.65020573376897" lon="9.36828775204741"><ele>219.25</ele><time>2026-04-09T11:53:45Z</time></trkpt><trkpt lat="45.65006528078373" lon="9.368234100419341"><ele>218.5</ele><time>2026-04-09T11:53:46Z</time></trkpt><trkpt lat="45.64992567031922" lon="9.368184683372421"><ele>217.75</ele><time>2026-04-09T11:53:47Z</time></trkpt><trkpt lat="45.64978381757495" lon="9.368136251660328"><ele>217.0</ele><time>2026-04-09T11:53:48Z</time></trkpt><trkpt lat="45.64964385106866" lon="9.368087041434592"><ele>217.0</ele><time>2026-04-09T11:53:49Z</time></trkpt><trkpt lat="45.64950039960341" lon="9.368038002375284"><ele>217.0</ele><time>2026-04-09T11:53:50Z</time></trkpt><trkpt lat="45.64935676769525" lon="9.367985708103376"><ele>217.0</ele><time>2026-04-09T11:53:51Z</time></trkpt><trkpt lat="45.64921138119166" lon="9.367929693457283"><ele>217.0</ele><time>2026-04-09T11:53:52Z</time></trkpt><trkpt lat="45.64906624162977" lon="9.367873332691698"><ele>216.66666666666666</ele><time>2026-04-09T11:53:53Z</time></trkpt><trkpt lat="45.64891865750605" lon="9.36782021990712"><ele>216.33333333333331</ele><time>2026-04-09T11:53:54Z</time></trkpt><trkpt lat="45.64876920099167" lon="9.367766623346357"><ele>216.0</ele><time>2026-04-09T11:53:55Z</time></trkpt><trkpt lat="45.64861845842765" lon="9.36771372657052"><ele>216.66666666666669</ele><time>2026-04-09T11:53:56Z</time></trkpt><trkpt lat="45.64846563920982" lon="9.367661332696876"><ele>217.33333333333334</ele><time>2026-04-09T11:53:57Z</time></trkpt><trkpt lat="45.64831188509546" lon="9.367608000151316"><ele>218.0</ele><time>2026-04-09T11:53:58Z</time></trkpt><trkpt lat="45.648153622145344" lon="9.36755431679394"><ele>218.0</ele><time>2026-04-09T11:53:59Z</time></trkpt><trkpt lat="45.64800024401597" lon="9.367500432725027"><ele>218.0</ele><time>2026-04-09T11:54:00Z</time></trkpt><trkpt lat="45.647846534593526" lon="9.367445880028425"><ele>218.0</ele><time>2026-04-09T11:54:01Z</time></trkpt><trkpt lat="45.647703714983415" lon="9.367395629663008"><ele>218.33333333333334</ele><time>2026-04-09T11:54:02.001Z</time></trkpt><trkpt lat="45.6475648687541" lon="9.367348704736973"><ele>218.66666666666669</ele><time>2026-04-09T11:54:03.001Z</time></trkpt><trkpt lat="45.64741629473375" lon="9.36729659765026"><ele>219.0</ele><time>2026-04-09T11:54:04.001Z</time></trkpt><trkpt lat="45.6472620714427" lon="9.367240580501575"><ele>218.66666666666669</ele><time>2026-04-09T11:54:05.001Z</time></trkpt><trkpt lat="45.64710258254327" lon="9.367186468231203"><ele>218.33333333333334</ele><time>2026-04-09T11:54:06.001Z</time></trkpt><trkpt lat="45.64694432547412" lon="9.367128313007074"><ele>218.0</ele><time>2026-04-09T11:54:07.001Z</time></trkpt><trkpt lat="45.64679237463601" lon="9.36707157422953"><ele>218.66666666666669</ele><time>2026-04-09T11:54:08.001Z</time></trkpt><trkpt lat="45.64664274635626" lon="9.367019255789232"><ele>219.33333333333331</ele><time>2026-04-09T11:54:09.001Z</time></trkpt><trkpt lat="45.646487407968436" lon="9.366961940311006"><ele>220.0</ele><time>2026-04-09T11:54:10.001Z</time></trkpt><trkpt lat="45.64632959128548" lon="9.366905380119006"><ele>220.0</ele><time>2026-04-09T11:54:11.001Z</time></trkpt><trkpt lat="45.64616736302613" lon="9.366850260645826"><ele>220.0</ele><time>2026-04-09T11:54:12.001Z</time></trkpt><trkpt lat="45.646005296921054" lon="9.366794268210434"><ele>220.0</ele><time>2026-04-09T11:54:13.001Z</time></trkpt><trkpt lat="45.64584444733203" lon="9.366738989885706"><ele>218.33333333333331</ele><time>2026-04-09T11:54:14.001Z</time></trkpt><trkpt lat="45.64566643965414" lon="9.366681683921344"><ele>216.66666666666669</ele><time>2026-04-09T11:54:15.001Z</time></trkpt><trkpt lat="45.64548540986373" lon="9.366620999214254"><ele>215.0</ele><time>2026-04-09T11:54:16.001Z</time></trkpt><trkpt lat="45.64531197704747" lon="9.366560662404575"><ele>214.66666666666669</ele><time>2026-04-09T11:54:17.001Z</time></trkpt><trkpt lat="45.64511877282511" lon="9.366491004441933"><ele>214.33333333333331</ele><time>2026-04-09T11:54:18.001Z</time></trkpt><trkpt lat="45.644903584648155" lon="9.366408828344335"><ele>214.0</ele><time>2026-04-09T11:54:19.001Z</time></trkpt><trkpt lat="45.64468083582388" lon="9.36632334552484"><ele>215.0</ele><time>2026-04-09T11:54:20.001Z</time></trkpt><trkpt lat="45.644478647857554" lon="9.366240522748708"><ele>216.0</ele><time>2026-04-09T11:54:21.001Z</time></trkpt><trkpt lat="45.644278237649196" lon="9.366160397447914"><ele>217.0</ele><time>2026-04-09T11:54:22.001Z</time></trkpt><trkpt lat="45.64407530011911" lon="9.366085894532635"><ele>218.0</ele><time>2026-04-09T11:54:23.001Z</time></trkpt><trkpt lat="45.64386096852537" lon="9.366001810410026"><ele>219.0</ele><time>2026-04-09T11:54:24.001Z</time></trkpt><trkpt lat="45.643634856595284" lon="9.365916005963818"><ele>217.5</ele><time>2026-04-09T11:54:25.001Z</time></trkpt><trkpt lat="45.643410962774674" lon="9.365838535366212"><ele>216.0</ele><time>2026-04-09T11:54:26.001Z</time></trkpt><trkpt lat="45.64319043687516" lon="9.365759699315817"><ele>216.0</ele><time>2026-04-09T11:54:27.001Z</time></trkpt><trkpt lat="45.64297142927518" lon="9.365681045300347"><ele>216.0</ele><time>2026-04-09T11:54:28.001Z</time></trkpt><trkpt lat="45.6427447531533" lon="9.365599270257519"><ele>216.0</ele><time>2026-04-09T11:54:29.001Z</time></trkpt><trkpt lat="45.64251825083814" lon="9.365517380503121"><ele>216.0</ele><time>2026-04-09T11:54:30.001Z</time></trkpt><trkpt lat="45.64229353272069" lon="9.365443603860468"><ele>216.0</ele><time>2026-04-09T11:54:31.001Z</time></trkpt><trkpt lat="45.642085573231626" lon="9.365366352376828"><ele>216.0</ele><time>2026-04-09T11:54:32.001Z</time></trkpt><trkpt lat="45.64188945453512" lon="9.365295904010365"><ele>216.0</ele><time>2026-04-09T11:54:33.001Z</time></trkpt><trkpt lat="45.64167170283345" lon="9.365225808405182"><ele>215.5</ele><time>2026-04-09T11:54:34.001Z</time></trkpt><trkpt lat="45.641460355905885" lon="9.365140199133615"><ele>215.0</ele><time>2026-04-09T11:54:35.001Z</time></trkpt><trkpt lat="45.64123226317735" lon="9.365060297275987"><ele>213.5</ele><time>2026-04-09T11:54:36.001Z</time></trkpt><trkpt lat="45.64099339693404" lon="9.364977381842163"><ele>212.0</ele><time>2026-04-09T11:54:37.001Z</time></trkpt><trkpt lat="45.640768709248896" lon="9.364898253523755"><ele>212.0</ele><time>2026-04-09T11:54:38.001Z</time></trkpt><trkpt lat="45.64055060389154" lon="9.364822409263619"><ele>212.0</ele><time>2026-04-09T11:54:39.001Z</time></trkpt><trkpt lat="45.640331153044016" lon="9.364745051833095"><ele>212.0</ele><time>2026-04-09T11:54:40.001Z</time></trkpt><trkpt lat="45.640107576522496" lon="9.364663802226616"><ele>212.0</ele><time>2026-04-09T11:54:41.001Z</time></trkpt><trkpt lat="45.639880923822304" lon="9.364579499431038"><ele>212.0</ele><time>2026-04-09T11:54:42.002Z</time></trkpt><trkpt lat="45.63964734808889" lon="9.364498346222634"><ele>212.0</ele><time>2026-04-09T11:54:43.002Z</time></trkpt><trkpt lat="45.63941109258269" lon="9.364417306671887"><ele>211.5</ele><time>2026-04-09T11:54:44.002Z</time></trkpt><trkpt lat="45.639173694747576" lon="9.364340284058583"><ele>211.0</ele><time>2026-04-09T11:54:45.002Z</time></trkpt><trkpt lat="45.638939467932914" lon="9.364260220812108"><ele>211.0</ele><time>2026-04-09T11:54:46.002Z</time></trkpt><trkpt lat="45.638699209316194" lon="9.364188140242874"><ele>211.0</ele><time>2026-04-09T11:54:47.002Z</time></trkpt><trkpt lat="45.63846861433942" lon="9.364121237722298"><ele>211.5</ele><time>2026-04-09T11:54:48.002Z</time></trkpt><trkpt lat="45.63823450819676" lon="9.364054994602265"><ele>212.0</ele><time>2026-04-09T11:54:49.002Z</time></trkpt><trkpt lat="45.63800227775109" lon="9.363987880737099"><ele>212.0</ele><time>2026-04-09T11:54:50.002Z</time></trkpt><trkpt lat="45.63776377138591" lon="9.363918999910288"><ele>212.0</ele><time>2026-04-09T11:54:51.002Z</time></trkpt><trkpt lat="45.63752986413967" lon="9.363856859264986"><ele>212.0</ele><time>2026-04-09T11:54:52.002Z</time></trkpt><trkpt lat="45.63729586464979" lon="9.363796006296672"><ele>212.0</ele><time>2026-04-09T11:54:53.002Z</time></trkpt><trkpt lat="45.6370638784375" lon="9.363737487563562"><ele>211.5</ele><time>2026-04-09T11:54:54.002Z</time></trkpt><trkpt lat="45.63682317374329" lon="9.3636762405349"><ele>211.0</ele><time>2026-04-09T11:54:55.002Z</time></trkpt><trkpt lat="45.63657974144755" lon="9.3636217719028"><ele>211.0</ele><time>2026-04-09T11:54:56.002Z</time></trkpt><trkpt lat="45.636336169884714" lon="9.363570126344975"><ele>211.0</ele><time>2026-04-09T11:54:57.002Z</time></trkpt><trkpt lat="45.63608926572049" lon="9.363517646345992"><ele>211.0</ele><time>2026-04-09T11:54:58.002Z</time></trkpt><trkpt lat="45.635841815087076" lon="9.363465922063341"><ele>211.0</ele><time>2026-04-09T11:54:59.002Z</time></trkpt><trkpt lat="45.63559367515003" lon="9.36341053032343"><ele>211.0</ele><time>2026-04-09T11:55:00.002Z</time></trkpt><trkpt lat="45.635345797356486" lon="9.36335488032384"><ele>211.0</ele><time>2026-04-09T11:55:01.002Z</time></trkpt><trkpt lat="45.63509351153685" lon="9.363299053155608"><ele>211.0</ele><time>2026-04-09T11:55:02.002Z</time></trkpt><trkpt lat="45.634846567436334" lon="9.363243720828407"><ele>211.0</ele><time>2026-04-09T11:55:03.002Z</time></trkpt><trkpt lat="45.63459670186809" lon="9.363182704524519"><ele>211.0</ele><time>2026-04-09T11:55:04.002Z</time></trkpt><trkpt lat="45.6343418462727" lon="9.363126731599664"><ele>211.0</ele><time>2026-04-09T11:55:05.002Z</time></trkpt><trkpt lat="45.634088232724" lon="9.363076014616132"><ele>211.5</ele><time>2026-04-09T11:55:06.002Z</time></trkpt><trkpt lat="45.63382954144933" lon="9.363025647335837"><ele>212.0</ele><time>2026-04-09T11:55:07.002Z</time></trkpt><trkpt lat="45.63356977040662" lon="9.362974762220807"><ele>211.0</ele><time>2026-04-09T11:55:08.002Z</time></trkpt><trkpt lat="45.63331370397709" lon="9.362921252975905"><ele>210.0</ele><time>2026-04-09T11:55:09.002Z</time></trkpt><trkpt lat="45.63306042512027" lon="9.362869235195467"><ele>210.0</ele><time>2026-04-09T11:55:10.002Z</time></trkpt><trkpt lat="45.63282111620426" lon="9.362819747268475"><ele>210.0</ele><time>2026-04-09T11:55:11.002Z</time></trkpt><trkpt lat="45.63259066405999" lon="9.362790354441463"><ele>210.0</ele><time>2026-04-09T11:55:12.002Z</time></trkpt><trkpt lat="45.63235224982138" lon="9.362745214442526"><ele>210.0</ele><time>2026-04-09T11:55:13.002Z</time></trkpt><trkpt lat="45.632112225858634" lon="9.362705906476897"><ele>209.5</ele><time>2026-04-09T11:55:14.002Z</time></trkpt><trkpt lat="45.63186453532544" lon="9.362662809278726"><ele>209.0</ele><time>2026-04-09T11:55:15.002Z</time></trkpt><trkpt lat="45.63160452049524" lon="9.362608207146868"><ele>209.0</ele><time>2026-04-09T11:55:16.002Z</time></trkpt><trkpt lat="45.631338350590134" lon="9.36254299847478"><ele>209.0</ele><time>2026-04-09T11:55:17.002Z</time></trkpt><trkpt lat="45.63108103604496" lon="9.362481508703837"><ele>209.0</ele><time>2026-04-09T11:55:18.002Z</time></trkpt><trkpt lat="45.63083186565296" lon="9.36242716603641"><ele>209.0</ele><time>2026-04-09T11:55:19.002Z</time></trkpt><trkpt lat="45.630586317265966" lon="9.362376954466678"><ele>209.0</ele><time>2026-04-09T11:55:20.002Z</time></trkpt><trkpt lat="45.63034408183391" lon="9.362327433510176"><ele>209.0</ele><time>2026-04-09T11:55:21.002Z</time></trkpt><trkpt lat="45.630109687929576" lon="9.362282655969755"><ele>209.0</ele><time>2026-04-09T11:55:22.003Z</time></trkpt><trkpt lat="45.6298823821687" lon="9.362237831648224"><ele>209.0</ele><time>2026-04-09T11:55:23.003Z</time></trkpt><trkpt lat="45.629664210401494" lon="9.362192059666738"><ele>209.0</ele><time>2026-04-09T11:55:24.003Z</time></trkpt><trkpt lat="45.62944154100873" lon="9.36214921498673"><ele>209.0</ele><time>2026-04-09T11:55:25.003Z</time></trkpt><trkpt lat="45.62921512237395" lon="9.36210661942285"><ele>209.0</ele><time>2026-04-09T11:55:26.003Z</time></trkpt><trkpt lat="45.62898372991321" lon="9.36206628376952"><ele>209.0</ele><time>2026-04-09T11:55:27.003Z</time></trkpt><trkpt lat="45.62874247046788" lon="9.362026239413286"><ele>208.5</ele><time>2026-04-09T11:55:28.003Z</time></trkpt><trkpt lat="45.62850085860964" lon="9.361987225984853"><ele>208.0</ele><time>2026-04-09T11:55:28.999Z</time></trkpt><trkpt lat="45.62825548132601" lon="9.361943654354185"><ele>208.0</ele><time>2026-04-09T11:55:29.999Z</time></trkpt><trkpt lat="45.628004955920446" lon="9.361897680684974"><ele>208.0</ele><time>2026-04-09T11:55:30.999Z</time></trkpt><trkpt lat="45.6277492066665" lon="9.361846317748366"><ele>207.0</ele><time>2026-04-09T11:55:31.999Z</time></trkpt><trkpt lat="45.62748539177247" lon="9.361792909646612"><ele>206.0</ele><time>2026-04-09T11:55:32.999Z</time></trkpt><trkpt lat="45.62721995393946" lon="9.361733429483987"><ele>204.5</ele><time>2026-04-09T11:55:33.999Z</time></trkpt><trkpt lat="45.62695757754888" lon="9.361681636907214"><ele>203.0</ele><time>2026-04-09T11:55:34.999Z</time></trkpt><trkpt lat="45.62669653636294" lon="9.361633131342343"><ele>203.0</ele><time>2026-04-09T11:55:35.999Z</time></trkpt><trkpt lat="45.62643378556722" lon="9.361582118142453"><ele>203.0</ele><time>2026-04-09T11:55:36.999Z</time></trkpt><trkpt lat="45.62617597411055" lon="9.361530555282592"><ele>203.0</ele><time>2026-04-09T11:55:37.999Z</time></trkpt><trkpt lat="45.625915706225605" lon="9.361475028954718"><ele>203.0</ele><time>2026-04-09T11:55:38.999Z</time></trkpt><trkpt lat="45.625662633248155" lon="9.361413495075597"><ele>202.0</ele><time>2026-04-09T11:55:39.999Z</time></trkpt><trkpt lat="45.625407445457284" lon="9.361352286941399"><ele>201.0</ele><time>2026-04-09T11:55:40.999Z</time></trkpt><trkpt lat="45.62515456025445" lon="9.361297835556735"><ele>201.0</ele><time>2026-04-09T11:55:41.999Z</time></trkpt><trkpt lat="45.62489727837416" lon="9.361249683338261"><ele>201.0</ele><time>2026-04-09T11:55:42.999Z</time></trkpt><trkpt lat="45.62464740978217" lon="9.361203461100548"><ele>200.0</ele><time>2026-04-09T11:55:43.999Z</time></trkpt><trkpt lat="45.62439390744561" lon="9.36115425604968"><ele>199.0</ele><time>2026-04-09T11:55:44.999Z</time></trkpt><trkpt lat="45.6241293677869" lon="9.361109684708428"><ele>199.0</ele><time>2026-04-09T11:55:45.999Z</time></trkpt><trkpt lat="45.62385610103856" lon="9.361061284777778"><ele>199.0</ele><time>2026-04-09T11:55:46.999Z</time></trkpt><trkpt lat="45.62357893115995" lon="9.361012628226966"><ele>199.0</ele><time>2026-04-09T11:55:47.999Z</time></trkpt><trkpt lat="45.62330615825813" lon="9.36095795863211"><ele>199.0</ele><time>2026-04-09T11:55:48.999Z</time></trkpt><trkpt lat="45.62303683144069" lon="9.36090491930642"><ele>197.5</ele><time>2026-04-09T11:55:49.999Z</time></trkpt><trkpt lat="45.622763877702795" lon="9.36085480560296"><ele>196.0</ele><time>2026-04-09T11:55:50.999Z</time></trkpt><trkpt lat="45.62249112484511" lon="9.360803766217549"><ele>196.0</ele><time>2026-04-09T11:55:51.999Z</time></trkpt><trkpt lat="45.62221933325326" lon="9.360753008343593"><ele>196.0</ele><time>2026-04-09T11:55:52.999Z</time></trkpt><trkpt lat="45.62194443413922" lon="9.360697989237439"><ele>195.0</ele><time>2026-04-09T11:55:54Z</time></trkpt><trkpt lat="45.62167369707185" lon="9.36064329413447"><ele>194.0</ele><time>2026-04-09T11:55:55Z</time></trkpt><trkpt lat="45.62139526147912" lon="9.360588036626206"><ele>194.0</ele><time>2026-04-09T11:55:56Z</time></trkpt><trkpt lat="45.62112261330179" lon="9.360533953334729"><ele>194.0</ele><time>2026-04-09T11:55:57Z</time></trkpt><trkpt lat="45.620845986311664" lon="9.360478079941515"><ele>194.0</ele><time>2026-04-09T11:55:58Z</time></trkpt><trkpt lat="45.62056866003916" lon="9.360419795047248"><ele>194.0</ele><time>2026-04-09T11:55:59Z</time></trkpt><trkpt lat="45.62028923657431" lon="9.360359014102057"><ele>192.5</ele><time>2026-04-09T11:56:00Z</time></trkpt><trkpt lat="45.620013135504934" lon="9.360299638632984"><ele>191.0</ele><time>2026-04-09T11:56:01Z</time></trkpt><trkpt lat="45.619734902559124" lon="9.360241031428403"><ele>191.5</ele><time>2026-04-09T11:56:02Z</time></trkpt><trkpt lat="45.619454293368165" lon="9.36018444111227"><ele>192.0</ele><time>2026-04-09T11:56:03Z</time></trkpt><trkpt lat="45.61917578466082" lon="9.360133138148457"><ele>192.0</ele><time>2026-04-09T11:56:04Z</time></trkpt><trkpt lat="45.61889376195359" lon="9.36008327757555"><ele>192.0</ele><time>2026-04-09T11:56:05Z</time></trkpt><trkpt lat="45.61860958627345" lon="9.360032010327686"><ele>193.0</ele><time>2026-04-09T11:56:06Z</time></trkpt><trkpt lat="45.61832407299642" lon="9.359980333750418"><ele>194.0</ele><time>2026-04-09T11:56:07Z</time></trkpt><trkpt lat="45.61803684220236" lon="9.359922860450117"><ele>195.5</ele><time>2026-04-09T11:56:08.016Z</time></trkpt><trkpt lat="45.6177501443193" lon="9.359873397548979"><ele>197.0</ele><time>2026-04-09T11:56:09.013Z</time></trkpt><trkpt lat="45.617462268751545" lon="9.359817229206753"><ele>197.0</ele><time>2026-04-09T11:56:10.019Z</time></trkpt><trkpt lat="45.61717512796546" lon="9.359765627958446"><ele>197.0</ele><time>2026-04-09T11:56:11.015Z</time></trkpt><trkpt lat="45.61079967771248" lon="9.359888378539457"><ele>191.5</ele><time>2026-04-09T11:56:35.001Z</time></trkpt><trkpt lat="45.61053699044949" lon="9.35999691895436"><ele>186.0</ele><time>2026-04-09T11:56:36.001Z</time></trkpt><trkpt lat="45.61026305314498" lon="9.360211384533294"><ele>184.5</ele><time>2026-04-09T11:56:37.001Z</time></trkpt><trkpt lat="45.6100157662209" lon="9.360317079104865"><ele>183.0</ele><time>2026-04-09T11:56:38.001Z</time></trkpt><trkpt lat="45.60977027156351" lon="9.36041294648829"><ele>183.0</ele><time>2026-04-09T11:56:39.001Z</time></trkpt><trkpt lat="45.60952084091559" lon="9.360510502615723"><ele>183.0</ele><time>2026-04-09T11:56:40.001Z</time></trkpt><trkpt lat="45.6092717416984" lon="9.360618753471678"><ele>184.0</ele><time>2026-04-09T11:56:41.001Z</time></trkpt><trkpt lat="45.60902119231894" lon="9.360722301473812"><ele>185.0</ele><time>2026-04-09T11:56:42.001Z</time></trkpt><trkpt lat="45.60877563591896" lon="9.360827339466466"><ele>185.0</ele><time>2026-04-09T11:56:43.001Z</time></trkpt><trkpt lat="45.60853796660116" lon="9.360922290255113"><ele>185.0</ele><time>2026-04-09T11:56:44.001Z</time></trkpt><trkpt lat="45.608300732171685" lon="9.361012036146041"><ele>185.0</ele><time>2026-04-09T11:56:45.001Z</time></trkpt><trkpt lat="45.608063467369334" lon="9.361101774105641"><ele>185.0</ele><time>2026-04-09T11:56:46.001Z</time></trkpt><trkpt lat="45.60782560548205" lon="9.361193133972506"><ele>185.5</ele><time>2026-04-09T11:56:47.001Z</time></trkpt><trkpt lat="45.60759285642848" lon="9.361287386035373"><ele>186.0</ele><time>2026-04-09T11:56:48.001Z</time></trkpt><trkpt lat="45.60736024390178" lon="9.361412420545667"><ele>185.0</ele><time>2026-04-09T11:56:49.001Z</time></trkpt><trkpt lat="45.607139841331836" lon="9.361505010406702"><ele>184.0</ele><time>2026-04-09T11:56:50.001Z</time></trkpt><trkpt lat="45.60692762718017" lon="9.361592332018683"><ele>183.33333333333334</ele><time>2026-04-09T11:56:51.001Z</time></trkpt><trkpt lat="45.60670985600146" lon="9.36167853240245"><ele>182.66666666666666</ele><time>2026-04-09T11:56:52.001Z</time></trkpt><trkpt lat="45.606498906666744" lon="9.361764599144252"><ele>182.0</ele><time>2026-04-09T11:56:53.002Z</time></trkpt><trkpt lat="45.60630127874429" lon="9.361838265118116"><ele>183.66666666666666</ele><time>2026-04-09T11:56:54.002Z</time></trkpt><trkpt lat="45.60611445390064" lon="9.361909434743156"><ele>185.33333333333334</ele><time>2026-04-09T11:56:55.002Z</time></trkpt><trkpt lat="45.6059415631925" lon="9.36197698840985"><ele>187.0</ele><time>2026-04-09T11:56:56.002Z</time></trkpt><trkpt lat="45.60577991198043" lon="9.362034427465112"><ele>187.0</ele><time>2026-04-09T11:56:57.002Z</time></trkpt><trkpt lat="45.605614393287794" lon="9.362087499146332"><ele>187.0</ele><time>2026-04-09T11:56:58.002Z</time></trkpt><trkpt lat="45.60546058306963" lon="9.362141937513249"><ele>187.0</ele><time>2026-04-09T11:56:59.002Z</time></trkpt><trkpt lat="45.605311306691156" lon="9.362202964079374"><ele>185.66666666666669</ele><time>2026-04-09T11:57:00.002Z</time></trkpt><trkpt lat="45.6051610541709" lon="9.362264774530631"><ele>184.33333333333334</ele><time>2026-04-09T11:57:01.002Z</time></trkpt><trkpt lat="45.60499978343171" lon="9.362334654912019"><ele>183.0</ele><time>2026-04-09T11:57:02.002Z</time></trkpt><trkpt lat="45.604847047516614" lon="9.36239871565328"><ele>183.0</ele><time>2026-04-09T11:57:03.002Z</time></trkpt><trkpt lat="45.604696524786014" lon="9.362459724548387"><ele>183.0</ele><time>2026-04-09T11:57:04.002Z</time></trkpt><trkpt lat="45.60455273687491" lon="9.362508840432811"><ele>183.0</ele><time>2026-04-09T11:57:05.002Z</time></trkpt><trkpt lat="45.60441430216283" lon="9.362543983298373"><ele>183.0</ele><time>2026-04-09T11:57:06.002Z</time></trkpt><trkpt lat="45.604284614824245" lon="9.362573655308967"><ele>182.2</ele><time>2026-04-09T11:57:07.002Z</time></trkpt><trkpt lat="45.60418447960865" lon="9.362629168454044"><ele>181.4</ele><time>2026-04-09T11:57:08.002Z</time></trkpt><trkpt lat="45.604080697491696" lon="9.362560680610983"><ele>180.6</ele><time>2026-04-09T11:57:09.002Z</time></trkpt><trkpt lat="45.60400513028888" lon="9.362492768660692"><ele>179.79999999999998</ele><time>2026-04-09T11:57:10.002Z</time></trkpt><trkpt lat="45.60394025311394" lon="9.362383682030288"><ele>179.0</ele><time>2026-04-09T11:57:11.002Z</time></trkpt><trkpt lat="45.603876541363974" lon="9.362231496702469"><ele>179.75</ele><time>2026-04-09T11:57:12.002Z</time></trkpt><trkpt lat="45.60385269533638" lon="9.36202327273613"><ele>180.5</ele><time>2026-04-09T11:57:13.002Z</time></trkpt><trkpt lat="45.60378200512494" lon="9.36184334358593"><ele>181.25</ele><time>2026-04-09T11:57:14.002Z</time></trkpt><trkpt lat="45.60374271281696" lon="9.361671600919832"><ele>182.0</ele><time>2026-04-09T11:57:15.002Z</time></trkpt><trkpt lat="45.6037203800897" lon="9.361526772962474"><ele>182.0</ele><time>2026-04-09T11:57:16.002Z</time></trkpt><trkpt lat="45.60373124527551" lon="9.36139776120334"><ele>182.0</ele><time>2026-04-09T11:57:17.002Z</time></trkpt><trkpt lat="45.603777448620775" lon="9.361279069693614"><ele>182.0</ele><time>2026-04-09T11:57:18.002Z</time></trkpt><trkpt lat="45.60382321803764" lon="9.361173007832685"><ele>182.0</ele><time>2026-04-09T11:57:19.002Z</time></trkpt><trkpt lat="45.60384501512131" lon="9.361050390385648"><ele>182.0</ele><time>2026-04-09T11:57:20.002Z</time></trkpt><trkpt lat="45.60387520465453" lon="9.360930812133226"><ele>181.6</ele><time>2026-04-09T11:57:21.002Z</time></trkpt><trkpt lat="45.60378133287241" lon="9.36082238083754"><ele>181.2</ele><time>2026-04-09T11:57:22.002Z</time></trkpt><trkpt lat="45.603708463767916" lon="9.36074268851777"><ele>180.8</ele><time>2026-04-09T11:57:23.002Z</time></trkpt><trkpt lat="45.603617533282254" lon="9.360692509704664"><ele>180.4</ele><time>2026-04-09T11:57:24.002Z</time></trkpt><trkpt lat="45.603516670252574" lon="9.360670160362611"><ele>180.0</ele><time>2026-04-09T11:57:25.002Z</time></trkpt><trkpt lat="45.603433017590234" lon="9.360656098170795"><ele>179.83333333333334</ele><time>2026-04-09T11:57:26.002Z</time></trkpt><trkpt lat="45.60336907964087" lon="9.360639474514354"><ele>179.66666666666666</ele><time>2026-04-09T11:57:27.002Z</time></trkpt><trkpt lat="45.603303006010265" lon="9.360615109856207"><ele>179.5</ele><time>2026-04-09T11:57:28.003Z</time></trkpt><trkpt lat="45.603238992990875" lon="9.360631514766684"><ele>179.33333333333331</ele><time>2026-04-09T11:57:29.003Z</time></trkpt><trkpt lat="45.6031746727862" lon="9.360632543268697"><ele>179.16666666666666</ele><time>2026-04-09T11:57:31.003Z</time></trkpt><trkpt lat="45.6030337424638" lon="9.360637266563941"><ele>179.0</ele><time>2026-04-09T11:57:33.003Z</time></trkpt><trkpt lat="45.6029353653677" lon="9.360665919829252"><ele>179.0</ele><time>2026-04-09T11:57:34.003Z</time></trkpt><trkpt lat="45.60284688628557" lon="9.36069257053245"><ele>179.0</ele><time>2026-04-09T11:57:34.998Z</time></trkpt><trkpt lat="45.60274998628626" lon="9.36070786540482"><ele>179.0</ele><time>2026-04-09T11:57:35.998Z</time></trkpt><trkpt lat="45.60264527339885" lon="9.360697539079416"><ele>179.0</ele><time>2026-04-09T11:57:36.998Z</time></trkpt><trkpt lat="45.6025407955347" lon="9.360658447658103"><ele>179.0</ele><time>2026-04-09T11:57:37.998Z</time></trkpt><trkpt lat="45.60245539985432" lon="9.36058754389703"><ele>179.5</ele><time>2026-04-09T11:57:38.998Z</time></trkpt><trkpt lat="45.60238154030713" lon="9.360483743221273"><ele>180.0</ele><time>2026-04-09T11:57:39.998Z</time></trkpt><trkpt lat="45.60230219814774" lon="9.360372299312116"><ele>180.5</ele><time>2026-04-09T11:57:40.998Z</time></trkpt><trkpt lat="45.60225173258302" lon="9.360152401606625"><ele>181.0</ele><time>2026-04-09T11:57:41.998Z</time></trkpt><trkpt lat="45.602177868628516" lon="9.359935955198385"><ele>181.0</ele><time>2026-04-09T11:57:42.998Z</time></trkpt><trkpt lat="45.60210291967312" lon="9.359732213494201"><ele>181.0</ele><time>2026-04-09T11:57:43.998Z</time></trkpt><trkpt lat="45.60203100393367" lon="9.359549187959514"><ele>181.0</ele><time>2026-04-09T11:57:44.998Z</time></trkpt><trkpt lat="45.601975772464925" lon="9.359360974684638"><ele>180.75</ele><time>2026-04-09T11:57:45.998Z</time></trkpt><trkpt lat="45.60191108216482" lon="9.359199112796249"><ele>180.5</ele><time>2026-04-09T11:57:46.998Z</time></trkpt><trkpt lat="45.60183356756898" lon="9.359046201499849"><ele>180.25</ele><time>2026-04-09T11:57:47.998Z</time></trkpt><trkpt lat="45.60177513313578" lon="9.35887758130632"><ele>180.0</ele><time>2026-04-09T11:57:48.998Z</time></trkpt><trkpt lat="45.60170770868073" lon="9.35870947527126"><ele>180.0</ele><time>2026-04-09T11:57:49.998Z</time></trkpt><trkpt lat="45.60164143690056" lon="9.35854058080167"><ele>180.0</ele><time>2026-04-09T11:57:50.998Z</time></trkpt><trkpt lat="45.60158199197637" lon="9.358384582145336"><ele>180.0</ele><time>2026-04-09T11:57:51.999Z</time></trkpt><trkpt lat="45.60151968030233" lon="9.358224871582841"><ele>180.0</ele><time>2026-04-09T11:57:52.999Z</time></trkpt><trkpt lat="45.60145322833126" lon="9.358058538430198"><ele>179.25</ele><time>2026-04-09T11:57:53.999Z</time></trkpt><trkpt lat="45.60138894555618" lon="9.357884653999017"><ele>178.5</ele><time>2026-04-09T11:57:54.999Z</time></trkpt><trkpt lat="45.601319257336314" lon="9.357717791363063"><ele>177.75</ele><time>2026-04-09T11:57:55.999Z</time></trkpt><trkpt lat="45.601256346932686" lon="9.357556929482383"><ele>177.0</ele><time>2026-04-09T11:57:56.999Z</time></trkpt><trkpt lat="45.60119486299046" lon="9.35739524155899"><ele>178.25</ele><time>2026-04-09T11:57:57.999Z</time></trkpt><trkpt lat="45.60113161415844" lon="9.357230233224906"><ele>179.5</ele><time>2026-04-09T11:57:58.999Z</time></trkpt><trkpt lat="45.60106514970485" lon="9.357059292996825"><ele>180.75</ele><time>2026-04-09T11:57:59.999Z</time></trkpt><trkpt lat="45.600997545830644" lon="9.356886248643969"><ele>182.0</ele><time>2026-04-09T11:58:00.999Z</time></trkpt><trkpt lat="45.60093241476182" lon="9.356727417163128"><ele>182.0</ele><time>2026-04-09T11:58:01.999Z</time></trkpt><trkpt lat="45.600871218974234" lon="9.356586783742912"><ele>182.0</ele><time>2026-04-09T11:58:02.999Z</time></trkpt><trkpt lat="45.60080760735222" lon="9.356469085206868"><ele>182.0</ele><time>2026-04-09T11:58:03.999Z</time></trkpt><trkpt lat="45.60074656404805" lon="9.356362247457428"><ele>182.0</ele><time>2026-04-09T11:58:04.999Z</time></trkpt><trkpt lat="45.600690025926404" lon="9.356259790536795"><ele>182.0</ele><time>2026-04-09T11:58:05.999Z</time></trkpt><trkpt lat="45.60064257219152" lon="9.356159652612233"><ele>181.2</ele><time>2026-04-09T11:58:06.999Z</time></trkpt><trkpt lat="45.60060720195069" lon="9.356050436405878"><ele>180.39999999999998</ele><time>2026-04-09T11:58:07.999Z</time></trkpt><trkpt lat="45.60057698872492" lon="9.355922295268877"><ele>179.60000000000002</ele><time>2026-04-09T11:58:09Z</time></trkpt><trkpt lat="45.60054495632451" lon="9.35579035428427"><ele>178.8</ele><time>2026-04-09T11:58:10Z</time></trkpt><trkpt lat="45.600481804430096" lon="9.35567287030177"><ele>178.0</ele><time>2026-04-09T11:58:11Z</time></trkpt><trkpt lat="45.60040090996745" lon="9.355589499644731"><ele>178.0</ele><time>2026-04-09T11:58:12Z</time></trkpt><trkpt lat="45.600296757630375" lon="9.35555068563952"><ele>178.0</ele><time>2026-04-09T11:58:13Z</time></trkpt><trkpt lat="45.60017743191355" lon="9.355584706735392"><ele>178.0</ele><time>2026-04-09T11:58:14Z</time></trkpt><trkpt lat="45.60005141627079" lon="9.35555337985882"><ele>178.0</ele><time>2026-04-09T11:58:15Z</time></trkpt><trkpt lat="45.59992463141188" lon="9.355517707580775"><ele>178.25</ele><time>2026-04-09T11:58:16Z</time></trkpt><trkpt lat="45.599795573030654" lon="9.355484880064557"><ele>178.5</ele><time>2026-04-09T11:58:17Z</time></trkpt><trkpt lat="45.599685062879885" lon="9.35533310150618"><ele>178.75</ele><time>2026-04-09T11:58:18Z</time></trkpt><trkpt lat="45.59957441894924" lon="9.355188974839875"><ele>179.0</ele><time>2026-04-09T11:58:19Z</time></trkpt><trkpt lat="45.59947090125408" lon="9.35503002680978"><ele>178.5</ele><time>2026-04-09T11:58:20Z</time></trkpt><trkpt lat="45.599383221987075" lon="9.354855771221779"><ele>178.0</ele><time>2026-04-09T11:58:21Z</time></trkpt><trkpt lat="45.5993146082221" lon="9.354672454292054"><ele>177.5</ele><time>2026-04-09T11:58:22Z</time></trkpt><trkpt lat="45.59925634549871" lon="9.354476582318128"><ele>177.0</ele><time>2026-04-09T11:58:23Z</time></trkpt><trkpt lat="45.599202456822766" lon="9.354266353954756"><ele>177.0</ele><time>2026-04-09T11:58:24Z</time></trkpt><trkpt lat="45.599154175381884" lon="9.354049925214351"><ele>177.0</ele><time>2026-04-09T11:58:25Z</time></trkpt><trkpt lat="45.59910878845169" lon="9.353846104754494"><ele>177.0</ele><time>2026-04-09T11:58:26Z</time></trkpt><trkpt lat="45.59905802201182" lon="9.353644296869328"><ele>177.0</ele><time>2026-04-09T11:58:27Z</time></trkpt><trkpt lat="45.59900585069313" lon="9.35344473085228"><ele>177.0</ele><time>2026-04-09T11:58:28Z</time></trkpt><trkpt lat="45.59895818596265" lon="9.353248977857959"><ele>177.0</ele><time>2026-04-09T11:58:29Z</time></trkpt><trkpt lat="45.59891384697079" lon="9.353068324008122"><ele>177.0</ele><time>2026-04-09T11:58:30Z</time></trkpt><trkpt lat="45.59887302390482" lon="9.3528916327981"><ele>176.0</ele><time>2026-04-09T11:58:31Z</time></trkpt><trkpt lat="45.598831327242024" lon="9.352701318272109"><ele>175.0</ele><time>2026-04-09T11:58:32Z</time></trkpt><trkpt lat="45.59878816920367" lon="9.35251172721224"><ele>174.0</ele><time>2026-04-09T11:58:33Z</time></trkpt><trkpt lat="45.598739371979306" lon="9.35231880311392"><ele>173.0</ele><time>2026-04-09T11:58:34Z</time></trkpt><trkpt lat="45.59869320876059" lon="9.352124342420558"><ele>173.5</ele><time>2026-04-09T11:58:35.001Z</time></trkpt><trkpt lat="45.59864245025013" lon="9.351926872152012"><ele>174.0</ele><time>2026-04-09T11:58:36.001Z</time></trkpt><trkpt lat="45.59859326157808" lon="9.351725202915128"><ele>174.5</ele><time>2026-04-09T11:58:37.001Z</time></trkpt><trkpt lat="45.5985420723097" lon="9.351522946189164"><ele>175.0</ele><time>2026-04-09T11:58:38.001Z</time></trkpt><trkpt lat="45.598492617874" lon="9.351322298365586"><ele>175.33333333333334</ele><time>2026-04-09T11:58:39.001Z</time></trkpt><trkpt lat="45.59844186721745" lon="9.351116839853148"><ele>175.66666666666666</ele><time>2026-04-09T11:58:40.001Z</time></trkpt><trkpt lat="45.59839284949003" lon="9.350912482330617"><ele>176.0</ele><time>2026-04-09T11:58:41.001Z</time></trkpt><trkpt lat="45.59834385270763" lon="9.35071065429109"><ele>177.0</ele><time>2026-04-09T11:58:42.001Z</time></trkpt><trkpt lat="45.59829686920367" lon="9.35051271188241"><ele>178.0</ele><time>2026-04-09T11:58:43.001Z</time></trkpt><trkpt lat="45.59824931275796" lon="9.350313613876626"><ele>179.0</ele><time>2026-04-09T11:58:44.001Z</time></trkpt><trkpt lat="45.59820556854307" lon="9.350128752665206"><ele>180.0</ele><time>2026-04-09T11:58:45.001Z</time></trkpt><trkpt lat="45.59816444345493" lon="9.349946326746574"><ele>180.0</ele><time>2026-04-09T11:58:46.001Z</time></trkpt><trkpt lat="45.59812351466748" lon="9.34977163639579"><ele>180.0</ele><time>2026-04-09T11:58:47.001Z</time></trkpt><trkpt lat="45.598080651402235" lon="9.349592991839735"><ele>180.0</ele><time>2026-04-09T11:58:48.001Z</time></trkpt><trkpt lat="45.5980395428262" lon="9.349420083532834"><ele>180.0</ele><time>2026-04-09T11:58:49.001Z</time></trkpt><trkpt lat="45.59799754341235" lon="9.349247671997208"><ele>179.25</ele><time>2026-04-09T11:58:50.001Z</time></trkpt><trkpt lat="45.59795808196905" lon="9.349075892152738"><ele>178.5</ele><time>2026-04-09T11:58:51.001Z</time></trkpt><trkpt lat="45.59791540884571" lon="9.34890210909295"><ele>177.75</ele><time>2026-04-09T11:58:52.001Z</time></trkpt><trkpt lat="45.59787213990519" lon="9.348728159487061"><ele>177.0</ele><time>2026-04-09T11:58:53.001Z</time></trkpt><trkpt lat="45.59783035665397" lon="9.348560394684373"><ele>177.0</ele><time>2026-04-09T11:58:54.001Z</time></trkpt><trkpt lat="45.59778986904592" lon="9.348393506944129"><ele>177.0</ele><time>2026-04-09T11:58:55.001Z</time></trkpt><trkpt lat="45.59775113181339" lon="9.34823053111826"><ele>177.0</ele><time>2026-04-09T11:58:56.001Z</time></trkpt><trkpt lat="45.597713848348334" lon="9.348067785617486"><ele>177.0</ele><time>2026-04-09T11:58:57.001Z</time></trkpt><trkpt lat="45.59767728499341" lon="9.347912543833582"><ele>176.8</ele><time>2026-04-09T11:58:58.001Z</time></trkpt><trkpt lat="45.59764750024665" lon="9.347767145935345"><ele>176.6</ele><time>2026-04-09T11:58:59.001Z</time></trkpt><trkpt lat="45.597617881348285" lon="9.34763143427928"><ele>176.4</ele><time>2026-04-09T11:59:00.001Z</time></trkpt><trkpt lat="45.59759038066385" lon="9.347503568355458"><ele>176.20000000000002</ele><time>2026-04-09T11:59:01.001Z</time></trkpt><trkpt lat="45.59756664208532" lon="9.347382885921784"><ele>176.0</ele><time>2026-04-09T11:59:02.001Z</time></trkpt><trkpt lat="45.597553041247394" lon="9.347266539745265"><ele>176.16666666666666</ele><time>2026-04-09T11:59:03.001Z</time></trkpt><trkpt lat="45.59755025856281" lon="9.347150508962661"><ele>176.33333333333331</ele><time>2026-04-09T11:59:04.001Z</time></trkpt><trkpt lat="45.59755011904399" lon="9.347034369694846"><ele>176.5</ele><time>2026-04-09T11:59:05.001Z</time></trkpt><trkpt lat="45.59754400586855" lon="9.346923512912758"><ele>176.66666666666666</ele><time>2026-04-09T11:59:06.001Z</time></trkpt><trkpt lat="45.597517551941785" lon="9.34681474151363"><ele>176.83333333333334</ele><time>2026-04-09T11:59:07.002Z</time></trkpt><trkpt lat="45.59747357267681" lon="9.346716875196433"><ele>177.0</ele><time>2026-04-09T11:59:08.002Z</time></trkpt><trkpt lat="45.59741875771271" lon="9.346621859281383"><ele>177.0</ele><time>2026-04-09T11:59:09.002Z</time></trkpt><trkpt lat="45.59735911906747" lon="9.346516706042573"><ele>177.0</ele><time>2026-04-09T11:59:10.002Z</time></trkpt><trkpt lat="45.597306248427316" lon="9.346392599619865"><ele>177.0</ele><time>2026-04-09T11:59:11.002Z</time></trkpt><trkpt lat="45.59726649486687" lon="9.346247599444737"><ele>177.0</ele><time>2026-04-09T11:59:12.002Z</time></trkpt><trkpt lat="45.5972289151963" lon="9.346092404253692"><ele>177.0</ele><time>2026-04-09T11:59:13.002Z</time></trkpt><trkpt lat="45.59718913739002" lon="9.345917292930233"><ele>177.0</ele><time>2026-04-09T11:59:14.002Z</time></trkpt><trkpt lat="45.59714391431326" lon="9.34572550302905"><ele>177.0</ele><time>2026-04-09T11:59:15.002Z</time></trkpt><trkpt lat="45.597094893916065" lon="9.345526002436706"><ele>177.0</ele><time>2026-04-09T11:59:16.002Z</time></trkpt><trkpt lat="45.59704170814843" lon="9.345317996820459"><ele>177.0</ele><time>2026-04-09T11:59:17.002Z</time></trkpt><trkpt lat="45.596991453658234" lon="9.345115968345002"><ele>177.0</ele><time>2026-04-09T11:59:18.002Z</time></trkpt><trkpt lat="45.59694175909921" lon="9.344913395088215"><ele>177.0</ele><time>2026-04-09T11:59:19.002Z</time></trkpt><trkpt lat="45.59689712601007" lon="9.344728704839516"><ele>177.0</ele><time>2026-04-09T11:59:20.002Z</time></trkpt><trkpt lat="45.596852769927914" lon="9.34455189669383"><ele>177.0</ele><time>2026-04-09T11:59:21.002Z</time></trkpt><trkpt lat="45.596809026206124" lon="9.34437553563265"><ele>177.0</ele><time>2026-04-09T11:59:22.002Z</time></trkpt><trkpt lat="45.59676730716833" lon="9.344197802156273"><ele>177.0</ele><time>2026-04-09T11:59:23.002Z</time></trkpt><trkpt lat="45.596729135831836" lon="9.344024905474178"><ele>177.0</ele><time>2026-04-09T11:59:24.002Z</time></trkpt><trkpt lat="45.59669888222631" lon="9.343866265582484"><ele>177.0</ele><time>2026-04-09T11:59:25.002Z</time></trkpt><trkpt lat="45.596662268151455" lon="9.343728458137495"><ele>176.83333333333334</ele><time>2026-04-09T11:59:26.002Z</time></trkpt><trkpt lat="45.59661879224572" lon="9.343599372707395"><ele>176.66666666666666</ele><time>2026-04-09T11:59:27.002Z</time></trkpt><trkpt lat="45.596567816667445" lon="9.343493305382786"><ele>176.5</ele><time>2026-04-09T11:59:28.002Z</time></trkpt><trkpt lat="45.5965145304657" lon="9.34339910613773"><ele>176.33333333333331</ele><time>2026-04-09T11:59:29.002Z</time></trkpt><trkpt lat="45.596466771754926" lon="9.343303130744552"><ele>176.16666666666666</ele><time>2026-04-09T11:59:30.002Z</time></trkpt><trkpt lat="45.596439228565245" lon="9.34319364443117"><ele>176.0</ele><time>2026-04-09T11:59:31.002Z</time></trkpt><trkpt lat="45.59643550747759" lon="9.343072627700037"><ele>176.0</ele><time>2026-04-09T11:59:32.002Z</time></trkpt><trkpt lat="45.596440355348" lon="9.342927502769378"><ele>176.0</ele><time>2026-04-09T11:59:33.002Z</time></trkpt><trkpt lat="45.59643064300262" lon="9.342786930186813"><ele>176.0</ele><time>2026-04-09T11:59:34.002Z</time></trkpt><trkpt lat="45.5964027467854" lon="9.342662969278702"><ele>176.0</ele><time>2026-04-09T11:59:35.002Z</time></trkpt><trkpt lat="45.596368908942885" lon="9.342543987152515"><ele>176.0</ele><time>2026-04-09T11:59:36.002Z</time></trkpt><trkpt lat="45.596348108241955" lon="9.342439957208988"><ele>176.0</ele><time>2026-04-09T11:59:37.002Z</time></trkpt><trkpt lat="45.59636491894634" lon="9.342322651736566"><ele>176.0</ele><time>2026-04-09T11:59:39.002Z</time></trkpt><trkpt lat="45.59645933969367" lon="9.342307270237926"><ele>176.0</ele><time>2026-04-09T11:59:40.003Z</time></trkpt><trkpt lat="45.596546392149946" lon="9.342264398019331"><ele>176.0</ele><time>2026-04-09T11:59:40.998Z</time></trkpt><trkpt lat="45.596649150713" lon="9.342188674555544"><ele>176.0</ele><time>2026-04-09T11:59:41.998Z</time></trkpt><trkpt lat="45.596780880374595" lon="9.342141923018275"><ele>176.5</ele><time>2026-04-09T11:59:42.998Z</time></trkpt><trkpt lat="45.59691830604586" lon="9.342064305933185"><ele>177.0</ele><time>2026-04-09T11:59:43.998Z</time></trkpt><trkpt lat="45.5970522854203" lon="9.342004508586534"><ele>177.5</ele><time>2026-04-09T11:59:44.998Z</time></trkpt><trkpt lat="45.59716534299678" lon="9.341936146570426"><ele>178.0</ele><time>2026-04-09T11:59:45.999Z</time></trkpt><trkpt lat="45.597269521955816" lon="9.341886844974631"><ele>178.0</ele><time>2026-04-09T11:59:46.999Z</time></trkpt><trkpt lat="45.59736331836027" lon="9.34183544400529"><ele>178.0</ele><time>2026-04-09T11:59:47.999Z</time></trkpt><trkpt lat="45.59743527132539" lon="9.341745436196241"><ele>178.0</ele><time>2026-04-09T11:59:48.999Z</time></trkpt><trkpt lat="45.59748991379557" lon="9.341623738249968"><ele>178.0</ele><time>2026-04-09T11:59:49.999Z</time></trkpt><trkpt lat="45.59753620841795" lon="9.34147546031653"><ele>178.0</ele><time>2026-04-09T11:59:50.999Z</time></trkpt><trkpt lat="45.59758263059295" lon="9.341298786054066"><ele>178.5</ele><time>2026-04-09T11:59:51.999Z</time></trkpt><trkpt lat="45.597659471155794" lon="9.341126971488674"><ele>179.0</ele><time>2026-04-09T11:59:52.999Z</time></trkpt><trkpt lat="45.59772438676504" lon="9.340941129863745"><ele>179.5</ele><time>2026-04-09T11:59:53.999Z</time></trkpt><trkpt lat="45.597789777787824" lon="9.34075392768682"><ele>180.0</ele><time>2026-04-09T11:59:54.999Z</time></trkpt><trkpt lat="45.597851445279794" lon="9.340577384993535"><ele>179.6</ele><time>2026-04-09T11:59:55.999Z</time></trkpt><trkpt lat="45.5978974214755" lon="9.34041508023414"><ele>179.2</ele><time>2026-04-09T11:59:56.999Z</time></trkpt><trkpt lat="45.59794554196424" lon="9.34026491457155"><ele>178.8</ele><time>2026-04-09T11:59:57.999Z</time></trkpt><trkpt lat="45.59799243452008" lon="9.340134478314289"><ele>178.4</ele><time>2026-04-09T11:59:58.999Z</time></trkpt><trkpt lat="45.59802851816314" lon="9.340039722703276"><ele>178.0</ele><time>2026-04-09T12:00:00Z</time></trkpt><trkpt lat="45.59806655912858" lon="9.339936475122851"><ele>178.0</ele><time>2026-04-09T12:00:02Z</time></trkpt><trkpt lat="45.597929468641375" lon="9.339766070044863"><ele>178.0</ele><time>2026-04-09T12:00:08Z</time></trkpt><trkpt lat="45.59785307833189" lon="9.339729911367986"><ele>178.0</ele><time>2026-04-09T12:00:09Z</time></trkpt><trkpt lat="45.597766635859664" lon="9.339699196488533"><ele>178.0</ele><time>2026-04-09T12:00:10Z</time></trkpt><trkpt lat="45.59766950052768" lon="9.339663771367805"><ele>178.0</ele><time>2026-04-09T12:00:11Z</time></trkpt><trkpt lat="45.597578718968954" lon="9.33962848437453"><ele>178.0</ele><time>2026-04-09T12:00:12Z</time></trkpt><trkpt lat="45.59749637644337" lon="9.339590704684264"><ele>178.0</ele><time>2026-04-09T12:00:13Z</time></trkpt><trkpt lat="45.59743199082114" lon="9.339517984458798"><ele>178.0</ele><time>2026-04-09T12:00:15Z</time></trkpt><trkpt lat="45.59749111507147" lon="9.33932373262771"><ele>178.0</ele><time>2026-04-09T12:00:19.001Z</time></trkpt><trkpt lat="45.597513053383516" lon="9.339205301616525"><ele>178.0</ele><time>2026-04-09T12:00:20.001Z</time></trkpt><trkpt lat="45.597532720437314" lon="9.339099852869175"><ele>178.0</ele><time>2026-04-09T12:00:21.001Z</time></trkpt><trkpt lat="45.597537532010314" lon="9.338990720238854"><ele>178.0</ele><time>2026-04-09T12:00:22.001Z</time></trkpt><trkpt lat="45.59755694367259" lon="9.33888872692714"><ele>178.0</ele><time>2026-04-09T12:00:23.001Z</time></trkpt><trkpt lat="45.59758390514279" lon="9.33875229644802"><ele>178.0</ele><time>2026-04-09T12:00:25.001Z</time></trkpt><trkpt lat="45.59757290189355" lon="9.338884688210676"><ele>178.0</ele><time>2026-04-09T12:02:34.001Z</time></trkpt><trkpt lat="45.59754209086515" lon="9.339049673898266"><ele>178.0</ele><time>2026-04-09T12:02:36.001Z</time></trkpt><trkpt lat="45.59751272675394" lon="9.339206909010256"><ele>178.0</ele><time>2026-04-09T12:02:38.001Z</time></trkpt><trkpt lat="45.59747653001802" lon="9.339341119974295"><ele>178.0</ele><time>2026-04-09T12:02:40.001Z</time></trkpt><trkpt lat="45.59745602891666" lon="9.339443084924303"><ele>178.0</ele><time>2026-04-09T12:02:41.001Z</time></trkpt><trkpt lat="45.59744082164094" lon="9.33954166984587"><ele>178.0</ele><time>2026-04-09T12:02:52.002Z</time></trkpt><trkpt lat="45.596958554305914" lon="9.339290018682805"><ele>178.0</ele><time>2026-04-09T12:02:59.002Z</time></trkpt><trkpt lat="45.59686567822609" lon="9.339208663408797"><ele>178.0</ele><time>2026-04-09T12:03:00.002Z</time></trkpt><trkpt lat="45.596785683295145" lon="9.339130358775925"><ele>178.0</ele><time>2026-04-09T12:03:01.002Z</time></trkpt><trkpt lat="45.596704151641994" lon="9.339043796045331"><ele>178.0</ele><time>2026-04-09T12:03:02.002Z</time></trkpt><trkpt lat="45.59661482235473" lon="9.338953046234817"><ele>178.0</ele><time>2026-04-09T12:03:03.002Z</time></trkpt><trkpt lat="45.59652069586073" lon="9.338858162744623"><ele>178.0</ele><time>2026-04-09T12:03:04.002Z</time></trkpt><trkpt lat="45.596427235295245" lon="9.338761275283108"><ele>178.0</ele><time>2026-04-09T12:03:05.002Z</time></trkpt><trkpt lat="45.596339060418536" lon="9.338675804757761"><ele>178.0</ele><time>2026-04-09T12:03:06.002Z</time></trkpt><trkpt lat="45.59625125508111" lon="9.338597365417645"><ele>178.0</ele><time>2026-04-09T12:03:07.002Z</time></trkpt><trkpt lat="45.59616747870305" lon="9.338518328690727"><ele>178.0</ele><time>2026-04-09T12:03:08.002Z</time></trkpt><trkpt lat="45.59608953623459" lon="9.338441569609484"><ele>177.8</ele><time>2026-04-09T12:03:09.002Z</time></trkpt><trkpt lat="45.59599119814849" lon="9.33839845948166"><ele>177.60000000000002</ele><time>2026-04-09T12:03:10.002Z</time></trkpt><trkpt lat="45.5958802744859" lon="9.338369142867018"><ele>177.39999999999998</ele><time>2026-04-09T12:03:11.002Z</time></trkpt><trkpt lat="45.59577060291237" lon="9.338346359865682"><ele>177.2</ele><time>2026-04-09T12:03:12.002Z</time></trkpt><trkpt lat="45.59566227687424" lon="9.33832067141503"><ele>177.0</ele><time>2026-04-09T12:03:13.002Z</time></trkpt><trkpt lat="45.59556458225408" lon="9.338299966974121"><ele>177.0</ele><time>2026-04-09T12:03:14.002Z</time></trkpt><trkpt lat="45.59547801523277" lon="9.338284104218955"><ele>177.0</ele><time>2026-04-09T12:03:15.002Z</time></trkpt><trkpt lat="45.59540471941598" lon="9.338279161406454"><ele>177.0</ele><time>2026-04-09T12:03:16.002Z</time></trkpt><trkpt lat="45.5952626948966" lon="9.338273860038436"><ele>177.0</ele><time>2026-04-09T12:03:18.002Z</time></trkpt><trkpt lat="45.59519786774671" lon="9.33826293260171"><ele>177.0</ele><time>2026-04-09T12:03:19.002Z</time></trkpt><trkpt lat="45.59513380464696" lon="9.338247043439017"><ele>177.0</ele><time>2026-04-09T12:03:22.002Z</time></trkpt><trkpt lat="45.5950400244433" lon="9.338246410199002"><ele>177.0</ele><time>2026-04-09T12:04:14Z</time></trkpt><trkpt lat="45.59495683802529" lon="9.338055668034187"><ele>177.0</ele><time>2026-04-09T12:04:16.001Z</time></trkpt><trkpt lat="45.59492178600926" lon="9.337937867807055"><ele>177.0</ele><time>2026-04-09T12:04:17.001Z</time></trkpt><trkpt lat="45.59488055729712" lon="9.33780683741314"><ele>177.0</ele><time>2026-04-09T12:04:18.001Z</time></trkpt><trkpt lat="45.594840769398274" lon="9.337680373219749"><ele>177.0</ele><time>2026-04-09T12:04:19.001Z</time></trkpt><trkpt lat="45.59479349056073" lon="9.337549658994512"><ele>177.0</ele><time>2026-04-09T12:04:20.001Z</time></trkpt><trkpt lat="45.59474075681874" lon="9.337399496761591"><ele>177.0</ele><time>2026-04-09T12:04:21.001Z</time></trkpt><trkpt lat="45.59467948909477" lon="9.33723182423547"><ele>177.0</ele><time>2026-04-09T12:04:22.001Z</time></trkpt><trkpt lat="45.5946182708415" lon="9.337062975208363"><ele>177.0</ele><time>2026-04-09T12:04:23.001Z</time></trkpt><trkpt lat="45.59456081946435" lon="9.33690688091905"><ele>176.75</ele><time>2026-04-09T12:04:24.001Z</time></trkpt><trkpt lat="45.59449524503532" lon="9.336752088117594"><ele>176.5</ele><time>2026-04-09T12:04:25.001Z</time></trkpt><trkpt lat="45.59442608255951" lon="9.336593270063231"><ele>176.25</ele><time>2026-04-09T12:04:26.001Z</time></trkpt><trkpt lat="45.59434859150431" lon="9.336429022140274"><ele>176.0</ele><time>2026-04-09T12:04:27.001Z</time></trkpt><trkpt lat="45.59426647342275" lon="9.336272484946546"><ele>175.75</ele><time>2026-04-09T12:04:28.001Z</time></trkpt><trkpt lat="45.594176667381625" lon="9.336120213269755"><ele>175.5</ele><time>2026-04-09T12:04:29.001Z</time></trkpt><trkpt lat="45.5940866824281" lon="9.33597376712301"><ele>175.25</ele><time>2026-04-09T12:04:30.001Z</time></trkpt><trkpt lat="45.59399613720539" lon="9.335838417877426"><ele>175.0</ele><time>2026-04-09T12:04:31.001Z</time></trkpt><trkpt lat="45.59390377454136" lon="9.335710495369018"><ele>175.0</ele><time>2026-04-09T12:04:32.001Z</time></trkpt><trkpt lat="45.59380891711406" lon="9.3355853573523"><ele>175.0</ele><time>2026-04-09T12:04:33.001Z</time></trkpt><trkpt lat="45.59371346245228" lon="9.335470500265247"><ele>175.0</ele><time>2026-04-09T12:04:34.001Z</time></trkpt><trkpt lat="45.593616863276836" lon="9.335357484291608"><ele>175.0</ele><time>2026-04-09T12:04:35.001Z</time></trkpt><trkpt lat="45.59351871191496" lon="9.335253081369274"><ele>175.0</ele><time>2026-04-09T12:04:36.001Z</time></trkpt><trkpt lat="45.59341942346447" lon="9.33515229339292"><ele>175.0</ele><time>2026-04-09T12:04:37.001Z</time></trkpt><trkpt lat="45.593330170635866" lon="9.33506260044961"><ele>175.0</ele><time>2026-04-09T12:04:38.001Z</time></trkpt><trkpt lat="45.59325603859387" lon="9.334971883244073"><ele>175.0</ele><time>2026-04-09T12:04:39.001Z</time></trkpt><trkpt lat="45.593182531911424" lon="9.334892240586685"><ele>175.0</ele><time>2026-04-09T12:04:40.001Z</time></trkpt><trkpt lat="45.593110958641304" lon="9.334810104238384"><ele>175.0</ele><time>2026-04-09T12:04:41.001Z</time></trkpt><trkpt lat="45.59304141690631" lon="9.334735046656403"><ele>175.0</ele><time>2026-04-09T12:04:42.001Z</time></trkpt><trkpt lat="45.592974715829726" lon="9.334654813904345"><ele>175.0</ele><time>2026-04-09T12:04:43.001Z</time></trkpt><trkpt lat="45.5929062497044" lon="9.334580290009825"><ele>175.0</ele><time>2026-04-09T12:04:44.001Z</time></trkpt><trkpt lat="45.59283062556061" lon="9.334501650862792"><ele>175.0</ele><time>2026-04-09T12:04:45.001Z</time></trkpt><trkpt lat="45.592750201992914" lon="9.334419061358856"><ele>175.2</ele><time>2026-04-09T12:04:46.001Z</time></trkpt><trkpt lat="45.59267435500559" lon="9.334323495925512"><ele>175.4</ele><time>2026-04-09T12:04:47.001Z</time></trkpt><trkpt lat="45.59259434639452" lon="9.334231514376311"><ele>175.60000000000002</ele><time>2026-04-09T12:04:48.001Z</time></trkpt><trkpt lat="45.59252194607398" lon="9.334150017677093"><ele>175.8</ele><time>2026-04-09T12:04:49.001Z</time></trkpt><trkpt lat="45.59245634587311" lon="9.334074044152583"><ele>176.0</ele><time>2026-04-09T12:04:50.001Z</time></trkpt><trkpt lat="45.592387024340276" lon="9.33400415295759"><ele>176.0</ele><time>2026-04-09T12:04:51.001Z</time></trkpt><trkpt lat="45.59232311287209" lon="9.333938364810786"><ele>176.0</ele><time>2026-04-09T12:04:52.001Z</time></trkpt><trkpt lat="45.59226782084747" lon="9.3338704934321"><ele>176.0</ele><time>2026-04-09T12:04:53.001Z</time></trkpt><trkpt lat="45.59221374646352" lon="9.333807007335265"><ele>176.0</ele><time>2026-04-09T12:04:54.001Z</time></trkpt><trkpt lat="45.592141253760495" lon="9.333730061790162"><ele>176.0</ele><time>2026-04-09T12:04:56.001Z</time></trkpt><trkpt lat="45.59208757629361" lon="9.333645590937849"><ele>176.0</ele><time>2026-04-09T12:04:58.001Z</time></trkpt><trkpt lat="45.592022669043736" lon="9.333548581941594"><ele>175.66666666666666</ele><time>2026-04-09T12:05:01.002Z</time></trkpt><trkpt lat="45.59195472647384" lon="9.33349765844073"><ele>175.33333333333331</ele><time>2026-04-09T12:05:03.002Z</time></trkpt><trkpt lat="45.59188028150432" lon="9.333429225908008"><ele>175.0</ele><time>2026-04-09T12:05:05.002Z</time></trkpt><trkpt lat="45.59182487416039" lon="9.333367258196999"><ele>174.66666666666666</ele><time>2026-04-09T12:05:06.002Z</time></trkpt><trkpt lat="45.591771885177316" lon="9.333311898157376"><ele>174.33333333333334</ele><time>2026-04-09T12:05:07.002Z</time></trkpt><trkpt lat="45.59170946463838" lon="9.333243267901208"><ele>174.0</ele><time>2026-04-09T12:05:08.002Z</time></trkpt><trkpt lat="45.591635964361984" lon="9.333161497051904"><ele>174.0</ele><time>2026-04-09T12:05:09.002Z</time></trkpt><trkpt lat="45.59155592081658" lon="9.333074180657352"><ele>174.0</ele><time>2026-04-09T12:05:10.002Z</time></trkpt><trkpt lat="45.59148460951396" lon="9.332990057497078"><ele>174.0</ele><time>2026-04-09T12:05:11.002Z</time></trkpt><trkpt lat="45.59141725866203" lon="9.332912481870226"><ele>174.0</ele><time>2026-04-09T12:05:12.002Z</time></trkpt><trkpt lat="45.59135620604319" lon="9.332840506029777"><ele>174.0</ele><time>2026-04-09T12:05:13.002Z</time></trkpt><trkpt lat="45.59130026936837" lon="9.332773919988206"><ele>174.0</ele><time>2026-04-09T12:05:14.002Z</time></trkpt><trkpt lat="45.59123918061055" lon="9.332720410579388"><ele>174.16666666666666</ele><time>2026-04-09T12:05:15.002Z</time></trkpt><trkpt lat="45.591179689290094" lon="9.332657542640503"><ele>174.33333333333334</ele><time>2026-04-09T12:05:16.002Z</time></trkpt><trkpt lat="45.59112422677151" lon="9.332593038437716"><ele>174.5</ele><time>2026-04-09T12:05:17.002Z</time></trkpt><trkpt lat="45.59106378120371" lon="9.33252591822321"><ele>174.66666666666669</ele><time>2026-04-09T12:05:18.002Z</time></trkpt><trkpt lat="45.590996903552316" lon="9.332451240944037"><ele>174.83333333333334</ele><time>2026-04-09T12:05:19.002Z</time></trkpt><trkpt lat="45.59091696573926" lon="9.332370993757376"><ele>175.0</ele><time>2026-04-09T12:05:20.002Z</time></trkpt><trkpt lat="45.59084369381565" lon="9.332284707852885"><ele>174.75</ele><time>2026-04-09T12:05:21.002Z</time></trkpt><trkpt lat="45.59075926024679" lon="9.332196940212492"><ele>174.5</ele><time>2026-04-09T12:05:22.002Z</time></trkpt><trkpt lat="45.590654044378205" lon="9.33208674043946"><ele>174.25</ele><time>2026-04-09T12:05:23.002Z</time></trkpt><trkpt lat="45.59055748027229" lon="9.331968056933635"><ele>174.0</ele><time>2026-04-09T12:05:24.002Z</time></trkpt><trkpt lat="45.5904740382797" lon="9.33186423675875"><ele>174.0</ele><time>2026-04-09T12:05:25.002Z</time></trkpt><trkpt lat="45.590394779491994" lon="9.33177539754262"><ele>174.0</ele><time>2026-04-09T12:05:26.002Z</time></trkpt><trkpt lat="45.590298725658194" lon="9.331683984301442"><ele>174.0</ele><time>2026-04-09T12:05:27.002Z</time></trkpt><trkpt lat="45.59020100350037" lon="9.331569806541543"><ele>174.0</ele><time>2026-04-09T12:05:28.002Z</time></trkpt><trkpt lat="45.590104468181686" lon="9.331457875263144"><ele>174.0</ele><time>2026-04-09T12:05:29.002Z</time></trkpt><trkpt lat="45.590020932409665" lon="9.331361110823662"><ele>174.0</ele><time>2026-04-09T12:05:30.002Z</time></trkpt><trkpt lat="45.589939168310636" lon="9.331264972559914"><ele>174.0</ele><time>2026-04-09T12:05:31.002Z</time></trkpt><trkpt lat="45.58985565455473" lon="9.33117302264463"><ele>174.0</ele><time>2026-04-09T12:05:32.002Z</time></trkpt><trkpt lat="45.589778658403276" lon="9.331087713822154"><ele>174.0</ele><time>2026-04-09T12:05:33.002Z</time></trkpt><trkpt lat="45.58971203615896" lon="9.3310159771757"><ele>174.0</ele><time>2026-04-09T12:05:34.002Z</time></trkpt><trkpt lat="45.589651325160716" lon="9.330944242603213"><ele>174.0</ele><time>2026-04-09T12:05:35.002Z</time></trkpt><trkpt lat="45.58961594686787" lon="9.330864960275802"><ele>174.0</ele><time>2026-04-09T12:05:36.002Z</time></trkpt><trkpt lat="45.589559915714055" lon="9.330810938400905"><ele>174.0</ele><time>2026-04-09T12:05:37.002Z</time></trkpt><trkpt lat="45.589482776424475" lon="9.33085579065919"><ele>174.0</ele><time>2026-04-09T12:05:38.002Z</time></trkpt><trkpt lat="45.58941056235699" lon="9.330894236589918"><ele>174.0</ele><time>2026-04-09T12:05:39.003Z</time></trkpt><trkpt lat="45.589323628776214" lon="9.330930875398957"><ele>173.6</ele><time>2026-04-09T12:05:40.003Z</time></trkpt><trkpt lat="45.58923245695163" lon="9.33094547555248"><ele>173.2</ele><time>2026-04-09T12:05:41.003Z</time></trkpt><trkpt lat="45.58914496626701" lon="9.330931430398147"><ele>172.79999999999998</ele><time>2026-04-09T12:05:42.003Z</time></trkpt><trkpt lat="45.58905160507106" lon="9.330903229233733"><ele>172.39999999999998</ele><time>2026-04-09T12:05:43.003Z</time></trkpt><trkpt lat="45.58895419883616" lon="9.330875046247119"><ele>172.0</ele><time>2026-04-09T12:05:44.003Z</time></trkpt><trkpt lat="45.58886112850706" lon="9.3308453204661"><ele>172.0</ele><time>2026-04-09T12:05:45.003Z</time></trkpt><trkpt lat="45.58877075787055" lon="9.330818137792807"><ele>172.0</ele><time>2026-04-09T12:05:46.003Z</time></trkpt><trkpt lat="45.588668604945376" lon="9.330794669574617"><ele>172.0</ele><time>2026-04-09T12:05:47.003Z</time></trkpt><trkpt lat="45.588560122739885" lon="9.330786303395726"><ele>172.0</ele><time>2026-04-09T12:05:48.003Z</time></trkpt><trkpt lat="45.58845280382844" lon="9.330761409257796"><ele>172.0</ele><time>2026-04-09T12:05:49.003Z</time></trkpt><trkpt lat="45.58834010334771" lon="9.33073710795623"><ele>171.5</ele><time>2026-04-09T12:05:50.003Z</time></trkpt><trkpt lat="45.58822380865023" lon="9.330710276579175"><ele>171.0</ele><time>2026-04-09T12:05:51.003Z</time></trkpt><trkpt lat="45.58810420694306" lon="9.330684946293534"><ele>170.5</ele><time>2026-04-09T12:05:52.003Z</time></trkpt><trkpt lat="45.587990319136004" lon="9.330661915771186"><ele>170.0</ele><time>2026-04-09T12:05:53.003Z</time></trkpt><trkpt lat="45.587881847896284" lon="9.330631870121023"><ele>170.0</ele><time>2026-04-09T12:05:54.003Z</time></trkpt><trkpt lat="45.587791809358265" lon="9.33060828202336"><ele>170.0</ele><time>2026-04-09T12:05:55.003Z</time></trkpt><trkpt lat="45.587723683441574" lon="9.330597728023534"><ele>170.0</ele><time>2026-04-09T12:05:56.003Z</time></trkpt><trkpt lat="45.58765769153804" lon="9.330596369849369"><ele>170.0</ele><time>2026-04-09T12:05:58.003Z</time></trkpt><trkpt lat="45.58757827869732" lon="9.330658351142453"><ele>170.0</ele><time>2026-04-09T12:06:24.999Z</time></trkpt><trkpt lat="45.58758543612839" lon="9.330564760706856"><ele>170.0</ele><time>2026-04-09T12:06:26Z</time></trkpt><trkpt lat="45.587578545788325" lon="9.330743583399617"><ele>170.0</ele><time>2026-04-09T12:06:27Z</time></trkpt><trkpt lat="45.58764600767418" lon="9.330896792685873"><ele>170.0</ele><time>2026-04-09T12:06:29Z</time></trkpt><trkpt lat="45.58768328141629" lon="9.330804487649138"><ele>170.0</ele><time>2026-04-09T12:06:30Z</time></trkpt><trkpt lat="45.587673518338306" lon="9.330903380744964"><ele>170.0</ele><time>2026-04-09T12:06:34Z</time></trkpt><trkpt lat="45.58768865150205" lon="9.33078237421795"><ele>170.0</ele><time>2026-04-09T12:06:36Z</time></trkpt><trkpt lat="45.58767428109628" lon="9.330903563470903"><ele>170.0</ele><time>2026-04-09T12:07:07.001Z</time></trkpt><trkpt lat="45.58769082684012" lon="9.330763391714452"><ele>170.0</ele><time>2026-04-09T12:07:15.001Z</time></trkpt><trkpt lat="45.58776333308563" lon="9.330781820587099"><ele>170.0</ele><time>2026-04-09T12:11:14.001Z</time></trkpt><trkpt lat="45.58784297429601" lon="9.33076417196508"><ele>170.0</ele><time>2026-04-09T12:11:17.001Z</time></trkpt><trkpt lat="45.58785777985052" lon="9.330666101742565"><ele>170.0</ele><time>2026-04-09T12:11:21.001Z</time></trkpt><trkpt lat="45.58778183030205" lon="9.330645892383567"><ele>170.0</ele><time>2026-04-09T12:11:24.001Z</time></trkpt><trkpt lat="45.58771641256546" lon="9.330619201767238"><ele>170.0</ele><time>2026-04-09T12:11:26.001Z</time></trkpt><trkpt lat="45.58765340510064" lon="9.330592293745045"><ele>170.0</ele><time>2026-04-09T12:11:28.001Z</time></trkpt><trkpt lat="45.58753591517822" lon="9.330551280002169"><ele>169.5</ele><time>2026-04-09T12:11:30.001Z</time></trkpt><trkpt lat="45.58746391334697" lon="9.330531206609127"><ele>169.0</ele><time>2026-04-09T12:11:31.001Z</time></trkpt><trkpt lat="45.587384441420504" lon="9.330506093604985"><ele>168.5</ele><time>2026-04-09T12:11:32.001Z</time></trkpt><trkpt lat="45.58731300095347" lon="9.330480121495624"><ele>168.0</ele><time>2026-04-09T12:11:33.001Z</time></trkpt><trkpt lat="45.58725151965604" lon="9.330457839468805"><ele>167.5</ele><time>2026-04-09T12:11:34.001Z</time></trkpt><trkpt lat="45.58715068343842" lon="9.33040849432296"><ele>167.0</ele><time>2026-04-09T12:11:36.001Z</time></trkpt><trkpt lat="45.587050849204545" lon="9.330347459884425"><ele>167.0</ele><time>2026-04-09T12:11:38.001Z</time></trkpt><trkpt lat="45.58695708017608" lon="9.330325486785354"><ele>167.0</ele><time>2026-04-09T12:11:40.001Z</time></trkpt><trkpt lat="45.58690154423706" lon="9.330374337201194"><ele>167.0</ele><time>2026-04-09T12:11:42.001Z</time></trkpt><trkpt lat="45.58695475912839" lon="9.330545572469614"><ele>167.0</ele><time>2026-04-09T12:11:43.001Z</time></trkpt><trkpt lat="45.58692286891315" lon="9.330627459270966"><ele>167.0</ele><time>2026-04-09T12:11:44.001Z</time></trkpt><trkpt lat="45.58687732630021" lon="9.330706472959758"><ele>167.0</ele><time>2026-04-09T12:11:45.001Z</time></trkpt><trkpt lat="45.58684628564315" lon="9.330800446812233"><ele>167.33333333333331</ele><time>2026-04-09T12:11:46.001Z</time></trkpt><trkpt lat="45.58680676648169" lon="9.330891628450079"><ele>167.66666666666666</ele><time>2026-04-09T12:11:47.001Z</time></trkpt><trkpt lat="45.58676237140615" lon="9.330977050436093"><ele>168.0</ele><time>2026-04-09T12:11:48.001Z</time></trkpt><trkpt lat="45.586717976266314" lon="9.331052372801054"><ele>168.33333333333334</ele><time>2026-04-09T12:11:49.001Z</time></trkpt><trkpt lat="45.586631539786545" lon="9.331154263870372"><ele>168.66666666666669</ele><time>2026-04-09T12:11:51.001Z</time></trkpt><trkpt lat="45.586543121980334" lon="9.331259463519537"><ele>169.0</ele><time>2026-04-09T12:11:53.001Z</time></trkpt><trkpt lat="45.586481239136496" lon="9.33136246945503"><ele>169.83333333333334</ele><time>2026-04-09T12:11:55.001Z</time></trkpt><trkpt lat="45.58648800858354" lon="9.33146446134061"><ele>170.66666666666669</ele><time>2026-04-09T12:11:56.001Z</time></trkpt><trkpt lat="45.586563376075" lon="9.331545646706841"><ele>171.5</ele><time>2026-04-09T12:11:57.001Z</time></trkpt><trkpt lat="45.58656855333214" lon="9.331695986099216"><ele>172.33333333333334</ele><time>2026-04-09T12:11:58.001Z</time></trkpt><trkpt lat="45.58660263808301" lon="9.331800232780461"><ele>173.16666666666666</ele><time>2026-04-09T12:11:59.001Z</time></trkpt><trkpt lat="45.58662868100566" lon="9.33190297141844"><ele>174.0</ele><time>2026-04-09T12:12:00.001Z</time></trkpt><trkpt lat="45.58663768690689" lon="9.332013324746907"><ele>174.0</ele><time>2026-04-09T12:12:01.001Z</time></trkpt><trkpt lat="45.58665834654943" lon="9.332141932879043"><ele>174.0</ele><time>2026-04-09T12:12:02.001Z</time></trkpt><trkpt lat="45.586693513450996" lon="9.332285957938282"><ele>174.0</ele><time>2026-04-09T12:12:03.001Z</time></trkpt><trkpt lat="45.586712029591595" lon="9.332438516665928"><ele>174.0</ele><time>2026-04-09T12:12:04.001Z</time></trkpt><trkpt lat="45.58672735824975" lon="9.332573843407413"><ele>174.0</ele><time>2026-04-09T12:12:05.001Z</time></trkpt><trkpt lat="45.586730125504396" lon="9.332695482619425"><ele>174.39999999999998</ele><time>2026-04-09T12:12:06.001Z</time></trkpt><trkpt lat="45.58672465926661" lon="9.332803413555318"><ele>174.8</ele><time>2026-04-09T12:12:07.001Z</time></trkpt><trkpt lat="45.586724153401015" lon="9.332906554053594"><ele>175.2</ele><time>2026-04-09T12:12:08.001Z</time></trkpt><trkpt lat="45.58671938440805" lon="9.333025992104288"><ele>175.60000000000002</ele><time>2026-04-09T12:12:10.001Z</time></trkpt><trkpt lat="45.58659565580748" lon="9.333000510139255"><ele>176.0</ele><time>2026-04-09T12:12:13.001Z</time></trkpt><trkpt lat="45.58648191428885" lon="9.33293784706407"><ele>176.0</ele><time>2026-04-09T12:12:15.001Z</time></trkpt><trkpt lat="45.586419603727336" lon="9.332893338531614"><ele>176.0</ele><time>2026-04-09T12:12:16.001Z</time></trkpt><trkpt lat="45.58635374715543" lon="9.33286252711269"><ele>176.0</ele><time>2026-04-09T12:12:16.998Z</time></trkpt><trkpt lat="45.58629430162021" lon="9.33281719767093"><ele>176.0</ele><time>2026-04-09T12:12:17.998Z</time></trkpt><trkpt lat="45.58620781894005" lon="9.332767100238785"><ele>176.0</ele><time>2026-04-09T12:12:19.998Z</time></trkpt><trkpt lat="45.5861302715526" lon="9.332712258564028"><ele>176.0</ele><time>2026-04-09T12:12:21.998Z</time></trkpt><trkpt lat="45.58606384199542" lon="9.332670636395175"><ele>175.5</ele><time>2026-04-09T12:12:23.998Z</time></trkpt><trkpt lat="45.58600190506351" lon="9.332633015109883"><ele>175.0</ele><time>2026-04-09T12:12:25.998Z</time></trkpt><trkpt lat="45.58593083068327" lon="9.332564553374652"><ele>174.5</ele><time>2026-04-09T12:12:27.998Z</time></trkpt><trkpt lat="45.58581581227391" lon="9.332472855386177"><ele>174.0</ele><time>2026-04-09T12:12:29.998Z</time></trkpt><trkpt lat="45.58573711952734" lon="9.332446886372058"><ele>173.5</ele><time>2026-04-09T12:12:30.998Z</time></trkpt><trkpt lat="45.58566277688807" lon="9.332413517704587"><ele>173.0</ele><time>2026-04-09T12:12:31.998Z</time></trkpt><trkpt lat="45.58559237864134" lon="9.332392993421688"><ele>173.0</ele><time>2026-04-09T12:12:32.999Z</time></trkpt><trkpt lat="45.58552636222521" lon="9.332376576734873"><ele>173.0</ele><time>2026-04-09T12:12:33.999Z</time></trkpt><trkpt lat="45.58544044170786" lon="9.33234868259438"><ele>173.0</ele><time>2026-04-09T12:12:34.999Z</time></trkpt><trkpt lat="45.58535124975999" lon="9.332317910780459"><ele>173.0</ele><time>2026-04-09T12:12:35.999Z</time></trkpt><trkpt lat="45.585267077582955" lon="9.332290906521964"><ele>173.0</ele><time>2026-04-09T12:12:36.999Z</time></trkpt><trkpt lat="45.58517636014072" lon="9.332265872731279"><ele>173.0</ele><time>2026-04-09T12:12:37.999Z</time></trkpt><trkpt lat="45.58507640543944" lon="9.332239762454874"><ele>172.16666666666666</ele><time>2026-04-09T12:12:38.999Z</time></trkpt><trkpt lat="45.584971383350855" lon="9.332210137284546"><ele>171.33333333333331</ele><time>2026-04-09T12:12:39.999Z</time></trkpt><trkpt lat="45.584875006860656" lon="9.332186743935518"><ele>170.5</ele><time>2026-04-09T12:12:40.999Z</time></trkpt><trkpt lat="45.584793729243664" lon="9.332165904096216"><ele>169.66666666666666</ele><time>2026-04-09T12:12:41.999Z</time></trkpt><trkpt lat="45.58471663294451" lon="9.332142250054305"><ele>168.83333333333334</ele><time>2026-04-09T12:12:42.999Z</time></trkpt><trkpt lat="45.58464947295095" lon="9.332123290788136"><ele>168.0</ele><time>2026-04-09T12:12:43.999Z</time></trkpt><trkpt lat="45.58458464407277" lon="9.33210771079907"><ele>167.8</ele><time>2026-04-09T12:12:44.999Z</time></trkpt><trkpt lat="45.58448366702584" lon="9.332080231774349"><ele>167.60000000000002</ele><time>2026-04-09T12:12:46.999Z</time></trkpt><trkpt lat="45.58439280552125" lon="9.332066120006166"><ele>167.39999999999998</ele><time>2026-04-09T12:12:48.999Z</time></trkpt><trkpt lat="45.58432972616077" lon="9.332048174936808"><ele>167.2</ele><time>2026-04-09T12:12:51Z</time></trkpt><trkpt lat="45.5842964493491" lon="9.332251612880345"><ele>167.0</ele><time>2026-04-09T12:12:53Z</time></trkpt><trkpt lat="45.58426711105859" lon="9.332376042111502"><ele>167.39999999999998</ele><time>2026-04-09T12:12:54Z</time></trkpt><trkpt lat="45.584252799206276" lon="9.33251528509426"><ele>167.79999999999998</ele><time>2026-04-09T12:12:55Z</time></trkpt><trkpt lat="45.584237760168996" lon="9.33265859062279"><ele>168.2</ele><time>2026-04-09T12:12:56Z</time></trkpt><trkpt lat="45.58421285464219" lon="9.332778976935296"><ele>168.6</ele><time>2026-04-09T12:12:57Z</time></trkpt><trkpt lat="45.58420276915176" lon="9.332909723723386"><ele>169.0</ele><time>2026-04-09T12:12:58Z</time></trkpt><trkpt lat="45.58418270317237" lon="9.333050280322478"><ele>169.16666666666669</ele><time>2026-04-09T12:12:59Z</time></trkpt><trkpt lat="45.584167817416564" lon="9.333192070671169"><ele>169.33333333333334</ele><time>2026-04-09T12:13:00Z</time></trkpt><trkpt lat="45.58415449951937" lon="9.333330337779646"><ele>169.5</ele><time>2026-04-09T12:13:01Z</time></trkpt><trkpt lat="45.58414724288919" lon="9.333445731714589"><ele>169.66666666666666</ele><time>2026-04-09T12:13:02Z</time></trkpt><trkpt lat="45.584140086539485" lon="9.33356867052639"><ele>169.83333333333331</ele><time>2026-04-09T12:13:03Z</time></trkpt><trkpt lat="45.584131333306864" lon="9.333685166822985"><ele>170.0</ele><time>2026-04-09T12:13:04Z</time></trkpt><trkpt lat="45.584106052875605" lon="9.3338098760047"><ele>170.0</ele><time>2026-04-09T12:13:05Z</time></trkpt><trkpt lat="45.58409902764122" lon="9.333957732801911"><ele>170.0</ele><time>2026-04-09T12:13:06Z</time></trkpt><trkpt lat="45.584071341154676" lon="9.334101635823998"><ele>170.0</ele><time>2026-04-09T12:13:07Z</time></trkpt><trkpt lat="45.58405083650304" lon="9.334250823625514"><ele>170.0</ele><time>2026-04-09T12:13:08Z</time></trkpt><trkpt lat="45.584038205076325" lon="9.334393560379354"><ele>170.0</ele><time>2026-04-09T12:13:09Z</time></trkpt><trkpt lat="45.58402736894275" lon="9.33453105765492"><ele>170.0</ele><time>2026-04-09T12:13:10Z</time></trkpt><trkpt lat="45.58400804900321" lon="9.33467407398642"><ele>170.0</ele><time>2026-04-09T12:13:11Z</time></trkpt><trkpt lat="45.583993366718275" lon="9.33480991425993"><ele>170.0</ele><time>2026-04-09T12:13:12Z</time></trkpt><trkpt lat="45.58398031561343" lon="9.334939535375083"><ele>170.0</ele><time>2026-04-09T12:13:13Z</time></trkpt><trkpt lat="45.583970500487446" lon="9.335067674279829"><ele>170.0</ele><time>2026-04-09T12:13:14Z</time></trkpt><trkpt lat="45.58395739620831" lon="9.335196531135376"><ele>170.0</ele><time>2026-04-09T12:13:15Z</time></trkpt><trkpt lat="45.583935935210704" lon="9.335307165394582"><ele>170.0</ele><time>2026-04-09T12:13:16Z</time></trkpt><trkpt lat="45.583948748563536" lon="9.335410672626725"><ele>170.0</ele><time>2026-04-09T12:13:17Z</time></trkpt><trkpt lat="45.58393710274559" lon="9.335503310993106"><ele>170.0</ele><time>2026-04-09T12:13:18Z</time></trkpt><trkpt lat="45.5841069176504" lon="9.335612631348848"><ele>170.0</ele><time>2026-04-09T12:13:21Z</time></trkpt><trkpt lat="45.584174933186695" lon="9.335602658229805"><ele>170.0</ele><time>2026-04-09T12:13:22Z</time></trkpt><trkpt lat="45.58423887142328" lon="9.335600291176327"><ele>170.0</ele><time>2026-04-09T12:13:23Z</time></trkpt><trkpt lat="45.58430984628727" lon="9.335642185941888"><ele>170.0</ele><time>2026-04-09T12:13:25Z</time></trkpt><trkpt lat="45.58427411736228" lon="9.335954547388928"><ele>170.0</ele><time>2026-04-09T12:13:59.001Z</time></trkpt><trkpt lat="45.584281697902796" lon="9.336054342614833"><ele>170.0</ele><time>2026-04-09T12:14:20.001Z</time></trkpt><trkpt lat="45.584205299089916" lon="9.335935640300546"><ele>170.0</ele><time>2026-04-09T12:14:25.996Z</time></trkpt><trkpt lat="45.58416497505495" lon="9.335850334636199"><ele>170.0</ele><time>2026-04-09T12:14:26.996Z</time></trkpt><trkpt lat="45.5840986770967" lon="9.335695890309658"><ele>170.0</ele><time>2026-04-09T12:14:28.997Z</time></trkpt><trkpt lat="45.58405946037042" lon="9.335572905080149"><ele>170.0</ele><time>2026-04-09T12:14:29.997Z</time></trkpt><trkpt lat="45.58402193236782" lon="9.335465255680267"><ele>170.0</ele><time>2026-04-09T12:14:30.997Z</time></trkpt><trkpt lat="45.58404071873558" lon="9.336275092474224"><ele>170.0</ele><time>2026-04-09T12:14:31.997Z</time></trkpt><trkpt lat="45.583968954354845" lon="9.33628925569702"><ele>170.0</ele><time>2026-04-09T12:14:32.997Z</time></trkpt><trkpt lat="45.58387582070292" lon="9.336277310623279"><ele>170.0</ele><time>2026-04-09T12:14:34.997Z</time></trkpt><trkpt lat="45.58378790503954" lon="9.33627897411382"><ele>170.0</ele><time>2026-04-09T12:14:36.997Z</time></trkpt><trkpt lat="45.58397191000686" lon="9.336273783098596"><ele>170.0</ele><time>2026-04-09T12:14:41.998Z</time></trkpt><trkpt lat="45.58405298278283" lon="9.336257530385009"><ele>170.0</ele><time>2026-04-09T12:14:43.998Z</time></trkpt><trkpt lat="45.58441826612303" lon="9.336158623927586"><ele>170.0</ele><time>2026-04-09T12:15:16Z</time></trkpt><trkpt lat="45.58430094749337" lon="9.336148998590634"><ele>170.0</ele><time>2026-04-09T12:16:40Z</time></trkpt><trkpt lat="45.58451201771001" lon="9.336205981680507"><ele>170.0</ele><time>2026-04-09T12:16:51Z</time></trkpt><trkpt lat="45.58432174383397" lon="9.336175821528807"><ele>170.0</ele><time>2026-04-09T12:17:04.001Z</time></trkpt><trkpt lat="45.584603095196734" lon="9.336078690568128"><ele>170.0</ele><time>2026-04-09T12:17:32.001Z</time></trkpt><trkpt lat="45.584323422574556" lon="9.336015871990563"><ele>170.0</ele><time>2026-04-09T12:18:08.021Z</time></trkpt><trkpt lat="45.58435668556103" lon="9.335928291052797"><ele>170.0</ele><time>2026-04-09T12:18:24.003Z</time></trkpt><trkpt lat="45.58422732288802" lon="9.335945993683351"><ele>170.0</ele><time>2026-04-09T12:18:31.003Z</time></trkpt><trkpt lat="45.58417967736129" lon="9.335835275163005"><ele>170.0</ele><time>2026-04-09T12:19:22.031Z</time></trkpt></trkseg></trk></gpx>